<?xml version="1.0" encoding="UTF-8" standalone="no" ?>
<gpx xmlns="http://www.topografix.com/GPX/1/1" xmlns:xsi="http://www.w3.org/2001/XMLSchema-instance" xsi:schemaLocation="http://www.topografix.com/GPX/1/1 http://www.topografix.com/GPX/1/1/gpx.xsd" version="1.1" creator="VisuGPX - https://www.visugpx.com">
  <metadata>
    <name>2021-06-01 09:34:12 [Suunto App]</name>
  </metadata>
  <trk>
    <name><![CDATA[2021-06-01 09:34:12 [Suunto App]_1]]></name>
    <trkseg>
      <trkpt lat="45.61995" lon="6.77189">
        <ele>810.6</ele>
        <time>2021-06-01T07:34:12Z</time>
      </trkpt>
      <trkpt lat="45.61992" lon="6.7719">
        <ele>810.5</ele>
        <time>2021-06-01T07:34:13Z</time>
      </trkpt>
      <trkpt lat="45.61989" lon="6.77192">
        <ele>810.3</ele>
        <time>2021-06-01T07:34:14Z</time>
      </trkpt>
      <trkpt lat="45.61985" lon="6.77194">
        <ele>810</ele>
        <time>2021-06-01T07:34:15Z</time>
      </trkpt>
      <trkpt lat="45.61981" lon="6.77197">
        <ele>809.9</ele>
        <time>2021-06-01T07:34:16Z</time>
      </trkpt>
      <trkpt lat="45.61977" lon="6.772">
        <ele>809.8</ele>
        <time>2021-06-01T07:34:17Z</time>
      </trkpt>
      <trkpt lat="45.61972" lon="6.77203">
        <ele>809.7</ele>
        <time>2021-06-01T07:34:18Z</time>
      </trkpt>
      <trkpt lat="45.61968" lon="6.77206">
        <ele>781</ele>
        <time>2021-06-01T07:34:19Z</time>
      </trkpt>
      <trkpt lat="45.61963" lon="6.77211">
        <ele>781</ele>
        <time>2021-06-01T07:34:20Z</time>
      </trkpt>
      <trkpt lat="45.61958" lon="6.77215">
        <ele>780.6</ele>
        <time>2021-06-01T07:34:21Z</time>
      </trkpt>
      <trkpt lat="45.61954" lon="6.77219">
        <ele>780.6</ele>
        <time>2021-06-01T07:34:22Z</time>
      </trkpt>
      <trkpt lat="45.61949" lon="6.77222">
        <ele>780.6</ele>
        <time>2021-06-01T07:34:23Z</time>
      </trkpt>
      <trkpt lat="45.61944" lon="6.77226">
        <ele>780.4</ele>
        <time>2021-06-01T07:34:24Z</time>
      </trkpt>
      <trkpt lat="45.61939" lon="6.77232">
        <ele>780.4</ele>
        <time>2021-06-01T07:34:25Z</time>
      </trkpt>
      <trkpt lat="45.61935" lon="6.77236">
        <ele>780.2</ele>
        <time>2021-06-01T07:34:26Z</time>
      </trkpt>
      <trkpt lat="45.6193" lon="6.77241">
        <ele>780</ele>
        <time>2021-06-01T07:34:27Z</time>
      </trkpt>
      <trkpt lat="45.61926" lon="6.77245">
        <ele>779.8</ele>
        <time>2021-06-01T07:34:28Z</time>
      </trkpt>
      <trkpt lat="45.61923" lon="6.7725">
        <ele>780</ele>
        <time>2021-06-01T07:34:29Z</time>
      </trkpt>
      <trkpt lat="45.61918" lon="6.77255">
        <ele>780.4</ele>
        <time>2021-06-01T07:34:30Z</time>
      </trkpt>
      <trkpt lat="45.61914" lon="6.7726">
        <ele>780.4</ele>
        <time>2021-06-01T07:34:31Z</time>
      </trkpt>
      <trkpt lat="45.61909" lon="6.77266">
        <ele>780.6</ele>
        <time>2021-06-01T07:34:32Z</time>
      </trkpt>
      <trkpt lat="45.61905" lon="6.77272">
        <ele>780.8</ele>
        <time>2021-06-01T07:34:33Z</time>
      </trkpt>
      <trkpt lat="45.619" lon="6.77276">
        <ele>781</ele>
        <time>2021-06-01T07:34:34Z</time>
      </trkpt>
      <trkpt lat="45.61894" lon="6.7728">
        <ele>781</ele>
        <time>2021-06-01T07:34:35Z</time>
      </trkpt>
      <trkpt lat="45.61889" lon="6.77281">
        <ele>780.8</ele>
        <time>2021-06-01T07:34:36Z</time>
      </trkpt>
      <trkpt lat="45.61883" lon="6.77282">
        <ele>780.6</ele>
        <time>2021-06-01T07:34:37Z</time>
      </trkpt>
      <trkpt lat="45.61877" lon="6.77282">
        <ele>780.4</ele>
        <time>2021-06-01T07:34:38Z</time>
      </trkpt>
      <trkpt lat="45.61871" lon="6.77282">
        <ele>780.4</ele>
        <time>2021-06-01T07:34:39Z</time>
      </trkpt>
      <trkpt lat="45.61866" lon="6.77282">
        <ele>780.2</ele>
        <time>2021-06-01T07:34:40Z</time>
      </trkpt>
      <trkpt lat="45.6186" lon="6.77283">
        <ele>780.4</ele>
        <time>2021-06-01T07:34:41Z</time>
      </trkpt>
      <trkpt lat="45.61854" lon="6.77284">
        <ele>780.4</ele>
        <time>2021-06-01T07:34:42Z</time>
      </trkpt>
      <trkpt lat="45.61848" lon="6.77285">
        <ele>780.6</ele>
        <time>2021-06-01T07:34:43Z</time>
      </trkpt>
      <trkpt lat="45.61842" lon="6.77286">
        <ele>780.8</ele>
        <time>2021-06-01T07:34:44Z</time>
      </trkpt>
      <trkpt lat="45.61837" lon="6.77288">
        <ele>781</ele>
        <time>2021-06-01T07:34:45Z</time>
      </trkpt>
      <trkpt lat="45.61832" lon="6.7729">
        <ele>781.2</ele>
        <time>2021-06-01T07:34:46Z</time>
      </trkpt>
      <trkpt lat="45.61826" lon="6.77291">
        <ele>781.4</ele>
        <time>2021-06-01T07:34:47Z</time>
      </trkpt>
      <trkpt lat="45.6182" lon="6.77292">
        <ele>781.6</ele>
        <time>2021-06-01T07:34:48Z</time>
      </trkpt>
      <trkpt lat="45.61814" lon="6.77294">
        <ele>781.8</ele>
        <time>2021-06-01T07:34:49Z</time>
      </trkpt>
      <trkpt lat="45.61809" lon="6.77294">
        <ele>782.4</ele>
        <time>2021-06-01T07:34:50Z</time>
      </trkpt>
      <trkpt lat="45.61803" lon="6.77295">
        <ele>782.4</ele>
        <time>2021-06-01T07:34:51Z</time>
      </trkpt>
      <trkpt lat="45.61796" lon="6.77296">
        <ele>782.4</ele>
        <time>2021-06-01T07:34:52Z</time>
      </trkpt>
      <trkpt lat="45.61791" lon="6.77297">
        <ele>782.6</ele>
        <time>2021-06-01T07:34:53Z</time>
      </trkpt>
      <trkpt lat="45.61785" lon="6.77298">
        <ele>782.6</ele>
        <time>2021-06-01T07:34:54Z</time>
      </trkpt>
      <trkpt lat="45.61779" lon="6.773">
        <ele>783</ele>
        <time>2021-06-01T07:34:55Z</time>
      </trkpt>
      <trkpt lat="45.61773" lon="6.77301">
        <ele>783.4</ele>
        <time>2021-06-01T07:34:56Z</time>
      </trkpt>
      <trkpt lat="45.61768" lon="6.77302">
        <ele>783.4</ele>
        <time>2021-06-01T07:34:57Z</time>
      </trkpt>
      <trkpt lat="45.61762" lon="6.77303">
        <ele>783.6</ele>
        <time>2021-06-01T07:34:58Z</time>
      </trkpt>
      <trkpt lat="45.61756" lon="6.77305">
        <ele>783.6</ele>
        <time>2021-06-01T07:34:59Z</time>
      </trkpt>
      <trkpt lat="45.61751" lon="6.77306">
        <ele>783.6</ele>
        <time>2021-06-01T07:35:00Z</time>
      </trkpt>
      <trkpt lat="45.61745" lon="6.77307">
        <ele>783.8</ele>
        <time>2021-06-01T07:35:01Z</time>
      </trkpt>
      <trkpt lat="45.61739" lon="6.77309">
        <ele>784</ele>
        <time>2021-06-01T07:35:02Z</time>
      </trkpt>
      <trkpt lat="45.61734" lon="6.7731">
        <ele>784.2</ele>
        <time>2021-06-01T07:35:03Z</time>
      </trkpt>
      <trkpt lat="45.61728" lon="6.77311">
        <ele>784.2</ele>
        <time>2021-06-01T07:35:04Z</time>
      </trkpt>
      <trkpt lat="45.61722" lon="6.77312">
        <ele>784.2</ele>
        <time>2021-06-01T07:35:05Z</time>
      </trkpt>
      <trkpt lat="45.61716" lon="6.77314">
        <ele>784.4</ele>
        <time>2021-06-01T07:35:06Z</time>
      </trkpt>
      <trkpt lat="45.61711" lon="6.77315">
        <ele>784.6</ele>
        <time>2021-06-01T07:35:07Z</time>
      </trkpt>
      <trkpt lat="45.61705" lon="6.77317">
        <ele>784.6</ele>
        <time>2021-06-01T07:35:08Z</time>
      </trkpt>
      <trkpt lat="45.617" lon="6.77319">
        <ele>784.8</ele>
        <time>2021-06-01T07:35:09Z</time>
      </trkpt>
      <trkpt lat="45.61694" lon="6.77322">
        <ele>784.8</ele>
        <time>2021-06-01T07:35:10Z</time>
      </trkpt>
      <trkpt lat="45.61689" lon="6.77324">
        <ele>784.8</ele>
        <time>2021-06-01T07:35:11Z</time>
      </trkpt>
      <trkpt lat="45.61683" lon="6.77325">
        <ele>785</ele>
        <time>2021-06-01T07:35:12Z</time>
      </trkpt>
      <trkpt lat="45.61677" lon="6.77326">
        <ele>785</ele>
        <time>2021-06-01T07:35:13Z</time>
      </trkpt>
      <trkpt lat="45.61671" lon="6.77327">
        <ele>785</ele>
        <time>2021-06-01T07:35:14Z</time>
      </trkpt>
      <trkpt lat="45.61666" lon="6.77328">
        <ele>785</ele>
        <time>2021-06-01T07:35:15Z</time>
      </trkpt>
      <trkpt lat="45.6166" lon="6.77329">
        <ele>785</ele>
        <time>2021-06-01T07:35:16Z</time>
      </trkpt>
      <trkpt lat="45.61654" lon="6.77331">
        <ele>785.2</ele>
        <time>2021-06-01T07:35:17Z</time>
      </trkpt>
      <trkpt lat="45.61648" lon="6.77332">
        <ele>785.2</ele>
        <time>2021-06-01T07:35:18Z</time>
      </trkpt>
      <trkpt lat="45.61643" lon="6.77334">
        <ele>785.2</ele>
        <time>2021-06-01T07:35:19Z</time>
      </trkpt>
      <trkpt lat="45.61636" lon="6.77336">
        <ele>785.4</ele>
        <time>2021-06-01T07:35:20Z</time>
      </trkpt>
      <trkpt lat="45.61631" lon="6.77336">
        <ele>785.6</ele>
        <time>2021-06-01T07:35:21Z</time>
      </trkpt>
      <trkpt lat="45.61625" lon="6.77337">
        <ele>786</ele>
        <time>2021-06-01T07:35:22Z</time>
      </trkpt>
      <trkpt lat="45.61619" lon="6.77337">
        <ele>786.2</ele>
        <time>2021-06-01T07:35:23Z</time>
      </trkpt>
      <trkpt lat="45.61612" lon="6.77338">
        <ele>786.6</ele>
        <time>2021-06-01T07:35:24Z</time>
      </trkpt>
      <trkpt lat="45.61606" lon="6.77339">
        <ele>786.8</ele>
        <time>2021-06-01T07:35:25Z</time>
      </trkpt>
      <trkpt lat="45.616" lon="6.7734">
        <ele>787</ele>
        <time>2021-06-01T07:35:26Z</time>
      </trkpt>
      <trkpt lat="45.61594" lon="6.77341">
        <ele>787</ele>
        <time>2021-06-01T07:35:27Z</time>
      </trkpt>
      <trkpt lat="45.61588" lon="6.77342">
        <ele>787.6</ele>
        <time>2021-06-01T07:35:28Z</time>
      </trkpt>
      <trkpt lat="45.61582" lon="6.77344">
        <ele>787.8</ele>
        <time>2021-06-01T07:35:29Z</time>
      </trkpt>
      <trkpt lat="45.61576" lon="6.77345">
        <ele>788.2</ele>
        <time>2021-06-01T07:35:30Z</time>
      </trkpt>
      <trkpt lat="45.6157" lon="6.77346">
        <ele>788.6</ele>
        <time>2021-06-01T07:35:31Z</time>
      </trkpt>
      <trkpt lat="45.61564" lon="6.77348">
        <ele>788.8</ele>
        <time>2021-06-01T07:35:32Z</time>
      </trkpt>
      <trkpt lat="45.61557" lon="6.77349">
        <ele>789.2</ele>
        <time>2021-06-01T07:35:33Z</time>
      </trkpt>
      <trkpt lat="45.61551" lon="6.77351">
        <ele>789.4</ele>
        <time>2021-06-01T07:35:34Z</time>
      </trkpt>
      <trkpt lat="45.61545" lon="6.77352">
        <ele>790</ele>
        <time>2021-06-01T07:35:35Z</time>
      </trkpt>
      <trkpt lat="45.61539" lon="6.77353">
        <ele>790.2</ele>
        <time>2021-06-01T07:35:36Z</time>
      </trkpt>
      <trkpt lat="45.61533" lon="6.77355">
        <ele>790.4</ele>
        <time>2021-06-01T07:35:37Z</time>
      </trkpt>
      <trkpt lat="45.61526" lon="6.77356">
        <ele>790.6</ele>
        <time>2021-06-01T07:35:38Z</time>
      </trkpt>
      <trkpt lat="45.6152" lon="6.77358">
        <ele>790.8</ele>
        <time>2021-06-01T07:35:39Z</time>
      </trkpt>
      <trkpt lat="45.61514" lon="6.77359">
        <ele>791</ele>
        <time>2021-06-01T07:35:40Z</time>
      </trkpt>
      <trkpt lat="45.61508" lon="6.7736">
        <ele>791.2</ele>
        <time>2021-06-01T07:35:41Z</time>
      </trkpt>
      <trkpt lat="45.61501" lon="6.77361">
        <ele>791.2</ele>
        <time>2021-06-01T07:35:42Z</time>
      </trkpt>
      <trkpt lat="45.61495" lon="6.77361">
        <ele>791.2</ele>
        <time>2021-06-01T07:35:43Z</time>
      </trkpt>
      <trkpt lat="45.61489" lon="6.77362">
        <ele>791</ele>
        <time>2021-06-01T07:35:44Z</time>
      </trkpt>
      <trkpt lat="45.61483" lon="6.77362">
        <ele>791</ele>
        <time>2021-06-01T07:35:45Z</time>
      </trkpt>
      <trkpt lat="45.61476" lon="6.77362">
        <ele>790.8</ele>
        <time>2021-06-01T07:35:46Z</time>
      </trkpt>
      <trkpt lat="45.6147" lon="6.77362">
        <ele>791</ele>
        <time>2021-06-01T07:35:47Z</time>
      </trkpt>
      <trkpt lat="45.61464" lon="6.77361">
        <ele>791</ele>
        <time>2021-06-01T07:35:48Z</time>
      </trkpt>
      <trkpt lat="45.61458" lon="6.77359">
        <ele>791.2</ele>
        <time>2021-06-01T07:35:49Z</time>
      </trkpt>
      <trkpt lat="45.61452" lon="6.77357">
        <ele>791.4</ele>
        <time>2021-06-01T07:35:50Z</time>
      </trkpt>
      <trkpt lat="45.61446" lon="6.77354">
        <ele>791.6</ele>
        <time>2021-06-01T07:35:51Z</time>
      </trkpt>
      <trkpt lat="45.6144" lon="6.7735">
        <ele>791.8</ele>
        <time>2021-06-01T07:35:52Z</time>
      </trkpt>
      <trkpt lat="45.61435" lon="6.77347">
        <ele>792.2</ele>
        <time>2021-06-01T07:35:53Z</time>
      </trkpt>
      <trkpt lat="45.61429" lon="6.77343">
        <ele>792.2</ele>
        <time>2021-06-01T07:35:54Z</time>
      </trkpt>
      <trkpt lat="45.61424" lon="6.77339">
        <ele>792.4</ele>
        <time>2021-06-01T07:35:55Z</time>
      </trkpt>
      <trkpt lat="45.61419" lon="6.77336">
        <ele>792.4</ele>
        <time>2021-06-01T07:35:56Z</time>
      </trkpt>
      <trkpt lat="45.61413" lon="6.77332">
        <ele>792.6</ele>
        <time>2021-06-01T07:35:57Z</time>
      </trkpt>
      <trkpt lat="45.61409" lon="6.77328">
        <ele>792.6</ele>
        <time>2021-06-01T07:35:58Z</time>
      </trkpt>
      <trkpt lat="45.61403" lon="6.77325">
        <ele>792.6</ele>
        <time>2021-06-01T07:35:59Z</time>
      </trkpt>
      <trkpt lat="45.61397" lon="6.77322">
        <ele>793</ele>
        <time>2021-06-01T07:36:00Z</time>
      </trkpt>
      <trkpt lat="45.61392" lon="6.77318">
        <ele>793</ele>
        <time>2021-06-01T07:36:01Z</time>
      </trkpt>
      <trkpt lat="45.61387" lon="6.77315">
        <ele>793</ele>
        <time>2021-06-01T07:36:02Z</time>
      </trkpt>
      <trkpt lat="45.61381" lon="6.77312">
        <ele>793</ele>
        <time>2021-06-01T07:36:03Z</time>
      </trkpt>
      <trkpt lat="45.61375" lon="6.77308">
        <ele>793.2</ele>
        <time>2021-06-01T07:36:04Z</time>
      </trkpt>
      <trkpt lat="45.6137" lon="6.77304">
        <ele>793</ele>
        <time>2021-06-01T07:36:05Z</time>
      </trkpt>
      <trkpt lat="45.61364" lon="6.773">
        <ele>793</ele>
        <time>2021-06-01T07:36:06Z</time>
      </trkpt>
      <trkpt lat="45.61359" lon="6.77296">
        <ele>793</ele>
        <time>2021-06-01T07:36:07Z</time>
      </trkpt>
      <trkpt lat="45.61354" lon="6.77293">
        <ele>793.2</ele>
        <time>2021-06-01T07:36:08Z</time>
      </trkpt>
      <trkpt lat="45.61348" lon="6.7729">
        <ele>793.2</ele>
        <time>2021-06-01T07:36:09Z</time>
      </trkpt>
      <trkpt lat="45.61342" lon="6.77288">
        <ele>793.2</ele>
        <time>2021-06-01T07:36:10Z</time>
      </trkpt>
      <trkpt lat="45.61337" lon="6.77287">
        <ele>793</ele>
        <time>2021-06-01T07:36:11Z</time>
      </trkpt>
      <trkpt lat="45.61331" lon="6.77286">
        <ele>793</ele>
        <time>2021-06-01T07:36:12Z</time>
      </trkpt>
      <trkpt lat="45.61324" lon="6.77286">
        <ele>792.8</ele>
        <time>2021-06-01T07:36:13Z</time>
      </trkpt>
      <trkpt lat="45.61317" lon="6.77286">
        <ele>793</ele>
        <time>2021-06-01T07:36:14Z</time>
      </trkpt>
      <trkpt lat="45.61311" lon="6.77287">
        <ele>792.8</ele>
        <time>2021-06-01T07:36:15Z</time>
      </trkpt>
      <trkpt lat="45.61303" lon="6.77286">
        <ele>792.8</ele>
        <time>2021-06-01T07:36:16Z</time>
      </trkpt>
      <trkpt lat="45.61296" lon="6.77287">
        <ele>792.4</ele>
        <time>2021-06-01T07:36:17Z</time>
      </trkpt>
      <trkpt lat="45.61288" lon="6.77288">
        <ele>791.8</ele>
        <time>2021-06-01T07:36:18Z</time>
      </trkpt>
      <trkpt lat="45.6128" lon="6.77291">
        <ele>791.6</ele>
        <time>2021-06-01T07:36:19Z</time>
      </trkpt>
      <trkpt lat="45.61272" lon="6.77296">
        <ele>791</ele>
        <time>2021-06-01T07:36:20Z</time>
      </trkpt>
      <trkpt lat="45.61264" lon="6.77299">
        <ele>790.4</ele>
        <time>2021-06-01T07:36:21Z</time>
      </trkpt>
      <trkpt lat="45.61256" lon="6.773">
        <ele>789.6</ele>
        <time>2021-06-01T07:36:22Z</time>
      </trkpt>
      <trkpt lat="45.6125" lon="6.77298">
        <ele>789</ele>
        <time>2021-06-01T07:36:23Z</time>
      </trkpt>
      <trkpt lat="45.61244" lon="6.77296">
        <ele>788.2</ele>
        <time>2021-06-01T07:36:24Z</time>
      </trkpt>
      <trkpt lat="45.61241" lon="6.77293">
        <ele>787.8</ele>
        <time>2021-06-01T07:36:25Z</time>
      </trkpt>
      <trkpt lat="45.61237" lon="6.77291">
        <ele>787.6</ele>
        <time>2021-06-01T07:36:26Z</time>
      </trkpt>
      <trkpt lat="45.61234" lon="6.77292">
        <ele>787.8</ele>
        <time>2021-06-01T07:36:27Z</time>
      </trkpt>
      <trkpt lat="45.61231" lon="6.77295">
        <ele>787.6</ele>
        <time>2021-06-01T07:36:28Z</time>
      </trkpt>
      <trkpt lat="45.61228" lon="6.773">
        <ele>787.8</ele>
        <time>2021-06-01T07:36:29Z</time>
      </trkpt>
      <trkpt lat="45.61225" lon="6.77304">
        <ele>788</ele>
        <time>2021-06-01T07:36:30Z</time>
      </trkpt>
      <trkpt lat="45.61221" lon="6.77309">
        <ele>787.8</ele>
        <time>2021-06-01T07:36:31Z</time>
      </trkpt>
      <trkpt lat="45.61217" lon="6.77312">
        <ele>788</ele>
        <time>2021-06-01T07:36:32Z</time>
      </trkpt>
      <trkpt lat="45.61212" lon="6.77315">
        <ele>788</ele>
        <time>2021-06-01T07:36:33Z</time>
      </trkpt>
      <trkpt lat="45.61207" lon="6.77317">
        <ele>788.4</ele>
        <time>2021-06-01T07:36:34Z</time>
      </trkpt>
      <trkpt lat="45.61201" lon="6.77319">
        <ele>788.6</ele>
        <time>2021-06-01T07:36:35Z</time>
      </trkpt>
      <trkpt lat="45.61196" lon="6.7732">
        <ele>788.6</ele>
        <time>2021-06-01T07:36:36Z</time>
      </trkpt>
      <trkpt lat="45.6119" lon="6.7732">
        <ele>788.6</ele>
        <time>2021-06-01T07:36:37Z</time>
      </trkpt>
      <trkpt lat="45.61185" lon="6.77319">
        <ele>788.6</ele>
        <time>2021-06-01T07:36:38Z</time>
      </trkpt>
      <trkpt lat="45.6118" lon="6.77318">
        <ele>788.6</ele>
        <time>2021-06-01T07:36:39Z</time>
      </trkpt>
      <trkpt lat="45.61175" lon="6.77315">
        <ele>788.6</ele>
        <time>2021-06-01T07:36:40Z</time>
      </trkpt>
      <trkpt lat="45.61169" lon="6.77313">
        <ele>788.6</ele>
        <time>2021-06-01T07:36:41Z</time>
      </trkpt>
      <trkpt lat="45.61164" lon="6.7731">
        <ele>788.4</ele>
        <time>2021-06-01T07:36:42Z</time>
      </trkpt>
      <trkpt lat="45.61158" lon="6.77309">
        <ele>788.2</ele>
        <time>2021-06-01T07:36:43Z</time>
      </trkpt>
      <trkpt lat="45.61153" lon="6.77309">
        <ele>788</ele>
        <time>2021-06-01T07:36:44Z</time>
      </trkpt>
      <trkpt lat="45.61149" lon="6.77309">
        <ele>788</ele>
        <time>2021-06-01T07:36:45Z</time>
      </trkpt>
      <trkpt lat="45.61145" lon="6.77307">
        <ele>787.8</ele>
        <time>2021-06-01T07:36:46Z</time>
      </trkpt>
      <trkpt lat="45.61141" lon="6.77303">
        <ele>787.4</ele>
        <time>2021-06-01T07:36:47Z</time>
      </trkpt>
      <trkpt lat="45.61137" lon="6.77298">
        <ele>787.2</ele>
        <time>2021-06-01T07:36:48Z</time>
      </trkpt>
      <trkpt lat="45.61133" lon="6.77294">
        <ele>786.8</ele>
        <time>2021-06-01T07:36:49Z</time>
      </trkpt>
      <trkpt lat="45.6113" lon="6.77289">
        <ele>786.6</ele>
        <time>2021-06-01T07:36:50Z</time>
      </trkpt>
      <trkpt lat="45.61125" lon="6.77283">
        <ele>786.4</ele>
        <time>2021-06-01T07:36:51Z</time>
      </trkpt>
      <trkpt lat="45.61121" lon="6.77278">
        <ele>786.2</ele>
        <time>2021-06-01T07:36:52Z</time>
      </trkpt>
      <trkpt lat="45.61117" lon="6.77273">
        <ele>786.2</ele>
        <time>2021-06-01T07:36:53Z</time>
      </trkpt>
      <trkpt lat="45.61113" lon="6.77268">
        <ele>786.2</ele>
        <time>2021-06-01T07:36:54Z</time>
      </trkpt>
      <trkpt lat="45.61108" lon="6.77264">
        <ele>786.2</ele>
        <time>2021-06-01T07:36:55Z</time>
      </trkpt>
      <trkpt lat="45.61103" lon="6.77259">
        <ele>786.6</ele>
        <time>2021-06-01T07:36:56Z</time>
      </trkpt>
      <trkpt lat="45.61098" lon="6.77254">
        <ele>787.2</ele>
        <time>2021-06-01T07:36:57Z</time>
      </trkpt>
      <trkpt lat="45.61092" lon="6.7725">
        <ele>787.4</ele>
        <time>2021-06-01T07:36:58Z</time>
      </trkpt>
      <trkpt lat="45.61087" lon="6.77246">
        <ele>787.4</ele>
        <time>2021-06-01T07:36:59Z</time>
      </trkpt>
      <trkpt lat="45.61081" lon="6.77242">
        <ele>787.4</ele>
        <time>2021-06-01T07:37:00Z</time>
      </trkpt>
      <trkpt lat="45.61076" lon="6.77238">
        <ele>787.6</ele>
        <time>2021-06-01T07:37:01Z</time>
      </trkpt>
      <trkpt lat="45.6107" lon="6.77234">
        <ele>787.6</ele>
        <time>2021-06-01T07:37:02Z</time>
      </trkpt>
      <trkpt lat="45.61064" lon="6.77229">
        <ele>787.6</ele>
        <time>2021-06-01T07:37:03Z</time>
      </trkpt>
      <trkpt lat="45.61058" lon="6.77225">
        <ele>787.8</ele>
        <time>2021-06-01T07:37:04Z</time>
      </trkpt>
      <trkpt lat="45.61052" lon="6.77222">
        <ele>787.8</ele>
        <time>2021-06-01T07:37:05Z</time>
      </trkpt>
      <trkpt lat="45.61046" lon="6.77218">
        <ele>787.8</ele>
        <time>2021-06-01T07:37:06Z</time>
      </trkpt>
      <trkpt lat="45.61041" lon="6.77214">
        <ele>787.8</ele>
        <time>2021-06-01T07:37:07Z</time>
      </trkpt>
      <trkpt lat="45.61035" lon="6.77211">
        <ele>787.8</ele>
        <time>2021-06-01T07:37:08Z</time>
      </trkpt>
      <trkpt lat="45.61028" lon="6.77208">
        <ele>787.6</ele>
        <time>2021-06-01T07:37:09Z</time>
      </trkpt>
      <trkpt lat="45.61022" lon="6.77204">
        <ele>787.4</ele>
        <time>2021-06-01T07:37:10Z</time>
      </trkpt>
      <trkpt lat="45.61015" lon="6.77202">
        <ele>787.4</ele>
        <time>2021-06-01T07:37:11Z</time>
      </trkpt>
      <trkpt lat="45.61009" lon="6.772">
        <ele>787</ele>
        <time>2021-06-01T07:37:12Z</time>
      </trkpt>
      <trkpt lat="45.61002" lon="6.77199">
        <ele>787</ele>
        <time>2021-06-01T07:37:13Z</time>
      </trkpt>
      <trkpt lat="45.60995" lon="6.77198">
        <ele>787</ele>
        <time>2021-06-01T07:37:14Z</time>
      </trkpt>
      <trkpt lat="45.6099" lon="6.77197">
        <ele>786.8</ele>
        <time>2021-06-01T07:37:15Z</time>
      </trkpt>
      <trkpt lat="45.60983" lon="6.77195">
        <ele>786.4</ele>
        <time>2021-06-01T07:37:16Z</time>
      </trkpt>
      <trkpt lat="45.60976" lon="6.77193">
        <ele>786.2</ele>
        <time>2021-06-01T07:37:17Z</time>
      </trkpt>
      <trkpt lat="45.60968" lon="6.7719">
        <ele>786</ele>
        <time>2021-06-01T07:37:18Z</time>
      </trkpt>
      <trkpt lat="45.60964" lon="6.77188">
        <ele>786</ele>
        <time>2021-06-01T07:37:19Z</time>
      </trkpt>
      <trkpt lat="45.60956" lon="6.77186">
        <ele>786</ele>
        <time>2021-06-01T07:37:20Z</time>
      </trkpt>
      <trkpt lat="45.60949" lon="6.77183">
        <ele>786</ele>
        <time>2021-06-01T07:37:21Z</time>
      </trkpt>
      <trkpt lat="45.60943" lon="6.7718">
        <ele>786.2</ele>
        <time>2021-06-01T07:37:22Z</time>
      </trkpt>
      <trkpt lat="45.60937" lon="6.77178">
        <ele>786.4</ele>
        <time>2021-06-01T07:37:23Z</time>
      </trkpt>
      <trkpt lat="45.6093" lon="6.77176">
        <ele>786.4</ele>
        <time>2021-06-01T07:37:24Z</time>
      </trkpt>
      <trkpt lat="45.60924" lon="6.77174">
        <ele>786.2</ele>
        <time>2021-06-01T07:37:25Z</time>
      </trkpt>
      <trkpt lat="45.60916" lon="6.77171">
        <ele>786.2</ele>
        <time>2021-06-01T07:37:26Z</time>
      </trkpt>
      <trkpt lat="45.6091" lon="6.77169">
        <ele>786</ele>
        <time>2021-06-01T07:37:27Z</time>
      </trkpt>
      <trkpt lat="45.60902" lon="6.77166">
        <ele>785.8</ele>
        <time>2021-06-01T07:37:28Z</time>
      </trkpt>
      <trkpt lat="45.60894" lon="6.77164">
        <ele>785.6</ele>
        <time>2021-06-01T07:37:29Z</time>
      </trkpt>
      <trkpt lat="45.60887" lon="6.77161">
        <ele>785.4</ele>
        <time>2021-06-01T07:37:30Z</time>
      </trkpt>
      <trkpt lat="45.60879" lon="6.77159">
        <ele>785.2</ele>
        <time>2021-06-01T07:37:31Z</time>
      </trkpt>
      <trkpt lat="45.60871" lon="6.77156">
        <ele>785.4</ele>
        <time>2021-06-01T07:37:32Z</time>
      </trkpt>
      <trkpt lat="45.60863" lon="6.77154">
        <ele>785.4</ele>
        <time>2021-06-01T07:37:33Z</time>
      </trkpt>
      <trkpt lat="45.60856" lon="6.77151">
        <ele>785.6</ele>
        <time>2021-06-01T07:37:34Z</time>
      </trkpt>
      <trkpt lat="45.60848" lon="6.77149">
        <ele>785.4</ele>
        <time>2021-06-01T07:37:35Z</time>
      </trkpt>
      <trkpt lat="45.60841" lon="6.77147">
        <ele>785.6</ele>
        <time>2021-06-01T07:37:36Z</time>
      </trkpt>
      <trkpt lat="45.60833" lon="6.77144">
        <ele>785.6</ele>
        <time>2021-06-01T07:37:37Z</time>
      </trkpt>
      <trkpt lat="45.60825" lon="6.77142">
        <ele>785.6</ele>
        <time>2021-06-01T07:37:38Z</time>
      </trkpt>
      <trkpt lat="45.60818" lon="6.77139">
        <ele>785.6</ele>
        <time>2021-06-01T07:37:39Z</time>
      </trkpt>
      <trkpt lat="45.60811" lon="6.77136">
        <ele>785.6</ele>
        <time>2021-06-01T07:37:40Z</time>
      </trkpt>
      <trkpt lat="45.60803" lon="6.77133">
        <ele>785.8</ele>
        <time>2021-06-01T07:37:41Z</time>
      </trkpt>
      <trkpt lat="45.60796" lon="6.77129">
        <ele>785.8</ele>
        <time>2021-06-01T07:37:42Z</time>
      </trkpt>
      <trkpt lat="45.60789" lon="6.77126">
        <ele>785.6</ele>
        <time>2021-06-01T07:37:43Z</time>
      </trkpt>
      <trkpt lat="45.60782" lon="6.77121">
        <ele>785.6</ele>
        <time>2021-06-01T07:37:44Z</time>
      </trkpt>
      <trkpt lat="45.60775" lon="6.77116">
        <ele>785.8</ele>
        <time>2021-06-01T07:37:45Z</time>
      </trkpt>
      <trkpt lat="45.60767" lon="6.77111">
        <ele>786</ele>
        <time>2021-06-01T07:37:46Z</time>
      </trkpt>
      <trkpt lat="45.6076" lon="6.77106">
        <ele>786</ele>
        <time>2021-06-01T07:37:47Z</time>
      </trkpt>
      <trkpt lat="45.60753" lon="6.77101">
        <ele>786</ele>
        <time>2021-06-01T07:37:48Z</time>
      </trkpt>
      <trkpt lat="45.60745" lon="6.77096">
        <ele>786.2</ele>
        <time>2021-06-01T07:37:49Z</time>
      </trkpt>
      <trkpt lat="45.60738" lon="6.7709">
        <ele>786.4</ele>
        <time>2021-06-01T07:37:50Z</time>
      </trkpt>
      <trkpt lat="45.6073" lon="6.77086">
        <ele>786.2</ele>
        <time>2021-06-01T07:37:51Z</time>
      </trkpt>
      <trkpt lat="45.60723" lon="6.77081">
        <ele>786.2</ele>
        <time>2021-06-01T07:37:52Z</time>
      </trkpt>
      <trkpt lat="45.60716" lon="6.77077">
        <ele>786.4</ele>
        <time>2021-06-01T07:37:53Z</time>
      </trkpt>
      <trkpt lat="45.60708" lon="6.77073">
        <ele>786.4</ele>
        <time>2021-06-01T07:37:54Z</time>
      </trkpt>
      <trkpt lat="45.607" lon="6.7707">
        <ele>786.4</ele>
        <time>2021-06-01T07:37:55Z</time>
      </trkpt>
      <trkpt lat="45.60693" lon="6.77067">
        <ele>786.6</ele>
        <time>2021-06-01T07:37:56Z</time>
      </trkpt>
      <trkpt lat="45.60686" lon="6.77064">
        <ele>786.6</ele>
        <time>2021-06-01T07:37:57Z</time>
      </trkpt>
      <trkpt lat="45.60679" lon="6.77061">
        <ele>786.8</ele>
        <time>2021-06-01T07:37:58Z</time>
      </trkpt>
      <trkpt lat="45.60672" lon="6.77058">
        <ele>787</ele>
        <time>2021-06-01T07:37:59Z</time>
      </trkpt>
      <trkpt lat="45.60665" lon="6.77055">
        <ele>786.6</ele>
        <time>2021-06-01T07:38:00Z</time>
      </trkpt>
      <trkpt lat="45.6066" lon="6.77052">
        <ele>786.2</ele>
        <time>2021-06-01T07:38:01Z</time>
      </trkpt>
      <trkpt lat="45.60654" lon="6.7705">
        <ele>785.8</ele>
        <time>2021-06-01T07:38:02Z</time>
      </trkpt>
      <trkpt lat="45.60649" lon="6.77048">
        <ele>785.4</ele>
        <time>2021-06-01T07:38:03Z</time>
      </trkpt>
      <trkpt lat="45.60644" lon="6.77046">
        <ele>785</ele>
        <time>2021-06-01T07:38:04Z</time>
      </trkpt>
      <trkpt lat="45.60638" lon="6.77044">
        <ele>784.8</ele>
        <time>2021-06-01T07:38:05Z</time>
      </trkpt>
      <trkpt lat="45.60634" lon="6.7704">
        <ele>784.4</ele>
        <time>2021-06-01T07:38:06Z</time>
      </trkpt>
      <trkpt lat="45.6063" lon="6.77036">
        <ele>784.4</ele>
        <time>2021-06-01T07:38:07Z</time>
      </trkpt>
      <trkpt lat="45.60625" lon="6.77031">
        <ele>784.4</ele>
        <time>2021-06-01T07:38:08Z</time>
      </trkpt>
      <trkpt lat="45.6062" lon="6.77026">
        <ele>784.2</ele>
        <time>2021-06-01T07:38:09Z</time>
      </trkpt>
      <trkpt lat="45.60617" lon="6.77019">
        <ele>784</ele>
        <time>2021-06-01T07:38:10Z</time>
      </trkpt>
      <trkpt lat="45.60613" lon="6.77014">
        <ele>783.4</ele>
        <time>2021-06-01T07:38:11Z</time>
      </trkpt>
      <trkpt lat="45.6061" lon="6.77009">
        <ele>783.2</ele>
        <time>2021-06-01T07:38:12Z</time>
      </trkpt>
      <trkpt lat="45.60607" lon="6.77003">
        <ele>783.2</ele>
        <time>2021-06-01T07:38:13Z</time>
      </trkpt>
      <trkpt lat="45.60603" lon="6.76999">
        <ele>783.2</ele>
        <time>2021-06-01T07:38:14Z</time>
      </trkpt>
      <trkpt lat="45.60599" lon="6.76996">
        <ele>783</ele>
        <time>2021-06-01T07:38:15Z</time>
      </trkpt>
      <trkpt lat="45.60594" lon="6.76994">
        <ele>783</ele>
        <time>2021-06-01T07:38:16Z</time>
      </trkpt>
      <trkpt lat="45.60588" lon="6.76992">
        <ele>782.8</ele>
        <time>2021-06-01T07:38:17Z</time>
      </trkpt>
      <trkpt lat="45.60581" lon="6.7699">
        <ele>782.8</ele>
        <time>2021-06-01T07:38:18Z</time>
      </trkpt>
      <trkpt lat="45.60574" lon="6.76987">
        <ele>782.6</ele>
        <time>2021-06-01T07:38:19Z</time>
      </trkpt>
      <trkpt lat="45.60566" lon="6.76983">
        <ele>782.2</ele>
        <time>2021-06-01T07:38:20Z</time>
      </trkpt>
      <trkpt lat="45.60559" lon="6.76978">
        <ele>782</ele>
        <time>2021-06-01T07:38:21Z</time>
      </trkpt>
      <trkpt lat="45.60551" lon="6.7697">
        <ele>781.8</ele>
        <time>2021-06-01T07:38:22Z</time>
      </trkpt>
      <trkpt lat="45.60545" lon="6.76962">
        <ele>781.4</ele>
        <time>2021-06-01T07:38:23Z</time>
      </trkpt>
      <trkpt lat="45.60538" lon="6.76954">
        <ele>781</ele>
        <time>2021-06-01T07:38:24Z</time>
      </trkpt>
      <trkpt lat="45.60532" lon="6.76944">
        <ele>780.6</ele>
        <time>2021-06-01T07:38:25Z</time>
      </trkpt>
      <trkpt lat="45.60527" lon="6.76933">
        <ele>780.2</ele>
        <time>2021-06-01T07:38:26Z</time>
      </trkpt>
      <trkpt lat="45.60523" lon="6.76921">
        <ele>779.8</ele>
        <time>2021-06-01T07:38:27Z</time>
      </trkpt>
      <trkpt lat="45.6052" lon="6.76909">
        <ele>779.6</ele>
        <time>2021-06-01T07:38:28Z</time>
      </trkpt>
      <trkpt lat="45.60517" lon="6.769">
        <ele>779.4</ele>
        <time>2021-06-01T07:38:29Z</time>
      </trkpt>
      <trkpt lat="45.60513" lon="6.76888">
        <ele>779.2</ele>
        <time>2021-06-01T07:38:30Z</time>
      </trkpt>
      <trkpt lat="45.60508" lon="6.76874">
        <ele>779.2</ele>
        <time>2021-06-01T07:38:31Z</time>
      </trkpt>
      <trkpt lat="45.60503" lon="6.76866">
        <ele>779</ele>
        <time>2021-06-01T07:38:32Z</time>
      </trkpt>
      <trkpt lat="45.60497" lon="6.76856">
        <ele>778.8</ele>
        <time>2021-06-01T07:38:33Z</time>
      </trkpt>
      <trkpt lat="45.60491" lon="6.76848">
        <ele>778.6</ele>
        <time>2021-06-01T07:38:34Z</time>
      </trkpt>
      <trkpt lat="45.60484" lon="6.7684">
        <ele>778.4</ele>
        <time>2021-06-01T07:38:35Z</time>
      </trkpt>
      <trkpt lat="45.60477" lon="6.76832">
        <ele>778.2</ele>
        <time>2021-06-01T07:38:36Z</time>
      </trkpt>
      <trkpt lat="45.60469" lon="6.76823">
        <ele>778</ele>
        <time>2021-06-01T07:38:37Z</time>
      </trkpt>
      <trkpt lat="45.60461" lon="6.76813">
        <ele>777.4</ele>
        <time>2021-06-01T07:38:38Z</time>
      </trkpt>
      <trkpt lat="45.60453" lon="6.76804">
        <ele>777.2</ele>
        <time>2021-06-01T07:38:39Z</time>
      </trkpt>
      <trkpt lat="45.60446" lon="6.76796">
        <ele>777</ele>
        <time>2021-06-01T07:38:40Z</time>
      </trkpt>
      <trkpt lat="45.60438" lon="6.76789">
        <ele>776.6</ele>
        <time>2021-06-01T07:38:41Z</time>
      </trkpt>
      <trkpt lat="45.60431" lon="6.76781">
        <ele>776.4</ele>
        <time>2021-06-01T07:38:42Z</time>
      </trkpt>
      <trkpt lat="45.60424" lon="6.76774">
        <ele>776.2</ele>
        <time>2021-06-01T07:38:43Z</time>
      </trkpt>
      <trkpt lat="45.60416" lon="6.76767">
        <ele>775.8</ele>
        <time>2021-06-01T07:38:44Z</time>
      </trkpt>
      <trkpt lat="45.60408" lon="6.76761">
        <ele>775.6</ele>
        <time>2021-06-01T07:38:45Z</time>
      </trkpt>
      <trkpt lat="45.604" lon="6.76754">
        <ele>775.2</ele>
        <time>2021-06-01T07:38:46Z</time>
      </trkpt>
      <trkpt lat="45.60394" lon="6.76746">
        <ele>775</ele>
        <time>2021-06-01T07:38:47Z</time>
      </trkpt>
      <trkpt lat="45.60387" lon="6.76738">
        <ele>774.6</ele>
        <time>2021-06-01T07:38:48Z</time>
      </trkpt>
      <trkpt lat="45.60381" lon="6.76729">
        <ele>774.4</ele>
        <time>2021-06-01T07:38:49Z</time>
      </trkpt>
      <trkpt lat="45.60378" lon="6.76719">
        <ele>774.4</ele>
        <time>2021-06-01T07:38:50Z</time>
      </trkpt>
      <trkpt lat="45.60374" lon="6.7671">
        <ele>774.6</ele>
        <time>2021-06-01T07:38:51Z</time>
      </trkpt>
      <trkpt lat="45.60372" lon="6.76702">
        <ele>775</ele>
        <time>2021-06-01T07:38:52Z</time>
      </trkpt>
      <trkpt lat="45.6037" lon="6.76696">
        <ele>775.2</ele>
        <time>2021-06-01T07:38:53Z</time>
      </trkpt>
      <trkpt lat="45.60366" lon="6.76689">
        <ele>775.4</ele>
        <time>2021-06-01T07:38:54Z</time>
      </trkpt>
      <trkpt lat="45.60363" lon="6.76682">
        <ele>775.8</ele>
        <time>2021-06-01T07:38:55Z</time>
      </trkpt>
      <trkpt lat="45.60359" lon="6.76675">
        <ele>776</ele>
        <time>2021-06-01T07:38:56Z</time>
      </trkpt>
      <trkpt lat="45.60355" lon="6.7667">
        <ele>776</ele>
        <time>2021-06-01T07:38:57Z</time>
      </trkpt>
      <trkpt lat="45.6035" lon="6.76664">
        <ele>775.8</ele>
        <time>2021-06-01T07:38:58Z</time>
      </trkpt>
      <trkpt lat="45.60346" lon="6.76657">
        <ele>775.8</ele>
        <time>2021-06-01T07:38:59Z</time>
      </trkpt>
      <trkpt lat="45.6034" lon="6.76651">
        <ele>775.6</ele>
        <time>2021-06-01T07:39:00Z</time>
      </trkpt>
      <trkpt lat="45.60334" lon="6.76644">
        <ele>775.4</ele>
        <time>2021-06-01T07:39:01Z</time>
      </trkpt>
      <trkpt lat="45.60329" lon="6.76638">
        <ele>774.8</ele>
        <time>2021-06-01T07:39:02Z</time>
      </trkpt>
      <trkpt lat="45.60324" lon="6.76632">
        <ele>774.2</ele>
        <time>2021-06-01T07:39:03Z</time>
      </trkpt>
      <trkpt lat="45.60319" lon="6.76626">
        <ele>773.6</ele>
        <time>2021-06-01T07:39:04Z</time>
      </trkpt>
      <trkpt lat="45.60314" lon="6.7662">
        <ele>772.6</ele>
        <time>2021-06-01T07:39:05Z</time>
      </trkpt>
      <trkpt lat="45.60309" lon="6.76616">
        <ele>772</ele>
        <time>2021-06-01T07:39:06Z</time>
      </trkpt>
      <trkpt lat="45.60305" lon="6.76612">
        <ele>771.4</ele>
        <time>2021-06-01T07:39:07Z</time>
      </trkpt>
      <trkpt lat="45.60301" lon="6.7661">
        <ele>770.8</ele>
        <time>2021-06-01T07:39:08Z</time>
      </trkpt>
      <trkpt lat="45.60297" lon="6.76609">
        <ele>770.6</ele>
        <time>2021-06-01T07:39:09Z</time>
      </trkpt>
      <trkpt lat="45.60293" lon="6.76611">
        <ele>770.6</ele>
        <time>2021-06-01T07:39:10Z</time>
      </trkpt>
      <trkpt lat="45.6029" lon="6.76614">
        <ele>771</ele>
        <time>2021-06-01T07:39:11Z</time>
      </trkpt>
      <trkpt lat="45.60287" lon="6.76619">
        <ele>770.8</ele>
        <time>2021-06-01T07:39:12Z</time>
      </trkpt>
      <trkpt lat="45.60284" lon="6.76626">
        <ele>770.8</ele>
        <time>2021-06-01T07:39:13Z</time>
      </trkpt>
      <trkpt lat="45.60281" lon="6.76632">
        <ele>770.8</ele>
        <time>2021-06-01T07:39:14Z</time>
      </trkpt>
      <trkpt lat="45.60277" lon="6.7664">
        <ele>771</ele>
        <time>2021-06-01T07:39:15Z</time>
      </trkpt>
      <trkpt lat="45.60275" lon="6.76647">
        <ele>771</ele>
        <time>2021-06-01T07:39:16Z</time>
      </trkpt>
      <trkpt lat="45.60271" lon="6.76655">
        <ele>771.2</ele>
        <time>2021-06-01T07:39:17Z</time>
      </trkpt>
      <trkpt lat="45.60268" lon="6.76662">
        <ele>771.4</ele>
        <time>2021-06-01T07:39:18Z</time>
      </trkpt>
      <trkpt lat="45.60264" lon="6.7667">
        <ele>771.6</ele>
        <time>2021-06-01T07:39:19Z</time>
      </trkpt>
      <trkpt lat="45.60259" lon="6.76677">
        <ele>771.4</ele>
        <time>2021-06-01T07:39:20Z</time>
      </trkpt>
      <trkpt lat="45.60253" lon="6.76681">
        <ele>771.4</ele>
        <time>2021-06-01T07:39:21Z</time>
      </trkpt>
      <trkpt lat="45.60247" lon="6.76684">
        <ele>771.4</ele>
        <time>2021-06-01T07:39:22Z</time>
      </trkpt>
      <trkpt lat="45.60241" lon="6.76683">
        <ele>771.4</ele>
        <time>2021-06-01T07:39:23Z</time>
      </trkpt>
      <trkpt lat="45.60234" lon="6.76682">
        <ele>771.4</ele>
        <time>2021-06-01T07:39:24Z</time>
      </trkpt>
      <trkpt lat="45.60227" lon="6.7668">
        <ele>771.4</ele>
        <time>2021-06-01T07:39:25Z</time>
      </trkpt>
      <trkpt lat="45.60219" lon="6.76677">
        <ele>771.6</ele>
        <time>2021-06-01T07:39:26Z</time>
      </trkpt>
      <trkpt lat="45.60212" lon="6.76674">
        <ele>772</ele>
        <time>2021-06-01T07:39:27Z</time>
      </trkpt>
      <trkpt lat="45.60203" lon="6.7667">
        <ele>772.2</ele>
        <time>2021-06-01T07:39:28Z</time>
      </trkpt>
      <trkpt lat="45.60194" lon="6.76667">
        <ele>772.6</ele>
        <time>2021-06-01T07:39:29Z</time>
      </trkpt>
      <trkpt lat="45.60186" lon="6.76663">
        <ele>773</ele>
        <time>2021-06-01T07:39:30Z</time>
      </trkpt>
      <trkpt lat="45.6018" lon="6.76658">
        <ele>773.2</ele>
        <time>2021-06-01T07:39:31Z</time>
      </trkpt>
      <trkpt lat="45.60173" lon="6.76653">
        <ele>773.4</ele>
        <time>2021-06-01T07:39:32Z</time>
      </trkpt>
      <trkpt lat="45.60166" lon="6.76648">
        <ele>773.6</ele>
        <time>2021-06-01T07:39:33Z</time>
      </trkpt>
      <trkpt lat="45.60159" lon="6.76642">
        <ele>773.6</ele>
        <time>2021-06-01T07:39:34Z</time>
      </trkpt>
      <trkpt lat="45.60153" lon="6.76636">
        <ele>774</ele>
        <time>2021-06-01T07:39:35Z</time>
      </trkpt>
      <trkpt lat="45.60147" lon="6.7663">
        <ele>774.4</ele>
        <time>2021-06-01T07:39:36Z</time>
      </trkpt>
      <trkpt lat="45.60141" lon="6.76622">
        <ele>774.4</ele>
        <time>2021-06-01T07:39:37Z</time>
      </trkpt>
      <trkpt lat="45.60135" lon="6.76616">
        <ele>774.8</ele>
        <time>2021-06-01T07:39:38Z</time>
      </trkpt>
      <trkpt lat="45.60129" lon="6.7661">
        <ele>775.2</ele>
        <time>2021-06-01T07:39:39Z</time>
      </trkpt>
      <trkpt lat="45.60123" lon="6.76604">
        <ele>775.4</ele>
        <time>2021-06-01T07:39:40Z</time>
      </trkpt>
      <trkpt lat="45.60116" lon="6.76598">
        <ele>775.6</ele>
        <time>2021-06-01T07:39:41Z</time>
      </trkpt>
      <trkpt lat="45.6011" lon="6.76591">
        <ele>775.8</ele>
        <time>2021-06-01T07:39:42Z</time>
      </trkpt>
      <trkpt lat="45.60106" lon="6.76586">
        <ele>776</ele>
        <time>2021-06-01T07:39:43Z</time>
      </trkpt>
      <trkpt lat="45.601" lon="6.7658">
        <ele>776.2</ele>
        <time>2021-06-01T07:39:44Z</time>
      </trkpt>
      <trkpt lat="45.60093" lon="6.76574">
        <ele>776.8</ele>
        <time>2021-06-01T07:39:45Z</time>
      </trkpt>
      <trkpt lat="45.60086" lon="6.76568">
        <ele>777.2</ele>
        <time>2021-06-01T07:39:46Z</time>
      </trkpt>
      <trkpt lat="45.6008" lon="6.76562">
        <ele>777.4</ele>
        <time>2021-06-01T07:39:47Z</time>
      </trkpt>
      <trkpt lat="45.60072" lon="6.76555">
        <ele>777.8</ele>
        <time>2021-06-01T07:39:48Z</time>
      </trkpt>
      <trkpt lat="45.60066" lon="6.76549">
        <ele>778.2</ele>
        <time>2021-06-01T07:39:49Z</time>
      </trkpt>
      <trkpt lat="45.6006" lon="6.76543">
        <ele>778</ele>
        <time>2021-06-01T07:39:50Z</time>
      </trkpt>
      <trkpt lat="45.60056" lon="6.76538">
        <ele>778.2</ele>
        <time>2021-06-01T07:39:51Z</time>
      </trkpt>
      <trkpt lat="45.60048" lon="6.76532">
        <ele>778.4</ele>
        <time>2021-06-01T07:39:52Z</time>
      </trkpt>
      <trkpt lat="45.60042" lon="6.76527">
        <ele>778.2</ele>
        <time>2021-06-01T07:39:53Z</time>
      </trkpt>
      <trkpt lat="45.60036" lon="6.76521">
        <ele>778.6</ele>
        <time>2021-06-01T07:39:54Z</time>
      </trkpt>
      <trkpt lat="45.6003" lon="6.76515">
        <ele>778.8</ele>
        <time>2021-06-01T07:39:55Z</time>
      </trkpt>
      <trkpt lat="45.60025" lon="6.76509">
        <ele>779.2</ele>
        <time>2021-06-01T07:39:56Z</time>
      </trkpt>
      <trkpt lat="45.60018" lon="6.76504">
        <ele>779.2</ele>
        <time>2021-06-01T07:39:57Z</time>
      </trkpt>
      <trkpt lat="45.60012" lon="6.76498">
        <ele>779.8</ele>
        <time>2021-06-01T07:39:58Z</time>
      </trkpt>
      <trkpt lat="45.60006" lon="6.76493">
        <ele>780</ele>
        <time>2021-06-01T07:39:59Z</time>
      </trkpt>
      <trkpt lat="45.6" lon="6.76488">
        <ele>780</ele>
        <time>2021-06-01T07:40:00Z</time>
      </trkpt>
      <trkpt lat="45.59995" lon="6.76482">
        <ele>780.6</ele>
        <time>2021-06-01T07:40:01Z</time>
      </trkpt>
      <trkpt lat="45.59989" lon="6.76476">
        <ele>780.6</ele>
        <time>2021-06-01T07:40:02Z</time>
      </trkpt>
      <trkpt lat="45.59984" lon="6.7647">
        <ele>781</ele>
        <time>2021-06-01T07:40:03Z</time>
      </trkpt>
      <trkpt lat="45.59978" lon="6.76464">
        <ele>781.4</ele>
        <time>2021-06-01T07:40:04Z</time>
      </trkpt>
      <trkpt lat="45.59973" lon="6.76458">
        <ele>781.4</ele>
        <time>2021-06-01T07:40:05Z</time>
      </trkpt>
      <trkpt lat="45.59969" lon="6.76452">
        <ele>781.6</ele>
        <time>2021-06-01T07:40:06Z</time>
      </trkpt>
      <trkpt lat="45.59964" lon="6.76447">
        <ele>782</ele>
        <time>2021-06-01T07:40:07Z</time>
      </trkpt>
      <trkpt lat="45.5996" lon="6.76442">
        <ele>782</ele>
        <time>2021-06-01T07:40:08Z</time>
      </trkpt>
      <trkpt lat="45.59956" lon="6.76436">
        <ele>781.8</ele>
        <time>2021-06-01T07:40:09Z</time>
      </trkpt>
      <trkpt lat="45.59951" lon="6.7643">
        <ele>781.4</ele>
        <time>2021-06-01T07:40:10Z</time>
      </trkpt>
      <trkpt lat="45.59946" lon="6.76423">
        <ele>781.2</ele>
        <time>2021-06-01T07:40:11Z</time>
      </trkpt>
      <trkpt lat="45.59942" lon="6.76415">
        <ele>781</ele>
        <time>2021-06-01T07:40:12Z</time>
      </trkpt>
      <trkpt lat="45.59938" lon="6.76408">
        <ele>780.8</ele>
        <time>2021-06-01T07:40:13Z</time>
      </trkpt>
      <trkpt lat="45.59934" lon="6.764">
        <ele>780.8</ele>
        <time>2021-06-01T07:40:14Z</time>
      </trkpt>
      <trkpt lat="45.5993" lon="6.76392">
        <ele>780.6</ele>
        <time>2021-06-01T07:40:15Z</time>
      </trkpt>
      <trkpt lat="45.59927" lon="6.76384">
        <ele>780.6</ele>
        <time>2021-06-01T07:40:16Z</time>
      </trkpt>
      <trkpt lat="45.59924" lon="6.76376">
        <ele>780.8</ele>
        <time>2021-06-01T07:40:17Z</time>
      </trkpt>
      <trkpt lat="45.59919" lon="6.76366">
        <ele>781</ele>
        <time>2021-06-01T07:40:18Z</time>
      </trkpt>
      <trkpt lat="45.59916" lon="6.76358">
        <ele>781</ele>
        <time>2021-06-01T07:40:19Z</time>
      </trkpt>
      <trkpt lat="45.59913" lon="6.76349">
        <ele>781.2</ele>
        <time>2021-06-01T07:40:20Z</time>
      </trkpt>
      <trkpt lat="45.59908" lon="6.76342">
        <ele>781.4</ele>
        <time>2021-06-01T07:40:21Z</time>
      </trkpt>
      <trkpt lat="45.59903" lon="6.76334">
        <ele>781.4</ele>
        <time>2021-06-01T07:40:22Z</time>
      </trkpt>
      <trkpt lat="45.599" lon="6.76326">
        <ele>781.6</ele>
        <time>2021-06-01T07:40:23Z</time>
      </trkpt>
      <trkpt lat="45.59896" lon="6.76319">
        <ele>781.8</ele>
        <time>2021-06-01T07:40:24Z</time>
      </trkpt>
      <trkpt lat="45.59892" lon="6.76312">
        <ele>781.8</ele>
        <time>2021-06-01T07:40:25Z</time>
      </trkpt>
      <trkpt lat="45.59888" lon="6.76304">
        <ele>781.8</ele>
        <time>2021-06-01T07:40:26Z</time>
      </trkpt>
      <trkpt lat="45.59885" lon="6.76297">
        <ele>782.2</ele>
        <time>2021-06-01T07:40:27Z</time>
      </trkpt>
      <trkpt lat="45.59881" lon="6.7629">
        <ele>782.6</ele>
        <time>2021-06-01T07:40:28Z</time>
      </trkpt>
      <trkpt lat="45.59877" lon="6.76281">
        <ele>783</ele>
        <time>2021-06-01T07:40:29Z</time>
      </trkpt>
      <trkpt lat="45.59873" lon="6.76273">
        <ele>783.6</ele>
        <time>2021-06-01T07:40:30Z</time>
      </trkpt>
      <trkpt lat="45.59869" lon="6.76266">
        <ele>784.2</ele>
        <time>2021-06-01T07:40:31Z</time>
      </trkpt>
      <trkpt lat="45.59866" lon="6.76259">
        <ele>784.4</ele>
        <time>2021-06-01T07:40:32Z</time>
      </trkpt>
      <trkpt lat="45.59862" lon="6.76252">
        <ele>784.4</ele>
        <time>2021-06-01T07:40:33Z</time>
      </trkpt>
      <trkpt lat="45.59858" lon="6.76244">
        <ele>784.6</ele>
        <time>2021-06-01T07:40:34Z</time>
      </trkpt>
      <trkpt lat="45.59853" lon="6.76237">
        <ele>784.6</ele>
        <time>2021-06-01T07:40:35Z</time>
      </trkpt>
      <trkpt lat="45.5985" lon="6.76229">
        <ele>784.6</ele>
        <time>2021-06-01T07:40:36Z</time>
      </trkpt>
      <trkpt lat="45.59845" lon="6.76222">
        <ele>784.8</ele>
        <time>2021-06-01T07:40:37Z</time>
      </trkpt>
      <trkpt lat="45.59841" lon="6.76214">
        <ele>784.8</ele>
        <time>2021-06-01T07:40:38Z</time>
      </trkpt>
      <trkpt lat="45.59836" lon="6.76208">
        <ele>785.2</ele>
        <time>2021-06-01T07:40:39Z</time>
      </trkpt>
      <trkpt lat="45.59832" lon="6.762">
        <ele>785.8</ele>
        <time>2021-06-01T07:40:40Z</time>
      </trkpt>
      <trkpt lat="45.59827" lon="6.76194">
        <ele>786.6</ele>
        <time>2021-06-01T07:40:41Z</time>
      </trkpt>
      <trkpt lat="45.59822" lon="6.76188">
        <ele>787</ele>
        <time>2021-06-01T07:40:42Z</time>
      </trkpt>
      <trkpt lat="45.59818" lon="6.76181">
        <ele>787.6</ele>
        <time>2021-06-01T07:40:43Z</time>
      </trkpt>
      <trkpt lat="45.59812" lon="6.76174">
        <ele>788</ele>
        <time>2021-06-01T07:40:44Z</time>
      </trkpt>
      <trkpt lat="45.59807" lon="6.76168">
        <ele>788.2</ele>
        <time>2021-06-01T07:40:45Z</time>
      </trkpt>
      <trkpt lat="45.59802" lon="6.76161">
        <ele>788.6</ele>
        <time>2021-06-01T07:40:46Z</time>
      </trkpt>
      <trkpt lat="45.59797" lon="6.76155">
        <ele>788.8</ele>
        <time>2021-06-01T07:40:47Z</time>
      </trkpt>
      <trkpt lat="45.59793" lon="6.76149">
        <ele>789.4</ele>
        <time>2021-06-01T07:40:48Z</time>
      </trkpt>
      <trkpt lat="45.59788" lon="6.76142">
        <ele>789.8</ele>
        <time>2021-06-01T07:40:49Z</time>
      </trkpt>
      <trkpt lat="45.59784" lon="6.76136">
        <ele>790</ele>
        <time>2021-06-01T07:40:50Z</time>
      </trkpt>
      <trkpt lat="45.59779" lon="6.76129">
        <ele>790</ele>
        <time>2021-06-01T07:40:51Z</time>
      </trkpt>
      <trkpt lat="45.59774" lon="6.76122">
        <ele>790.4</ele>
        <time>2021-06-01T07:40:52Z</time>
      </trkpt>
      <trkpt lat="45.5977" lon="6.76116">
        <ele>790.4</ele>
        <time>2021-06-01T07:40:53Z</time>
      </trkpt>
      <trkpt lat="45.59766" lon="6.76112">
        <ele>790.4</ele>
        <time>2021-06-01T07:40:54Z</time>
      </trkpt>
      <trkpt lat="45.5976" lon="6.76106">
        <ele>790.8</ele>
        <time>2021-06-01T07:40:55Z</time>
      </trkpt>
      <trkpt lat="45.59755" lon="6.76102">
        <ele>791</ele>
        <time>2021-06-01T07:40:56Z</time>
      </trkpt>
      <trkpt lat="45.59749" lon="6.76098">
        <ele>791</ele>
        <time>2021-06-01T07:40:57Z</time>
      </trkpt>
      <trkpt lat="45.59744" lon="6.76095">
        <ele>791.2</ele>
        <time>2021-06-01T07:40:58Z</time>
      </trkpt>
      <trkpt lat="45.59738" lon="6.76092">
        <ele>791</ele>
        <time>2021-06-01T07:40:59Z</time>
      </trkpt>
      <trkpt lat="45.59732" lon="6.7609">
        <ele>791.2</ele>
        <time>2021-06-01T07:41:00Z</time>
      </trkpt>
      <trkpt lat="45.59726" lon="6.76087">
        <ele>791.2</ele>
        <time>2021-06-01T07:41:01Z</time>
      </trkpt>
      <trkpt lat="45.59721" lon="6.76084">
        <ele>791.2</ele>
        <time>2021-06-01T07:41:02Z</time>
      </trkpt>
      <trkpt lat="45.59715" lon="6.76081">
        <ele>791.2</ele>
        <time>2021-06-01T07:41:03Z</time>
      </trkpt>
      <trkpt lat="45.59709" lon="6.76078">
        <ele>791.4</ele>
        <time>2021-06-01T07:41:04Z</time>
      </trkpt>
      <trkpt lat="45.59704" lon="6.76076">
        <ele>791.4</ele>
        <time>2021-06-01T07:41:05Z</time>
      </trkpt>
      <trkpt lat="45.59698" lon="6.76073">
        <ele>791.4</ele>
        <time>2021-06-01T07:41:06Z</time>
      </trkpt>
      <trkpt lat="45.59692" lon="6.76071">
        <ele>791.6</ele>
        <time>2021-06-01T07:41:07Z</time>
      </trkpt>
      <trkpt lat="45.59687" lon="6.76069">
        <ele>791.6</ele>
        <time>2021-06-01T07:41:08Z</time>
      </trkpt>
      <trkpt lat="45.59681" lon="6.76067">
        <ele>791.8</ele>
        <time>2021-06-01T07:41:09Z</time>
      </trkpt>
      <trkpt lat="45.59676" lon="6.76065">
        <ele>791.6</ele>
        <time>2021-06-01T07:41:10Z</time>
      </trkpt>
      <trkpt lat="45.59669" lon="6.76064">
        <ele>791.8</ele>
        <time>2021-06-01T07:41:11Z</time>
      </trkpt>
      <trkpt lat="45.59664" lon="6.76062">
        <ele>791.8</ele>
        <time>2021-06-01T07:41:12Z</time>
      </trkpt>
      <trkpt lat="45.59658" lon="6.76061">
        <ele>791.8</ele>
        <time>2021-06-01T07:41:13Z</time>
      </trkpt>
      <trkpt lat="45.59652" lon="6.7606">
        <ele>792</ele>
        <time>2021-06-01T07:41:14Z</time>
      </trkpt>
      <trkpt lat="45.59646" lon="6.76058">
        <ele>792</ele>
        <time>2021-06-01T07:41:15Z</time>
      </trkpt>
      <trkpt lat="45.5964" lon="6.76056">
        <ele>792</ele>
        <time>2021-06-01T07:41:16Z</time>
      </trkpt>
      <trkpt lat="45.59634" lon="6.76054">
        <ele>792</ele>
        <time>2021-06-01T07:41:17Z</time>
      </trkpt>
      <trkpt lat="45.59629" lon="6.76052">
        <ele>792</ele>
        <time>2021-06-01T07:41:18Z</time>
      </trkpt>
      <trkpt lat="45.59623" lon="6.7605">
        <ele>792</ele>
        <time>2021-06-01T07:41:19Z</time>
      </trkpt>
      <trkpt lat="45.59617" lon="6.76048">
        <ele>791.8</ele>
        <time>2021-06-01T07:41:20Z</time>
      </trkpt>
      <trkpt lat="45.59611" lon="6.76046">
        <ele>792</ele>
        <time>2021-06-01T07:41:21Z</time>
      </trkpt>
      <trkpt lat="45.59605" lon="6.76042">
        <ele>792</ele>
        <time>2021-06-01T07:41:22Z</time>
      </trkpt>
      <trkpt lat="45.596" lon="6.76038">
        <ele>792</ele>
        <time>2021-06-01T07:41:23Z</time>
      </trkpt>
      <trkpt lat="45.59594" lon="6.76034">
        <ele>792.2</ele>
        <time>2021-06-01T07:41:24Z</time>
      </trkpt>
      <trkpt lat="45.59589" lon="6.7603">
        <ele>792.4</ele>
        <time>2021-06-01T07:41:25Z</time>
      </trkpt>
      <trkpt lat="45.59584" lon="6.76024">
        <ele>792.4</ele>
        <time>2021-06-01T07:41:26Z</time>
      </trkpt>
      <trkpt lat="45.5958" lon="6.7602">
        <ele>792.6</ele>
        <time>2021-06-01T07:41:27Z</time>
      </trkpt>
      <trkpt lat="45.59576" lon="6.76014">
        <ele>792.8</ele>
        <time>2021-06-01T07:41:28Z</time>
      </trkpt>
      <trkpt lat="45.59571" lon="6.76009">
        <ele>792.8</ele>
        <time>2021-06-01T07:41:29Z</time>
      </trkpt>
      <trkpt lat="45.59566" lon="6.76004">
        <ele>792.8</ele>
        <time>2021-06-01T07:41:30Z</time>
      </trkpt>
      <trkpt lat="45.59562" lon="6.76">
        <ele>793</ele>
        <time>2021-06-01T07:41:31Z</time>
      </trkpt>
      <trkpt lat="45.59557" lon="6.75995">
        <ele>793.2</ele>
        <time>2021-06-01T07:41:32Z</time>
      </trkpt>
      <trkpt lat="45.59552" lon="6.75992">
        <ele>793.2</ele>
        <time>2021-06-01T07:41:33Z</time>
      </trkpt>
      <trkpt lat="45.59547" lon="6.75989">
        <ele>793.2</ele>
        <time>2021-06-01T07:41:34Z</time>
      </trkpt>
      <trkpt lat="45.59541" lon="6.75986">
        <ele>793.2</ele>
        <time>2021-06-01T07:41:35Z</time>
      </trkpt>
      <trkpt lat="45.59535" lon="6.75984">
        <ele>793.2</ele>
        <time>2021-06-01T07:41:36Z</time>
      </trkpt>
      <trkpt lat="45.5953" lon="6.75982">
        <ele>793.2</ele>
        <time>2021-06-01T07:41:37Z</time>
      </trkpt>
      <trkpt lat="45.59524" lon="6.7598">
        <ele>793.2</ele>
        <time>2021-06-01T07:41:38Z</time>
      </trkpt>
      <trkpt lat="45.59517" lon="6.75977">
        <ele>793.6</ele>
        <time>2021-06-01T07:41:39Z</time>
      </trkpt>
      <trkpt lat="45.59511" lon="6.75974">
        <ele>793.4</ele>
        <time>2021-06-01T07:41:40Z</time>
      </trkpt>
      <trkpt lat="45.59506" lon="6.7597">
        <ele>793.4</ele>
        <time>2021-06-01T07:41:41Z</time>
      </trkpt>
      <trkpt lat="45.595" lon="6.75965">
        <ele>793.6</ele>
        <time>2021-06-01T07:41:42Z</time>
      </trkpt>
      <trkpt lat="45.59496" lon="6.75959">
        <ele>793.4</ele>
        <time>2021-06-01T07:41:43Z</time>
      </trkpt>
      <trkpt lat="45.59491" lon="6.75952">
        <ele>793.2</ele>
        <time>2021-06-01T07:41:44Z</time>
      </trkpt>
      <trkpt lat="45.59488" lon="6.75944">
        <ele>793</ele>
        <time>2021-06-01T07:41:45Z</time>
      </trkpt>
      <trkpt lat="45.59484" lon="6.75936">
        <ele>792.8</ele>
        <time>2021-06-01T07:41:46Z</time>
      </trkpt>
      <trkpt lat="45.59481" lon="6.75927">
        <ele>792.8</ele>
        <time>2021-06-01T07:41:47Z</time>
      </trkpt>
      <trkpt lat="45.59478" lon="6.75918">
        <ele>792.6</ele>
        <time>2021-06-01T07:41:48Z</time>
      </trkpt>
      <trkpt lat="45.59475" lon="6.75909">
        <ele>792.6</ele>
        <time>2021-06-01T07:41:49Z</time>
      </trkpt>
      <trkpt lat="45.59471" lon="6.75899">
        <ele>792.2</ele>
        <time>2021-06-01T07:41:50Z</time>
      </trkpt>
      <trkpt lat="45.59469" lon="6.7589">
        <ele>792.2</ele>
        <time>2021-06-01T07:41:51Z</time>
      </trkpt>
      <trkpt lat="45.59466" lon="6.75879">
        <ele>791.8</ele>
        <time>2021-06-01T07:41:52Z</time>
      </trkpt>
      <trkpt lat="45.59464" lon="6.75869">
        <ele>791.6</ele>
        <time>2021-06-01T07:41:53Z</time>
      </trkpt>
      <trkpt lat="45.59461" lon="6.75859">
        <ele>791.4</ele>
        <time>2021-06-01T07:41:54Z</time>
      </trkpt>
      <trkpt lat="45.59459" lon="6.75848">
        <ele>791.4</ele>
        <time>2021-06-01T07:41:55Z</time>
      </trkpt>
      <trkpt lat="45.59455" lon="6.75838">
        <ele>791.2</ele>
        <time>2021-06-01T07:41:56Z</time>
      </trkpt>
      <trkpt lat="45.59452" lon="6.75828">
        <ele>790.8</ele>
        <time>2021-06-01T07:41:57Z</time>
      </trkpt>
      <trkpt lat="45.59447" lon="6.75819">
        <ele>790.8</ele>
        <time>2021-06-01T07:41:58Z</time>
      </trkpt>
      <trkpt lat="45.59442" lon="6.75811">
        <ele>790.4</ele>
        <time>2021-06-01T07:41:59Z</time>
      </trkpt>
      <trkpt lat="45.59436" lon="6.75804">
        <ele>790</ele>
        <time>2021-06-01T07:42:00Z</time>
      </trkpt>
      <trkpt lat="45.5943" lon="6.75797">
        <ele>789.8</ele>
        <time>2021-06-01T07:42:01Z</time>
      </trkpt>
      <trkpt lat="45.59423" lon="6.7579">
        <ele>789.6</ele>
        <time>2021-06-01T07:42:02Z</time>
      </trkpt>
      <trkpt lat="45.59417" lon="6.75784">
        <ele>789.2</ele>
        <time>2021-06-01T07:42:03Z</time>
      </trkpt>
      <trkpt lat="45.59411" lon="6.75777">
        <ele>788.8</ele>
        <time>2021-06-01T07:42:04Z</time>
      </trkpt>
      <trkpt lat="45.59404" lon="6.7577">
        <ele>788.6</ele>
        <time>2021-06-01T07:42:05Z</time>
      </trkpt>
      <trkpt lat="45.59397" lon="6.75764">
        <ele>788.4</ele>
        <time>2021-06-01T07:42:06Z</time>
      </trkpt>
      <trkpt lat="45.5939" lon="6.75757">
        <ele>787.8</ele>
        <time>2021-06-01T07:42:07Z</time>
      </trkpt>
      <trkpt lat="45.59383" lon="6.75751">
        <ele>787.4</ele>
        <time>2021-06-01T07:42:08Z</time>
      </trkpt>
      <trkpt lat="45.59375" lon="6.75745">
        <ele>786.6</ele>
        <time>2021-06-01T07:42:09Z</time>
      </trkpt>
      <trkpt lat="45.59367" lon="6.75739">
        <ele>786.6</ele>
        <time>2021-06-01T07:42:10Z</time>
      </trkpt>
      <trkpt lat="45.59359" lon="6.75733">
        <ele>786.2</ele>
        <time>2021-06-01T07:42:11Z</time>
      </trkpt>
      <trkpt lat="45.5935" lon="6.75728">
        <ele>786</ele>
        <time>2021-06-01T07:42:12Z</time>
      </trkpt>
      <trkpt lat="45.59341" lon="6.75722">
        <ele>785.8</ele>
        <time>2021-06-01T07:42:13Z</time>
      </trkpt>
      <trkpt lat="45.59333" lon="6.75716">
        <ele>785.2</ele>
        <time>2021-06-01T07:42:14Z</time>
      </trkpt>
      <trkpt lat="45.59324" lon="6.75711">
        <ele>785</ele>
        <time>2021-06-01T07:42:15Z</time>
      </trkpt>
      <trkpt lat="45.59316" lon="6.75705">
        <ele>784.6</ele>
        <time>2021-06-01T07:42:16Z</time>
      </trkpt>
      <trkpt lat="45.59307" lon="6.75699">
        <ele>784.6</ele>
        <time>2021-06-01T07:42:17Z</time>
      </trkpt>
      <trkpt lat="45.59298" lon="6.75692">
        <ele>784.4</ele>
        <time>2021-06-01T07:42:18Z</time>
      </trkpt>
      <trkpt lat="45.59289" lon="6.75686">
        <ele>784.2</ele>
        <time>2021-06-01T07:42:19Z</time>
      </trkpt>
      <trkpt lat="45.59279" lon="6.7568">
        <ele>783.6</ele>
        <time>2021-06-01T07:42:20Z</time>
      </trkpt>
      <trkpt lat="45.5927" lon="6.75674">
        <ele>783</ele>
        <time>2021-06-01T07:42:21Z</time>
      </trkpt>
      <trkpt lat="45.5926" lon="6.7567">
        <ele>782.2</ele>
        <time>2021-06-01T07:42:22Z</time>
      </trkpt>
      <trkpt lat="45.59251" lon="6.75666">
        <ele>782</ele>
        <time>2021-06-01T07:42:23Z</time>
      </trkpt>
      <trkpt lat="45.5924" lon="6.75661">
        <ele>781.8</ele>
        <time>2021-06-01T07:42:24Z</time>
      </trkpt>
      <trkpt lat="45.59231" lon="6.75656">
        <ele>781.4</ele>
        <time>2021-06-01T07:42:25Z</time>
      </trkpt>
      <trkpt lat="45.59221" lon="6.75649">
        <ele>781.4</ele>
        <time>2021-06-01T07:42:26Z</time>
      </trkpt>
      <trkpt lat="45.59211" lon="6.75642">
        <ele>781</ele>
        <time>2021-06-01T07:42:27Z</time>
      </trkpt>
      <trkpt lat="45.59202" lon="6.75635">
        <ele>780.4</ele>
        <time>2021-06-01T07:42:28Z</time>
      </trkpt>
      <trkpt lat="45.59193" lon="6.75627">
        <ele>780.2</ele>
        <time>2021-06-01T07:42:29Z</time>
      </trkpt>
      <trkpt lat="45.59183" lon="6.75619">
        <ele>779.8</ele>
        <time>2021-06-01T07:42:30Z</time>
      </trkpt>
      <trkpt lat="45.59174" lon="6.75611">
        <ele>779.6</ele>
        <time>2021-06-01T07:42:31Z</time>
      </trkpt>
      <trkpt lat="45.59165" lon="6.75604">
        <ele>779.2</ele>
        <time>2021-06-01T07:42:32Z</time>
      </trkpt>
      <trkpt lat="45.59156" lon="6.75596">
        <ele>778.8</ele>
        <time>2021-06-01T07:42:33Z</time>
      </trkpt>
      <trkpt lat="45.59147" lon="6.75587">
        <ele>778.2</ele>
        <time>2021-06-01T07:42:34Z</time>
      </trkpt>
      <trkpt lat="45.59139" lon="6.75576">
        <ele>777.8</ele>
        <time>2021-06-01T07:42:35Z</time>
      </trkpt>
      <trkpt lat="45.59132" lon="6.75568">
        <ele>777.2</ele>
        <time>2021-06-01T07:42:36Z</time>
      </trkpt>
      <trkpt lat="45.59123" lon="6.75554">
        <ele>776.8</ele>
        <time>2021-06-01T07:42:37Z</time>
      </trkpt>
      <trkpt lat="45.59116" lon="6.75542">
        <ele>776.4</ele>
        <time>2021-06-01T07:42:38Z</time>
      </trkpt>
      <trkpt lat="45.59108" lon="6.7553">
        <ele>776.2</ele>
        <time>2021-06-01T07:42:39Z</time>
      </trkpt>
      <trkpt lat="45.59101" lon="6.75519">
        <ele>776</ele>
        <time>2021-06-01T07:42:40Z</time>
      </trkpt>
      <trkpt lat="45.59093" lon="6.75508">
        <ele>775.8</ele>
        <time>2021-06-01T07:42:41Z</time>
      </trkpt>
      <trkpt lat="45.59084" lon="6.75498">
        <ele>775.4</ele>
        <time>2021-06-01T07:42:42Z</time>
      </trkpt>
      <trkpt lat="45.59076" lon="6.75488">
        <ele>775</ele>
        <time>2021-06-01T07:42:43Z</time>
      </trkpt>
      <trkpt lat="45.59066" lon="6.7548">
        <ele>774.8</ele>
        <time>2021-06-01T07:42:44Z</time>
      </trkpt>
      <trkpt lat="45.59056" lon="6.75473">
        <ele>775</ele>
        <time>2021-06-01T07:42:45Z</time>
      </trkpt>
      <trkpt lat="45.59045" lon="6.75467">
        <ele>774.4</ele>
        <time>2021-06-01T07:42:46Z</time>
      </trkpt>
      <trkpt lat="45.59035" lon="6.75462">
        <ele>774.2</ele>
        <time>2021-06-01T07:42:47Z</time>
      </trkpt>
      <trkpt lat="45.59024" lon="6.75458">
        <ele>774.2</ele>
        <time>2021-06-01T07:42:48Z</time>
      </trkpt>
      <trkpt lat="45.59014" lon="6.75454">
        <ele>774</ele>
        <time>2021-06-01T07:42:49Z</time>
      </trkpt>
      <trkpt lat="45.59003" lon="6.7545">
        <ele>773.8</ele>
        <time>2021-06-01T07:42:50Z</time>
      </trkpt>
      <trkpt lat="45.58992" lon="6.75446">
        <ele>773</ele>
        <time>2021-06-01T07:42:51Z</time>
      </trkpt>
      <trkpt lat="45.58981" lon="6.75442">
        <ele>772.8</ele>
        <time>2021-06-01T07:42:52Z</time>
      </trkpt>
      <trkpt lat="45.5897" lon="6.75437">
        <ele>772.2</ele>
        <time>2021-06-01T07:42:53Z</time>
      </trkpt>
      <trkpt lat="45.5896" lon="6.75433">
        <ele>771.8</ele>
        <time>2021-06-01T07:42:54Z</time>
      </trkpt>
      <trkpt lat="45.58949" lon="6.75428">
        <ele>771.6</ele>
        <time>2021-06-01T07:42:55Z</time>
      </trkpt>
      <trkpt lat="45.58939" lon="6.75423">
        <ele>771.6</ele>
        <time>2021-06-01T07:42:56Z</time>
      </trkpt>
      <trkpt lat="45.58928" lon="6.75419">
        <ele>771.2</ele>
        <time>2021-06-01T07:42:57Z</time>
      </trkpt>
      <trkpt lat="45.58917" lon="6.75415">
        <ele>771.2</ele>
        <time>2021-06-01T07:42:58Z</time>
      </trkpt>
      <trkpt lat="45.58906" lon="6.75411">
        <ele>770.6</ele>
        <time>2021-06-01T07:42:59Z</time>
      </trkpt>
      <trkpt lat="45.58895" lon="6.75408">
        <ele>770.4</ele>
        <time>2021-06-01T07:43:00Z</time>
      </trkpt>
      <trkpt lat="45.58884" lon="6.75406">
        <ele>770.2</ele>
        <time>2021-06-01T07:43:01Z</time>
      </trkpt>
      <trkpt lat="45.58873" lon="6.75404">
        <ele>770</ele>
        <time>2021-06-01T07:43:02Z</time>
      </trkpt>
      <trkpt lat="45.58863" lon="6.75402">
        <ele>769.8</ele>
        <time>2021-06-01T07:43:03Z</time>
      </trkpt>
      <trkpt lat="45.58853" lon="6.754">
        <ele>769.6</ele>
        <time>2021-06-01T07:43:04Z</time>
      </trkpt>
      <trkpt lat="45.58842" lon="6.75397">
        <ele>769.2</ele>
        <time>2021-06-01T07:43:05Z</time>
      </trkpt>
      <trkpt lat="45.58832" lon="6.75393">
        <ele>768.8</ele>
        <time>2021-06-01T07:43:06Z</time>
      </trkpt>
      <trkpt lat="45.58822" lon="6.75388">
        <ele>768.6</ele>
        <time>2021-06-01T07:43:07Z</time>
      </trkpt>
      <trkpt lat="45.58812" lon="6.75384">
        <ele>768.4</ele>
        <time>2021-06-01T07:43:08Z</time>
      </trkpt>
      <trkpt lat="45.58803" lon="6.75378">
        <ele>768.2</ele>
        <time>2021-06-01T07:43:09Z</time>
      </trkpt>
      <trkpt lat="45.58794" lon="6.75373">
        <ele>768</ele>
        <time>2021-06-01T07:43:10Z</time>
      </trkpt>
      <trkpt lat="45.58785" lon="6.75368">
        <ele>767.8</ele>
        <time>2021-06-01T07:43:11Z</time>
      </trkpt>
      <trkpt lat="45.58774" lon="6.75364">
        <ele>768</ele>
        <time>2021-06-01T07:43:12Z</time>
      </trkpt>
      <trkpt lat="45.58765" lon="6.75359">
        <ele>768</ele>
        <time>2021-06-01T07:43:13Z</time>
      </trkpt>
      <trkpt lat="45.58756" lon="6.75354">
        <ele>768</ele>
        <time>2021-06-01T07:43:14Z</time>
      </trkpt>
      <trkpt lat="45.58746" lon="6.75349">
        <ele>768.2</ele>
        <time>2021-06-01T07:43:15Z</time>
      </trkpt>
      <trkpt lat="45.58738" lon="6.75344">
        <ele>768</ele>
        <time>2021-06-01T07:43:16Z</time>
      </trkpt>
      <trkpt lat="45.58728" lon="6.75339">
        <ele>767.8</ele>
        <time>2021-06-01T07:43:17Z</time>
      </trkpt>
      <trkpt lat="45.58719" lon="6.75334">
        <ele>767.6</ele>
        <time>2021-06-01T07:43:18Z</time>
      </trkpt>
      <trkpt lat="45.5871" lon="6.7533">
        <ele>767.4</ele>
        <time>2021-06-01T07:43:19Z</time>
      </trkpt>
      <trkpt lat="45.58701" lon="6.75325">
        <ele>767.4</ele>
        <time>2021-06-01T07:43:20Z</time>
      </trkpt>
      <trkpt lat="45.58692" lon="6.75321">
        <ele>767.4</ele>
        <time>2021-06-01T07:43:21Z</time>
      </trkpt>
      <trkpt lat="45.58684" lon="6.75317">
        <ele>766.8</ele>
        <time>2021-06-01T07:43:22Z</time>
      </trkpt>
      <trkpt lat="45.58674" lon="6.75314">
        <ele>766.6</ele>
        <time>2021-06-01T07:43:23Z</time>
      </trkpt>
      <trkpt lat="45.58665" lon="6.7531">
        <ele>766.6</ele>
        <time>2021-06-01T07:43:24Z</time>
      </trkpt>
      <trkpt lat="45.58655" lon="6.75307">
        <ele>766.6</ele>
        <time>2021-06-01T07:43:25Z</time>
      </trkpt>
      <trkpt lat="45.58646" lon="6.75303">
        <ele>766.6</ele>
        <time>2021-06-01T07:43:26Z</time>
      </trkpt>
      <trkpt lat="45.58638" lon="6.75298">
        <ele>766.6</ele>
        <time>2021-06-01T07:43:27Z</time>
      </trkpt>
      <trkpt lat="45.58629" lon="6.75292">
        <ele>766.6</ele>
        <time>2021-06-01T07:43:28Z</time>
      </trkpt>
      <trkpt lat="45.58621" lon="6.75284">
        <ele>766.2</ele>
        <time>2021-06-01T07:43:29Z</time>
      </trkpt>
      <trkpt lat="45.58614" lon="6.75277">
        <ele>766</ele>
        <time>2021-06-01T07:43:30Z</time>
      </trkpt>
      <trkpt lat="45.58606" lon="6.7527">
        <ele>765.8</ele>
        <time>2021-06-01T07:43:31Z</time>
      </trkpt>
      <trkpt lat="45.58598" lon="6.75264">
        <ele>765.4</ele>
        <time>2021-06-01T07:43:32Z</time>
      </trkpt>
      <trkpt lat="45.58589" lon="6.75258">
        <ele>765.6</ele>
        <time>2021-06-01T07:43:33Z</time>
      </trkpt>
      <trkpt lat="45.58581" lon="6.75254">
        <ele>765.6</ele>
        <time>2021-06-01T07:43:34Z</time>
      </trkpt>
      <trkpt lat="45.58573" lon="6.7525">
        <ele>765.4</ele>
        <time>2021-06-01T07:43:35Z</time>
      </trkpt>
      <trkpt lat="45.58565" lon="6.75246">
        <ele>765.4</ele>
        <time>2021-06-01T07:43:36Z</time>
      </trkpt>
      <trkpt lat="45.58557" lon="6.75242">
        <ele>765.2</ele>
        <time>2021-06-01T07:43:37Z</time>
      </trkpt>
      <trkpt lat="45.58548" lon="6.75238">
        <ele>765.2</ele>
        <time>2021-06-01T07:43:38Z</time>
      </trkpt>
      <trkpt lat="45.5854" lon="6.75234">
        <ele>765.4</ele>
        <time>2021-06-01T07:43:39Z</time>
      </trkpt>
      <trkpt lat="45.58531" lon="6.7523">
        <ele>765.4</ele>
        <time>2021-06-01T07:43:40Z</time>
      </trkpt>
      <trkpt lat="45.58523" lon="6.75224">
        <ele>765.4</ele>
        <time>2021-06-01T07:43:41Z</time>
      </trkpt>
      <trkpt lat="45.58515" lon="6.75218">
        <ele>765.2</ele>
        <time>2021-06-01T07:43:42Z</time>
      </trkpt>
      <trkpt lat="45.58506" lon="6.75213">
        <ele>764.8</ele>
        <time>2021-06-01T07:43:43Z</time>
      </trkpt>
      <trkpt lat="45.58498" lon="6.75208">
        <ele>764.8</ele>
        <time>2021-06-01T07:43:44Z</time>
      </trkpt>
      <trkpt lat="45.58489" lon="6.75203">
        <ele>764.6</ele>
        <time>2021-06-01T07:43:45Z</time>
      </trkpt>
      <trkpt lat="45.58481" lon="6.75198">
        <ele>764.2</ele>
        <time>2021-06-01T07:43:46Z</time>
      </trkpt>
      <trkpt lat="45.58473" lon="6.75193">
        <ele>764</ele>
        <time>2021-06-01T07:43:47Z</time>
      </trkpt>
      <trkpt lat="45.58465" lon="6.75188">
        <ele>763.8</ele>
        <time>2021-06-01T07:43:48Z</time>
      </trkpt>
      <trkpt lat="45.58457" lon="6.75182">
        <ele>763.6</ele>
        <time>2021-06-01T07:43:49Z</time>
      </trkpt>
      <trkpt lat="45.58449" lon="6.75176">
        <ele>763.6</ele>
        <time>2021-06-01T07:43:50Z</time>
      </trkpt>
      <trkpt lat="45.58444" lon="6.75167">
        <ele>763.4</ele>
        <time>2021-06-01T07:43:51Z</time>
      </trkpt>
      <trkpt lat="45.58438" lon="6.75157">
        <ele>763.4</ele>
        <time>2021-06-01T07:43:52Z</time>
      </trkpt>
      <trkpt lat="45.58435" lon="6.75146">
        <ele>763.4</ele>
        <time>2021-06-01T07:43:53Z</time>
      </trkpt>
      <trkpt lat="45.58432" lon="6.75135">
        <ele>763.6</ele>
        <time>2021-06-01T07:43:54Z</time>
      </trkpt>
      <trkpt lat="45.5843" lon="6.75123">
        <ele>763.8</ele>
        <time>2021-06-01T07:43:55Z</time>
      </trkpt>
      <trkpt lat="45.58427" lon="6.75111">
        <ele>764</ele>
        <time>2021-06-01T07:43:56Z</time>
      </trkpt>
      <trkpt lat="45.58424" lon="6.751">
        <ele>764.2</ele>
        <time>2021-06-01T07:43:57Z</time>
      </trkpt>
      <trkpt lat="45.58421" lon="6.75089">
        <ele>764.6</ele>
        <time>2021-06-01T07:43:58Z</time>
      </trkpt>
      <trkpt lat="45.58417" lon="6.75078">
        <ele>765.2</ele>
        <time>2021-06-01T07:43:59Z</time>
      </trkpt>
      <trkpt lat="45.58413" lon="6.75068">
        <ele>765.6</ele>
        <time>2021-06-01T07:44:00Z</time>
      </trkpt>
      <trkpt lat="45.58409" lon="6.75058">
        <ele>765.8</ele>
        <time>2021-06-01T07:44:01Z</time>
      </trkpt>
      <trkpt lat="45.58404" lon="6.75048">
        <ele>766</ele>
        <time>2021-06-01T07:44:02Z</time>
      </trkpt>
      <trkpt lat="45.584" lon="6.75038">
        <ele>766</ele>
        <time>2021-06-01T07:44:03Z</time>
      </trkpt>
      <trkpt lat="45.58394" lon="6.75029">
        <ele>766.2</ele>
        <time>2021-06-01T07:44:04Z</time>
      </trkpt>
      <trkpt lat="45.58388" lon="6.75021">
        <ele>766.2</ele>
        <time>2021-06-01T07:44:05Z</time>
      </trkpt>
      <trkpt lat="45.58382" lon="6.75014">
        <ele>766.4</ele>
        <time>2021-06-01T07:44:06Z</time>
      </trkpt>
      <trkpt lat="45.58375" lon="6.75007">
        <ele>766.2</ele>
        <time>2021-06-01T07:44:07Z</time>
      </trkpt>
      <trkpt lat="45.58369" lon="6.75002">
        <ele>766.2</ele>
        <time>2021-06-01T07:44:08Z</time>
      </trkpt>
      <trkpt lat="45.58361" lon="6.74998">
        <ele>766</ele>
        <time>2021-06-01T07:44:09Z</time>
      </trkpt>
      <trkpt lat="45.58353" lon="6.74994">
        <ele>765.6</ele>
        <time>2021-06-01T07:44:10Z</time>
      </trkpt>
      <trkpt lat="45.58346" lon="6.7499">
        <ele>765.4</ele>
        <time>2021-06-01T07:44:11Z</time>
      </trkpt>
      <trkpt lat="45.58339" lon="6.74986">
        <ele>765.2</ele>
        <time>2021-06-01T07:44:12Z</time>
      </trkpt>
      <trkpt lat="45.58331" lon="6.74982">
        <ele>765.2</ele>
        <time>2021-06-01T07:44:13Z</time>
      </trkpt>
      <trkpt lat="45.58324" lon="6.74978">
        <ele>765</ele>
        <time>2021-06-01T07:44:14Z</time>
      </trkpt>
      <trkpt lat="45.58316" lon="6.74974">
        <ele>764.6</ele>
        <time>2021-06-01T07:44:15Z</time>
      </trkpt>
      <trkpt lat="45.58308" lon="6.7497">
        <ele>764.6</ele>
        <time>2021-06-01T07:44:16Z</time>
      </trkpt>
      <trkpt lat="45.58301" lon="6.74966">
        <ele>764.6</ele>
        <time>2021-06-01T07:44:17Z</time>
      </trkpt>
      <trkpt lat="45.58293" lon="6.74962">
        <ele>764.6</ele>
        <time>2021-06-01T07:44:18Z</time>
      </trkpt>
      <trkpt lat="45.58285" lon="6.74958">
        <ele>764.6</ele>
        <time>2021-06-01T07:44:19Z</time>
      </trkpt>
      <trkpt lat="45.58277" lon="6.74954">
        <ele>764.4</ele>
        <time>2021-06-01T07:44:20Z</time>
      </trkpt>
      <trkpt lat="45.58269" lon="6.74952">
        <ele>764.2</ele>
        <time>2021-06-01T07:44:21Z</time>
      </trkpt>
      <trkpt lat="45.58262" lon="6.7495">
        <ele>764.4</ele>
        <time>2021-06-01T07:44:22Z</time>
      </trkpt>
      <trkpt lat="45.58254" lon="6.74949">
        <ele>764.2</ele>
        <time>2021-06-01T07:44:23Z</time>
      </trkpt>
      <trkpt lat="45.58247" lon="6.74949">
        <ele>764.2</ele>
        <time>2021-06-01T07:44:24Z</time>
      </trkpt>
      <trkpt lat="45.58239" lon="6.74949">
        <ele>764.2</ele>
        <time>2021-06-01T07:44:25Z</time>
      </trkpt>
      <trkpt lat="45.5823" lon="6.74949">
        <ele>764</ele>
        <time>2021-06-01T07:44:26Z</time>
      </trkpt>
      <trkpt lat="45.58223" lon="6.74946">
        <ele>764.2</ele>
        <time>2021-06-01T07:44:27Z</time>
      </trkpt>
      <trkpt lat="45.58215" lon="6.74943">
        <ele>764</ele>
        <time>2021-06-01T07:44:28Z</time>
      </trkpt>
      <trkpt lat="45.58208" lon="6.7494">
        <ele>763.8</ele>
        <time>2021-06-01T07:44:29Z</time>
      </trkpt>
      <trkpt lat="45.58201" lon="6.74936">
        <ele>763.8</ele>
        <time>2021-06-01T07:44:30Z</time>
      </trkpt>
      <trkpt lat="45.58194" lon="6.74931">
        <ele>763.6</ele>
        <time>2021-06-01T07:44:31Z</time>
      </trkpt>
      <trkpt lat="45.58187" lon="6.74926">
        <ele>763.4</ele>
        <time>2021-06-01T07:44:32Z</time>
      </trkpt>
      <trkpt lat="45.58181" lon="6.74918">
        <ele>763.2</ele>
        <time>2021-06-01T07:44:33Z</time>
      </trkpt>
      <trkpt lat="45.58177" lon="6.74907">
        <ele>763.4</ele>
        <time>2021-06-01T07:44:34Z</time>
      </trkpt>
      <trkpt lat="45.58173" lon="6.74896">
        <ele>763.4</ele>
        <time>2021-06-01T07:44:35Z</time>
      </trkpt>
      <trkpt lat="45.5817" lon="6.74885">
        <ele>763.4</ele>
        <time>2021-06-01T07:44:36Z</time>
      </trkpt>
      <trkpt lat="45.58166" lon="6.74874">
        <ele>763.6</ele>
        <time>2021-06-01T07:44:37Z</time>
      </trkpt>
      <trkpt lat="45.58162" lon="6.74864">
        <ele>763.8</ele>
        <time>2021-06-01T07:44:38Z</time>
      </trkpt>
      <trkpt lat="45.58156" lon="6.74856">
        <ele>764</ele>
        <time>2021-06-01T07:44:39Z</time>
      </trkpt>
      <trkpt lat="45.58149" lon="6.74848">
        <ele>764.2</ele>
        <time>2021-06-01T07:44:40Z</time>
      </trkpt>
      <trkpt lat="45.58142" lon="6.74842">
        <ele>764.6</ele>
        <time>2021-06-01T07:44:41Z</time>
      </trkpt>
      <trkpt lat="45.58135" lon="6.74836">
        <ele>764.8</ele>
        <time>2021-06-01T07:44:42Z</time>
      </trkpt>
      <trkpt lat="45.58127" lon="6.74832">
        <ele>765</ele>
        <time>2021-06-01T07:44:43Z</time>
      </trkpt>
      <trkpt lat="45.5812" lon="6.74828">
        <ele>765</ele>
        <time>2021-06-01T07:44:44Z</time>
      </trkpt>
      <trkpt lat="45.58112" lon="6.74825">
        <ele>764.8</ele>
        <time>2021-06-01T07:44:45Z</time>
      </trkpt>
      <trkpt lat="45.58104" lon="6.74822">
        <ele>764.4</ele>
        <time>2021-06-01T07:44:46Z</time>
      </trkpt>
      <trkpt lat="45.58097" lon="6.74817">
        <ele>764.2</ele>
        <time>2021-06-01T07:44:47Z</time>
      </trkpt>
      <trkpt lat="45.5809" lon="6.74811">
        <ele>764.2</ele>
        <time>2021-06-01T07:44:48Z</time>
      </trkpt>
      <trkpt lat="45.58084" lon="6.74803">
        <ele>764.2</ele>
        <time>2021-06-01T07:44:49Z</time>
      </trkpt>
      <trkpt lat="45.58079" lon="6.74794">
        <ele>764</ele>
        <time>2021-06-01T07:44:50Z</time>
      </trkpt>
      <trkpt lat="45.58073" lon="6.74785">
        <ele>763.8</ele>
        <time>2021-06-01T07:44:51Z</time>
      </trkpt>
      <trkpt lat="45.58069" lon="6.74775">
        <ele>763.8</ele>
        <time>2021-06-01T07:44:52Z</time>
      </trkpt>
      <trkpt lat="45.58064" lon="6.74764">
        <ele>763.8</ele>
        <time>2021-06-01T07:44:53Z</time>
      </trkpt>
      <trkpt lat="45.58059" lon="6.74755">
        <ele>763.8</ele>
        <time>2021-06-01T07:44:54Z</time>
      </trkpt>
      <trkpt lat="45.58055" lon="6.74745">
        <ele>763.6</ele>
        <time>2021-06-01T07:44:55Z</time>
      </trkpt>
      <trkpt lat="45.5805" lon="6.74735">
        <ele>763.4</ele>
        <time>2021-06-01T07:44:56Z</time>
      </trkpt>
      <trkpt lat="45.58045" lon="6.74726">
        <ele>763.6</ele>
        <time>2021-06-01T07:44:57Z</time>
      </trkpt>
      <trkpt lat="45.5804" lon="6.74716">
        <ele>763.2</ele>
        <time>2021-06-01T07:44:58Z</time>
      </trkpt>
      <trkpt lat="45.58036" lon="6.74706">
        <ele>763</ele>
        <time>2021-06-01T07:44:59Z</time>
      </trkpt>
      <trkpt lat="45.58031" lon="6.74696">
        <ele>762.8</ele>
        <time>2021-06-01T07:45:00Z</time>
      </trkpt>
      <trkpt lat="45.58027" lon="6.74686">
        <ele>762.8</ele>
        <time>2021-06-01T07:45:01Z</time>
      </trkpt>
      <trkpt lat="45.58021" lon="6.74676">
        <ele>762.6</ele>
        <time>2021-06-01T07:45:02Z</time>
      </trkpt>
      <trkpt lat="45.58017" lon="6.74666">
        <ele>762.6</ele>
        <time>2021-06-01T07:45:03Z</time>
      </trkpt>
      <trkpt lat="45.58012" lon="6.74657">
        <ele>762.6</ele>
        <time>2021-06-01T07:45:04Z</time>
      </trkpt>
      <trkpt lat="45.58007" lon="6.74648">
        <ele>762.8</ele>
        <time>2021-06-01T07:45:05Z</time>
      </trkpt>
      <trkpt lat="45.58003" lon="6.74638">
        <ele>762.8</ele>
        <time>2021-06-01T07:45:06Z</time>
      </trkpt>
      <trkpt lat="45.57998" lon="6.74629">
        <ele>762.8</ele>
        <time>2021-06-01T07:45:07Z</time>
      </trkpt>
      <trkpt lat="45.57993" lon="6.7462">
        <ele>762.6</ele>
        <time>2021-06-01T07:45:08Z</time>
      </trkpt>
      <trkpt lat="45.57988" lon="6.74611">
        <ele>762.8</ele>
        <time>2021-06-01T07:45:09Z</time>
      </trkpt>
      <trkpt lat="45.57983" lon="6.74602">
        <ele>762.6</ele>
        <time>2021-06-01T07:45:10Z</time>
      </trkpt>
      <trkpt lat="45.57977" lon="6.74594">
        <ele>762.6</ele>
        <time>2021-06-01T07:45:11Z</time>
      </trkpt>
      <trkpt lat="45.57971" lon="6.74587">
        <ele>762.6</ele>
        <time>2021-06-01T07:45:12Z</time>
      </trkpt>
      <trkpt lat="45.57965" lon="6.74579">
        <ele>762.4</ele>
        <time>2021-06-01T07:45:13Z</time>
      </trkpt>
      <trkpt lat="45.5796" lon="6.74572">
        <ele>762.4</ele>
        <time>2021-06-01T07:45:14Z</time>
      </trkpt>
      <trkpt lat="45.57954" lon="6.74565">
        <ele>762.4</ele>
        <time>2021-06-01T07:45:15Z</time>
      </trkpt>
      <trkpt lat="45.57948" lon="6.74558">
        <ele>762.2</ele>
        <time>2021-06-01T07:45:16Z</time>
      </trkpt>
      <trkpt lat="45.57943" lon="6.7455">
        <ele>762.2</ele>
        <time>2021-06-01T07:45:17Z</time>
      </trkpt>
      <trkpt lat="45.57937" lon="6.74543">
        <ele>762.2</ele>
        <time>2021-06-01T07:45:18Z</time>
      </trkpt>
      <trkpt lat="45.57932" lon="6.74534">
        <ele>762.2</ele>
        <time>2021-06-01T07:45:19Z</time>
      </trkpt>
      <trkpt lat="45.57927" lon="6.74526">
        <ele>762.2</ele>
        <time>2021-06-01T07:45:20Z</time>
      </trkpt>
      <trkpt lat="45.57922" lon="6.74518">
        <ele>762.2</ele>
        <time>2021-06-01T07:45:21Z</time>
      </trkpt>
      <trkpt lat="45.57918" lon="6.74509">
        <ele>762.2</ele>
        <time>2021-06-01T07:45:22Z</time>
      </trkpt>
      <trkpt lat="45.57914" lon="6.745">
        <ele>762.4</ele>
        <time>2021-06-01T07:45:23Z</time>
      </trkpt>
      <trkpt lat="45.57909" lon="6.74491">
        <ele>762.4</ele>
        <time>2021-06-01T07:45:24Z</time>
      </trkpt>
      <trkpt lat="45.57904" lon="6.74482">
        <ele>762.4</ele>
        <time>2021-06-01T07:45:25Z</time>
      </trkpt>
      <trkpt lat="45.579" lon="6.74474">
        <ele>762.2</ele>
        <time>2021-06-01T07:45:26Z</time>
      </trkpt>
      <trkpt lat="45.57896" lon="6.74465">
        <ele>761.2</ele>
        <time>2021-06-01T07:45:27Z</time>
      </trkpt>
      <trkpt lat="45.57891" lon="6.74456">
        <ele>760.2</ele>
        <time>2021-06-01T07:45:28Z</time>
      </trkpt>
      <trkpt lat="45.57886" lon="6.74448">
        <ele>759.6</ele>
        <time>2021-06-01T07:45:29Z</time>
      </trkpt>
      <trkpt lat="45.57882" lon="6.7444">
        <ele>759.6</ele>
        <time>2021-06-01T07:45:30Z</time>
      </trkpt>
      <trkpt lat="45.57876" lon="6.74432">
        <ele>759.2</ele>
        <time>2021-06-01T07:45:31Z</time>
      </trkpt>
      <trkpt lat="45.57872" lon="6.74424">
        <ele>759</ele>
        <time>2021-06-01T07:45:32Z</time>
      </trkpt>
      <trkpt lat="45.57868" lon="6.74417">
        <ele>759</ele>
        <time>2021-06-01T07:45:33Z</time>
      </trkpt>
      <trkpt lat="45.57862" lon="6.7441">
        <ele>758.8</ele>
        <time>2021-06-01T07:45:34Z</time>
      </trkpt>
      <trkpt lat="45.57857" lon="6.74404">
        <ele>758.8</ele>
        <time>2021-06-01T07:45:35Z</time>
      </trkpt>
      <trkpt lat="45.57851" lon="6.74398">
        <ele>759</ele>
        <time>2021-06-01T07:45:36Z</time>
      </trkpt>
      <trkpt lat="45.57845" lon="6.74392">
        <ele>759.2</ele>
        <time>2021-06-01T07:45:37Z</time>
      </trkpt>
      <trkpt lat="45.57839" lon="6.74387">
        <ele>759.2</ele>
        <time>2021-06-01T07:45:38Z</time>
      </trkpt>
      <trkpt lat="45.57832" lon="6.74383">
        <ele>759.4</ele>
        <time>2021-06-01T07:45:39Z</time>
      </trkpt>
      <trkpt lat="45.57825" lon="6.7438">
        <ele>759.6</ele>
        <time>2021-06-01T07:45:40Z</time>
      </trkpt>
      <trkpt lat="45.57818" lon="6.74378">
        <ele>759.6</ele>
        <time>2021-06-01T07:45:41Z</time>
      </trkpt>
      <trkpt lat="45.5781" lon="6.74376">
        <ele>759.8</ele>
        <time>2021-06-01T07:45:42Z</time>
      </trkpt>
      <trkpt lat="45.57803" lon="6.74374">
        <ele>760.2</ele>
        <time>2021-06-01T07:45:43Z</time>
      </trkpt>
      <trkpt lat="45.57796" lon="6.74372">
        <ele>760.4</ele>
        <time>2021-06-01T07:45:44Z</time>
      </trkpt>
      <trkpt lat="45.5779" lon="6.7437">
        <ele>760.6</ele>
        <time>2021-06-01T07:45:45Z</time>
      </trkpt>
      <trkpt lat="45.57782" lon="6.74369">
        <ele>760.8</ele>
        <time>2021-06-01T07:45:46Z</time>
      </trkpt>
      <trkpt lat="45.57775" lon="6.74367">
        <ele>761.4</ele>
        <time>2021-06-01T07:45:47Z</time>
      </trkpt>
      <trkpt lat="45.57769" lon="6.74366">
        <ele>761.4</ele>
        <time>2021-06-01T07:45:48Z</time>
      </trkpt>
      <trkpt lat="45.57761" lon="6.74365">
        <ele>761.8</ele>
        <time>2021-06-01T07:45:49Z</time>
      </trkpt>
      <trkpt lat="45.57755" lon="6.74364">
        <ele>762.2</ele>
        <time>2021-06-01T07:45:50Z</time>
      </trkpt>
      <trkpt lat="45.57747" lon="6.74364">
        <ele>762.4</ele>
        <time>2021-06-01T07:45:51Z</time>
      </trkpt>
      <trkpt lat="45.57741" lon="6.74364">
        <ele>762.4</ele>
        <time>2021-06-01T07:45:52Z</time>
      </trkpt>
      <trkpt lat="45.57733" lon="6.74366">
        <ele>762.4</ele>
        <time>2021-06-01T07:45:53Z</time>
      </trkpt>
      <trkpt lat="45.57726" lon="6.74368">
        <ele>762.8</ele>
        <time>2021-06-01T07:45:54Z</time>
      </trkpt>
      <trkpt lat="45.57719" lon="6.7437">
        <ele>762.4</ele>
        <time>2021-06-01T07:45:55Z</time>
      </trkpt>
      <trkpt lat="45.57713" lon="6.74373">
        <ele>762.2</ele>
        <time>2021-06-01T07:45:56Z</time>
      </trkpt>
      <trkpt lat="45.57706" lon="6.74378">
        <ele>762.2</ele>
        <time>2021-06-01T07:45:57Z</time>
      </trkpt>
      <trkpt lat="45.57701" lon="6.74381">
        <ele>762.2</ele>
        <time>2021-06-01T07:45:58Z</time>
      </trkpt>
      <trkpt lat="45.57695" lon="6.74386">
        <ele>762.4</ele>
        <time>2021-06-01T07:45:59Z</time>
      </trkpt>
      <trkpt lat="45.5769" lon="6.74392">
        <ele>762.4</ele>
        <time>2021-06-01T07:46:00Z</time>
      </trkpt>
      <trkpt lat="45.57684" lon="6.74398">
        <ele>762.6</ele>
        <time>2021-06-01T07:46:01Z</time>
      </trkpt>
      <trkpt lat="45.57679" lon="6.74404">
        <ele>762.4</ele>
        <time>2021-06-01T07:46:02Z</time>
      </trkpt>
      <trkpt lat="45.57673" lon="6.7441">
        <ele>762.6</ele>
        <time>2021-06-01T07:46:03Z</time>
      </trkpt>
      <trkpt lat="45.57668" lon="6.74416">
        <ele>762.8</ele>
        <time>2021-06-01T07:46:04Z</time>
      </trkpt>
      <trkpt lat="45.57662" lon="6.74422">
        <ele>762.8</ele>
        <time>2021-06-01T07:46:05Z</time>
      </trkpt>
      <trkpt lat="45.57656" lon="6.74428">
        <ele>763</ele>
        <time>2021-06-01T07:46:06Z</time>
      </trkpt>
      <trkpt lat="45.57649" lon="6.74435">
        <ele>763.2</ele>
        <time>2021-06-01T07:46:07Z</time>
      </trkpt>
      <trkpt lat="45.57643" lon="6.7444">
        <ele>763.4</ele>
        <time>2021-06-01T07:46:08Z</time>
      </trkpt>
      <trkpt lat="45.57636" lon="6.74445">
        <ele>763.4</ele>
        <time>2021-06-01T07:46:09Z</time>
      </trkpt>
      <trkpt lat="45.5763" lon="6.74449">
        <ele>763.6</ele>
        <time>2021-06-01T07:46:10Z</time>
      </trkpt>
      <trkpt lat="45.57622" lon="6.74453">
        <ele>763.6</ele>
        <time>2021-06-01T07:46:11Z</time>
      </trkpt>
      <trkpt lat="45.57616" lon="6.74456">
        <ele>764.6</ele>
        <time>2021-06-01T07:46:12Z</time>
      </trkpt>
      <trkpt lat="45.57608" lon="6.74458">
        <ele>765.4</ele>
        <time>2021-06-01T07:46:13Z</time>
      </trkpt>
      <trkpt lat="45.57601" lon="6.7446">
        <ele>766</ele>
        <time>2021-06-01T07:46:14Z</time>
      </trkpt>
      <trkpt lat="45.57594" lon="6.74461">
        <ele>766.6</ele>
        <time>2021-06-01T07:46:15Z</time>
      </trkpt>
      <trkpt lat="45.57587" lon="6.74461">
        <ele>767</ele>
        <time>2021-06-01T07:46:16Z</time>
      </trkpt>
      <trkpt lat="45.57579" lon="6.7446">
        <ele>767.4</ele>
        <time>2021-06-01T07:46:17Z</time>
      </trkpt>
      <trkpt lat="45.57572" lon="6.74459">
        <ele>767.8</ele>
        <time>2021-06-01T07:46:18Z</time>
      </trkpt>
      <trkpt lat="45.57564" lon="6.74458">
        <ele>767.8</ele>
        <time>2021-06-01T07:46:19Z</time>
      </trkpt>
      <trkpt lat="45.57557" lon="6.74455">
        <ele>768</ele>
        <time>2021-06-01T07:46:20Z</time>
      </trkpt>
      <trkpt lat="45.5755" lon="6.74451">
        <ele>767.8</ele>
        <time>2021-06-01T07:46:21Z</time>
      </trkpt>
      <trkpt lat="45.57544" lon="6.74447">
        <ele>768</ele>
        <time>2021-06-01T07:46:22Z</time>
      </trkpt>
      <trkpt lat="45.57537" lon="6.74443">
        <ele>768</ele>
        <time>2021-06-01T07:46:23Z</time>
      </trkpt>
      <trkpt lat="45.5753" lon="6.74438">
        <ele>768.2</ele>
        <time>2021-06-01T07:46:24Z</time>
      </trkpt>
      <trkpt lat="45.57523" lon="6.74434">
        <ele>768.2</ele>
        <time>2021-06-01T07:46:25Z</time>
      </trkpt>
      <trkpt lat="45.57517" lon="6.74429">
        <ele>768.2</ele>
        <time>2021-06-01T07:46:26Z</time>
      </trkpt>
      <trkpt lat="45.5751" lon="6.74424">
        <ele>768.2</ele>
        <time>2021-06-01T07:46:27Z</time>
      </trkpt>
      <trkpt lat="45.57503" lon="6.7442">
        <ele>768.2</ele>
        <time>2021-06-01T07:46:28Z</time>
      </trkpt>
      <trkpt lat="45.57497" lon="6.74415">
        <ele>768.2</ele>
        <time>2021-06-01T07:46:29Z</time>
      </trkpt>
      <trkpt lat="45.57491" lon="6.7441">
        <ele>768.6</ele>
        <time>2021-06-01T07:46:30Z</time>
      </trkpt>
      <trkpt lat="45.57484" lon="6.74405">
        <ele>768.6</ele>
        <time>2021-06-01T07:46:31Z</time>
      </trkpt>
      <trkpt lat="45.57478" lon="6.744">
        <ele>768.6</ele>
        <time>2021-06-01T07:46:32Z</time>
      </trkpt>
      <trkpt lat="45.57472" lon="6.74394">
        <ele>768.8</ele>
        <time>2021-06-01T07:46:33Z</time>
      </trkpt>
      <trkpt lat="45.57466" lon="6.74388">
        <ele>768.8</ele>
        <time>2021-06-01T07:46:34Z</time>
      </trkpt>
      <trkpt lat="45.5746" lon="6.7438">
        <ele>768.8</ele>
        <time>2021-06-01T07:46:35Z</time>
      </trkpt>
      <trkpt lat="45.57455" lon="6.74373">
        <ele>769</ele>
        <time>2021-06-01T07:46:36Z</time>
      </trkpt>
      <trkpt lat="45.5745" lon="6.74365">
        <ele>769.2</ele>
        <time>2021-06-01T07:46:37Z</time>
      </trkpt>
      <trkpt lat="45.57445" lon="6.74358">
        <ele>769.4</ele>
        <time>2021-06-01T07:46:38Z</time>
      </trkpt>
      <trkpt lat="45.57441" lon="6.7435">
        <ele>769.4</ele>
        <time>2021-06-01T07:46:39Z</time>
      </trkpt>
      <trkpt lat="45.57436" lon="6.74342">
        <ele>769.4</ele>
        <time>2021-06-01T07:46:40Z</time>
      </trkpt>
      <trkpt lat="45.57431" lon="6.74334">
        <ele>769.4</ele>
        <time>2021-06-01T07:46:41Z</time>
      </trkpt>
      <trkpt lat="45.57427" lon="6.74326">
        <ele>769.4</ele>
        <time>2021-06-01T07:46:42Z</time>
      </trkpt>
      <trkpt lat="45.57421" lon="6.74318">
        <ele>769.2</ele>
        <time>2021-06-01T07:46:43Z</time>
      </trkpt>
      <trkpt lat="45.57417" lon="6.7431">
        <ele>769.2</ele>
        <time>2021-06-01T07:46:44Z</time>
      </trkpt>
      <trkpt lat="45.57412" lon="6.74302">
        <ele>769.2</ele>
        <time>2021-06-01T07:46:45Z</time>
      </trkpt>
      <trkpt lat="45.57407" lon="6.74294">
        <ele>769.2</ele>
        <time>2021-06-01T07:46:46Z</time>
      </trkpt>
      <trkpt lat="45.57403" lon="6.74286">
        <ele>769</ele>
        <time>2021-06-01T07:46:47Z</time>
      </trkpt>
      <trkpt lat="45.57399" lon="6.74278">
        <ele>768.8</ele>
        <time>2021-06-01T07:46:48Z</time>
      </trkpt>
      <trkpt lat="45.57394" lon="6.7427">
        <ele>768.8</ele>
        <time>2021-06-01T07:46:49Z</time>
      </trkpt>
      <trkpt lat="45.57389" lon="6.74263">
        <ele>769</ele>
        <time>2021-06-01T07:46:50Z</time>
      </trkpt>
      <trkpt lat="45.57384" lon="6.74257">
        <ele>769</ele>
        <time>2021-06-01T07:46:51Z</time>
      </trkpt>
      <trkpt lat="45.57378" lon="6.74251">
        <ele>769.4</ele>
        <time>2021-06-01T07:46:52Z</time>
      </trkpt>
      <trkpt lat="45.57372" lon="6.74246">
        <ele>769.6</ele>
        <time>2021-06-01T07:46:53Z</time>
      </trkpt>
      <trkpt lat="45.57365" lon="6.74242">
        <ele>769.6</ele>
        <time>2021-06-01T07:46:54Z</time>
      </trkpt>
      <trkpt lat="45.57358" lon="6.74238">
        <ele>769.8</ele>
        <time>2021-06-01T07:46:55Z</time>
      </trkpt>
      <trkpt lat="45.5735" lon="6.74235">
        <ele>769.8</ele>
        <time>2021-06-01T07:46:56Z</time>
      </trkpt>
      <trkpt lat="45.57343" lon="6.74232">
        <ele>769.8</ele>
        <time>2021-06-01T07:46:57Z</time>
      </trkpt>
      <trkpt lat="45.57336" lon="6.74229">
        <ele>769.6</ele>
        <time>2021-06-01T07:46:58Z</time>
      </trkpt>
      <trkpt lat="45.5733" lon="6.74226">
        <ele>769.8</ele>
        <time>2021-06-01T07:46:59Z</time>
      </trkpt>
      <trkpt lat="45.57324" lon="6.74221">
        <ele>770</ele>
        <time>2021-06-01T07:47:00Z</time>
      </trkpt>
      <trkpt lat="45.57316" lon="6.74217">
        <ele>770</ele>
        <time>2021-06-01T07:47:01Z</time>
      </trkpt>
      <trkpt lat="45.5731" lon="6.74212">
        <ele>770</ele>
        <time>2021-06-01T07:47:02Z</time>
      </trkpt>
      <trkpt lat="45.57304" lon="6.74208">
        <ele>769.8</ele>
        <time>2021-06-01T07:47:03Z</time>
      </trkpt>
      <trkpt lat="45.57298" lon="6.74202">
        <ele>770</ele>
        <time>2021-06-01T07:47:04Z</time>
      </trkpt>
      <trkpt lat="45.57292" lon="6.74196">
        <ele>769.8</ele>
        <time>2021-06-01T07:47:05Z</time>
      </trkpt>
      <trkpt lat="45.57287" lon="6.7419">
        <ele>770</ele>
        <time>2021-06-01T07:47:06Z</time>
      </trkpt>
      <trkpt lat="45.57282" lon="6.74182">
        <ele>770</ele>
        <time>2021-06-01T07:47:07Z</time>
      </trkpt>
      <trkpt lat="45.57276" lon="6.74176">
        <ele>770</ele>
        <time>2021-06-01T07:47:08Z</time>
      </trkpt>
      <trkpt lat="45.57271" lon="6.74169">
        <ele>770.2</ele>
        <time>2021-06-01T07:47:09Z</time>
      </trkpt>
      <trkpt lat="45.57266" lon="6.74162">
        <ele>770.4</ele>
        <time>2021-06-01T07:47:10Z</time>
      </trkpt>
      <trkpt lat="45.5726" lon="6.74155">
        <ele>770.4</ele>
        <time>2021-06-01T07:47:11Z</time>
      </trkpt>
      <trkpt lat="45.57256" lon="6.74149">
        <ele>770.4</ele>
        <time>2021-06-01T07:47:12Z</time>
      </trkpt>
      <trkpt lat="45.5725" lon="6.74141">
        <ele>770.4</ele>
        <time>2021-06-01T07:47:13Z</time>
      </trkpt>
      <trkpt lat="45.57244" lon="6.74134">
        <ele>770.6</ele>
        <time>2021-06-01T07:47:14Z</time>
      </trkpt>
      <trkpt lat="45.57239" lon="6.74126">
        <ele>770.8</ele>
        <time>2021-06-01T07:47:15Z</time>
      </trkpt>
      <trkpt lat="45.57234" lon="6.74119">
        <ele>770.8</ele>
        <time>2021-06-01T07:47:16Z</time>
      </trkpt>
      <trkpt lat="45.5723" lon="6.74111">
        <ele>771</ele>
        <time>2021-06-01T07:47:17Z</time>
      </trkpt>
      <trkpt lat="45.57224" lon="6.74103">
        <ele>771.4</ele>
        <time>2021-06-01T07:47:18Z</time>
      </trkpt>
      <trkpt lat="45.57219" lon="6.74096">
        <ele>771.6</ele>
        <time>2021-06-01T07:47:19Z</time>
      </trkpt>
      <trkpt lat="45.57214" lon="6.74089">
        <ele>771.6</ele>
        <time>2021-06-01T07:47:20Z</time>
      </trkpt>
      <trkpt lat="45.57209" lon="6.74082">
        <ele>771.8</ele>
        <time>2021-06-01T07:47:21Z</time>
      </trkpt>
      <trkpt lat="45.57204" lon="6.74075">
        <ele>771.8</ele>
        <time>2021-06-01T07:47:22Z</time>
      </trkpt>
      <trkpt lat="45.57199" lon="6.74068">
        <ele>772</ele>
        <time>2021-06-01T07:47:23Z</time>
      </trkpt>
      <trkpt lat="45.57194" lon="6.7406">
        <ele>772.4</ele>
        <time>2021-06-01T07:47:24Z</time>
      </trkpt>
      <trkpt lat="45.57189" lon="6.74053">
        <ele>772.6</ele>
        <time>2021-06-01T07:47:25Z</time>
      </trkpt>
      <trkpt lat="45.57184" lon="6.74046">
        <ele>773</ele>
        <time>2021-06-01T07:47:26Z</time>
      </trkpt>
      <trkpt lat="45.57179" lon="6.74039">
        <ele>773.2</ele>
        <time>2021-06-01T07:47:27Z</time>
      </trkpt>
      <trkpt lat="45.57175" lon="6.74032">
        <ele>773</ele>
        <time>2021-06-01T07:47:28Z</time>
      </trkpt>
      <trkpt lat="45.5717" lon="6.74025">
        <ele>773.2</ele>
        <time>2021-06-01T07:47:29Z</time>
      </trkpt>
      <trkpt lat="45.57165" lon="6.74018">
        <ele>773</ele>
        <time>2021-06-01T07:47:30Z</time>
      </trkpt>
      <trkpt lat="45.5716" lon="6.74012">
        <ele>772.8</ele>
        <time>2021-06-01T07:47:31Z</time>
      </trkpt>
      <trkpt lat="45.57156" lon="6.74004">
        <ele>773</ele>
        <time>2021-06-01T07:47:32Z</time>
      </trkpt>
      <trkpt lat="45.57153" lon="6.73996">
        <ele>772.8</ele>
        <time>2021-06-01T07:47:33Z</time>
      </trkpt>
      <trkpt lat="45.57149" lon="6.73988">
        <ele>772.6</ele>
        <time>2021-06-01T07:47:34Z</time>
      </trkpt>
      <trkpt lat="45.57147" lon="6.7398">
        <ele>772.4</ele>
        <time>2021-06-01T07:47:35Z</time>
      </trkpt>
      <trkpt lat="45.57143" lon="6.7397">
        <ele>772.2</ele>
        <time>2021-06-01T07:47:36Z</time>
      </trkpt>
      <trkpt lat="45.57138" lon="6.73961">
        <ele>772.2</ele>
        <time>2021-06-01T07:47:37Z</time>
      </trkpt>
      <trkpt lat="45.57134" lon="6.73952">
        <ele>772</ele>
        <time>2021-06-01T07:47:38Z</time>
      </trkpt>
      <trkpt lat="45.5713" lon="6.73942">
        <ele>771.8</ele>
        <time>2021-06-01T07:47:39Z</time>
      </trkpt>
      <trkpt lat="45.57125" lon="6.73932">
        <ele>771.6</ele>
        <time>2021-06-01T07:47:40Z</time>
      </trkpt>
      <trkpt lat="45.57121" lon="6.73923">
        <ele>771.4</ele>
        <time>2021-06-01T07:47:41Z</time>
      </trkpt>
      <trkpt lat="45.57117" lon="6.73914">
        <ele>771</ele>
        <time>2021-06-01T07:47:42Z</time>
      </trkpt>
      <trkpt lat="45.57113" lon="6.73906">
        <ele>770.6</ele>
        <time>2021-06-01T07:47:43Z</time>
      </trkpt>
      <trkpt lat="45.57109" lon="6.73898">
        <ele>770.4</ele>
        <time>2021-06-01T07:47:44Z</time>
      </trkpt>
      <trkpt lat="45.57106" lon="6.73891">
        <ele>770</ele>
        <time>2021-06-01T07:47:45Z</time>
      </trkpt>
      <trkpt lat="45.57103" lon="6.73884">
        <ele>769.6</ele>
        <time>2021-06-01T07:47:46Z</time>
      </trkpt>
      <trkpt lat="45.57102" lon="6.73877">
        <ele>769.4</ele>
        <time>2021-06-01T07:47:47Z</time>
      </trkpt>
      <trkpt lat="45.57102" lon="6.73869">
        <ele>769</ele>
        <time>2021-06-01T07:47:48Z</time>
      </trkpt>
      <trkpt lat="45.57101" lon="6.7386">
        <ele>769</ele>
        <time>2021-06-01T07:47:49Z</time>
      </trkpt>
      <trkpt lat="45.57099" lon="6.73852">
        <ele>769</ele>
        <time>2021-06-01T07:47:50Z</time>
      </trkpt>
      <trkpt lat="45.57097" lon="6.73843">
        <ele>769.2</ele>
        <time>2021-06-01T07:47:51Z</time>
      </trkpt>
      <trkpt lat="45.57095" lon="6.73834">
        <ele>768.8</ele>
        <time>2021-06-01T07:47:52Z</time>
      </trkpt>
      <trkpt lat="45.57093" lon="6.73826">
        <ele>768.8</ele>
        <time>2021-06-01T07:47:53Z</time>
      </trkpt>
      <trkpt lat="45.5709" lon="6.73818">
        <ele>768.6</ele>
        <time>2021-06-01T07:47:54Z</time>
      </trkpt>
      <trkpt lat="45.57088" lon="6.73809">
        <ele>768.2</ele>
        <time>2021-06-01T07:47:55Z</time>
      </trkpt>
      <trkpt lat="45.57085" lon="6.738">
        <ele>768.4</ele>
        <time>2021-06-01T07:47:56Z</time>
      </trkpt>
      <trkpt lat="45.57081" lon="6.73792">
        <ele>769</ele>
        <time>2021-06-01T07:47:57Z</time>
      </trkpt>
      <trkpt lat="45.57078" lon="6.73783">
        <ele>769.2</ele>
        <time>2021-06-01T07:47:58Z</time>
      </trkpt>
      <trkpt lat="45.57074" lon="6.73774">
        <ele>769.2</ele>
        <time>2021-06-01T07:47:59Z</time>
      </trkpt>
      <trkpt lat="45.57071" lon="6.73764">
        <ele>769</ele>
        <time>2021-06-01T07:48:00Z</time>
      </trkpt>
      <trkpt lat="45.57068" lon="6.73755">
        <ele>769</ele>
        <time>2021-06-01T07:48:01Z</time>
      </trkpt>
      <trkpt lat="45.57064" lon="6.73746">
        <ele>769</ele>
        <time>2021-06-01T07:48:02Z</time>
      </trkpt>
      <trkpt lat="45.57061" lon="6.73736">
        <ele>768.8</ele>
        <time>2021-06-01T07:48:03Z</time>
      </trkpt>
      <trkpt lat="45.57057" lon="6.73726">
        <ele>767.8</ele>
        <time>2021-06-01T07:48:04Z</time>
      </trkpt>
      <trkpt lat="45.57054" lon="6.73716">
        <ele>767.6</ele>
        <time>2021-06-01T07:48:05Z</time>
      </trkpt>
      <trkpt lat="45.5705" lon="6.73706">
        <ele>767.4</ele>
        <time>2021-06-01T07:48:06Z</time>
      </trkpt>
      <trkpt lat="45.57046" lon="6.73695">
        <ele>767.2</ele>
        <time>2021-06-01T07:48:07Z</time>
      </trkpt>
      <trkpt lat="45.57042" lon="6.73684">
        <ele>767.2</ele>
        <time>2021-06-01T07:48:08Z</time>
      </trkpt>
      <trkpt lat="45.57038" lon="6.73672">
        <ele>767.2</ele>
        <time>2021-06-01T07:48:09Z</time>
      </trkpt>
      <trkpt lat="45.57035" lon="6.7366">
        <ele>767</ele>
        <time>2021-06-01T07:48:10Z</time>
      </trkpt>
      <trkpt lat="45.57031" lon="6.73649">
        <ele>766.6</ele>
        <time>2021-06-01T07:48:11Z</time>
      </trkpt>
      <trkpt lat="45.57028" lon="6.73637">
        <ele>766.8</ele>
        <time>2021-06-01T07:48:12Z</time>
      </trkpt>
      <trkpt lat="45.57023" lon="6.73625">
        <ele>766.4</ele>
        <time>2021-06-01T07:48:13Z</time>
      </trkpt>
      <trkpt lat="45.57019" lon="6.73613">
        <ele>765.6</ele>
        <time>2021-06-01T07:48:14Z</time>
      </trkpt>
      <trkpt lat="45.57015" lon="6.73601">
        <ele>765.2</ele>
        <time>2021-06-01T07:48:15Z</time>
      </trkpt>
      <trkpt lat="45.57011" lon="6.73589">
        <ele>764.8</ele>
        <time>2021-06-01T07:48:16Z</time>
      </trkpt>
      <trkpt lat="45.57006" lon="6.73576">
        <ele>763.8</ele>
        <time>2021-06-01T07:48:17Z</time>
      </trkpt>
      <trkpt lat="45.57002" lon="6.73564">
        <ele>763</ele>
        <time>2021-06-01T07:48:18Z</time>
      </trkpt>
      <trkpt lat="45.56997" lon="6.73551">
        <ele>762.4</ele>
        <time>2021-06-01T07:48:19Z</time>
      </trkpt>
      <trkpt lat="45.56992" lon="6.73538">
        <ele>761.8</ele>
        <time>2021-06-01T07:48:20Z</time>
      </trkpt>
      <trkpt lat="45.56988" lon="6.73524">
        <ele>761.4</ele>
        <time>2021-06-01T07:48:21Z</time>
      </trkpt>
      <trkpt lat="45.56983" lon="6.73511">
        <ele>760</ele>
        <time>2021-06-01T07:48:22Z</time>
      </trkpt>
      <trkpt lat="45.56978" lon="6.73497">
        <ele>759.8</ele>
        <time>2021-06-01T07:48:23Z</time>
      </trkpt>
      <trkpt lat="45.56972" lon="6.73483">
        <ele>759</ele>
        <time>2021-06-01T07:48:24Z</time>
      </trkpt>
      <trkpt lat="45.56967" lon="6.7347">
        <ele>757.8</ele>
        <time>2021-06-01T07:48:25Z</time>
      </trkpt>
      <trkpt lat="45.56962" lon="6.73456">
        <ele>757.8</ele>
        <time>2021-06-01T07:48:26Z</time>
      </trkpt>
      <trkpt lat="45.56957" lon="6.73443">
        <ele>757.6</ele>
        <time>2021-06-01T07:48:27Z</time>
      </trkpt>
      <trkpt lat="45.56953" lon="6.73429">
        <ele>757.2</ele>
        <time>2021-06-01T07:48:28Z</time>
      </trkpt>
      <trkpt lat="45.56948" lon="6.73415">
        <ele>756.8</ele>
        <time>2021-06-01T07:48:29Z</time>
      </trkpt>
      <trkpt lat="45.56944" lon="6.73402">
        <ele>756.4</ele>
        <time>2021-06-01T07:48:30Z</time>
      </trkpt>
      <trkpt lat="45.5694" lon="6.73387">
        <ele>756</ele>
        <time>2021-06-01T07:48:31Z</time>
      </trkpt>
      <trkpt lat="45.56937" lon="6.73373">
        <ele>755.6</ele>
        <time>2021-06-01T07:48:32Z</time>
      </trkpt>
      <trkpt lat="45.56933" lon="6.73358">
        <ele>755</ele>
        <time>2021-06-01T07:48:33Z</time>
      </trkpt>
      <trkpt lat="45.56931" lon="6.73343">
        <ele>754.6</ele>
        <time>2021-06-01T07:48:34Z</time>
      </trkpt>
      <trkpt lat="45.56929" lon="6.73327">
        <ele>754.2</ele>
        <time>2021-06-01T07:48:35Z</time>
      </trkpt>
      <trkpt lat="45.56926" lon="6.73312">
        <ele>754.2</ele>
        <time>2021-06-01T07:48:36Z</time>
      </trkpt>
      <trkpt lat="45.56924" lon="6.73296">
        <ele>753.8</ele>
        <time>2021-06-01T07:48:37Z</time>
      </trkpt>
      <trkpt lat="45.56922" lon="6.7328">
        <ele>753.2</ele>
        <time>2021-06-01T07:48:38Z</time>
      </trkpt>
      <trkpt lat="45.5692" lon="6.73264">
        <ele>752.6</ele>
        <time>2021-06-01T07:48:39Z</time>
      </trkpt>
      <trkpt lat="45.56918" lon="6.73248">
        <ele>752.2</ele>
        <time>2021-06-01T07:48:40Z</time>
      </trkpt>
      <trkpt lat="45.56916" lon="6.73232">
        <ele>751.6</ele>
        <time>2021-06-01T07:48:41Z</time>
      </trkpt>
      <trkpt lat="45.56914" lon="6.73216">
        <ele>750.4</ele>
        <time>2021-06-01T07:48:42Z</time>
      </trkpt>
      <trkpt lat="45.56912" lon="6.732">
        <ele>750.2</ele>
        <time>2021-06-01T07:48:43Z</time>
      </trkpt>
      <trkpt lat="45.5691" lon="6.73184">
        <ele>749.8</ele>
        <time>2021-06-01T07:48:44Z</time>
      </trkpt>
      <trkpt lat="45.56908" lon="6.73168">
        <ele>749</ele>
        <time>2021-06-01T07:48:45Z</time>
      </trkpt>
      <trkpt lat="45.56906" lon="6.73151">
        <ele>748.2</ele>
        <time>2021-06-01T07:48:46Z</time>
      </trkpt>
      <trkpt lat="45.56904" lon="6.73134">
        <ele>748</ele>
        <time>2021-06-01T07:48:47Z</time>
      </trkpt>
      <trkpt lat="45.56902" lon="6.73116">
        <ele>747.4</ele>
        <time>2021-06-01T07:48:48Z</time>
      </trkpt>
      <trkpt lat="45.569" lon="6.73099">
        <ele>747</ele>
        <time>2021-06-01T07:48:49Z</time>
      </trkpt>
      <trkpt lat="45.56898" lon="6.73082">
        <ele>746.4</ele>
        <time>2021-06-01T07:48:50Z</time>
      </trkpt>
      <trkpt lat="45.56896" lon="6.73064">
        <ele>746</ele>
        <time>2021-06-01T07:48:51Z</time>
      </trkpt>
      <trkpt lat="45.56893" lon="6.73046">
        <ele>745.6</ele>
        <time>2021-06-01T07:48:52Z</time>
      </trkpt>
      <trkpt lat="45.56891" lon="6.73029">
        <ele>745</ele>
        <time>2021-06-01T07:48:53Z</time>
      </trkpt>
      <trkpt lat="45.56888" lon="6.73011">
        <ele>744.8</ele>
        <time>2021-06-01T07:48:54Z</time>
      </trkpt>
      <trkpt lat="45.56885" lon="6.72995">
        <ele>744.8</ele>
        <time>2021-06-01T07:48:55Z</time>
      </trkpt>
      <trkpt lat="45.56881" lon="6.72979">
        <ele>744.4</ele>
        <time>2021-06-01T07:48:56Z</time>
      </trkpt>
      <trkpt lat="45.56876" lon="6.72963">
        <ele>743.8</ele>
        <time>2021-06-01T07:48:57Z</time>
      </trkpt>
      <trkpt lat="45.56871" lon="6.72949">
        <ele>743</ele>
        <time>2021-06-01T07:48:58Z</time>
      </trkpt>
      <trkpt lat="45.56864" lon="6.72935">
        <ele>742.8</ele>
        <time>2021-06-01T07:48:59Z</time>
      </trkpt>
      <trkpt lat="45.56857" lon="6.72921">
        <ele>742.2</ele>
        <time>2021-06-01T07:49:00Z</time>
      </trkpt>
      <trkpt lat="45.5685" lon="6.72908">
        <ele>742.2</ele>
        <time>2021-06-01T07:49:01Z</time>
      </trkpt>
      <trkpt lat="45.56842" lon="6.72894">
        <ele>742</ele>
        <time>2021-06-01T07:49:02Z</time>
      </trkpt>
      <trkpt lat="45.56835" lon="6.72881">
        <ele>741.2</ele>
        <time>2021-06-01T07:49:03Z</time>
      </trkpt>
      <trkpt lat="45.56828" lon="6.72867">
        <ele>741</ele>
        <time>2021-06-01T07:49:04Z</time>
      </trkpt>
      <trkpt lat="45.56822" lon="6.72853">
        <ele>740.6</ele>
        <time>2021-06-01T07:49:05Z</time>
      </trkpt>
      <trkpt lat="45.56817" lon="6.72837">
        <ele>739.6</ele>
        <time>2021-06-01T07:49:06Z</time>
      </trkpt>
      <trkpt lat="45.56812" lon="6.72821">
        <ele>739.2</ele>
        <time>2021-06-01T07:49:07Z</time>
      </trkpt>
      <trkpt lat="45.5681" lon="6.72804">
        <ele>738.4</ele>
        <time>2021-06-01T07:49:08Z</time>
      </trkpt>
      <trkpt lat="45.5681" lon="6.72787">
        <ele>737.8</ele>
        <time>2021-06-01T07:49:09Z</time>
      </trkpt>
      <trkpt lat="45.56812" lon="6.7277">
        <ele>737.6</ele>
        <time>2021-06-01T07:49:10Z</time>
      </trkpt>
      <trkpt lat="45.56814" lon="6.72753">
        <ele>737</ele>
        <time>2021-06-01T07:49:11Z</time>
      </trkpt>
      <trkpt lat="45.56817" lon="6.72737">
        <ele>737</ele>
        <time>2021-06-01T07:49:12Z</time>
      </trkpt>
      <trkpt lat="45.56821" lon="6.7272">
        <ele>736.6</ele>
        <time>2021-06-01T07:49:13Z</time>
      </trkpt>
      <trkpt lat="45.56825" lon="6.72703">
        <ele>736.4</ele>
        <time>2021-06-01T07:49:14Z</time>
      </trkpt>
      <trkpt lat="45.56828" lon="6.72687">
        <ele>736</ele>
        <time>2021-06-01T07:49:15Z</time>
      </trkpt>
      <trkpt lat="45.56831" lon="6.72671">
        <ele>735.4</ele>
        <time>2021-06-01T07:49:16Z</time>
      </trkpt>
      <trkpt lat="45.56833" lon="6.72654">
        <ele>735.4</ele>
        <time>2021-06-01T07:49:17Z</time>
      </trkpt>
      <trkpt lat="45.56836" lon="6.72638">
        <ele>735.4</ele>
        <time>2021-06-01T07:49:18Z</time>
      </trkpt>
      <trkpt lat="45.56837" lon="6.72621">
        <ele>735.2</ele>
        <time>2021-06-01T07:49:19Z</time>
      </trkpt>
      <trkpt lat="45.56838" lon="6.72604">
        <ele>735.4</ele>
        <time>2021-06-01T07:49:20Z</time>
      </trkpt>
      <trkpt lat="45.56839" lon="6.72588">
        <ele>734.6</ele>
        <time>2021-06-01T07:49:21Z</time>
      </trkpt>
      <trkpt lat="45.56839" lon="6.72572">
        <ele>735</ele>
        <time>2021-06-01T07:49:22Z</time>
      </trkpt>
      <trkpt lat="45.56839" lon="6.72556">
        <ele>734.8</ele>
        <time>2021-06-01T07:49:23Z</time>
      </trkpt>
      <trkpt lat="45.56838" lon="6.7254">
        <ele>734.6</ele>
        <time>2021-06-01T07:49:24Z</time>
      </trkpt>
      <trkpt lat="45.56837" lon="6.72524">
        <ele>734.8</ele>
        <time>2021-06-01T07:49:25Z</time>
      </trkpt>
      <trkpt lat="45.56836" lon="6.72508">
        <ele>734.8</ele>
        <time>2021-06-01T07:49:26Z</time>
      </trkpt>
      <trkpt lat="45.56834" lon="6.72492">
        <ele>735</ele>
        <time>2021-06-01T07:49:27Z</time>
      </trkpt>
      <trkpt lat="45.56832" lon="6.72476">
        <ele>735</ele>
        <time>2021-06-01T07:49:28Z</time>
      </trkpt>
      <trkpt lat="45.56829" lon="6.72461">
        <ele>734.8</ele>
        <time>2021-06-01T07:49:29Z</time>
      </trkpt>
      <trkpt lat="45.56827" lon="6.72446">
        <ele>735</ele>
        <time>2021-06-01T07:49:30Z</time>
      </trkpt>
      <trkpt lat="45.56823" lon="6.72431">
        <ele>734.4</ele>
        <time>2021-06-01T07:49:31Z</time>
      </trkpt>
      <trkpt lat="45.5682" lon="6.72417">
        <ele>734.6</ele>
        <time>2021-06-01T07:49:32Z</time>
      </trkpt>
      <trkpt lat="45.56816" lon="6.72403">
        <ele>735</ele>
        <time>2021-06-01T07:49:33Z</time>
      </trkpt>
      <trkpt lat="45.56812" lon="6.7239">
        <ele>734.8</ele>
        <time>2021-06-01T07:49:34Z</time>
      </trkpt>
      <trkpt lat="45.56807" lon="6.72377">
        <ele>734.4</ele>
        <time>2021-06-01T07:49:35Z</time>
      </trkpt>
      <trkpt lat="45.56802" lon="6.72364">
        <ele>734</ele>
        <time>2021-06-01T07:49:36Z</time>
      </trkpt>
      <trkpt lat="45.56798" lon="6.72351">
        <ele>733.6</ele>
        <time>2021-06-01T07:49:37Z</time>
      </trkpt>
      <trkpt lat="45.56794" lon="6.72338">
        <ele>733.6</ele>
        <time>2021-06-01T07:49:38Z</time>
      </trkpt>
      <trkpt lat="45.5679" lon="6.72325">
        <ele>733.2</ele>
        <time>2021-06-01T07:49:39Z</time>
      </trkpt>
      <trkpt lat="45.56788" lon="6.72311">
        <ele>732.8</ele>
        <time>2021-06-01T07:49:40Z</time>
      </trkpt>
      <trkpt lat="45.56787" lon="6.72298">
        <ele>733</ele>
        <time>2021-06-01T07:49:41Z</time>
      </trkpt>
      <trkpt lat="45.56787" lon="6.72284">
        <ele>733</ele>
        <time>2021-06-01T07:49:42Z</time>
      </trkpt>
      <trkpt lat="45.56787" lon="6.72271">
        <ele>732.6</ele>
        <time>2021-06-01T07:49:43Z</time>
      </trkpt>
      <trkpt lat="45.56788" lon="6.72258">
        <ele>732.2</ele>
        <time>2021-06-01T07:49:44Z</time>
      </trkpt>
      <trkpt lat="45.56788" lon="6.72245">
        <ele>731.6</ele>
        <time>2021-06-01T07:49:45Z</time>
      </trkpt>
      <trkpt lat="45.56786" lon="6.72233">
        <ele>731.4</ele>
        <time>2021-06-01T07:49:46Z</time>
      </trkpt>
      <trkpt lat="45.56784" lon="6.7222">
        <ele>731.2</ele>
        <time>2021-06-01T07:49:47Z</time>
      </trkpt>
      <trkpt lat="45.56782" lon="6.72208">
        <ele>730.8</ele>
        <time>2021-06-01T07:49:48Z</time>
      </trkpt>
      <trkpt lat="45.56779" lon="6.72196">
        <ele>730.4</ele>
        <time>2021-06-01T07:49:49Z</time>
      </trkpt>
      <trkpt lat="45.56776" lon="6.72184">
        <ele>730.2</ele>
        <time>2021-06-01T07:49:50Z</time>
      </trkpt>
      <trkpt lat="45.56773" lon="6.72172">
        <ele>730.2</ele>
        <time>2021-06-01T07:49:51Z</time>
      </trkpt>
      <trkpt lat="45.5677" lon="6.72159">
        <ele>730.2</ele>
        <time>2021-06-01T07:49:52Z</time>
      </trkpt>
      <trkpt lat="45.56766" lon="6.72146">
        <ele>729.8</ele>
        <time>2021-06-01T07:49:53Z</time>
      </trkpt>
      <trkpt lat="45.56764" lon="6.72133">
        <ele>729.6</ele>
        <time>2021-06-01T07:49:54Z</time>
      </trkpt>
      <trkpt lat="45.56762" lon="6.7212">
        <ele>729.2</ele>
        <time>2021-06-01T07:49:55Z</time>
      </trkpt>
      <trkpt lat="45.56761" lon="6.72106">
        <ele>729.4</ele>
        <time>2021-06-01T07:49:56Z</time>
      </trkpt>
      <trkpt lat="45.56761" lon="6.72092">
        <ele>729.6</ele>
        <time>2021-06-01T07:49:57Z</time>
      </trkpt>
      <trkpt lat="45.56761" lon="6.72079">
        <ele>729.2</ele>
        <time>2021-06-01T07:49:58Z</time>
      </trkpt>
      <trkpt lat="45.5676" lon="6.72066">
        <ele>729.2</ele>
        <time>2021-06-01T07:49:59Z</time>
      </trkpt>
      <trkpt lat="45.56757" lon="6.72053">
        <ele>729.2</ele>
        <time>2021-06-01T07:50:00Z</time>
      </trkpt>
      <trkpt lat="45.56754" lon="6.72042">
        <ele>728.4</ele>
        <time>2021-06-01T07:50:01Z</time>
      </trkpt>
      <trkpt lat="45.56749" lon="6.7203">
        <ele>728</ele>
        <time>2021-06-01T07:50:02Z</time>
      </trkpt>
      <trkpt lat="45.56744" lon="6.72018">
        <ele>727.8</ele>
        <time>2021-06-01T07:50:03Z</time>
      </trkpt>
      <trkpt lat="45.5674" lon="6.72006">
        <ele>727.4</ele>
        <time>2021-06-01T07:50:04Z</time>
      </trkpt>
      <trkpt lat="45.56738" lon="6.71992">
        <ele>727.4</ele>
        <time>2021-06-01T07:50:05Z</time>
      </trkpt>
      <trkpt lat="45.56736" lon="6.71978">
        <ele>726.8</ele>
        <time>2021-06-01T07:50:06Z</time>
      </trkpt>
      <trkpt lat="45.56737" lon="6.71964">
        <ele>726.4</ele>
        <time>2021-06-01T07:50:07Z</time>
      </trkpt>
      <trkpt lat="45.5674" lon="6.71951">
        <ele>726</ele>
        <time>2021-06-01T07:50:08Z</time>
      </trkpt>
      <trkpt lat="45.56743" lon="6.71937">
        <ele>725.8</ele>
        <time>2021-06-01T07:50:09Z</time>
      </trkpt>
      <trkpt lat="45.56748" lon="6.71924">
        <ele>725.4</ele>
        <time>2021-06-01T07:50:10Z</time>
      </trkpt>
      <trkpt lat="45.56753" lon="6.7191">
        <ele>725.2</ele>
        <time>2021-06-01T07:50:11Z</time>
      </trkpt>
      <trkpt lat="45.56757" lon="6.71898">
        <ele>725</ele>
        <time>2021-06-01T07:50:12Z</time>
      </trkpt>
      <trkpt lat="45.56761" lon="6.71886">
        <ele>724.8</ele>
        <time>2021-06-01T07:50:13Z</time>
      </trkpt>
      <trkpt lat="45.56763" lon="6.71873">
        <ele>724.4</ele>
        <time>2021-06-01T07:50:14Z</time>
      </trkpt>
      <trkpt lat="45.56762" lon="6.7186">
        <ele>724.4</ele>
        <time>2021-06-01T07:50:15Z</time>
      </trkpt>
      <trkpt lat="45.56759" lon="6.71848">
        <ele>724.6</ele>
        <time>2021-06-01T07:50:16Z</time>
      </trkpt>
      <trkpt lat="45.56754" lon="6.71836">
        <ele>724.2</ele>
        <time>2021-06-01T07:50:17Z</time>
      </trkpt>
      <trkpt lat="45.56748" lon="6.71825">
        <ele>723.8</ele>
        <time>2021-06-01T07:50:18Z</time>
      </trkpt>
      <trkpt lat="45.56742" lon="6.71813">
        <ele>723.8</ele>
        <time>2021-06-01T07:50:19Z</time>
      </trkpt>
      <trkpt lat="45.56736" lon="6.71802">
        <ele>723.6</ele>
        <time>2021-06-01T07:50:20Z</time>
      </trkpt>
      <trkpt lat="45.5673" lon="6.7179">
        <ele>723.2</ele>
        <time>2021-06-01T07:50:21Z</time>
      </trkpt>
      <trkpt lat="45.56724" lon="6.71778">
        <ele>722.8</ele>
        <time>2021-06-01T07:50:22Z</time>
      </trkpt>
      <trkpt lat="45.56718" lon="6.71766">
        <ele>722.8</ele>
        <time>2021-06-01T07:50:23Z</time>
      </trkpt>
      <trkpt lat="45.56712" lon="6.71753">
        <ele>722.6</ele>
        <time>2021-06-01T07:50:24Z</time>
      </trkpt>
      <trkpt lat="45.56707" lon="6.7174">
        <ele>722.6</ele>
        <time>2021-06-01T07:50:25Z</time>
      </trkpt>
      <trkpt lat="45.56701" lon="6.71728">
        <ele>722.4</ele>
        <time>2021-06-01T07:50:26Z</time>
      </trkpt>
      <trkpt lat="45.56696" lon="6.71715">
        <ele>721.8</ele>
        <time>2021-06-01T07:50:27Z</time>
      </trkpt>
      <trkpt lat="45.56691" lon="6.71702">
        <ele>721.4</ele>
        <time>2021-06-01T07:50:28Z</time>
      </trkpt>
      <trkpt lat="45.56686" lon="6.71688">
        <ele>720.8</ele>
        <time>2021-06-01T07:50:29Z</time>
      </trkpt>
      <trkpt lat="45.56682" lon="6.71674">
        <ele>720.4</ele>
        <time>2021-06-01T07:50:30Z</time>
      </trkpt>
      <trkpt lat="45.56678" lon="6.7166">
        <ele>720</ele>
        <time>2021-06-01T07:50:31Z</time>
      </trkpt>
      <trkpt lat="45.56676" lon="6.71646">
        <ele>719.4</ele>
        <time>2021-06-01T07:50:32Z</time>
      </trkpt>
      <trkpt lat="45.56674" lon="6.71631">
        <ele>718.8</ele>
        <time>2021-06-01T07:50:33Z</time>
      </trkpt>
      <trkpt lat="45.56673" lon="6.71616">
        <ele>718.4</ele>
        <time>2021-06-01T07:50:34Z</time>
      </trkpt>
      <trkpt lat="45.56672" lon="6.71601">
        <ele>718.4</ele>
        <time>2021-06-01T07:50:35Z</time>
      </trkpt>
      <trkpt lat="45.56671" lon="6.71586">
        <ele>717.8</ele>
        <time>2021-06-01T07:50:36Z</time>
      </trkpt>
      <trkpt lat="45.5667" lon="6.71572">
        <ele>718</ele>
        <time>2021-06-01T07:50:37Z</time>
      </trkpt>
      <trkpt lat="45.56668" lon="6.71558">
        <ele>717.8</ele>
        <time>2021-06-01T07:50:38Z</time>
      </trkpt>
      <trkpt lat="45.56667" lon="6.71545">
        <ele>717.8</ele>
        <time>2021-06-01T07:50:39Z</time>
      </trkpt>
      <trkpt lat="45.56664" lon="6.71531">
        <ele>717.6</ele>
        <time>2021-06-01T07:50:40Z</time>
      </trkpt>
      <trkpt lat="45.56662" lon="6.71518">
        <ele>717.4</ele>
        <time>2021-06-01T07:50:41Z</time>
      </trkpt>
      <trkpt lat="45.56658" lon="6.71506">
        <ele>717.2</ele>
        <time>2021-06-01T07:50:42Z</time>
      </trkpt>
      <trkpt lat="45.56655" lon="6.71493">
        <ele>717</ele>
        <time>2021-06-01T07:50:43Z</time>
      </trkpt>
      <trkpt lat="45.56651" lon="6.71481">
        <ele>717</ele>
        <time>2021-06-01T07:50:44Z</time>
      </trkpt>
      <trkpt lat="45.56647" lon="6.71469">
        <ele>716.8</ele>
        <time>2021-06-01T07:50:45Z</time>
      </trkpt>
      <trkpt lat="45.56644" lon="6.71457">
        <ele>716.8</ele>
        <time>2021-06-01T07:50:46Z</time>
      </trkpt>
      <trkpt lat="45.5664" lon="6.71446">
        <ele>716.8</ele>
        <time>2021-06-01T07:50:47Z</time>
      </trkpt>
      <trkpt lat="45.56636" lon="6.71435">
        <ele>717</ele>
        <time>2021-06-01T07:50:48Z</time>
      </trkpt>
      <trkpt lat="45.56633" lon="6.71424">
        <ele>716.8</ele>
        <time>2021-06-01T07:50:49Z</time>
      </trkpt>
      <trkpt lat="45.56629" lon="6.71414">
        <ele>716.8</ele>
        <time>2021-06-01T07:50:50Z</time>
      </trkpt>
      <trkpt lat="45.56626" lon="6.71404">
        <ele>716.8</ele>
        <time>2021-06-01T07:50:51Z</time>
      </trkpt>
      <trkpt lat="45.56623" lon="6.71394">
        <ele>717.2</ele>
        <time>2021-06-01T07:50:52Z</time>
      </trkpt>
      <trkpt lat="45.5662" lon="6.71385">
        <ele>718.2</ele>
        <time>2021-06-01T07:50:53Z</time>
      </trkpt>
      <trkpt lat="45.56619" lon="6.71376">
        <ele>718</ele>
        <time>2021-06-01T07:50:54Z</time>
      </trkpt>
      <trkpt lat="45.56617" lon="6.71367">
        <ele>718</ele>
        <time>2021-06-01T07:50:55Z</time>
      </trkpt>
      <trkpt lat="45.56615" lon="6.71358">
        <ele>718</ele>
        <time>2021-06-01T07:50:56Z</time>
      </trkpt>
      <trkpt lat="45.56613" lon="6.7135">
        <ele>718.2</ele>
        <time>2021-06-01T07:50:57Z</time>
      </trkpt>
      <trkpt lat="45.56611" lon="6.71343">
        <ele>718.2</ele>
        <time>2021-06-01T07:50:58Z</time>
      </trkpt>
      <trkpt lat="45.56607" lon="6.71336">
        <ele>718.4</ele>
        <time>2021-06-01T07:50:59Z</time>
      </trkpt>
      <trkpt lat="45.56603" lon="6.7133">
        <ele>718.8</ele>
        <time>2021-06-01T07:51:00Z</time>
      </trkpt>
      <trkpt lat="45.56598" lon="6.71324">
        <ele>718.4</ele>
        <time>2021-06-01T07:51:01Z</time>
      </trkpt>
      <trkpt lat="45.56593" lon="6.71319">
        <ele>718.4</ele>
        <time>2021-06-01T07:51:02Z</time>
      </trkpt>
      <trkpt lat="45.56587" lon="6.71314">
        <ele>718.4</ele>
        <time>2021-06-01T07:51:03Z</time>
      </trkpt>
      <trkpt lat="45.56582" lon="6.71308">
        <ele>718.2</ele>
        <time>2021-06-01T07:51:04Z</time>
      </trkpt>
      <trkpt lat="45.56578" lon="6.713">
        <ele>718.4</ele>
        <time>2021-06-01T07:51:05Z</time>
      </trkpt>
      <trkpt lat="45.56573" lon="6.71292">
        <ele>718.6</ele>
        <time>2021-06-01T07:51:06Z</time>
      </trkpt>
      <trkpt lat="45.5657" lon="6.71284">
        <ele>718.8</ele>
        <time>2021-06-01T07:51:07Z</time>
      </trkpt>
      <trkpt lat="45.56567" lon="6.71275">
        <ele>719</ele>
        <time>2021-06-01T07:51:08Z</time>
      </trkpt>
      <trkpt lat="45.56564" lon="6.71266">
        <ele>719.2</ele>
        <time>2021-06-01T07:51:09Z</time>
      </trkpt>
      <trkpt lat="45.56561" lon="6.71258">
        <ele>719.6</ele>
        <time>2021-06-01T07:51:10Z</time>
      </trkpt>
      <trkpt lat="45.56558" lon="6.7125">
        <ele>719.8</ele>
        <time>2021-06-01T07:51:11Z</time>
      </trkpt>
      <trkpt lat="45.56554" lon="6.71243">
        <ele>720</ele>
        <time>2021-06-01T07:51:12Z</time>
      </trkpt>
      <trkpt lat="45.5655" lon="6.71235">
        <ele>720.2</ele>
        <time>2021-06-01T07:51:13Z</time>
      </trkpt>
      <trkpt lat="45.56546" lon="6.71228">
        <ele>720.8</ele>
        <time>2021-06-01T07:51:14Z</time>
      </trkpt>
      <trkpt lat="45.56543" lon="6.7122">
        <ele>721</ele>
        <time>2021-06-01T07:51:15Z</time>
      </trkpt>
      <trkpt lat="45.56539" lon="6.71213">
        <ele>721.4</ele>
        <time>2021-06-01T07:51:16Z</time>
      </trkpt>
      <trkpt lat="45.56535" lon="6.71206">
        <ele>721.8</ele>
        <time>2021-06-01T07:51:17Z</time>
      </trkpt>
      <trkpt lat="45.56532" lon="6.71198">
        <ele>722</ele>
        <time>2021-06-01T07:51:18Z</time>
      </trkpt>
      <trkpt lat="45.56529" lon="6.71191">
        <ele>722.2</ele>
        <time>2021-06-01T07:51:19Z</time>
      </trkpt>
      <trkpt lat="45.56527" lon="6.71183">
        <ele>722.6</ele>
        <time>2021-06-01T07:51:20Z</time>
      </trkpt>
      <trkpt lat="45.56526" lon="6.71176">
        <ele>722.8</ele>
        <time>2021-06-01T07:51:21Z</time>
      </trkpt>
      <trkpt lat="45.56524" lon="6.71166">
        <ele>723.2</ele>
        <time>2021-06-01T07:51:22Z</time>
      </trkpt>
      <trkpt lat="45.56522" lon="6.71158">
        <ele>723.6</ele>
        <time>2021-06-01T07:51:23Z</time>
      </trkpt>
      <trkpt lat="45.56521" lon="6.71148">
        <ele>723.8</ele>
        <time>2021-06-01T07:51:24Z</time>
      </trkpt>
      <trkpt lat="45.5652" lon="6.71139">
        <ele>724</ele>
        <time>2021-06-01T07:51:25Z</time>
      </trkpt>
      <trkpt lat="45.56519" lon="6.7113">
        <ele>724.4</ele>
        <time>2021-06-01T07:51:26Z</time>
      </trkpt>
      <trkpt lat="45.5652" lon="6.71122">
        <ele>724.6</ele>
        <time>2021-06-01T07:51:27Z</time>
      </trkpt>
      <trkpt lat="45.56519" lon="6.71114">
        <ele>724.4</ele>
        <time>2021-06-01T07:51:28Z</time>
      </trkpt>
      <trkpt lat="45.5652" lon="6.71105">
        <ele>724.2</ele>
        <time>2021-06-01T07:51:29Z</time>
      </trkpt>
      <trkpt lat="45.5652" lon="6.71096">
        <ele>724.2</ele>
        <time>2021-06-01T07:51:30Z</time>
      </trkpt>
      <trkpt lat="45.56521" lon="6.71088">
        <ele>724.2</ele>
        <time>2021-06-01T07:51:31Z</time>
      </trkpt>
      <trkpt lat="45.56521" lon="6.71078">
        <ele>723.8</ele>
        <time>2021-06-01T07:51:32Z</time>
      </trkpt>
      <trkpt lat="45.56521" lon="6.7107">
        <ele>724</ele>
        <time>2021-06-01T07:51:33Z</time>
      </trkpt>
      <trkpt lat="45.56522" lon="6.7106">
        <ele>724.4</ele>
        <time>2021-06-01T07:51:34Z</time>
      </trkpt>
      <trkpt lat="45.56523" lon="6.7105">
        <ele>724.4</ele>
        <time>2021-06-01T07:51:35Z</time>
      </trkpt>
      <trkpt lat="45.56523" lon="6.71041">
        <ele>724.8</ele>
        <time>2021-06-01T07:51:36Z</time>
      </trkpt>
      <trkpt lat="45.56523" lon="6.71032">
        <ele>725.2</ele>
        <time>2021-06-01T07:51:37Z</time>
      </trkpt>
      <trkpt lat="45.56523" lon="6.71023">
        <ele>725.2</ele>
        <time>2021-06-01T07:51:38Z</time>
      </trkpt>
      <trkpt lat="45.56522" lon="6.71014">
        <ele>725.2</ele>
        <time>2021-06-01T07:51:39Z</time>
      </trkpt>
      <trkpt lat="45.56522" lon="6.71005">
        <ele>725.2</ele>
        <time>2021-06-01T07:51:40Z</time>
      </trkpt>
      <trkpt lat="45.5652" lon="6.70996">
        <ele>725.4</ele>
        <time>2021-06-01T07:51:41Z</time>
      </trkpt>
      <trkpt lat="45.5652" lon="6.70986">
        <ele>725.8</ele>
        <time>2021-06-01T07:51:42Z</time>
      </trkpt>
      <trkpt lat="45.5652" lon="6.70975">
        <ele>725.8</ele>
        <time>2021-06-01T07:51:43Z</time>
      </trkpt>
      <trkpt lat="45.5652" lon="6.70966">
        <ele>726.2</ele>
        <time>2021-06-01T07:51:44Z</time>
      </trkpt>
      <trkpt lat="45.56519" lon="6.70957">
        <ele>726.6</ele>
        <time>2021-06-01T07:51:45Z</time>
      </trkpt>
      <trkpt lat="45.56518" lon="6.70948">
        <ele>726.6</ele>
        <time>2021-06-01T07:51:46Z</time>
      </trkpt>
      <trkpt lat="45.56517" lon="6.70939">
        <ele>726.8</ele>
        <time>2021-06-01T07:51:47Z</time>
      </trkpt>
      <trkpt lat="45.56517" lon="6.70931">
        <ele>727</ele>
        <time>2021-06-01T07:51:48Z</time>
      </trkpt>
      <trkpt lat="45.56516" lon="6.70923">
        <ele>727</ele>
        <time>2021-06-01T07:51:49Z</time>
      </trkpt>
      <trkpt lat="45.56515" lon="6.70914">
        <ele>727.6</ele>
        <time>2021-06-01T07:51:50Z</time>
      </trkpt>
      <trkpt lat="45.56514" lon="6.70905">
        <ele>728</ele>
        <time>2021-06-01T07:51:51Z</time>
      </trkpt>
      <trkpt lat="45.56513" lon="6.70896">
        <ele>728.6</ele>
        <time>2021-06-01T07:51:52Z</time>
      </trkpt>
      <trkpt lat="45.56512" lon="6.70888">
        <ele>729.2</ele>
        <time>2021-06-01T07:51:53Z</time>
      </trkpt>
      <trkpt lat="45.5651" lon="6.70879">
        <ele>729.6</ele>
        <time>2021-06-01T07:51:54Z</time>
      </trkpt>
      <trkpt lat="45.56509" lon="6.7087">
        <ele>729.8</ele>
        <time>2021-06-01T07:51:55Z</time>
      </trkpt>
      <trkpt lat="45.56507" lon="6.70861">
        <ele>730</ele>
        <time>2021-06-01T07:51:56Z</time>
      </trkpt>
      <trkpt lat="45.56506" lon="6.70853">
        <ele>730.2</ele>
        <time>2021-06-01T07:51:57Z</time>
      </trkpt>
      <trkpt lat="45.56505" lon="6.70844">
        <ele>730.4</ele>
        <time>2021-06-01T07:51:58Z</time>
      </trkpt>
      <trkpt lat="45.56504" lon="6.70833">
        <ele>730.6</ele>
        <time>2021-06-01T07:51:59Z</time>
      </trkpt>
      <trkpt lat="45.56504" lon="6.70824">
        <ele>730.4</ele>
        <time>2021-06-01T07:52:00Z</time>
      </trkpt>
      <trkpt lat="45.56504" lon="6.70813">
        <ele>730.8</ele>
        <time>2021-06-01T07:52:01Z</time>
      </trkpt>
      <trkpt lat="45.56504" lon="6.70804">
        <ele>730.8</ele>
        <time>2021-06-01T07:52:02Z</time>
      </trkpt>
      <trkpt lat="45.56506" lon="6.70793">
        <ele>731</ele>
        <time>2021-06-01T07:52:03Z</time>
      </trkpt>
      <trkpt lat="45.56508" lon="6.70784">
        <ele>731</ele>
        <time>2021-06-01T07:52:04Z</time>
      </trkpt>
      <trkpt lat="45.5651" lon="6.70776">
        <ele>731</ele>
        <time>2021-06-01T07:52:05Z</time>
      </trkpt>
      <trkpt lat="45.56512" lon="6.70768">
        <ele>731</ele>
        <time>2021-06-01T07:52:06Z</time>
      </trkpt>
      <trkpt lat="45.56513" lon="6.70761">
        <ele>731</ele>
        <time>2021-06-01T07:52:07Z</time>
      </trkpt>
      <trkpt lat="45.56514" lon="6.70754">
        <ele>730.8</ele>
        <time>2021-06-01T07:52:08Z</time>
      </trkpt>
      <trkpt lat="45.56515" lon="6.70746">
        <ele>730.8</ele>
        <time>2021-06-01T07:52:09Z</time>
      </trkpt>
      <trkpt lat="45.56516" lon="6.70736">
        <ele>731</ele>
        <time>2021-06-01T07:52:10Z</time>
      </trkpt>
      <trkpt lat="45.56517" lon="6.70727">
        <ele>730.8</ele>
        <time>2021-06-01T07:52:11Z</time>
      </trkpt>
      <trkpt lat="45.56518" lon="6.70717">
        <ele>730.8</ele>
        <time>2021-06-01T07:52:12Z</time>
      </trkpt>
      <trkpt lat="45.56517" lon="6.70709">
        <ele>731</ele>
        <time>2021-06-01T07:52:13Z</time>
      </trkpt>
      <trkpt lat="45.56516" lon="6.70701">
        <ele>731</ele>
        <time>2021-06-01T07:52:14Z</time>
      </trkpt>
      <trkpt lat="45.56513" lon="6.70692">
        <ele>731</ele>
        <time>2021-06-01T07:52:15Z</time>
      </trkpt>
      <trkpt lat="45.5651" lon="6.70683">
        <ele>731</ele>
        <time>2021-06-01T07:52:16Z</time>
      </trkpt>
      <trkpt lat="45.56508" lon="6.70674">
        <ele>731.2</ele>
        <time>2021-06-01T07:52:17Z</time>
      </trkpt>
      <trkpt lat="45.56504" lon="6.70666">
        <ele>731.4</ele>
        <time>2021-06-01T07:52:18Z</time>
      </trkpt>
      <trkpt lat="45.56501" lon="6.70661">
        <ele>731.8</ele>
        <time>2021-06-01T07:52:19Z</time>
      </trkpt>
      <trkpt lat="45.56497" lon="6.70653">
        <ele>732</ele>
        <time>2021-06-01T07:52:20Z</time>
      </trkpt>
      <trkpt lat="45.56493" lon="6.70646">
        <ele>732.4</ele>
        <time>2021-06-01T07:52:21Z</time>
      </trkpt>
      <trkpt lat="45.56488" lon="6.70641">
        <ele>732.6</ele>
        <time>2021-06-01T07:52:22Z</time>
      </trkpt>
      <trkpt lat="45.56482" lon="6.70635">
        <ele>732.8</ele>
        <time>2021-06-01T07:52:23Z</time>
      </trkpt>
      <trkpt lat="45.56476" lon="6.70629">
        <ele>733.4</ele>
        <time>2021-06-01T07:52:24Z</time>
      </trkpt>
      <trkpt lat="45.5647" lon="6.70625">
        <ele>733.6</ele>
        <time>2021-06-01T07:52:25Z</time>
      </trkpt>
      <trkpt lat="45.56465" lon="6.70621">
        <ele>734</ele>
        <time>2021-06-01T07:52:26Z</time>
      </trkpt>
      <trkpt lat="45.5646" lon="6.70618">
        <ele>734.4</ele>
        <time>2021-06-01T07:52:27Z</time>
      </trkpt>
      <trkpt lat="45.56456" lon="6.70615">
        <ele>734.6</ele>
        <time>2021-06-01T07:52:28Z</time>
      </trkpt>
      <trkpt lat="45.56451" lon="6.70612">
        <ele>735</ele>
        <time>2021-06-01T07:52:29Z</time>
      </trkpt>
      <trkpt lat="45.56446" lon="6.70609">
        <ele>735.4</ele>
        <time>2021-06-01T07:52:30Z</time>
      </trkpt>
      <trkpt lat="45.5644" lon="6.70606">
        <ele>735.6</ele>
        <time>2021-06-01T07:52:31Z</time>
      </trkpt>
      <trkpt lat="45.56434" lon="6.70603">
        <ele>735.8</ele>
        <time>2021-06-01T07:52:32Z</time>
      </trkpt>
      <trkpt lat="45.56428" lon="6.70597">
        <ele>736.2</ele>
        <time>2021-06-01T07:52:33Z</time>
      </trkpt>
      <trkpt lat="45.56421" lon="6.7059">
        <ele>736.2</ele>
        <time>2021-06-01T07:52:34Z</time>
      </trkpt>
      <trkpt lat="45.56415" lon="6.70585">
        <ele>736.4</ele>
        <time>2021-06-01T07:52:35Z</time>
      </trkpt>
      <trkpt lat="45.5641" lon="6.70578">
        <ele>736.6</ele>
        <time>2021-06-01T07:52:36Z</time>
      </trkpt>
      <trkpt lat="45.56406" lon="6.70571">
        <ele>736.8</ele>
        <time>2021-06-01T07:52:37Z</time>
      </trkpt>
      <trkpt lat="45.56402" lon="6.70564">
        <ele>737</ele>
        <time>2021-06-01T07:52:38Z</time>
      </trkpt>
      <trkpt lat="45.56398" lon="6.70556">
        <ele>737.2</ele>
        <time>2021-06-01T07:52:39Z</time>
      </trkpt>
      <trkpt lat="45.56395" lon="6.70549">
        <ele>737.4</ele>
        <time>2021-06-01T07:52:40Z</time>
      </trkpt>
      <trkpt lat="45.56392" lon="6.70544">
        <ele>737.6</ele>
        <time>2021-06-01T07:52:41Z</time>
      </trkpt>
      <trkpt lat="45.56388" lon="6.70535">
        <ele>737.8</ele>
        <time>2021-06-01T07:52:42Z</time>
      </trkpt>
      <trkpt lat="45.56384" lon="6.70528">
        <ele>738</ele>
        <time>2021-06-01T07:52:43Z</time>
      </trkpt>
      <trkpt lat="45.5638" lon="6.70521">
        <ele>738.2</ele>
        <time>2021-06-01T07:52:44Z</time>
      </trkpt>
      <trkpt lat="45.56377" lon="6.70513">
        <ele>738.6</ele>
        <time>2021-06-01T07:52:45Z</time>
      </trkpt>
      <trkpt lat="45.56374" lon="6.70506">
        <ele>738.6</ele>
        <time>2021-06-01T07:52:46Z</time>
      </trkpt>
      <trkpt lat="45.56372" lon="6.70499">
        <ele>738.6</ele>
        <time>2021-06-01T07:52:47Z</time>
      </trkpt>
      <trkpt lat="45.5637" lon="6.7049">
        <ele>738.8</ele>
        <time>2021-06-01T07:52:48Z</time>
      </trkpt>
      <trkpt lat="45.56367" lon="6.70481">
        <ele>739</ele>
        <time>2021-06-01T07:52:49Z</time>
      </trkpt>
      <trkpt lat="45.56365" lon="6.70471">
        <ele>739.2</ele>
        <time>2021-06-01T07:52:50Z</time>
      </trkpt>
      <trkpt lat="45.56363" lon="6.70463">
        <ele>739.6</ele>
        <time>2021-06-01T07:52:51Z</time>
      </trkpt>
      <trkpt lat="45.56362" lon="6.70455">
        <ele>739.8</ele>
        <time>2021-06-01T07:52:52Z</time>
      </trkpt>
      <trkpt lat="45.56361" lon="6.70446">
        <ele>739.8</ele>
        <time>2021-06-01T07:52:53Z</time>
      </trkpt>
      <trkpt lat="45.5636" lon="6.70439">
        <ele>740</ele>
        <time>2021-06-01T07:52:54Z</time>
      </trkpt>
      <trkpt lat="45.56359" lon="6.70431">
        <ele>740</ele>
        <time>2021-06-01T07:52:55Z</time>
      </trkpt>
      <trkpt lat="45.56358" lon="6.70422">
        <ele>740.4</ele>
        <time>2021-06-01T07:52:56Z</time>
      </trkpt>
      <trkpt lat="45.56356" lon="6.70415">
        <ele>740.4</ele>
        <time>2021-06-01T07:52:57Z</time>
      </trkpt>
      <trkpt lat="45.56354" lon="6.70408">
        <ele>740.6</ele>
        <time>2021-06-01T07:52:58Z</time>
      </trkpt>
      <trkpt lat="45.56351" lon="6.70401">
        <ele>740.6</ele>
        <time>2021-06-01T07:52:59Z</time>
      </trkpt>
      <trkpt lat="45.56349" lon="6.70394">
        <ele>741</ele>
        <time>2021-06-01T07:53:00Z</time>
      </trkpt>
      <trkpt lat="45.56347" lon="6.70389">
        <ele>741</ele>
        <time>2021-06-01T07:53:01Z</time>
      </trkpt>
      <trkpt lat="45.56345" lon="6.70383">
        <ele>741</ele>
        <time>2021-06-01T07:53:02Z</time>
      </trkpt>
      <trkpt lat="45.56342" lon="6.70377">
        <ele>741.2</ele>
        <time>2021-06-01T07:53:03Z</time>
      </trkpt>
      <trkpt lat="45.5634" lon="6.70371">
        <ele>741.4</ele>
        <time>2021-06-01T07:53:04Z</time>
      </trkpt>
      <trkpt lat="45.56337" lon="6.70364">
        <ele>741.6</ele>
        <time>2021-06-01T07:53:05Z</time>
      </trkpt>
      <trkpt lat="45.56334" lon="6.70359">
        <ele>742</ele>
        <time>2021-06-01T07:53:06Z</time>
      </trkpt>
      <trkpt lat="45.56331" lon="6.70354">
        <ele>742.2</ele>
        <time>2021-06-01T07:53:07Z</time>
      </trkpt>
      <trkpt lat="45.56327" lon="6.70349">
        <ele>742.6</ele>
        <time>2021-06-01T07:53:08Z</time>
      </trkpt>
      <trkpt lat="45.56324" lon="6.70344">
        <ele>743</ele>
        <time>2021-06-01T07:53:09Z</time>
      </trkpt>
      <trkpt lat="45.56321" lon="6.70339">
        <ele>743.2</ele>
        <time>2021-06-01T07:53:10Z</time>
      </trkpt>
      <trkpt lat="45.56317" lon="6.70334">
        <ele>743.2</ele>
        <time>2021-06-01T07:53:11Z</time>
      </trkpt>
      <trkpt lat="45.56314" lon="6.70328">
        <ele>743.2</ele>
        <time>2021-06-01T07:53:12Z</time>
      </trkpt>
      <trkpt lat="45.56311" lon="6.70323">
        <ele>743.2</ele>
        <time>2021-06-01T07:53:13Z</time>
      </trkpt>
      <trkpt lat="45.56308" lon="6.70317">
        <ele>743.4</ele>
        <time>2021-06-01T07:53:14Z</time>
      </trkpt>
      <trkpt lat="45.56305" lon="6.70311">
        <ele>743.6</ele>
        <time>2021-06-01T07:53:15Z</time>
      </trkpt>
      <trkpt lat="45.56301" lon="6.70304">
        <ele>743.6</ele>
        <time>2021-06-01T07:53:16Z</time>
      </trkpt>
      <trkpt lat="45.56299" lon="6.70298">
        <ele>743.6</ele>
        <time>2021-06-01T07:53:17Z</time>
      </trkpt>
      <trkpt lat="45.56295" lon="6.70291">
        <ele>744</ele>
        <time>2021-06-01T07:53:18Z</time>
      </trkpt>
      <trkpt lat="45.56293" lon="6.70284">
        <ele>744.4</ele>
        <time>2021-06-01T07:53:19Z</time>
      </trkpt>
      <trkpt lat="45.5629" lon="6.70278">
        <ele>744.6</ele>
        <time>2021-06-01T07:53:20Z</time>
      </trkpt>
      <trkpt lat="45.56287" lon="6.70271">
        <ele>745</ele>
        <time>2021-06-01T07:53:21Z</time>
      </trkpt>
      <trkpt lat="45.56285" lon="6.70264">
        <ele>745</ele>
        <time>2021-06-01T07:53:22Z</time>
      </trkpt>
      <trkpt lat="45.56283" lon="6.70257">
        <ele>745.2</ele>
        <time>2021-06-01T07:53:23Z</time>
      </trkpt>
      <trkpt lat="45.56281" lon="6.7025">
        <ele>745.4</ele>
        <time>2021-06-01T07:53:24Z</time>
      </trkpt>
      <trkpt lat="45.56279" lon="6.70243">
        <ele>745.6</ele>
        <time>2021-06-01T07:53:25Z</time>
      </trkpt>
      <trkpt lat="45.56278" lon="6.70236">
        <ele>745.8</ele>
        <time>2021-06-01T07:53:26Z</time>
      </trkpt>
      <trkpt lat="45.56276" lon="6.70229">
        <ele>746</ele>
        <time>2021-06-01T07:53:27Z</time>
      </trkpt>
      <trkpt lat="45.56275" lon="6.70221">
        <ele>746.4</ele>
        <time>2021-06-01T07:53:28Z</time>
      </trkpt>
      <trkpt lat="45.56273" lon="6.70214">
        <ele>746.8</ele>
        <time>2021-06-01T07:53:29Z</time>
      </trkpt>
      <trkpt lat="45.56271" lon="6.70206">
        <ele>747</ele>
        <time>2021-06-01T07:53:30Z</time>
      </trkpt>
      <trkpt lat="45.56269" lon="6.70199">
        <ele>747</ele>
        <time>2021-06-01T07:53:31Z</time>
      </trkpt>
      <trkpt lat="45.56268" lon="6.70191">
        <ele>747.2</ele>
        <time>2021-06-01T07:53:32Z</time>
      </trkpt>
      <trkpt lat="45.56267" lon="6.70184">
        <ele>747.4</ele>
        <time>2021-06-01T07:53:33Z</time>
      </trkpt>
      <trkpt lat="45.56266" lon="6.70176">
        <ele>747.8</ele>
        <time>2021-06-01T07:53:34Z</time>
      </trkpt>
      <trkpt lat="45.56265" lon="6.70168">
        <ele>747.8</ele>
        <time>2021-06-01T07:53:35Z</time>
      </trkpt>
      <trkpt lat="45.56265" lon="6.70159">
        <ele>748.2</ele>
        <time>2021-06-01T07:53:36Z</time>
      </trkpt>
      <trkpt lat="45.56264" lon="6.70151">
        <ele>748.2</ele>
        <time>2021-06-01T07:53:37Z</time>
      </trkpt>
      <trkpt lat="45.56263" lon="6.70143">
        <ele>749</ele>
        <time>2021-06-01T07:53:38Z</time>
      </trkpt>
      <trkpt lat="45.56263" lon="6.70134">
        <ele>749.4</ele>
        <time>2021-06-01T07:53:39Z</time>
      </trkpt>
      <trkpt lat="45.56263" lon="6.70125">
        <ele>749.6</ele>
        <time>2021-06-01T07:53:40Z</time>
      </trkpt>
      <trkpt lat="45.56263" lon="6.70117">
        <ele>750</ele>
        <time>2021-06-01T07:53:41Z</time>
      </trkpt>
      <trkpt lat="45.56263" lon="6.70108">
        <ele>750.4</ele>
        <time>2021-06-01T07:53:42Z</time>
      </trkpt>
      <trkpt lat="45.56263" lon="6.701">
        <ele>750.8</ele>
        <time>2021-06-01T07:53:43Z</time>
      </trkpt>
      <trkpt lat="45.56263" lon="6.70092">
        <ele>751.2</ele>
        <time>2021-06-01T07:53:44Z</time>
      </trkpt>
      <trkpt lat="45.56262" lon="6.70084">
        <ele>751.6</ele>
        <time>2021-06-01T07:53:45Z</time>
      </trkpt>
      <trkpt lat="45.5626" lon="6.70077">
        <ele>752</ele>
        <time>2021-06-01T07:53:46Z</time>
      </trkpt>
      <trkpt lat="45.56259" lon="6.70069">
        <ele>752.2</ele>
        <time>2021-06-01T07:53:47Z</time>
      </trkpt>
      <trkpt lat="45.56257" lon="6.7006">
        <ele>752.6</ele>
        <time>2021-06-01T07:53:48Z</time>
      </trkpt>
      <trkpt lat="45.56255" lon="6.70052">
        <ele>752.8</ele>
        <time>2021-06-01T07:53:49Z</time>
      </trkpt>
      <trkpt lat="45.56253" lon="6.70044">
        <ele>753</ele>
        <time>2021-06-01T07:53:50Z</time>
      </trkpt>
      <trkpt lat="45.56251" lon="6.70036">
        <ele>753.2</ele>
        <time>2021-06-01T07:53:51Z</time>
      </trkpt>
      <trkpt lat="45.56249" lon="6.70027">
        <ele>753.2</ele>
        <time>2021-06-01T07:53:52Z</time>
      </trkpt>
      <trkpt lat="45.56248" lon="6.7002">
        <ele>753.2</ele>
        <time>2021-06-01T07:53:53Z</time>
      </trkpt>
      <trkpt lat="45.56247" lon="6.70012">
        <ele>753.4</ele>
        <time>2021-06-01T07:53:54Z</time>
      </trkpt>
      <trkpt lat="45.56247" lon="6.70004">
        <ele>753.6</ele>
        <time>2021-06-01T07:53:55Z</time>
      </trkpt>
      <trkpt lat="45.56247" lon="6.69996">
        <ele>753.4</ele>
        <time>2021-06-01T07:53:56Z</time>
      </trkpt>
      <trkpt lat="45.56247" lon="6.69987">
        <ele>753.6</ele>
        <time>2021-06-01T07:53:57Z</time>
      </trkpt>
      <trkpt lat="45.56247" lon="6.69979">
        <ele>753.8</ele>
        <time>2021-06-01T07:53:58Z</time>
      </trkpt>
      <trkpt lat="45.56247" lon="6.69971">
        <ele>753.8</ele>
        <time>2021-06-01T07:53:59Z</time>
      </trkpt>
      <trkpt lat="45.56247" lon="6.69961">
        <ele>754</ele>
        <time>2021-06-01T07:54:00Z</time>
      </trkpt>
      <trkpt lat="45.56247" lon="6.69949">
        <ele>754.2</ele>
        <time>2021-06-01T07:54:01Z</time>
      </trkpt>
      <trkpt lat="45.56247" lon="6.69938">
        <ele>754.2</ele>
        <time>2021-06-01T07:54:02Z</time>
      </trkpt>
      <trkpt lat="45.56247" lon="6.69933">
        <ele>754.4</ele>
        <time>2021-06-01T07:54:03Z</time>
      </trkpt>
      <trkpt lat="45.56246" lon="6.69926">
        <ele>754.8</ele>
        <time>2021-06-01T07:54:04Z</time>
      </trkpt>
      <trkpt lat="45.56244" lon="6.69918">
        <ele>754.8</ele>
        <time>2021-06-01T07:54:05Z</time>
      </trkpt>
      <trkpt lat="45.56242" lon="6.6991">
        <ele>754.6</ele>
        <time>2021-06-01T07:54:06Z</time>
      </trkpt>
      <trkpt lat="45.5624" lon="6.69902">
        <ele>754.6</ele>
        <time>2021-06-01T07:54:07Z</time>
      </trkpt>
      <trkpt lat="45.56237" lon="6.69894">
        <ele>754.8</ele>
        <time>2021-06-01T07:54:08Z</time>
      </trkpt>
      <trkpt lat="45.56234" lon="6.69886">
        <ele>755</ele>
        <time>2021-06-01T07:54:09Z</time>
      </trkpt>
      <trkpt lat="45.5623" lon="6.69878">
        <ele>755.2</ele>
        <time>2021-06-01T07:54:10Z</time>
      </trkpt>
      <trkpt lat="45.56226" lon="6.6987">
        <ele>755.2</ele>
        <time>2021-06-01T07:54:11Z</time>
      </trkpt>
      <trkpt lat="45.56222" lon="6.69863">
        <ele>755.2</ele>
        <time>2021-06-01T07:54:12Z</time>
      </trkpt>
      <trkpt lat="45.5622" lon="6.69855">
        <ele>755.4</ele>
        <time>2021-06-01T07:54:13Z</time>
      </trkpt>
      <trkpt lat="45.56217" lon="6.69847">
        <ele>755.6</ele>
        <time>2021-06-01T07:54:14Z</time>
      </trkpt>
      <trkpt lat="45.56214" lon="6.69839">
        <ele>755.8</ele>
        <time>2021-06-01T07:54:15Z</time>
      </trkpt>
      <trkpt lat="45.56212" lon="6.6983">
        <ele>756</ele>
        <time>2021-06-01T07:54:16Z</time>
      </trkpt>
      <trkpt lat="45.5621" lon="6.69822">
        <ele>756</ele>
        <time>2021-06-01T07:54:17Z</time>
      </trkpt>
      <trkpt lat="45.56207" lon="6.69813">
        <ele>756.2</ele>
        <time>2021-06-01T07:54:18Z</time>
      </trkpt>
      <trkpt lat="45.56204" lon="6.69806">
        <ele>756.2</ele>
        <time>2021-06-01T07:54:19Z</time>
      </trkpt>
      <trkpt lat="45.56204" lon="6.69796">
        <ele>756.6</ele>
        <time>2021-06-01T07:54:20Z</time>
      </trkpt>
      <trkpt lat="45.56202" lon="6.69788">
        <ele>756.6</ele>
        <time>2021-06-01T07:54:21Z</time>
      </trkpt>
      <trkpt lat="45.562" lon="6.69779">
        <ele>756.8</ele>
        <time>2021-06-01T07:54:22Z</time>
      </trkpt>
      <trkpt lat="45.56198" lon="6.69771">
        <ele>757</ele>
        <time>2021-06-01T07:54:23Z</time>
      </trkpt>
      <trkpt lat="45.56196" lon="6.69763">
        <ele>757.2</ele>
        <time>2021-06-01T07:54:24Z</time>
      </trkpt>
      <trkpt lat="45.56195" lon="6.69754">
        <ele>757.4</ele>
        <time>2021-06-01T07:54:25Z</time>
      </trkpt>
      <trkpt lat="45.56194" lon="6.69745">
        <ele>757.6</ele>
        <time>2021-06-01T07:54:26Z</time>
      </trkpt>
      <trkpt lat="45.56193" lon="6.69736">
        <ele>757.8</ele>
        <time>2021-06-01T07:54:27Z</time>
      </trkpt>
      <trkpt lat="45.56192" lon="6.69728">
        <ele>758</ele>
        <time>2021-06-01T07:54:28Z</time>
      </trkpt>
      <trkpt lat="45.56191" lon="6.69719">
        <ele>758.2</ele>
        <time>2021-06-01T07:54:29Z</time>
      </trkpt>
      <trkpt lat="45.56189" lon="6.6971">
        <ele>758.4</ele>
        <time>2021-06-01T07:54:30Z</time>
      </trkpt>
      <trkpt lat="45.56188" lon="6.69702">
        <ele>758.6</ele>
        <time>2021-06-01T07:54:31Z</time>
      </trkpt>
      <trkpt lat="45.56188" lon="6.69694">
        <ele>759</ele>
        <time>2021-06-01T07:54:32Z</time>
      </trkpt>
      <trkpt lat="45.56186" lon="6.69686">
        <ele>759.2</ele>
        <time>2021-06-01T07:54:33Z</time>
      </trkpt>
      <trkpt lat="45.56185" lon="6.69678">
        <ele>759.4</ele>
        <time>2021-06-01T07:54:34Z</time>
      </trkpt>
      <trkpt lat="45.56184" lon="6.6967">
        <ele>759.8</ele>
        <time>2021-06-01T07:54:35Z</time>
      </trkpt>
      <trkpt lat="45.56183" lon="6.69662">
        <ele>760.2</ele>
        <time>2021-06-01T07:54:36Z</time>
      </trkpt>
      <trkpt lat="45.56182" lon="6.69655">
        <ele>760.6</ele>
        <time>2021-06-01T07:54:37Z</time>
      </trkpt>
      <trkpt lat="45.5618" lon="6.69647">
        <ele>760.8</ele>
        <time>2021-06-01T07:54:38Z</time>
      </trkpt>
      <trkpt lat="45.56178" lon="6.69639">
        <ele>761.2</ele>
        <time>2021-06-01T07:54:39Z</time>
      </trkpt>
      <trkpt lat="45.56176" lon="6.69631">
        <ele>761.4</ele>
        <time>2021-06-01T07:54:40Z</time>
      </trkpt>
      <trkpt lat="45.56174" lon="6.69624">
        <ele>761.6</ele>
        <time>2021-06-01T07:54:41Z</time>
      </trkpt>
      <trkpt lat="45.56172" lon="6.69617">
        <ele>762</ele>
        <time>2021-06-01T07:54:42Z</time>
      </trkpt>
      <trkpt lat="45.5617" lon="6.69611">
        <ele>762.2</ele>
        <time>2021-06-01T07:54:43Z</time>
      </trkpt>
      <trkpt lat="45.56168" lon="6.69601">
        <ele>762.6</ele>
        <time>2021-06-01T07:54:44Z</time>
      </trkpt>
      <trkpt lat="45.56167" lon="6.69593">
        <ele>762.8</ele>
        <time>2021-06-01T07:54:45Z</time>
      </trkpt>
      <trkpt lat="45.56165" lon="6.69585">
        <ele>763</ele>
        <time>2021-06-01T07:54:46Z</time>
      </trkpt>
      <trkpt lat="45.56164" lon="6.69578">
        <ele>763.4</ele>
        <time>2021-06-01T07:54:47Z</time>
      </trkpt>
      <trkpt lat="45.56162" lon="6.6957">
        <ele>763.6</ele>
        <time>2021-06-01T07:54:48Z</time>
      </trkpt>
      <trkpt lat="45.5616" lon="6.69562">
        <ele>763.8</ele>
        <time>2021-06-01T07:54:49Z</time>
      </trkpt>
      <trkpt lat="45.56158" lon="6.69554">
        <ele>764</ele>
        <time>2021-06-01T07:54:50Z</time>
      </trkpt>
      <trkpt lat="45.56156" lon="6.69546">
        <ele>764.2</ele>
        <time>2021-06-01T07:54:51Z</time>
      </trkpt>
      <trkpt lat="45.56155" lon="6.69539">
        <ele>764.4</ele>
        <time>2021-06-01T07:54:52Z</time>
      </trkpt>
      <trkpt lat="45.56154" lon="6.69531">
        <ele>764.6</ele>
        <time>2021-06-01T07:54:53Z</time>
      </trkpt>
      <trkpt lat="45.56152" lon="6.69523">
        <ele>765</ele>
        <time>2021-06-01T07:54:54Z</time>
      </trkpt>
      <trkpt lat="45.5615" lon="6.69516">
        <ele>765.2</ele>
        <time>2021-06-01T07:54:55Z</time>
      </trkpt>
      <trkpt lat="45.56148" lon="6.69508">
        <ele>765.4</ele>
        <time>2021-06-01T07:54:56Z</time>
      </trkpt>
      <trkpt lat="45.56148" lon="6.695">
        <ele>765.8</ele>
        <time>2021-06-01T07:54:57Z</time>
      </trkpt>
      <trkpt lat="45.56146" lon="6.69492">
        <ele>766</ele>
        <time>2021-06-01T07:54:58Z</time>
      </trkpt>
      <trkpt lat="45.56144" lon="6.69485">
        <ele>766.4</ele>
        <time>2021-06-01T07:54:59Z</time>
      </trkpt>
      <trkpt lat="45.56143" lon="6.69477">
        <ele>766.6</ele>
        <time>2021-06-01T07:55:00Z</time>
      </trkpt>
      <trkpt lat="45.56143" lon="6.6947">
        <ele>766.8</ele>
        <time>2021-06-01T07:55:01Z</time>
      </trkpt>
      <trkpt lat="45.56144" lon="6.69463">
        <ele>767</ele>
        <time>2021-06-01T07:55:02Z</time>
      </trkpt>
      <trkpt lat="45.56143" lon="6.69457">
        <ele>767.2</ele>
        <time>2021-06-01T07:55:03Z</time>
      </trkpt>
      <trkpt lat="45.56144" lon="6.69449">
        <ele>767.4</ele>
        <time>2021-06-01T07:55:04Z</time>
      </trkpt>
      <trkpt lat="45.56144" lon="6.6944">
        <ele>767.8</ele>
        <time>2021-06-01T07:55:05Z</time>
      </trkpt>
      <trkpt lat="45.56145" lon="6.69432">
        <ele>768.2</ele>
        <time>2021-06-01T07:55:06Z</time>
      </trkpt>
      <trkpt lat="45.56146" lon="6.69424">
        <ele>768.4</ele>
        <time>2021-06-01T07:55:07Z</time>
      </trkpt>
      <trkpt lat="45.56147" lon="6.69416">
        <ele>768.6</ele>
        <time>2021-06-01T07:55:08Z</time>
      </trkpt>
      <trkpt lat="45.5615" lon="6.69406">
        <ele>768.6</ele>
        <time>2021-06-01T07:55:09Z</time>
      </trkpt>
      <trkpt lat="45.5615" lon="6.69398">
        <ele>768.8</ele>
        <time>2021-06-01T07:55:10Z</time>
      </trkpt>
      <trkpt lat="45.56149" lon="6.69391">
        <ele>769</ele>
        <time>2021-06-01T07:55:11Z</time>
      </trkpt>
      <trkpt lat="45.56148" lon="6.69384">
        <ele>769.4</ele>
        <time>2021-06-01T07:55:12Z</time>
      </trkpt>
      <trkpt lat="45.56148" lon="6.69375">
        <ele>769.8</ele>
        <time>2021-06-01T07:55:13Z</time>
      </trkpt>
      <trkpt lat="45.56148" lon="6.69367">
        <ele>770.2</ele>
        <time>2021-06-01T07:55:14Z</time>
      </trkpt>
      <trkpt lat="45.56148" lon="6.69358">
        <ele>770.6</ele>
        <time>2021-06-01T07:55:15Z</time>
      </trkpt>
      <trkpt lat="45.56147" lon="6.69351">
        <ele>771</ele>
        <time>2021-06-01T07:55:16Z</time>
      </trkpt>
      <trkpt lat="45.56147" lon="6.69342">
        <ele>771.2</ele>
        <time>2021-06-01T07:55:17Z</time>
      </trkpt>
      <trkpt lat="45.56146" lon="6.69335">
        <ele>771.6</ele>
        <time>2021-06-01T07:55:18Z</time>
      </trkpt>
      <trkpt lat="45.56145" lon="6.69327">
        <ele>771.8</ele>
        <time>2021-06-01T07:55:19Z</time>
      </trkpt>
      <trkpt lat="45.56144" lon="6.6932">
        <ele>772</ele>
        <time>2021-06-01T07:55:20Z</time>
      </trkpt>
      <trkpt lat="45.56143" lon="6.69312">
        <ele>772.2</ele>
        <time>2021-06-01T07:55:21Z</time>
      </trkpt>
      <trkpt lat="45.56142" lon="6.69304">
        <ele>772.6</ele>
        <time>2021-06-01T07:55:22Z</time>
      </trkpt>
      <trkpt lat="45.5614" lon="6.69297">
        <ele>773.2</ele>
        <time>2021-06-01T07:55:23Z</time>
      </trkpt>
      <trkpt lat="45.5614" lon="6.69289">
        <ele>773.4</ele>
        <time>2021-06-01T07:55:24Z</time>
      </trkpt>
      <trkpt lat="45.56139" lon="6.69281">
        <ele>773.6</ele>
        <time>2021-06-01T07:55:25Z</time>
      </trkpt>
      <trkpt lat="45.56138" lon="6.69273">
        <ele>774</ele>
        <time>2021-06-01T07:55:26Z</time>
      </trkpt>
      <trkpt lat="45.56137" lon="6.69265">
        <ele>774.2</ele>
        <time>2021-06-01T07:55:27Z</time>
      </trkpt>
      <trkpt lat="45.56136" lon="6.69257">
        <ele>774.4</ele>
        <time>2021-06-01T07:55:28Z</time>
      </trkpt>
      <trkpt lat="45.56136" lon="6.69248">
        <ele>774.6</ele>
        <time>2021-06-01T07:55:29Z</time>
      </trkpt>
      <trkpt lat="45.56135" lon="6.6924">
        <ele>775</ele>
        <time>2021-06-01T07:55:30Z</time>
      </trkpt>
      <trkpt lat="45.56134" lon="6.69232">
        <ele>775.2</ele>
        <time>2021-06-01T07:55:31Z</time>
      </trkpt>
      <trkpt lat="45.56134" lon="6.69225">
        <ele>775.4</ele>
        <time>2021-06-01T07:55:32Z</time>
      </trkpt>
      <trkpt lat="45.56133" lon="6.69219">
        <ele>775.6</ele>
        <time>2021-06-01T07:55:33Z</time>
      </trkpt>
      <trkpt lat="45.56132" lon="6.6921">
        <ele>775.8</ele>
        <time>2021-06-01T07:55:34Z</time>
      </trkpt>
      <trkpt lat="45.5613" lon="6.69203">
        <ele>776</ele>
        <time>2021-06-01T07:55:35Z</time>
      </trkpt>
      <trkpt lat="45.56128" lon="6.69196">
        <ele>776.2</ele>
        <time>2021-06-01T07:55:36Z</time>
      </trkpt>
      <trkpt lat="45.56125" lon="6.69189">
        <ele>776.6</ele>
        <time>2021-06-01T07:55:37Z</time>
      </trkpt>
      <trkpt lat="45.56123" lon="6.69182">
        <ele>776.6</ele>
        <time>2021-06-01T07:55:38Z</time>
      </trkpt>
      <trkpt lat="45.5612" lon="6.69174">
        <ele>776.8</ele>
        <time>2021-06-01T07:55:39Z</time>
      </trkpt>
      <trkpt lat="45.56118" lon="6.69167">
        <ele>777</ele>
        <time>2021-06-01T07:55:40Z</time>
      </trkpt>
      <trkpt lat="45.56115" lon="6.69159">
        <ele>777.2</ele>
        <time>2021-06-01T07:55:41Z</time>
      </trkpt>
      <trkpt lat="45.56112" lon="6.69152">
        <ele>777.4</ele>
        <time>2021-06-01T07:55:42Z</time>
      </trkpt>
      <trkpt lat="45.56109" lon="6.69145">
        <ele>777.4</ele>
        <time>2021-06-01T07:55:43Z</time>
      </trkpt>
      <trkpt lat="45.56107" lon="6.69137">
        <ele>777.6</ele>
        <time>2021-06-01T07:55:44Z</time>
      </trkpt>
      <trkpt lat="45.56104" lon="6.6913">
        <ele>777.6</ele>
        <time>2021-06-01T07:55:45Z</time>
      </trkpt>
      <trkpt lat="45.56102" lon="6.69123">
        <ele>778</ele>
        <time>2021-06-01T07:55:46Z</time>
      </trkpt>
      <trkpt lat="45.56099" lon="6.69115">
        <ele>778.2</ele>
        <time>2021-06-01T07:55:47Z</time>
      </trkpt>
      <trkpt lat="45.56097" lon="6.69108">
        <ele>778.6</ele>
        <time>2021-06-01T07:55:48Z</time>
      </trkpt>
      <trkpt lat="45.56095" lon="6.691">
        <ele>778.8</ele>
        <time>2021-06-01T07:55:49Z</time>
      </trkpt>
      <trkpt lat="45.56092" lon="6.69092">
        <ele>779</ele>
        <time>2021-06-01T07:55:50Z</time>
      </trkpt>
      <trkpt lat="45.56088" lon="6.69085">
        <ele>779.4</ele>
        <time>2021-06-01T07:55:51Z</time>
      </trkpt>
      <trkpt lat="45.56085" lon="6.69078">
        <ele>779.6</ele>
        <time>2021-06-01T07:55:52Z</time>
      </trkpt>
      <trkpt lat="45.56082" lon="6.69072">
        <ele>780</ele>
        <time>2021-06-01T07:55:53Z</time>
      </trkpt>
      <trkpt lat="45.56077" lon="6.69065">
        <ele>780</ele>
        <time>2021-06-01T07:55:54Z</time>
      </trkpt>
      <trkpt lat="45.56073" lon="6.69059">
        <ele>780.4</ele>
        <time>2021-06-01T07:55:55Z</time>
      </trkpt>
      <trkpt lat="45.56069" lon="6.69052">
        <ele>780.6</ele>
        <time>2021-06-01T07:55:56Z</time>
      </trkpt>
      <trkpt lat="45.56067" lon="6.69045">
        <ele>780.8</ele>
        <time>2021-06-01T07:55:57Z</time>
      </trkpt>
      <trkpt lat="45.56065" lon="6.69037">
        <ele>780.8</ele>
        <time>2021-06-01T07:55:58Z</time>
      </trkpt>
      <trkpt lat="45.56063" lon="6.69029">
        <ele>781.2</ele>
        <time>2021-06-01T07:55:59Z</time>
      </trkpt>
      <trkpt lat="45.56061" lon="6.69022">
        <ele>781.4</ele>
        <time>2021-06-01T07:56:00Z</time>
      </trkpt>
      <trkpt lat="45.5606" lon="6.69014">
        <ele>781.6</ele>
        <time>2021-06-01T07:56:01Z</time>
      </trkpt>
      <trkpt lat="45.56058" lon="6.69006">
        <ele>782</ele>
        <time>2021-06-01T07:56:02Z</time>
      </trkpt>
      <trkpt lat="45.56056" lon="6.68999">
        <ele>782.2</ele>
        <time>2021-06-01T07:56:03Z</time>
      </trkpt>
      <trkpt lat="45.56052" lon="6.68992">
        <ele>782.4</ele>
        <time>2021-06-01T07:56:04Z</time>
      </trkpt>
      <trkpt lat="45.5605" lon="6.68985">
        <ele>782.6</ele>
        <time>2021-06-01T07:56:05Z</time>
      </trkpt>
      <trkpt lat="45.56047" lon="6.68978">
        <ele>782.8</ele>
        <time>2021-06-01T07:56:06Z</time>
      </trkpt>
      <trkpt lat="45.56044" lon="6.68971">
        <ele>783</ele>
        <time>2021-06-01T07:56:07Z</time>
      </trkpt>
      <trkpt lat="45.56041" lon="6.68964">
        <ele>783.4</ele>
        <time>2021-06-01T07:56:08Z</time>
      </trkpt>
      <trkpt lat="45.56039" lon="6.68957">
        <ele>783.6</ele>
        <time>2021-06-01T07:56:09Z</time>
      </trkpt>
      <trkpt lat="45.56036" lon="6.68951">
        <ele>784</ele>
        <time>2021-06-01T07:56:10Z</time>
      </trkpt>
      <trkpt lat="45.56033" lon="6.68944">
        <ele>784</ele>
        <time>2021-06-01T07:56:11Z</time>
      </trkpt>
      <trkpt lat="45.56031" lon="6.68936">
        <ele>784.4</ele>
        <time>2021-06-01T07:56:12Z</time>
      </trkpt>
      <trkpt lat="45.56028" lon="6.68929">
        <ele>784.6</ele>
        <time>2021-06-01T07:56:13Z</time>
      </trkpt>
      <trkpt lat="45.56025" lon="6.68922">
        <ele>785</ele>
        <time>2021-06-01T07:56:14Z</time>
      </trkpt>
      <trkpt lat="45.56022" lon="6.68915">
        <ele>785.2</ele>
        <time>2021-06-01T07:56:15Z</time>
      </trkpt>
      <trkpt lat="45.56018" lon="6.68908">
        <ele>785.4</ele>
        <time>2021-06-01T07:56:16Z</time>
      </trkpt>
      <trkpt lat="45.56014" lon="6.68902">
        <ele>785.6</ele>
        <time>2021-06-01T07:56:17Z</time>
      </trkpt>
      <trkpt lat="45.56011" lon="6.68896">
        <ele>785.8</ele>
        <time>2021-06-01T07:56:18Z</time>
      </trkpt>
      <trkpt lat="45.56006" lon="6.6889">
        <ele>785.8</ele>
        <time>2021-06-01T07:56:19Z</time>
      </trkpt>
      <trkpt lat="45.56001" lon="6.68885">
        <ele>786.2</ele>
        <time>2021-06-01T07:56:20Z</time>
      </trkpt>
      <trkpt lat="45.55996" lon="6.6888">
        <ele>786.4</ele>
        <time>2021-06-01T07:56:21Z</time>
      </trkpt>
      <trkpt lat="45.55991" lon="6.68875">
        <ele>786.4</ele>
        <time>2021-06-01T07:56:22Z</time>
      </trkpt>
      <trkpt lat="45.55987" lon="6.6887">
        <ele>786.6</ele>
        <time>2021-06-01T07:56:23Z</time>
      </trkpt>
      <trkpt lat="45.55981" lon="6.68865">
        <ele>786.8</ele>
        <time>2021-06-01T07:56:24Z</time>
      </trkpt>
      <trkpt lat="45.55977" lon="6.68859">
        <ele>787.2</ele>
        <time>2021-06-01T07:56:25Z</time>
      </trkpt>
      <trkpt lat="45.55973" lon="6.68855">
        <ele>787.4</ele>
        <time>2021-06-01T07:56:26Z</time>
      </trkpt>
      <trkpt lat="45.55968" lon="6.68848">
        <ele>787.4</ele>
        <time>2021-06-01T07:56:27Z</time>
      </trkpt>
      <trkpt lat="45.55964" lon="6.68842">
        <ele>787.6</ele>
        <time>2021-06-01T07:56:28Z</time>
      </trkpt>
      <trkpt lat="45.5596" lon="6.68836">
        <ele>787.8</ele>
        <time>2021-06-01T07:56:29Z</time>
      </trkpt>
      <trkpt lat="45.55955" lon="6.6883">
        <ele>788</ele>
        <time>2021-06-01T07:56:30Z</time>
      </trkpt>
      <trkpt lat="45.55951" lon="6.68826">
        <ele>788.4</ele>
        <time>2021-06-01T07:56:31Z</time>
      </trkpt>
      <trkpt lat="45.55947" lon="6.68821">
        <ele>788.6</ele>
        <time>2021-06-01T07:56:32Z</time>
      </trkpt>
      <trkpt lat="45.55943" lon="6.68816">
        <ele>788.6</ele>
        <time>2021-06-01T07:56:33Z</time>
      </trkpt>
      <trkpt lat="45.55938" lon="6.68811">
        <ele>788.8</ele>
        <time>2021-06-01T07:56:34Z</time>
      </trkpt>
      <trkpt lat="45.55934" lon="6.68805">
        <ele>789.4</ele>
        <time>2021-06-01T07:56:35Z</time>
      </trkpt>
      <trkpt lat="45.55932" lon="6.688">
        <ele>789.4</ele>
        <time>2021-06-01T07:56:36Z</time>
      </trkpt>
      <trkpt lat="45.55926" lon="6.68793">
        <ele>789.4</ele>
        <time>2021-06-01T07:56:37Z</time>
      </trkpt>
      <trkpt lat="45.55923" lon="6.68787">
        <ele>789.6</ele>
        <time>2021-06-01T07:56:38Z</time>
      </trkpt>
      <trkpt lat="45.55919" lon="6.68781">
        <ele>790</ele>
        <time>2021-06-01T07:56:39Z</time>
      </trkpt>
      <trkpt lat="45.55916" lon="6.68775">
        <ele>790.2</ele>
        <time>2021-06-01T07:56:40Z</time>
      </trkpt>
      <trkpt lat="45.55912" lon="6.68768">
        <ele>790.4</ele>
        <time>2021-06-01T07:56:41Z</time>
      </trkpt>
      <trkpt lat="45.55908" lon="6.68762">
        <ele>790.4</ele>
        <time>2021-06-01T07:56:42Z</time>
      </trkpt>
      <trkpt lat="45.55905" lon="6.68756">
        <ele>790.4</ele>
        <time>2021-06-01T07:56:43Z</time>
      </trkpt>
      <trkpt lat="45.55901" lon="6.68749">
        <ele>790.6</ele>
        <time>2021-06-01T07:56:44Z</time>
      </trkpt>
      <trkpt lat="45.55898" lon="6.68743">
        <ele>790.8</ele>
        <time>2021-06-01T07:56:45Z</time>
      </trkpt>
      <trkpt lat="45.55894" lon="6.68737">
        <ele>791</ele>
        <time>2021-06-01T07:56:46Z</time>
      </trkpt>
      <trkpt lat="45.55891" lon="6.68731">
        <ele>791.2</ele>
        <time>2021-06-01T07:56:47Z</time>
      </trkpt>
      <trkpt lat="45.55886" lon="6.68725">
        <ele>791.4</ele>
        <time>2021-06-01T07:56:48Z</time>
      </trkpt>
      <trkpt lat="45.55882" lon="6.6872">
        <ele>791.6</ele>
        <time>2021-06-01T07:56:49Z</time>
      </trkpt>
      <trkpt lat="45.55878" lon="6.68713">
        <ele>791.8</ele>
        <time>2021-06-01T07:56:50Z</time>
      </trkpt>
      <trkpt lat="45.55874" lon="6.68708">
        <ele>792</ele>
        <time>2021-06-01T07:56:51Z</time>
      </trkpt>
      <trkpt lat="45.5587" lon="6.68702">
        <ele>792.2</ele>
        <time>2021-06-01T07:56:52Z</time>
      </trkpt>
      <trkpt lat="45.55865" lon="6.68697">
        <ele>792.4</ele>
        <time>2021-06-01T07:56:53Z</time>
      </trkpt>
      <trkpt lat="45.5586" lon="6.68691">
        <ele>792.6</ele>
        <time>2021-06-01T07:56:54Z</time>
      </trkpt>
      <trkpt lat="45.55856" lon="6.68686">
        <ele>792.8</ele>
        <time>2021-06-01T07:56:55Z</time>
      </trkpt>
      <trkpt lat="45.55852" lon="6.68681">
        <ele>793</ele>
        <time>2021-06-01T07:56:56Z</time>
      </trkpt>
      <trkpt lat="45.55848" lon="6.68676">
        <ele>793</ele>
        <time>2021-06-01T07:56:57Z</time>
      </trkpt>
      <trkpt lat="45.55844" lon="6.6867">
        <ele>793.4</ele>
        <time>2021-06-01T07:56:58Z</time>
      </trkpt>
      <trkpt lat="45.5584" lon="6.68665">
        <ele>793.6</ele>
        <time>2021-06-01T07:56:59Z</time>
      </trkpt>
      <trkpt lat="45.55836" lon="6.68659">
        <ele>794</ele>
        <time>2021-06-01T07:57:00Z</time>
      </trkpt>
      <trkpt lat="45.55832" lon="6.68653">
        <ele>794.2</ele>
        <time>2021-06-01T07:57:01Z</time>
      </trkpt>
      <trkpt lat="45.55829" lon="6.68647">
        <ele>794.2</ele>
        <time>2021-06-01T07:57:02Z</time>
      </trkpt>
      <trkpt lat="45.55825" lon="6.6864">
        <ele>794.4</ele>
        <time>2021-06-01T07:57:03Z</time>
      </trkpt>
      <trkpt lat="45.55822" lon="6.68633">
        <ele>794.6</ele>
        <time>2021-06-01T07:57:04Z</time>
      </trkpt>
      <trkpt lat="45.55817" lon="6.68627">
        <ele>795</ele>
        <time>2021-06-01T07:57:05Z</time>
      </trkpt>
      <trkpt lat="45.55814" lon="6.6862">
        <ele>795.2</ele>
        <time>2021-06-01T07:57:06Z</time>
      </trkpt>
      <trkpt lat="45.55811" lon="6.68613">
        <ele>795.4</ele>
        <time>2021-06-01T07:57:07Z</time>
      </trkpt>
      <trkpt lat="45.55807" lon="6.68607">
        <ele>795.6</ele>
        <time>2021-06-01T07:57:08Z</time>
      </trkpt>
      <trkpt lat="45.55804" lon="6.686">
        <ele>795.8</ele>
        <time>2021-06-01T07:57:09Z</time>
      </trkpt>
      <trkpt lat="45.558" lon="6.68594">
        <ele>796</ele>
        <time>2021-06-01T07:57:10Z</time>
      </trkpt>
      <trkpt lat="45.55796" lon="6.68588">
        <ele>796.2</ele>
        <time>2021-06-01T07:57:11Z</time>
      </trkpt>
      <trkpt lat="45.55792" lon="6.68582">
        <ele>796.6</ele>
        <time>2021-06-01T07:57:12Z</time>
      </trkpt>
      <trkpt lat="45.55789" lon="6.68576">
        <ele>796.6</ele>
        <time>2021-06-01T07:57:13Z</time>
      </trkpt>
      <trkpt lat="45.55785" lon="6.6857">
        <ele>797</ele>
        <time>2021-06-01T07:57:14Z</time>
      </trkpt>
      <trkpt lat="45.55781" lon="6.68564">
        <ele>797.2</ele>
        <time>2021-06-01T07:57:15Z</time>
      </trkpt>
      <trkpt lat="45.55777" lon="6.68558">
        <ele>797.4</ele>
        <time>2021-06-01T07:57:16Z</time>
      </trkpt>
      <trkpt lat="45.55774" lon="6.68551">
        <ele>797.8</ele>
        <time>2021-06-01T07:57:17Z</time>
      </trkpt>
      <trkpt lat="45.55771" lon="6.68545">
        <ele>798</ele>
        <time>2021-06-01T07:57:18Z</time>
      </trkpt>
      <trkpt lat="45.55767" lon="6.68539">
        <ele>798.2</ele>
        <time>2021-06-01T07:57:19Z</time>
      </trkpt>
      <trkpt lat="45.55765" lon="6.68532">
        <ele>798.4</ele>
        <time>2021-06-01T07:57:20Z</time>
      </trkpt>
      <trkpt lat="45.55762" lon="6.68525">
        <ele>798.6</ele>
        <time>2021-06-01T07:57:21Z</time>
      </trkpt>
      <trkpt lat="45.5576" lon="6.68518">
        <ele>799</ele>
        <time>2021-06-01T07:57:22Z</time>
      </trkpt>
      <trkpt lat="45.55757" lon="6.68511">
        <ele>799.2</ele>
        <time>2021-06-01T07:57:23Z</time>
      </trkpt>
      <trkpt lat="45.55755" lon="6.68503">
        <ele>799.4</ele>
        <time>2021-06-01T07:57:24Z</time>
      </trkpt>
      <trkpt lat="45.55753" lon="6.68496">
        <ele>799.4</ele>
        <time>2021-06-01T07:57:25Z</time>
      </trkpt>
      <trkpt lat="45.55751" lon="6.68488">
        <ele>799.6</ele>
        <time>2021-06-01T07:57:26Z</time>
      </trkpt>
      <trkpt lat="45.55748" lon="6.6848">
        <ele>799.8</ele>
        <time>2021-06-01T07:57:27Z</time>
      </trkpt>
      <trkpt lat="45.55745" lon="6.68472">
        <ele>799.8</ele>
        <time>2021-06-01T07:57:28Z</time>
      </trkpt>
      <trkpt lat="45.55741" lon="6.68465">
        <ele>799.8</ele>
        <time>2021-06-01T07:57:29Z</time>
      </trkpt>
      <trkpt lat="45.55739" lon="6.68457">
        <ele>799.8</ele>
        <time>2021-06-01T07:57:30Z</time>
      </trkpt>
      <trkpt lat="45.55735" lon="6.68449">
        <ele>800</ele>
        <time>2021-06-01T07:57:31Z</time>
      </trkpt>
      <trkpt lat="45.55732" lon="6.68442">
        <ele>800</ele>
        <time>2021-06-01T07:57:32Z</time>
      </trkpt>
      <trkpt lat="45.55729" lon="6.68435">
        <ele>800</ele>
        <time>2021-06-01T07:57:33Z</time>
      </trkpt>
      <trkpt lat="45.55724" lon="6.68429">
        <ele>800</ele>
        <time>2021-06-01T07:57:34Z</time>
      </trkpt>
      <trkpt lat="45.55719" lon="6.68423">
        <ele>800</ele>
        <time>2021-06-01T07:57:35Z</time>
      </trkpt>
      <trkpt lat="45.55714" lon="6.68418">
        <ele>800</ele>
        <time>2021-06-01T07:57:36Z</time>
      </trkpt>
      <trkpt lat="45.55709" lon="6.68413">
        <ele>800.2</ele>
        <time>2021-06-01T07:57:37Z</time>
      </trkpt>
      <trkpt lat="45.55704" lon="6.68409">
        <ele>800.2</ele>
        <time>2021-06-01T07:57:38Z</time>
      </trkpt>
      <trkpt lat="45.55698" lon="6.68405">
        <ele>800.4</ele>
        <time>2021-06-01T07:57:39Z</time>
      </trkpt>
      <trkpt lat="45.55693" lon="6.68401">
        <ele>800.8</ele>
        <time>2021-06-01T07:57:40Z</time>
      </trkpt>
      <trkpt lat="45.5569" lon="6.68396">
        <ele>801.4</ele>
        <time>2021-06-01T07:57:41Z</time>
      </trkpt>
      <trkpt lat="45.55686" lon="6.6839">
        <ele>801.6</ele>
        <time>2021-06-01T07:57:42Z</time>
      </trkpt>
      <trkpt lat="45.55684" lon="6.68383">
        <ele>802</ele>
        <time>2021-06-01T07:57:43Z</time>
      </trkpt>
      <trkpt lat="45.55684" lon="6.68375">
        <ele>802</ele>
        <time>2021-06-01T07:57:44Z</time>
      </trkpt>
      <trkpt lat="45.55683" lon="6.68366">
        <ele>802.2</ele>
        <time>2021-06-01T07:57:45Z</time>
      </trkpt>
      <trkpt lat="45.55683" lon="6.68358">
        <ele>802</ele>
        <time>2021-06-01T07:57:46Z</time>
      </trkpt>
      <trkpt lat="45.55683" lon="6.6835">
        <ele>802</ele>
        <time>2021-06-01T07:57:47Z</time>
      </trkpt>
      <trkpt lat="45.55683" lon="6.68342">
        <ele>802</ele>
        <time>2021-06-01T07:57:48Z</time>
      </trkpt>
      <trkpt lat="45.55682" lon="6.68333">
        <ele>802</ele>
        <time>2021-06-01T07:57:49Z</time>
      </trkpt>
      <trkpt lat="45.5568" lon="6.68325">
        <ele>801.8</ele>
        <time>2021-06-01T07:57:50Z</time>
      </trkpt>
      <trkpt lat="45.55677" lon="6.68317">
        <ele>801.8</ele>
        <time>2021-06-01T07:57:51Z</time>
      </trkpt>
      <trkpt lat="45.55676" lon="6.68308">
        <ele>801.8</ele>
        <time>2021-06-01T07:57:52Z</time>
      </trkpt>
      <trkpt lat="45.55672" lon="6.683">
        <ele>801.8</ele>
        <time>2021-06-01T07:57:53Z</time>
      </trkpt>
      <trkpt lat="45.55668" lon="6.68293">
        <ele>801.8</ele>
        <time>2021-06-01T07:57:54Z</time>
      </trkpt>
      <trkpt lat="45.55664" lon="6.68285">
        <ele>801.8</ele>
        <time>2021-06-01T07:57:55Z</time>
      </trkpt>
      <trkpt lat="45.5566" lon="6.68278">
        <ele>802</ele>
        <time>2021-06-01T07:57:56Z</time>
      </trkpt>
      <trkpt lat="45.55655" lon="6.68272">
        <ele>802</ele>
        <time>2021-06-01T07:57:57Z</time>
      </trkpt>
      <trkpt lat="45.5565" lon="6.68265">
        <ele>801.6</ele>
        <time>2021-06-01T07:57:58Z</time>
      </trkpt>
      <trkpt lat="45.55645" lon="6.6826">
        <ele>801.4</ele>
        <time>2021-06-01T07:57:59Z</time>
      </trkpt>
      <trkpt lat="45.5564" lon="6.68253">
        <ele>800.8</ele>
        <time>2021-06-01T07:58:00Z</time>
      </trkpt>
      <trkpt lat="45.55634" lon="6.68249">
        <ele>801.2</ele>
        <time>2021-06-01T07:58:01Z</time>
      </trkpt>
      <trkpt lat="45.55629" lon="6.68244">
        <ele>801.6</ele>
        <time>2021-06-01T07:58:02Z</time>
      </trkpt>
      <trkpt lat="45.55622" lon="6.68236">
        <ele>801.8</ele>
        <time>2021-06-01T07:58:03Z</time>
      </trkpt>
      <trkpt lat="45.55618" lon="6.68228">
        <ele>801.6</ele>
        <time>2021-06-01T07:58:04Z</time>
      </trkpt>
      <trkpt lat="45.55614" lon="6.6822">
        <ele>801.6</ele>
        <time>2021-06-01T07:58:05Z</time>
      </trkpt>
      <trkpt lat="45.5561" lon="6.68212">
        <ele>801.2</ele>
        <time>2021-06-01T07:58:06Z</time>
      </trkpt>
      <trkpt lat="45.55605" lon="6.68203">
        <ele>801.2</ele>
        <time>2021-06-01T07:58:07Z</time>
      </trkpt>
      <trkpt lat="45.556" lon="6.68194">
        <ele>800.8</ele>
        <time>2021-06-01T07:58:08Z</time>
      </trkpt>
      <trkpt lat="45.55596" lon="6.68185">
        <ele>800.4</ele>
        <time>2021-06-01T07:58:09Z</time>
      </trkpt>
      <trkpt lat="45.55591" lon="6.68175">
        <ele>800</ele>
        <time>2021-06-01T07:58:10Z</time>
      </trkpt>
      <trkpt lat="45.55586" lon="6.68166">
        <ele>799.6</ele>
        <time>2021-06-01T07:58:11Z</time>
      </trkpt>
      <trkpt lat="45.5558" lon="6.68157">
        <ele>799</ele>
        <time>2021-06-01T07:58:12Z</time>
      </trkpt>
      <trkpt lat="45.55575" lon="6.68148">
        <ele>798.6</ele>
        <time>2021-06-01T07:58:13Z</time>
      </trkpt>
      <trkpt lat="45.55571" lon="6.6814">
        <ele>798</ele>
        <time>2021-06-01T07:58:14Z</time>
      </trkpt>
      <trkpt lat="45.55564" lon="6.68128">
        <ele>797.6</ele>
        <time>2021-06-01T07:58:15Z</time>
      </trkpt>
      <trkpt lat="45.55558" lon="6.68119">
        <ele>797</ele>
        <time>2021-06-01T07:58:16Z</time>
      </trkpt>
      <trkpt lat="45.55552" lon="6.68109">
        <ele>796.6</ele>
        <time>2021-06-01T07:58:17Z</time>
      </trkpt>
      <trkpt lat="45.55547" lon="6.68099">
        <ele>796.2</ele>
        <time>2021-06-01T07:58:18Z</time>
      </trkpt>
      <trkpt lat="45.55542" lon="6.68088">
        <ele>795.6</ele>
        <time>2021-06-01T07:58:19Z</time>
      </trkpt>
      <trkpt lat="45.55536" lon="6.68077">
        <ele>795</ele>
        <time>2021-06-01T07:58:20Z</time>
      </trkpt>
      <trkpt lat="45.55531" lon="6.68067">
        <ele>794.4</ele>
        <time>2021-06-01T07:58:21Z</time>
      </trkpt>
      <trkpt lat="45.55525" lon="6.68056">
        <ele>793.2</ele>
        <time>2021-06-01T07:58:22Z</time>
      </trkpt>
      <trkpt lat="45.55519" lon="6.68045">
        <ele>792.8</ele>
        <time>2021-06-01T07:58:23Z</time>
      </trkpt>
      <trkpt lat="45.55514" lon="6.68033">
        <ele>792.6</ele>
        <time>2021-06-01T07:58:24Z</time>
      </trkpt>
      <trkpt lat="45.55509" lon="6.68021">
        <ele>792.2</ele>
        <time>2021-06-01T07:58:25Z</time>
      </trkpt>
      <trkpt lat="45.55505" lon="6.68009">
        <ele>791.8</ele>
        <time>2021-06-01T07:58:26Z</time>
      </trkpt>
      <trkpt lat="45.555" lon="6.67997">
        <ele>791.2</ele>
        <time>2021-06-01T07:58:27Z</time>
      </trkpt>
      <trkpt lat="45.55495" lon="6.67984">
        <ele>791</ele>
        <time>2021-06-01T07:58:28Z</time>
      </trkpt>
      <trkpt lat="45.55491" lon="6.67971">
        <ele>790.6</ele>
        <time>2021-06-01T07:58:29Z</time>
      </trkpt>
      <trkpt lat="45.55487" lon="6.67958">
        <ele>790.4</ele>
        <time>2021-06-01T07:58:30Z</time>
      </trkpt>
      <trkpt lat="45.55482" lon="6.67945">
        <ele>790</ele>
        <time>2021-06-01T07:58:31Z</time>
      </trkpt>
      <trkpt lat="45.55477" lon="6.67933">
        <ele>789.6</ele>
        <time>2021-06-01T07:58:32Z</time>
      </trkpt>
      <trkpt lat="45.55471" lon="6.67921">
        <ele>789.2</ele>
        <time>2021-06-01T07:58:33Z</time>
      </trkpt>
      <trkpt lat="45.55465" lon="6.67908">
        <ele>788.8</ele>
        <time>2021-06-01T07:58:34Z</time>
      </trkpt>
      <trkpt lat="45.5546" lon="6.67895">
        <ele>788.4</ele>
        <time>2021-06-01T07:58:35Z</time>
      </trkpt>
      <trkpt lat="45.55454" lon="6.67882">
        <ele>787.8</ele>
        <time>2021-06-01T07:58:36Z</time>
      </trkpt>
      <trkpt lat="45.55448" lon="6.67869">
        <ele>787.4</ele>
        <time>2021-06-01T07:58:37Z</time>
      </trkpt>
      <trkpt lat="45.55443" lon="6.67856">
        <ele>787.4</ele>
        <time>2021-06-01T07:58:38Z</time>
      </trkpt>
      <trkpt lat="45.55438" lon="6.67843">
        <ele>787</ele>
        <time>2021-06-01T07:58:39Z</time>
      </trkpt>
      <trkpt lat="45.55433" lon="6.67832">
        <ele>786.8</ele>
        <time>2021-06-01T07:58:40Z</time>
      </trkpt>
      <trkpt lat="45.55428" lon="6.67816">
        <ele>786.4</ele>
        <time>2021-06-01T07:58:41Z</time>
      </trkpt>
      <trkpt lat="45.55424" lon="6.67802">
        <ele>786</ele>
        <time>2021-06-01T07:58:42Z</time>
      </trkpt>
      <trkpt lat="45.55422" lon="6.67788">
        <ele>785.6</ele>
        <time>2021-06-01T07:58:43Z</time>
      </trkpt>
      <trkpt lat="45.5542" lon="6.67774">
        <ele>785.6</ele>
        <time>2021-06-01T07:58:44Z</time>
      </trkpt>
      <trkpt lat="45.55419" lon="6.67761">
        <ele>785.2</ele>
        <time>2021-06-01T07:58:45Z</time>
      </trkpt>
      <trkpt lat="45.55418" lon="6.67747">
        <ele>785</ele>
        <time>2021-06-01T07:58:46Z</time>
      </trkpt>
      <trkpt lat="45.55417" lon="6.67733">
        <ele>784.8</ele>
        <time>2021-06-01T07:58:47Z</time>
      </trkpt>
      <trkpt lat="45.55418" lon="6.67719">
        <ele>784.2</ele>
        <time>2021-06-01T07:58:48Z</time>
      </trkpt>
      <trkpt lat="45.55422" lon="6.67704">
        <ele>783.6</ele>
        <time>2021-06-01T07:58:49Z</time>
      </trkpt>
      <trkpt lat="45.55427" lon="6.67689">
        <ele>783</ele>
        <time>2021-06-01T07:58:50Z</time>
      </trkpt>
      <trkpt lat="45.55431" lon="6.67675">
        <ele>782.6</ele>
        <time>2021-06-01T07:58:51Z</time>
      </trkpt>
      <trkpt lat="45.55436" lon="6.67662">
        <ele>782.2</ele>
        <time>2021-06-01T07:58:52Z</time>
      </trkpt>
      <trkpt lat="45.55438" lon="6.67647">
        <ele>781.8</ele>
        <time>2021-06-01T07:58:53Z</time>
      </trkpt>
      <trkpt lat="45.55438" lon="6.67633">
        <ele>781.4</ele>
        <time>2021-06-01T07:58:54Z</time>
      </trkpt>
      <trkpt lat="45.55437" lon="6.6762">
        <ele>781</ele>
        <time>2021-06-01T07:58:55Z</time>
      </trkpt>
      <trkpt lat="45.55436" lon="6.67605">
        <ele>780.8</ele>
        <time>2021-06-01T07:58:56Z</time>
      </trkpt>
      <trkpt lat="45.55435" lon="6.67591">
        <ele>780.6</ele>
        <time>2021-06-01T07:58:57Z</time>
      </trkpt>
      <trkpt lat="45.55432" lon="6.67578">
        <ele>780.4</ele>
        <time>2021-06-01T07:58:58Z</time>
      </trkpt>
      <trkpt lat="45.55429" lon="6.67565">
        <ele>780.4</ele>
        <time>2021-06-01T07:58:59Z</time>
      </trkpt>
      <trkpt lat="45.55426" lon="6.67553">
        <ele>780.2</ele>
        <time>2021-06-01T07:59:00Z</time>
      </trkpt>
      <trkpt lat="45.55424" lon="6.6754">
        <ele>780.2</ele>
        <time>2021-06-01T07:59:01Z</time>
      </trkpt>
      <trkpt lat="45.55423" lon="6.67527">
        <ele>780</ele>
        <time>2021-06-01T07:59:02Z</time>
      </trkpt>
      <trkpt lat="45.55421" lon="6.67514">
        <ele>779.8</ele>
        <time>2021-06-01T07:59:03Z</time>
      </trkpt>
      <trkpt lat="45.55419" lon="6.67501">
        <ele>779.4</ele>
        <time>2021-06-01T07:59:04Z</time>
      </trkpt>
      <trkpt lat="45.55417" lon="6.67488">
        <ele>778.8</ele>
        <time>2021-06-01T07:59:05Z</time>
      </trkpt>
      <trkpt lat="45.55413" lon="6.67475">
        <ele>777.8</ele>
        <time>2021-06-01T07:59:06Z</time>
      </trkpt>
      <trkpt lat="45.55408" lon="6.67461">
        <ele>777</ele>
        <time>2021-06-01T07:59:07Z</time>
      </trkpt>
      <trkpt lat="45.55405" lon="6.67448">
        <ele>776.2</ele>
        <time>2021-06-01T07:59:08Z</time>
      </trkpt>
      <trkpt lat="45.55402" lon="6.67434">
        <ele>775.8</ele>
        <time>2021-06-01T07:59:09Z</time>
      </trkpt>
      <trkpt lat="45.55401" lon="6.6742">
        <ele>775.2</ele>
        <time>2021-06-01T07:59:10Z</time>
      </trkpt>
      <trkpt lat="45.55401" lon="6.67406">
        <ele>774.6</ele>
        <time>2021-06-01T07:59:11Z</time>
      </trkpt>
      <trkpt lat="45.55401" lon="6.67392">
        <ele>773.6</ele>
        <time>2021-06-01T07:59:12Z</time>
      </trkpt>
      <trkpt lat="45.55401" lon="6.67381">
        <ele>772.8</ele>
        <time>2021-06-01T07:59:13Z</time>
      </trkpt>
      <trkpt lat="45.554" lon="6.67369">
        <ele>772.2</ele>
        <time>2021-06-01T07:59:14Z</time>
      </trkpt>
      <trkpt lat="45.554" lon="6.67359">
        <ele>771.6</ele>
        <time>2021-06-01T07:59:15Z</time>
      </trkpt>
      <trkpt lat="45.554" lon="6.67349">
        <ele>771.4</ele>
        <time>2021-06-01T07:59:16Z</time>
      </trkpt>
      <trkpt lat="45.55398" lon="6.67339">
        <ele>770.6</ele>
        <time>2021-06-01T07:59:17Z</time>
      </trkpt>
      <trkpt lat="45.55397" lon="6.6733">
        <ele>770.2</ele>
        <time>2021-06-01T07:59:18Z</time>
      </trkpt>
      <trkpt lat="45.55394" lon="6.6732">
        <ele>769.8</ele>
        <time>2021-06-01T07:59:19Z</time>
      </trkpt>
      <trkpt lat="45.5539" lon="6.6731">
        <ele>769.4</ele>
        <time>2021-06-01T07:59:20Z</time>
      </trkpt>
      <trkpt lat="45.55387" lon="6.673">
        <ele>769</ele>
        <time>2021-06-01T07:59:21Z</time>
      </trkpt>
      <trkpt lat="45.55383" lon="6.6729">
        <ele>768.4</ele>
        <time>2021-06-01T07:59:22Z</time>
      </trkpt>
      <trkpt lat="45.5538" lon="6.67279">
        <ele>768.4</ele>
        <time>2021-06-01T07:59:23Z</time>
      </trkpt>
      <trkpt lat="45.55376" lon="6.67269">
        <ele>768</ele>
        <time>2021-06-01T07:59:24Z</time>
      </trkpt>
      <trkpt lat="45.55372" lon="6.67257">
        <ele>767.8</ele>
        <time>2021-06-01T07:59:25Z</time>
      </trkpt>
      <trkpt lat="45.55366" lon="6.67247">
        <ele>767.6</ele>
        <time>2021-06-01T07:59:26Z</time>
      </trkpt>
      <trkpt lat="45.55361" lon="6.67237">
        <ele>767.4</ele>
        <time>2021-06-01T07:59:27Z</time>
      </trkpt>
      <trkpt lat="45.55356" lon="6.67228">
        <ele>767</ele>
        <time>2021-06-01T07:59:28Z</time>
      </trkpt>
      <trkpt lat="45.5535" lon="6.67218">
        <ele>766.6</ele>
        <time>2021-06-01T07:59:29Z</time>
      </trkpt>
      <trkpt lat="45.55345" lon="6.67209">
        <ele>766.2</ele>
        <time>2021-06-01T07:59:30Z</time>
      </trkpt>
      <trkpt lat="45.5534" lon="6.67199">
        <ele>765.8</ele>
        <time>2021-06-01T07:59:31Z</time>
      </trkpt>
      <trkpt lat="45.55334" lon="6.67189">
        <ele>765.4</ele>
        <time>2021-06-01T07:59:32Z</time>
      </trkpt>
      <trkpt lat="45.55329" lon="6.6718">
        <ele>765</ele>
        <time>2021-06-01T07:59:33Z</time>
      </trkpt>
      <trkpt lat="45.55324" lon="6.6717">
        <ele>764.8</ele>
        <time>2021-06-01T07:59:34Z</time>
      </trkpt>
      <trkpt lat="45.55318" lon="6.67161">
        <ele>764.2</ele>
        <time>2021-06-01T07:59:35Z</time>
      </trkpt>
      <trkpt lat="45.55312" lon="6.67152">
        <ele>763.8</ele>
        <time>2021-06-01T07:59:36Z</time>
      </trkpt>
      <trkpt lat="45.55307" lon="6.67142">
        <ele>763.2</ele>
        <time>2021-06-01T07:59:37Z</time>
      </trkpt>
      <trkpt lat="45.55301" lon="6.67132">
        <ele>762.8</ele>
        <time>2021-06-01T07:59:38Z</time>
      </trkpt>
      <trkpt lat="45.55295" lon="6.67122">
        <ele>762.2</ele>
        <time>2021-06-01T07:59:39Z</time>
      </trkpt>
      <trkpt lat="45.5529" lon="6.67111">
        <ele>761.6</ele>
        <time>2021-06-01T07:59:40Z</time>
      </trkpt>
      <trkpt lat="45.55283" lon="6.67101">
        <ele>761</ele>
        <time>2021-06-01T07:59:41Z</time>
      </trkpt>
      <trkpt lat="45.55276" lon="6.67091">
        <ele>760.6</ele>
        <time>2021-06-01T07:59:42Z</time>
      </trkpt>
      <trkpt lat="45.5527" lon="6.6708">
        <ele>759.8</ele>
        <time>2021-06-01T07:59:43Z</time>
      </trkpt>
      <trkpt lat="45.55264" lon="6.67067">
        <ele>759</ele>
        <time>2021-06-01T07:59:44Z</time>
      </trkpt>
      <trkpt lat="45.55258" lon="6.67055">
        <ele>758.4</ele>
        <time>2021-06-01T07:59:45Z</time>
      </trkpt>
      <trkpt lat="45.55251" lon="6.67044">
        <ele>757.6</ele>
        <time>2021-06-01T07:59:46Z</time>
      </trkpt>
      <trkpt lat="45.55244" lon="6.67032">
        <ele>757.2</ele>
        <time>2021-06-01T07:59:47Z</time>
      </trkpt>
      <trkpt lat="45.55236" lon="6.67021">
        <ele>756.8</ele>
        <time>2021-06-01T07:59:48Z</time>
      </trkpt>
      <trkpt lat="45.55228" lon="6.67011">
        <ele>756</ele>
        <time>2021-06-01T07:59:49Z</time>
      </trkpt>
      <trkpt lat="45.55219" lon="6.67">
        <ele>755.4</ele>
        <time>2021-06-01T07:59:50Z</time>
      </trkpt>
      <trkpt lat="45.55211" lon="6.66991">
        <ele>754.4</ele>
        <time>2021-06-01T07:59:51Z</time>
      </trkpt>
      <trkpt lat="45.55201" lon="6.66981">
        <ele>754.2</ele>
        <time>2021-06-01T07:59:52Z</time>
      </trkpt>
      <trkpt lat="45.55192" lon="6.66971">
        <ele>753.4</ele>
        <time>2021-06-01T07:59:53Z</time>
      </trkpt>
      <trkpt lat="45.55183" lon="6.6696">
        <ele>753</ele>
        <time>2021-06-01T07:59:54Z</time>
      </trkpt>
      <trkpt lat="45.55174" lon="6.6695">
        <ele>752.2</ele>
        <time>2021-06-01T07:59:55Z</time>
      </trkpt>
      <trkpt lat="45.55166" lon="6.66938">
        <ele>751</ele>
        <time>2021-06-01T07:59:56Z</time>
      </trkpt>
      <trkpt lat="45.55158" lon="6.66925">
        <ele>749.8</ele>
        <time>2021-06-01T07:59:57Z</time>
      </trkpt>
      <trkpt lat="45.55151" lon="6.66913">
        <ele>749</ele>
        <time>2021-06-01T07:59:58Z</time>
      </trkpt>
      <trkpt lat="45.55145" lon="6.669">
        <ele>747.6</ele>
        <time>2021-06-01T07:59:59Z</time>
      </trkpt>
      <trkpt lat="45.55138" lon="6.66887">
        <ele>747.6</ele>
        <time>2021-06-01T08:00:00Z</time>
      </trkpt>
      <trkpt lat="45.55131" lon="6.66875">
        <ele>745.4</ele>
        <time>2021-06-01T08:00:01Z</time>
      </trkpt>
      <trkpt lat="45.55124" lon="6.66862">
        <ele>744</ele>
        <time>2021-06-01T08:00:02Z</time>
      </trkpt>
      <trkpt lat="45.55118" lon="6.6685">
        <ele>743</ele>
        <time>2021-06-01T08:00:03Z</time>
      </trkpt>
      <trkpt lat="45.55112" lon="6.66836">
        <ele>741.6</ele>
        <time>2021-06-01T08:00:04Z</time>
      </trkpt>
      <trkpt lat="45.55106" lon="6.66822">
        <ele>741</ele>
        <time>2021-06-01T08:00:05Z</time>
      </trkpt>
      <trkpt lat="45.551" lon="6.66808">
        <ele>739.8</ele>
        <time>2021-06-01T08:00:06Z</time>
      </trkpt>
      <trkpt lat="45.55093" lon="6.66794">
        <ele>738.6</ele>
        <time>2021-06-01T08:00:07Z</time>
      </trkpt>
      <trkpt lat="45.55085" lon="6.6678">
        <ele>737.6</ele>
        <time>2021-06-01T08:00:08Z</time>
      </trkpt>
      <trkpt lat="45.55078" lon="6.66766">
        <ele>736.6</ele>
        <time>2021-06-01T08:00:09Z</time>
      </trkpt>
      <trkpt lat="45.5507" lon="6.66751">
        <ele>735.8</ele>
        <time>2021-06-01T08:00:10Z</time>
      </trkpt>
      <trkpt lat="45.55064" lon="6.66736">
        <ele>734.8</ele>
        <time>2021-06-01T08:00:11Z</time>
      </trkpt>
      <trkpt lat="45.55057" lon="6.66721">
        <ele>733.8</ele>
        <time>2021-06-01T08:00:12Z</time>
      </trkpt>
      <trkpt lat="45.5505" lon="6.66706">
        <ele>732.8</ele>
        <time>2021-06-01T08:00:13Z</time>
      </trkpt>
      <trkpt lat="45.55043" lon="6.66689">
        <ele>731.8</ele>
        <time>2021-06-01T08:00:14Z</time>
      </trkpt>
      <trkpt lat="45.55036" lon="6.66672">
        <ele>731</ele>
        <time>2021-06-01T08:00:15Z</time>
      </trkpt>
      <trkpt lat="45.55031" lon="6.66654">
        <ele>729.6</ele>
        <time>2021-06-01T08:00:16Z</time>
      </trkpt>
      <trkpt lat="45.55027" lon="6.66636">
        <ele>728.6</ele>
        <time>2021-06-01T08:00:17Z</time>
      </trkpt>
      <trkpt lat="45.55024" lon="6.66618">
        <ele>727.6</ele>
        <time>2021-06-01T08:00:18Z</time>
      </trkpt>
      <trkpt lat="45.55022" lon="6.66598">
        <ele>726.6</ele>
        <time>2021-06-01T08:00:19Z</time>
      </trkpt>
      <trkpt lat="45.5502" lon="6.66579">
        <ele>725.6</ele>
        <time>2021-06-01T08:00:20Z</time>
      </trkpt>
      <trkpt lat="45.55018" lon="6.6656">
        <ele>725</ele>
        <time>2021-06-01T08:00:21Z</time>
      </trkpt>
      <trkpt lat="45.55014" lon="6.66541">
        <ele>724.2</ele>
        <time>2021-06-01T08:00:22Z</time>
      </trkpt>
      <trkpt lat="45.5501" lon="6.66523">
        <ele>723.6</ele>
        <time>2021-06-01T08:00:23Z</time>
      </trkpt>
      <trkpt lat="45.55004" lon="6.66505">
        <ele>722.6</ele>
        <time>2021-06-01T08:00:24Z</time>
      </trkpt>
      <trkpt lat="45.55" lon="6.66487">
        <ele>721.2</ele>
        <time>2021-06-01T08:00:25Z</time>
      </trkpt>
      <trkpt lat="45.54996" lon="6.66469">
        <ele>720.6</ele>
        <time>2021-06-01T08:00:26Z</time>
      </trkpt>
      <trkpt lat="45.54995" lon="6.66449">
        <ele>719.8</ele>
        <time>2021-06-01T08:00:27Z</time>
      </trkpt>
      <trkpt lat="45.54995" lon="6.6643">
        <ele>718.8</ele>
        <time>2021-06-01T08:00:28Z</time>
      </trkpt>
      <trkpt lat="45.54997" lon="6.6641">
        <ele>717.8</ele>
        <time>2021-06-01T08:00:29Z</time>
      </trkpt>
      <trkpt lat="45.55002" lon="6.66392">
        <ele>717</ele>
        <time>2021-06-01T08:00:30Z</time>
      </trkpt>
      <trkpt lat="45.55008" lon="6.66375">
        <ele>716</ele>
        <time>2021-06-01T08:00:31Z</time>
      </trkpt>
      <trkpt lat="45.55017" lon="6.66359">
        <ele>715.4</ele>
        <time>2021-06-01T08:00:32Z</time>
      </trkpt>
      <trkpt lat="45.55026" lon="6.66343">
        <ele>714.8</ele>
        <time>2021-06-01T08:00:33Z</time>
      </trkpt>
      <trkpt lat="45.55036" lon="6.66328">
        <ele>713.8</ele>
        <time>2021-06-01T08:00:34Z</time>
      </trkpt>
      <trkpt lat="45.55045" lon="6.66313">
        <ele>713.6</ele>
        <time>2021-06-01T08:00:35Z</time>
      </trkpt>
      <trkpt lat="45.55054" lon="6.66298">
        <ele>713</ele>
        <time>2021-06-01T08:00:36Z</time>
      </trkpt>
      <trkpt lat="45.55064" lon="6.66285">
        <ele>712.2</ele>
        <time>2021-06-01T08:00:37Z</time>
      </trkpt>
      <trkpt lat="45.55074" lon="6.66271">
        <ele>711.4</ele>
        <time>2021-06-01T08:00:38Z</time>
      </trkpt>
      <trkpt lat="45.55085" lon="6.66259">
        <ele>711</ele>
        <time>2021-06-01T08:00:39Z</time>
      </trkpt>
      <trkpt lat="45.55096" lon="6.66247">
        <ele>710.4</ele>
        <time>2021-06-01T08:00:40Z</time>
      </trkpt>
      <trkpt lat="45.55106" lon="6.66236">
        <ele>709.6</ele>
        <time>2021-06-01T08:00:41Z</time>
      </trkpt>
      <trkpt lat="45.55117" lon="6.66224">
        <ele>708.8</ele>
        <time>2021-06-01T08:00:42Z</time>
      </trkpt>
      <trkpt lat="45.55128" lon="6.66213">
        <ele>708.2</ele>
        <time>2021-06-01T08:00:43Z</time>
      </trkpt>
      <trkpt lat="45.55138" lon="6.66201">
        <ele>706.8</ele>
        <time>2021-06-01T08:00:44Z</time>
      </trkpt>
      <trkpt lat="45.55146" lon="6.66187">
        <ele>706</ele>
        <time>2021-06-01T08:00:45Z</time>
      </trkpt>
      <trkpt lat="45.55152" lon="6.6617">
        <ele>705.2</ele>
        <time>2021-06-01T08:00:46Z</time>
      </trkpt>
      <trkpt lat="45.55156" lon="6.66152">
        <ele>704.4</ele>
        <time>2021-06-01T08:00:47Z</time>
      </trkpt>
      <trkpt lat="45.5516" lon="6.66134">
        <ele>703.8</ele>
        <time>2021-06-01T08:00:48Z</time>
      </trkpt>
      <trkpt lat="45.55164" lon="6.66116">
        <ele>703</ele>
        <time>2021-06-01T08:00:49Z</time>
      </trkpt>
      <trkpt lat="45.55169" lon="6.66098">
        <ele>702.2</ele>
        <time>2021-06-01T08:00:50Z</time>
      </trkpt>
      <trkpt lat="45.55175" lon="6.66081">
        <ele>701.8</ele>
        <time>2021-06-01T08:00:51Z</time>
      </trkpt>
      <trkpt lat="45.55182" lon="6.66064">
        <ele>700.8</ele>
        <time>2021-06-01T08:00:52Z</time>
      </trkpt>
      <trkpt lat="45.55189" lon="6.66048">
        <ele>700</ele>
        <time>2021-06-01T08:00:53Z</time>
      </trkpt>
      <trkpt lat="45.55197" lon="6.66032">
        <ele>699.4</ele>
        <time>2021-06-01T08:00:54Z</time>
      </trkpt>
      <trkpt lat="45.55206" lon="6.66017">
        <ele>698.6</ele>
        <time>2021-06-01T08:00:55Z</time>
      </trkpt>
      <trkpt lat="45.55216" lon="6.66004">
        <ele>697.6</ele>
        <time>2021-06-01T08:00:56Z</time>
      </trkpt>
      <trkpt lat="45.55226" lon="6.6599">
        <ele>696.6</ele>
        <time>2021-06-01T08:00:57Z</time>
      </trkpt>
      <trkpt lat="45.55235" lon="6.65976">
        <ele>695.2</ele>
        <time>2021-06-01T08:00:58Z</time>
      </trkpt>
      <trkpt lat="45.55244" lon="6.65962">
        <ele>694.2</ele>
        <time>2021-06-01T08:00:59Z</time>
      </trkpt>
      <trkpt lat="45.55252" lon="6.65946">
        <ele>693.2</ele>
        <time>2021-06-01T08:01:00Z</time>
      </trkpt>
      <trkpt lat="45.55257" lon="6.65929">
        <ele>692.2</ele>
        <time>2021-06-01T08:01:01Z</time>
      </trkpt>
      <trkpt lat="45.55262" lon="6.65912">
        <ele>690.8</ele>
        <time>2021-06-01T08:01:02Z</time>
      </trkpt>
      <trkpt lat="45.55266" lon="6.65897">
        <ele>689.8</ele>
        <time>2021-06-01T08:01:03Z</time>
      </trkpt>
      <trkpt lat="45.55272" lon="6.65886">
        <ele>688.4</ele>
        <time>2021-06-01T08:01:04Z</time>
      </trkpt>
      <trkpt lat="45.55281" lon="6.6588">
        <ele>687.2</ele>
        <time>2021-06-01T08:01:05Z</time>
      </trkpt>
      <trkpt lat="45.5529" lon="6.65879">
        <ele>686.4</ele>
        <time>2021-06-01T08:01:06Z</time>
      </trkpt>
      <trkpt lat="45.55299" lon="6.65885">
        <ele>685.4</ele>
        <time>2021-06-01T08:01:07Z</time>
      </trkpt>
      <trkpt lat="45.55308" lon="6.65893">
        <ele>684.4</ele>
        <time>2021-06-01T08:01:08Z</time>
      </trkpt>
      <trkpt lat="45.55317" lon="6.65902">
        <ele>683.6</ele>
        <time>2021-06-01T08:01:09Z</time>
      </trkpt>
      <trkpt lat="45.55327" lon="6.65914">
        <ele>682.8</ele>
        <time>2021-06-01T08:01:10Z</time>
      </trkpt>
      <trkpt lat="45.55336" lon="6.65926">
        <ele>681.4</ele>
        <time>2021-06-01T08:01:11Z</time>
      </trkpt>
      <trkpt lat="45.55345" lon="6.65937">
        <ele>680.6</ele>
        <time>2021-06-01T08:01:12Z</time>
      </trkpt>
      <trkpt lat="45.55354" lon="6.65948">
        <ele>680</ele>
        <time>2021-06-01T08:01:13Z</time>
      </trkpt>
      <trkpt lat="45.55363" lon="6.6596">
        <ele>678.8</ele>
        <time>2021-06-01T08:01:14Z</time>
      </trkpt>
      <trkpt lat="45.55373" lon="6.65971">
        <ele>677.8</ele>
        <time>2021-06-01T08:01:15Z</time>
      </trkpt>
      <trkpt lat="45.55383" lon="6.65983">
        <ele>677.2</ele>
        <time>2021-06-01T08:01:16Z</time>
      </trkpt>
      <trkpt lat="45.55393" lon="6.65995">
        <ele>676.2</ele>
        <time>2021-06-01T08:01:17Z</time>
      </trkpt>
      <trkpt lat="45.55403" lon="6.66007">
        <ele>675.6</ele>
        <time>2021-06-01T08:01:18Z</time>
      </trkpt>
      <trkpt lat="45.55413" lon="6.66018">
        <ele>674.8</ele>
        <time>2021-06-01T08:01:19Z</time>
      </trkpt>
      <trkpt lat="45.55424" lon="6.6603">
        <ele>674.2</ele>
        <time>2021-06-01T08:01:20Z</time>
      </trkpt>
      <trkpt lat="45.55435" lon="6.66043">
        <ele>673.6</ele>
        <time>2021-06-01T08:01:21Z</time>
      </trkpt>
      <trkpt lat="45.55445" lon="6.66054">
        <ele>672.8</ele>
        <time>2021-06-01T08:01:22Z</time>
      </trkpt>
      <trkpt lat="45.55456" lon="6.66066">
        <ele>672.4</ele>
        <time>2021-06-01T08:01:23Z</time>
      </trkpt>
      <trkpt lat="45.55467" lon="6.66079">
        <ele>671.4</ele>
        <time>2021-06-01T08:01:24Z</time>
      </trkpt>
      <trkpt lat="45.55476" lon="6.66092">
        <ele>670.6</ele>
        <time>2021-06-01T08:01:25Z</time>
      </trkpt>
      <trkpt lat="45.55484" lon="6.66108">
        <ele>669.2</ele>
        <time>2021-06-01T08:01:26Z</time>
      </trkpt>
      <trkpt lat="45.55492" lon="6.66124">
        <ele>668.2</ele>
        <time>2021-06-01T08:01:27Z</time>
      </trkpt>
      <trkpt lat="45.555" lon="6.66141">
        <ele>667.6</ele>
        <time>2021-06-01T08:01:28Z</time>
      </trkpt>
      <trkpt lat="45.55509" lon="6.66154">
        <ele>666.6</ele>
        <time>2021-06-01T08:01:29Z</time>
      </trkpt>
      <trkpt lat="45.55519" lon="6.66164">
        <ele>665.6</ele>
        <time>2021-06-01T08:01:30Z</time>
      </trkpt>
      <trkpt lat="45.55531" lon="6.66169">
        <ele>664.8</ele>
        <time>2021-06-01T08:01:31Z</time>
      </trkpt>
      <trkpt lat="45.55542" lon="6.66169">
        <ele>663.8</ele>
        <time>2021-06-01T08:01:32Z</time>
      </trkpt>
      <trkpt lat="45.55553" lon="6.66165">
        <ele>663.4</ele>
        <time>2021-06-01T08:01:33Z</time>
      </trkpt>
      <trkpt lat="45.55563" lon="6.66158">
        <ele>663.2</ele>
        <time>2021-06-01T08:01:34Z</time>
      </trkpt>
      <trkpt lat="45.5557" lon="6.66147">
        <ele>663.2</ele>
        <time>2021-06-01T08:01:35Z</time>
      </trkpt>
      <trkpt lat="45.55574" lon="6.66134">
        <ele>663</ele>
        <time>2021-06-01T08:01:36Z</time>
      </trkpt>
      <trkpt lat="45.5558" lon="6.66121">
        <ele>662.6</ele>
        <time>2021-06-01T08:01:37Z</time>
      </trkpt>
      <trkpt lat="45.55583" lon="6.66108">
        <ele>662.6</ele>
        <time>2021-06-01T08:01:38Z</time>
      </trkpt>
      <trkpt lat="45.55587" lon="6.66094">
        <ele>662.4</ele>
        <time>2021-06-01T08:01:39Z</time>
      </trkpt>
      <trkpt lat="45.5559" lon="6.66082">
        <ele>662.2</ele>
        <time>2021-06-01T08:01:40Z</time>
      </trkpt>
      <trkpt lat="45.55593" lon="6.66069">
        <ele>662.8</ele>
        <time>2021-06-01T08:01:41Z</time>
      </trkpt>
      <trkpt lat="45.55596" lon="6.66058">
        <ele>662.8</ele>
        <time>2021-06-01T08:01:42Z</time>
      </trkpt>
      <trkpt lat="45.55598" lon="6.66048">
        <ele>663</ele>
        <time>2021-06-01T08:01:43Z</time>
      </trkpt>
      <trkpt lat="45.55602" lon="6.66039">
        <ele>663.2</ele>
        <time>2021-06-01T08:01:44Z</time>
      </trkpt>
      <trkpt lat="45.55606" lon="6.66032">
        <ele>663.4</ele>
        <time>2021-06-01T08:01:45Z</time>
      </trkpt>
      <trkpt lat="45.55611" lon="6.66027">
        <ele>663.4</ele>
        <time>2021-06-01T08:01:46Z</time>
      </trkpt>
      <trkpt lat="45.55616" lon="6.66023">
        <ele>663.4</ele>
        <time>2021-06-01T08:01:47Z</time>
      </trkpt>
      <trkpt lat="45.55621" lon="6.66019">
        <ele>663.6</ele>
        <time>2021-06-01T08:01:48Z</time>
      </trkpt>
      <trkpt lat="45.55627" lon="6.66016">
        <ele>663.8</ele>
        <time>2021-06-01T08:01:49Z</time>
      </trkpt>
      <trkpt lat="45.55633" lon="6.66013">
        <ele>664</ele>
        <time>2021-06-01T08:01:50Z</time>
      </trkpt>
      <trkpt lat="45.55638" lon="6.6601">
        <ele>663.8</ele>
        <time>2021-06-01T08:01:51Z</time>
      </trkpt>
      <trkpt lat="45.55644" lon="6.66006">
        <ele>664</ele>
        <time>2021-06-01T08:01:52Z</time>
      </trkpt>
      <trkpt lat="45.55649" lon="6.66001">
        <ele>664.2</ele>
        <time>2021-06-01T08:01:53Z</time>
      </trkpt>
      <trkpt lat="45.55653" lon="6.65996">
        <ele>664.4</ele>
        <time>2021-06-01T08:01:54Z</time>
      </trkpt>
      <trkpt lat="45.55656" lon="6.65989">
        <ele>664.4</ele>
        <time>2021-06-01T08:01:55Z</time>
      </trkpt>
      <trkpt lat="45.55658" lon="6.65981">
        <ele>664.2</ele>
        <time>2021-06-01T08:01:56Z</time>
      </trkpt>
      <trkpt lat="45.5566" lon="6.65973">
        <ele>664.2</ele>
        <time>2021-06-01T08:01:57Z</time>
      </trkpt>
      <trkpt lat="45.55662" lon="6.65966">
        <ele>664.4</ele>
        <time>2021-06-01T08:01:58Z</time>
      </trkpt>
      <trkpt lat="45.55664" lon="6.6596">
        <ele>664.6</ele>
        <time>2021-06-01T08:01:59Z</time>
      </trkpt>
      <trkpt lat="45.55665" lon="6.65954">
        <ele>664.8</ele>
        <time>2021-06-01T08:02:00Z</time>
      </trkpt>
      <trkpt lat="45.55666" lon="6.65948">
        <ele>665</ele>
        <time>2021-06-01T08:02:01Z</time>
      </trkpt>
      <trkpt lat="45.55665" lon="6.65941">
        <ele>665.2</ele>
        <time>2021-06-01T08:02:02Z</time>
      </trkpt>
      <trkpt lat="45.55665" lon="6.65932">
        <ele>665.4</ele>
        <time>2021-06-01T08:02:03Z</time>
      </trkpt>
      <trkpt lat="45.55664" lon="6.65924">
        <ele>665.6</ele>
        <time>2021-06-01T08:02:04Z</time>
      </trkpt>
      <trkpt lat="45.55664" lon="6.65916">
        <ele>665.8</ele>
        <time>2021-06-01T08:02:05Z</time>
      </trkpt>
      <trkpt lat="45.55663" lon="6.65909">
        <ele>666</ele>
        <time>2021-06-01T08:02:06Z</time>
      </trkpt>
      <trkpt lat="45.55662" lon="6.65902">
        <ele>666.2</ele>
        <time>2021-06-01T08:02:07Z</time>
      </trkpt>
      <trkpt lat="45.55661" lon="6.65896">
        <ele>666.6</ele>
        <time>2021-06-01T08:02:08Z</time>
      </trkpt>
      <trkpt lat="45.5566" lon="6.65889">
        <ele>666.8</ele>
        <time>2021-06-01T08:02:09Z</time>
      </trkpt>
      <trkpt lat="45.5566" lon="6.65882">
        <ele>667</ele>
        <time>2021-06-01T08:02:10Z</time>
      </trkpt>
      <trkpt lat="45.55659" lon="6.65875">
        <ele>667</ele>
        <time>2021-06-01T08:02:11Z</time>
      </trkpt>
      <trkpt lat="45.55658" lon="6.65868">
        <ele>667.2</ele>
        <time>2021-06-01T08:02:12Z</time>
      </trkpt>
      <trkpt lat="45.55659" lon="6.65861">
        <ele>667.4</ele>
        <time>2021-06-01T08:02:13Z</time>
      </trkpt>
      <trkpt lat="45.5566" lon="6.65854">
        <ele>667.6</ele>
        <time>2021-06-01T08:02:14Z</time>
      </trkpt>
      <trkpt lat="45.5566" lon="6.65846">
        <ele>667.8</ele>
        <time>2021-06-01T08:02:15Z</time>
      </trkpt>
      <trkpt lat="45.5566" lon="6.6584">
        <ele>667.8</ele>
        <time>2021-06-01T08:02:16Z</time>
      </trkpt>
      <trkpt lat="45.55661" lon="6.65833">
        <ele>667.8</ele>
        <time>2021-06-01T08:02:17Z</time>
      </trkpt>
      <trkpt lat="45.55661" lon="6.65826">
        <ele>668</ele>
        <time>2021-06-01T08:02:18Z</time>
      </trkpt>
      <trkpt lat="45.55661" lon="6.6582">
        <ele>668.4</ele>
        <time>2021-06-01T08:02:19Z</time>
      </trkpt>
      <trkpt lat="45.55661" lon="6.65812">
        <ele>668.4</ele>
        <time>2021-06-01T08:02:20Z</time>
      </trkpt>
      <trkpt lat="45.55661" lon="6.65806">
        <ele>668.6</ele>
        <time>2021-06-01T08:02:21Z</time>
      </trkpt>
      <trkpt lat="45.55661" lon="6.658">
        <ele>668.8</ele>
        <time>2021-06-01T08:02:22Z</time>
      </trkpt>
      <trkpt lat="45.55661" lon="6.65793">
        <ele>669</ele>
        <time>2021-06-01T08:02:23Z</time>
      </trkpt>
      <trkpt lat="45.55661" lon="6.65787">
        <ele>669</ele>
        <time>2021-06-01T08:02:24Z</time>
      </trkpt>
      <trkpt lat="45.55662" lon="6.65782">
        <ele>669.2</ele>
        <time>2021-06-01T08:02:25Z</time>
      </trkpt>
      <trkpt lat="45.55663" lon="6.65776">
        <ele>669.2</ele>
        <time>2021-06-01T08:02:26Z</time>
      </trkpt>
      <trkpt lat="45.55664" lon="6.6577">
        <ele>669.2</ele>
        <time>2021-06-01T08:02:27Z</time>
      </trkpt>
      <trkpt lat="45.55665" lon="6.65765">
        <ele>669</ele>
        <time>2021-06-01T08:02:28Z</time>
      </trkpt>
      <trkpt lat="45.55665" lon="6.6576">
        <ele>669</ele>
        <time>2021-06-01T08:02:29Z</time>
      </trkpt>
      <trkpt lat="45.55666" lon="6.65754">
        <ele>669</ele>
        <time>2021-06-01T08:02:30Z</time>
      </trkpt>
      <trkpt lat="45.55667" lon="6.65749">
        <ele>669.2</ele>
        <time>2021-06-01T08:02:31Z</time>
      </trkpt>
      <trkpt lat="45.55668" lon="6.65743">
        <ele>669</ele>
        <time>2021-06-01T08:02:32Z</time>
      </trkpt>
      <trkpt lat="45.55668" lon="6.65737">
        <ele>669.2</ele>
        <time>2021-06-01T08:02:33Z</time>
      </trkpt>
      <trkpt lat="45.55669" lon="6.65732">
        <ele>669.6</ele>
        <time>2021-06-01T08:02:34Z</time>
      </trkpt>
      <trkpt lat="45.5567" lon="6.65726">
        <ele>669.8</ele>
        <time>2021-06-01T08:02:35Z</time>
      </trkpt>
      <trkpt lat="45.55671" lon="6.6572">
        <ele>670</ele>
        <time>2021-06-01T08:02:36Z</time>
      </trkpt>
      <trkpt lat="45.55672" lon="6.65714">
        <ele>670.2</ele>
        <time>2021-06-01T08:02:37Z</time>
      </trkpt>
      <trkpt lat="45.55672" lon="6.65709">
        <ele>670.4</ele>
        <time>2021-06-01T08:02:38Z</time>
      </trkpt>
      <trkpt lat="45.55674" lon="6.65703">
        <ele>670.4</ele>
        <time>2021-06-01T08:02:39Z</time>
      </trkpt>
      <trkpt lat="45.55674" lon="6.65698">
        <ele>670.4</ele>
        <time>2021-06-01T08:02:40Z</time>
      </trkpt>
      <trkpt lat="45.55675" lon="6.65693">
        <ele>670.6</ele>
        <time>2021-06-01T08:02:41Z</time>
      </trkpt>
      <trkpt lat="45.55676" lon="6.65688">
        <ele>670.8</ele>
        <time>2021-06-01T08:02:42Z</time>
      </trkpt>
      <trkpt lat="45.55677" lon="6.65683">
        <ele>671</ele>
        <time>2021-06-01T08:02:43Z</time>
      </trkpt>
      <trkpt lat="45.55679" lon="6.65679">
        <ele>671.2</ele>
        <time>2021-06-01T08:02:44Z</time>
      </trkpt>
      <trkpt lat="45.55681" lon="6.65674">
        <ele>671.4</ele>
        <time>2021-06-01T08:02:45Z</time>
      </trkpt>
      <trkpt lat="45.55684" lon="6.6567">
        <ele>671.6</ele>
        <time>2021-06-01T08:02:46Z</time>
      </trkpt>
      <trkpt lat="45.55687" lon="6.65668">
        <ele>672</ele>
        <time>2021-06-01T08:02:47Z</time>
      </trkpt>
      <trkpt lat="45.55691" lon="6.65666">
        <ele>672.4</ele>
        <time>2021-06-01T08:02:48Z</time>
      </trkpt>
      <trkpt lat="45.55695" lon="6.65664">
        <ele>672.6</ele>
        <time>2021-06-01T08:02:49Z</time>
      </trkpt>
      <trkpt lat="45.55699" lon="6.65663">
        <ele>673</ele>
        <time>2021-06-01T08:02:50Z</time>
      </trkpt>
      <trkpt lat="45.55703" lon="6.65661">
        <ele>673.2</ele>
        <time>2021-06-01T08:02:51Z</time>
      </trkpt>
      <trkpt lat="45.55707" lon="6.65658">
        <ele>673.4</ele>
        <time>2021-06-01T08:02:52Z</time>
      </trkpt>
      <trkpt lat="45.55711" lon="6.65654">
        <ele>673.2</ele>
        <time>2021-06-01T08:02:53Z</time>
      </trkpt>
      <trkpt lat="45.55715" lon="6.65649">
        <ele>673</ele>
        <time>2021-06-01T08:02:54Z</time>
      </trkpt>
      <trkpt lat="45.55718" lon="6.65644">
        <ele>673</ele>
        <time>2021-06-01T08:02:55Z</time>
      </trkpt>
      <trkpt lat="45.55721" lon="6.65638">
        <ele>673</ele>
        <time>2021-06-01T08:02:56Z</time>
      </trkpt>
      <trkpt lat="45.55724" lon="6.65631">
        <ele>673.2</ele>
        <time>2021-06-01T08:02:57Z</time>
      </trkpt>
      <trkpt lat="45.55726" lon="6.65625">
        <ele>673.4</ele>
        <time>2021-06-01T08:02:58Z</time>
      </trkpt>
      <trkpt lat="45.55729" lon="6.65617">
        <ele>673.8</ele>
        <time>2021-06-01T08:02:59Z</time>
      </trkpt>
      <trkpt lat="45.55731" lon="6.6561">
        <ele>673.8</ele>
        <time>2021-06-01T08:03:00Z</time>
      </trkpt>
      <trkpt lat="45.55732" lon="6.65603">
        <ele>673.6</ele>
        <time>2021-06-01T08:03:01Z</time>
      </trkpt>
      <trkpt lat="45.55733" lon="6.65595">
        <ele>674.2</ele>
        <time>2021-06-01T08:03:02Z</time>
      </trkpt>
      <trkpt lat="45.55735" lon="6.65588">
        <ele>674.6</ele>
        <time>2021-06-01T08:03:03Z</time>
      </trkpt>
      <trkpt lat="45.55737" lon="6.65579">
        <ele>674.8</ele>
        <time>2021-06-01T08:03:04Z</time>
      </trkpt>
      <trkpt lat="45.55738" lon="6.65571">
        <ele>675</ele>
        <time>2021-06-01T08:03:05Z</time>
      </trkpt>
      <trkpt lat="45.55739" lon="6.65562">
        <ele>675</ele>
        <time>2021-06-01T08:03:06Z</time>
      </trkpt>
      <trkpt lat="45.5574" lon="6.65553">
        <ele>675.2</ele>
        <time>2021-06-01T08:03:07Z</time>
      </trkpt>
      <trkpt lat="45.55741" lon="6.65545">
        <ele>675.6</ele>
        <time>2021-06-01T08:03:08Z</time>
      </trkpt>
      <trkpt lat="45.55743" lon="6.65535">
        <ele>675.6</ele>
        <time>2021-06-01T08:03:09Z</time>
      </trkpt>
      <trkpt lat="45.55744" lon="6.65525">
        <ele>675.8</ele>
        <time>2021-06-01T08:03:10Z</time>
      </trkpt>
      <trkpt lat="45.55744" lon="6.65516">
        <ele>676</ele>
        <time>2021-06-01T08:03:11Z</time>
      </trkpt>
      <trkpt lat="45.55745" lon="6.65508">
        <ele>676</ele>
        <time>2021-06-01T08:03:12Z</time>
      </trkpt>
      <trkpt lat="45.55745" lon="6.65499">
        <ele>676.2</ele>
        <time>2021-06-01T08:03:13Z</time>
      </trkpt>
      <trkpt lat="45.55745" lon="6.6549">
        <ele>676.4</ele>
        <time>2021-06-01T08:03:14Z</time>
      </trkpt>
      <trkpt lat="45.55745" lon="6.65481">
        <ele>676.6</ele>
        <time>2021-06-01T08:03:15Z</time>
      </trkpt>
      <trkpt lat="45.55745" lon="6.65473">
        <ele>676.8</ele>
        <time>2021-06-01T08:03:16Z</time>
      </trkpt>
      <trkpt lat="45.55745" lon="6.65463">
        <ele>677</ele>
        <time>2021-06-01T08:03:17Z</time>
      </trkpt>
      <trkpt lat="45.55744" lon="6.65455">
        <ele>677.2</ele>
        <time>2021-06-01T08:03:18Z</time>
      </trkpt>
      <trkpt lat="45.55743" lon="6.65446">
        <ele>677.4</ele>
        <time>2021-06-01T08:03:19Z</time>
      </trkpt>
      <trkpt lat="45.55742" lon="6.65437">
        <ele>677.4</ele>
        <time>2021-06-01T08:03:20Z</time>
      </trkpt>
      <trkpt lat="45.5574" lon="6.65429">
        <ele>677.6</ele>
        <time>2021-06-01T08:03:21Z</time>
      </trkpt>
      <trkpt lat="45.5574" lon="6.6542">
        <ele>677.8</ele>
        <time>2021-06-01T08:03:22Z</time>
      </trkpt>
      <trkpt lat="45.55738" lon="6.65411">
        <ele>677.8</ele>
        <time>2021-06-01T08:03:23Z</time>
      </trkpt>
      <trkpt lat="45.55736" lon="6.65403">
        <ele>677.8</ele>
        <time>2021-06-01T08:03:24Z</time>
      </trkpt>
      <trkpt lat="45.55734" lon="6.65395">
        <ele>678</ele>
        <time>2021-06-01T08:03:25Z</time>
      </trkpt>
      <trkpt lat="45.55731" lon="6.65387">
        <ele>678.4</ele>
        <time>2021-06-01T08:03:26Z</time>
      </trkpt>
      <trkpt lat="45.55729" lon="6.65379">
        <ele>678.4</ele>
        <time>2021-06-01T08:03:27Z</time>
      </trkpt>
      <trkpt lat="45.55726" lon="6.65372">
        <ele>678.2</ele>
        <time>2021-06-01T08:03:28Z</time>
      </trkpt>
      <trkpt lat="45.55724" lon="6.65364">
        <ele>678.4</ele>
        <time>2021-06-01T08:03:29Z</time>
      </trkpt>
      <trkpt lat="45.55721" lon="6.65357">
        <ele>678.4</ele>
        <time>2021-06-01T08:03:30Z</time>
      </trkpt>
      <trkpt lat="45.55718" lon="6.6535">
        <ele>678.4</ele>
        <time>2021-06-01T08:03:31Z</time>
      </trkpt>
      <trkpt lat="45.55715" lon="6.65343">
        <ele>678.4</ele>
        <time>2021-06-01T08:03:32Z</time>
      </trkpt>
      <trkpt lat="45.55711" lon="6.65336">
        <ele>678.4</ele>
        <time>2021-06-01T08:03:33Z</time>
      </trkpt>
      <trkpt lat="45.55708" lon="6.6533">
        <ele>678.4</ele>
        <time>2021-06-01T08:03:34Z</time>
      </trkpt>
      <trkpt lat="45.55704" lon="6.65323">
        <ele>678.6</ele>
        <time>2021-06-01T08:03:35Z</time>
      </trkpt>
      <trkpt lat="45.557" lon="6.65316">
        <ele>678.4</ele>
        <time>2021-06-01T08:03:36Z</time>
      </trkpt>
      <trkpt lat="45.55697" lon="6.65312">
        <ele>678.2</ele>
        <time>2021-06-01T08:03:37Z</time>
      </trkpt>
      <trkpt lat="45.5569" lon="6.65305">
        <ele>678.2</ele>
        <time>2021-06-01T08:03:38Z</time>
      </trkpt>
      <trkpt lat="45.55686" lon="6.653">
        <ele>678</ele>
        <time>2021-06-01T08:03:39Z</time>
      </trkpt>
      <trkpt lat="45.5568" lon="6.65294">
        <ele>677.8</ele>
        <time>2021-06-01T08:03:40Z</time>
      </trkpt>
      <trkpt lat="45.55676" lon="6.65288">
        <ele>677.8</ele>
        <time>2021-06-01T08:03:41Z</time>
      </trkpt>
      <trkpt lat="45.55669" lon="6.65281">
        <ele>677.6</ele>
        <time>2021-06-01T08:03:42Z</time>
      </trkpt>
      <trkpt lat="45.55664" lon="6.65274">
        <ele>677.4</ele>
        <time>2021-06-01T08:03:43Z</time>
      </trkpt>
      <trkpt lat="45.55658" lon="6.65266">
        <ele>677.4</ele>
        <time>2021-06-01T08:03:44Z</time>
      </trkpt>
      <trkpt lat="45.55652" lon="6.65259">
        <ele>677</ele>
        <time>2021-06-01T08:03:45Z</time>
      </trkpt>
      <trkpt lat="45.55646" lon="6.65251">
        <ele>676.8</ele>
        <time>2021-06-01T08:03:46Z</time>
      </trkpt>
      <trkpt lat="45.5564" lon="6.65242">
        <ele>676.6</ele>
        <time>2021-06-01T08:03:47Z</time>
      </trkpt>
      <trkpt lat="45.55634" lon="6.65234">
        <ele>676.4</ele>
        <time>2021-06-01T08:03:48Z</time>
      </trkpt>
      <trkpt lat="45.55628" lon="6.65225">
        <ele>676.4</ele>
        <time>2021-06-01T08:03:49Z</time>
      </trkpt>
      <trkpt lat="45.55623" lon="6.65215">
        <ele>676</ele>
        <time>2021-06-01T08:03:50Z</time>
      </trkpt>
      <trkpt lat="45.55618" lon="6.65204">
        <ele>675.6</ele>
        <time>2021-06-01T08:03:51Z</time>
      </trkpt>
      <trkpt lat="45.55614" lon="6.65193">
        <ele>675.2</ele>
        <time>2021-06-01T08:03:52Z</time>
      </trkpt>
      <trkpt lat="45.55609" lon="6.65183">
        <ele>675</ele>
        <time>2021-06-01T08:03:53Z</time>
      </trkpt>
      <trkpt lat="45.55604" lon="6.65172">
        <ele>674.6</ele>
        <time>2021-06-01T08:03:54Z</time>
      </trkpt>
      <trkpt lat="45.55599" lon="6.65161">
        <ele>674.2</ele>
        <time>2021-06-01T08:03:55Z</time>
      </trkpt>
      <trkpt lat="45.55595" lon="6.6515">
        <ele>673.8</ele>
        <time>2021-06-01T08:03:56Z</time>
      </trkpt>
      <trkpt lat="45.5559" lon="6.65138">
        <ele>673.4</ele>
        <time>2021-06-01T08:03:57Z</time>
      </trkpt>
      <trkpt lat="45.55587" lon="6.65126">
        <ele>673.2</ele>
        <time>2021-06-01T08:03:58Z</time>
      </trkpt>
      <trkpt lat="45.55584" lon="6.65112">
        <ele>673</ele>
        <time>2021-06-01T08:03:59Z</time>
      </trkpt>
      <trkpt lat="45.55582" lon="6.651">
        <ele>672.6</ele>
        <time>2021-06-01T08:04:00Z</time>
      </trkpt>
      <trkpt lat="45.5558" lon="6.65088">
        <ele>672.4</ele>
        <time>2021-06-01T08:04:01Z</time>
      </trkpt>
      <trkpt lat="45.55578" lon="6.65075">
        <ele>672</ele>
        <time>2021-06-01T08:04:02Z</time>
      </trkpt>
      <trkpt lat="45.55576" lon="6.65063">
        <ele>671.4</ele>
        <time>2021-06-01T08:04:03Z</time>
      </trkpt>
      <trkpt lat="45.55575" lon="6.65051">
        <ele>670.8</ele>
        <time>2021-06-01T08:04:04Z</time>
      </trkpt>
      <trkpt lat="45.55574" lon="6.65038">
        <ele>670.4</ele>
        <time>2021-06-01T08:04:05Z</time>
      </trkpt>
      <trkpt lat="45.55573" lon="6.65025">
        <ele>670</ele>
        <time>2021-06-01T08:04:06Z</time>
      </trkpt>
      <trkpt lat="45.55572" lon="6.65013">
        <ele>669.4</ele>
        <time>2021-06-01T08:04:07Z</time>
      </trkpt>
      <trkpt lat="45.5557" lon="6.65">
        <ele>669</ele>
        <time>2021-06-01T08:04:08Z</time>
      </trkpt>
      <trkpt lat="45.55569" lon="6.64988">
        <ele>669</ele>
        <time>2021-06-01T08:04:09Z</time>
      </trkpt>
      <trkpt lat="45.55568" lon="6.64975">
        <ele>668.6</ele>
        <time>2021-06-01T08:04:10Z</time>
      </trkpt>
      <trkpt lat="45.55567" lon="6.64962">
        <ele>668.2</ele>
        <time>2021-06-01T08:04:11Z</time>
      </trkpt>
      <trkpt lat="45.55566" lon="6.64949">
        <ele>668.2</ele>
        <time>2021-06-01T08:04:12Z</time>
      </trkpt>
      <trkpt lat="45.55564" lon="6.64937">
        <ele>668.2</ele>
        <time>2021-06-01T08:04:13Z</time>
      </trkpt>
      <trkpt lat="45.55563" lon="6.64924">
        <ele>667.8</ele>
        <time>2021-06-01T08:04:14Z</time>
      </trkpt>
      <trkpt lat="45.55562" lon="6.64911">
        <ele>667.8</ele>
        <time>2021-06-01T08:04:15Z</time>
      </trkpt>
      <trkpt lat="45.55561" lon="6.64898">
        <ele>667.2</ele>
        <time>2021-06-01T08:04:16Z</time>
      </trkpt>
      <trkpt lat="45.5556" lon="6.64885">
        <ele>667.2</ele>
        <time>2021-06-01T08:04:17Z</time>
      </trkpt>
      <trkpt lat="45.55558" lon="6.64871">
        <ele>666.8</ele>
        <time>2021-06-01T08:04:18Z</time>
      </trkpt>
      <trkpt lat="45.55556" lon="6.64858">
        <ele>666.8</ele>
        <time>2021-06-01T08:04:19Z</time>
      </trkpt>
      <trkpt lat="45.55554" lon="6.64844">
        <ele>666.4</ele>
        <time>2021-06-01T08:04:20Z</time>
      </trkpt>
      <trkpt lat="45.55553" lon="6.6483">
        <ele>666.4</ele>
        <time>2021-06-01T08:04:21Z</time>
      </trkpt>
      <trkpt lat="45.55551" lon="6.64816">
        <ele>666.2</ele>
        <time>2021-06-01T08:04:22Z</time>
      </trkpt>
      <trkpt lat="45.5555" lon="6.64803">
        <ele>665.8</ele>
        <time>2021-06-01T08:04:23Z</time>
      </trkpt>
      <trkpt lat="45.55549" lon="6.6479">
        <ele>665.6</ele>
        <time>2021-06-01T08:04:24Z</time>
      </trkpt>
      <trkpt lat="45.55548" lon="6.64777">
        <ele>665.4</ele>
        <time>2021-06-01T08:04:25Z</time>
      </trkpt>
      <trkpt lat="45.55547" lon="6.64764">
        <ele>665</ele>
        <time>2021-06-01T08:04:26Z</time>
      </trkpt>
      <trkpt lat="45.55546" lon="6.64751">
        <ele>664.8</ele>
        <time>2021-06-01T08:04:27Z</time>
      </trkpt>
      <trkpt lat="45.55545" lon="6.64738">
        <ele>664.4</ele>
        <time>2021-06-01T08:04:28Z</time>
      </trkpt>
      <trkpt lat="45.55543" lon="6.64725">
        <ele>664.2</ele>
        <time>2021-06-01T08:04:29Z</time>
      </trkpt>
      <trkpt lat="45.55543" lon="6.64713">
        <ele>663.8</ele>
        <time>2021-06-01T08:04:30Z</time>
      </trkpt>
      <trkpt lat="45.55542" lon="6.647">
        <ele>663.6</ele>
        <time>2021-06-01T08:04:31Z</time>
      </trkpt>
      <trkpt lat="45.55541" lon="6.64686">
        <ele>663.2</ele>
        <time>2021-06-01T08:04:32Z</time>
      </trkpt>
      <trkpt lat="45.5554" lon="6.64674">
        <ele>663</ele>
        <time>2021-06-01T08:04:33Z</time>
      </trkpt>
      <trkpt lat="45.55539" lon="6.64661">
        <ele>662.2</ele>
        <time>2021-06-01T08:04:34Z</time>
      </trkpt>
      <trkpt lat="45.55538" lon="6.64648">
        <ele>661.8</ele>
        <time>2021-06-01T08:04:35Z</time>
      </trkpt>
      <trkpt lat="45.55537" lon="6.64635">
        <ele>661.6</ele>
        <time>2021-06-01T08:04:36Z</time>
      </trkpt>
      <trkpt lat="45.55535" lon="6.64621">
        <ele>661.4</ele>
        <time>2021-06-01T08:04:37Z</time>
      </trkpt>
      <trkpt lat="45.55534" lon="6.64609">
        <ele>661.2</ele>
        <time>2021-06-01T08:04:38Z</time>
      </trkpt>
      <trkpt lat="45.55533" lon="6.64596">
        <ele>660.8</ele>
        <time>2021-06-01T08:04:39Z</time>
      </trkpt>
      <trkpt lat="45.55531" lon="6.64583">
        <ele>660</ele>
        <time>2021-06-01T08:04:40Z</time>
      </trkpt>
      <trkpt lat="45.5553" lon="6.6457">
        <ele>659.6</ele>
        <time>2021-06-01T08:04:41Z</time>
      </trkpt>
      <trkpt lat="45.55528" lon="6.64558">
        <ele>659.2</ele>
        <time>2021-06-01T08:04:42Z</time>
      </trkpt>
      <trkpt lat="45.55527" lon="6.64545">
        <ele>659</ele>
        <time>2021-06-01T08:04:43Z</time>
      </trkpt>
      <trkpt lat="45.55525" lon="6.64533">
        <ele>658.6</ele>
        <time>2021-06-01T08:04:44Z</time>
      </trkpt>
      <trkpt lat="45.55523" lon="6.6452">
        <ele>658.2</ele>
        <time>2021-06-01T08:04:45Z</time>
      </trkpt>
      <trkpt lat="45.55522" lon="6.64507">
        <ele>657.8</ele>
        <time>2021-06-01T08:04:46Z</time>
      </trkpt>
      <trkpt lat="45.5552" lon="6.64495">
        <ele>657</ele>
        <time>2021-06-01T08:04:47Z</time>
      </trkpt>
      <trkpt lat="45.55519" lon="6.64482">
        <ele>656.8</ele>
        <time>2021-06-01T08:04:48Z</time>
      </trkpt>
      <trkpt lat="45.55517" lon="6.6447">
        <ele>656.8</ele>
        <time>2021-06-01T08:04:49Z</time>
      </trkpt>
      <trkpt lat="45.55516" lon="6.64458">
        <ele>656.8</ele>
        <time>2021-06-01T08:04:50Z</time>
      </trkpt>
      <trkpt lat="45.55516" lon="6.64445">
        <ele>656.6</ele>
        <time>2021-06-01T08:04:51Z</time>
      </trkpt>
      <trkpt lat="45.55517" lon="6.64433">
        <ele>656</ele>
        <time>2021-06-01T08:04:52Z</time>
      </trkpt>
      <trkpt lat="45.55518" lon="6.64422">
        <ele>655.8</ele>
        <time>2021-06-01T08:04:53Z</time>
      </trkpt>
      <trkpt lat="45.55518" lon="6.64411">
        <ele>655.8</ele>
        <time>2021-06-01T08:04:54Z</time>
      </trkpt>
      <trkpt lat="45.55518" lon="6.64399">
        <ele>656</ele>
        <time>2021-06-01T08:04:55Z</time>
      </trkpt>
      <trkpt lat="45.55517" lon="6.64388">
        <ele>656</ele>
        <time>2021-06-01T08:04:56Z</time>
      </trkpt>
      <trkpt lat="45.55516" lon="6.64377">
        <ele>655.8</ele>
        <time>2021-06-01T08:04:57Z</time>
      </trkpt>
      <trkpt lat="45.55514" lon="6.64366">
        <ele>655.6</ele>
        <time>2021-06-01T08:04:58Z</time>
      </trkpt>
      <trkpt lat="45.55513" lon="6.64354">
        <ele>655.8</ele>
        <time>2021-06-01T08:04:59Z</time>
      </trkpt>
      <trkpt lat="45.55511" lon="6.64343">
        <ele>656</ele>
        <time>2021-06-01T08:05:00Z</time>
      </trkpt>
      <trkpt lat="45.55509" lon="6.64331">
        <ele>656.2</ele>
        <time>2021-06-01T08:05:01Z</time>
      </trkpt>
      <trkpt lat="45.55507" lon="6.64321">
        <ele>656.2</ele>
        <time>2021-06-01T08:05:02Z</time>
      </trkpt>
      <trkpt lat="45.55505" lon="6.6431">
        <ele>656.2</ele>
        <time>2021-06-01T08:05:03Z</time>
      </trkpt>
      <trkpt lat="45.55503" lon="6.64299">
        <ele>656.2</ele>
        <time>2021-06-01T08:05:04Z</time>
      </trkpt>
      <trkpt lat="45.55501" lon="6.64289">
        <ele>656.2</ele>
        <time>2021-06-01T08:05:05Z</time>
      </trkpt>
      <trkpt lat="45.555" lon="6.64278">
        <ele>656.4</ele>
        <time>2021-06-01T08:05:06Z</time>
      </trkpt>
      <trkpt lat="45.55498" lon="6.64268">
        <ele>656.2</ele>
        <time>2021-06-01T08:05:07Z</time>
      </trkpt>
      <trkpt lat="45.55496" lon="6.64258">
        <ele>656.2</ele>
        <time>2021-06-01T08:05:08Z</time>
      </trkpt>
      <trkpt lat="45.55493" lon="6.64248">
        <ele>656.6</ele>
        <time>2021-06-01T08:05:09Z</time>
      </trkpt>
      <trkpt lat="45.55491" lon="6.64238">
        <ele>656.6</ele>
        <time>2021-06-01T08:05:10Z</time>
      </trkpt>
      <trkpt lat="45.55489" lon="6.64228">
        <ele>656.6</ele>
        <time>2021-06-01T08:05:11Z</time>
      </trkpt>
      <trkpt lat="45.55487" lon="6.64219">
        <ele>656.8</ele>
        <time>2021-06-01T08:05:12Z</time>
      </trkpt>
      <trkpt lat="45.55485" lon="6.6421">
        <ele>657</ele>
        <time>2021-06-01T08:05:13Z</time>
      </trkpt>
      <trkpt lat="45.55483" lon="6.642">
        <ele>657</ele>
        <time>2021-06-01T08:05:14Z</time>
      </trkpt>
      <trkpt lat="45.5548" lon="6.64191">
        <ele>657</ele>
        <time>2021-06-01T08:05:15Z</time>
      </trkpt>
      <trkpt lat="45.55478" lon="6.64182">
        <ele>657</ele>
        <time>2021-06-01T08:05:16Z</time>
      </trkpt>
      <trkpt lat="45.55475" lon="6.64173">
        <ele>657</ele>
        <time>2021-06-01T08:05:17Z</time>
      </trkpt>
      <trkpt lat="45.55472" lon="6.64164">
        <ele>657</ele>
        <time>2021-06-01T08:05:18Z</time>
      </trkpt>
      <trkpt lat="45.55469" lon="6.64156">
        <ele>656.6</ele>
        <time>2021-06-01T08:05:19Z</time>
      </trkpt>
      <trkpt lat="45.55466" lon="6.64147">
        <ele>656.6</ele>
        <time>2021-06-01T08:05:20Z</time>
      </trkpt>
      <trkpt lat="45.55463" lon="6.64139">
        <ele>656.4</ele>
        <time>2021-06-01T08:05:21Z</time>
      </trkpt>
      <trkpt lat="45.5546" lon="6.64131">
        <ele>656.6</ele>
        <time>2021-06-01T08:05:22Z</time>
      </trkpt>
      <trkpt lat="45.55457" lon="6.64123">
        <ele>656.8</ele>
        <time>2021-06-01T08:05:23Z</time>
      </trkpt>
      <trkpt lat="45.55453" lon="6.64116">
        <ele>656.6</ele>
        <time>2021-06-01T08:05:24Z</time>
      </trkpt>
      <trkpt lat="45.5545" lon="6.64108">
        <ele>656.8</ele>
        <time>2021-06-01T08:05:25Z</time>
      </trkpt>
      <trkpt lat="45.55447" lon="6.64101">
        <ele>657</ele>
        <time>2021-06-01T08:05:26Z</time>
      </trkpt>
      <trkpt lat="45.55443" lon="6.64093">
        <ele>657</ele>
        <time>2021-06-01T08:05:27Z</time>
      </trkpt>
      <trkpt lat="45.55439" lon="6.64086">
        <ele>657.2</ele>
        <time>2021-06-01T08:05:28Z</time>
      </trkpt>
      <trkpt lat="45.55435" lon="6.64079">
        <ele>657.4</ele>
        <time>2021-06-01T08:05:29Z</time>
      </trkpt>
      <trkpt lat="45.55431" lon="6.64072">
        <ele>657.4</ele>
        <time>2021-06-01T08:05:30Z</time>
      </trkpt>
      <trkpt lat="45.55428" lon="6.64065">
        <ele>657.4</ele>
        <time>2021-06-01T08:05:31Z</time>
      </trkpt>
      <trkpt lat="45.55425" lon="6.64057">
        <ele>657.6</ele>
        <time>2021-06-01T08:05:32Z</time>
      </trkpt>
      <trkpt lat="45.55421" lon="6.6405">
        <ele>658</ele>
        <time>2021-06-01T08:05:33Z</time>
      </trkpt>
      <trkpt lat="45.55418" lon="6.64043">
        <ele>658.2</ele>
        <time>2021-06-01T08:05:34Z</time>
      </trkpt>
      <trkpt lat="45.55414" lon="6.64036">
        <ele>658.4</ele>
        <time>2021-06-01T08:05:35Z</time>
      </trkpt>
      <trkpt lat="45.55411" lon="6.64028">
        <ele>658.8</ele>
        <time>2021-06-01T08:05:36Z</time>
      </trkpt>
      <trkpt lat="45.55408" lon="6.64021">
        <ele>659</ele>
        <time>2021-06-01T08:05:37Z</time>
      </trkpt>
      <trkpt lat="45.55405" lon="6.64013">
        <ele>659.2</ele>
        <time>2021-06-01T08:05:38Z</time>
      </trkpt>
      <trkpt lat="45.55401" lon="6.64006">
        <ele>659.4</ele>
        <time>2021-06-01T08:05:39Z</time>
      </trkpt>
      <trkpt lat="45.55397" lon="6.63999">
        <ele>659.6</ele>
        <time>2021-06-01T08:05:40Z</time>
      </trkpt>
      <trkpt lat="45.55394" lon="6.63991">
        <ele>659.6</ele>
        <time>2021-06-01T08:05:41Z</time>
      </trkpt>
      <trkpt lat="45.5539" lon="6.63984">
        <ele>659.8</ele>
        <time>2021-06-01T08:05:42Z</time>
      </trkpt>
      <trkpt lat="45.55386" lon="6.63976">
        <ele>659.8</ele>
        <time>2021-06-01T08:05:43Z</time>
      </trkpt>
      <trkpt lat="45.55383" lon="6.63969">
        <ele>660</ele>
        <time>2021-06-01T08:05:44Z</time>
      </trkpt>
      <trkpt lat="45.55379" lon="6.63961">
        <ele>660</ele>
        <time>2021-06-01T08:05:45Z</time>
      </trkpt>
      <trkpt lat="45.55375" lon="6.63953">
        <ele>660.2</ele>
        <time>2021-06-01T08:05:46Z</time>
      </trkpt>
      <trkpt lat="45.5537" lon="6.63946">
        <ele>660.8</ele>
        <time>2021-06-01T08:05:47Z</time>
      </trkpt>
      <trkpt lat="45.55366" lon="6.63939">
        <ele>661</ele>
        <time>2021-06-01T08:05:48Z</time>
      </trkpt>
      <trkpt lat="45.55363" lon="6.63931">
        <ele>661</ele>
        <time>2021-06-01T08:05:49Z</time>
      </trkpt>
      <trkpt lat="45.55359" lon="6.63924">
        <ele>661.2</ele>
        <time>2021-06-01T08:05:50Z</time>
      </trkpt>
      <trkpt lat="45.55356" lon="6.63916">
        <ele>661.6</ele>
        <time>2021-06-01T08:05:51Z</time>
      </trkpt>
      <trkpt lat="45.55352" lon="6.63908">
        <ele>661.8</ele>
        <time>2021-06-01T08:05:52Z</time>
      </trkpt>
      <trkpt lat="45.55349" lon="6.639">
        <ele>662</ele>
        <time>2021-06-01T08:05:53Z</time>
      </trkpt>
      <trkpt lat="45.55346" lon="6.63892">
        <ele>662</ele>
        <time>2021-06-01T08:05:54Z</time>
      </trkpt>
      <trkpt lat="45.55344" lon="6.63884">
        <ele>662</ele>
        <time>2021-06-01T08:05:55Z</time>
      </trkpt>
      <trkpt lat="45.55341" lon="6.63875">
        <ele>662.2</ele>
        <time>2021-06-01T08:05:56Z</time>
      </trkpt>
      <trkpt lat="45.55339" lon="6.63866">
        <ele>662.6</ele>
        <time>2021-06-01T08:05:57Z</time>
      </trkpt>
      <trkpt lat="45.55337" lon="6.63858">
        <ele>662.6</ele>
        <time>2021-06-01T08:05:58Z</time>
      </trkpt>
      <trkpt lat="45.55335" lon="6.63849">
        <ele>662.8</ele>
        <time>2021-06-01T08:05:59Z</time>
      </trkpt>
      <trkpt lat="45.55334" lon="6.63839">
        <ele>662.8</ele>
        <time>2021-06-01T08:06:00Z</time>
      </trkpt>
      <trkpt lat="45.55332" lon="6.6383">
        <ele>663</ele>
        <time>2021-06-01T08:06:01Z</time>
      </trkpt>
      <trkpt lat="45.55332" lon="6.6382">
        <ele>662.8</ele>
        <time>2021-06-01T08:06:02Z</time>
      </trkpt>
      <trkpt lat="45.5533" lon="6.6381">
        <ele>662.4</ele>
        <time>2021-06-01T08:06:03Z</time>
      </trkpt>
      <trkpt lat="45.5533" lon="6.638">
        <ele>662.2</ele>
        <time>2021-06-01T08:06:04Z</time>
      </trkpt>
      <trkpt lat="45.55328" lon="6.6379">
        <ele>661.8</ele>
        <time>2021-06-01T08:06:05Z</time>
      </trkpt>
      <trkpt lat="45.55327" lon="6.63779">
        <ele>661.6</ele>
        <time>2021-06-01T08:06:06Z</time>
      </trkpt>
      <trkpt lat="45.55326" lon="6.63768">
        <ele>661.8</ele>
        <time>2021-06-01T08:06:07Z</time>
      </trkpt>
      <trkpt lat="45.55324" lon="6.63757">
        <ele>662</ele>
        <time>2021-06-01T08:06:08Z</time>
      </trkpt>
      <trkpt lat="45.55323" lon="6.63746">
        <ele>662.2</ele>
        <time>2021-06-01T08:06:09Z</time>
      </trkpt>
      <trkpt lat="45.5532" lon="6.63735">
        <ele>662.8</ele>
        <time>2021-06-01T08:06:10Z</time>
      </trkpt>
      <trkpt lat="45.55317" lon="6.63725">
        <ele>663</ele>
        <time>2021-06-01T08:06:11Z</time>
      </trkpt>
      <trkpt lat="45.55315" lon="6.63713">
        <ele>663.4</ele>
        <time>2021-06-01T08:06:12Z</time>
      </trkpt>
      <trkpt lat="45.55311" lon="6.63702">
        <ele>663.4</ele>
        <time>2021-06-01T08:06:13Z</time>
      </trkpt>
      <trkpt lat="45.55308" lon="6.63692">
        <ele>663.8</ele>
        <time>2021-06-01T08:06:14Z</time>
      </trkpt>
      <trkpt lat="45.55304" lon="6.63682">
        <ele>664</ele>
        <time>2021-06-01T08:06:15Z</time>
      </trkpt>
      <trkpt lat="45.553" lon="6.63671">
        <ele>664</ele>
        <time>2021-06-01T08:06:16Z</time>
      </trkpt>
      <trkpt lat="45.55296" lon="6.63662">
        <ele>664.2</ele>
        <time>2021-06-01T08:06:17Z</time>
      </trkpt>
      <trkpt lat="45.55291" lon="6.63653">
        <ele>664.4</ele>
        <time>2021-06-01T08:06:18Z</time>
      </trkpt>
      <trkpt lat="45.55287" lon="6.63644">
        <ele>664.6</ele>
        <time>2021-06-01T08:06:19Z</time>
      </trkpt>
      <trkpt lat="45.55282" lon="6.63636">
        <ele>665</ele>
        <time>2021-06-01T08:06:20Z</time>
      </trkpt>
      <trkpt lat="45.55278" lon="6.63628">
        <ele>665</ele>
        <time>2021-06-01T08:06:21Z</time>
      </trkpt>
      <trkpt lat="45.55273" lon="6.6362">
        <ele>665.2</ele>
        <time>2021-06-01T08:06:22Z</time>
      </trkpt>
      <trkpt lat="45.55269" lon="6.63613">
        <ele>665.2</ele>
        <time>2021-06-01T08:06:23Z</time>
      </trkpt>
      <trkpt lat="45.55264" lon="6.63605">
        <ele>665.2</ele>
        <time>2021-06-01T08:06:24Z</time>
      </trkpt>
      <trkpt lat="45.55259" lon="6.63598">
        <ele>665.2</ele>
        <time>2021-06-01T08:06:25Z</time>
      </trkpt>
      <trkpt lat="45.55255" lon="6.63591">
        <ele>665.2</ele>
        <time>2021-06-01T08:06:26Z</time>
      </trkpt>
      <trkpt lat="45.55251" lon="6.63584">
        <ele>665.2</ele>
        <time>2021-06-01T08:06:27Z</time>
      </trkpt>
      <trkpt lat="45.55246" lon="6.63576">
        <ele>665.4</ele>
        <time>2021-06-01T08:06:28Z</time>
      </trkpt>
      <trkpt lat="45.55241" lon="6.63569">
        <ele>665.2</ele>
        <time>2021-06-01T08:06:29Z</time>
      </trkpt>
      <trkpt lat="45.55237" lon="6.63562">
        <ele>665.4</ele>
        <time>2021-06-01T08:06:30Z</time>
      </trkpt>
      <trkpt lat="45.55233" lon="6.63555">
        <ele>665.6</ele>
        <time>2021-06-01T08:06:31Z</time>
      </trkpt>
      <trkpt lat="45.55229" lon="6.63548">
        <ele>665.8</ele>
        <time>2021-06-01T08:06:32Z</time>
      </trkpt>
      <trkpt lat="45.55225" lon="6.63541">
        <ele>666</ele>
        <time>2021-06-01T08:06:33Z</time>
      </trkpt>
      <trkpt lat="45.5522" lon="6.63534">
        <ele>666.2</ele>
        <time>2021-06-01T08:06:34Z</time>
      </trkpt>
      <trkpt lat="45.55217" lon="6.63527">
        <ele>666</ele>
        <time>2021-06-01T08:06:35Z</time>
      </trkpt>
      <trkpt lat="45.55212" lon="6.63519">
        <ele>666</ele>
        <time>2021-06-01T08:06:36Z</time>
      </trkpt>
      <trkpt lat="45.55208" lon="6.63512">
        <ele>666</ele>
        <time>2021-06-01T08:06:37Z</time>
      </trkpt>
      <trkpt lat="45.55204" lon="6.63505">
        <ele>666.6</ele>
        <time>2021-06-01T08:06:38Z</time>
      </trkpt>
      <trkpt lat="45.552" lon="6.63497">
        <ele>666.4</ele>
        <time>2021-06-01T08:06:39Z</time>
      </trkpt>
      <trkpt lat="45.55196" lon="6.63489">
        <ele>666.6</ele>
        <time>2021-06-01T08:06:40Z</time>
      </trkpt>
      <trkpt lat="45.55192" lon="6.63481">
        <ele>666.8</ele>
        <time>2021-06-01T08:06:41Z</time>
      </trkpt>
      <trkpt lat="45.55189" lon="6.63473">
        <ele>667</ele>
        <time>2021-06-01T08:06:42Z</time>
      </trkpt>
      <trkpt lat="45.55185" lon="6.63464">
        <ele>667.2</ele>
        <time>2021-06-01T08:06:43Z</time>
      </trkpt>
      <trkpt lat="45.55181" lon="6.63456">
        <ele>667.4</ele>
        <time>2021-06-01T08:06:44Z</time>
      </trkpt>
      <trkpt lat="45.55178" lon="6.63447">
        <ele>667.4</ele>
        <time>2021-06-01T08:06:45Z</time>
      </trkpt>
      <trkpt lat="45.55175" lon="6.63438">
        <ele>667.4</ele>
        <time>2021-06-01T08:06:46Z</time>
      </trkpt>
      <trkpt lat="45.55172" lon="6.63429">
        <ele>667.4</ele>
        <time>2021-06-01T08:06:47Z</time>
      </trkpt>
      <trkpt lat="45.55169" lon="6.6342">
        <ele>667.6</ele>
        <time>2021-06-01T08:06:48Z</time>
      </trkpt>
      <trkpt lat="45.55166" lon="6.6341">
        <ele>667.8</ele>
        <time>2021-06-01T08:06:49Z</time>
      </trkpt>
      <trkpt lat="45.55164" lon="6.634">
        <ele>668</ele>
        <time>2021-06-01T08:06:50Z</time>
      </trkpt>
      <trkpt lat="45.55162" lon="6.6339">
        <ele>668</ele>
        <time>2021-06-01T08:06:51Z</time>
      </trkpt>
      <trkpt lat="45.5516" lon="6.6338">
        <ele>667.8</ele>
        <time>2021-06-01T08:06:52Z</time>
      </trkpt>
      <trkpt lat="45.55158" lon="6.6337">
        <ele>668</ele>
        <time>2021-06-01T08:06:53Z</time>
      </trkpt>
      <trkpt lat="45.55157" lon="6.6336">
        <ele>667.8</ele>
        <time>2021-06-01T08:06:54Z</time>
      </trkpt>
      <trkpt lat="45.55156" lon="6.63349">
        <ele>667.8</ele>
        <time>2021-06-01T08:06:55Z</time>
      </trkpt>
      <trkpt lat="45.55155" lon="6.63339">
        <ele>668</ele>
        <time>2021-06-01T08:06:56Z</time>
      </trkpt>
      <trkpt lat="45.55153" lon="6.63328">
        <ele>668</ele>
        <time>2021-06-01T08:06:57Z</time>
      </trkpt>
      <trkpt lat="45.55153" lon="6.63318">
        <ele>667.8</ele>
        <time>2021-06-01T08:06:58Z</time>
      </trkpt>
      <trkpt lat="45.55152" lon="6.63307">
        <ele>667.8</ele>
        <time>2021-06-01T08:06:59Z</time>
      </trkpt>
      <trkpt lat="45.55152" lon="6.63297">
        <ele>668</ele>
        <time>2021-06-01T08:07:00Z</time>
      </trkpt>
      <trkpt lat="45.55152" lon="6.63286">
        <ele>668.2</ele>
        <time>2021-06-01T08:07:01Z</time>
      </trkpt>
      <trkpt lat="45.55151" lon="6.63276">
        <ele>668.4</ele>
        <time>2021-06-01T08:07:02Z</time>
      </trkpt>
      <trkpt lat="45.55151" lon="6.63266">
        <ele>668.2</ele>
        <time>2021-06-01T08:07:03Z</time>
      </trkpt>
      <trkpt lat="45.55152" lon="6.63255">
        <ele>668.2</ele>
        <time>2021-06-01T08:07:04Z</time>
      </trkpt>
      <trkpt lat="45.55153" lon="6.63245">
        <ele>668.2</ele>
        <time>2021-06-01T08:07:05Z</time>
      </trkpt>
      <trkpt lat="45.55154" lon="6.63235">
        <ele>668.2</ele>
        <time>2021-06-01T08:07:06Z</time>
      </trkpt>
      <trkpt lat="45.55155" lon="6.63225">
        <ele>668.4</ele>
        <time>2021-06-01T08:07:07Z</time>
      </trkpt>
      <trkpt lat="45.55155" lon="6.63214">
        <ele>668.4</ele>
        <time>2021-06-01T08:07:08Z</time>
      </trkpt>
      <trkpt lat="45.55156" lon="6.63204">
        <ele>668.2</ele>
        <time>2021-06-01T08:07:09Z</time>
      </trkpt>
      <trkpt lat="45.55157" lon="6.63194">
        <ele>668.2</ele>
        <time>2021-06-01T08:07:10Z</time>
      </trkpt>
      <trkpt lat="45.55159" lon="6.63183">
        <ele>668.2</ele>
        <time>2021-06-01T08:07:11Z</time>
      </trkpt>
      <trkpt lat="45.55159" lon="6.63173">
        <ele>668.2</ele>
        <time>2021-06-01T08:07:12Z</time>
      </trkpt>
      <trkpt lat="45.55161" lon="6.63162">
        <ele>668</ele>
        <time>2021-06-01T08:07:13Z</time>
      </trkpt>
      <trkpt lat="45.55161" lon="6.63152">
        <ele>668.4</ele>
        <time>2021-06-01T08:07:14Z</time>
      </trkpt>
      <trkpt lat="45.55162" lon="6.63142">
        <ele>668.6</ele>
        <time>2021-06-01T08:07:15Z</time>
      </trkpt>
      <trkpt lat="45.55163" lon="6.63132">
        <ele>668.6</ele>
        <time>2021-06-01T08:07:16Z</time>
      </trkpt>
      <trkpt lat="45.55163" lon="6.63122">
        <ele>668.8</ele>
        <time>2021-06-01T08:07:17Z</time>
      </trkpt>
      <trkpt lat="45.55164" lon="6.63112">
        <ele>668.6</ele>
        <time>2021-06-01T08:07:18Z</time>
      </trkpt>
      <trkpt lat="45.55164" lon="6.63102">
        <ele>668.8</ele>
        <time>2021-06-01T08:07:19Z</time>
      </trkpt>
      <trkpt lat="45.55165" lon="6.63092">
        <ele>669</ele>
        <time>2021-06-01T08:07:20Z</time>
      </trkpt>
      <trkpt lat="45.55165" lon="6.63082">
        <ele>669.2</ele>
        <time>2021-06-01T08:07:21Z</time>
      </trkpt>
      <trkpt lat="45.55166" lon="6.63073">
        <ele>669.4</ele>
        <time>2021-06-01T08:07:22Z</time>
      </trkpt>
      <trkpt lat="45.55167" lon="6.63063">
        <ele>669.4</ele>
        <time>2021-06-01T08:07:23Z</time>
      </trkpt>
      <trkpt lat="45.55167" lon="6.63054">
        <ele>669.4</ele>
        <time>2021-06-01T08:07:24Z</time>
      </trkpt>
      <trkpt lat="45.55167" lon="6.63044">
        <ele>669.8</ele>
        <time>2021-06-01T08:07:25Z</time>
      </trkpt>
      <trkpt lat="45.55166" lon="6.63034">
        <ele>670</ele>
        <time>2021-06-01T08:07:26Z</time>
      </trkpt>
      <trkpt lat="45.55165" lon="6.63025">
        <ele>670</ele>
        <time>2021-06-01T08:07:27Z</time>
      </trkpt>
      <trkpt lat="45.55165" lon="6.63016">
        <ele>670.2</ele>
        <time>2021-06-01T08:07:28Z</time>
      </trkpt>
      <trkpt lat="45.55164" lon="6.63006">
        <ele>670.4</ele>
        <time>2021-06-01T08:07:29Z</time>
      </trkpt>
      <trkpt lat="45.55163" lon="6.62997">
        <ele>670.6</ele>
        <time>2021-06-01T08:07:30Z</time>
      </trkpt>
      <trkpt lat="45.55162" lon="6.62988">
        <ele>671</ele>
        <time>2021-06-01T08:07:31Z</time>
      </trkpt>
      <trkpt lat="45.55161" lon="6.62979">
        <ele>671</ele>
        <time>2021-06-01T08:07:32Z</time>
      </trkpt>
      <trkpt lat="45.55159" lon="6.6297">
        <ele>672.2</ele>
        <time>2021-06-01T08:07:33Z</time>
      </trkpt>
      <trkpt lat="45.55158" lon="6.62961">
        <ele>673.2</ele>
        <time>2021-06-01T08:07:34Z</time>
      </trkpt>
      <trkpt lat="45.55156" lon="6.62952">
        <ele>673</ele>
        <time>2021-06-01T08:07:35Z</time>
      </trkpt>
      <trkpt lat="45.55154" lon="6.62943">
        <ele>672.8</ele>
        <time>2021-06-01T08:07:36Z</time>
      </trkpt>
      <trkpt lat="45.55152" lon="6.62933">
        <ele>672.8</ele>
        <time>2021-06-01T08:07:37Z</time>
      </trkpt>
      <trkpt lat="45.55151" lon="6.62922">
        <ele>673.2</ele>
        <time>2021-06-01T08:07:38Z</time>
      </trkpt>
      <trkpt lat="45.55149" lon="6.62913">
        <ele>672.8</ele>
        <time>2021-06-01T08:07:39Z</time>
      </trkpt>
      <trkpt lat="45.55147" lon="6.62903">
        <ele>672.8</ele>
        <time>2021-06-01T08:07:40Z</time>
      </trkpt>
      <trkpt lat="45.55145" lon="6.62894">
        <ele>672.8</ele>
        <time>2021-06-01T08:07:41Z</time>
      </trkpt>
      <trkpt lat="45.55142" lon="6.62885">
        <ele>672.8</ele>
        <time>2021-06-01T08:07:42Z</time>
      </trkpt>
      <trkpt lat="45.55138" lon="6.62877">
        <ele>673</ele>
        <time>2021-06-01T08:07:43Z</time>
      </trkpt>
      <trkpt lat="45.55135" lon="6.62868">
        <ele>673</ele>
        <time>2021-06-01T08:07:44Z</time>
      </trkpt>
      <trkpt lat="45.55132" lon="6.62859">
        <ele>673</ele>
        <time>2021-06-01T08:07:45Z</time>
      </trkpt>
      <trkpt lat="45.55128" lon="6.6285">
        <ele>673.2</ele>
        <time>2021-06-01T08:07:46Z</time>
      </trkpt>
      <trkpt lat="45.55125" lon="6.62841">
        <ele>673.4</ele>
        <time>2021-06-01T08:07:47Z</time>
      </trkpt>
      <trkpt lat="45.55121" lon="6.62833">
        <ele>673.4</ele>
        <time>2021-06-01T08:07:48Z</time>
      </trkpt>
      <trkpt lat="45.55117" lon="6.62824">
        <ele>673.4</ele>
        <time>2021-06-01T08:07:49Z</time>
      </trkpt>
      <trkpt lat="45.55114" lon="6.62816">
        <ele>673.4</ele>
        <time>2021-06-01T08:07:50Z</time>
      </trkpt>
      <trkpt lat="45.55109" lon="6.62807">
        <ele>673.2</ele>
        <time>2021-06-01T08:07:51Z</time>
      </trkpt>
      <trkpt lat="45.55106" lon="6.62799">
        <ele>673</ele>
        <time>2021-06-01T08:07:52Z</time>
      </trkpt>
      <trkpt lat="45.55101" lon="6.62791">
        <ele>673</ele>
        <time>2021-06-01T08:07:53Z</time>
      </trkpt>
      <trkpt lat="45.55097" lon="6.62782">
        <ele>673</ele>
        <time>2021-06-01T08:07:54Z</time>
      </trkpt>
      <trkpt lat="45.55093" lon="6.62774">
        <ele>672.8</ele>
        <time>2021-06-01T08:07:55Z</time>
      </trkpt>
      <trkpt lat="45.5509" lon="6.62765">
        <ele>672.8</ele>
        <time>2021-06-01T08:07:56Z</time>
      </trkpt>
      <trkpt lat="45.55086" lon="6.62756">
        <ele>672.8</ele>
        <time>2021-06-01T08:07:57Z</time>
      </trkpt>
      <trkpt lat="45.55082" lon="6.62747">
        <ele>672.6</ele>
        <time>2021-06-01T08:07:58Z</time>
      </trkpt>
      <trkpt lat="45.55078" lon="6.62738">
        <ele>672.6</ele>
        <time>2021-06-01T08:07:59Z</time>
      </trkpt>
      <trkpt lat="45.55074" lon="6.62729">
        <ele>672.6</ele>
        <time>2021-06-01T08:08:00Z</time>
      </trkpt>
      <trkpt lat="45.5507" lon="6.6272">
        <ele>672.6</ele>
        <time>2021-06-01T08:08:01Z</time>
      </trkpt>
      <trkpt lat="45.55067" lon="6.62711">
        <ele>672.2</ele>
        <time>2021-06-01T08:08:02Z</time>
      </trkpt>
      <trkpt lat="45.55063" lon="6.62702">
        <ele>672</ele>
        <time>2021-06-01T08:08:03Z</time>
      </trkpt>
      <trkpt lat="45.55059" lon="6.62693">
        <ele>673</ele>
        <time>2021-06-01T08:08:04Z</time>
      </trkpt>
      <trkpt lat="45.55054" lon="6.62685">
        <ele>673</ele>
        <time>2021-06-01T08:08:05Z</time>
      </trkpt>
      <trkpt lat="45.5505" lon="6.62676">
        <ele>673.4</ele>
        <time>2021-06-01T08:08:06Z</time>
      </trkpt>
      <trkpt lat="45.55046" lon="6.62667">
        <ele>673</ele>
        <time>2021-06-01T08:08:07Z</time>
      </trkpt>
      <trkpt lat="45.55042" lon="6.62658">
        <ele>673</ele>
        <time>2021-06-01T08:08:08Z</time>
      </trkpt>
      <trkpt lat="45.55038" lon="6.62649">
        <ele>673.4</ele>
        <time>2021-06-01T08:08:09Z</time>
      </trkpt>
      <trkpt lat="45.55034" lon="6.6264">
        <ele>673.2</ele>
        <time>2021-06-01T08:08:10Z</time>
      </trkpt>
      <trkpt lat="45.5503" lon="6.6263">
        <ele>673</ele>
        <time>2021-06-01T08:08:11Z</time>
      </trkpt>
      <trkpt lat="45.55027" lon="6.62619">
        <ele>672.6</ele>
        <time>2021-06-01T08:08:12Z</time>
      </trkpt>
      <trkpt lat="45.55024" lon="6.62609">
        <ele>672.6</ele>
        <time>2021-06-01T08:08:13Z</time>
      </trkpt>
      <trkpt lat="45.5502" lon="6.62598">
        <ele>672.2</ele>
        <time>2021-06-01T08:08:14Z</time>
      </trkpt>
      <trkpt lat="45.55018" lon="6.62587">
        <ele>671.6</ele>
        <time>2021-06-01T08:08:15Z</time>
      </trkpt>
      <trkpt lat="45.55016" lon="6.62576">
        <ele>671.2</ele>
        <time>2021-06-01T08:08:16Z</time>
      </trkpt>
      <trkpt lat="45.55013" lon="6.62565">
        <ele>671</ele>
        <time>2021-06-01T08:08:17Z</time>
      </trkpt>
      <trkpt lat="45.55011" lon="6.62553">
        <ele>670.8</ele>
        <time>2021-06-01T08:08:18Z</time>
      </trkpt>
      <trkpt lat="45.55009" lon="6.62542">
        <ele>670.6</ele>
        <time>2021-06-01T08:08:19Z</time>
      </trkpt>
      <trkpt lat="45.55006" lon="6.6253">
        <ele>670.2</ele>
        <time>2021-06-01T08:08:20Z</time>
      </trkpt>
      <trkpt lat="45.55003" lon="6.62519">
        <ele>670.2</ele>
        <time>2021-06-01T08:08:21Z</time>
      </trkpt>
      <trkpt lat="45.55" lon="6.62507">
        <ele>670</ele>
        <time>2021-06-01T08:08:22Z</time>
      </trkpt>
      <trkpt lat="45.54997" lon="6.62496">
        <ele>670</ele>
        <time>2021-06-01T08:08:23Z</time>
      </trkpt>
      <trkpt lat="45.54993" lon="6.62485">
        <ele>669.8</ele>
        <time>2021-06-01T08:08:24Z</time>
      </trkpt>
      <trkpt lat="45.54989" lon="6.62474">
        <ele>669.6</ele>
        <time>2021-06-01T08:08:25Z</time>
      </trkpt>
      <trkpt lat="45.54986" lon="6.62463">
        <ele>669.6</ele>
        <time>2021-06-01T08:08:26Z</time>
      </trkpt>
      <trkpt lat="45.54982" lon="6.62452">
        <ele>669.6</ele>
        <time>2021-06-01T08:08:27Z</time>
      </trkpt>
      <trkpt lat="45.54978" lon="6.62441">
        <ele>669</ele>
        <time>2021-06-01T08:08:28Z</time>
      </trkpt>
      <trkpt lat="45.54974" lon="6.6243">
        <ele>668.8</ele>
        <time>2021-06-01T08:08:29Z</time>
      </trkpt>
      <trkpt lat="45.54971" lon="6.6242">
        <ele>668.6</ele>
        <time>2021-06-01T08:08:30Z</time>
      </trkpt>
      <trkpt lat="45.54968" lon="6.62408">
        <ele>668.4</ele>
        <time>2021-06-01T08:08:31Z</time>
      </trkpt>
      <trkpt lat="45.54966" lon="6.62396">
        <ele>667.8</ele>
        <time>2021-06-01T08:08:32Z</time>
      </trkpt>
      <trkpt lat="45.54964" lon="6.62385">
        <ele>667.4</ele>
        <time>2021-06-01T08:08:33Z</time>
      </trkpt>
      <trkpt lat="45.54964" lon="6.62373">
        <ele>666.8</ele>
        <time>2021-06-01T08:08:34Z</time>
      </trkpt>
      <trkpt lat="45.54964" lon="6.62361">
        <ele>666.6</ele>
        <time>2021-06-01T08:08:35Z</time>
      </trkpt>
      <trkpt lat="45.54964" lon="6.62349">
        <ele>666</ele>
        <time>2021-06-01T08:08:36Z</time>
      </trkpt>
      <trkpt lat="45.54963" lon="6.62337">
        <ele>665.8</ele>
        <time>2021-06-01T08:08:37Z</time>
      </trkpt>
      <trkpt lat="45.54963" lon="6.62325">
        <ele>665.4</ele>
        <time>2021-06-01T08:08:38Z</time>
      </trkpt>
      <trkpt lat="45.54962" lon="6.62312">
        <ele>665</ele>
        <time>2021-06-01T08:08:39Z</time>
      </trkpt>
      <trkpt lat="45.54961" lon="6.62299">
        <ele>664.6</ele>
        <time>2021-06-01T08:08:40Z</time>
      </trkpt>
      <trkpt lat="45.5496" lon="6.62287">
        <ele>664.8</ele>
        <time>2021-06-01T08:08:41Z</time>
      </trkpt>
      <trkpt lat="45.54958" lon="6.62275">
        <ele>664.8</ele>
        <time>2021-06-01T08:08:42Z</time>
      </trkpt>
      <trkpt lat="45.54957" lon="6.62262">
        <ele>665</ele>
        <time>2021-06-01T08:08:43Z</time>
      </trkpt>
      <trkpt lat="45.54956" lon="6.6225">
        <ele>665.2</ele>
        <time>2021-06-01T08:08:44Z</time>
      </trkpt>
      <trkpt lat="45.54956" lon="6.62238">
        <ele>665.4</ele>
        <time>2021-06-01T08:08:45Z</time>
      </trkpt>
      <trkpt lat="45.54956" lon="6.62226">
        <ele>665.6</ele>
        <time>2021-06-01T08:08:46Z</time>
      </trkpt>
      <trkpt lat="45.54958" lon="6.62214">
        <ele>665.8</ele>
        <time>2021-06-01T08:08:47Z</time>
      </trkpt>
      <trkpt lat="45.54961" lon="6.62203">
        <ele>666</ele>
        <time>2021-06-01T08:08:48Z</time>
      </trkpt>
      <trkpt lat="45.54964" lon="6.62191">
        <ele>666</ele>
        <time>2021-06-01T08:08:49Z</time>
      </trkpt>
      <trkpt lat="45.54969" lon="6.6218">
        <ele>665.8</ele>
        <time>2021-06-01T08:08:50Z</time>
      </trkpt>
      <trkpt lat="45.54974" lon="6.6217">
        <ele>665.8</ele>
        <time>2021-06-01T08:08:51Z</time>
      </trkpt>
      <trkpt lat="45.54979" lon="6.6216">
        <ele>665.8</ele>
        <time>2021-06-01T08:08:52Z</time>
      </trkpt>
      <trkpt lat="45.54985" lon="6.62151">
        <ele>666</ele>
        <time>2021-06-01T08:08:53Z</time>
      </trkpt>
      <trkpt lat="45.54991" lon="6.62142">
        <ele>666</ele>
        <time>2021-06-01T08:08:54Z</time>
      </trkpt>
      <trkpt lat="45.54997" lon="6.62133">
        <ele>666.2</ele>
        <time>2021-06-01T08:08:55Z</time>
      </trkpt>
      <trkpt lat="45.55004" lon="6.62123">
        <ele>666.4</ele>
        <time>2021-06-01T08:08:56Z</time>
      </trkpt>
      <trkpt lat="45.5501" lon="6.62114">
        <ele>666.4</ele>
        <time>2021-06-01T08:08:57Z</time>
      </trkpt>
      <trkpt lat="45.55016" lon="6.62105">
        <ele>666.4</ele>
        <time>2021-06-01T08:08:58Z</time>
      </trkpt>
      <trkpt lat="45.55021" lon="6.62096">
        <ele>666.2</ele>
        <time>2021-06-01T08:08:59Z</time>
      </trkpt>
      <trkpt lat="45.55027" lon="6.62085">
        <ele>666.4</ele>
        <time>2021-06-01T08:09:00Z</time>
      </trkpt>
      <trkpt lat="45.55031" lon="6.62074">
        <ele>666.6</ele>
        <time>2021-06-01T08:09:01Z</time>
      </trkpt>
      <trkpt lat="45.55035" lon="6.62063">
        <ele>667</ele>
        <time>2021-06-01T08:09:02Z</time>
      </trkpt>
      <trkpt lat="45.55038" lon="6.62051">
        <ele>667</ele>
        <time>2021-06-01T08:09:03Z</time>
      </trkpt>
      <trkpt lat="45.55042" lon="6.6204">
        <ele>666.8</ele>
        <time>2021-06-01T08:09:04Z</time>
      </trkpt>
      <trkpt lat="45.55044" lon="6.62028">
        <ele>666.6</ele>
        <time>2021-06-01T08:09:05Z</time>
      </trkpt>
      <trkpt lat="45.55047" lon="6.62016">
        <ele>666</ele>
        <time>2021-06-01T08:09:06Z</time>
      </trkpt>
      <trkpt lat="45.55049" lon="6.62004">
        <ele>665.8</ele>
        <time>2021-06-01T08:09:07Z</time>
      </trkpt>
      <trkpt lat="45.55051" lon="6.61991">
        <ele>665.6</ele>
        <time>2021-06-01T08:09:08Z</time>
      </trkpt>
      <trkpt lat="45.55052" lon="6.61978">
        <ele>665.4</ele>
        <time>2021-06-01T08:09:09Z</time>
      </trkpt>
      <trkpt lat="45.55052" lon="6.61965">
        <ele>665.2</ele>
        <time>2021-06-01T08:09:10Z</time>
      </trkpt>
      <trkpt lat="45.5505" lon="6.61953">
        <ele>665</ele>
        <time>2021-06-01T08:09:11Z</time>
      </trkpt>
      <trkpt lat="45.55047" lon="6.61941">
        <ele>664.6</ele>
        <time>2021-06-01T08:09:12Z</time>
      </trkpt>
      <trkpt lat="45.55043" lon="6.6193">
        <ele>664.6</ele>
        <time>2021-06-01T08:09:13Z</time>
      </trkpt>
      <trkpt lat="45.55038" lon="6.61919">
        <ele>664.4</ele>
        <time>2021-06-01T08:09:14Z</time>
      </trkpt>
      <trkpt lat="45.55032" lon="6.61909">
        <ele>665</ele>
        <time>2021-06-01T08:09:15Z</time>
      </trkpt>
      <trkpt lat="45.55026" lon="6.619">
        <ele>665.6</ele>
        <time>2021-06-01T08:09:16Z</time>
      </trkpt>
      <trkpt lat="45.55019" lon="6.61892">
        <ele>666</ele>
        <time>2021-06-01T08:09:17Z</time>
      </trkpt>
      <trkpt lat="45.55012" lon="6.61883">
        <ele>666.2</ele>
        <time>2021-06-01T08:09:18Z</time>
      </trkpt>
      <trkpt lat="45.55006" lon="6.61874">
        <ele>666.4</ele>
        <time>2021-06-01T08:09:19Z</time>
      </trkpt>
      <trkpt lat="45.55" lon="6.61865">
        <ele>666.6</ele>
        <time>2021-06-01T08:09:20Z</time>
      </trkpt>
      <trkpt lat="45.54993" lon="6.61855">
        <ele>666.8</ele>
        <time>2021-06-01T08:09:21Z</time>
      </trkpt>
      <trkpt lat="45.54987" lon="6.61845">
        <ele>667.2</ele>
        <time>2021-06-01T08:09:22Z</time>
      </trkpt>
      <trkpt lat="45.54981" lon="6.61835">
        <ele>667.2</ele>
        <time>2021-06-01T08:09:23Z</time>
      </trkpt>
      <trkpt lat="45.54975" lon="6.61824">
        <ele>667.2</ele>
        <time>2021-06-01T08:09:24Z</time>
      </trkpt>
      <trkpt lat="45.5497" lon="6.61813">
        <ele>667.2</ele>
        <time>2021-06-01T08:09:25Z</time>
      </trkpt>
      <trkpt lat="45.54965" lon="6.61801">
        <ele>667.2</ele>
        <time>2021-06-01T08:09:26Z</time>
      </trkpt>
      <trkpt lat="45.5496" lon="6.6179">
        <ele>667</ele>
        <time>2021-06-01T08:09:27Z</time>
      </trkpt>
      <trkpt lat="45.54956" lon="6.61778">
        <ele>666.8</ele>
        <time>2021-06-01T08:09:28Z</time>
      </trkpt>
      <trkpt lat="45.54951" lon="6.61766">
        <ele>666.6</ele>
        <time>2021-06-01T08:09:29Z</time>
      </trkpt>
      <trkpt lat="45.54947" lon="6.61754">
        <ele>666.6</ele>
        <time>2021-06-01T08:09:30Z</time>
      </trkpt>
      <trkpt lat="45.54942" lon="6.61742">
        <ele>666.4</ele>
        <time>2021-06-01T08:09:31Z</time>
      </trkpt>
      <trkpt lat="45.54938" lon="6.6173">
        <ele>666.4</ele>
        <time>2021-06-01T08:09:32Z</time>
      </trkpt>
      <trkpt lat="45.54933" lon="6.61718">
        <ele>666.2</ele>
        <time>2021-06-01T08:09:33Z</time>
      </trkpt>
      <trkpt lat="45.54928" lon="6.61706">
        <ele>665.8</ele>
        <time>2021-06-01T08:09:34Z</time>
      </trkpt>
      <trkpt lat="45.54922" lon="6.61695">
        <ele>665.6</ele>
        <time>2021-06-01T08:09:35Z</time>
      </trkpt>
      <trkpt lat="45.54916" lon="6.61684">
        <ele>665.4</ele>
        <time>2021-06-01T08:09:36Z</time>
      </trkpt>
      <trkpt lat="45.54908" lon="6.61675">
        <ele>665.4</ele>
        <time>2021-06-01T08:09:37Z</time>
      </trkpt>
      <trkpt lat="45.54902" lon="6.61665">
        <ele>665.4</ele>
        <time>2021-06-01T08:09:38Z</time>
      </trkpt>
      <trkpt lat="45.54895" lon="6.61656">
        <ele>665.4</ele>
        <time>2021-06-01T08:09:39Z</time>
      </trkpt>
      <trkpt lat="45.54888" lon="6.61648">
        <ele>665.6</ele>
        <time>2021-06-01T08:09:40Z</time>
      </trkpt>
      <trkpt lat="45.5488" lon="6.61641">
        <ele>665.4</ele>
        <time>2021-06-01T08:09:41Z</time>
      </trkpt>
      <trkpt lat="45.54872" lon="6.61634">
        <ele>665.2</ele>
        <time>2021-06-01T08:09:42Z</time>
      </trkpt>
      <trkpt lat="45.54863" lon="6.61627">
        <ele>664.8</ele>
        <time>2021-06-01T08:09:43Z</time>
      </trkpt>
      <trkpt lat="45.54855" lon="6.61621">
        <ele>664.8</ele>
        <time>2021-06-01T08:09:44Z</time>
      </trkpt>
      <trkpt lat="45.54847" lon="6.61615">
        <ele>664.6</ele>
        <time>2021-06-01T08:09:45Z</time>
      </trkpt>
      <trkpt lat="45.54838" lon="6.6161">
        <ele>664.6</ele>
        <time>2021-06-01T08:09:46Z</time>
      </trkpt>
      <trkpt lat="45.54829" lon="6.61604">
        <ele>664.4</ele>
        <time>2021-06-01T08:09:47Z</time>
      </trkpt>
      <trkpt lat="45.5482" lon="6.61598">
        <ele>664</ele>
        <time>2021-06-01T08:09:48Z</time>
      </trkpt>
      <trkpt lat="45.54812" lon="6.61592">
        <ele>663.6</ele>
        <time>2021-06-01T08:09:49Z</time>
      </trkpt>
      <trkpt lat="45.54803" lon="6.61587">
        <ele>663.2</ele>
        <time>2021-06-01T08:09:50Z</time>
      </trkpt>
      <trkpt lat="45.54794" lon="6.61581">
        <ele>663</ele>
        <time>2021-06-01T08:09:51Z</time>
      </trkpt>
      <trkpt lat="45.54785" lon="6.61575">
        <ele>663</ele>
        <time>2021-06-01T08:09:52Z</time>
      </trkpt>
      <trkpt lat="45.54776" lon="6.61569">
        <ele>662.6</ele>
        <time>2021-06-01T08:09:53Z</time>
      </trkpt>
      <trkpt lat="45.54768" lon="6.61563">
        <ele>662.4</ele>
        <time>2021-06-01T08:09:54Z</time>
      </trkpt>
      <trkpt lat="45.5476" lon="6.61557">
        <ele>662.4</ele>
        <time>2021-06-01T08:09:55Z</time>
      </trkpt>
      <trkpt lat="45.54751" lon="6.61551">
        <ele>662.4</ele>
        <time>2021-06-01T08:09:56Z</time>
      </trkpt>
      <trkpt lat="45.54742" lon="6.61545">
        <ele>662.2</ele>
        <time>2021-06-01T08:09:57Z</time>
      </trkpt>
      <trkpt lat="45.54734" lon="6.6154">
        <ele>661.8</ele>
        <time>2021-06-01T08:09:58Z</time>
      </trkpt>
      <trkpt lat="45.54724" lon="6.61536">
        <ele>661.6</ele>
        <time>2021-06-01T08:09:59Z</time>
      </trkpt>
      <trkpt lat="45.54715" lon="6.61533">
        <ele>661.6</ele>
        <time>2021-06-01T08:10:00Z</time>
      </trkpt>
      <trkpt lat="45.54705" lon="6.61531">
        <ele>660.8</ele>
        <time>2021-06-01T08:10:01Z</time>
      </trkpt>
      <trkpt lat="45.54696" lon="6.61531">
        <ele>660.6</ele>
        <time>2021-06-01T08:10:02Z</time>
      </trkpt>
      <trkpt lat="45.54686" lon="6.61533">
        <ele>660.6</ele>
        <time>2021-06-01T08:10:03Z</time>
      </trkpt>
      <trkpt lat="45.54677" lon="6.61536">
        <ele>660.6</ele>
        <time>2021-06-01T08:10:04Z</time>
      </trkpt>
      <trkpt lat="45.54668" lon="6.6154">
        <ele>660.8</ele>
        <time>2021-06-01T08:10:05Z</time>
      </trkpt>
      <trkpt lat="45.54659" lon="6.61545">
        <ele>660.4</ele>
        <time>2021-06-01T08:10:06Z</time>
      </trkpt>
      <trkpt lat="45.5465" lon="6.6155">
        <ele>660.4</ele>
        <time>2021-06-01T08:10:07Z</time>
      </trkpt>
      <trkpt lat="45.54641" lon="6.61556">
        <ele>660.2</ele>
        <time>2021-06-01T08:10:08Z</time>
      </trkpt>
      <trkpt lat="45.54633" lon="6.61562">
        <ele>660.2</ele>
        <time>2021-06-01T08:10:09Z</time>
      </trkpt>
      <trkpt lat="45.54624" lon="6.61566">
        <ele>660</ele>
        <time>2021-06-01T08:10:10Z</time>
      </trkpt>
      <trkpt lat="45.54615" lon="6.61571">
        <ele>659.8</ele>
        <time>2021-06-01T08:10:11Z</time>
      </trkpt>
      <trkpt lat="45.54606" lon="6.61574">
        <ele>659.6</ele>
        <time>2021-06-01T08:10:12Z</time>
      </trkpt>
      <trkpt lat="45.54597" lon="6.61575">
        <ele>659.6</ele>
        <time>2021-06-01T08:10:13Z</time>
      </trkpt>
      <trkpt lat="45.54588" lon="6.61575">
        <ele>659.4</ele>
        <time>2021-06-01T08:10:14Z</time>
      </trkpt>
      <trkpt lat="45.54578" lon="6.61574">
        <ele>659.2</ele>
        <time>2021-06-01T08:10:15Z</time>
      </trkpt>
      <trkpt lat="45.54569" lon="6.61571">
        <ele>659</ele>
        <time>2021-06-01T08:10:16Z</time>
      </trkpt>
      <trkpt lat="45.5456" lon="6.61568">
        <ele>658.6</ele>
        <time>2021-06-01T08:10:17Z</time>
      </trkpt>
      <trkpt lat="45.54551" lon="6.61564">
        <ele>658.2</ele>
        <time>2021-06-01T08:10:18Z</time>
      </trkpt>
      <trkpt lat="45.54542" lon="6.6156">
        <ele>658.2</ele>
        <time>2021-06-01T08:10:19Z</time>
      </trkpt>
      <trkpt lat="45.54533" lon="6.61556">
        <ele>657.8</ele>
        <time>2021-06-01T08:10:20Z</time>
      </trkpt>
      <trkpt lat="45.54524" lon="6.61552">
        <ele>657.6</ele>
        <time>2021-06-01T08:10:21Z</time>
      </trkpt>
      <trkpt lat="45.54515" lon="6.61549">
        <ele>657.4</ele>
        <time>2021-06-01T08:10:22Z</time>
      </trkpt>
      <trkpt lat="45.54506" lon="6.61545">
        <ele>656.8</ele>
        <time>2021-06-01T08:10:23Z</time>
      </trkpt>
      <trkpt lat="45.54496" lon="6.61541">
        <ele>656.4</ele>
        <time>2021-06-01T08:10:24Z</time>
      </trkpt>
      <trkpt lat="45.54488" lon="6.61539">
        <ele>656.4</ele>
        <time>2021-06-01T08:10:25Z</time>
      </trkpt>
      <trkpt lat="45.54478" lon="6.61536">
        <ele>656.6</ele>
        <time>2021-06-01T08:10:26Z</time>
      </trkpt>
      <trkpt lat="45.5447" lon="6.61533">
        <ele>656.6</ele>
        <time>2021-06-01T08:10:27Z</time>
      </trkpt>
      <trkpt lat="45.5446" lon="6.6153">
        <ele>656.2</ele>
        <time>2021-06-01T08:10:28Z</time>
      </trkpt>
      <trkpt lat="45.54451" lon="6.61528">
        <ele>655.8</ele>
        <time>2021-06-01T08:10:29Z</time>
      </trkpt>
      <trkpt lat="45.54442" lon="6.61526">
        <ele>655.8</ele>
        <time>2021-06-01T08:10:30Z</time>
      </trkpt>
      <trkpt lat="45.54433" lon="6.61523">
        <ele>655.6</ele>
        <time>2021-06-01T08:10:31Z</time>
      </trkpt>
      <trkpt lat="45.54423" lon="6.61521">
        <ele>655.6</ele>
        <time>2021-06-01T08:10:32Z</time>
      </trkpt>
      <trkpt lat="45.54414" lon="6.61519">
        <ele>655.6</ele>
        <time>2021-06-01T08:10:33Z</time>
      </trkpt>
      <trkpt lat="45.54404" lon="6.61518">
        <ele>655.4</ele>
        <time>2021-06-01T08:10:34Z</time>
      </trkpt>
      <trkpt lat="45.54395" lon="6.61516">
        <ele>655.4</ele>
        <time>2021-06-01T08:10:35Z</time>
      </trkpt>
      <trkpt lat="45.54386" lon="6.61514">
        <ele>655.2</ele>
        <time>2021-06-01T08:10:36Z</time>
      </trkpt>
      <trkpt lat="45.54377" lon="6.61512">
        <ele>655</ele>
        <time>2021-06-01T08:10:37Z</time>
      </trkpt>
      <trkpt lat="45.54367" lon="6.6151">
        <ele>654.8</ele>
        <time>2021-06-01T08:10:38Z</time>
      </trkpt>
      <trkpt lat="45.54358" lon="6.61508">
        <ele>654.6</ele>
        <time>2021-06-01T08:10:39Z</time>
      </trkpt>
      <trkpt lat="45.54349" lon="6.61505">
        <ele>654.6</ele>
        <time>2021-06-01T08:10:40Z</time>
      </trkpt>
      <trkpt lat="45.5434" lon="6.615">
        <ele>654.2</ele>
        <time>2021-06-01T08:10:41Z</time>
      </trkpt>
      <trkpt lat="45.54332" lon="6.61495">
        <ele>654</ele>
        <time>2021-06-01T08:10:42Z</time>
      </trkpt>
      <trkpt lat="45.54323" lon="6.6149">
        <ele>653.8</ele>
        <time>2021-06-01T08:10:43Z</time>
      </trkpt>
      <trkpt lat="45.54315" lon="6.61484">
        <ele>653.6</ele>
        <time>2021-06-01T08:10:44Z</time>
      </trkpt>
      <trkpt lat="45.54307" lon="6.61477">
        <ele>653.4</ele>
        <time>2021-06-01T08:10:45Z</time>
      </trkpt>
      <trkpt lat="45.54299" lon="6.6147">
        <ele>653</ele>
        <time>2021-06-01T08:10:46Z</time>
      </trkpt>
      <trkpt lat="45.54291" lon="6.61462">
        <ele>652.8</ele>
        <time>2021-06-01T08:10:47Z</time>
      </trkpt>
      <trkpt lat="45.54284" lon="6.61454">
        <ele>652.8</ele>
        <time>2021-06-01T08:10:48Z</time>
      </trkpt>
      <trkpt lat="45.54276" lon="6.61445">
        <ele>652.6</ele>
        <time>2021-06-01T08:10:49Z</time>
      </trkpt>
      <trkpt lat="45.54269" lon="6.61436">
        <ele>652.2</ele>
        <time>2021-06-01T08:10:50Z</time>
      </trkpt>
      <trkpt lat="45.54262" lon="6.61427">
        <ele>651.8</ele>
        <time>2021-06-01T08:10:51Z</time>
      </trkpt>
      <trkpt lat="45.54256" lon="6.61417">
        <ele>651.6</ele>
        <time>2021-06-01T08:10:52Z</time>
      </trkpt>
      <trkpt lat="45.5425" lon="6.61405">
        <ele>651.4</ele>
        <time>2021-06-01T08:10:53Z</time>
      </trkpt>
      <trkpt lat="45.54245" lon="6.61393">
        <ele>651</ele>
        <time>2021-06-01T08:10:54Z</time>
      </trkpt>
      <trkpt lat="45.54242" lon="6.6138">
        <ele>650.8</ele>
        <time>2021-06-01T08:10:55Z</time>
      </trkpt>
      <trkpt lat="45.54238" lon="6.61367">
        <ele>650.6</ele>
        <time>2021-06-01T08:10:56Z</time>
      </trkpt>
      <trkpt lat="45.54237" lon="6.61353">
        <ele>650.4</ele>
        <time>2021-06-01T08:10:57Z</time>
      </trkpt>
      <trkpt lat="45.54236" lon="6.61339">
        <ele>650</ele>
        <time>2021-06-01T08:10:58Z</time>
      </trkpt>
      <trkpt lat="45.54236" lon="6.61325">
        <ele>650.2</ele>
        <time>2021-06-01T08:10:59Z</time>
      </trkpt>
      <trkpt lat="45.54236" lon="6.6131">
        <ele>650.2</ele>
        <time>2021-06-01T08:11:00Z</time>
      </trkpt>
      <trkpt lat="45.54236" lon="6.61297">
        <ele>650.2</ele>
        <time>2021-06-01T08:11:01Z</time>
      </trkpt>
      <trkpt lat="45.54237" lon="6.61283">
        <ele>649.8</ele>
        <time>2021-06-01T08:11:02Z</time>
      </trkpt>
      <trkpt lat="45.54236" lon="6.61269">
        <ele>649.8</ele>
        <time>2021-06-01T08:11:03Z</time>
      </trkpt>
      <trkpt lat="45.54237" lon="6.61256">
        <ele>649.6</ele>
        <time>2021-06-01T08:11:04Z</time>
      </trkpt>
      <trkpt lat="45.54238" lon="6.61241">
        <ele>649</ele>
        <time>2021-06-01T08:11:05Z</time>
      </trkpt>
      <trkpt lat="45.54239" lon="6.61228">
        <ele>648.6</ele>
        <time>2021-06-01T08:11:06Z</time>
      </trkpt>
      <trkpt lat="45.5424" lon="6.61214">
        <ele>648.2</ele>
        <time>2021-06-01T08:11:07Z</time>
      </trkpt>
      <trkpt lat="45.54242" lon="6.61201">
        <ele>648</ele>
        <time>2021-06-01T08:11:08Z</time>
      </trkpt>
      <trkpt lat="45.54244" lon="6.61187">
        <ele>647.6</ele>
        <time>2021-06-01T08:11:09Z</time>
      </trkpt>
      <trkpt lat="45.54248" lon="6.61174">
        <ele>647.4</ele>
        <time>2021-06-01T08:11:10Z</time>
      </trkpt>
      <trkpt lat="45.54252" lon="6.6116">
        <ele>647.2</ele>
        <time>2021-06-01T08:11:11Z</time>
      </trkpt>
      <trkpt lat="45.54256" lon="6.61147">
        <ele>646.6</ele>
        <time>2021-06-01T08:11:12Z</time>
      </trkpt>
      <trkpt lat="45.54259" lon="6.61134">
        <ele>646.4</ele>
        <time>2021-06-01T08:11:13Z</time>
      </trkpt>
      <trkpt lat="45.54262" lon="6.61121">
        <ele>646.2</ele>
        <time>2021-06-01T08:11:14Z</time>
      </trkpt>
      <trkpt lat="45.54266" lon="6.61107">
        <ele>646.2</ele>
        <time>2021-06-01T08:11:15Z</time>
      </trkpt>
      <trkpt lat="45.54269" lon="6.61094">
        <ele>646.2</ele>
        <time>2021-06-01T08:11:16Z</time>
      </trkpt>
      <trkpt lat="45.54272" lon="6.61081">
        <ele>646.4</ele>
        <time>2021-06-01T08:11:17Z</time>
      </trkpt>
      <trkpt lat="45.54274" lon="6.61069">
        <ele>646.4</ele>
        <time>2021-06-01T08:11:18Z</time>
      </trkpt>
      <trkpt lat="45.54274" lon="6.61056">
        <ele>646.2</ele>
        <time>2021-06-01T08:11:19Z</time>
      </trkpt>
      <trkpt lat="45.54275" lon="6.61042">
        <ele>646</ele>
        <time>2021-06-01T08:11:20Z</time>
      </trkpt>
      <trkpt lat="45.54275" lon="6.61029">
        <ele>646</ele>
        <time>2021-06-01T08:11:21Z</time>
      </trkpt>
      <trkpt lat="45.54274" lon="6.61016">
        <ele>645.6</ele>
        <time>2021-06-01T08:11:22Z</time>
      </trkpt>
      <trkpt lat="45.54271" lon="6.61003">
        <ele>645.2</ele>
        <time>2021-06-01T08:11:23Z</time>
      </trkpt>
      <trkpt lat="45.54269" lon="6.60991">
        <ele>645.6</ele>
        <time>2021-06-01T08:11:24Z</time>
      </trkpt>
      <trkpt lat="45.54265" lon="6.6098">
        <ele>645.6</ele>
        <time>2021-06-01T08:11:25Z</time>
      </trkpt>
      <trkpt lat="45.54261" lon="6.60969">
        <ele>644.6</ele>
        <time>2021-06-01T08:11:26Z</time>
      </trkpt>
      <trkpt lat="45.54255" lon="6.60959">
        <ele>643.8</ele>
        <time>2021-06-01T08:11:27Z</time>
      </trkpt>
      <trkpt lat="45.5425" lon="6.60949">
        <ele>642.8</ele>
        <time>2021-06-01T08:11:28Z</time>
      </trkpt>
      <trkpt lat="45.54244" lon="6.60939">
        <ele>642.2</ele>
        <time>2021-06-01T08:11:29Z</time>
      </trkpt>
      <trkpt lat="45.54166" lon="6.60765">
        <ele>639.4</ele>
        <time>2021-06-01T08:11:45Z</time>
      </trkpt>
      <trkpt lat="45.54163" lon="6.60752">
        <ele>638.6</ele>
        <time>2021-06-01T08:11:46Z</time>
      </trkpt>
      <trkpt lat="45.5416" lon="6.60741">
        <ele>638.4</ele>
        <time>2021-06-01T08:11:47Z</time>
      </trkpt>
      <trkpt lat="45.54156" lon="6.60729">
        <ele>638.4</ele>
        <time>2021-06-01T08:11:48Z</time>
      </trkpt>
      <trkpt lat="45.54153" lon="6.60717">
        <ele>638.2</ele>
        <time>2021-06-01T08:11:49Z</time>
      </trkpt>
      <trkpt lat="45.54151" lon="6.60705">
        <ele>638.2</ele>
        <time>2021-06-01T08:11:50Z</time>
      </trkpt>
      <trkpt lat="45.54148" lon="6.60693">
        <ele>637.8</ele>
        <time>2021-06-01T08:11:51Z</time>
      </trkpt>
      <trkpt lat="45.54145" lon="6.60681">
        <ele>637.6</ele>
        <time>2021-06-01T08:11:52Z</time>
      </trkpt>
      <trkpt lat="45.54142" lon="6.60671">
        <ele>638.4</ele>
        <time>2021-06-01T08:11:53Z</time>
      </trkpt>
      <trkpt lat="45.54138" lon="6.60659">
        <ele>639</ele>
        <time>2021-06-01T08:11:54Z</time>
      </trkpt>
      <trkpt lat="45.54134" lon="6.60648">
        <ele>639.8</ele>
        <time>2021-06-01T08:11:55Z</time>
      </trkpt>
      <trkpt lat="45.54131" lon="6.60637">
        <ele>640.4</ele>
        <time>2021-06-01T08:11:56Z</time>
      </trkpt>
      <trkpt lat="45.54127" lon="6.60626">
        <ele>639.6</ele>
        <time>2021-06-01T08:11:57Z</time>
      </trkpt>
      <trkpt lat="45.54123" lon="6.60615">
        <ele>639.2</ele>
        <time>2021-06-01T08:11:58Z</time>
      </trkpt>
      <trkpt lat="45.5412" lon="6.60603">
        <ele>638.8</ele>
        <time>2021-06-01T08:11:59Z</time>
      </trkpt>
      <trkpt lat="45.54117" lon="6.60592">
        <ele>638.4</ele>
        <time>2021-06-01T08:12:00Z</time>
      </trkpt>
      <trkpt lat="45.54113" lon="6.60581">
        <ele>638.4</ele>
        <time>2021-06-01T08:12:01Z</time>
      </trkpt>
      <trkpt lat="45.5411" lon="6.60569">
        <ele>638</ele>
        <time>2021-06-01T08:12:02Z</time>
      </trkpt>
      <trkpt lat="45.54108" lon="6.60557">
        <ele>638</ele>
        <time>2021-06-01T08:12:03Z</time>
      </trkpt>
      <trkpt lat="45.54105" lon="6.60546">
        <ele>637.6</ele>
        <time>2021-06-01T08:12:04Z</time>
      </trkpt>
      <trkpt lat="45.54102" lon="6.60535">
        <ele>638.2</ele>
        <time>2021-06-01T08:12:05Z</time>
      </trkpt>
      <trkpt lat="45.54099" lon="6.60523">
        <ele>638.4</ele>
        <time>2021-06-01T08:12:06Z</time>
      </trkpt>
      <trkpt lat="45.54096" lon="6.60512">
        <ele>638.2</ele>
        <time>2021-06-01T08:12:07Z</time>
      </trkpt>
      <trkpt lat="45.54092" lon="6.605">
        <ele>639</ele>
        <time>2021-06-01T08:12:08Z</time>
      </trkpt>
      <trkpt lat="45.5409" lon="6.60489">
        <ele>639.8</ele>
        <time>2021-06-01T08:12:09Z</time>
      </trkpt>
      <trkpt lat="45.54086" lon="6.60478">
        <ele>640.6</ele>
        <time>2021-06-01T08:12:10Z</time>
      </trkpt>
      <trkpt lat="45.54083" lon="6.60466">
        <ele>641.2</ele>
        <time>2021-06-01T08:12:11Z</time>
      </trkpt>
      <trkpt lat="45.54077" lon="6.60457">
        <ele>641.4</ele>
        <time>2021-06-01T08:12:12Z</time>
      </trkpt>
      <trkpt lat="45.54071" lon="6.60447">
        <ele>642</ele>
        <time>2021-06-01T08:12:13Z</time>
      </trkpt>
      <trkpt lat="45.54065" lon="6.60439">
        <ele>642.2</ele>
        <time>2021-06-01T08:12:14Z</time>
      </trkpt>
      <trkpt lat="45.54058" lon="6.60431">
        <ele>642.2</ele>
        <time>2021-06-01T08:12:15Z</time>
      </trkpt>
      <trkpt lat="45.54051" lon="6.60423">
        <ele>642.2</ele>
        <time>2021-06-01T08:12:16Z</time>
      </trkpt>
      <trkpt lat="45.54044" lon="6.60416">
        <ele>642.4</ele>
        <time>2021-06-01T08:12:17Z</time>
      </trkpt>
      <trkpt lat="45.54037" lon="6.60408">
        <ele>642.6</ele>
        <time>2021-06-01T08:12:18Z</time>
      </trkpt>
      <trkpt lat="45.5403" lon="6.604">
        <ele>642.8</ele>
        <time>2021-06-01T08:12:19Z</time>
      </trkpt>
      <trkpt lat="45.54023" lon="6.60393">
        <ele>642.8</ele>
        <time>2021-06-01T08:12:20Z</time>
      </trkpt>
      <trkpt lat="45.54015" lon="6.60385">
        <ele>642.6</ele>
        <time>2021-06-01T08:12:21Z</time>
      </trkpt>
      <trkpt lat="45.54008" lon="6.60378">
        <ele>642.4</ele>
        <time>2021-06-01T08:12:22Z</time>
      </trkpt>
      <trkpt lat="45.54001" lon="6.6037">
        <ele>642.2</ele>
        <time>2021-06-01T08:12:23Z</time>
      </trkpt>
      <trkpt lat="45.53993" lon="6.60363">
        <ele>642</ele>
        <time>2021-06-01T08:12:24Z</time>
      </trkpt>
      <trkpt lat="45.53986" lon="6.60355">
        <ele>641.6</ele>
        <time>2021-06-01T08:12:25Z</time>
      </trkpt>
      <trkpt lat="45.53978" lon="6.60348">
        <ele>641.4</ele>
        <time>2021-06-01T08:12:26Z</time>
      </trkpt>
      <trkpt lat="45.53971" lon="6.6034">
        <ele>641.2</ele>
        <time>2021-06-01T08:12:27Z</time>
      </trkpt>
      <trkpt lat="45.53964" lon="6.60331">
        <ele>641.2</ele>
        <time>2021-06-01T08:12:28Z</time>
      </trkpt>
      <trkpt lat="45.53957" lon="6.60323">
        <ele>641</ele>
        <time>2021-06-01T08:12:29Z</time>
      </trkpt>
      <trkpt lat="45.5395" lon="6.60314">
        <ele>641.2</ele>
        <time>2021-06-01T08:12:30Z</time>
      </trkpt>
      <trkpt lat="45.53944" lon="6.60304">
        <ele>640.8</ele>
        <time>2021-06-01T08:12:31Z</time>
      </trkpt>
      <trkpt lat="45.53938" lon="6.60295">
        <ele>640.6</ele>
        <time>2021-06-01T08:12:32Z</time>
      </trkpt>
      <trkpt lat="45.53932" lon="6.60285">
        <ele>640.6</ele>
        <time>2021-06-01T08:12:33Z</time>
      </trkpt>
      <trkpt lat="45.53926" lon="6.60275">
        <ele>640.4</ele>
        <time>2021-06-01T08:12:34Z</time>
      </trkpt>
      <trkpt lat="45.53921" lon="6.60265">
        <ele>640.2</ele>
        <time>2021-06-01T08:12:35Z</time>
      </trkpt>
      <trkpt lat="45.53916" lon="6.60254">
        <ele>640</ele>
        <time>2021-06-01T08:12:36Z</time>
      </trkpt>
      <trkpt lat="45.53911" lon="6.60244">
        <ele>639.6</ele>
        <time>2021-06-01T08:12:37Z</time>
      </trkpt>
      <trkpt lat="45.53907" lon="6.60232">
        <ele>639.6</ele>
        <time>2021-06-01T08:12:38Z</time>
      </trkpt>
      <trkpt lat="45.53902" lon="6.60221">
        <ele>639.4</ele>
        <time>2021-06-01T08:12:39Z</time>
      </trkpt>
      <trkpt lat="45.53898" lon="6.60209">
        <ele>639.2</ele>
        <time>2021-06-01T08:12:40Z</time>
      </trkpt>
      <trkpt lat="45.53893" lon="6.60198">
        <ele>639</ele>
        <time>2021-06-01T08:12:41Z</time>
      </trkpt>
      <trkpt lat="45.53889" lon="6.60186">
        <ele>638.8</ele>
        <time>2021-06-01T08:12:42Z</time>
      </trkpt>
      <trkpt lat="45.53884" lon="6.60174">
        <ele>638.6</ele>
        <time>2021-06-01T08:12:43Z</time>
      </trkpt>
      <trkpt lat="45.5388" lon="6.60163">
        <ele>638.6</ele>
        <time>2021-06-01T08:12:44Z</time>
      </trkpt>
      <trkpt lat="45.53876" lon="6.6015">
        <ele>638.4</ele>
        <time>2021-06-01T08:12:45Z</time>
      </trkpt>
      <trkpt lat="45.53874" lon="6.60138">
        <ele>638.4</ele>
        <time>2021-06-01T08:12:46Z</time>
      </trkpt>
      <trkpt lat="45.53871" lon="6.60125">
        <ele>638</ele>
        <time>2021-06-01T08:12:47Z</time>
      </trkpt>
      <trkpt lat="45.53868" lon="6.60112">
        <ele>638</ele>
        <time>2021-06-01T08:12:48Z</time>
      </trkpt>
      <trkpt lat="45.53865" lon="6.601">
        <ele>638.2</ele>
        <time>2021-06-01T08:12:49Z</time>
      </trkpt>
      <trkpt lat="45.53861" lon="6.60088">
        <ele>638</ele>
        <time>2021-06-01T08:12:50Z</time>
      </trkpt>
      <trkpt lat="45.53858" lon="6.60075">
        <ele>638</ele>
        <time>2021-06-01T08:12:51Z</time>
      </trkpt>
      <trkpt lat="45.53855" lon="6.60063">
        <ele>637.6</ele>
        <time>2021-06-01T08:12:52Z</time>
      </trkpt>
      <trkpt lat="45.53853" lon="6.60051">
        <ele>637.4</ele>
        <time>2021-06-01T08:12:53Z</time>
      </trkpt>
      <trkpt lat="45.5385" lon="6.60038">
        <ele>637.2</ele>
        <time>2021-06-01T08:12:54Z</time>
      </trkpt>
      <trkpt lat="45.53847" lon="6.60026">
        <ele>637.2</ele>
        <time>2021-06-01T08:12:55Z</time>
      </trkpt>
      <trkpt lat="45.53846" lon="6.60013">
        <ele>637.2</ele>
        <time>2021-06-01T08:12:56Z</time>
      </trkpt>
      <trkpt lat="45.53845" lon="6.6">
        <ele>636.8</ele>
        <time>2021-06-01T08:12:57Z</time>
      </trkpt>
      <trkpt lat="45.53844" lon="6.59986">
        <ele>636.8</ele>
        <time>2021-06-01T08:12:58Z</time>
      </trkpt>
      <trkpt lat="45.53843" lon="6.59974">
        <ele>636.8</ele>
        <time>2021-06-01T08:12:59Z</time>
      </trkpt>
      <trkpt lat="45.53842" lon="6.59961">
        <ele>636.4</ele>
        <time>2021-06-01T08:13:00Z</time>
      </trkpt>
      <trkpt lat="45.53841" lon="6.59949">
        <ele>636.2</ele>
        <time>2021-06-01T08:13:01Z</time>
      </trkpt>
      <trkpt lat="45.53839" lon="6.59937">
        <ele>636</ele>
        <time>2021-06-01T08:13:02Z</time>
      </trkpt>
      <trkpt lat="45.53839" lon="6.59925">
        <ele>635.8</ele>
        <time>2021-06-01T08:13:03Z</time>
      </trkpt>
      <trkpt lat="45.53839" lon="6.59913">
        <ele>635.4</ele>
        <time>2021-06-01T08:13:04Z</time>
      </trkpt>
      <trkpt lat="45.53838" lon="6.59902">
        <ele>635.2</ele>
        <time>2021-06-01T08:13:05Z</time>
      </trkpt>
      <trkpt lat="45.53838" lon="6.59891">
        <ele>634.8</ele>
        <time>2021-06-01T08:13:06Z</time>
      </trkpt>
      <trkpt lat="45.53837" lon="6.5988">
        <ele>634.4</ele>
        <time>2021-06-01T08:13:07Z</time>
      </trkpt>
      <trkpt lat="45.53836" lon="6.5987">
        <ele>634</ele>
        <time>2021-06-01T08:13:08Z</time>
      </trkpt>
      <trkpt lat="45.53833" lon="6.59862">
        <ele>633.4</ele>
        <time>2021-06-01T08:13:09Z</time>
      </trkpt>
      <trkpt lat="45.53829" lon="6.59855">
        <ele>633.2</ele>
        <time>2021-06-01T08:13:10Z</time>
      </trkpt>
      <trkpt lat="45.53825" lon="6.5985">
        <ele>632.8</ele>
        <time>2021-06-01T08:13:11Z</time>
      </trkpt>
      <trkpt lat="45.5382" lon="6.59847">
        <ele>632.6</ele>
        <time>2021-06-01T08:13:12Z</time>
      </trkpt>
      <trkpt lat="45.53815" lon="6.59847">
        <ele>632.2</ele>
        <time>2021-06-01T08:13:13Z</time>
      </trkpt>
      <trkpt lat="45.53809" lon="6.59851">
        <ele>631.8</ele>
        <time>2021-06-01T08:13:14Z</time>
      </trkpt>
      <trkpt lat="45.53802" lon="6.59858">
        <ele>631.6</ele>
        <time>2021-06-01T08:13:15Z</time>
      </trkpt>
      <trkpt lat="45.53796" lon="6.59866">
        <ele>631</ele>
        <time>2021-06-01T08:13:16Z</time>
      </trkpt>
      <trkpt lat="45.53791" lon="6.59876">
        <ele>630.8</ele>
        <time>2021-06-01T08:13:17Z</time>
      </trkpt>
      <trkpt lat="45.53787" lon="6.59888">
        <ele>630.6</ele>
        <time>2021-06-01T08:13:18Z</time>
      </trkpt>
      <trkpt lat="45.53785" lon="6.59902">
        <ele>630.2</ele>
        <time>2021-06-01T08:13:19Z</time>
      </trkpt>
      <trkpt lat="45.53783" lon="6.59916">
        <ele>628.8</ele>
        <time>2021-06-01T08:13:20Z</time>
      </trkpt>
      <trkpt lat="45.53782" lon="6.5993">
        <ele>628.2</ele>
        <time>2021-06-01T08:13:21Z</time>
      </trkpt>
      <trkpt lat="45.53781" lon="6.59945">
        <ele>627.8</ele>
        <time>2021-06-01T08:13:22Z</time>
      </trkpt>
      <trkpt lat="45.53779" lon="6.5996">
        <ele>627.8</ele>
        <time>2021-06-01T08:13:23Z</time>
      </trkpt>
      <trkpt lat="45.53778" lon="6.59974">
        <ele>627</ele>
        <time>2021-06-01T08:13:24Z</time>
      </trkpt>
      <trkpt lat="45.53775" lon="6.59989">
        <ele>626.6</ele>
        <time>2021-06-01T08:13:25Z</time>
      </trkpt>
      <trkpt lat="45.53772" lon="6.60002">
        <ele>626</ele>
        <time>2021-06-01T08:13:26Z</time>
      </trkpt>
      <trkpt lat="45.53765" lon="6.60014">
        <ele>625.4</ele>
        <time>2021-06-01T08:13:27Z</time>
      </trkpt>
      <trkpt lat="45.53758" lon="6.60021">
        <ele>625</ele>
        <time>2021-06-01T08:13:28Z</time>
      </trkpt>
      <trkpt lat="45.53749" lon="6.60025">
        <ele>624.2</ele>
        <time>2021-06-01T08:13:29Z</time>
      </trkpt>
      <trkpt lat="45.5374" lon="6.60025">
        <ele>623.6</ele>
        <time>2021-06-01T08:13:30Z</time>
      </trkpt>
      <trkpt lat="45.5373" lon="6.60021">
        <ele>623</ele>
        <time>2021-06-01T08:13:31Z</time>
      </trkpt>
      <trkpt lat="45.53723" lon="6.60013">
        <ele>622</ele>
        <time>2021-06-01T08:13:32Z</time>
      </trkpt>
      <trkpt lat="45.53717" lon="6.60003">
        <ele>621.8</ele>
        <time>2021-06-01T08:13:33Z</time>
      </trkpt>
      <trkpt lat="45.53711" lon="6.59992">
        <ele>621.4</ele>
        <time>2021-06-01T08:13:34Z</time>
      </trkpt>
      <trkpt lat="45.53705" lon="6.59979">
        <ele>620.8</ele>
        <time>2021-06-01T08:13:35Z</time>
      </trkpt>
      <trkpt lat="45.537" lon="6.59967">
        <ele>620.4</ele>
        <time>2021-06-01T08:13:36Z</time>
      </trkpt>
      <trkpt lat="45.53694" lon="6.59954">
        <ele>620.4</ele>
        <time>2021-06-01T08:13:37Z</time>
      </trkpt>
      <trkpt lat="45.53689" lon="6.59941">
        <ele>619.4</ele>
        <time>2021-06-01T08:13:38Z</time>
      </trkpt>
      <trkpt lat="45.53684" lon="6.59928">
        <ele>618.6</ele>
        <time>2021-06-01T08:13:39Z</time>
      </trkpt>
      <trkpt lat="45.53678" lon="6.59914">
        <ele>617.8</ele>
        <time>2021-06-01T08:13:40Z</time>
      </trkpt>
      <trkpt lat="45.53671" lon="6.599">
        <ele>617.2</ele>
        <time>2021-06-01T08:13:41Z</time>
      </trkpt>
      <trkpt lat="45.53665" lon="6.59886">
        <ele>616.8</ele>
        <time>2021-06-01T08:13:42Z</time>
      </trkpt>
      <trkpt lat="45.5366" lon="6.59871">
        <ele>616.2</ele>
        <time>2021-06-01T08:13:43Z</time>
      </trkpt>
      <trkpt lat="45.53653" lon="6.59856">
        <ele>615.6</ele>
        <time>2021-06-01T08:13:44Z</time>
      </trkpt>
      <trkpt lat="45.53647" lon="6.59842">
        <ele>614.6</ele>
        <time>2021-06-01T08:13:45Z</time>
      </trkpt>
      <trkpt lat="45.53641" lon="6.59828">
        <ele>613.8</ele>
        <time>2021-06-01T08:13:46Z</time>
      </trkpt>
      <trkpt lat="45.53635" lon="6.59813">
        <ele>612.8</ele>
        <time>2021-06-01T08:13:47Z</time>
      </trkpt>
      <trkpt lat="45.53628" lon="6.598">
        <ele>611.8</ele>
        <time>2021-06-01T08:13:48Z</time>
      </trkpt>
      <trkpt lat="45.53622" lon="6.59787">
        <ele>610.2</ele>
        <time>2021-06-01T08:13:49Z</time>
      </trkpt>
      <trkpt lat="45.53616" lon="6.59775">
        <ele>609.2</ele>
        <time>2021-06-01T08:13:50Z</time>
      </trkpt>
      <trkpt lat="45.5361" lon="6.59764">
        <ele>608.2</ele>
        <time>2021-06-01T08:13:51Z</time>
      </trkpt>
      <trkpt lat="45.53603" lon="6.59753">
        <ele>607.4</ele>
        <time>2021-06-01T08:13:52Z</time>
      </trkpt>
      <trkpt lat="45.53595" lon="6.59741">
        <ele>607.2</ele>
        <time>2021-06-01T08:13:53Z</time>
      </trkpt>
      <trkpt lat="45.53588" lon="6.5973">
        <ele>606.8</ele>
        <time>2021-06-01T08:13:54Z</time>
      </trkpt>
      <trkpt lat="45.5358" lon="6.59718">
        <ele>606.4</ele>
        <time>2021-06-01T08:13:55Z</time>
      </trkpt>
      <trkpt lat="45.53572" lon="6.59706">
        <ele>605.8</ele>
        <time>2021-06-01T08:13:56Z</time>
      </trkpt>
      <trkpt lat="45.53564" lon="6.59694">
        <ele>604.8</ele>
        <time>2021-06-01T08:13:57Z</time>
      </trkpt>
      <trkpt lat="45.53556" lon="6.59682">
        <ele>604.4</ele>
        <time>2021-06-01T08:13:58Z</time>
      </trkpt>
      <trkpt lat="45.53548" lon="6.59669">
        <ele>603.2</ele>
        <time>2021-06-01T08:13:59Z</time>
      </trkpt>
      <trkpt lat="45.53541" lon="6.59655">
        <ele>602.6</ele>
        <time>2021-06-01T08:14:00Z</time>
      </trkpt>
      <trkpt lat="45.53533" lon="6.59641">
        <ele>602.2</ele>
        <time>2021-06-01T08:14:01Z</time>
      </trkpt>
      <trkpt lat="45.53527" lon="6.59627">
        <ele>601.6</ele>
        <time>2021-06-01T08:14:02Z</time>
      </trkpt>
      <trkpt lat="45.53521" lon="6.59613">
        <ele>600.8</ele>
        <time>2021-06-01T08:14:03Z</time>
      </trkpt>
      <trkpt lat="45.53517" lon="6.59598">
        <ele>599.6</ele>
        <time>2021-06-01T08:14:04Z</time>
      </trkpt>
      <trkpt lat="45.53513" lon="6.59583">
        <ele>599.4</ele>
        <time>2021-06-01T08:14:05Z</time>
      </trkpt>
      <trkpt lat="45.53509" lon="6.59567">
        <ele>599</ele>
        <time>2021-06-01T08:14:06Z</time>
      </trkpt>
      <trkpt lat="45.53505" lon="6.59551">
        <ele>598.6</ele>
        <time>2021-06-01T08:14:07Z</time>
      </trkpt>
      <trkpt lat="45.53503" lon="6.59536">
        <ele>598</ele>
        <time>2021-06-01T08:14:08Z</time>
      </trkpt>
      <trkpt lat="45.535" lon="6.59522">
        <ele>597.2</ele>
        <time>2021-06-01T08:14:09Z</time>
      </trkpt>
      <trkpt lat="45.53498" lon="6.59509">
        <ele>596.6</ele>
        <time>2021-06-01T08:14:10Z</time>
      </trkpt>
      <trkpt lat="45.53496" lon="6.59498">
        <ele>595.4</ele>
        <time>2021-06-01T08:14:11Z</time>
      </trkpt>
      <trkpt lat="45.53495" lon="6.59489">
        <ele>594.4</ele>
        <time>2021-06-01T08:14:12Z</time>
      </trkpt>
      <trkpt lat="45.53493" lon="6.59482">
        <ele>593.8</ele>
        <time>2021-06-01T08:14:13Z</time>
      </trkpt>
      <trkpt lat="45.53492" lon="6.59477">
        <ele>593.2</ele>
        <time>2021-06-01T08:14:14Z</time>
      </trkpt>
      <trkpt lat="45.53488" lon="6.59475">
        <ele>592.8</ele>
        <time>2021-06-01T08:14:15Z</time>
      </trkpt>
      <trkpt lat="45.53484" lon="6.59474">
        <ele>592.6</ele>
        <time>2021-06-01T08:14:16Z</time>
      </trkpt>
      <trkpt lat="45.5348" lon="6.59473">
        <ele>592</ele>
        <time>2021-06-01T08:14:17Z</time>
      </trkpt>
      <trkpt lat="45.53475" lon="6.59473">
        <ele>591.8</ele>
        <time>2021-06-01T08:14:18Z</time>
      </trkpt>
      <trkpt lat="45.53471" lon="6.59471">
        <ele>591.6</ele>
        <time>2021-06-01T08:14:19Z</time>
      </trkpt>
      <trkpt lat="45.53468" lon="6.5947">
        <ele>591.2</ele>
        <time>2021-06-01T08:14:20Z</time>
      </trkpt>
      <trkpt lat="45.53457" lon="6.59472">
        <ele>590.8</ele>
        <time>2021-06-01T08:14:21Z</time>
      </trkpt>
      <trkpt lat="45.53451" lon="6.5947">
        <ele>590.2</ele>
        <time>2021-06-01T08:14:22Z</time>
      </trkpt>
      <trkpt lat="45.53446" lon="6.59466">
        <ele>589.8</ele>
        <time>2021-06-01T08:14:23Z</time>
      </trkpt>
      <trkpt lat="45.53443" lon="6.5946">
        <ele>589.8</ele>
        <time>2021-06-01T08:14:24Z</time>
      </trkpt>
      <trkpt lat="45.53441" lon="6.59453">
        <ele>589.6</ele>
        <time>2021-06-01T08:14:25Z</time>
      </trkpt>
      <trkpt lat="45.53439" lon="6.59446">
        <ele>589.4</ele>
        <time>2021-06-01T08:14:26Z</time>
      </trkpt>
      <trkpt lat="45.53437" lon="6.59439">
        <ele>589.4</ele>
        <time>2021-06-01T08:14:27Z</time>
      </trkpt>
      <trkpt lat="45.53435" lon="6.59433">
        <ele>589.2</ele>
        <time>2021-06-01T08:14:28Z</time>
      </trkpt>
      <trkpt lat="45.53433" lon="6.59426">
        <ele>589.2</ele>
        <time>2021-06-01T08:14:29Z</time>
      </trkpt>
      <trkpt lat="45.5343" lon="6.59419">
        <ele>589</ele>
        <time>2021-06-01T08:14:30Z</time>
      </trkpt>
      <trkpt lat="45.53429" lon="6.59412">
        <ele>589</ele>
        <time>2021-06-01T08:14:31Z</time>
      </trkpt>
      <trkpt lat="45.53426" lon="6.59405">
        <ele>589</ele>
        <time>2021-06-01T08:14:32Z</time>
      </trkpt>
      <trkpt lat="45.53424" lon="6.59398">
        <ele>589</ele>
        <time>2021-06-01T08:14:33Z</time>
      </trkpt>
      <trkpt lat="45.53422" lon="6.5939">
        <ele>588.8</ele>
        <time>2021-06-01T08:14:34Z</time>
      </trkpt>
      <trkpt lat="45.5342" lon="6.59383">
        <ele>588.6</ele>
        <time>2021-06-01T08:14:35Z</time>
      </trkpt>
      <trkpt lat="45.53416" lon="6.59377">
        <ele>588.6</ele>
        <time>2021-06-01T08:14:36Z</time>
      </trkpt>
      <trkpt lat="45.53414" lon="6.5937">
        <ele>588.6</ele>
        <time>2021-06-01T08:14:37Z</time>
      </trkpt>
      <trkpt lat="45.5341" lon="6.59363">
        <ele>588.6</ele>
        <time>2021-06-01T08:14:38Z</time>
      </trkpt>
      <trkpt lat="45.53408" lon="6.59356">
        <ele>588.6</ele>
        <time>2021-06-01T08:14:39Z</time>
      </trkpt>
      <trkpt lat="45.53404" lon="6.59349">
        <ele>588.8</ele>
        <time>2021-06-01T08:14:40Z</time>
      </trkpt>
      <trkpt lat="45.534" lon="6.59343">
        <ele>588.6</ele>
        <time>2021-06-01T08:14:41Z</time>
      </trkpt>
      <trkpt lat="45.53396" lon="6.59336">
        <ele>588.8</ele>
        <time>2021-06-01T08:14:42Z</time>
      </trkpt>
      <trkpt lat="45.53392" lon="6.5933">
        <ele>589</ele>
        <time>2021-06-01T08:14:43Z</time>
      </trkpt>
      <trkpt lat="45.53388" lon="6.59323">
        <ele>589</ele>
        <time>2021-06-01T08:14:44Z</time>
      </trkpt>
      <trkpt lat="45.53384" lon="6.59316">
        <ele>588.8</ele>
        <time>2021-06-01T08:14:45Z</time>
      </trkpt>
      <trkpt lat="45.5338" lon="6.59309">
        <ele>588.6</ele>
        <time>2021-06-01T08:14:46Z</time>
      </trkpt>
      <trkpt lat="45.53376" lon="6.59303">
        <ele>588.4</ele>
        <time>2021-06-01T08:14:47Z</time>
      </trkpt>
      <trkpt lat="45.53372" lon="6.59296">
        <ele>588.4</ele>
        <time>2021-06-01T08:14:48Z</time>
      </trkpt>
      <trkpt lat="45.53368" lon="6.59289">
        <ele>588.4</ele>
        <time>2021-06-01T08:14:49Z</time>
      </trkpt>
      <trkpt lat="45.53364" lon="6.59281">
        <ele>588.4</ele>
        <time>2021-06-01T08:14:50Z</time>
      </trkpt>
      <trkpt lat="45.53359" lon="6.59274">
        <ele>588.4</ele>
        <time>2021-06-01T08:14:51Z</time>
      </trkpt>
      <trkpt lat="45.53355" lon="6.59267">
        <ele>588</ele>
        <time>2021-06-01T08:14:52Z</time>
      </trkpt>
      <trkpt lat="45.5335" lon="6.59261">
        <ele>588</ele>
        <time>2021-06-01T08:14:53Z</time>
      </trkpt>
      <trkpt lat="45.53345" lon="6.59254">
        <ele>587.6</ele>
        <time>2021-06-01T08:14:54Z</time>
      </trkpt>
      <trkpt lat="45.5334" lon="6.59248">
        <ele>587.2</ele>
        <time>2021-06-01T08:14:55Z</time>
      </trkpt>
      <trkpt lat="45.53334" lon="6.59243">
        <ele>586.8</ele>
        <time>2021-06-01T08:14:56Z</time>
      </trkpt>
      <trkpt lat="45.53326" lon="6.59238">
        <ele>586.4</ele>
        <time>2021-06-01T08:14:57Z</time>
      </trkpt>
      <trkpt lat="45.53318" lon="6.59233">
        <ele>585.8</ele>
        <time>2021-06-01T08:14:58Z</time>
      </trkpt>
      <trkpt lat="45.5331" lon="6.59229">
        <ele>584.8</ele>
        <time>2021-06-01T08:14:59Z</time>
      </trkpt>
      <trkpt lat="45.53302" lon="6.59224">
        <ele>584</ele>
        <time>2021-06-01T08:15:00Z</time>
      </trkpt>
      <trkpt lat="45.53294" lon="6.59219">
        <ele>583.6</ele>
        <time>2021-06-01T08:15:01Z</time>
      </trkpt>
      <trkpt lat="45.53285" lon="6.59214">
        <ele>583</ele>
        <time>2021-06-01T08:15:02Z</time>
      </trkpt>
      <trkpt lat="45.53276" lon="6.5921">
        <ele>582.4</ele>
        <time>2021-06-01T08:15:03Z</time>
      </trkpt>
      <trkpt lat="45.53267" lon="6.59205">
        <ele>581.6</ele>
        <time>2021-06-01T08:15:04Z</time>
      </trkpt>
      <trkpt lat="45.53258" lon="6.592">
        <ele>581</ele>
        <time>2021-06-01T08:15:05Z</time>
      </trkpt>
      <trkpt lat="45.53248" lon="6.59194">
        <ele>580.6</ele>
        <time>2021-06-01T08:15:06Z</time>
      </trkpt>
      <trkpt lat="45.53238" lon="6.59189">
        <ele>580.2</ele>
        <time>2021-06-01T08:15:07Z</time>
      </trkpt>
      <trkpt lat="45.53229" lon="6.59182">
        <ele>580</ele>
        <time>2021-06-01T08:15:08Z</time>
      </trkpt>
      <trkpt lat="45.53221" lon="6.59175">
        <ele>579.8</ele>
        <time>2021-06-01T08:15:09Z</time>
      </trkpt>
      <trkpt lat="45.53212" lon="6.59167">
        <ele>579.8</ele>
        <time>2021-06-01T08:15:10Z</time>
      </trkpt>
      <trkpt lat="45.53204" lon="6.5916">
        <ele>579.6</ele>
        <time>2021-06-01T08:15:11Z</time>
      </trkpt>
      <trkpt lat="45.53197" lon="6.59151">
        <ele>579.6</ele>
        <time>2021-06-01T08:15:12Z</time>
      </trkpt>
      <trkpt lat="45.5319" lon="6.59143">
        <ele>579.6</ele>
        <time>2021-06-01T08:15:13Z</time>
      </trkpt>
      <trkpt lat="45.53182" lon="6.59136">
        <ele>579.6</ele>
        <time>2021-06-01T08:15:14Z</time>
      </trkpt>
      <trkpt lat="45.53174" lon="6.59128">
        <ele>579.6</ele>
        <time>2021-06-01T08:15:15Z</time>
      </trkpt>
      <trkpt lat="45.53168" lon="6.5912">
        <ele>579.8</ele>
        <time>2021-06-01T08:15:16Z</time>
      </trkpt>
      <trkpt lat="45.53162" lon="6.59111">
        <ele>579.8</ele>
        <time>2021-06-01T08:15:17Z</time>
      </trkpt>
      <trkpt lat="45.53156" lon="6.59103">
        <ele>580.2</ele>
        <time>2021-06-01T08:15:18Z</time>
      </trkpt>
      <trkpt lat="45.53149" lon="6.59095">
        <ele>580.4</ele>
        <time>2021-06-01T08:15:19Z</time>
      </trkpt>
      <trkpt lat="45.53143" lon="6.59087">
        <ele>580.4</ele>
        <time>2021-06-01T08:15:20Z</time>
      </trkpt>
      <trkpt lat="45.53137" lon="6.59079">
        <ele>580.4</ele>
        <time>2021-06-01T08:15:21Z</time>
      </trkpt>
      <trkpt lat="45.53132" lon="6.59071">
        <ele>580.4</ele>
        <time>2021-06-01T08:15:22Z</time>
      </trkpt>
      <trkpt lat="45.53125" lon="6.59063">
        <ele>580.4</ele>
        <time>2021-06-01T08:15:23Z</time>
      </trkpt>
      <trkpt lat="45.53119" lon="6.59056">
        <ele>580.4</ele>
        <time>2021-06-01T08:15:24Z</time>
      </trkpt>
      <trkpt lat="45.53113" lon="6.59048">
        <ele>580.6</ele>
        <time>2021-06-01T08:15:25Z</time>
      </trkpt>
      <trkpt lat="45.53107" lon="6.59041">
        <ele>580.6</ele>
        <time>2021-06-01T08:15:26Z</time>
      </trkpt>
      <trkpt lat="45.531" lon="6.59033">
        <ele>580.4</ele>
        <time>2021-06-01T08:15:27Z</time>
      </trkpt>
      <trkpt lat="45.53094" lon="6.59026">
        <ele>580.2</ele>
        <time>2021-06-01T08:15:28Z</time>
      </trkpt>
      <trkpt lat="45.53087" lon="6.59018">
        <ele>579.8</ele>
        <time>2021-06-01T08:15:29Z</time>
      </trkpt>
      <trkpt lat="45.53079" lon="6.59011">
        <ele>579.8</ele>
        <time>2021-06-01T08:15:30Z</time>
      </trkpt>
      <trkpt lat="45.53071" lon="6.59005">
        <ele>579.6</ele>
        <time>2021-06-01T08:15:31Z</time>
      </trkpt>
      <trkpt lat="45.53063" lon="6.58999">
        <ele>579.2</ele>
        <time>2021-06-01T08:15:32Z</time>
      </trkpt>
      <trkpt lat="45.53055" lon="6.58995">
        <ele>579</ele>
        <time>2021-06-01T08:15:33Z</time>
      </trkpt>
      <trkpt lat="45.53046" lon="6.58991">
        <ele>578.8</ele>
        <time>2021-06-01T08:15:34Z</time>
      </trkpt>
      <trkpt lat="45.53037" lon="6.58988">
        <ele>578.6</ele>
        <time>2021-06-01T08:15:35Z</time>
      </trkpt>
      <trkpt lat="45.53028" lon="6.58985">
        <ele>578.6</ele>
        <time>2021-06-01T08:15:36Z</time>
      </trkpt>
      <trkpt lat="45.53018" lon="6.58982">
        <ele>578.4</ele>
        <time>2021-06-01T08:15:37Z</time>
      </trkpt>
      <trkpt lat="45.53009" lon="6.58978">
        <ele>578</ele>
        <time>2021-06-01T08:15:38Z</time>
      </trkpt>
      <trkpt lat="45.53" lon="6.58974">
        <ele>577.8</ele>
        <time>2021-06-01T08:15:39Z</time>
      </trkpt>
      <trkpt lat="45.52991" lon="6.58968">
        <ele>577.4</ele>
        <time>2021-06-01T08:15:40Z</time>
      </trkpt>
      <trkpt lat="45.52983" lon="6.58962">
        <ele>576.6</ele>
        <time>2021-06-01T08:15:41Z</time>
      </trkpt>
      <trkpt lat="45.52975" lon="6.58955">
        <ele>575.8</ele>
        <time>2021-06-01T08:15:42Z</time>
      </trkpt>
      <trkpt lat="45.52967" lon="6.58946">
        <ele>575.6</ele>
        <time>2021-06-01T08:15:43Z</time>
      </trkpt>
      <trkpt lat="45.5296" lon="6.58936">
        <ele>575.2</ele>
        <time>2021-06-01T08:15:44Z</time>
      </trkpt>
      <trkpt lat="45.52955" lon="6.58925">
        <ele>575.2</ele>
        <time>2021-06-01T08:15:45Z</time>
      </trkpt>
      <trkpt lat="45.5295" lon="6.58914">
        <ele>575.2</ele>
        <time>2021-06-01T08:15:46Z</time>
      </trkpt>
      <trkpt lat="45.52946" lon="6.58903">
        <ele>575.2</ele>
        <time>2021-06-01T08:15:47Z</time>
      </trkpt>
      <trkpt lat="45.52942" lon="6.58891">
        <ele>574.6</ele>
        <time>2021-06-01T08:15:48Z</time>
      </trkpt>
      <trkpt lat="45.5294" lon="6.58879">
        <ele>574</ele>
        <time>2021-06-01T08:15:49Z</time>
      </trkpt>
      <trkpt lat="45.52937" lon="6.58867">
        <ele>573.8</ele>
        <time>2021-06-01T08:15:50Z</time>
      </trkpt>
      <trkpt lat="45.52935" lon="6.58855">
        <ele>573.2</ele>
        <time>2021-06-01T08:15:51Z</time>
      </trkpt>
      <trkpt lat="45.52932" lon="6.58844">
        <ele>573.2</ele>
        <time>2021-06-01T08:15:52Z</time>
      </trkpt>
      <trkpt lat="45.5293" lon="6.58834">
        <ele>572.4</ele>
        <time>2021-06-01T08:15:53Z</time>
      </trkpt>
      <trkpt lat="45.52927" lon="6.58824">
        <ele>572.4</ele>
        <time>2021-06-01T08:15:54Z</time>
      </trkpt>
      <trkpt lat="45.52923" lon="6.58815">
        <ele>572.4</ele>
        <time>2021-06-01T08:15:55Z</time>
      </trkpt>
      <trkpt lat="45.52919" lon="6.58806">
        <ele>572.2</ele>
        <time>2021-06-01T08:15:56Z</time>
      </trkpt>
      <trkpt lat="45.52915" lon="6.58798">
        <ele>572</ele>
        <time>2021-06-01T08:15:57Z</time>
      </trkpt>
      <trkpt lat="45.52911" lon="6.5879">
        <ele>571.8</ele>
        <time>2021-06-01T08:15:58Z</time>
      </trkpt>
      <trkpt lat="45.52906" lon="6.58784">
        <ele>572</ele>
        <time>2021-06-01T08:15:59Z</time>
      </trkpt>
      <trkpt lat="45.52901" lon="6.58776">
        <ele>571.6</ele>
        <time>2021-06-01T08:16:00Z</time>
      </trkpt>
      <trkpt lat="45.52896" lon="6.5877">
        <ele>571.4</ele>
        <time>2021-06-01T08:16:01Z</time>
      </trkpt>
      <trkpt lat="45.52891" lon="6.58763">
        <ele>571.4</ele>
        <time>2021-06-01T08:16:02Z</time>
      </trkpt>
      <trkpt lat="45.52886" lon="6.58756">
        <ele>571.4</ele>
        <time>2021-06-01T08:16:03Z</time>
      </trkpt>
      <trkpt lat="45.52882" lon="6.58749">
        <ele>571.4</ele>
        <time>2021-06-01T08:16:04Z</time>
      </trkpt>
      <trkpt lat="45.52878" lon="6.58743">
        <ele>571.4</ele>
        <time>2021-06-01T08:16:05Z</time>
      </trkpt>
      <trkpt lat="45.52875" lon="6.58735">
        <ele>571.4</ele>
        <time>2021-06-01T08:16:06Z</time>
      </trkpt>
      <trkpt lat="45.52872" lon="6.58729">
        <ele>571.4</ele>
        <time>2021-06-01T08:16:07Z</time>
      </trkpt>
      <trkpt lat="45.52867" lon="6.58722">
        <ele>571.2</ele>
        <time>2021-06-01T08:16:08Z</time>
      </trkpt>
      <trkpt lat="45.52861" lon="6.58716">
        <ele>571</ele>
        <time>2021-06-01T08:16:09Z</time>
      </trkpt>
      <trkpt lat="45.52855" lon="6.5871">
        <ele>570.8</ele>
        <time>2021-06-01T08:16:10Z</time>
      </trkpt>
      <trkpt lat="45.52848" lon="6.58705">
        <ele>571</ele>
        <time>2021-06-01T08:16:11Z</time>
      </trkpt>
      <trkpt lat="45.52842" lon="6.587">
        <ele>570.8</ele>
        <time>2021-06-01T08:16:12Z</time>
      </trkpt>
      <trkpt lat="45.52836" lon="6.58695">
        <ele>570.6</ele>
        <time>2021-06-01T08:16:13Z</time>
      </trkpt>
      <trkpt lat="45.52828" lon="6.58691">
        <ele>570.4</ele>
        <time>2021-06-01T08:16:14Z</time>
      </trkpt>
      <trkpt lat="45.5282" lon="6.58686">
        <ele>570.2</ele>
        <time>2021-06-01T08:16:15Z</time>
      </trkpt>
      <trkpt lat="45.52814" lon="6.58681">
        <ele>570</ele>
        <time>2021-06-01T08:16:16Z</time>
      </trkpt>
      <trkpt lat="45.52807" lon="6.58676">
        <ele>570</ele>
        <time>2021-06-01T08:16:17Z</time>
      </trkpt>
      <trkpt lat="45.528" lon="6.58672">
        <ele>570</ele>
        <time>2021-06-01T08:16:18Z</time>
      </trkpt>
      <trkpt lat="45.52792" lon="6.58667">
        <ele>569.8</ele>
        <time>2021-06-01T08:16:19Z</time>
      </trkpt>
      <trkpt lat="45.52784" lon="6.58663">
        <ele>569.8</ele>
        <time>2021-06-01T08:16:20Z</time>
      </trkpt>
      <trkpt lat="45.52777" lon="6.58658">
        <ele>569.6</ele>
        <time>2021-06-01T08:16:21Z</time>
      </trkpt>
      <trkpt lat="45.5277" lon="6.58653">
        <ele>569.6</ele>
        <time>2021-06-01T08:16:22Z</time>
      </trkpt>
      <trkpt lat="45.52763" lon="6.58646">
        <ele>569.8</ele>
        <time>2021-06-01T08:16:23Z</time>
      </trkpt>
      <trkpt lat="45.52756" lon="6.58638">
        <ele>570</ele>
        <time>2021-06-01T08:16:24Z</time>
      </trkpt>
      <trkpt lat="45.52751" lon="6.5863">
        <ele>570.2</ele>
        <time>2021-06-01T08:16:25Z</time>
      </trkpt>
      <trkpt lat="45.52745" lon="6.58621">
        <ele>570</ele>
        <time>2021-06-01T08:16:26Z</time>
      </trkpt>
      <trkpt lat="45.5274" lon="6.58611">
        <ele>569.8</ele>
        <time>2021-06-01T08:16:27Z</time>
      </trkpt>
      <trkpt lat="45.52735" lon="6.586">
        <ele>569.6</ele>
        <time>2021-06-01T08:16:28Z</time>
      </trkpt>
      <trkpt lat="45.5273" lon="6.5859">
        <ele>569.6</ele>
        <time>2021-06-01T08:16:29Z</time>
      </trkpt>
      <trkpt lat="45.52725" lon="6.58579">
        <ele>569.8</ele>
        <time>2021-06-01T08:16:30Z</time>
      </trkpt>
      <trkpt lat="45.52721" lon="6.58568">
        <ele>569.8</ele>
        <time>2021-06-01T08:16:31Z</time>
      </trkpt>
      <trkpt lat="45.52716" lon="6.58558">
        <ele>569.8</ele>
        <time>2021-06-01T08:16:32Z</time>
      </trkpt>
      <trkpt lat="45.52713" lon="6.58547">
        <ele>570</ele>
        <time>2021-06-01T08:16:33Z</time>
      </trkpt>
      <trkpt lat="45.52708" lon="6.58536">
        <ele>569.8</ele>
        <time>2021-06-01T08:16:34Z</time>
      </trkpt>
      <trkpt lat="45.52703" lon="6.58526">
        <ele>569.8</ele>
        <time>2021-06-01T08:16:35Z</time>
      </trkpt>
      <trkpt lat="45.52699" lon="6.58515">
        <ele>569.8</ele>
        <time>2021-06-01T08:16:36Z</time>
      </trkpt>
      <trkpt lat="45.52695" lon="6.58504">
        <ele>569.8</ele>
        <time>2021-06-01T08:16:37Z</time>
      </trkpt>
      <trkpt lat="45.52691" lon="6.58494">
        <ele>569.6</ele>
        <time>2021-06-01T08:16:38Z</time>
      </trkpt>
      <trkpt lat="45.52685" lon="6.58484">
        <ele>569.8</ele>
        <time>2021-06-01T08:16:39Z</time>
      </trkpt>
      <trkpt lat="45.5268" lon="6.58473">
        <ele>569.8</ele>
        <time>2021-06-01T08:16:40Z</time>
      </trkpt>
      <trkpt lat="45.52675" lon="6.58464">
        <ele>569.8</ele>
        <time>2021-06-01T08:16:41Z</time>
      </trkpt>
      <trkpt lat="45.52668" lon="6.58455">
        <ele>569.6</ele>
        <time>2021-06-01T08:16:42Z</time>
      </trkpt>
      <trkpt lat="45.52663" lon="6.58446">
        <ele>569.4</ele>
        <time>2021-06-01T08:16:43Z</time>
      </trkpt>
      <trkpt lat="45.52656" lon="6.58437">
        <ele>569.2</ele>
        <time>2021-06-01T08:16:44Z</time>
      </trkpt>
      <trkpt lat="45.5265" lon="6.58428">
        <ele>569</ele>
        <time>2021-06-01T08:16:45Z</time>
      </trkpt>
      <trkpt lat="45.52643" lon="6.5842">
        <ele>568.8</ele>
        <time>2021-06-01T08:16:46Z</time>
      </trkpt>
      <trkpt lat="45.52636" lon="6.58413">
        <ele>568.8</ele>
        <time>2021-06-01T08:16:47Z</time>
      </trkpt>
      <trkpt lat="45.52629" lon="6.58405">
        <ele>568.6</ele>
        <time>2021-06-01T08:16:48Z</time>
      </trkpt>
      <trkpt lat="45.52621" lon="6.58398">
        <ele>568.4</ele>
        <time>2021-06-01T08:16:49Z</time>
      </trkpt>
      <trkpt lat="45.52615" lon="6.58391">
        <ele>568.2</ele>
        <time>2021-06-01T08:16:50Z</time>
      </trkpt>
      <trkpt lat="45.52607" lon="6.58385">
        <ele>568.2</ele>
        <time>2021-06-01T08:16:51Z</time>
      </trkpt>
      <trkpt lat="45.526" lon="6.58378">
        <ele>568.2</ele>
        <time>2021-06-01T08:16:52Z</time>
      </trkpt>
      <trkpt lat="45.52593" lon="6.58371">
        <ele>568</ele>
        <time>2021-06-01T08:16:53Z</time>
      </trkpt>
      <trkpt lat="45.52587" lon="6.58364">
        <ele>568</ele>
        <time>2021-06-01T08:16:54Z</time>
      </trkpt>
      <trkpt lat="45.5258" lon="6.58358">
        <ele>568</ele>
        <time>2021-06-01T08:16:55Z</time>
      </trkpt>
      <trkpt lat="45.52572" lon="6.58352">
        <ele>568.2</ele>
        <time>2021-06-01T08:16:56Z</time>
      </trkpt>
      <trkpt lat="45.52566" lon="6.58345">
        <ele>568</ele>
        <time>2021-06-01T08:16:57Z</time>
      </trkpt>
      <trkpt lat="45.52559" lon="6.58339">
        <ele>568.2</ele>
        <time>2021-06-01T08:16:58Z</time>
      </trkpt>
      <trkpt lat="45.52553" lon="6.58332">
        <ele>568.2</ele>
        <time>2021-06-01T08:16:59Z</time>
      </trkpt>
      <trkpt lat="45.52547" lon="6.58325">
        <ele>568.2</ele>
        <time>2021-06-01T08:17:00Z</time>
      </trkpt>
      <trkpt lat="45.5254" lon="6.58318">
        <ele>568.4</ele>
        <time>2021-06-01T08:17:01Z</time>
      </trkpt>
      <trkpt lat="45.52533" lon="6.58312">
        <ele>568.4</ele>
        <time>2021-06-01T08:17:02Z</time>
      </trkpt>
      <trkpt lat="45.52527" lon="6.58304">
        <ele>568.6</ele>
        <time>2021-06-01T08:17:03Z</time>
      </trkpt>
      <trkpt lat="45.52522" lon="6.58296">
        <ele>568.8</ele>
        <time>2021-06-01T08:17:04Z</time>
      </trkpt>
      <trkpt lat="45.52517" lon="6.58288">
        <ele>569</ele>
        <time>2021-06-01T08:17:05Z</time>
      </trkpt>
      <trkpt lat="45.52512" lon="6.58279">
        <ele>569</ele>
        <time>2021-06-01T08:17:06Z</time>
      </trkpt>
      <trkpt lat="45.52509" lon="6.58269">
        <ele>569.4</ele>
        <time>2021-06-01T08:17:07Z</time>
      </trkpt>
      <trkpt lat="45.52506" lon="6.58259">
        <ele>569.6</ele>
        <time>2021-06-01T08:17:08Z</time>
      </trkpt>
      <trkpt lat="45.52503" lon="6.5825">
        <ele>569.8</ele>
        <time>2021-06-01T08:17:09Z</time>
      </trkpt>
      <trkpt lat="45.52501" lon="6.5824">
        <ele>570</ele>
        <time>2021-06-01T08:17:10Z</time>
      </trkpt>
      <trkpt lat="45.52502" lon="6.5823">
        <ele>570.4</ele>
        <time>2021-06-01T08:17:11Z</time>
      </trkpt>
      <trkpt lat="45.52502" lon="6.58222">
        <ele>570.8</ele>
        <time>2021-06-01T08:17:12Z</time>
      </trkpt>
      <trkpt lat="45.52504" lon="6.58213">
        <ele>571.2</ele>
        <time>2021-06-01T08:17:13Z</time>
      </trkpt>
      <trkpt lat="45.52506" lon="6.58207">
        <ele>571.6</ele>
        <time>2021-06-01T08:17:14Z</time>
      </trkpt>
      <trkpt lat="45.52508" lon="6.58202">
        <ele>572</ele>
        <time>2021-06-01T08:17:15Z</time>
      </trkpt>
      <trkpt lat="45.52509" lon="6.58196">
        <ele>572.4</ele>
        <time>2021-06-01T08:17:16Z</time>
      </trkpt>
      <trkpt lat="45.52512" lon="6.58195">
        <ele>572.6</ele>
        <time>2021-06-01T08:17:17Z</time>
      </trkpt>
      <trkpt lat="45.52517" lon="6.58202">
        <ele>573</ele>
        <time>2021-06-01T08:17:18Z</time>
      </trkpt>
      <trkpt lat="45.5252" lon="6.58208">
        <ele>573.2</ele>
        <time>2021-06-01T08:17:19Z</time>
      </trkpt>
      <trkpt lat="45.52523" lon="6.58213">
        <ele>573.4</ele>
        <time>2021-06-01T08:17:20Z</time>
      </trkpt>
      <trkpt lat="45.52526" lon="6.58218">
        <ele>573.8</ele>
        <time>2021-06-01T08:17:21Z</time>
      </trkpt>
      <trkpt lat="45.52528" lon="6.58223">
        <ele>573.8</ele>
        <time>2021-06-01T08:17:22Z</time>
      </trkpt>
      <trkpt lat="45.5253" lon="6.58228">
        <ele>574</ele>
        <time>2021-06-01T08:17:23Z</time>
      </trkpt>
      <trkpt lat="45.52532" lon="6.58233">
        <ele>574.2</ele>
        <time>2021-06-01T08:17:24Z</time>
      </trkpt>
      <trkpt lat="45.52534" lon="6.58238">
        <ele>574.2</ele>
        <time>2021-06-01T08:17:25Z</time>
      </trkpt>
      <trkpt lat="45.52537" lon="6.58243">
        <ele>574.6</ele>
        <time>2021-06-01T08:17:26Z</time>
      </trkpt>
      <trkpt lat="45.52539" lon="6.58248">
        <ele>574.6</ele>
        <time>2021-06-01T08:17:27Z</time>
      </trkpt>
      <trkpt lat="45.52542" lon="6.58252">
        <ele>575</ele>
        <time>2021-06-01T08:17:28Z</time>
      </trkpt>
      <trkpt lat="45.52545" lon="6.58257">
        <ele>575.4</ele>
        <time>2021-06-01T08:17:29Z</time>
      </trkpt>
      <trkpt lat="45.52548" lon="6.58262">
        <ele>575.6</ele>
        <time>2021-06-01T08:17:30Z</time>
      </trkpt>
      <trkpt lat="45.52551" lon="6.58266">
        <ele>575.8</ele>
        <time>2021-06-01T08:17:31Z</time>
      </trkpt>
      <trkpt lat="45.52554" lon="6.5827">
        <ele>575.8</ele>
        <time>2021-06-01T08:17:32Z</time>
      </trkpt>
      <trkpt lat="45.52557" lon="6.58274">
        <ele>576</ele>
        <time>2021-06-01T08:17:33Z</time>
      </trkpt>
      <trkpt lat="45.52561" lon="6.58277">
        <ele>576.2</ele>
        <time>2021-06-01T08:17:34Z</time>
      </trkpt>
      <trkpt lat="45.52564" lon="6.58281">
        <ele>576.4</ele>
        <time>2021-06-01T08:17:35Z</time>
      </trkpt>
      <trkpt lat="45.52567" lon="6.58283">
        <ele>576.8</ele>
        <time>2021-06-01T08:17:36Z</time>
      </trkpt>
      <trkpt lat="45.5257" lon="6.58286">
        <ele>577</ele>
        <time>2021-06-01T08:17:37Z</time>
      </trkpt>
      <trkpt lat="45.52573" lon="6.58289">
        <ele>577.4</ele>
        <time>2021-06-01T08:17:38Z</time>
      </trkpt>
      <trkpt lat="45.52577" lon="6.58292">
        <ele>577.8</ele>
        <time>2021-06-01T08:17:39Z</time>
      </trkpt>
      <trkpt lat="45.52581" lon="6.58294">
        <ele>578.2</ele>
        <time>2021-06-01T08:17:40Z</time>
      </trkpt>
      <trkpt lat="45.52585" lon="6.58296">
        <ele>578.2</ele>
        <time>2021-06-01T08:17:41Z</time>
      </trkpt>
      <trkpt lat="45.52588" lon="6.58298">
        <ele>578.6</ele>
        <time>2021-06-01T08:17:42Z</time>
      </trkpt>
      <trkpt lat="45.52592" lon="6.583">
        <ele>578.6</ele>
        <time>2021-06-01T08:17:43Z</time>
      </trkpt>
      <trkpt lat="45.52596" lon="6.58302">
        <ele>578.8</ele>
        <time>2021-06-01T08:17:44Z</time>
      </trkpt>
      <trkpt lat="45.52599" lon="6.58303">
        <ele>579.2</ele>
        <time>2021-06-01T08:17:45Z</time>
      </trkpt>
      <trkpt lat="45.52602" lon="6.58305">
        <ele>579.4</ele>
        <time>2021-06-01T08:17:46Z</time>
      </trkpt>
      <trkpt lat="45.52604" lon="6.58307">
        <ele>579.8</ele>
        <time>2021-06-01T08:17:47Z</time>
      </trkpt>
      <trkpt lat="45.52608" lon="6.58309">
        <ele>580.2</ele>
        <time>2021-06-01T08:17:48Z</time>
      </trkpt>
      <trkpt lat="45.52611" lon="6.58311">
        <ele>580.4</ele>
        <time>2021-06-01T08:17:49Z</time>
      </trkpt>
      <trkpt lat="45.52615" lon="6.58312">
        <ele>580.8</ele>
        <time>2021-06-01T08:17:50Z</time>
      </trkpt>
      <trkpt lat="45.52619" lon="6.58314">
        <ele>581.2</ele>
        <time>2021-06-01T08:17:51Z</time>
      </trkpt>
      <trkpt lat="45.52624" lon="6.58315">
        <ele>581.6</ele>
        <time>2021-06-01T08:17:52Z</time>
      </trkpt>
      <trkpt lat="45.52627" lon="6.58319">
        <ele>582.2</ele>
        <time>2021-06-01T08:17:53Z</time>
      </trkpt>
      <trkpt lat="45.52631" lon="6.58322">
        <ele>582.6</ele>
        <time>2021-06-01T08:17:54Z</time>
      </trkpt>
      <trkpt lat="45.52635" lon="6.58326">
        <ele>582.8</ele>
        <time>2021-06-01T08:17:55Z</time>
      </trkpt>
      <trkpt lat="45.52638" lon="6.5833">
        <ele>583.2</ele>
        <time>2021-06-01T08:17:56Z</time>
      </trkpt>
      <trkpt lat="45.52642" lon="6.58333">
        <ele>583.6</ele>
        <time>2021-06-01T08:17:57Z</time>
      </trkpt>
      <trkpt lat="45.52646" lon="6.58336">
        <ele>584</ele>
        <time>2021-06-01T08:17:58Z</time>
      </trkpt>
      <trkpt lat="45.52651" lon="6.58339">
        <ele>584.6</ele>
        <time>2021-06-01T08:17:59Z</time>
      </trkpt>
      <trkpt lat="45.52655" lon="6.58341">
        <ele>585</ele>
        <time>2021-06-01T08:18:00Z</time>
      </trkpt>
      <trkpt lat="45.52659" lon="6.58343">
        <ele>585.4</ele>
        <time>2021-06-01T08:18:01Z</time>
      </trkpt>
      <trkpt lat="45.52663" lon="6.58344">
        <ele>585.8</ele>
        <time>2021-06-01T08:18:02Z</time>
      </trkpt>
      <trkpt lat="45.52668" lon="6.58345">
        <ele>586</ele>
        <time>2021-06-01T08:18:03Z</time>
      </trkpt>
      <trkpt lat="45.52672" lon="6.58348">
        <ele>586.2</ele>
        <time>2021-06-01T08:18:04Z</time>
      </trkpt>
      <trkpt lat="45.52676" lon="6.58352">
        <ele>586.6</ele>
        <time>2021-06-01T08:18:05Z</time>
      </trkpt>
      <trkpt lat="45.52681" lon="6.58357">
        <ele>587.2</ele>
        <time>2021-06-01T08:18:06Z</time>
      </trkpt>
      <trkpt lat="45.52684" lon="6.58361">
        <ele>587.6</ele>
        <time>2021-06-01T08:18:07Z</time>
      </trkpt>
      <trkpt lat="45.52687" lon="6.58366">
        <ele>588</ele>
        <time>2021-06-01T08:18:08Z</time>
      </trkpt>
      <trkpt lat="45.52691" lon="6.5837">
        <ele>588.4</ele>
        <time>2021-06-01T08:18:09Z</time>
      </trkpt>
      <trkpt lat="45.52693" lon="6.58375">
        <ele>588.8</ele>
        <time>2021-06-01T08:18:10Z</time>
      </trkpt>
      <trkpt lat="45.52697" lon="6.58379">
        <ele>589.2</ele>
        <time>2021-06-01T08:18:11Z</time>
      </trkpt>
      <trkpt lat="45.527" lon="6.58383">
        <ele>589.6</ele>
        <time>2021-06-01T08:18:12Z</time>
      </trkpt>
      <trkpt lat="45.52703" lon="6.58387">
        <ele>590.2</ele>
        <time>2021-06-01T08:18:13Z</time>
      </trkpt>
      <trkpt lat="45.52706" lon="6.58391">
        <ele>590.6</ele>
        <time>2021-06-01T08:18:14Z</time>
      </trkpt>
      <trkpt lat="45.5271" lon="6.58393">
        <ele>591.2</ele>
        <time>2021-06-01T08:18:15Z</time>
      </trkpt>
      <trkpt lat="45.52713" lon="6.58396">
        <ele>591.8</ele>
        <time>2021-06-01T08:18:16Z</time>
      </trkpt>
      <trkpt lat="45.52716" lon="6.58399">
        <ele>592.2</ele>
        <time>2021-06-01T08:18:17Z</time>
      </trkpt>
      <trkpt lat="45.52719" lon="6.58404">
        <ele>592.8</ele>
        <time>2021-06-01T08:18:18Z</time>
      </trkpt>
      <trkpt lat="45.52722" lon="6.58408">
        <ele>593.2</ele>
        <time>2021-06-01T08:18:19Z</time>
      </trkpt>
      <trkpt lat="45.52725" lon="6.58411">
        <ele>593.6</ele>
        <time>2021-06-01T08:18:20Z</time>
      </trkpt>
      <trkpt lat="45.52728" lon="6.58414">
        <ele>593.8</ele>
        <time>2021-06-01T08:18:21Z</time>
      </trkpt>
      <trkpt lat="45.52731" lon="6.58416">
        <ele>593.8</ele>
        <time>2021-06-01T08:18:22Z</time>
      </trkpt>
      <trkpt lat="45.52734" lon="6.58417">
        <ele>593.8</ele>
        <time>2021-06-01T08:18:23Z</time>
      </trkpt>
      <trkpt lat="45.52736" lon="6.58417">
        <ele>594</ele>
        <time>2021-06-01T08:18:25Z</time>
      </trkpt>
      <trkpt lat="45.52736" lon="6.58413">
        <ele>594.4</ele>
        <time>2021-06-01T08:18:27Z</time>
      </trkpt>
      <trkpt lat="45.52736" lon="6.58408">
        <ele>594.4</ele>
        <time>2021-06-01T08:18:28Z</time>
      </trkpt>
      <trkpt lat="45.52735" lon="6.58402">
        <ele>594.6</ele>
        <time>2021-06-01T08:18:29Z</time>
      </trkpt>
      <trkpt lat="45.52735" lon="6.58397">
        <ele>595</ele>
        <time>2021-06-01T08:18:30Z</time>
      </trkpt>
      <trkpt lat="45.52733" lon="6.58393">
        <ele>595.2</ele>
        <time>2021-06-01T08:18:31Z</time>
      </trkpt>
      <trkpt lat="45.52731" lon="6.58389">
        <ele>595.6</ele>
        <time>2021-06-01T08:18:32Z</time>
      </trkpt>
      <trkpt lat="45.52729" lon="6.58385">
        <ele>595.6</ele>
        <time>2021-06-01T08:18:33Z</time>
      </trkpt>
      <trkpt lat="45.52727" lon="6.5838">
        <ele>595.8</ele>
        <time>2021-06-01T08:18:34Z</time>
      </trkpt>
      <trkpt lat="45.52726" lon="6.58375">
        <ele>596</ele>
        <time>2021-06-01T08:18:35Z</time>
      </trkpt>
      <trkpt lat="45.52725" lon="6.5837">
        <ele>596.2</ele>
        <time>2021-06-01T08:18:36Z</time>
      </trkpt>
      <trkpt lat="45.52723" lon="6.58365">
        <ele>596.6</ele>
        <time>2021-06-01T08:18:37Z</time>
      </trkpt>
      <trkpt lat="45.52721" lon="6.58361">
        <ele>597</ele>
        <time>2021-06-01T08:18:38Z</time>
      </trkpt>
      <trkpt lat="45.52718" lon="6.58357">
        <ele>597.6</ele>
        <time>2021-06-01T08:18:39Z</time>
      </trkpt>
      <trkpt lat="45.52716" lon="6.58353">
        <ele>598</ele>
        <time>2021-06-01T08:18:40Z</time>
      </trkpt>
      <trkpt lat="45.52713" lon="6.5835">
        <ele>598.6</ele>
        <time>2021-06-01T08:18:41Z</time>
      </trkpt>
      <trkpt lat="45.52709" lon="6.58347">
        <ele>599</ele>
        <time>2021-06-01T08:18:42Z</time>
      </trkpt>
      <trkpt lat="45.52706" lon="6.58345">
        <ele>599.4</ele>
        <time>2021-06-01T08:18:43Z</time>
      </trkpt>
      <trkpt lat="45.52702" lon="6.58341">
        <ele>600</ele>
        <time>2021-06-01T08:18:44Z</time>
      </trkpt>
      <trkpt lat="45.52699" lon="6.58337">
        <ele>600.4</ele>
        <time>2021-06-01T08:18:45Z</time>
      </trkpt>
      <trkpt lat="45.52695" lon="6.58334">
        <ele>601</ele>
        <time>2021-06-01T08:18:46Z</time>
      </trkpt>
      <trkpt lat="45.52691" lon="6.5833">
        <ele>601.4</ele>
        <time>2021-06-01T08:18:47Z</time>
      </trkpt>
      <trkpt lat="45.52687" lon="6.58326">
        <ele>601.8</ele>
        <time>2021-06-01T08:18:48Z</time>
      </trkpt>
      <trkpt lat="45.52682" lon="6.58322">
        <ele>602.2</ele>
        <time>2021-06-01T08:18:49Z</time>
      </trkpt>
      <trkpt lat="45.52677" lon="6.58318">
        <ele>602.6</ele>
        <time>2021-06-01T08:18:50Z</time>
      </trkpt>
      <trkpt lat="45.52674" lon="6.58312">
        <ele>602.8</ele>
        <time>2021-06-01T08:18:51Z</time>
      </trkpt>
      <trkpt lat="45.52671" lon="6.58306">
        <ele>603</ele>
        <time>2021-06-01T08:18:52Z</time>
      </trkpt>
      <trkpt lat="45.52667" lon="6.583">
        <ele>603.2</ele>
        <time>2021-06-01T08:18:53Z</time>
      </trkpt>
      <trkpt lat="45.52663" lon="6.58296">
        <ele>603.4</ele>
        <time>2021-06-01T08:18:54Z</time>
      </trkpt>
      <trkpt lat="45.52659" lon="6.58292">
        <ele>603.8</ele>
        <time>2021-06-01T08:18:55Z</time>
      </trkpt>
      <trkpt lat="45.52655" lon="6.58288">
        <ele>604.2</ele>
        <time>2021-06-01T08:18:56Z</time>
      </trkpt>
      <trkpt lat="45.52651" lon="6.58284">
        <ele>604.8</ele>
        <time>2021-06-01T08:18:57Z</time>
      </trkpt>
      <trkpt lat="45.52647" lon="6.5828">
        <ele>605.2</ele>
        <time>2021-06-01T08:18:58Z</time>
      </trkpt>
      <trkpt lat="45.52644" lon="6.58275">
        <ele>605.6</ele>
        <time>2021-06-01T08:18:59Z</time>
      </trkpt>
      <trkpt lat="45.52641" lon="6.5827">
        <ele>606</ele>
        <time>2021-06-01T08:19:00Z</time>
      </trkpt>
      <trkpt lat="45.52639" lon="6.58265">
        <ele>606.4</ele>
        <time>2021-06-01T08:19:01Z</time>
      </trkpt>
      <trkpt lat="45.52638" lon="6.58261">
        <ele>607</ele>
        <time>2021-06-01T08:19:02Z</time>
      </trkpt>
      <trkpt lat="45.52636" lon="6.58265">
        <ele>607.4</ele>
        <time>2021-06-01T08:19:04Z</time>
      </trkpt>
      <trkpt lat="45.52636" lon="6.58269">
        <ele>607.6</ele>
        <time>2021-06-01T08:19:05Z</time>
      </trkpt>
      <trkpt lat="45.52639" lon="6.58272">
        <ele>608</ele>
        <time>2021-06-01T08:19:06Z</time>
      </trkpt>
      <trkpt lat="45.52643" lon="6.58275">
        <ele>608.2</ele>
        <time>2021-06-01T08:19:07Z</time>
      </trkpt>
      <trkpt lat="45.52647" lon="6.5828">
        <ele>608.4</ele>
        <time>2021-06-01T08:19:08Z</time>
      </trkpt>
      <trkpt lat="45.52652" lon="6.58284">
        <ele>608.4</ele>
        <time>2021-06-01T08:19:09Z</time>
      </trkpt>
      <trkpt lat="45.52657" lon="6.58287">
        <ele>608.6</ele>
        <time>2021-06-01T08:19:10Z</time>
      </trkpt>
      <trkpt lat="45.52663" lon="6.58291">
        <ele>608.6</ele>
        <time>2021-06-01T08:19:11Z</time>
      </trkpt>
      <trkpt lat="45.52668" lon="6.58296">
        <ele>608.6</ele>
        <time>2021-06-01T08:19:12Z</time>
      </trkpt>
      <trkpt lat="45.52672" lon="6.58301">
        <ele>608.8</ele>
        <time>2021-06-01T08:19:13Z</time>
      </trkpt>
      <trkpt lat="45.52677" lon="6.58305">
        <ele>609</ele>
        <time>2021-06-01T08:19:14Z</time>
      </trkpt>
      <trkpt lat="45.52682" lon="6.5831">
        <ele>609</ele>
        <time>2021-06-01T08:19:15Z</time>
      </trkpt>
      <trkpt lat="45.52687" lon="6.58315">
        <ele>609.2</ele>
        <time>2021-06-01T08:19:16Z</time>
      </trkpt>
      <trkpt lat="45.52692" lon="6.58319">
        <ele>609.2</ele>
        <time>2021-06-01T08:19:17Z</time>
      </trkpt>
      <trkpt lat="45.52698" lon="6.58324">
        <ele>609.4</ele>
        <time>2021-06-01T08:19:18Z</time>
      </trkpt>
      <trkpt lat="45.52702" lon="6.58331">
        <ele>609.6</ele>
        <time>2021-06-01T08:19:19Z</time>
      </trkpt>
      <trkpt lat="45.52708" lon="6.58335">
        <ele>609.8</ele>
        <time>2021-06-01T08:19:20Z</time>
      </trkpt>
      <trkpt lat="45.52715" lon="6.58337">
        <ele>610</ele>
        <time>2021-06-01T08:19:21Z</time>
      </trkpt>
      <trkpt lat="45.52721" lon="6.58341">
        <ele>610</ele>
        <time>2021-06-01T08:19:22Z</time>
      </trkpt>
      <trkpt lat="45.52724" lon="6.58347">
        <ele>610.2</ele>
        <time>2021-06-01T08:19:23Z</time>
      </trkpt>
      <trkpt lat="45.52727" lon="6.58352">
        <ele>610.4</ele>
        <time>2021-06-01T08:19:24Z</time>
      </trkpt>
      <trkpt lat="45.5273" lon="6.58356">
        <ele>610.6</ele>
        <time>2021-06-01T08:19:25Z</time>
      </trkpt>
      <trkpt lat="45.52734" lon="6.5836">
        <ele>610.8</ele>
        <time>2021-06-01T08:19:26Z</time>
      </trkpt>
      <trkpt lat="45.52739" lon="6.58366">
        <ele>611</ele>
        <time>2021-06-01T08:19:27Z</time>
      </trkpt>
      <trkpt lat="45.52744" lon="6.58371">
        <ele>611.2</ele>
        <time>2021-06-01T08:19:28Z</time>
      </trkpt>
      <trkpt lat="45.52748" lon="6.58376">
        <ele>611.2</ele>
        <time>2021-06-01T08:19:29Z</time>
      </trkpt>
      <trkpt lat="45.52752" lon="6.58381">
        <ele>611.2</ele>
        <time>2021-06-01T08:19:30Z</time>
      </trkpt>
      <trkpt lat="45.52755" lon="6.58386">
        <ele>611.2</ele>
        <time>2021-06-01T08:19:31Z</time>
      </trkpt>
      <trkpt lat="45.52758" lon="6.58391">
        <ele>611.4</ele>
        <time>2021-06-01T08:19:32Z</time>
      </trkpt>
      <trkpt lat="45.52762" lon="6.58394">
        <ele>612</ele>
        <time>2021-06-01T08:19:33Z</time>
      </trkpt>
      <trkpt lat="45.52764" lon="6.58397">
        <ele>612.2</ele>
        <time>2021-06-01T08:19:34Z</time>
      </trkpt>
      <trkpt lat="45.52767" lon="6.58399">
        <ele>612.6</ele>
        <time>2021-06-01T08:19:35Z</time>
      </trkpt>
      <trkpt lat="45.52769" lon="6.58401">
        <ele>612.8</ele>
        <time>2021-06-01T08:19:37Z</time>
      </trkpt>
      <trkpt lat="45.52768" lon="6.58403">
        <ele>612</ele>
        <time>2021-06-01T08:19:40Z</time>
      </trkpt>
      <trkpt lat="45.52766" lon="6.58407">
        <ele>611.4</ele>
        <time>2021-06-01T08:19:42Z</time>
      </trkpt>
      <trkpt lat="45.5276" lon="6.58412">
        <ele>610.8</ele>
        <time>2021-06-01T08:19:43Z</time>
      </trkpt>
      <trkpt lat="45.52755" lon="6.58416">
        <ele>610.4</ele>
        <time>2021-06-01T08:19:44Z</time>
      </trkpt>
      <trkpt lat="45.5275" lon="6.5842">
        <ele>610</ele>
        <time>2021-06-01T08:19:45Z</time>
      </trkpt>
      <trkpt lat="45.52745" lon="6.58425">
        <ele>609.4</ele>
        <time>2021-06-01T08:19:46Z</time>
      </trkpt>
      <trkpt lat="45.5274" lon="6.58429">
        <ele>608.8</ele>
        <time>2021-06-01T08:19:47Z</time>
      </trkpt>
      <trkpt lat="45.52733" lon="6.58435">
        <ele>608.4</ele>
        <time>2021-06-01T08:19:48Z</time>
      </trkpt>
      <trkpt lat="45.52727" lon="6.5844">
        <ele>608</ele>
        <time>2021-06-01T08:19:49Z</time>
      </trkpt>
      <trkpt lat="45.5272" lon="6.58446">
        <ele>607.6</ele>
        <time>2021-06-01T08:19:50Z</time>
      </trkpt>
      <trkpt lat="45.52713" lon="6.58451">
        <ele>607.2</ele>
        <time>2021-06-01T08:19:51Z</time>
      </trkpt>
      <trkpt lat="45.52707" lon="6.58457">
        <ele>606.8</ele>
        <time>2021-06-01T08:19:52Z</time>
      </trkpt>
      <trkpt lat="45.527" lon="6.58462">
        <ele>606.2</ele>
        <time>2021-06-01T08:19:53Z</time>
      </trkpt>
      <trkpt lat="45.52692" lon="6.58468">
        <ele>605.8</ele>
        <time>2021-06-01T08:19:54Z</time>
      </trkpt>
      <trkpt lat="45.52685" lon="6.58474">
        <ele>605.4</ele>
        <time>2021-06-01T08:19:55Z</time>
      </trkpt>
      <trkpt lat="45.5268" lon="6.58477">
        <ele>605</ele>
        <time>2021-06-01T08:19:56Z</time>
      </trkpt>
      <trkpt lat="45.52676" lon="6.5848">
        <ele>604.6</ele>
        <time>2021-06-01T08:19:57Z</time>
      </trkpt>
      <trkpt lat="45.52673" lon="6.58483">
        <ele>604.2</ele>
        <time>2021-06-01T08:19:58Z</time>
      </trkpt>
      <trkpt lat="45.52671" lon="6.58485">
        <ele>604</ele>
        <time>2021-06-01T08:19:59Z</time>
      </trkpt>
      <trkpt lat="45.52669" lon="6.58487">
        <ele>603.2</ele>
        <time>2021-06-01T08:20:02Z</time>
      </trkpt>
      <trkpt lat="45.52671" lon="6.58488">
        <ele>602.2</ele>
        <time>2021-06-01T08:20:07Z</time>
      </trkpt>
      <trkpt lat="45.52673" lon="6.5849">
        <ele>601.8</ele>
        <time>2021-06-01T08:20:09Z</time>
      </trkpt>
      <trkpt lat="45.52676" lon="6.58491">
        <ele>601.6</ele>
        <time>2021-06-01T08:20:10Z</time>
      </trkpt>
      <trkpt lat="45.52679" lon="6.58491">
        <ele>601.6</ele>
        <time>2021-06-01T08:20:11Z</time>
      </trkpt>
      <trkpt lat="45.52682" lon="6.58492">
        <ele>601.4</ele>
        <time>2021-06-01T08:20:12Z</time>
      </trkpt>
      <trkpt lat="45.52687" lon="6.58492">
        <ele>601.6</ele>
        <time>2021-06-01T08:20:13Z</time>
      </trkpt>
      <trkpt lat="45.52691" lon="6.58493">
        <ele>601.6</ele>
        <time>2021-06-01T08:20:14Z</time>
      </trkpt>
      <trkpt lat="45.52696" lon="6.58494">
        <ele>601.6</ele>
        <time>2021-06-01T08:20:15Z</time>
      </trkpt>
      <trkpt lat="45.52701" lon="6.58496">
        <ele>601.6</ele>
        <time>2021-06-01T08:20:16Z</time>
      </trkpt>
      <trkpt lat="45.52706" lon="6.58497">
        <ele>601.8</ele>
        <time>2021-06-01T08:20:17Z</time>
      </trkpt>
      <trkpt lat="45.5271" lon="6.58499">
        <ele>601.6</ele>
        <time>2021-06-01T08:20:18Z</time>
      </trkpt>
      <trkpt lat="45.52715" lon="6.585">
        <ele>601.8</ele>
        <time>2021-06-01T08:20:19Z</time>
      </trkpt>
      <trkpt lat="45.52719" lon="6.58501">
        <ele>601.8</ele>
        <time>2021-06-01T08:20:20Z</time>
      </trkpt>
      <trkpt lat="45.52725" lon="6.58502">
        <ele>601.6</ele>
        <time>2021-06-01T08:20:21Z</time>
      </trkpt>
      <trkpt lat="45.5273" lon="6.58503">
        <ele>601.8</ele>
        <time>2021-06-01T08:20:22Z</time>
      </trkpt>
      <trkpt lat="45.52736" lon="6.58501">
        <ele>601.8</ele>
        <time>2021-06-01T08:20:23Z</time>
      </trkpt>
      <trkpt lat="45.52741" lon="6.58496">
        <ele>602</ele>
        <time>2021-06-01T08:20:24Z</time>
      </trkpt>
      <trkpt lat="45.52742" lon="6.58493">
        <ele>602.4</ele>
        <time>2021-06-01T08:20:25Z</time>
      </trkpt>
      <trkpt lat="45.52744" lon="6.58491">
        <ele>602.6</ele>
        <time>2021-06-01T08:20:26Z</time>
      </trkpt>
      <trkpt lat="45.50549" lon="6.58232">
        <ele>590</ele>
        <time>2021-06-01T08:23:57Z</time>
      </trkpt>
      <trkpt lat="45.50541" lon="6.58225">
        <ele>590.2</ele>
        <time>2021-06-01T08:23:58Z</time>
      </trkpt>
      <trkpt lat="45.50536" lon="6.58219">
        <ele>590.6</ele>
        <time>2021-06-01T08:23:59Z</time>
      </trkpt>
      <trkpt lat="45.50531" lon="6.58216">
        <ele>590.8</ele>
        <time>2021-06-01T08:24:00Z</time>
      </trkpt>
      <trkpt lat="45.50532" lon="6.58207">
        <ele>591.2</ele>
        <time>2021-06-01T08:24:01Z</time>
      </trkpt>
      <trkpt lat="45.50532" lon="6.58197">
        <ele>591.6</ele>
        <time>2021-06-01T08:24:02Z</time>
      </trkpt>
      <trkpt lat="45.50534" lon="6.58189">
        <ele>592</ele>
        <time>2021-06-01T08:24:03Z</time>
      </trkpt>
      <trkpt lat="45.50535" lon="6.58182">
        <ele>592</ele>
        <time>2021-06-01T08:24:04Z</time>
      </trkpt>
      <trkpt lat="45.5053" lon="6.58056">
        <ele>590.6</ele>
        <time>2021-06-01T08:24:23Z</time>
      </trkpt>
      <trkpt lat="45.5053" lon="6.58045">
        <ele>590.6</ele>
        <time>2021-06-01T08:24:24Z</time>
      </trkpt>
      <trkpt lat="45.5053" lon="6.58035">
        <ele>590.4</ele>
        <time>2021-06-01T08:24:25Z</time>
      </trkpt>
      <trkpt lat="45.50529" lon="6.58024">
        <ele>590.4</ele>
        <time>2021-06-01T08:24:26Z</time>
      </trkpt>
      <trkpt lat="45.5053" lon="6.58011">
        <ele>590.6</ele>
        <time>2021-06-01T08:24:27Z</time>
      </trkpt>
      <trkpt lat="45.5053" lon="6.57999">
        <ele>590.8</ele>
        <time>2021-06-01T08:24:28Z</time>
      </trkpt>
      <trkpt lat="45.50532" lon="6.57985">
        <ele>591.2</ele>
        <time>2021-06-01T08:24:29Z</time>
      </trkpt>
      <trkpt lat="45.50533" lon="6.57972">
        <ele>591.4</ele>
        <time>2021-06-01T08:24:30Z</time>
      </trkpt>
      <trkpt lat="45.50536" lon="6.57959">
        <ele>591.8</ele>
        <time>2021-06-01T08:24:31Z</time>
      </trkpt>
      <trkpt lat="45.50539" lon="6.57946">
        <ele>592.2</ele>
        <time>2021-06-01T08:24:32Z</time>
      </trkpt>
      <trkpt lat="45.50542" lon="6.57933">
        <ele>592.4</ele>
        <time>2021-06-01T08:24:33Z</time>
      </trkpt>
      <trkpt lat="45.50547" lon="6.5792">
        <ele>592.8</ele>
        <time>2021-06-01T08:24:34Z</time>
      </trkpt>
      <trkpt lat="45.50552" lon="6.57907">
        <ele>593</ele>
        <time>2021-06-01T08:24:35Z</time>
      </trkpt>
      <trkpt lat="45.50558" lon="6.57895">
        <ele>593.2</ele>
        <time>2021-06-01T08:24:36Z</time>
      </trkpt>
      <trkpt lat="45.50564" lon="6.57882">
        <ele>593.4</ele>
        <time>2021-06-01T08:24:37Z</time>
      </trkpt>
      <trkpt lat="45.5057" lon="6.5787">
        <ele>593.8</ele>
        <time>2021-06-01T08:24:38Z</time>
      </trkpt>
      <trkpt lat="45.50576" lon="6.57859">
        <ele>594</ele>
        <time>2021-06-01T08:24:39Z</time>
      </trkpt>
      <trkpt lat="45.50582" lon="6.57847">
        <ele>594.6</ele>
        <time>2021-06-01T08:24:40Z</time>
      </trkpt>
      <trkpt lat="45.50588" lon="6.57836">
        <ele>594.8</ele>
        <time>2021-06-01T08:24:41Z</time>
      </trkpt>
      <trkpt lat="45.50593" lon="6.57826">
        <ele>595.2</ele>
        <time>2021-06-01T08:24:42Z</time>
      </trkpt>
      <trkpt lat="45.50598" lon="6.57816">
        <ele>595.4</ele>
        <time>2021-06-01T08:24:43Z</time>
      </trkpt>
      <trkpt lat="45.50602" lon="6.57806">
        <ele>595.8</ele>
        <time>2021-06-01T08:24:44Z</time>
      </trkpt>
      <trkpt lat="45.50608" lon="6.57796">
        <ele>596</ele>
        <time>2021-06-01T08:24:45Z</time>
      </trkpt>
      <trkpt lat="45.50613" lon="6.57786">
        <ele>596.2</ele>
        <time>2021-06-01T08:24:46Z</time>
      </trkpt>
      <trkpt lat="45.50618" lon="6.57776">
        <ele>596.6</ele>
        <time>2021-06-01T08:24:47Z</time>
      </trkpt>
      <trkpt lat="45.50622" lon="6.57767">
        <ele>596.6</ele>
        <time>2021-06-01T08:24:48Z</time>
      </trkpt>
      <trkpt lat="45.50626" lon="6.57758">
        <ele>596.8</ele>
        <time>2021-06-01T08:24:49Z</time>
      </trkpt>
      <trkpt lat="45.50629" lon="6.57749">
        <ele>597.2</ele>
        <time>2021-06-01T08:24:50Z</time>
      </trkpt>
      <trkpt lat="45.50632" lon="6.57739">
        <ele>597.2</ele>
        <time>2021-06-01T08:24:51Z</time>
      </trkpt>
      <trkpt lat="45.50633" lon="6.5773">
        <ele>597.2</ele>
        <time>2021-06-01T08:24:52Z</time>
      </trkpt>
      <trkpt lat="45.50632" lon="6.57724">
        <ele>597.2</ele>
        <time>2021-06-01T08:24:53Z</time>
      </trkpt>
      <trkpt lat="45.50631" lon="6.57717">
        <ele>597.4</ele>
        <time>2021-06-01T08:24:54Z</time>
      </trkpt>
      <trkpt lat="45.50629" lon="6.57711">
        <ele>597.4</ele>
        <time>2021-06-01T08:24:55Z</time>
      </trkpt>
      <trkpt lat="45.50626" lon="6.57704">
        <ele>597.4</ele>
        <time>2021-06-01T08:24:56Z</time>
      </trkpt>
      <trkpt lat="45.50622" lon="6.57698">
        <ele>597.4</ele>
        <time>2021-06-01T08:24:57Z</time>
      </trkpt>
      <trkpt lat="45.50618" lon="6.57691">
        <ele>597.2</ele>
        <time>2021-06-01T08:24:58Z</time>
      </trkpt>
      <trkpt lat="45.50614" lon="6.57684">
        <ele>597.2</ele>
        <time>2021-06-01T08:24:59Z</time>
      </trkpt>
      <trkpt lat="45.50613" lon="6.57667">
        <ele>597</ele>
        <time>2021-06-01T08:25:00Z</time>
      </trkpt>
      <trkpt lat="45.50608" lon="6.57654">
        <ele>596.8</ele>
        <time>2021-06-01T08:25:01Z</time>
      </trkpt>
      <trkpt lat="45.50604" lon="6.57642">
        <ele>596.8</ele>
        <time>2021-06-01T08:25:02Z</time>
      </trkpt>
      <trkpt lat="45.50598" lon="6.57632">
        <ele>596.6</ele>
        <time>2021-06-01T08:25:03Z</time>
      </trkpt>
      <trkpt lat="45.50591" lon="6.57623">
        <ele>595.8</ele>
        <time>2021-06-01T08:25:04Z</time>
      </trkpt>
      <trkpt lat="45.50584" lon="6.57613">
        <ele>595.2</ele>
        <time>2021-06-01T08:25:05Z</time>
      </trkpt>
      <trkpt lat="45.50576" lon="6.57604">
        <ele>594.6</ele>
        <time>2021-06-01T08:25:06Z</time>
      </trkpt>
      <trkpt lat="45.50568" lon="6.57594">
        <ele>593.6</ele>
        <time>2021-06-01T08:25:07Z</time>
      </trkpt>
      <trkpt lat="45.50559" lon="6.57585">
        <ele>592.8</ele>
        <time>2021-06-01T08:25:08Z</time>
      </trkpt>
      <trkpt lat="45.5055" lon="6.57576">
        <ele>592.2</ele>
        <time>2021-06-01T08:25:09Z</time>
      </trkpt>
      <trkpt lat="45.50541" lon="6.57567">
        <ele>591.6</ele>
        <time>2021-06-01T08:25:10Z</time>
      </trkpt>
      <trkpt lat="45.50532" lon="6.57559">
        <ele>590.6</ele>
        <time>2021-06-01T08:25:11Z</time>
      </trkpt>
      <trkpt lat="45.50522" lon="6.5755">
        <ele>589.6</ele>
        <time>2021-06-01T08:25:12Z</time>
      </trkpt>
      <trkpt lat="45.50509" lon="6.57544">
        <ele>588.8</ele>
        <time>2021-06-01T08:25:13Z</time>
      </trkpt>
      <trkpt lat="45.50496" lon="6.57537">
        <ele>588</ele>
        <time>2021-06-01T08:25:14Z</time>
      </trkpt>
      <trkpt lat="45.50484" lon="6.5753">
        <ele>586.6</ele>
        <time>2021-06-01T08:25:15Z</time>
      </trkpt>
      <trkpt lat="45.50469" lon="6.57524">
        <ele>585.4</ele>
        <time>2021-06-01T08:25:16Z</time>
      </trkpt>
      <trkpt lat="45.50455" lon="6.57519">
        <ele>584.6</ele>
        <time>2021-06-01T08:25:17Z</time>
      </trkpt>
      <trkpt lat="45.50442" lon="6.57514">
        <ele>583.4</ele>
        <time>2021-06-01T08:25:18Z</time>
      </trkpt>
      <trkpt lat="45.50428" lon="6.5751">
        <ele>582.6</ele>
        <time>2021-06-01T08:25:19Z</time>
      </trkpt>
      <trkpt lat="45.50415" lon="6.57507">
        <ele>581.6</ele>
        <time>2021-06-01T08:25:20Z</time>
      </trkpt>
      <trkpt lat="45.50399" lon="6.57505">
        <ele>580.4</ele>
        <time>2021-06-01T08:25:21Z</time>
      </trkpt>
      <trkpt lat="45.50386" lon="6.57503">
        <ele>580</ele>
        <time>2021-06-01T08:25:22Z</time>
      </trkpt>
      <trkpt lat="45.50372" lon="6.57501">
        <ele>579.2</ele>
        <time>2021-06-01T08:25:23Z</time>
      </trkpt>
      <trkpt lat="45.50358" lon="6.57501">
        <ele>578.4</ele>
        <time>2021-06-01T08:25:24Z</time>
      </trkpt>
      <trkpt lat="45.50344" lon="6.57501">
        <ele>577.4</ele>
        <time>2021-06-01T08:25:25Z</time>
      </trkpt>
      <trkpt lat="45.5033" lon="6.57502">
        <ele>576.2</ele>
        <time>2021-06-01T08:25:26Z</time>
      </trkpt>
      <trkpt lat="45.50316" lon="6.57505">
        <ele>575.2</ele>
        <time>2021-06-01T08:25:27Z</time>
      </trkpt>
      <trkpt lat="45.50301" lon="6.57505">
        <ele>574.2</ele>
        <time>2021-06-01T08:25:28Z</time>
      </trkpt>
      <trkpt lat="45.50286" lon="6.57507">
        <ele>573.6</ele>
        <time>2021-06-01T08:25:29Z</time>
      </trkpt>
      <trkpt lat="45.50271" lon="6.57508">
        <ele>572.4</ele>
        <time>2021-06-01T08:25:30Z</time>
      </trkpt>
      <trkpt lat="45.50257" lon="6.57509">
        <ele>571.4</ele>
        <time>2021-06-01T08:25:31Z</time>
      </trkpt>
      <trkpt lat="45.50241" lon="6.57511">
        <ele>570.8</ele>
        <time>2021-06-01T08:25:32Z</time>
      </trkpt>
      <trkpt lat="45.50227" lon="6.5751">
        <ele>569.8</ele>
        <time>2021-06-01T08:25:33Z</time>
      </trkpt>
      <trkpt lat="45.50212" lon="6.57509">
        <ele>569.2</ele>
        <time>2021-06-01T08:25:34Z</time>
      </trkpt>
      <trkpt lat="45.50197" lon="6.57507">
        <ele>568.4</ele>
        <time>2021-06-01T08:25:35Z</time>
      </trkpt>
      <trkpt lat="45.50182" lon="6.57504">
        <ele>567.4</ele>
        <time>2021-06-01T08:25:36Z</time>
      </trkpt>
      <trkpt lat="45.50167" lon="6.57499">
        <ele>566.4</ele>
        <time>2021-06-01T08:25:37Z</time>
      </trkpt>
      <trkpt lat="45.50151" lon="6.57494">
        <ele>565</ele>
        <time>2021-06-01T08:25:38Z</time>
      </trkpt>
      <trkpt lat="45.50136" lon="6.57487">
        <ele>564</ele>
        <time>2021-06-01T08:25:39Z</time>
      </trkpt>
      <trkpt lat="45.50123" lon="6.57478">
        <ele>562.8</ele>
        <time>2021-06-01T08:25:40Z</time>
      </trkpt>
      <trkpt lat="45.5011" lon="6.57468">
        <ele>562</ele>
        <time>2021-06-01T08:25:41Z</time>
      </trkpt>
      <trkpt lat="45.50098" lon="6.57457">
        <ele>561.2</ele>
        <time>2021-06-01T08:25:42Z</time>
      </trkpt>
      <trkpt lat="45.50085" lon="6.57446">
        <ele>560</ele>
        <time>2021-06-01T08:25:43Z</time>
      </trkpt>
      <trkpt lat="45.50072" lon="6.57435">
        <ele>559</ele>
        <time>2021-06-01T08:25:44Z</time>
      </trkpt>
      <trkpt lat="45.5006" lon="6.57423">
        <ele>558.2</ele>
        <time>2021-06-01T08:25:45Z</time>
      </trkpt>
      <trkpt lat="45.50046" lon="6.57413">
        <ele>557.6</ele>
        <time>2021-06-01T08:25:46Z</time>
      </trkpt>
      <trkpt lat="45.50034" lon="6.57402">
        <ele>556.8</ele>
        <time>2021-06-01T08:25:47Z</time>
      </trkpt>
      <trkpt lat="45.50022" lon="6.57391">
        <ele>556.4</ele>
        <time>2021-06-01T08:25:48Z</time>
      </trkpt>
      <trkpt lat="45.50011" lon="6.57381">
        <ele>556</ele>
        <time>2021-06-01T08:25:49Z</time>
      </trkpt>
      <trkpt lat="45.49998" lon="6.57372">
        <ele>555.8</ele>
        <time>2021-06-01T08:25:50Z</time>
      </trkpt>
      <trkpt lat="45.49986" lon="6.57364">
        <ele>555.4</ele>
        <time>2021-06-01T08:25:51Z</time>
      </trkpt>
      <trkpt lat="45.49974" lon="6.57357">
        <ele>555.2</ele>
        <time>2021-06-01T08:25:52Z</time>
      </trkpt>
      <trkpt lat="45.49962" lon="6.5735">
        <ele>555</ele>
        <time>2021-06-01T08:25:53Z</time>
      </trkpt>
      <trkpt lat="45.4995" lon="6.57345">
        <ele>554.8</ele>
        <time>2021-06-01T08:25:54Z</time>
      </trkpt>
      <trkpt lat="45.49937" lon="6.57341">
        <ele>554.8</ele>
        <time>2021-06-01T08:25:55Z</time>
      </trkpt>
      <trkpt lat="45.49925" lon="6.57337">
        <ele>554.4</ele>
        <time>2021-06-01T08:25:56Z</time>
      </trkpt>
      <trkpt lat="45.49913" lon="6.57335">
        <ele>554</ele>
        <time>2021-06-01T08:25:57Z</time>
      </trkpt>
      <trkpt lat="45.49901" lon="6.57332">
        <ele>553.8</ele>
        <time>2021-06-01T08:25:58Z</time>
      </trkpt>
      <trkpt lat="45.49889" lon="6.57329">
        <ele>553.6</ele>
        <time>2021-06-01T08:25:59Z</time>
      </trkpt>
      <trkpt lat="45.49877" lon="6.57327">
        <ele>553.4</ele>
        <time>2021-06-01T08:26:00Z</time>
      </trkpt>
      <trkpt lat="45.49865" lon="6.57326">
        <ele>553.2</ele>
        <time>2021-06-01T08:26:01Z</time>
      </trkpt>
      <trkpt lat="45.49853" lon="6.57324">
        <ele>553.2</ele>
        <time>2021-06-01T08:26:02Z</time>
      </trkpt>
      <trkpt lat="45.49842" lon="6.57322">
        <ele>553</ele>
        <time>2021-06-01T08:26:03Z</time>
      </trkpt>
      <trkpt lat="45.4983" lon="6.5732">
        <ele>552.6</ele>
        <time>2021-06-01T08:26:04Z</time>
      </trkpt>
      <trkpt lat="45.49819" lon="6.57318">
        <ele>552.4</ele>
        <time>2021-06-01T08:26:05Z</time>
      </trkpt>
      <trkpt lat="45.49807" lon="6.57317">
        <ele>552</ele>
        <time>2021-06-01T08:26:06Z</time>
      </trkpt>
      <trkpt lat="45.49795" lon="6.57316">
        <ele>551.6</ele>
        <time>2021-06-01T08:26:07Z</time>
      </trkpt>
      <trkpt lat="45.49783" lon="6.57315">
        <ele>551.2</ele>
        <time>2021-06-01T08:26:08Z</time>
      </trkpt>
      <trkpt lat="45.49772" lon="6.57313">
        <ele>551.2</ele>
        <time>2021-06-01T08:26:09Z</time>
      </trkpt>
      <trkpt lat="45.4976" lon="6.57312">
        <ele>551</ele>
        <time>2021-06-01T08:26:10Z</time>
      </trkpt>
      <trkpt lat="45.49749" lon="6.57311">
        <ele>550.6</ele>
        <time>2021-06-01T08:26:11Z</time>
      </trkpt>
      <trkpt lat="45.49737" lon="6.5731">
        <ele>550.6</ele>
        <time>2021-06-01T08:26:12Z</time>
      </trkpt>
      <trkpt lat="45.49725" lon="6.57309">
        <ele>550.2</ele>
        <time>2021-06-01T08:26:13Z</time>
      </trkpt>
      <trkpt lat="45.49713" lon="6.57308">
        <ele>549.6</ele>
        <time>2021-06-01T08:26:14Z</time>
      </trkpt>
      <trkpt lat="45.49701" lon="6.57307">
        <ele>549.6</ele>
        <time>2021-06-01T08:26:15Z</time>
      </trkpt>
      <trkpt lat="45.49688" lon="6.57307">
        <ele>549</ele>
        <time>2021-06-01T08:26:16Z</time>
      </trkpt>
      <trkpt lat="45.49676" lon="6.57306">
        <ele>548.6</ele>
        <time>2021-06-01T08:26:17Z</time>
      </trkpt>
      <trkpt lat="45.49664" lon="6.57306">
        <ele>548.2</ele>
        <time>2021-06-01T08:26:18Z</time>
      </trkpt>
      <trkpt lat="45.4965" lon="6.57304">
        <ele>547.6</ele>
        <time>2021-06-01T08:26:19Z</time>
      </trkpt>
      <trkpt lat="45.49637" lon="6.57303">
        <ele>547.4</ele>
        <time>2021-06-01T08:26:20Z</time>
      </trkpt>
      <trkpt lat="45.49623" lon="6.57299">
        <ele>546.8</ele>
        <time>2021-06-01T08:26:21Z</time>
      </trkpt>
      <trkpt lat="45.4961" lon="6.57295">
        <ele>546</ele>
        <time>2021-06-01T08:26:22Z</time>
      </trkpt>
      <trkpt lat="45.49597" lon="6.57289">
        <ele>545</ele>
        <time>2021-06-01T08:26:23Z</time>
      </trkpt>
      <trkpt lat="45.49583" lon="6.57283">
        <ele>544</ele>
        <time>2021-06-01T08:26:24Z</time>
      </trkpt>
      <trkpt lat="45.49569" lon="6.57275">
        <ele>543.2</ele>
        <time>2021-06-01T08:26:25Z</time>
      </trkpt>
      <trkpt lat="45.49556" lon="6.57266">
        <ele>542.4</ele>
        <time>2021-06-01T08:26:26Z</time>
      </trkpt>
      <trkpt lat="45.49543" lon="6.57255">
        <ele>541.8</ele>
        <time>2021-06-01T08:26:27Z</time>
      </trkpt>
      <trkpt lat="45.49531" lon="6.57244">
        <ele>540.8</ele>
        <time>2021-06-01T08:26:28Z</time>
      </trkpt>
      <trkpt lat="45.49518" lon="6.57232">
        <ele>540</ele>
        <time>2021-06-01T08:26:29Z</time>
      </trkpt>
      <trkpt lat="45.49506" lon="6.5722">
        <ele>539.4</ele>
        <time>2021-06-01T08:26:30Z</time>
      </trkpt>
      <trkpt lat="45.49493" lon="6.57209">
        <ele>538.6</ele>
        <time>2021-06-01T08:26:31Z</time>
      </trkpt>
      <trkpt lat="45.49481" lon="6.57197">
        <ele>538.2</ele>
        <time>2021-06-01T08:26:32Z</time>
      </trkpt>
      <trkpt lat="45.49468" lon="6.57185">
        <ele>537.4</ele>
        <time>2021-06-01T08:26:33Z</time>
      </trkpt>
      <trkpt lat="45.49456" lon="6.57173">
        <ele>536.8</ele>
        <time>2021-06-01T08:26:34Z</time>
      </trkpt>
      <trkpt lat="45.49443" lon="6.57161">
        <ele>535.6</ele>
        <time>2021-06-01T08:26:35Z</time>
      </trkpt>
      <trkpt lat="45.49431" lon="6.57148">
        <ele>534</ele>
        <time>2021-06-01T08:26:36Z</time>
      </trkpt>
      <trkpt lat="45.49419" lon="6.57135">
        <ele>533.2</ele>
        <time>2021-06-01T08:26:37Z</time>
      </trkpt>
      <trkpt lat="45.49407" lon="6.57122">
        <ele>532.2</ele>
        <time>2021-06-01T08:26:38Z</time>
      </trkpt>
      <trkpt lat="45.49394" lon="6.57109">
        <ele>531.2</ele>
        <time>2021-06-01T08:26:39Z</time>
      </trkpt>
      <trkpt lat="45.49382" lon="6.57095">
        <ele>530.4</ele>
        <time>2021-06-01T08:26:40Z</time>
      </trkpt>
      <trkpt lat="45.49369" lon="6.57082">
        <ele>529.2</ele>
        <time>2021-06-01T08:26:41Z</time>
      </trkpt>
      <trkpt lat="45.49357" lon="6.57069">
        <ele>528.4</ele>
        <time>2021-06-01T08:26:42Z</time>
      </trkpt>
      <trkpt lat="45.49344" lon="6.57055">
        <ele>527.2</ele>
        <time>2021-06-01T08:26:43Z</time>
      </trkpt>
      <trkpt lat="45.49331" lon="6.57042">
        <ele>525.8</ele>
        <time>2021-06-01T08:26:44Z</time>
      </trkpt>
      <trkpt lat="45.49318" lon="6.57028">
        <ele>524.4</ele>
        <time>2021-06-01T08:26:45Z</time>
      </trkpt>
      <trkpt lat="45.49306" lon="6.57014">
        <ele>523.2</ele>
        <time>2021-06-01T08:26:46Z</time>
      </trkpt>
      <trkpt lat="45.49294" lon="6.57">
        <ele>522</ele>
        <time>2021-06-01T08:26:47Z</time>
      </trkpt>
      <trkpt lat="45.49281" lon="6.56986">
        <ele>520.8</ele>
        <time>2021-06-01T08:26:48Z</time>
      </trkpt>
      <trkpt lat="45.49269" lon="6.56972">
        <ele>519.8</ele>
        <time>2021-06-01T08:26:49Z</time>
      </trkpt>
      <trkpt lat="45.49257" lon="6.56958">
        <ele>518.8</ele>
        <time>2021-06-01T08:26:50Z</time>
      </trkpt>
      <trkpt lat="45.49245" lon="6.56944">
        <ele>517.8</ele>
        <time>2021-06-01T08:26:51Z</time>
      </trkpt>
      <trkpt lat="45.49233" lon="6.56929">
        <ele>516.6</ele>
        <time>2021-06-01T08:26:52Z</time>
      </trkpt>
      <trkpt lat="45.49221" lon="6.56914">
        <ele>515.6</ele>
        <time>2021-06-01T08:26:53Z</time>
      </trkpt>
      <trkpt lat="45.49209" lon="6.56898">
        <ele>514.2</ele>
        <time>2021-06-01T08:26:54Z</time>
      </trkpt>
      <trkpt lat="45.49197" lon="6.56883">
        <ele>513.2</ele>
        <time>2021-06-01T08:26:55Z</time>
      </trkpt>
      <trkpt lat="45.49186" lon="6.56867">
        <ele>512.2</ele>
        <time>2021-06-01T08:26:56Z</time>
      </trkpt>
      <trkpt lat="45.49175" lon="6.5685">
        <ele>511.2</ele>
        <time>2021-06-01T08:26:57Z</time>
      </trkpt>
      <trkpt lat="45.49165" lon="6.56834">
        <ele>510.6</ele>
        <time>2021-06-01T08:26:58Z</time>
      </trkpt>
      <trkpt lat="45.49155" lon="6.56817">
        <ele>509.4</ele>
        <time>2021-06-01T08:26:59Z</time>
      </trkpt>
      <trkpt lat="45.49143" lon="6.56801">
        <ele>508.6</ele>
        <time>2021-06-01T08:27:00Z</time>
      </trkpt>
      <trkpt lat="45.49132" lon="6.56785">
        <ele>507.4</ele>
        <time>2021-06-01T08:27:01Z</time>
      </trkpt>
      <trkpt lat="45.49124" lon="6.56766">
        <ele>506.2</ele>
        <time>2021-06-01T08:27:02Z</time>
      </trkpt>
      <trkpt lat="45.4912" lon="6.56745">
        <ele>505.4</ele>
        <time>2021-06-01T08:27:03Z</time>
      </trkpt>
      <trkpt lat="45.49116" lon="6.56724">
        <ele>504.6</ele>
        <time>2021-06-01T08:27:04Z</time>
      </trkpt>
      <trkpt lat="45.49114" lon="6.56701">
        <ele>504</ele>
        <time>2021-06-01T08:27:05Z</time>
      </trkpt>
      <trkpt lat="45.49112" lon="6.56677">
        <ele>503.2</ele>
        <time>2021-06-01T08:27:06Z</time>
      </trkpt>
      <trkpt lat="45.49112" lon="6.56653">
        <ele>502.2</ele>
        <time>2021-06-01T08:27:07Z</time>
      </trkpt>
      <trkpt lat="45.49112" lon="6.56627">
        <ele>501.2</ele>
        <time>2021-06-01T08:27:08Z</time>
      </trkpt>
      <trkpt lat="45.49114" lon="6.566">
        <ele>500.4</ele>
        <time>2021-06-01T08:27:09Z</time>
      </trkpt>
      <trkpt lat="45.49141" lon="6.56428">
        <ele>497.2</ele>
        <time>2021-06-01T08:27:15Z</time>
      </trkpt>
      <trkpt lat="45.49262" lon="6.56048">
        <ele>493</ele>
        <time>2021-06-01T08:27:27Z</time>
      </trkpt>
      <trkpt lat="45.49275" lon="6.56017">
        <ele>492.8</ele>
        <time>2021-06-01T08:27:28Z</time>
      </trkpt>
      <trkpt lat="45.49288" lon="6.55986">
        <ele>492.8</ele>
        <time>2021-06-01T08:27:29Z</time>
      </trkpt>
      <trkpt lat="45.49301" lon="6.55955">
        <ele>492.8</ele>
        <time>2021-06-01T08:27:30Z</time>
      </trkpt>
      <trkpt lat="45.49315" lon="6.55925">
        <ele>492.6</ele>
        <time>2021-06-01T08:27:31Z</time>
      </trkpt>
      <trkpt lat="45.49327" lon="6.55896">
        <ele>492.2</ele>
        <time>2021-06-01T08:27:32Z</time>
      </trkpt>
      <trkpt lat="45.49339" lon="6.55866">
        <ele>491.8</ele>
        <time>2021-06-01T08:27:33Z</time>
      </trkpt>
      <trkpt lat="45.49351" lon="6.55837">
        <ele>491.2</ele>
        <time>2021-06-01T08:27:34Z</time>
      </trkpt>
      <trkpt lat="45.49362" lon="6.55808">
        <ele>491</ele>
        <time>2021-06-01T08:27:35Z</time>
      </trkpt>
      <trkpt lat="45.49359" lon="6.55793">
        <ele>490.8</ele>
        <time>2021-06-01T08:27:36Z</time>
      </trkpt>
      <trkpt lat="45.49355" lon="6.55779">
        <ele>490.6</ele>
        <time>2021-06-01T08:27:37Z</time>
      </trkpt>
      <trkpt lat="45.49351" lon="6.55764">
        <ele>489.8</ele>
        <time>2021-06-01T08:27:38Z</time>
      </trkpt>
      <trkpt lat="45.49347" lon="6.55749">
        <ele>490.2</ele>
        <time>2021-06-01T08:27:39Z</time>
      </trkpt>
      <trkpt lat="45.49343" lon="6.55734">
        <ele>489.4</ele>
        <time>2021-06-01T08:27:40Z</time>
      </trkpt>
      <trkpt lat="45.49338" lon="6.5572">
        <ele>488.6</ele>
        <time>2021-06-01T08:27:41Z</time>
      </trkpt>
      <trkpt lat="45.49333" lon="6.55706">
        <ele>488</ele>
        <time>2021-06-01T08:27:42Z</time>
      </trkpt>
      <trkpt lat="45.49329" lon="6.55691">
        <ele>487.4</ele>
        <time>2021-06-01T08:27:43Z</time>
      </trkpt>
      <trkpt lat="45.49324" lon="6.55677">
        <ele>486.8</ele>
        <time>2021-06-01T08:27:44Z</time>
      </trkpt>
      <trkpt lat="45.49319" lon="6.55662">
        <ele>486.8</ele>
        <time>2021-06-01T08:27:45Z</time>
      </trkpt>
      <trkpt lat="45.49315" lon="6.55649">
        <ele>486.4</ele>
        <time>2021-06-01T08:27:46Z</time>
      </trkpt>
      <trkpt lat="45.49309" lon="6.55635">
        <ele>486.4</ele>
        <time>2021-06-01T08:27:47Z</time>
      </trkpt>
      <trkpt lat="45.49305" lon="6.55621">
        <ele>486.2</ele>
        <time>2021-06-01T08:27:48Z</time>
      </trkpt>
      <trkpt lat="45.493" lon="6.55608">
        <ele>485.6</ele>
        <time>2021-06-01T08:27:49Z</time>
      </trkpt>
      <trkpt lat="45.49295" lon="6.55594">
        <ele>485.2</ele>
        <time>2021-06-01T08:27:50Z</time>
      </trkpt>
      <trkpt lat="45.4929" lon="6.55581">
        <ele>484.8</ele>
        <time>2021-06-01T08:27:51Z</time>
      </trkpt>
      <trkpt lat="45.49285" lon="6.55568">
        <ele>484.4</ele>
        <time>2021-06-01T08:27:52Z</time>
      </trkpt>
      <trkpt lat="45.49279" lon="6.55556">
        <ele>484.6</ele>
        <time>2021-06-01T08:27:53Z</time>
      </trkpt>
      <trkpt lat="45.49275" lon="6.55543">
        <ele>484.4</ele>
        <time>2021-06-01T08:27:54Z</time>
      </trkpt>
      <trkpt lat="45.49278" lon="6.55519">
        <ele>484.4</ele>
        <time>2021-06-01T08:27:55Z</time>
      </trkpt>
      <trkpt lat="45.4928" lon="6.55497">
        <ele>484.2</ele>
        <time>2021-06-01T08:27:56Z</time>
      </trkpt>
      <trkpt lat="45.49281" lon="6.55476">
        <ele>484.2</ele>
        <time>2021-06-01T08:27:57Z</time>
      </trkpt>
      <trkpt lat="45.49279" lon="6.55461">
        <ele>484.2</ele>
        <time>2021-06-01T08:27:58Z</time>
      </trkpt>
      <trkpt lat="45.49274" lon="6.55449">
        <ele>484.6</ele>
        <time>2021-06-01T08:27:59Z</time>
      </trkpt>
      <trkpt lat="45.49269" lon="6.55437">
        <ele>484.8</ele>
        <time>2021-06-01T08:28:00Z</time>
      </trkpt>
      <trkpt lat="45.49263" lon="6.55427">
        <ele>484.8</ele>
        <time>2021-06-01T08:28:01Z</time>
      </trkpt>
      <trkpt lat="45.49256" lon="6.55419">
        <ele>484.8</ele>
        <time>2021-06-01T08:28:02Z</time>
      </trkpt>
      <trkpt lat="45.49249" lon="6.55411">
        <ele>484.6</ele>
        <time>2021-06-01T08:28:03Z</time>
      </trkpt>
      <trkpt lat="45.49241" lon="6.55403">
        <ele>484.4</ele>
        <time>2021-06-01T08:28:04Z</time>
      </trkpt>
      <trkpt lat="45.49234" lon="6.55396">
        <ele>484.2</ele>
        <time>2021-06-01T08:28:05Z</time>
      </trkpt>
      <trkpt lat="45.49227" lon="6.5539">
        <ele>484.4</ele>
        <time>2021-06-01T08:28:06Z</time>
      </trkpt>
      <trkpt lat="45.4922" lon="6.55384">
        <ele>484.2</ele>
        <time>2021-06-01T08:28:07Z</time>
      </trkpt>
      <trkpt lat="45.49212" lon="6.55378">
        <ele>484.2</ele>
        <time>2021-06-01T08:28:08Z</time>
      </trkpt>
      <trkpt lat="45.49205" lon="6.55373">
        <ele>484.6</ele>
        <time>2021-06-01T08:28:09Z</time>
      </trkpt>
      <trkpt lat="45.49196" lon="6.55364">
        <ele>485</ele>
        <time>2021-06-01T08:28:10Z</time>
      </trkpt>
      <trkpt lat="45.49188" lon="6.55355">
        <ele>485.2</ele>
        <time>2021-06-01T08:28:11Z</time>
      </trkpt>
      <trkpt lat="45.4918" lon="6.55346">
        <ele>485</ele>
        <time>2021-06-01T08:28:12Z</time>
      </trkpt>
      <trkpt lat="45.49172" lon="6.55337">
        <ele>485.2</ele>
        <time>2021-06-01T08:28:13Z</time>
      </trkpt>
      <trkpt lat="45.49165" lon="6.55328">
        <ele>485.4</ele>
        <time>2021-06-01T08:28:14Z</time>
      </trkpt>
      <trkpt lat="45.49158" lon="6.5532">
        <ele>485.4</ele>
        <time>2021-06-01T08:28:15Z</time>
      </trkpt>
      <trkpt lat="45.4915" lon="6.5531">
        <ele>486</ele>
        <time>2021-06-01T08:28:16Z</time>
      </trkpt>
      <trkpt lat="45.49144" lon="6.55301">
        <ele>485.8</ele>
        <time>2021-06-01T08:28:17Z</time>
      </trkpt>
      <trkpt lat="45.49137" lon="6.55292">
        <ele>486</ele>
        <time>2021-06-01T08:28:18Z</time>
      </trkpt>
      <trkpt lat="45.4913" lon="6.55283">
        <ele>486.2</ele>
        <time>2021-06-01T08:28:19Z</time>
      </trkpt>
      <trkpt lat="45.49123" lon="6.55274">
        <ele>486.2</ele>
        <time>2021-06-01T08:28:20Z</time>
      </trkpt>
      <trkpt lat="45.49116" lon="6.55265">
        <ele>486</ele>
        <time>2021-06-01T08:28:21Z</time>
      </trkpt>
      <trkpt lat="45.49109" lon="6.55256">
        <ele>486.8</ele>
        <time>2021-06-01T08:28:22Z</time>
      </trkpt>
      <trkpt lat="45.49103" lon="6.55245">
        <ele>486.8</ele>
        <time>2021-06-01T08:28:23Z</time>
      </trkpt>
      <trkpt lat="45.49097" lon="6.55235">
        <ele>487</ele>
        <time>2021-06-01T08:28:24Z</time>
      </trkpt>
      <trkpt lat="45.49091" lon="6.55225">
        <ele>487</ele>
        <time>2021-06-01T08:28:25Z</time>
      </trkpt>
      <trkpt lat="45.49084" lon="6.55215">
        <ele>487.2</ele>
        <time>2021-06-01T08:28:26Z</time>
      </trkpt>
      <trkpt lat="45.49078" lon="6.55205">
        <ele>487.4</ele>
        <time>2021-06-01T08:28:27Z</time>
      </trkpt>
      <trkpt lat="45.49072" lon="6.55194">
        <ele>487.6</ele>
        <time>2021-06-01T08:28:28Z</time>
      </trkpt>
      <trkpt lat="45.49066" lon="6.55183">
        <ele>488</ele>
        <time>2021-06-01T08:28:29Z</time>
      </trkpt>
      <trkpt lat="45.4906" lon="6.55172">
        <ele>488</ele>
        <time>2021-06-01T08:28:30Z</time>
      </trkpt>
      <trkpt lat="45.49054" lon="6.55161">
        <ele>488.2</ele>
        <time>2021-06-01T08:28:31Z</time>
      </trkpt>
      <trkpt lat="45.49048" lon="6.5515">
        <ele>488.4</ele>
        <time>2021-06-01T08:28:32Z</time>
      </trkpt>
      <trkpt lat="45.49043" lon="6.55139">
        <ele>488.6</ele>
        <time>2021-06-01T08:28:33Z</time>
      </trkpt>
      <trkpt lat="45.49036" lon="6.55127">
        <ele>488.8</ele>
        <time>2021-06-01T08:28:34Z</time>
      </trkpt>
      <trkpt lat="45.4903" lon="6.55116">
        <ele>489</ele>
        <time>2021-06-01T08:28:35Z</time>
      </trkpt>
      <trkpt lat="45.49023" lon="6.55106">
        <ele>489.2</ele>
        <time>2021-06-01T08:28:36Z</time>
      </trkpt>
      <trkpt lat="45.49017" lon="6.55094">
        <ele>489.4</ele>
        <time>2021-06-01T08:28:37Z</time>
      </trkpt>
      <trkpt lat="45.49011" lon="6.55084">
        <ele>489.4</ele>
        <time>2021-06-01T08:28:38Z</time>
      </trkpt>
      <trkpt lat="45.49004" lon="6.55072">
        <ele>489.4</ele>
        <time>2021-06-01T08:28:39Z</time>
      </trkpt>
      <trkpt lat="45.48997" lon="6.55061">
        <ele>489.6</ele>
        <time>2021-06-01T08:28:40Z</time>
      </trkpt>
      <trkpt lat="45.48991" lon="6.5505">
        <ele>489.8</ele>
        <time>2021-06-01T08:28:41Z</time>
      </trkpt>
      <trkpt lat="45.48986" lon="6.55037">
        <ele>490</ele>
        <time>2021-06-01T08:28:42Z</time>
      </trkpt>
      <trkpt lat="45.48976" lon="6.55029">
        <ele>490</ele>
        <time>2021-06-01T08:28:43Z</time>
      </trkpt>
      <trkpt lat="45.4897" lon="6.55018">
        <ele>490</ele>
        <time>2021-06-01T08:28:44Z</time>
      </trkpt>
      <trkpt lat="45.48959" lon="6.55008">
        <ele>490</ele>
        <time>2021-06-01T08:28:45Z</time>
      </trkpt>
      <trkpt lat="45.48953" lon="6.54995">
        <ele>489.8</ele>
        <time>2021-06-01T08:28:46Z</time>
      </trkpt>
      <trkpt lat="45.48946" lon="6.54982">
        <ele>490</ele>
        <time>2021-06-01T08:28:47Z</time>
      </trkpt>
      <trkpt lat="45.48939" lon="6.54969">
        <ele>489.8</ele>
        <time>2021-06-01T08:28:48Z</time>
      </trkpt>
      <trkpt lat="45.48932" lon="6.54956">
        <ele>489.4</ele>
        <time>2021-06-01T08:28:49Z</time>
      </trkpt>
      <trkpt lat="45.48924" lon="6.54942">
        <ele>489.2</ele>
        <time>2021-06-01T08:28:50Z</time>
      </trkpt>
      <trkpt lat="45.48917" lon="6.54929">
        <ele>489.2</ele>
        <time>2021-06-01T08:28:51Z</time>
      </trkpt>
      <trkpt lat="45.4891" lon="6.54915">
        <ele>489</ele>
        <time>2021-06-01T08:28:52Z</time>
      </trkpt>
      <trkpt lat="45.48902" lon="6.54901">
        <ele>488</ele>
        <time>2021-06-01T08:28:53Z</time>
      </trkpt>
      <trkpt lat="45.48894" lon="6.54888">
        <ele>487</ele>
        <time>2021-06-01T08:28:54Z</time>
      </trkpt>
      <trkpt lat="45.48887" lon="6.54874">
        <ele>486.4</ele>
        <time>2021-06-01T08:28:55Z</time>
      </trkpt>
      <trkpt lat="45.4888" lon="6.54825">
        <ele>485.8</ele>
        <time>2021-06-01T08:28:56Z</time>
      </trkpt>
      <trkpt lat="45.48872" lon="6.54797">
        <ele>486</ele>
        <time>2021-06-01T08:28:57Z</time>
      </trkpt>
      <trkpt lat="45.48866" lon="6.54778">
        <ele>486</ele>
        <time>2021-06-01T08:28:58Z</time>
      </trkpt>
      <trkpt lat="45.48857" lon="6.54763">
        <ele>486.4</ele>
        <time>2021-06-01T08:28:59Z</time>
      </trkpt>
      <trkpt lat="45.4885" lon="6.54751">
        <ele>486.2</ele>
        <time>2021-06-01T08:29:00Z</time>
      </trkpt>
      <trkpt lat="45.48842" lon="6.54739">
        <ele>486.2</ele>
        <time>2021-06-01T08:29:01Z</time>
      </trkpt>
      <trkpt lat="45.48833" lon="6.54728">
        <ele>486.2</ele>
        <time>2021-06-01T08:29:02Z</time>
      </trkpt>
      <trkpt lat="45.48826" lon="6.54718">
        <ele>486</ele>
        <time>2021-06-01T08:29:03Z</time>
      </trkpt>
      <trkpt lat="45.48818" lon="6.54708">
        <ele>486</ele>
        <time>2021-06-01T08:29:04Z</time>
      </trkpt>
      <trkpt lat="45.4881" lon="6.54698">
        <ele>485.8</ele>
        <time>2021-06-01T08:29:05Z</time>
      </trkpt>
      <trkpt lat="45.48802" lon="6.54688">
        <ele>485.6</ele>
        <time>2021-06-01T08:29:06Z</time>
      </trkpt>
      <trkpt lat="45.48794" lon="6.54678">
        <ele>485.6</ele>
        <time>2021-06-01T08:29:07Z</time>
      </trkpt>
      <trkpt lat="45.48787" lon="6.54668">
        <ele>485.2</ele>
        <time>2021-06-01T08:29:08Z</time>
      </trkpt>
      <trkpt lat="45.48779" lon="6.54659">
        <ele>485</ele>
        <time>2021-06-01T08:29:09Z</time>
      </trkpt>
      <trkpt lat="45.48771" lon="6.54649">
        <ele>485</ele>
        <time>2021-06-01T08:29:10Z</time>
      </trkpt>
      <trkpt lat="45.48763" lon="6.54639">
        <ele>484.8</ele>
        <time>2021-06-01T08:29:11Z</time>
      </trkpt>
      <trkpt lat="45.48754" lon="6.54629">
        <ele>484.4</ele>
        <time>2021-06-01T08:29:12Z</time>
      </trkpt>
      <trkpt lat="45.48745" lon="6.54616">
        <ele>484.2</ele>
        <time>2021-06-01T08:29:13Z</time>
      </trkpt>
      <trkpt lat="45.48737" lon="6.54607">
        <ele>484</ele>
        <time>2021-06-01T08:29:14Z</time>
      </trkpt>
      <trkpt lat="45.48729" lon="6.54597">
        <ele>483.6</ele>
        <time>2021-06-01T08:29:15Z</time>
      </trkpt>
      <trkpt lat="45.48721" lon="6.54589">
        <ele>483.4</ele>
        <time>2021-06-01T08:29:16Z</time>
      </trkpt>
      <trkpt lat="45.48712" lon="6.54579">
        <ele>483</ele>
        <time>2021-06-01T08:29:17Z</time>
      </trkpt>
      <trkpt lat="45.48704" lon="6.54569">
        <ele>483</ele>
        <time>2021-06-01T08:29:18Z</time>
      </trkpt>
      <trkpt lat="45.48695" lon="6.5456">
        <ele>483</ele>
        <time>2021-06-01T08:29:19Z</time>
      </trkpt>
      <trkpt lat="45.48687" lon="6.54551">
        <ele>482.8</ele>
        <time>2021-06-01T08:29:20Z</time>
      </trkpt>
      <trkpt lat="45.48679" lon="6.54543">
        <ele>482.6</ele>
        <time>2021-06-01T08:29:21Z</time>
      </trkpt>
      <trkpt lat="45.4867" lon="6.54535">
        <ele>482.6</ele>
        <time>2021-06-01T08:29:22Z</time>
      </trkpt>
      <trkpt lat="45.48662" lon="6.54527">
        <ele>482.4</ele>
        <time>2021-06-01T08:29:23Z</time>
      </trkpt>
      <trkpt lat="45.48653" lon="6.5452">
        <ele>482.2</ele>
        <time>2021-06-01T08:29:24Z</time>
      </trkpt>
      <trkpt lat="45.48645" lon="6.54512">
        <ele>482</ele>
        <time>2021-06-01T08:29:25Z</time>
      </trkpt>
      <trkpt lat="45.48637" lon="6.54504">
        <ele>481.8</ele>
        <time>2021-06-01T08:29:26Z</time>
      </trkpt>
      <trkpt lat="45.48628" lon="6.54496">
        <ele>482.4</ele>
        <time>2021-06-01T08:29:27Z</time>
      </trkpt>
      <trkpt lat="45.4862" lon="6.54488">
        <ele>481.8</ele>
        <time>2021-06-01T08:29:28Z</time>
      </trkpt>
      <trkpt lat="45.48612" lon="6.54479">
        <ele>481.4</ele>
        <time>2021-06-01T08:29:29Z</time>
      </trkpt>
      <trkpt lat="45.48604" lon="6.54471">
        <ele>481.6</ele>
        <time>2021-06-01T08:29:30Z</time>
      </trkpt>
      <trkpt lat="45.48596" lon="6.54462">
        <ele>481.4</ele>
        <time>2021-06-01T08:29:31Z</time>
      </trkpt>
      <trkpt lat="45.48588" lon="6.54453">
        <ele>481.4</ele>
        <time>2021-06-01T08:29:32Z</time>
      </trkpt>
      <trkpt lat="45.4858" lon="6.54444">
        <ele>481.2</ele>
        <time>2021-06-01T08:29:33Z</time>
      </trkpt>
      <trkpt lat="45.48572" lon="6.54435">
        <ele>480.8</ele>
        <time>2021-06-01T08:29:34Z</time>
      </trkpt>
      <trkpt lat="45.48564" lon="6.54426">
        <ele>480.4</ele>
        <time>2021-06-01T08:29:35Z</time>
      </trkpt>
      <trkpt lat="45.48556" lon="6.54416">
        <ele>480.4</ele>
        <time>2021-06-01T08:29:36Z</time>
      </trkpt>
      <trkpt lat="45.48548" lon="6.54407">
        <ele>480</ele>
        <time>2021-06-01T08:29:37Z</time>
      </trkpt>
      <trkpt lat="45.4854" lon="6.54397">
        <ele>479.6</ele>
        <time>2021-06-01T08:29:38Z</time>
      </trkpt>
      <trkpt lat="45.48532" lon="6.54386">
        <ele>479.2</ele>
        <time>2021-06-01T08:29:39Z</time>
      </trkpt>
      <trkpt lat="45.48524" lon="6.54376">
        <ele>479</ele>
        <time>2021-06-01T08:29:40Z</time>
      </trkpt>
      <trkpt lat="45.48517" lon="6.54364">
        <ele>478.6</ele>
        <time>2021-06-01T08:29:41Z</time>
      </trkpt>
      <trkpt lat="45.4851" lon="6.54353">
        <ele>478.4</ele>
        <time>2021-06-01T08:29:42Z</time>
      </trkpt>
      <trkpt lat="45.48503" lon="6.54341">
        <ele>478.4</ele>
        <time>2021-06-01T08:29:43Z</time>
      </trkpt>
      <trkpt lat="45.48497" lon="6.54328">
        <ele>478.4</ele>
        <time>2021-06-01T08:29:44Z</time>
      </trkpt>
      <trkpt lat="45.48492" lon="6.54315">
        <ele>478.4</ele>
        <time>2021-06-01T08:29:45Z</time>
      </trkpt>
      <trkpt lat="45.48486" lon="6.54302">
        <ele>477.6</ele>
        <time>2021-06-01T08:29:46Z</time>
      </trkpt>
      <trkpt lat="45.48482" lon="6.54287">
        <ele>477.6</ele>
        <time>2021-06-01T08:29:47Z</time>
      </trkpt>
      <trkpt lat="45.48478" lon="6.54273">
        <ele>477.4</ele>
        <time>2021-06-01T08:29:48Z</time>
      </trkpt>
      <trkpt lat="45.48475" lon="6.54258">
        <ele>477.6</ele>
        <time>2021-06-01T08:29:49Z</time>
      </trkpt>
      <trkpt lat="45.48471" lon="6.54244">
        <ele>477.2</ele>
        <time>2021-06-01T08:29:50Z</time>
      </trkpt>
      <trkpt lat="45.48469" lon="6.54228">
        <ele>477.4</ele>
        <time>2021-06-01T08:29:51Z</time>
      </trkpt>
      <trkpt lat="45.48467" lon="6.54213">
        <ele>477.2</ele>
        <time>2021-06-01T08:29:52Z</time>
      </trkpt>
      <trkpt lat="45.48465" lon="6.54198">
        <ele>477.2</ele>
        <time>2021-06-01T08:29:53Z</time>
      </trkpt>
      <trkpt lat="45.48464" lon="6.54182">
        <ele>476.8</ele>
        <time>2021-06-01T08:29:54Z</time>
      </trkpt>
      <trkpt lat="45.48463" lon="6.54166">
        <ele>476.4</ele>
        <time>2021-06-01T08:29:55Z</time>
      </trkpt>
      <trkpt lat="45.48463" lon="6.5415">
        <ele>476</ele>
        <time>2021-06-01T08:29:56Z</time>
      </trkpt>
      <trkpt lat="45.48464" lon="6.54134">
        <ele>475.6</ele>
        <time>2021-06-01T08:29:57Z</time>
      </trkpt>
      <trkpt lat="45.48465" lon="6.54118">
        <ele>475.4</ele>
        <time>2021-06-01T08:29:58Z</time>
      </trkpt>
      <trkpt lat="45.48466" lon="6.54102">
        <ele>475</ele>
        <time>2021-06-01T08:29:59Z</time>
      </trkpt>
      <trkpt lat="45.48468" lon="6.54086">
        <ele>475</ele>
        <time>2021-06-01T08:30:00Z</time>
      </trkpt>
      <trkpt lat="45.48469" lon="6.54071">
        <ele>474.6</ele>
        <time>2021-06-01T08:30:01Z</time>
      </trkpt>
      <trkpt lat="45.48471" lon="6.54055">
        <ele>474.2</ele>
        <time>2021-06-01T08:30:02Z</time>
      </trkpt>
      <trkpt lat="45.48471" lon="6.54039">
        <ele>474</ele>
        <time>2021-06-01T08:30:03Z</time>
      </trkpt>
      <trkpt lat="45.48472" lon="6.54023">
        <ele>473.8</ele>
        <time>2021-06-01T08:30:04Z</time>
      </trkpt>
      <trkpt lat="45.48472" lon="6.54008">
        <ele>473.4</ele>
        <time>2021-06-01T08:30:05Z</time>
      </trkpt>
      <trkpt lat="45.48471" lon="6.53992">
        <ele>473.2</ele>
        <time>2021-06-01T08:30:06Z</time>
      </trkpt>
      <trkpt lat="45.4847" lon="6.53976">
        <ele>473.4</ele>
        <time>2021-06-01T08:30:07Z</time>
      </trkpt>
      <trkpt lat="45.48468" lon="6.53962">
        <ele>473.4</ele>
        <time>2021-06-01T08:30:08Z</time>
      </trkpt>
      <trkpt lat="45.48465" lon="6.53947">
        <ele>473.2</ele>
        <time>2021-06-01T08:30:09Z</time>
      </trkpt>
      <trkpt lat="45.48462" lon="6.53932">
        <ele>473.2</ele>
        <time>2021-06-01T08:30:10Z</time>
      </trkpt>
      <trkpt lat="45.48459" lon="6.53918">
        <ele>473</ele>
        <time>2021-06-01T08:30:11Z</time>
      </trkpt>
      <trkpt lat="45.48456" lon="6.53903">
        <ele>473</ele>
        <time>2021-06-01T08:30:12Z</time>
      </trkpt>
      <trkpt lat="45.48453" lon="6.53889">
        <ele>472.8</ele>
        <time>2021-06-01T08:30:13Z</time>
      </trkpt>
      <trkpt lat="45.48449" lon="6.53876">
        <ele>472.8</ele>
        <time>2021-06-01T08:30:14Z</time>
      </trkpt>
      <trkpt lat="45.48443" lon="6.53864">
        <ele>472.8</ele>
        <time>2021-06-01T08:30:15Z</time>
      </trkpt>
      <trkpt lat="45.48437" lon="6.53853">
        <ele>472.8</ele>
        <time>2021-06-01T08:30:16Z</time>
      </trkpt>
      <trkpt lat="45.4843" lon="6.53843">
        <ele>472.8</ele>
        <time>2021-06-01T08:30:17Z</time>
      </trkpt>
      <trkpt lat="45.48423" lon="6.53833">
        <ele>472.8</ele>
        <time>2021-06-01T08:30:18Z</time>
      </trkpt>
      <trkpt lat="45.48415" lon="6.53825">
        <ele>472.8</ele>
        <time>2021-06-01T08:30:19Z</time>
      </trkpt>
      <trkpt lat="45.48407" lon="6.53816">
        <ele>472.6</ele>
        <time>2021-06-01T08:30:20Z</time>
      </trkpt>
      <trkpt lat="45.48399" lon="6.53806">
        <ele>472.6</ele>
        <time>2021-06-01T08:30:21Z</time>
      </trkpt>
      <trkpt lat="45.48391" lon="6.53797">
        <ele>472.6</ele>
        <time>2021-06-01T08:30:22Z</time>
      </trkpt>
      <trkpt lat="45.48383" lon="6.53789">
        <ele>472.6</ele>
        <time>2021-06-01T08:30:23Z</time>
      </trkpt>
      <trkpt lat="45.48375" lon="6.5378">
        <ele>472.4</ele>
        <time>2021-06-01T08:30:24Z</time>
      </trkpt>
      <trkpt lat="45.48367" lon="6.53771">
        <ele>472.4</ele>
        <time>2021-06-01T08:30:25Z</time>
      </trkpt>
      <trkpt lat="45.48359" lon="6.53762">
        <ele>472.2</ele>
        <time>2021-06-01T08:30:26Z</time>
      </trkpt>
      <trkpt lat="45.48352" lon="6.53752">
        <ele>472</ele>
        <time>2021-06-01T08:30:27Z</time>
      </trkpt>
      <trkpt lat="45.48346" lon="6.53742">
        <ele>471.8</ele>
        <time>2021-06-01T08:30:28Z</time>
      </trkpt>
      <trkpt lat="45.48338" lon="6.53731">
        <ele>472</ele>
        <time>2021-06-01T08:30:29Z</time>
      </trkpt>
      <trkpt lat="45.48332" lon="6.5372">
        <ele>471.8</ele>
        <time>2021-06-01T08:30:30Z</time>
      </trkpt>
      <trkpt lat="45.48326" lon="6.53709">
        <ele>471.6</ele>
        <time>2021-06-01T08:30:31Z</time>
      </trkpt>
      <trkpt lat="45.4832" lon="6.53697">
        <ele>471.6</ele>
        <time>2021-06-01T08:30:32Z</time>
      </trkpt>
      <trkpt lat="45.48316" lon="6.53684">
        <ele>471.6</ele>
        <time>2021-06-01T08:30:33Z</time>
      </trkpt>
      <trkpt lat="45.48312" lon="6.53672">
        <ele>471.2</ele>
        <time>2021-06-01T08:30:34Z</time>
      </trkpt>
      <trkpt lat="45.48309" lon="6.53658">
        <ele>471.2</ele>
        <time>2021-06-01T08:30:35Z</time>
      </trkpt>
      <trkpt lat="45.48308" lon="6.53645">
        <ele>471.2</ele>
        <time>2021-06-01T08:30:36Z</time>
      </trkpt>
      <trkpt lat="45.48308" lon="6.53632">
        <ele>471</ele>
        <time>2021-06-01T08:30:37Z</time>
      </trkpt>
      <trkpt lat="45.48308" lon="6.53619">
        <ele>470.6</ele>
        <time>2021-06-01T08:30:38Z</time>
      </trkpt>
      <trkpt lat="45.48311" lon="6.53606">
        <ele>470.4</ele>
        <time>2021-06-01T08:30:39Z</time>
      </trkpt>
      <trkpt lat="45.48315" lon="6.53594">
        <ele>470.4</ele>
        <time>2021-06-01T08:30:40Z</time>
      </trkpt>
      <trkpt lat="45.4832" lon="6.53584">
        <ele>470.4</ele>
        <time>2021-06-01T08:30:41Z</time>
      </trkpt>
      <trkpt lat="45.48326" lon="6.53574">
        <ele>470.2</ele>
        <time>2021-06-01T08:30:42Z</time>
      </trkpt>
      <trkpt lat="45.48334" lon="6.53566">
        <ele>470.2</ele>
        <time>2021-06-01T08:30:43Z</time>
      </trkpt>
      <trkpt lat="45.48342" lon="6.53558">
        <ele>470</ele>
        <time>2021-06-01T08:30:44Z</time>
      </trkpt>
      <trkpt lat="45.48351" lon="6.53553">
        <ele>469.8</ele>
        <time>2021-06-01T08:30:45Z</time>
      </trkpt>
      <trkpt lat="45.48361" lon="6.53547">
        <ele>469.8</ele>
        <time>2021-06-01T08:30:46Z</time>
      </trkpt>
      <trkpt lat="45.4837" lon="6.53541">
        <ele>469.6</ele>
        <time>2021-06-01T08:30:47Z</time>
      </trkpt>
      <trkpt lat="45.48379" lon="6.53534">
        <ele>469.4</ele>
        <time>2021-06-01T08:30:48Z</time>
      </trkpt>
      <trkpt lat="45.48386" lon="6.53525">
        <ele>469.4</ele>
        <time>2021-06-01T08:30:49Z</time>
      </trkpt>
      <trkpt lat="45.48393" lon="6.53514">
        <ele>468.8</ele>
        <time>2021-06-01T08:30:50Z</time>
      </trkpt>
      <trkpt lat="45.48398" lon="6.53502">
        <ele>468.8</ele>
        <time>2021-06-01T08:30:51Z</time>
      </trkpt>
      <trkpt lat="45.48403" lon="6.53489">
        <ele>467.6</ele>
        <time>2021-06-01T08:30:52Z</time>
      </trkpt>
      <trkpt lat="45.48407" lon="6.53477">
        <ele>467.8</ele>
        <time>2021-06-01T08:30:53Z</time>
      </trkpt>
      <trkpt lat="45.4841" lon="6.53467">
        <ele>467.8</ele>
        <time>2021-06-01T08:30:54Z</time>
      </trkpt>
      <trkpt lat="45.48413" lon="6.53457">
        <ele>467.6</ele>
        <time>2021-06-01T08:30:55Z</time>
      </trkpt>
      <trkpt lat="45.48417" lon="6.53449">
        <ele>467.8</ele>
        <time>2021-06-01T08:30:56Z</time>
      </trkpt>
      <trkpt lat="45.4842" lon="6.5344">
        <ele>467.8</ele>
        <time>2021-06-01T08:30:57Z</time>
      </trkpt>
      <trkpt lat="45.48423" lon="6.53432">
        <ele>467.8</ele>
        <time>2021-06-01T08:30:58Z</time>
      </trkpt>
      <trkpt lat="45.48426" lon="6.53424">
        <ele>467.8</ele>
        <time>2021-06-01T08:30:59Z</time>
      </trkpt>
      <trkpt lat="45.48428" lon="6.53416">
        <ele>468</ele>
        <time>2021-06-01T08:31:00Z</time>
      </trkpt>
      <trkpt lat="45.48431" lon="6.53409">
        <ele>468</ele>
        <time>2021-06-01T08:31:01Z</time>
      </trkpt>
      <trkpt lat="45.48435" lon="6.53403">
        <ele>468</ele>
        <time>2021-06-01T08:31:02Z</time>
      </trkpt>
      <trkpt lat="45.48437" lon="6.53396">
        <ele>468</ele>
        <time>2021-06-01T08:31:03Z</time>
      </trkpt>
      <trkpt lat="45.48441" lon="6.53389">
        <ele>468</ele>
        <time>2021-06-01T08:31:04Z</time>
      </trkpt>
      <trkpt lat="45.48444" lon="6.53383">
        <ele>468</ele>
        <time>2021-06-01T08:31:05Z</time>
      </trkpt>
      <trkpt lat="45.48447" lon="6.53376">
        <ele>468</ele>
        <time>2021-06-01T08:31:06Z</time>
      </trkpt>
      <trkpt lat="45.48451" lon="6.53369">
        <ele>468</ele>
        <time>2021-06-01T08:31:07Z</time>
      </trkpt>
      <trkpt lat="45.48455" lon="6.53363">
        <ele>468</ele>
        <time>2021-06-01T08:31:08Z</time>
      </trkpt>
      <trkpt lat="45.48459" lon="6.53356">
        <ele>468</ele>
        <time>2021-06-01T08:31:09Z</time>
      </trkpt>
      <trkpt lat="45.48461" lon="6.53349">
        <ele>468</ele>
        <time>2021-06-01T08:31:10Z</time>
      </trkpt>
      <trkpt lat="45.48465" lon="6.53344">
        <ele>467.8</ele>
        <time>2021-06-01T08:31:11Z</time>
      </trkpt>
      <trkpt lat="45.48469" lon="6.53338">
        <ele>467.6</ele>
        <time>2021-06-01T08:31:12Z</time>
      </trkpt>
      <trkpt lat="45.48472" lon="6.53333">
        <ele>467.6</ele>
        <time>2021-06-01T08:31:13Z</time>
      </trkpt>
      <trkpt lat="45.48475" lon="6.53328">
        <ele>467.4</ele>
        <time>2021-06-01T08:31:14Z</time>
      </trkpt>
      <trkpt lat="45.48478" lon="6.53322">
        <ele>467.4</ele>
        <time>2021-06-01T08:31:15Z</time>
      </trkpt>
      <trkpt lat="45.48481" lon="6.53318">
        <ele>467.2</ele>
        <time>2021-06-01T08:31:16Z</time>
      </trkpt>
      <trkpt lat="45.48485" lon="6.53315">
        <ele>467.2</ele>
        <time>2021-06-01T08:31:17Z</time>
      </trkpt>
      <trkpt lat="45.48488" lon="6.53311">
        <ele>467.2</ele>
        <time>2021-06-01T08:31:18Z</time>
      </trkpt>
      <trkpt lat="45.4849" lon="6.53307">
        <ele>466.8</ele>
        <time>2021-06-01T08:31:19Z</time>
      </trkpt>
      <trkpt lat="45.48492" lon="6.53303">
        <ele>466.8</ele>
        <time>2021-06-01T08:31:20Z</time>
      </trkpt>
      <trkpt lat="45.48494" lon="6.533">
        <ele>466.6</ele>
        <time>2021-06-01T08:31:21Z</time>
      </trkpt>
      <trkpt lat="45.48496" lon="6.53298">
        <ele>466.4</ele>
        <time>2021-06-01T08:31:22Z</time>
      </trkpt>
      <trkpt lat="45.48496" lon="6.53296">
        <ele>465.4</ele>
        <time>2021-06-01T08:31:25Z</time>
      </trkpt>
      <trkpt lat="45.48495" lon="6.53294">
        <ele>464.8</ele>
        <time>2021-06-01T08:31:27Z</time>
      </trkpt>
      <trkpt lat="45.48494" lon="6.53292">
        <ele>464.2</ele>
        <time>2021-06-01T08:31:28Z</time>
      </trkpt>
      <trkpt lat="45.48493" lon="6.53289">
        <ele>464</ele>
        <time>2021-06-01T08:31:29Z</time>
      </trkpt>
      <trkpt lat="45.48494" lon="6.53285">
        <ele>463.8</ele>
        <time>2021-06-01T08:31:30Z</time>
      </trkpt>
      <trkpt lat="45.48495" lon="6.5328">
        <ele>463.6</ele>
        <time>2021-06-01T08:31:31Z</time>
      </trkpt>
      <trkpt lat="45.48496" lon="6.53275">
        <ele>463.4</ele>
        <time>2021-06-01T08:31:32Z</time>
      </trkpt>
      <trkpt lat="45.48497" lon="6.53268">
        <ele>463.6</ele>
        <time>2021-06-01T08:31:33Z</time>
      </trkpt>
      <trkpt lat="45.48498" lon="6.53262">
        <ele>463.6</ele>
        <time>2021-06-01T08:31:34Z</time>
      </trkpt>
      <trkpt lat="45.48498" lon="6.53255">
        <ele>464</ele>
        <time>2021-06-01T08:31:35Z</time>
      </trkpt>
      <trkpt lat="45.485" lon="6.53247">
        <ele>464</ele>
        <time>2021-06-01T08:31:36Z</time>
      </trkpt>
      <trkpt lat="45.48502" lon="6.5324">
        <ele>464.4</ele>
        <time>2021-06-01T08:31:37Z</time>
      </trkpt>
      <trkpt lat="45.48505" lon="6.53233">
        <ele>464.4</ele>
        <time>2021-06-01T08:31:38Z</time>
      </trkpt>
      <trkpt lat="45.48507" lon="6.53225">
        <ele>464.4</ele>
        <time>2021-06-01T08:31:39Z</time>
      </trkpt>
      <trkpt lat="45.4851" lon="6.53217">
        <ele>464.4</ele>
        <time>2021-06-01T08:31:40Z</time>
      </trkpt>
      <trkpt lat="45.48513" lon="6.5321">
        <ele>464.4</ele>
        <time>2021-06-01T08:31:41Z</time>
      </trkpt>
      <trkpt lat="45.48516" lon="6.53202">
        <ele>464.4</ele>
        <time>2021-06-01T08:31:42Z</time>
      </trkpt>
      <trkpt lat="45.48518" lon="6.53193">
        <ele>464.6</ele>
        <time>2021-06-01T08:31:43Z</time>
      </trkpt>
      <trkpt lat="45.48521" lon="6.53184">
        <ele>464.6</ele>
        <time>2021-06-01T08:31:44Z</time>
      </trkpt>
      <trkpt lat="45.48524" lon="6.53176">
        <ele>464.8</ele>
        <time>2021-06-01T08:31:45Z</time>
      </trkpt>
      <trkpt lat="45.48528" lon="6.53167">
        <ele>464.8</ele>
        <time>2021-06-01T08:31:46Z</time>
      </trkpt>
      <trkpt lat="45.48532" lon="6.5316">
        <ele>464.8</ele>
        <time>2021-06-01T08:31:47Z</time>
      </trkpt>
      <trkpt lat="45.48535" lon="6.53153">
        <ele>465.2</ele>
        <time>2021-06-01T08:31:48Z</time>
      </trkpt>
      <trkpt lat="45.48538" lon="6.53146">
        <ele>465.8</ele>
        <time>2021-06-01T08:31:49Z</time>
      </trkpt>
      <trkpt lat="45.48542" lon="6.5314">
        <ele>466</ele>
        <time>2021-06-01T08:31:50Z</time>
      </trkpt>
      <trkpt lat="45.48546" lon="6.53134">
        <ele>466.2</ele>
        <time>2021-06-01T08:31:51Z</time>
      </trkpt>
      <trkpt lat="45.4855" lon="6.53129">
        <ele>466.4</ele>
        <time>2021-06-01T08:31:52Z</time>
      </trkpt>
      <trkpt lat="45.48554" lon="6.53122">
        <ele>466.8</ele>
        <time>2021-06-01T08:31:53Z</time>
      </trkpt>
      <trkpt lat="45.48558" lon="6.53116">
        <ele>466.8</ele>
        <time>2021-06-01T08:31:54Z</time>
      </trkpt>
      <trkpt lat="45.48563" lon="6.53109">
        <ele>467</ele>
        <time>2021-06-01T08:31:55Z</time>
      </trkpt>
      <trkpt lat="45.48567" lon="6.53101">
        <ele>467.2</ele>
        <time>2021-06-01T08:31:56Z</time>
      </trkpt>
      <trkpt lat="45.48571" lon="6.53094">
        <ele>467.4</ele>
        <time>2021-06-01T08:31:57Z</time>
      </trkpt>
      <trkpt lat="45.48576" lon="6.53087">
        <ele>467.6</ele>
        <time>2021-06-01T08:31:58Z</time>
      </trkpt>
      <trkpt lat="45.48581" lon="6.53079">
        <ele>467.4</ele>
        <time>2021-06-01T08:31:59Z</time>
      </trkpt>
      <trkpt lat="45.48587" lon="6.53073">
        <ele>467.2</ele>
        <time>2021-06-01T08:32:00Z</time>
      </trkpt>
      <trkpt lat="45.48592" lon="6.53066">
        <ele>467.4</ele>
        <time>2021-06-01T08:32:01Z</time>
      </trkpt>
      <trkpt lat="45.48597" lon="6.5306">
        <ele>467.4</ele>
        <time>2021-06-01T08:32:02Z</time>
      </trkpt>
      <trkpt lat="45.48602" lon="6.53053">
        <ele>467.6</ele>
        <time>2021-06-01T08:32:03Z</time>
      </trkpt>
      <trkpt lat="45.48606" lon="6.53047">
        <ele>467.6</ele>
        <time>2021-06-01T08:32:04Z</time>
      </trkpt>
      <trkpt lat="45.48611" lon="6.53042">
        <ele>467.6</ele>
        <time>2021-06-01T08:32:05Z</time>
      </trkpt>
      <trkpt lat="45.48616" lon="6.53038">
        <ele>467.6</ele>
        <time>2021-06-01T08:32:06Z</time>
      </trkpt>
      <trkpt lat="45.48622" lon="6.53032">
        <ele>467.6</ele>
        <time>2021-06-01T08:32:07Z</time>
      </trkpt>
      <trkpt lat="45.48627" lon="6.53026">
        <ele>467.8</ele>
        <time>2021-06-01T08:32:08Z</time>
      </trkpt>
      <trkpt lat="45.48631" lon="6.53019">
        <ele>467.8</ele>
        <time>2021-06-01T08:32:09Z</time>
      </trkpt>
      <trkpt lat="45.48636" lon="6.53012">
        <ele>468</ele>
        <time>2021-06-01T08:32:10Z</time>
      </trkpt>
      <trkpt lat="45.4864" lon="6.53005">
        <ele>468.2</ele>
        <time>2021-06-01T08:32:11Z</time>
      </trkpt>
      <trkpt lat="45.48644" lon="6.52998">
        <ele>468.2</ele>
        <time>2021-06-01T08:32:12Z</time>
      </trkpt>
      <trkpt lat="45.48648" lon="6.52991">
        <ele>468.2</ele>
        <time>2021-06-01T08:32:13Z</time>
      </trkpt>
      <trkpt lat="45.48652" lon="6.52985">
        <ele>468.2</ele>
        <time>2021-06-01T08:32:14Z</time>
      </trkpt>
      <trkpt lat="45.48655" lon="6.52977">
        <ele>468.2</ele>
        <time>2021-06-01T08:32:15Z</time>
      </trkpt>
      <trkpt lat="45.48659" lon="6.5297">
        <ele>468</ele>
        <time>2021-06-01T08:32:16Z</time>
      </trkpt>
      <trkpt lat="45.48662" lon="6.52962">
        <ele>467.8</ele>
        <time>2021-06-01T08:32:17Z</time>
      </trkpt>
      <trkpt lat="45.48664" lon="6.52954">
        <ele>467.8</ele>
        <time>2021-06-01T08:32:18Z</time>
      </trkpt>
      <trkpt lat="45.48666" lon="6.52947">
        <ele>467.6</ele>
        <time>2021-06-01T08:32:19Z</time>
      </trkpt>
      <trkpt lat="45.48669" lon="6.52939">
        <ele>467.4</ele>
        <time>2021-06-01T08:32:20Z</time>
      </trkpt>
      <trkpt lat="45.48672" lon="6.52931">
        <ele>467.6</ele>
        <time>2021-06-01T08:32:21Z</time>
      </trkpt>
      <trkpt lat="45.48674" lon="6.52923">
        <ele>467.6</ele>
        <time>2021-06-01T08:32:22Z</time>
      </trkpt>
      <trkpt lat="45.48676" lon="6.52915">
        <ele>467.6</ele>
        <time>2021-06-01T08:32:23Z</time>
      </trkpt>
      <trkpt lat="45.48678" lon="6.52906">
        <ele>468</ele>
        <time>2021-06-01T08:32:24Z</time>
      </trkpt>
      <trkpt lat="45.48681" lon="6.52899">
        <ele>468</ele>
        <time>2021-06-01T08:32:25Z</time>
      </trkpt>
      <trkpt lat="45.48683" lon="6.5289">
        <ele>468</ele>
        <time>2021-06-01T08:32:26Z</time>
      </trkpt>
      <trkpt lat="45.48684" lon="6.52882">
        <ele>468</ele>
        <time>2021-06-01T08:32:27Z</time>
      </trkpt>
      <trkpt lat="45.48686" lon="6.52873">
        <ele>468.2</ele>
        <time>2021-06-01T08:32:28Z</time>
      </trkpt>
      <trkpt lat="45.48687" lon="6.52865">
        <ele>468.4</ele>
        <time>2021-06-01T08:32:29Z</time>
      </trkpt>
      <trkpt lat="45.48689" lon="6.52856">
        <ele>468.6</ele>
        <time>2021-06-01T08:32:30Z</time>
      </trkpt>
      <trkpt lat="45.48689" lon="6.52848">
        <ele>468.6</ele>
        <time>2021-06-01T08:32:31Z</time>
      </trkpt>
      <trkpt lat="45.48689" lon="6.52839">
        <ele>468.6</ele>
        <time>2021-06-01T08:32:32Z</time>
      </trkpt>
      <trkpt lat="45.48689" lon="6.5283">
        <ele>468.8</ele>
        <time>2021-06-01T08:32:33Z</time>
      </trkpt>
      <trkpt lat="45.48687" lon="6.52823">
        <ele>468.6</ele>
        <time>2021-06-01T08:32:34Z</time>
      </trkpt>
      <trkpt lat="45.48684" lon="6.52816">
        <ele>468.4</ele>
        <time>2021-06-01T08:32:35Z</time>
      </trkpt>
      <trkpt lat="45.48682" lon="6.52809">
        <ele>468.4</ele>
        <time>2021-06-01T08:32:36Z</time>
      </trkpt>
      <trkpt lat="45.48679" lon="6.52801">
        <ele>468.2</ele>
        <time>2021-06-01T08:32:37Z</time>
      </trkpt>
      <trkpt lat="45.48678" lon="6.52794">
        <ele>468.2</ele>
        <time>2021-06-01T08:32:38Z</time>
      </trkpt>
      <trkpt lat="45.48678" lon="6.52787">
        <ele>468</ele>
        <time>2021-06-01T08:32:39Z</time>
      </trkpt>
      <trkpt lat="45.48678" lon="6.5278">
        <ele>467.6</ele>
        <time>2021-06-01T08:32:40Z</time>
      </trkpt>
      <trkpt lat="45.48681" lon="6.52774">
        <ele>467.2</ele>
        <time>2021-06-01T08:32:41Z</time>
      </trkpt>
      <trkpt lat="45.48684" lon="6.52768">
        <ele>466.8</ele>
        <time>2021-06-01T08:32:42Z</time>
      </trkpt>
      <trkpt lat="45.48686" lon="6.52762">
        <ele>466.6</ele>
        <time>2021-06-01T08:32:43Z</time>
      </trkpt>
      <trkpt lat="45.48689" lon="6.52756">
        <ele>466.4</ele>
        <time>2021-06-01T08:32:44Z</time>
      </trkpt>
      <trkpt lat="45.48692" lon="6.5275">
        <ele>466.2</ele>
        <time>2021-06-01T08:32:45Z</time>
      </trkpt>
      <trkpt lat="45.48694" lon="6.52744">
        <ele>466.2</ele>
        <time>2021-06-01T08:32:46Z</time>
      </trkpt>
      <trkpt lat="45.48697" lon="6.52738">
        <ele>466.4</ele>
        <time>2021-06-01T08:32:47Z</time>
      </trkpt>
      <trkpt lat="45.487" lon="6.52733">
        <ele>466.4</ele>
        <time>2021-06-01T08:32:48Z</time>
      </trkpt>
      <trkpt lat="45.48703" lon="6.52727">
        <ele>466.6</ele>
        <time>2021-06-01T08:32:49Z</time>
      </trkpt>
      <trkpt lat="45.48705" lon="6.52723">
        <ele>466.8</ele>
        <time>2021-06-01T08:32:50Z</time>
      </trkpt>
      <trkpt lat="45.48708" lon="6.52718">
        <ele>466.4</ele>
        <time>2021-06-01T08:32:51Z</time>
      </trkpt>
      <trkpt lat="45.48711" lon="6.52713">
        <ele>466.4</ele>
        <time>2021-06-01T08:32:52Z</time>
      </trkpt>
      <trkpt lat="45.48713" lon="6.52708">
        <ele>466.2</ele>
        <time>2021-06-01T08:32:53Z</time>
      </trkpt>
      <trkpt lat="45.48715" lon="6.52704">
        <ele>466.2</ele>
        <time>2021-06-01T08:32:54Z</time>
      </trkpt>
      <trkpt lat="45.48717" lon="6.52699">
        <ele>466</ele>
        <time>2021-06-01T08:32:55Z</time>
      </trkpt>
      <trkpt lat="45.48719" lon="6.52694">
        <ele>465.6</ele>
        <time>2021-06-01T08:32:56Z</time>
      </trkpt>
      <trkpt lat="45.4872" lon="6.5269">
        <ele>465.6</ele>
        <time>2021-06-01T08:32:57Z</time>
      </trkpt>
      <trkpt lat="45.48723" lon="6.52685">
        <ele>465.6</ele>
        <time>2021-06-01T08:32:58Z</time>
      </trkpt>
      <trkpt lat="45.48725" lon="6.52681">
        <ele>465.8</ele>
        <time>2021-06-01T08:32:59Z</time>
      </trkpt>
      <trkpt lat="45.48729" lon="6.52677">
        <ele>465.8</ele>
        <time>2021-06-01T08:33:00Z</time>
      </trkpt>
      <trkpt lat="45.48732" lon="6.52674">
        <ele>465.6</ele>
        <time>2021-06-01T08:33:01Z</time>
      </trkpt>
      <trkpt lat="45.48735" lon="6.5267">
        <ele>465.4</ele>
        <time>2021-06-01T08:33:02Z</time>
      </trkpt>
      <trkpt lat="45.48737" lon="6.52668">
        <ele>465.2</ele>
        <time>2021-06-01T08:33:03Z</time>
      </trkpt>
      <trkpt lat="45.48739" lon="6.52666">
        <ele>465</ele>
        <time>2021-06-01T08:33:04Z</time>
      </trkpt>
      <trkpt lat="45.48741" lon="6.52664">
        <ele>465</ele>
        <time>2021-06-01T08:33:05Z</time>
      </trkpt>
      <trkpt lat="45.48743" lon="6.52661">
        <ele>465</ele>
        <time>2021-06-01T08:33:06Z</time>
      </trkpt>
      <trkpt lat="45.48745" lon="6.52658">
        <ele>465</ele>
        <time>2021-06-01T08:33:07Z</time>
      </trkpt>
      <trkpt lat="45.48747" lon="6.52656">
        <ele>464.8</ele>
        <time>2021-06-01T08:33:08Z</time>
      </trkpt>
      <trkpt lat="45.48748" lon="6.52653">
        <ele>464.6</ele>
        <time>2021-06-01T08:33:09Z</time>
      </trkpt>
      <trkpt lat="45.48749" lon="6.5265">
        <ele>464.6</ele>
        <time>2021-06-01T08:33:10Z</time>
      </trkpt>
      <trkpt lat="45.48751" lon="6.52647">
        <ele>464.4</ele>
        <time>2021-06-01T08:33:11Z</time>
      </trkpt>
      <trkpt lat="45.48753" lon="6.52645">
        <ele>464.4</ele>
        <time>2021-06-01T08:33:12Z</time>
      </trkpt>
      <trkpt lat="45.48754" lon="6.52642">
        <ele>464.2</ele>
        <time>2021-06-01T08:33:13Z</time>
      </trkpt>
      <trkpt lat="45.48756" lon="6.52639">
        <ele>464.2</ele>
        <time>2021-06-01T08:33:14Z</time>
      </trkpt>
      <trkpt lat="45.48758" lon="6.52635">
        <ele>464</ele>
        <time>2021-06-01T08:33:15Z</time>
      </trkpt>
      <trkpt lat="45.48761" lon="6.52631">
        <ele>464.2</ele>
        <time>2021-06-01T08:33:16Z</time>
      </trkpt>
      <trkpt lat="45.48764" lon="6.52627">
        <ele>464</ele>
        <time>2021-06-01T08:33:17Z</time>
      </trkpt>
      <trkpt lat="45.48767" lon="6.52623">
        <ele>464</ele>
        <time>2021-06-01T08:33:18Z</time>
      </trkpt>
      <trkpt lat="45.4877" lon="6.52618">
        <ele>464</ele>
        <time>2021-06-01T08:33:19Z</time>
      </trkpt>
      <trkpt lat="45.48773" lon="6.52614">
        <ele>464.2</ele>
        <time>2021-06-01T08:33:20Z</time>
      </trkpt>
      <trkpt lat="45.48778" lon="6.52609">
        <ele>464.2</ele>
        <time>2021-06-01T08:33:21Z</time>
      </trkpt>
      <trkpt lat="45.48781" lon="6.52604">
        <ele>464.2</ele>
        <time>2021-06-01T08:33:22Z</time>
      </trkpt>
      <trkpt lat="45.48785" lon="6.52599">
        <ele>464.4</ele>
        <time>2021-06-01T08:33:23Z</time>
      </trkpt>
      <trkpt lat="45.48789" lon="6.52595">
        <ele>464.2</ele>
        <time>2021-06-01T08:33:24Z</time>
      </trkpt>
      <trkpt lat="45.48793" lon="6.52591">
        <ele>464.4</ele>
        <time>2021-06-01T08:33:25Z</time>
      </trkpt>
      <trkpt lat="45.48797" lon="6.52586">
        <ele>464.2</ele>
        <time>2021-06-01T08:33:26Z</time>
      </trkpt>
      <trkpt lat="45.48799" lon="6.52581">
        <ele>464.2</ele>
        <time>2021-06-01T08:33:27Z</time>
      </trkpt>
      <trkpt lat="45.48801" lon="6.52574">
        <ele>464.2</ele>
        <time>2021-06-01T08:33:28Z</time>
      </trkpt>
      <trkpt lat="45.48802" lon="6.52566">
        <ele>464.2</ele>
        <time>2021-06-01T08:33:29Z</time>
      </trkpt>
      <trkpt lat="45.48803" lon="6.5256">
        <ele>464.2</ele>
        <time>2021-06-01T08:33:30Z</time>
      </trkpt>
      <trkpt lat="45.48804" lon="6.52552">
        <ele>464</ele>
        <time>2021-06-01T08:33:31Z</time>
      </trkpt>
      <trkpt lat="45.48806" lon="6.52544">
        <ele>463.8</ele>
        <time>2021-06-01T08:33:32Z</time>
      </trkpt>
      <trkpt lat="45.48806" lon="6.52536">
        <ele>463.8</ele>
        <time>2021-06-01T08:33:33Z</time>
      </trkpt>
      <trkpt lat="45.48806" lon="6.52528">
        <ele>464</ele>
        <time>2021-06-01T08:33:34Z</time>
      </trkpt>
      <trkpt lat="45.48806" lon="6.5252">
        <ele>464.4</ele>
        <time>2021-06-01T08:33:35Z</time>
      </trkpt>
      <trkpt lat="45.48806" lon="6.52512">
        <ele>464.6</ele>
        <time>2021-06-01T08:33:36Z</time>
      </trkpt>
      <trkpt lat="45.48804" lon="6.52504">
        <ele>465</ele>
        <time>2021-06-01T08:33:37Z</time>
      </trkpt>
      <trkpt lat="45.48803" lon="6.52496">
        <ele>465.2</ele>
        <time>2021-06-01T08:33:38Z</time>
      </trkpt>
      <trkpt lat="45.48802" lon="6.52489">
        <ele>465.4</ele>
        <time>2021-06-01T08:33:39Z</time>
      </trkpt>
      <trkpt lat="45.48799" lon="6.52482">
        <ele>465.6</ele>
        <time>2021-06-01T08:33:40Z</time>
      </trkpt>
      <trkpt lat="45.48798" lon="6.52475">
        <ele>466</ele>
        <time>2021-06-01T08:33:41Z</time>
      </trkpt>
      <trkpt lat="45.48795" lon="6.52468">
        <ele>466.4</ele>
        <time>2021-06-01T08:33:42Z</time>
      </trkpt>
      <trkpt lat="45.48793" lon="6.5246">
        <ele>466.8</ele>
        <time>2021-06-01T08:33:43Z</time>
      </trkpt>
      <trkpt lat="45.48791" lon="6.52453">
        <ele>467</ele>
        <time>2021-06-01T08:33:44Z</time>
      </trkpt>
      <trkpt lat="45.48789" lon="6.52446">
        <ele>467.4</ele>
        <time>2021-06-01T08:33:45Z</time>
      </trkpt>
      <trkpt lat="45.48788" lon="6.52439">
        <ele>467.8</ele>
        <time>2021-06-01T08:33:46Z</time>
      </trkpt>
      <trkpt lat="45.48785" lon="6.52433">
        <ele>467.8</ele>
        <time>2021-06-01T08:33:47Z</time>
      </trkpt>
      <trkpt lat="45.48783" lon="6.52426">
        <ele>468</ele>
        <time>2021-06-01T08:33:48Z</time>
      </trkpt>
      <trkpt lat="45.48781" lon="6.52419">
        <ele>468.4</ele>
        <time>2021-06-01T08:33:49Z</time>
      </trkpt>
      <trkpt lat="45.4878" lon="6.52411">
        <ele>468.4</ele>
        <time>2021-06-01T08:33:50Z</time>
      </trkpt>
      <trkpt lat="45.48779" lon="6.52403">
        <ele>468.6</ele>
        <time>2021-06-01T08:33:51Z</time>
      </trkpt>
      <trkpt lat="45.48778" lon="6.52396">
        <ele>469</ele>
        <time>2021-06-01T08:33:52Z</time>
      </trkpt>
      <trkpt lat="45.48777" lon="6.52388">
        <ele>469.4</ele>
        <time>2021-06-01T08:33:53Z</time>
      </trkpt>
      <trkpt lat="45.48775" lon="6.52381">
        <ele>469.6</ele>
        <time>2021-06-01T08:33:54Z</time>
      </trkpt>
      <trkpt lat="45.48775" lon="6.52373">
        <ele>469.8</ele>
        <time>2021-06-01T08:33:55Z</time>
      </trkpt>
      <trkpt lat="45.48775" lon="6.52366">
        <ele>470.2</ele>
        <time>2021-06-01T08:33:56Z</time>
      </trkpt>
      <trkpt lat="45.48773" lon="6.52358">
        <ele>470.4</ele>
        <time>2021-06-01T08:33:57Z</time>
      </trkpt>
      <trkpt lat="45.48773" lon="6.52351">
        <ele>470.6</ele>
        <time>2021-06-01T08:33:58Z</time>
      </trkpt>
      <trkpt lat="45.48772" lon="6.52344">
        <ele>470.8</ele>
        <time>2021-06-01T08:33:59Z</time>
      </trkpt>
      <trkpt lat="45.48771" lon="6.52336">
        <ele>470.8</ele>
        <time>2021-06-01T08:34:00Z</time>
      </trkpt>
      <trkpt lat="45.4877" lon="6.52328">
        <ele>471</ele>
        <time>2021-06-01T08:34:01Z</time>
      </trkpt>
      <trkpt lat="45.48769" lon="6.52321">
        <ele>471.2</ele>
        <time>2021-06-01T08:34:02Z</time>
      </trkpt>
      <trkpt lat="45.48768" lon="6.52313">
        <ele>471.4</ele>
        <time>2021-06-01T08:34:03Z</time>
      </trkpt>
      <trkpt lat="45.48772" lon="6.52305">
        <ele>471</ele>
        <time>2021-06-01T08:34:04Z</time>
      </trkpt>
      <trkpt lat="45.48773" lon="6.52298">
        <ele>471.6</ele>
        <time>2021-06-01T08:34:05Z</time>
      </trkpt>
      <trkpt lat="45.48771" lon="6.52292">
        <ele>471.8</ele>
        <time>2021-06-01T08:34:06Z</time>
      </trkpt>
      <trkpt lat="45.48765" lon="6.52287">
        <ele>472</ele>
        <time>2021-06-01T08:34:07Z</time>
      </trkpt>
      <trkpt lat="45.48763" lon="6.52281">
        <ele>472.2</ele>
        <time>2021-06-01T08:34:08Z</time>
      </trkpt>
      <trkpt lat="45.48763" lon="6.52275">
        <ele>472.4</ele>
        <time>2021-06-01T08:34:09Z</time>
      </trkpt>
      <trkpt lat="45.48763" lon="6.5227">
        <ele>472.8</ele>
        <time>2021-06-01T08:34:10Z</time>
      </trkpt>
      <trkpt lat="45.48762" lon="6.52265">
        <ele>473.2</ele>
        <time>2021-06-01T08:34:11Z</time>
      </trkpt>
      <trkpt lat="45.48762" lon="6.52259">
        <ele>473.6</ele>
        <time>2021-06-01T08:34:12Z</time>
      </trkpt>
      <trkpt lat="45.48762" lon="6.52253">
        <ele>473.6</ele>
        <time>2021-06-01T08:34:13Z</time>
      </trkpt>
      <trkpt lat="45.48764" lon="6.52246">
        <ele>474.8</ele>
        <time>2021-06-01T08:34:14Z</time>
      </trkpt>
      <trkpt lat="45.48765" lon="6.52241">
        <ele>475.2</ele>
        <time>2021-06-01T08:34:15Z</time>
      </trkpt>
      <trkpt lat="45.48767" lon="6.52235">
        <ele>475.6</ele>
        <time>2021-06-01T08:34:16Z</time>
      </trkpt>
      <trkpt lat="45.48768" lon="6.52228">
        <ele>475.8</ele>
        <time>2021-06-01T08:34:17Z</time>
      </trkpt>
      <trkpt lat="45.48769" lon="6.52222">
        <ele>476</ele>
        <time>2021-06-01T08:34:18Z</time>
      </trkpt>
      <trkpt lat="45.48769" lon="6.52216">
        <ele>476</ele>
        <time>2021-06-01T08:34:19Z</time>
      </trkpt>
      <trkpt lat="45.48771" lon="6.5221">
        <ele>476.4</ele>
        <time>2021-06-01T08:34:20Z</time>
      </trkpt>
      <trkpt lat="45.48772" lon="6.52204">
        <ele>476.4</ele>
        <time>2021-06-01T08:34:21Z</time>
      </trkpt>
      <trkpt lat="45.48773" lon="6.52199">
        <ele>476.4</ele>
        <time>2021-06-01T08:34:22Z</time>
      </trkpt>
      <trkpt lat="45.48775" lon="6.52193">
        <ele>476.6</ele>
        <time>2021-06-01T08:34:23Z</time>
      </trkpt>
      <trkpt lat="45.48776" lon="6.52188">
        <ele>477</ele>
        <time>2021-06-01T08:34:24Z</time>
      </trkpt>
      <trkpt lat="45.48777" lon="6.52183">
        <ele>477</ele>
        <time>2021-06-01T08:34:25Z</time>
      </trkpt>
      <trkpt lat="45.48778" lon="6.52177">
        <ele>477.4</ele>
        <time>2021-06-01T08:34:26Z</time>
      </trkpt>
      <trkpt lat="45.4878" lon="6.52172">
        <ele>477.6</ele>
        <time>2021-06-01T08:34:27Z</time>
      </trkpt>
      <trkpt lat="45.48781" lon="6.52166">
        <ele>478</ele>
        <time>2021-06-01T08:34:28Z</time>
      </trkpt>
      <trkpt lat="45.48782" lon="6.52161">
        <ele>478.2</ele>
        <time>2021-06-01T08:34:29Z</time>
      </trkpt>
      <trkpt lat="45.48784" lon="6.52156">
        <ele>478.6</ele>
        <time>2021-06-01T08:34:30Z</time>
      </trkpt>
      <trkpt lat="45.48786" lon="6.5215">
        <ele>478.6</ele>
        <time>2021-06-01T08:34:31Z</time>
      </trkpt>
      <trkpt lat="45.48788" lon="6.52145">
        <ele>478.8</ele>
        <time>2021-06-01T08:34:32Z</time>
      </trkpt>
      <trkpt lat="45.48789" lon="6.5214">
        <ele>479.2</ele>
        <time>2021-06-01T08:34:33Z</time>
      </trkpt>
      <trkpt lat="45.4879" lon="6.52135">
        <ele>479.6</ele>
        <time>2021-06-01T08:34:34Z</time>
      </trkpt>
      <trkpt lat="45.48792" lon="6.5213">
        <ele>479.8</ele>
        <time>2021-06-01T08:34:35Z</time>
      </trkpt>
      <trkpt lat="45.48793" lon="6.52124">
        <ele>480.4</ele>
        <time>2021-06-01T08:34:36Z</time>
      </trkpt>
      <trkpt lat="45.48878" lon="6.51969">
        <ele>491.8</ele>
        <time>2021-06-01T08:35:14Z</time>
      </trkpt>
      <trkpt lat="45.48884" lon="6.51967">
        <ele>492.2</ele>
        <time>2021-06-01T08:35:15Z</time>
      </trkpt>
      <trkpt lat="45.48888" lon="6.51966">
        <ele>492</ele>
        <time>2021-06-01T08:35:16Z</time>
      </trkpt>
      <trkpt lat="45.48894" lon="6.51965">
        <ele>491.8</ele>
        <time>2021-06-01T08:35:17Z</time>
      </trkpt>
      <trkpt lat="45.48899" lon="6.51964">
        <ele>491.8</ele>
        <time>2021-06-01T08:35:18Z</time>
      </trkpt>
      <trkpt lat="45.48904" lon="6.51962">
        <ele>491.8</ele>
        <time>2021-06-01T08:35:19Z</time>
      </trkpt>
      <trkpt lat="45.4891" lon="6.51961">
        <ele>492.2</ele>
        <time>2021-06-01T08:35:20Z</time>
      </trkpt>
      <trkpt lat="45.48914" lon="6.51961">
        <ele>492.2</ele>
        <time>2021-06-01T08:35:21Z</time>
      </trkpt>
      <trkpt lat="45.4892" lon="6.5196">
        <ele>492.2</ele>
        <time>2021-06-01T08:35:22Z</time>
      </trkpt>
      <trkpt lat="45.48926" lon="6.5196">
        <ele>492.6</ele>
        <time>2021-06-01T08:35:23Z</time>
      </trkpt>
      <trkpt lat="45.48932" lon="6.51959">
        <ele>493.2</ele>
        <time>2021-06-01T08:35:24Z</time>
      </trkpt>
      <trkpt lat="45.48938" lon="6.51959">
        <ele>493.6</ele>
        <time>2021-06-01T08:35:25Z</time>
      </trkpt>
      <trkpt lat="45.48944" lon="6.51958">
        <ele>493.6</ele>
        <time>2021-06-01T08:35:26Z</time>
      </trkpt>
      <trkpt lat="45.4895" lon="6.51958">
        <ele>493.8</ele>
        <time>2021-06-01T08:35:27Z</time>
      </trkpt>
      <trkpt lat="45.48956" lon="6.51956">
        <ele>494.2</ele>
        <time>2021-06-01T08:35:28Z</time>
      </trkpt>
      <trkpt lat="45.48963" lon="6.51954">
        <ele>494.4</ele>
        <time>2021-06-01T08:35:29Z</time>
      </trkpt>
      <trkpt lat="45.48969" lon="6.51953">
        <ele>494.6</ele>
        <time>2021-06-01T08:35:30Z</time>
      </trkpt>
      <trkpt lat="45.48975" lon="6.51951">
        <ele>494.6</ele>
        <time>2021-06-01T08:35:31Z</time>
      </trkpt>
      <trkpt lat="45.49277" lon="6.51761">
        <ele>492</ele>
        <time>2021-06-01T08:36:10Z</time>
      </trkpt>
      <trkpt lat="45.49284" lon="6.51758">
        <ele>492.4</ele>
        <time>2021-06-01T08:36:11Z</time>
      </trkpt>
      <trkpt lat="45.49291" lon="6.51754">
        <ele>492.2</ele>
        <time>2021-06-01T08:36:12Z</time>
      </trkpt>
      <trkpt lat="45.49298" lon="6.51749">
        <ele>492</ele>
        <time>2021-06-01T08:36:13Z</time>
      </trkpt>
      <trkpt lat="45.49305" lon="6.51745">
        <ele>492.6</ele>
        <time>2021-06-01T08:36:14Z</time>
      </trkpt>
      <trkpt lat="45.49311" lon="6.5174">
        <ele>492.6</ele>
        <time>2021-06-01T08:36:15Z</time>
      </trkpt>
      <trkpt lat="45.49319" lon="6.51736">
        <ele>492.8</ele>
        <time>2021-06-01T08:36:16Z</time>
      </trkpt>
      <trkpt lat="45.49326" lon="6.51732">
        <ele>492.8</ele>
        <time>2021-06-01T08:36:17Z</time>
      </trkpt>
      <trkpt lat="45.49333" lon="6.51727">
        <ele>492.8</ele>
        <time>2021-06-01T08:36:18Z</time>
      </trkpt>
      <trkpt lat="45.4934" lon="6.51722">
        <ele>493.2</ele>
        <time>2021-06-01T08:36:19Z</time>
      </trkpt>
      <trkpt lat="45.49347" lon="6.51718">
        <ele>493.4</ele>
        <time>2021-06-01T08:36:20Z</time>
      </trkpt>
      <trkpt lat="45.49354" lon="6.51713">
        <ele>493.4</ele>
        <time>2021-06-01T08:36:21Z</time>
      </trkpt>
      <trkpt lat="45.4936" lon="6.51709">
        <ele>493.8</ele>
        <time>2021-06-01T08:36:22Z</time>
      </trkpt>
      <trkpt lat="45.49368" lon="6.51705">
        <ele>494</ele>
        <time>2021-06-01T08:36:23Z</time>
      </trkpt>
      <trkpt lat="45.49374" lon="6.51701">
        <ele>494</ele>
        <time>2021-06-01T08:36:24Z</time>
      </trkpt>
      <trkpt lat="45.49381" lon="6.51696">
        <ele>494.2</ele>
        <time>2021-06-01T08:36:25Z</time>
      </trkpt>
      <trkpt lat="45.49388" lon="6.51691">
        <ele>494</ele>
        <time>2021-06-01T08:36:26Z</time>
      </trkpt>
      <trkpt lat="45.49395" lon="6.51686">
        <ele>494.2</ele>
        <time>2021-06-01T08:36:27Z</time>
      </trkpt>
      <trkpt lat="45.49403" lon="6.51682">
        <ele>494.4</ele>
        <time>2021-06-01T08:36:28Z</time>
      </trkpt>
      <trkpt lat="45.49409" lon="6.51679">
        <ele>494.2</ele>
        <time>2021-06-01T08:36:29Z</time>
      </trkpt>
      <trkpt lat="45.49416" lon="6.51675">
        <ele>494.2</ele>
        <time>2021-06-01T08:36:30Z</time>
      </trkpt>
      <trkpt lat="45.49423" lon="6.51672">
        <ele>494.4</ele>
        <time>2021-06-01T08:36:31Z</time>
      </trkpt>
      <trkpt lat="45.49431" lon="6.51668">
        <ele>494.4</ele>
        <time>2021-06-01T08:36:32Z</time>
      </trkpt>
      <trkpt lat="45.49438" lon="6.51665">
        <ele>494.2</ele>
        <time>2021-06-01T08:36:33Z</time>
      </trkpt>
      <trkpt lat="45.49444" lon="6.51661">
        <ele>494.2</ele>
        <time>2021-06-01T08:36:34Z</time>
      </trkpt>
      <trkpt lat="45.49452" lon="6.51658">
        <ele>494.4</ele>
        <time>2021-06-01T08:36:35Z</time>
      </trkpt>
      <trkpt lat="45.4946" lon="6.51655">
        <ele>494.4</ele>
        <time>2021-06-01T08:36:36Z</time>
      </trkpt>
      <trkpt lat="45.49466" lon="6.51652">
        <ele>494.6</ele>
        <time>2021-06-01T08:36:37Z</time>
      </trkpt>
      <trkpt lat="45.49474" lon="6.5165">
        <ele>495.2</ele>
        <time>2021-06-01T08:36:38Z</time>
      </trkpt>
      <trkpt lat="45.49481" lon="6.51647">
        <ele>495.4</ele>
        <time>2021-06-01T08:36:39Z</time>
      </trkpt>
      <trkpt lat="45.49488" lon="6.51645">
        <ele>495.4</ele>
        <time>2021-06-01T08:36:40Z</time>
      </trkpt>
      <trkpt lat="45.49495" lon="6.51642">
        <ele>495.4</ele>
        <time>2021-06-01T08:36:41Z</time>
      </trkpt>
      <trkpt lat="45.49503" lon="6.51639">
        <ele>495.6</ele>
        <time>2021-06-01T08:36:42Z</time>
      </trkpt>
      <trkpt lat="45.49511" lon="6.51637">
        <ele>495.6</ele>
        <time>2021-06-01T08:36:43Z</time>
      </trkpt>
      <trkpt lat="45.49518" lon="6.51634">
        <ele>496.8</ele>
        <time>2021-06-01T08:36:44Z</time>
      </trkpt>
      <trkpt lat="45.49525" lon="6.51631">
        <ele>497.8</ele>
        <time>2021-06-01T08:36:45Z</time>
      </trkpt>
      <trkpt lat="45.49532" lon="6.51628">
        <ele>498.4</ele>
        <time>2021-06-01T08:36:46Z</time>
      </trkpt>
      <trkpt lat="45.49539" lon="6.51625">
        <ele>498.8</ele>
        <time>2021-06-01T08:36:47Z</time>
      </trkpt>
      <trkpt lat="45.49546" lon="6.51622">
        <ele>499</ele>
        <time>2021-06-01T08:36:48Z</time>
      </trkpt>
      <trkpt lat="45.49553" lon="6.51618">
        <ele>499.4</ele>
        <time>2021-06-01T08:36:49Z</time>
      </trkpt>
      <trkpt lat="45.4956" lon="6.51614">
        <ele>499.4</ele>
        <time>2021-06-01T08:36:50Z</time>
      </trkpt>
      <trkpt lat="45.49567" lon="6.5161">
        <ele>499.8</ele>
        <time>2021-06-01T08:36:51Z</time>
      </trkpt>
      <trkpt lat="45.49574" lon="6.51605">
        <ele>499.8</ele>
        <time>2021-06-01T08:36:52Z</time>
      </trkpt>
      <trkpt lat="45.49581" lon="6.516">
        <ele>500</ele>
        <time>2021-06-01T08:36:53Z</time>
      </trkpt>
      <trkpt lat="45.49588" lon="6.51594">
        <ele>500</ele>
        <time>2021-06-01T08:36:54Z</time>
      </trkpt>
      <trkpt lat="45.49594" lon="6.51588">
        <ele>499.8</ele>
        <time>2021-06-01T08:36:55Z</time>
      </trkpt>
      <trkpt lat="45.496" lon="6.51581">
        <ele>499.8</ele>
        <time>2021-06-01T08:36:56Z</time>
      </trkpt>
      <trkpt lat="45.49605" lon="6.51575">
        <ele>500</ele>
        <time>2021-06-01T08:36:57Z</time>
      </trkpt>
      <trkpt lat="45.49611" lon="6.51568">
        <ele>499.6</ele>
        <time>2021-06-01T08:36:58Z</time>
      </trkpt>
      <trkpt lat="45.49616" lon="6.5156">
        <ele>499.6</ele>
        <time>2021-06-01T08:36:59Z</time>
      </trkpt>
      <trkpt lat="45.49621" lon="6.51552">
        <ele>499.2</ele>
        <time>2021-06-01T08:37:00Z</time>
      </trkpt>
      <trkpt lat="45.49626" lon="6.51543">
        <ele>499.2</ele>
        <time>2021-06-01T08:37:01Z</time>
      </trkpt>
      <trkpt lat="45.49631" lon="6.51535">
        <ele>499.2</ele>
        <time>2021-06-01T08:37:02Z</time>
      </trkpt>
      <trkpt lat="45.49635" lon="6.51526">
        <ele>499.2</ele>
        <time>2021-06-01T08:37:03Z</time>
      </trkpt>
      <trkpt lat="45.4964" lon="6.51517">
        <ele>499</ele>
        <time>2021-06-01T08:37:04Z</time>
      </trkpt>
      <trkpt lat="45.49644" lon="6.51508">
        <ele>499</ele>
        <time>2021-06-01T08:37:05Z</time>
      </trkpt>
      <trkpt lat="45.49649" lon="6.51499">
        <ele>499</ele>
        <time>2021-06-01T08:37:06Z</time>
      </trkpt>
      <trkpt lat="45.49653" lon="6.5149">
        <ele>499.2</ele>
        <time>2021-06-01T08:37:07Z</time>
      </trkpt>
      <trkpt lat="45.49656" lon="6.51481">
        <ele>499.4</ele>
        <time>2021-06-01T08:37:08Z</time>
      </trkpt>
      <trkpt lat="45.4966" lon="6.51471">
        <ele>499.2</ele>
        <time>2021-06-01T08:37:09Z</time>
      </trkpt>
      <trkpt lat="45.49664" lon="6.51461">
        <ele>499.2</ele>
        <time>2021-06-01T08:37:10Z</time>
      </trkpt>
      <trkpt lat="45.49668" lon="6.51453">
        <ele>499.4</ele>
        <time>2021-06-01T08:37:11Z</time>
      </trkpt>
      <trkpt lat="45.49673" lon="6.51445">
        <ele>499.2</ele>
        <time>2021-06-01T08:37:12Z</time>
      </trkpt>
      <trkpt lat="45.49677" lon="6.51436">
        <ele>499.2</ele>
        <time>2021-06-01T08:37:13Z</time>
      </trkpt>
      <trkpt lat="45.49682" lon="6.51428">
        <ele>499</ele>
        <time>2021-06-01T08:37:14Z</time>
      </trkpt>
      <trkpt lat="45.49687" lon="6.5142">
        <ele>498.6</ele>
        <time>2021-06-01T08:37:15Z</time>
      </trkpt>
      <trkpt lat="45.49692" lon="6.51412">
        <ele>498.4</ele>
        <time>2021-06-01T08:37:16Z</time>
      </trkpt>
      <trkpt lat="45.49698" lon="6.51404">
        <ele>498.2</ele>
        <time>2021-06-01T08:37:17Z</time>
      </trkpt>
      <trkpt lat="45.49704" lon="6.51396">
        <ele>497.8</ele>
        <time>2021-06-01T08:37:18Z</time>
      </trkpt>
      <trkpt lat="45.4971" lon="6.51388">
        <ele>497.4</ele>
        <time>2021-06-01T08:37:19Z</time>
      </trkpt>
      <trkpt lat="45.49717" lon="6.51379">
        <ele>497</ele>
        <time>2021-06-01T08:37:20Z</time>
      </trkpt>
      <trkpt lat="45.49724" lon="6.51369">
        <ele>496.2</ele>
        <time>2021-06-01T08:37:21Z</time>
      </trkpt>
      <trkpt lat="45.49732" lon="6.51361">
        <ele>495.4</ele>
        <time>2021-06-01T08:37:22Z</time>
      </trkpt>
      <trkpt lat="45.4974" lon="6.51353">
        <ele>494.6</ele>
        <time>2021-06-01T08:37:23Z</time>
      </trkpt>
      <trkpt lat="45.49748" lon="6.51345">
        <ele>493.6</ele>
        <time>2021-06-01T08:37:24Z</time>
      </trkpt>
      <trkpt lat="45.49758" lon="6.51339">
        <ele>493.2</ele>
        <time>2021-06-01T08:37:25Z</time>
      </trkpt>
      <trkpt lat="45.49766" lon="6.51332">
        <ele>492.4</ele>
        <time>2021-06-01T08:37:26Z</time>
      </trkpt>
      <trkpt lat="45.49774" lon="6.51324">
        <ele>491.8</ele>
        <time>2021-06-01T08:37:27Z</time>
      </trkpt>
      <trkpt lat="45.49781" lon="6.51314">
        <ele>491</ele>
        <time>2021-06-01T08:37:28Z</time>
      </trkpt>
      <trkpt lat="45.49789" lon="6.51305">
        <ele>490</ele>
        <time>2021-06-01T08:37:29Z</time>
      </trkpt>
      <trkpt lat="45.49795" lon="6.51294">
        <ele>489.4</ele>
        <time>2021-06-01T08:37:30Z</time>
      </trkpt>
      <trkpt lat="45.498" lon="6.51281">
        <ele>489</ele>
        <time>2021-06-01T08:37:31Z</time>
      </trkpt>
      <trkpt lat="45.49805" lon="6.51269">
        <ele>488.4</ele>
        <time>2021-06-01T08:37:32Z</time>
      </trkpt>
      <trkpt lat="45.49809" lon="6.51256">
        <ele>488</ele>
        <time>2021-06-01T08:37:33Z</time>
      </trkpt>
      <trkpt lat="45.49815" lon="6.51244">
        <ele>487.6</ele>
        <time>2021-06-01T08:37:34Z</time>
      </trkpt>
      <trkpt lat="45.49821" lon="6.51232">
        <ele>487</ele>
        <time>2021-06-01T08:37:35Z</time>
      </trkpt>
      <trkpt lat="45.49828" lon="6.51221">
        <ele>486.4</ele>
        <time>2021-06-01T08:37:36Z</time>
      </trkpt>
      <trkpt lat="45.49835" lon="6.5121">
        <ele>485.8</ele>
        <time>2021-06-01T08:37:37Z</time>
      </trkpt>
      <trkpt lat="45.49843" lon="6.51199">
        <ele>485.6</ele>
        <time>2021-06-01T08:37:38Z</time>
      </trkpt>
      <trkpt lat="45.4985" lon="6.51189">
        <ele>484.8</ele>
        <time>2021-06-01T08:37:39Z</time>
      </trkpt>
      <trkpt lat="45.49858" lon="6.51178">
        <ele>484</ele>
        <time>2021-06-01T08:37:40Z</time>
      </trkpt>
      <trkpt lat="45.49865" lon="6.51165">
        <ele>482.4</ele>
        <time>2021-06-01T08:37:41Z</time>
      </trkpt>
      <trkpt lat="45.49873" lon="6.51154">
        <ele>482.2</ele>
        <time>2021-06-01T08:37:42Z</time>
      </trkpt>
      <trkpt lat="45.49881" lon="6.51142">
        <ele>481.2</ele>
        <time>2021-06-01T08:37:43Z</time>
      </trkpt>
      <trkpt lat="45.49889" lon="6.5113">
        <ele>480.6</ele>
        <time>2021-06-01T08:37:44Z</time>
      </trkpt>
      <trkpt lat="45.49897" lon="6.51119">
        <ele>479.8</ele>
        <time>2021-06-01T08:37:45Z</time>
      </trkpt>
      <trkpt lat="45.49906" lon="6.51107">
        <ele>478.6</ele>
        <time>2021-06-01T08:37:46Z</time>
      </trkpt>
      <trkpt lat="45.49914" lon="6.51095">
        <ele>478</ele>
        <time>2021-06-01T08:37:47Z</time>
      </trkpt>
      <trkpt lat="45.49922" lon="6.51084">
        <ele>476.8</ele>
        <time>2021-06-01T08:37:48Z</time>
      </trkpt>
      <trkpt lat="45.49931" lon="6.51073">
        <ele>476.2</ele>
        <time>2021-06-01T08:37:49Z</time>
      </trkpt>
      <trkpt lat="45.4994" lon="6.51063">
        <ele>475.2</ele>
        <time>2021-06-01T08:37:50Z</time>
      </trkpt>
      <trkpt lat="45.4995" lon="6.51054">
        <ele>475</ele>
        <time>2021-06-01T08:37:51Z</time>
      </trkpt>
      <trkpt lat="45.4996" lon="6.51047">
        <ele>474.2</ele>
        <time>2021-06-01T08:37:52Z</time>
      </trkpt>
      <trkpt lat="45.4997" lon="6.5104">
        <ele>473.4</ele>
        <time>2021-06-01T08:37:53Z</time>
      </trkpt>
      <trkpt lat="45.4998" lon="6.51033">
        <ele>472.6</ele>
        <time>2021-06-01T08:37:54Z</time>
      </trkpt>
      <trkpt lat="45.4999" lon="6.51026">
        <ele>472.2</ele>
        <time>2021-06-01T08:37:55Z</time>
      </trkpt>
      <trkpt lat="45.5" lon="6.5102">
        <ele>471.6</ele>
        <time>2021-06-01T08:37:56Z</time>
      </trkpt>
      <trkpt lat="45.50008" lon="6.51013">
        <ele>471</ele>
        <time>2021-06-01T08:37:57Z</time>
      </trkpt>
      <trkpt lat="45.50016" lon="6.51005">
        <ele>470.2</ele>
        <time>2021-06-01T08:37:58Z</time>
      </trkpt>
      <trkpt lat="45.50024" lon="6.50999">
        <ele>469.6</ele>
        <time>2021-06-01T08:37:59Z</time>
      </trkpt>
      <trkpt lat="45.50032" lon="6.50994">
        <ele>468.6</ele>
        <time>2021-06-01T08:38:00Z</time>
      </trkpt>
      <trkpt lat="45.5004" lon="6.50988">
        <ele>468</ele>
        <time>2021-06-01T08:38:01Z</time>
      </trkpt>
      <trkpt lat="45.50048" lon="6.50983">
        <ele>467.8</ele>
        <time>2021-06-01T08:38:02Z</time>
      </trkpt>
      <trkpt lat="45.50054" lon="6.50978">
        <ele>467.6</ele>
        <time>2021-06-01T08:38:03Z</time>
      </trkpt>
      <trkpt lat="45.50061" lon="6.50976">
        <ele>467.2</ele>
        <time>2021-06-01T08:38:04Z</time>
      </trkpt>
      <trkpt lat="45.50068" lon="6.50974">
        <ele>466.8</ele>
        <time>2021-06-01T08:38:05Z</time>
      </trkpt>
      <trkpt lat="45.50075" lon="6.50971">
        <ele>466.4</ele>
        <time>2021-06-01T08:38:06Z</time>
      </trkpt>
      <trkpt lat="45.50081" lon="6.50967">
        <ele>466.4</ele>
        <time>2021-06-01T08:38:07Z</time>
      </trkpt>
      <trkpt lat="45.50087" lon="6.50963">
        <ele>466.2</ele>
        <time>2021-06-01T08:38:08Z</time>
      </trkpt>
      <trkpt lat="45.50093" lon="6.50959">
        <ele>466</ele>
        <time>2021-06-01T08:38:09Z</time>
      </trkpt>
      <trkpt lat="45.501" lon="6.50954">
        <ele>465.8</ele>
        <time>2021-06-01T08:38:10Z</time>
      </trkpt>
      <trkpt lat="45.50106" lon="6.50949">
        <ele>465.4</ele>
        <time>2021-06-01T08:38:11Z</time>
      </trkpt>
      <trkpt lat="45.50112" lon="6.50943">
        <ele>465.4</ele>
        <time>2021-06-01T08:38:12Z</time>
      </trkpt>
      <trkpt lat="45.50118" lon="6.50937">
        <ele>464.8</ele>
        <time>2021-06-01T08:38:13Z</time>
      </trkpt>
      <trkpt lat="45.50124" lon="6.5093">
        <ele>464.6</ele>
        <time>2021-06-01T08:38:14Z</time>
      </trkpt>
      <trkpt lat="45.5013" lon="6.50924">
        <ele>464.2</ele>
        <time>2021-06-01T08:38:15Z</time>
      </trkpt>
      <trkpt lat="45.50137" lon="6.50919">
        <ele>464.2</ele>
        <time>2021-06-01T08:38:16Z</time>
      </trkpt>
      <trkpt lat="45.50143" lon="6.50913">
        <ele>464.2</ele>
        <time>2021-06-01T08:38:17Z</time>
      </trkpt>
      <trkpt lat="45.50149" lon="6.50906">
        <ele>463.6</ele>
        <time>2021-06-01T08:38:18Z</time>
      </trkpt>
      <trkpt lat="45.50156" lon="6.509">
        <ele>463.2</ele>
        <time>2021-06-01T08:38:19Z</time>
      </trkpt>
      <trkpt lat="45.50162" lon="6.50893">
        <ele>463</ele>
        <time>2021-06-01T08:38:20Z</time>
      </trkpt>
      <trkpt lat="45.50168" lon="6.50885">
        <ele>462.6</ele>
        <time>2021-06-01T08:38:21Z</time>
      </trkpt>
      <trkpt lat="45.50173" lon="6.50878">
        <ele>462.4</ele>
        <time>2021-06-01T08:38:22Z</time>
      </trkpt>
      <trkpt lat="45.50179" lon="6.50871">
        <ele>462.2</ele>
        <time>2021-06-01T08:38:23Z</time>
      </trkpt>
      <trkpt lat="45.50185" lon="6.50864">
        <ele>461.8</ele>
        <time>2021-06-01T08:38:24Z</time>
      </trkpt>
      <trkpt lat="45.50191" lon="6.50856">
        <ele>461.6</ele>
        <time>2021-06-01T08:38:25Z</time>
      </trkpt>
      <trkpt lat="45.50197" lon="6.50849">
        <ele>461.4</ele>
        <time>2021-06-01T08:38:26Z</time>
      </trkpt>
      <trkpt lat="45.50203" lon="6.50843">
        <ele>461</ele>
        <time>2021-06-01T08:38:27Z</time>
      </trkpt>
      <trkpt lat="45.5021" lon="6.50837">
        <ele>460.6</ele>
        <time>2021-06-01T08:38:28Z</time>
      </trkpt>
      <trkpt lat="45.50216" lon="6.5083">
        <ele>459.4</ele>
        <time>2021-06-01T08:38:29Z</time>
      </trkpt>
      <trkpt lat="45.50222" lon="6.50824">
        <ele>459.2</ele>
        <time>2021-06-01T08:38:30Z</time>
      </trkpt>
      <trkpt lat="45.50229" lon="6.50818">
        <ele>459</ele>
        <time>2021-06-01T08:38:31Z</time>
      </trkpt>
      <trkpt lat="45.50236" lon="6.50811">
        <ele>459</ele>
        <time>2021-06-01T08:38:32Z</time>
      </trkpt>
      <trkpt lat="45.50243" lon="6.50805">
        <ele>458.6</ele>
        <time>2021-06-01T08:38:33Z</time>
      </trkpt>
      <trkpt lat="45.5025" lon="6.50798">
        <ele>458.4</ele>
        <time>2021-06-01T08:38:34Z</time>
      </trkpt>
      <trkpt lat="45.50256" lon="6.5079">
        <ele>458</ele>
        <time>2021-06-01T08:38:35Z</time>
      </trkpt>
      <trkpt lat="45.50262" lon="6.50781">
        <ele>458</ele>
        <time>2021-06-01T08:38:36Z</time>
      </trkpt>
      <trkpt lat="45.50268" lon="6.50772">
        <ele>457.8</ele>
        <time>2021-06-01T08:38:37Z</time>
      </trkpt>
      <trkpt lat="45.50276" lon="6.50764">
        <ele>457.2</ele>
        <time>2021-06-01T08:38:38Z</time>
      </trkpt>
      <trkpt lat="45.50283" lon="6.50757">
        <ele>456.8</ele>
        <time>2021-06-01T08:38:39Z</time>
      </trkpt>
      <trkpt lat="45.5029" lon="6.50749">
        <ele>456.6</ele>
        <time>2021-06-01T08:38:40Z</time>
      </trkpt>
      <trkpt lat="45.50297" lon="6.50742">
        <ele>456.4</ele>
        <time>2021-06-01T08:38:41Z</time>
      </trkpt>
      <trkpt lat="45.50305" lon="6.50735">
        <ele>456.4</ele>
        <time>2021-06-01T08:38:42Z</time>
      </trkpt>
      <trkpt lat="45.50312" lon="6.50727">
        <ele>456</ele>
        <time>2021-06-01T08:38:43Z</time>
      </trkpt>
      <trkpt lat="45.50319" lon="6.5072">
        <ele>455.6</ele>
        <time>2021-06-01T08:38:44Z</time>
      </trkpt>
      <trkpt lat="45.50326" lon="6.50712">
        <ele>455.4</ele>
        <time>2021-06-01T08:38:45Z</time>
      </trkpt>
      <trkpt lat="45.50333" lon="6.50705">
        <ele>455.2</ele>
        <time>2021-06-01T08:38:46Z</time>
      </trkpt>
      <trkpt lat="45.5034" lon="6.50698">
        <ele>455</ele>
        <time>2021-06-01T08:38:47Z</time>
      </trkpt>
      <trkpt lat="45.50347" lon="6.50692">
        <ele>454.8</ele>
        <time>2021-06-01T08:38:48Z</time>
      </trkpt>
      <trkpt lat="45.50354" lon="6.50686">
        <ele>454.4</ele>
        <time>2021-06-01T08:38:49Z</time>
      </trkpt>
      <trkpt lat="45.50361" lon="6.5068">
        <ele>454.4</ele>
        <time>2021-06-01T08:38:50Z</time>
      </trkpt>
      <trkpt lat="45.50367" lon="6.50674">
        <ele>454.2</ele>
        <time>2021-06-01T08:38:51Z</time>
      </trkpt>
      <trkpt lat="45.50373" lon="6.50668">
        <ele>453.8</ele>
        <time>2021-06-01T08:38:52Z</time>
      </trkpt>
      <trkpt lat="45.5038" lon="6.50662">
        <ele>453.8</ele>
        <time>2021-06-01T08:38:53Z</time>
      </trkpt>
      <trkpt lat="45.50387" lon="6.50656">
        <ele>453.8</ele>
        <time>2021-06-01T08:38:54Z</time>
      </trkpt>
      <trkpt lat="45.50393" lon="6.5065">
        <ele>453.4</ele>
        <time>2021-06-01T08:38:55Z</time>
      </trkpt>
      <trkpt lat="45.50398" lon="6.50643">
        <ele>452.8</ele>
        <time>2021-06-01T08:38:56Z</time>
      </trkpt>
      <trkpt lat="45.50404" lon="6.50637">
        <ele>452.8</ele>
        <time>2021-06-01T08:38:57Z</time>
      </trkpt>
      <trkpt lat="45.50411" lon="6.50632">
        <ele>452.4</ele>
        <time>2021-06-01T08:38:58Z</time>
      </trkpt>
      <trkpt lat="45.50417" lon="6.50625">
        <ele>452.2</ele>
        <time>2021-06-01T08:38:59Z</time>
      </trkpt>
      <trkpt lat="45.50423" lon="6.50619">
        <ele>451.4</ele>
        <time>2021-06-01T08:39:00Z</time>
      </trkpt>
      <trkpt lat="45.50429" lon="6.50612">
        <ele>450.6</ele>
        <time>2021-06-01T08:39:01Z</time>
      </trkpt>
      <trkpt lat="45.50436" lon="6.50606">
        <ele>449.6</ele>
        <time>2021-06-01T08:39:02Z</time>
      </trkpt>
      <trkpt lat="45.50442" lon="6.50599">
        <ele>448.6</ele>
        <time>2021-06-01T08:39:03Z</time>
      </trkpt>
      <trkpt lat="45.50449" lon="6.50593">
        <ele>448</ele>
        <time>2021-06-01T08:39:04Z</time>
      </trkpt>
      <trkpt lat="45.50455" lon="6.50587">
        <ele>447.6</ele>
        <time>2021-06-01T08:39:05Z</time>
      </trkpt>
      <trkpt lat="45.50462" lon="6.50581">
        <ele>447.2</ele>
        <time>2021-06-01T08:39:06Z</time>
      </trkpt>
      <trkpt lat="45.50469" lon="6.50574">
        <ele>447</ele>
        <time>2021-06-01T08:39:07Z</time>
      </trkpt>
      <trkpt lat="45.50475" lon="6.50567">
        <ele>446.6</ele>
        <time>2021-06-01T08:39:08Z</time>
      </trkpt>
      <trkpt lat="45.50482" lon="6.5056">
        <ele>446.4</ele>
        <time>2021-06-01T08:39:09Z</time>
      </trkpt>
      <trkpt lat="45.50489" lon="6.50553">
        <ele>446.2</ele>
        <time>2021-06-01T08:39:10Z</time>
      </trkpt>
      <trkpt lat="45.50495" lon="6.50547">
        <ele>445.8</ele>
        <time>2021-06-01T08:39:11Z</time>
      </trkpt>
      <trkpt lat="45.50502" lon="6.5054">
        <ele>445.6</ele>
        <time>2021-06-01T08:39:12Z</time>
      </trkpt>
      <trkpt lat="45.50508" lon="6.50533">
        <ele>445.4</ele>
        <time>2021-06-01T08:39:13Z</time>
      </trkpt>
      <trkpt lat="45.50515" lon="6.50526">
        <ele>445</ele>
        <time>2021-06-01T08:39:14Z</time>
      </trkpt>
      <trkpt lat="45.50521" lon="6.5052">
        <ele>445</ele>
        <time>2021-06-01T08:39:15Z</time>
      </trkpt>
      <trkpt lat="45.50528" lon="6.50513">
        <ele>444.8</ele>
        <time>2021-06-01T08:39:16Z</time>
      </trkpt>
      <trkpt lat="45.50535" lon="6.50506">
        <ele>444.4</ele>
        <time>2021-06-01T08:39:17Z</time>
      </trkpt>
      <trkpt lat="45.50542" lon="6.50499">
        <ele>444.2</ele>
        <time>2021-06-01T08:39:18Z</time>
      </trkpt>
      <trkpt lat="45.50548" lon="6.50492">
        <ele>444.2</ele>
        <time>2021-06-01T08:39:19Z</time>
      </trkpt>
      <trkpt lat="45.50555" lon="6.50486">
        <ele>444.2</ele>
        <time>2021-06-01T08:39:20Z</time>
      </trkpt>
      <trkpt lat="45.50563" lon="6.50481">
        <ele>444</ele>
        <time>2021-06-01T08:39:21Z</time>
      </trkpt>
      <trkpt lat="45.5057" lon="6.50475">
        <ele>443.8</ele>
        <time>2021-06-01T08:39:22Z</time>
      </trkpt>
      <trkpt lat="45.50577" lon="6.50469">
        <ele>443.6</ele>
        <time>2021-06-01T08:39:23Z</time>
      </trkpt>
      <trkpt lat="45.50583" lon="6.50462">
        <ele>443.4</ele>
        <time>2021-06-01T08:39:24Z</time>
      </trkpt>
      <trkpt lat="45.50589" lon="6.50454">
        <ele>442.8</ele>
        <time>2021-06-01T08:39:25Z</time>
      </trkpt>
      <trkpt lat="45.50596" lon="6.50446">
        <ele>442.8</ele>
        <time>2021-06-01T08:39:26Z</time>
      </trkpt>
      <trkpt lat="45.50602" lon="6.50438">
        <ele>442.2</ele>
        <time>2021-06-01T08:39:27Z</time>
      </trkpt>
      <trkpt lat="45.50608" lon="6.50431">
        <ele>442.2</ele>
        <time>2021-06-01T08:39:28Z</time>
      </trkpt>
      <trkpt lat="45.50615" lon="6.50424">
        <ele>442.4</ele>
        <time>2021-06-01T08:39:29Z</time>
      </trkpt>
      <trkpt lat="45.50621" lon="6.50417">
        <ele>442.2</ele>
        <time>2021-06-01T08:39:30Z</time>
      </trkpt>
      <trkpt lat="45.50628" lon="6.5041">
        <ele>442</ele>
        <time>2021-06-01T08:39:31Z</time>
      </trkpt>
      <trkpt lat="45.50635" lon="6.50403">
        <ele>442</ele>
        <time>2021-06-01T08:39:32Z</time>
      </trkpt>
      <trkpt lat="45.50642" lon="6.50397">
        <ele>442</ele>
        <time>2021-06-01T08:39:33Z</time>
      </trkpt>
      <trkpt lat="45.50648" lon="6.5039">
        <ele>441.8</ele>
        <time>2021-06-01T08:39:34Z</time>
      </trkpt>
      <trkpt lat="45.50655" lon="6.50383">
        <ele>441.6</ele>
        <time>2021-06-01T08:39:35Z</time>
      </trkpt>
      <trkpt lat="45.50661" lon="6.50376">
        <ele>441.6</ele>
        <time>2021-06-01T08:39:36Z</time>
      </trkpt>
      <trkpt lat="45.50668" lon="6.50369">
        <ele>441.4</ele>
        <time>2021-06-01T08:39:37Z</time>
      </trkpt>
      <trkpt lat="45.50675" lon="6.50362">
        <ele>441.4</ele>
        <time>2021-06-01T08:39:38Z</time>
      </trkpt>
      <trkpt lat="45.50681" lon="6.50355">
        <ele>441.8</ele>
        <time>2021-06-01T08:39:39Z</time>
      </trkpt>
      <trkpt lat="45.50687" lon="6.50348">
        <ele>441.6</ele>
        <time>2021-06-01T08:39:40Z</time>
      </trkpt>
      <trkpt lat="45.50693" lon="6.50341">
        <ele>441.4</ele>
        <time>2021-06-01T08:39:41Z</time>
      </trkpt>
      <trkpt lat="45.507" lon="6.50333">
        <ele>441.6</ele>
        <time>2021-06-01T08:39:42Z</time>
      </trkpt>
      <trkpt lat="45.50707" lon="6.50326">
        <ele>441.4</ele>
        <time>2021-06-01T08:39:43Z</time>
      </trkpt>
      <trkpt lat="45.50713" lon="6.50319">
        <ele>441.6</ele>
        <time>2021-06-01T08:39:44Z</time>
      </trkpt>
      <trkpt lat="45.5072" lon="6.50313">
        <ele>441.6</ele>
        <time>2021-06-01T08:39:45Z</time>
      </trkpt>
      <trkpt lat="45.50727" lon="6.50307">
        <ele>441.4</ele>
        <time>2021-06-01T08:39:46Z</time>
      </trkpt>
      <trkpt lat="45.50734" lon="6.50301">
        <ele>441.4</ele>
        <time>2021-06-01T08:39:47Z</time>
      </trkpt>
      <trkpt lat="45.50741" lon="6.50294">
        <ele>441.6</ele>
        <time>2021-06-01T08:39:48Z</time>
      </trkpt>
      <trkpt lat="45.50748" lon="6.50287">
        <ele>441.6</ele>
        <time>2021-06-01T08:39:49Z</time>
      </trkpt>
      <trkpt lat="45.50756" lon="6.5028">
        <ele>441.4</ele>
        <time>2021-06-01T08:39:50Z</time>
      </trkpt>
      <trkpt lat="45.50763" lon="6.50274">
        <ele>441.4</ele>
        <time>2021-06-01T08:39:51Z</time>
      </trkpt>
      <trkpt lat="45.5077" lon="6.50267">
        <ele>441.2</ele>
        <time>2021-06-01T08:39:52Z</time>
      </trkpt>
      <trkpt lat="45.50777" lon="6.5026">
        <ele>441.2</ele>
        <time>2021-06-01T08:39:53Z</time>
      </trkpt>
      <trkpt lat="45.50784" lon="6.50253">
        <ele>441.2</ele>
        <time>2021-06-01T08:39:54Z</time>
      </trkpt>
      <trkpt lat="45.50791" lon="6.50246">
        <ele>441.8</ele>
        <time>2021-06-01T08:39:55Z</time>
      </trkpt>
      <trkpt lat="45.50798" lon="6.50239">
        <ele>442</ele>
        <time>2021-06-01T08:39:56Z</time>
      </trkpt>
      <trkpt lat="45.50805" lon="6.50232">
        <ele>441.8</ele>
        <time>2021-06-01T08:39:57Z</time>
      </trkpt>
      <trkpt lat="45.50812" lon="6.50225">
        <ele>441.6</ele>
        <time>2021-06-01T08:39:58Z</time>
      </trkpt>
      <trkpt lat="45.50818" lon="6.50218">
        <ele>442.4</ele>
        <time>2021-06-01T08:39:59Z</time>
      </trkpt>
      <trkpt lat="45.50826" lon="6.50212">
        <ele>442.4</ele>
        <time>2021-06-01T08:40:00Z</time>
      </trkpt>
      <trkpt lat="45.50833" lon="6.50205">
        <ele>443.4</ele>
        <time>2021-06-01T08:40:01Z</time>
      </trkpt>
      <trkpt lat="45.5084" lon="6.50198">
        <ele>444.2</ele>
        <time>2021-06-01T08:40:02Z</time>
      </trkpt>
      <trkpt lat="45.50846" lon="6.5019">
        <ele>444</ele>
        <time>2021-06-01T08:40:03Z</time>
      </trkpt>
      <trkpt lat="45.50853" lon="6.50183">
        <ele>444.2</ele>
        <time>2021-06-01T08:40:04Z</time>
      </trkpt>
      <trkpt lat="45.5086" lon="6.50177">
        <ele>444.4</ele>
        <time>2021-06-01T08:40:05Z</time>
      </trkpt>
      <trkpt lat="45.50868" lon="6.50171">
        <ele>444.6</ele>
        <time>2021-06-01T08:40:06Z</time>
      </trkpt>
      <trkpt lat="45.50876" lon="6.50165">
        <ele>444.4</ele>
        <time>2021-06-01T08:40:07Z</time>
      </trkpt>
      <trkpt lat="45.50883" lon="6.50159">
        <ele>444.6</ele>
        <time>2021-06-01T08:40:08Z</time>
      </trkpt>
      <trkpt lat="45.5089" lon="6.50152">
        <ele>444.6</ele>
        <time>2021-06-01T08:40:09Z</time>
      </trkpt>
      <trkpt lat="45.50898" lon="6.50145">
        <ele>444.6</ele>
        <time>2021-06-01T08:40:10Z</time>
      </trkpt>
      <trkpt lat="45.50904" lon="6.50138">
        <ele>444.8</ele>
        <time>2021-06-01T08:40:11Z</time>
      </trkpt>
      <trkpt lat="45.50911" lon="6.5013">
        <ele>444.8</ele>
        <time>2021-06-01T08:40:12Z</time>
      </trkpt>
      <trkpt lat="45.50919" lon="6.50123">
        <ele>444.8</ele>
        <time>2021-06-01T08:40:13Z</time>
      </trkpt>
      <trkpt lat="45.50925" lon="6.50116">
        <ele>444.8</ele>
        <time>2021-06-01T08:40:14Z</time>
      </trkpt>
      <trkpt lat="45.50932" lon="6.50109">
        <ele>444.4</ele>
        <time>2021-06-01T08:40:15Z</time>
      </trkpt>
      <trkpt lat="45.50939" lon="6.50101">
        <ele>444.6</ele>
        <time>2021-06-01T08:40:16Z</time>
      </trkpt>
      <trkpt lat="45.50945" lon="6.50094">
        <ele>444.6</ele>
        <time>2021-06-01T08:40:17Z</time>
      </trkpt>
      <trkpt lat="45.50951" lon="6.50088">
        <ele>444.8</ele>
        <time>2021-06-01T08:40:18Z</time>
      </trkpt>
      <trkpt lat="45.50957" lon="6.50081">
        <ele>444.8</ele>
        <time>2021-06-01T08:40:19Z</time>
      </trkpt>
      <trkpt lat="45.50964" lon="6.50075">
        <ele>445.2</ele>
        <time>2021-06-01T08:40:20Z</time>
      </trkpt>
      <trkpt lat="45.50971" lon="6.50068">
        <ele>445.2</ele>
        <time>2021-06-01T08:40:21Z</time>
      </trkpt>
      <trkpt lat="45.50977" lon="6.50062">
        <ele>445.2</ele>
        <time>2021-06-01T08:40:22Z</time>
      </trkpt>
      <trkpt lat="45.50984" lon="6.50056">
        <ele>445</ele>
        <time>2021-06-01T08:40:23Z</time>
      </trkpt>
      <trkpt lat="45.50991" lon="6.5005">
        <ele>445</ele>
        <time>2021-06-01T08:40:24Z</time>
      </trkpt>
      <trkpt lat="45.50997" lon="6.50044">
        <ele>445</ele>
        <time>2021-06-01T08:40:25Z</time>
      </trkpt>
      <trkpt lat="45.51004" lon="6.50038">
        <ele>444.6</ele>
        <time>2021-06-01T08:40:26Z</time>
      </trkpt>
      <trkpt lat="45.51011" lon="6.50032">
        <ele>444.6</ele>
        <time>2021-06-01T08:40:27Z</time>
      </trkpt>
      <trkpt lat="45.51018" lon="6.50025">
        <ele>444.8</ele>
        <time>2021-06-01T08:40:28Z</time>
      </trkpt>
      <trkpt lat="45.51025" lon="6.50019">
        <ele>444.6</ele>
        <time>2021-06-01T08:40:29Z</time>
      </trkpt>
      <trkpt lat="45.51032" lon="6.50012">
        <ele>444.8</ele>
        <time>2021-06-01T08:40:30Z</time>
      </trkpt>
      <trkpt lat="45.51038" lon="6.50005">
        <ele>444.6</ele>
        <time>2021-06-01T08:40:31Z</time>
      </trkpt>
      <trkpt lat="45.51045" lon="6.49999">
        <ele>444.8</ele>
        <time>2021-06-01T08:40:32Z</time>
      </trkpt>
      <trkpt lat="45.51051" lon="6.49993">
        <ele>444.8</ele>
        <time>2021-06-01T08:40:33Z</time>
      </trkpt>
      <trkpt lat="45.51058" lon="6.49986">
        <ele>444.6</ele>
        <time>2021-06-01T08:40:34Z</time>
      </trkpt>
      <trkpt lat="45.51066" lon="6.4998">
        <ele>444.6</ele>
        <time>2021-06-01T08:40:35Z</time>
      </trkpt>
      <trkpt lat="45.51073" lon="6.49973">
        <ele>444.6</ele>
        <time>2021-06-01T08:40:36Z</time>
      </trkpt>
      <trkpt lat="45.5108" lon="6.49967">
        <ele>444.6</ele>
        <time>2021-06-01T08:40:37Z</time>
      </trkpt>
      <trkpt lat="45.51087" lon="6.49961">
        <ele>444.6</ele>
        <time>2021-06-01T08:40:38Z</time>
      </trkpt>
      <trkpt lat="45.51094" lon="6.49954">
        <ele>444.8</ele>
        <time>2021-06-01T08:40:39Z</time>
      </trkpt>
      <trkpt lat="45.511" lon="6.49948">
        <ele>444.6</ele>
        <time>2021-06-01T08:40:40Z</time>
      </trkpt>
      <trkpt lat="45.51107" lon="6.49941">
        <ele>444.8</ele>
        <time>2021-06-01T08:40:41Z</time>
      </trkpt>
      <trkpt lat="45.51113" lon="6.49934">
        <ele>445</ele>
        <time>2021-06-01T08:40:42Z</time>
      </trkpt>
      <trkpt lat="45.51118" lon="6.49927">
        <ele>444.8</ele>
        <time>2021-06-01T08:40:43Z</time>
      </trkpt>
      <trkpt lat="45.51124" lon="6.4992">
        <ele>444.8</ele>
        <time>2021-06-01T08:40:44Z</time>
      </trkpt>
      <trkpt lat="45.5113" lon="6.49912">
        <ele>444.8</ele>
        <time>2021-06-01T08:40:45Z</time>
      </trkpt>
      <trkpt lat="45.51135" lon="6.49905">
        <ele>444.8</ele>
        <time>2021-06-01T08:40:46Z</time>
      </trkpt>
      <trkpt lat="45.5114" lon="6.49897">
        <ele>445</ele>
        <time>2021-06-01T08:40:47Z</time>
      </trkpt>
      <trkpt lat="45.51146" lon="6.49889">
        <ele>445.2</ele>
        <time>2021-06-01T08:40:48Z</time>
      </trkpt>
      <trkpt lat="45.51151" lon="6.49882">
        <ele>445.6</ele>
        <time>2021-06-01T08:40:49Z</time>
      </trkpt>
      <trkpt lat="45.51156" lon="6.49873">
        <ele>445.2</ele>
        <time>2021-06-01T08:40:50Z</time>
      </trkpt>
      <trkpt lat="45.51161" lon="6.49866">
        <ele>445</ele>
        <time>2021-06-01T08:40:51Z</time>
      </trkpt>
      <trkpt lat="45.51166" lon="6.4986">
        <ele>444.8</ele>
        <time>2021-06-01T08:40:52Z</time>
      </trkpt>
      <trkpt lat="45.5117" lon="6.49853">
        <ele>444.6</ele>
        <time>2021-06-01T08:40:53Z</time>
      </trkpt>
      <trkpt lat="45.51175" lon="6.49845">
        <ele>444.8</ele>
        <time>2021-06-01T08:40:54Z</time>
      </trkpt>
      <trkpt lat="45.51179" lon="6.49838">
        <ele>445</ele>
        <time>2021-06-01T08:40:55Z</time>
      </trkpt>
      <trkpt lat="45.51183" lon="6.49831">
        <ele>445</ele>
        <time>2021-06-01T08:40:56Z</time>
      </trkpt>
      <trkpt lat="45.51187" lon="6.49824">
        <ele>445.4</ele>
        <time>2021-06-01T08:40:57Z</time>
      </trkpt>
      <trkpt lat="45.51191" lon="6.49817">
        <ele>445.8</ele>
        <time>2021-06-01T08:40:58Z</time>
      </trkpt>
      <trkpt lat="45.51196" lon="6.4981">
        <ele>446</ele>
        <time>2021-06-01T08:40:59Z</time>
      </trkpt>
      <trkpt lat="45.512" lon="6.49803">
        <ele>446.4</ele>
        <time>2021-06-01T08:41:00Z</time>
      </trkpt>
      <trkpt lat="45.51204" lon="6.49797">
        <ele>447.2</ele>
        <time>2021-06-01T08:41:01Z</time>
      </trkpt>
      <trkpt lat="45.51208" lon="6.49791">
        <ele>447.6</ele>
        <time>2021-06-01T08:41:02Z</time>
      </trkpt>
      <trkpt lat="45.51212" lon="6.49786">
        <ele>447.8</ele>
        <time>2021-06-01T08:41:03Z</time>
      </trkpt>
      <trkpt lat="45.51216" lon="6.4978">
        <ele>447.8</ele>
        <time>2021-06-01T08:41:04Z</time>
      </trkpt>
      <trkpt lat="45.5122" lon="6.49774">
        <ele>447.8</ele>
        <time>2021-06-01T08:41:05Z</time>
      </trkpt>
      <trkpt lat="45.51224" lon="6.49768">
        <ele>447.6</ele>
        <time>2021-06-01T08:41:06Z</time>
      </trkpt>
      <trkpt lat="45.51227" lon="6.49761">
        <ele>447.6</ele>
        <time>2021-06-01T08:41:07Z</time>
      </trkpt>
      <trkpt lat="45.5123" lon="6.49754">
        <ele>447.4</ele>
        <time>2021-06-01T08:41:08Z</time>
      </trkpt>
      <trkpt lat="45.51233" lon="6.49746">
        <ele>447.6</ele>
        <time>2021-06-01T08:41:09Z</time>
      </trkpt>
      <trkpt lat="45.51236" lon="6.49738">
        <ele>448</ele>
        <time>2021-06-01T08:41:10Z</time>
      </trkpt>
      <trkpt lat="45.51239" lon="6.4973">
        <ele>448.4</ele>
        <time>2021-06-01T08:41:11Z</time>
      </trkpt>
      <trkpt lat="45.51243" lon="6.49722">
        <ele>448.8</ele>
        <time>2021-06-01T08:41:12Z</time>
      </trkpt>
      <trkpt lat="45.51246" lon="6.49715">
        <ele>449.2</ele>
        <time>2021-06-01T08:41:13Z</time>
      </trkpt>
      <trkpt lat="45.51251" lon="6.49709">
        <ele>449.8</ele>
        <time>2021-06-01T08:41:14Z</time>
      </trkpt>
      <trkpt lat="45.51256" lon="6.49704">
        <ele>450.2</ele>
        <time>2021-06-01T08:41:15Z</time>
      </trkpt>
      <trkpt lat="45.51261" lon="6.497">
        <ele>451</ele>
        <time>2021-06-01T08:41:16Z</time>
      </trkpt>
      <trkpt lat="45.51266" lon="6.49697">
        <ele>451.2</ele>
        <time>2021-06-01T08:41:17Z</time>
      </trkpt>
      <trkpt lat="45.51271" lon="6.49695">
        <ele>451.2</ele>
        <time>2021-06-01T08:41:18Z</time>
      </trkpt>
      <trkpt lat="45.51275" lon="6.49693">
        <ele>451.6</ele>
        <time>2021-06-01T08:41:19Z</time>
      </trkpt>
      <trkpt lat="45.51281" lon="6.49693">
        <ele>452</ele>
        <time>2021-06-01T08:41:20Z</time>
      </trkpt>
      <trkpt lat="45.51285" lon="6.49691">
        <ele>452.2</ele>
        <time>2021-06-01T08:41:21Z</time>
      </trkpt>
      <trkpt lat="45.5129" lon="6.4969">
        <ele>452.2</ele>
        <time>2021-06-01T08:41:22Z</time>
      </trkpt>
      <trkpt lat="45.51295" lon="6.49689">
        <ele>452</ele>
        <time>2021-06-01T08:41:23Z</time>
      </trkpt>
      <trkpt lat="45.513" lon="6.49687">
        <ele>452.2</ele>
        <time>2021-06-01T08:41:24Z</time>
      </trkpt>
      <trkpt lat="45.51304" lon="6.49684">
        <ele>452</ele>
        <time>2021-06-01T08:41:25Z</time>
      </trkpt>
      <trkpt lat="45.51339" lon="6.49658">
        <ele>455.4</ele>
        <time>2021-06-01T08:41:34Z</time>
      </trkpt>
      <trkpt lat="45.51339" lon="6.49636">
        <ele>455.8</ele>
        <time>2021-06-01T08:41:35Z</time>
      </trkpt>
      <trkpt lat="45.51344" lon="6.49637">
        <ele>456.2</ele>
        <time>2021-06-01T08:41:36Z</time>
      </trkpt>
      <trkpt lat="45.5135" lon="6.49637">
        <ele>456.2</ele>
        <time>2021-06-01T08:41:37Z</time>
      </trkpt>
      <trkpt lat="45.51352" lon="6.49635">
        <ele>456.6</ele>
        <time>2021-06-01T08:41:38Z</time>
      </trkpt>
      <trkpt lat="45.51353" lon="6.49629">
        <ele>457</ele>
        <time>2021-06-01T08:41:39Z</time>
      </trkpt>
      <trkpt lat="45.51353" lon="6.49623">
        <ele>457.4</ele>
        <time>2021-06-01T08:41:40Z</time>
      </trkpt>
      <trkpt lat="45.51354" lon="6.49617">
        <ele>457.6</ele>
        <time>2021-06-01T08:41:41Z</time>
      </trkpt>
      <trkpt lat="45.51354" lon="6.4961">
        <ele>458</ele>
        <time>2021-06-01T08:41:42Z</time>
      </trkpt>
      <trkpt lat="45.51354" lon="6.49602">
        <ele>458.4</ele>
        <time>2021-06-01T08:41:43Z</time>
      </trkpt>
      <trkpt lat="45.51355" lon="6.49595">
        <ele>458.6</ele>
        <time>2021-06-01T08:41:44Z</time>
      </trkpt>
      <trkpt lat="45.51357" lon="6.49588">
        <ele>459.2</ele>
        <time>2021-06-01T08:41:45Z</time>
      </trkpt>
      <trkpt lat="45.5136" lon="6.49582">
        <ele>459.6</ele>
        <time>2021-06-01T08:41:46Z</time>
      </trkpt>
      <trkpt lat="45.51363" lon="6.49578">
        <ele>459.8</ele>
        <time>2021-06-01T08:41:47Z</time>
      </trkpt>
      <trkpt lat="45.51366" lon="6.49573">
        <ele>460</ele>
        <time>2021-06-01T08:41:48Z</time>
      </trkpt>
      <trkpt lat="45.5137" lon="6.49568">
        <ele>460.4</ele>
        <time>2021-06-01T08:41:49Z</time>
      </trkpt>
      <trkpt lat="45.51372" lon="6.49562">
        <ele>460.6</ele>
        <time>2021-06-01T08:41:50Z</time>
      </trkpt>
      <trkpt lat="45.51373" lon="6.49555">
        <ele>460.8</ele>
        <time>2021-06-01T08:41:51Z</time>
      </trkpt>
      <trkpt lat="45.51372" lon="6.49547">
        <ele>461.4</ele>
        <time>2021-06-01T08:41:52Z</time>
      </trkpt>
      <trkpt lat="45.51373" lon="6.4954">
        <ele>461.6</ele>
        <time>2021-06-01T08:41:53Z</time>
      </trkpt>
      <trkpt lat="45.51373" lon="6.49534">
        <ele>462</ele>
        <time>2021-06-01T08:41:54Z</time>
      </trkpt>
      <trkpt lat="45.51373" lon="6.49526">
        <ele>462.4</ele>
        <time>2021-06-01T08:41:55Z</time>
      </trkpt>
      <trkpt lat="45.51373" lon="6.49519">
        <ele>462.8</ele>
        <time>2021-06-01T08:41:56Z</time>
      </trkpt>
      <trkpt lat="45.51373" lon="6.49512">
        <ele>463.2</ele>
        <time>2021-06-01T08:41:57Z</time>
      </trkpt>
      <trkpt lat="45.51372" lon="6.49504">
        <ele>463.6</ele>
        <time>2021-06-01T08:41:58Z</time>
      </trkpt>
      <trkpt lat="45.51372" lon="6.49498">
        <ele>463.8</ele>
        <time>2021-06-01T08:41:59Z</time>
      </trkpt>
      <trkpt lat="45.51372" lon="6.49491">
        <ele>464.2</ele>
        <time>2021-06-01T08:42:00Z</time>
      </trkpt>
      <trkpt lat="45.51372" lon="6.49483">
        <ele>464.8</ele>
        <time>2021-06-01T08:42:01Z</time>
      </trkpt>
      <trkpt lat="45.51372" lon="6.49476">
        <ele>465</ele>
        <time>2021-06-01T08:42:02Z</time>
      </trkpt>
      <trkpt lat="45.51372" lon="6.49469">
        <ele>465.4</ele>
        <time>2021-06-01T08:42:03Z</time>
      </trkpt>
      <trkpt lat="45.51372" lon="6.49462">
        <ele>465.6</ele>
        <time>2021-06-01T08:42:04Z</time>
      </trkpt>
      <trkpt lat="45.51372" lon="6.49455">
        <ele>466</ele>
        <time>2021-06-01T08:42:05Z</time>
      </trkpt>
      <trkpt lat="45.51372" lon="6.49449">
        <ele>466.4</ele>
        <time>2021-06-01T08:42:06Z</time>
      </trkpt>
      <trkpt lat="45.51373" lon="6.49442">
        <ele>466.8</ele>
        <time>2021-06-01T08:42:07Z</time>
      </trkpt>
      <trkpt lat="45.51374" lon="6.49436">
        <ele>467.2</ele>
        <time>2021-06-01T08:42:08Z</time>
      </trkpt>
      <trkpt lat="45.51374" lon="6.49429">
        <ele>467.8</ele>
        <time>2021-06-01T08:42:09Z</time>
      </trkpt>
      <trkpt lat="45.51375" lon="6.49423">
        <ele>468.2</ele>
        <time>2021-06-01T08:42:10Z</time>
      </trkpt>
      <trkpt lat="45.51376" lon="6.49416">
        <ele>468.6</ele>
        <time>2021-06-01T08:42:11Z</time>
      </trkpt>
      <trkpt lat="45.51376" lon="6.4941">
        <ele>468.6</ele>
        <time>2021-06-01T08:42:12Z</time>
      </trkpt>
      <trkpt lat="45.51376" lon="6.49405">
        <ele>468.4</ele>
        <time>2021-06-01T08:42:13Z</time>
      </trkpt>
      <trkpt lat="45.51376" lon="6.49401">
        <ele>467.8</ele>
        <time>2021-06-01T08:42:14Z</time>
      </trkpt>
      <trkpt lat="45.51377" lon="6.49397">
        <ele>467.6</ele>
        <time>2021-06-01T08:42:15Z</time>
      </trkpt>
      <trkpt lat="45.51378" lon="6.49393">
        <ele>467.4</ele>
        <time>2021-06-01T08:42:16Z</time>
      </trkpt>
      <trkpt lat="45.5138" lon="6.4939">
        <ele>467</ele>
        <time>2021-06-01T08:42:17Z</time>
      </trkpt>
      <trkpt lat="45.51382" lon="6.49386">
        <ele>466.8</ele>
        <time>2021-06-01T08:42:18Z</time>
      </trkpt>
      <trkpt lat="45.51384" lon="6.49381">
        <ele>466.6</ele>
        <time>2021-06-01T08:42:19Z</time>
      </trkpt>
      <trkpt lat="45.51386" lon="6.49377">
        <ele>466.4</ele>
        <time>2021-06-01T08:42:20Z</time>
      </trkpt>
      <trkpt lat="45.51389" lon="6.49372">
        <ele>466.2</ele>
        <time>2021-06-01T08:42:21Z</time>
      </trkpt>
      <trkpt lat="45.51393" lon="6.49369">
        <ele>466</ele>
        <time>2021-06-01T08:42:22Z</time>
      </trkpt>
      <trkpt lat="45.51396" lon="6.49366">
        <ele>466.2</ele>
        <time>2021-06-01T08:42:23Z</time>
      </trkpt>
      <trkpt lat="45.51401" lon="6.49363">
        <ele>466.2</ele>
        <time>2021-06-01T08:42:24Z</time>
      </trkpt>
      <trkpt lat="45.51405" lon="6.4936">
        <ele>466.2</ele>
        <time>2021-06-01T08:42:25Z</time>
      </trkpt>
      <trkpt lat="45.51409" lon="6.49357">
        <ele>466.2</ele>
        <time>2021-06-01T08:42:26Z</time>
      </trkpt>
      <trkpt lat="45.51413" lon="6.49354">
        <ele>466</ele>
        <time>2021-06-01T08:42:27Z</time>
      </trkpt>
      <trkpt lat="45.51418" lon="6.4935">
        <ele>466</ele>
        <time>2021-06-01T08:42:28Z</time>
      </trkpt>
      <trkpt lat="45.51421" lon="6.49346">
        <ele>466.2</ele>
        <time>2021-06-01T08:42:29Z</time>
      </trkpt>
      <trkpt lat="45.51425" lon="6.49342">
        <ele>466.4</ele>
        <time>2021-06-01T08:42:30Z</time>
      </trkpt>
      <trkpt lat="45.51428" lon="6.49337">
        <ele>466.4</ele>
        <time>2021-06-01T08:42:31Z</time>
      </trkpt>
      <trkpt lat="45.51432" lon="6.49332">
        <ele>466.6</ele>
        <time>2021-06-01T08:42:32Z</time>
      </trkpt>
      <trkpt lat="45.51436" lon="6.49327">
        <ele>466.8</ele>
        <time>2021-06-01T08:42:33Z</time>
      </trkpt>
      <trkpt lat="45.51439" lon="6.49321">
        <ele>467.2</ele>
        <time>2021-06-01T08:42:34Z</time>
      </trkpt>
      <trkpt lat="45.51442" lon="6.49316">
        <ele>467.2</ele>
        <time>2021-06-01T08:42:35Z</time>
      </trkpt>
      <trkpt lat="45.51446" lon="6.4931">
        <ele>467.2</ele>
        <time>2021-06-01T08:42:36Z</time>
      </trkpt>
      <trkpt lat="45.51449" lon="6.49305">
        <ele>467.4</ele>
        <time>2021-06-01T08:42:37Z</time>
      </trkpt>
      <trkpt lat="45.51452" lon="6.493">
        <ele>467.6</ele>
        <time>2021-06-01T08:42:38Z</time>
      </trkpt>
      <trkpt lat="45.51456" lon="6.49295">
        <ele>467.8</ele>
        <time>2021-06-01T08:42:39Z</time>
      </trkpt>
      <trkpt lat="45.51459" lon="6.4929">
        <ele>468</ele>
        <time>2021-06-01T08:42:40Z</time>
      </trkpt>
      <trkpt lat="45.51462" lon="6.49285">
        <ele>468.2</ele>
        <time>2021-06-01T08:42:41Z</time>
      </trkpt>
      <trkpt lat="45.51466" lon="6.4928">
        <ele>468.8</ele>
        <time>2021-06-01T08:42:42Z</time>
      </trkpt>
      <trkpt lat="45.5147" lon="6.49275">
        <ele>468.8</ele>
        <time>2021-06-01T08:42:43Z</time>
      </trkpt>
      <trkpt lat="45.51474" lon="6.49269">
        <ele>468.8</ele>
        <time>2021-06-01T08:42:44Z</time>
      </trkpt>
      <trkpt lat="45.51478" lon="6.49263">
        <ele>469</ele>
        <time>2021-06-01T08:42:45Z</time>
      </trkpt>
      <trkpt lat="45.51482" lon="6.49258">
        <ele>469.4</ele>
        <time>2021-06-01T08:42:46Z</time>
      </trkpt>
      <trkpt lat="45.51485" lon="6.49252">
        <ele>469.8</ele>
        <time>2021-06-01T08:42:47Z</time>
      </trkpt>
      <trkpt lat="45.51489" lon="6.49247">
        <ele>470.2</ele>
        <time>2021-06-01T08:42:48Z</time>
      </trkpt>
      <trkpt lat="45.51493" lon="6.49241">
        <ele>470.6</ele>
        <time>2021-06-01T08:42:49Z</time>
      </trkpt>
      <trkpt lat="45.51497" lon="6.49235">
        <ele>470.8</ele>
        <time>2021-06-01T08:42:50Z</time>
      </trkpt>
      <trkpt lat="45.515" lon="6.49229">
        <ele>471.6</ele>
        <time>2021-06-01T08:42:51Z</time>
      </trkpt>
      <trkpt lat="45.51504" lon="6.49223">
        <ele>471.6</ele>
        <time>2021-06-01T08:42:52Z</time>
      </trkpt>
      <trkpt lat="45.51509" lon="6.49218">
        <ele>472</ele>
        <time>2021-06-01T08:42:53Z</time>
      </trkpt>
      <trkpt lat="45.51513" lon="6.49212">
        <ele>472.2</ele>
        <time>2021-06-01T08:42:54Z</time>
      </trkpt>
      <trkpt lat="45.51516" lon="6.49206">
        <ele>472.4</ele>
        <time>2021-06-01T08:42:55Z</time>
      </trkpt>
      <trkpt lat="45.51521" lon="6.49199">
        <ele>472.8</ele>
        <time>2021-06-01T08:42:56Z</time>
      </trkpt>
      <trkpt lat="45.51524" lon="6.49193">
        <ele>473.2</ele>
        <time>2021-06-01T08:42:57Z</time>
      </trkpt>
      <trkpt lat="45.51528" lon="6.49186">
        <ele>473.8</ele>
        <time>2021-06-01T08:42:58Z</time>
      </trkpt>
      <trkpt lat="45.51532" lon="6.4918">
        <ele>474.2</ele>
        <time>2021-06-01T08:42:59Z</time>
      </trkpt>
      <trkpt lat="45.51535" lon="6.49173">
        <ele>474.8</ele>
        <time>2021-06-01T08:43:00Z</time>
      </trkpt>
      <trkpt lat="45.51539" lon="6.49166">
        <ele>475.2</ele>
        <time>2021-06-01T08:43:01Z</time>
      </trkpt>
      <trkpt lat="45.51541" lon="6.4916">
        <ele>475.8</ele>
        <time>2021-06-01T08:43:02Z</time>
      </trkpt>
      <trkpt lat="45.51546" lon="6.49153">
        <ele>476.2</ele>
        <time>2021-06-01T08:43:03Z</time>
      </trkpt>
      <trkpt lat="45.5155" lon="6.49148">
        <ele>476.6</ele>
        <time>2021-06-01T08:43:04Z</time>
      </trkpt>
      <trkpt lat="45.51555" lon="6.49142">
        <ele>477</ele>
        <time>2021-06-01T08:43:05Z</time>
      </trkpt>
      <trkpt lat="45.51559" lon="6.49135">
        <ele>477.2</ele>
        <time>2021-06-01T08:43:06Z</time>
      </trkpt>
      <trkpt lat="45.51563" lon="6.49129">
        <ele>477.6</ele>
        <time>2021-06-01T08:43:07Z</time>
      </trkpt>
      <trkpt lat="45.51566" lon="6.49123">
        <ele>477.8</ele>
        <time>2021-06-01T08:43:08Z</time>
      </trkpt>
      <trkpt lat="45.51571" lon="6.49117">
        <ele>478</ele>
        <time>2021-06-01T08:43:09Z</time>
      </trkpt>
      <trkpt lat="45.51574" lon="6.49112">
        <ele>478.8</ele>
        <time>2021-06-01T08:43:10Z</time>
      </trkpt>
      <trkpt lat="45.51579" lon="6.49106">
        <ele>479.4</ele>
        <time>2021-06-01T08:43:11Z</time>
      </trkpt>
      <trkpt lat="45.51583" lon="6.491">
        <ele>479.6</ele>
        <time>2021-06-01T08:43:12Z</time>
      </trkpt>
      <trkpt lat="45.51588" lon="6.49094">
        <ele>480</ele>
        <time>2021-06-01T08:43:13Z</time>
      </trkpt>
      <trkpt lat="45.51593" lon="6.49089">
        <ele>480.2</ele>
        <time>2021-06-01T08:43:14Z</time>
      </trkpt>
      <trkpt lat="45.51598" lon="6.49085">
        <ele>480.6</ele>
        <time>2021-06-01T08:43:15Z</time>
      </trkpt>
      <trkpt lat="45.51603" lon="6.4908">
        <ele>480.8</ele>
        <time>2021-06-01T08:43:16Z</time>
      </trkpt>
      <trkpt lat="45.51608" lon="6.49074">
        <ele>481</ele>
        <time>2021-06-01T08:43:17Z</time>
      </trkpt>
      <trkpt lat="45.51613" lon="6.49069">
        <ele>481.2</ele>
        <time>2021-06-01T08:43:18Z</time>
      </trkpt>
      <trkpt lat="45.51618" lon="6.49064">
        <ele>481.4</ele>
        <time>2021-06-01T08:43:19Z</time>
      </trkpt>
      <trkpt lat="45.51622" lon="6.49057">
        <ele>481.4</ele>
        <time>2021-06-01T08:43:20Z</time>
      </trkpt>
      <trkpt lat="45.51628" lon="6.49052">
        <ele>481.4</ele>
        <time>2021-06-01T08:43:21Z</time>
      </trkpt>
      <trkpt lat="45.51633" lon="6.49046">
        <ele>481.4</ele>
        <time>2021-06-01T08:43:22Z</time>
      </trkpt>
      <trkpt lat="45.51639" lon="6.4904">
        <ele>481.8</ele>
        <time>2021-06-01T08:43:23Z</time>
      </trkpt>
      <trkpt lat="45.51645" lon="6.49033">
        <ele>481.8</ele>
        <time>2021-06-01T08:43:24Z</time>
      </trkpt>
      <trkpt lat="45.51652" lon="6.49027">
        <ele>481.8</ele>
        <time>2021-06-01T08:43:25Z</time>
      </trkpt>
      <trkpt lat="45.51658" lon="6.49021">
        <ele>482</ele>
        <time>2021-06-01T08:43:26Z</time>
      </trkpt>
      <trkpt lat="45.51665" lon="6.49015">
        <ele>482</ele>
        <time>2021-06-01T08:43:27Z</time>
      </trkpt>
      <trkpt lat="45.51672" lon="6.49009">
        <ele>482</ele>
        <time>2021-06-01T08:43:28Z</time>
      </trkpt>
      <trkpt lat="45.51678" lon="6.49003">
        <ele>482.4</ele>
        <time>2021-06-01T08:43:29Z</time>
      </trkpt>
      <trkpt lat="45.51685" lon="6.48997">
        <ele>482.4</ele>
        <time>2021-06-01T08:43:30Z</time>
      </trkpt>
      <trkpt lat="45.51692" lon="6.48991">
        <ele>482.4</ele>
        <time>2021-06-01T08:43:31Z</time>
      </trkpt>
      <trkpt lat="45.51699" lon="6.48984">
        <ele>482.2</ele>
        <time>2021-06-01T08:43:32Z</time>
      </trkpt>
      <trkpt lat="45.51706" lon="6.48978">
        <ele>482</ele>
        <time>2021-06-01T08:43:33Z</time>
      </trkpt>
      <trkpt lat="45.51713" lon="6.48972">
        <ele>482</ele>
        <time>2021-06-01T08:43:34Z</time>
      </trkpt>
      <trkpt lat="45.5172" lon="6.48966">
        <ele>482</ele>
        <time>2021-06-01T08:43:35Z</time>
      </trkpt>
      <trkpt lat="45.51728" lon="6.4896">
        <ele>482</ele>
        <time>2021-06-01T08:43:36Z</time>
      </trkpt>
      <trkpt lat="45.51736" lon="6.48955">
        <ele>481.6</ele>
        <time>2021-06-01T08:43:37Z</time>
      </trkpt>
      <trkpt lat="45.51744" lon="6.48949">
        <ele>481.8</ele>
        <time>2021-06-01T08:43:38Z</time>
      </trkpt>
      <trkpt lat="45.51752" lon="6.48943">
        <ele>482</ele>
        <time>2021-06-01T08:43:39Z</time>
      </trkpt>
      <trkpt lat="45.5176" lon="6.48937">
        <ele>482</ele>
        <time>2021-06-01T08:43:40Z</time>
      </trkpt>
      <trkpt lat="45.51769" lon="6.4893">
        <ele>481.4</ele>
        <time>2021-06-01T08:43:41Z</time>
      </trkpt>
      <trkpt lat="45.51778" lon="6.48923">
        <ele>481.2</ele>
        <time>2021-06-01T08:43:42Z</time>
      </trkpt>
      <trkpt lat="45.51787" lon="6.48916">
        <ele>481</ele>
        <time>2021-06-01T08:43:43Z</time>
      </trkpt>
      <trkpt lat="45.51795" lon="6.48909">
        <ele>480.6</ele>
        <time>2021-06-01T08:43:44Z</time>
      </trkpt>
      <trkpt lat="45.51804" lon="6.48902">
        <ele>480.2</ele>
        <time>2021-06-01T08:43:45Z</time>
      </trkpt>
      <trkpt lat="45.51812" lon="6.48893">
        <ele>479.6</ele>
        <time>2021-06-01T08:43:46Z</time>
      </trkpt>
      <trkpt lat="45.5182" lon="6.48884">
        <ele>479</ele>
        <time>2021-06-01T08:43:47Z</time>
      </trkpt>
      <trkpt lat="45.51829" lon="6.48874">
        <ele>478.2</ele>
        <time>2021-06-01T08:43:48Z</time>
      </trkpt>
      <trkpt lat="45.51836" lon="6.48864">
        <ele>477.8</ele>
        <time>2021-06-01T08:43:49Z</time>
      </trkpt>
      <trkpt lat="45.51844" lon="6.48854">
        <ele>477</ele>
        <time>2021-06-01T08:43:50Z</time>
      </trkpt>
      <trkpt lat="45.51852" lon="6.48844">
        <ele>476.6</ele>
        <time>2021-06-01T08:43:51Z</time>
      </trkpt>
      <trkpt lat="45.5186" lon="6.48834">
        <ele>475.6</ele>
        <time>2021-06-01T08:43:52Z</time>
      </trkpt>
      <trkpt lat="45.51868" lon="6.48823">
        <ele>474</ele>
        <time>2021-06-01T08:43:53Z</time>
      </trkpt>
      <trkpt lat="45.51876" lon="6.48812">
        <ele>472.2</ele>
        <time>2021-06-01T08:43:54Z</time>
      </trkpt>
      <trkpt lat="45.51885" lon="6.48801">
        <ele>471</ele>
        <time>2021-06-01T08:43:55Z</time>
      </trkpt>
      <trkpt lat="45.51894" lon="6.4879">
        <ele>469.8</ele>
        <time>2021-06-01T08:43:56Z</time>
      </trkpt>
      <trkpt lat="45.51903" lon="6.4878">
        <ele>468.4</ele>
        <time>2021-06-01T08:43:57Z</time>
      </trkpt>
      <trkpt lat="45.51913" lon="6.4877">
        <ele>468</ele>
        <time>2021-06-01T08:43:58Z</time>
      </trkpt>
      <trkpt lat="45.51923" lon="6.4876">
        <ele>467</ele>
        <time>2021-06-01T08:43:59Z</time>
      </trkpt>
      <trkpt lat="45.51933" lon="6.48751">
        <ele>466</ele>
        <time>2021-06-01T08:44:00Z</time>
      </trkpt>
      <trkpt lat="45.51943" lon="6.4874">
        <ele>465.4</ele>
        <time>2021-06-01T08:44:01Z</time>
      </trkpt>
      <trkpt lat="45.51953" lon="6.48729">
        <ele>464.4</ele>
        <time>2021-06-01T08:44:02Z</time>
      </trkpt>
      <trkpt lat="45.51963" lon="6.48717">
        <ele>463.4</ele>
        <time>2021-06-01T08:44:03Z</time>
      </trkpt>
      <trkpt lat="45.51973" lon="6.48704">
        <ele>462.6</ele>
        <time>2021-06-01T08:44:04Z</time>
      </trkpt>
      <trkpt lat="45.51983" lon="6.48692">
        <ele>461.4</ele>
        <time>2021-06-01T08:44:05Z</time>
      </trkpt>
      <trkpt lat="45.51992" lon="6.48679">
        <ele>460.4</ele>
        <time>2021-06-01T08:44:06Z</time>
      </trkpt>
      <trkpt lat="45.52002" lon="6.48665">
        <ele>459.2</ele>
        <time>2021-06-01T08:44:07Z</time>
      </trkpt>
      <trkpt lat="45.52012" lon="6.48651">
        <ele>458</ele>
        <time>2021-06-01T08:44:08Z</time>
      </trkpt>
      <trkpt lat="45.52021" lon="6.48637">
        <ele>457</ele>
        <time>2021-06-01T08:44:09Z</time>
      </trkpt>
      <trkpt lat="45.5203" lon="6.48624">
        <ele>456.2</ele>
        <time>2021-06-01T08:44:10Z</time>
      </trkpt>
      <trkpt lat="45.52041" lon="6.4861">
        <ele>455</ele>
        <time>2021-06-01T08:44:11Z</time>
      </trkpt>
      <trkpt lat="45.52051" lon="6.48597">
        <ele>453.8</ele>
        <time>2021-06-01T08:44:12Z</time>
      </trkpt>
      <trkpt lat="45.5206" lon="6.48584">
        <ele>453.2</ele>
        <time>2021-06-01T08:44:13Z</time>
      </trkpt>
      <trkpt lat="45.52071" lon="6.48571">
        <ele>452.4</ele>
        <time>2021-06-01T08:44:14Z</time>
      </trkpt>
      <trkpt lat="45.52081" lon="6.48559">
        <ele>451.8</ele>
        <time>2021-06-01T08:44:15Z</time>
      </trkpt>
      <trkpt lat="45.52092" lon="6.48548">
        <ele>451.2</ele>
        <time>2021-06-01T08:44:16Z</time>
      </trkpt>
      <trkpt lat="45.52102" lon="6.48537">
        <ele>450.4</ele>
        <time>2021-06-01T08:44:17Z</time>
      </trkpt>
      <trkpt lat="45.52112" lon="6.48526">
        <ele>449.8</ele>
        <time>2021-06-01T08:44:18Z</time>
      </trkpt>
      <trkpt lat="45.52121" lon="6.48515">
        <ele>449.4</ele>
        <time>2021-06-01T08:44:19Z</time>
      </trkpt>
      <trkpt lat="45.52132" lon="6.48505">
        <ele>448.8</ele>
        <time>2021-06-01T08:44:20Z</time>
      </trkpt>
      <trkpt lat="45.52142" lon="6.48494">
        <ele>448</ele>
        <time>2021-06-01T08:44:21Z</time>
      </trkpt>
      <trkpt lat="45.52151" lon="6.48484">
        <ele>446.8</ele>
        <time>2021-06-01T08:44:22Z</time>
      </trkpt>
      <trkpt lat="45.52161" lon="6.48473">
        <ele>446</ele>
        <time>2021-06-01T08:44:23Z</time>
      </trkpt>
      <trkpt lat="45.5217" lon="6.48462">
        <ele>445.4</ele>
        <time>2021-06-01T08:44:24Z</time>
      </trkpt>
      <trkpt lat="45.52179" lon="6.48451">
        <ele>444.8</ele>
        <time>2021-06-01T08:44:25Z</time>
      </trkpt>
      <trkpt lat="45.52188" lon="6.4844">
        <ele>444.4</ele>
        <time>2021-06-01T08:44:26Z</time>
      </trkpt>
      <trkpt lat="45.52195" lon="6.48429">
        <ele>443.8</ele>
        <time>2021-06-01T08:44:27Z</time>
      </trkpt>
      <trkpt lat="45.52197" lon="6.48418">
        <ele>443.2</ele>
        <time>2021-06-01T08:44:28Z</time>
      </trkpt>
      <trkpt lat="45.52198" lon="6.48408">
        <ele>442.8</ele>
        <time>2021-06-01T08:44:29Z</time>
      </trkpt>
      <trkpt lat="45.52201" lon="6.48399">
        <ele>442.6</ele>
        <time>2021-06-01T08:44:30Z</time>
      </trkpt>
      <trkpt lat="45.52203" lon="6.48392">
        <ele>442</ele>
        <time>2021-06-01T08:44:31Z</time>
      </trkpt>
      <trkpt lat="45.52205" lon="6.48386">
        <ele>442</ele>
        <time>2021-06-01T08:44:32Z</time>
      </trkpt>
      <trkpt lat="45.52208" lon="6.48382">
        <ele>441.8</ele>
        <time>2021-06-01T08:44:33Z</time>
      </trkpt>
      <trkpt lat="45.52212" lon="6.48378">
        <ele>441.4</ele>
        <time>2021-06-01T08:44:34Z</time>
      </trkpt>
      <trkpt lat="45.52216" lon="6.48374">
        <ele>441.2</ele>
        <time>2021-06-01T08:44:35Z</time>
      </trkpt>
      <trkpt lat="45.52221" lon="6.4837">
        <ele>440.6</ele>
        <time>2021-06-01T08:44:36Z</time>
      </trkpt>
      <trkpt lat="45.52226" lon="6.48366">
        <ele>440.6</ele>
        <time>2021-06-01T08:44:37Z</time>
      </trkpt>
      <trkpt lat="45.52231" lon="6.48362">
        <ele>440.2</ele>
        <time>2021-06-01T08:44:38Z</time>
      </trkpt>
      <trkpt lat="45.52237" lon="6.48357">
        <ele>440</ele>
        <time>2021-06-01T08:44:39Z</time>
      </trkpt>
      <trkpt lat="45.52243" lon="6.48353">
        <ele>440</ele>
        <time>2021-06-01T08:44:40Z</time>
      </trkpt>
      <trkpt lat="45.52249" lon="6.48349">
        <ele>439.8</ele>
        <time>2021-06-01T08:44:41Z</time>
      </trkpt>
      <trkpt lat="45.52255" lon="6.48345">
        <ele>439.8</ele>
        <time>2021-06-01T08:44:42Z</time>
      </trkpt>
      <trkpt lat="45.5226" lon="6.48339">
        <ele>439.8</ele>
        <time>2021-06-01T08:44:43Z</time>
      </trkpt>
      <trkpt lat="45.52267" lon="6.48334">
        <ele>440</ele>
        <time>2021-06-01T08:44:44Z</time>
      </trkpt>
      <trkpt lat="45.52273" lon="6.48327">
        <ele>440</ele>
        <time>2021-06-01T08:44:45Z</time>
      </trkpt>
      <trkpt lat="45.52279" lon="6.48321">
        <ele>440.2</ele>
        <time>2021-06-01T08:44:46Z</time>
      </trkpt>
      <trkpt lat="45.52285" lon="6.48314">
        <ele>440.4</ele>
        <time>2021-06-01T08:44:47Z</time>
      </trkpt>
      <trkpt lat="45.52291" lon="6.48308">
        <ele>440.6</ele>
        <time>2021-06-01T08:44:48Z</time>
      </trkpt>
      <trkpt lat="45.52297" lon="6.48302">
        <ele>440.4</ele>
        <time>2021-06-01T08:44:49Z</time>
      </trkpt>
      <trkpt lat="45.52303" lon="6.48296">
        <ele>440.2</ele>
        <time>2021-06-01T08:44:50Z</time>
      </trkpt>
      <trkpt lat="45.5231" lon="6.48289">
        <ele>440.6</ele>
        <time>2021-06-01T08:44:51Z</time>
      </trkpt>
      <trkpt lat="45.52316" lon="6.48284">
        <ele>440.8</ele>
        <time>2021-06-01T08:44:52Z</time>
      </trkpt>
      <trkpt lat="45.52323" lon="6.48279">
        <ele>440.6</ele>
        <time>2021-06-01T08:44:53Z</time>
      </trkpt>
      <trkpt lat="45.52329" lon="6.48273">
        <ele>440.4</ele>
        <time>2021-06-01T08:44:54Z</time>
      </trkpt>
      <trkpt lat="45.52335" lon="6.48266">
        <ele>440.4</ele>
        <time>2021-06-01T08:44:55Z</time>
      </trkpt>
      <trkpt lat="45.52341" lon="6.48259">
        <ele>440.4</ele>
        <time>2021-06-01T08:44:56Z</time>
      </trkpt>
      <trkpt lat="45.52346" lon="6.48251">
        <ele>440.2</ele>
        <time>2021-06-01T08:44:57Z</time>
      </trkpt>
      <trkpt lat="45.52351" lon="6.48243">
        <ele>440</ele>
        <time>2021-06-01T08:44:58Z</time>
      </trkpt>
      <trkpt lat="45.52356" lon="6.48235">
        <ele>440</ele>
        <time>2021-06-01T08:44:59Z</time>
      </trkpt>
      <trkpt lat="45.52361" lon="6.48228">
        <ele>440.4</ele>
        <time>2021-06-01T08:45:00Z</time>
      </trkpt>
      <trkpt lat="45.52367" lon="6.4822">
        <ele>440.2</ele>
        <time>2021-06-01T08:45:01Z</time>
      </trkpt>
      <trkpt lat="45.52372" lon="6.48212">
        <ele>440.2</ele>
        <time>2021-06-01T08:45:02Z</time>
      </trkpt>
      <trkpt lat="45.52377" lon="6.48204">
        <ele>440.4</ele>
        <time>2021-06-01T08:45:03Z</time>
      </trkpt>
      <trkpt lat="45.52382" lon="6.48196">
        <ele>440.4</ele>
        <time>2021-06-01T08:45:04Z</time>
      </trkpt>
      <trkpt lat="45.52389" lon="6.48188">
        <ele>440.4</ele>
        <time>2021-06-01T08:45:05Z</time>
      </trkpt>
      <trkpt lat="45.52396" lon="6.48181">
        <ele>440.4</ele>
        <time>2021-06-01T08:45:06Z</time>
      </trkpt>
      <trkpt lat="45.52403" lon="6.48176">
        <ele>440.6</ele>
        <time>2021-06-01T08:45:07Z</time>
      </trkpt>
      <trkpt lat="45.5241" lon="6.48172">
        <ele>441</ele>
        <time>2021-06-01T08:45:08Z</time>
      </trkpt>
      <trkpt lat="45.52417" lon="6.48169">
        <ele>441</ele>
        <time>2021-06-01T08:45:09Z</time>
      </trkpt>
      <trkpt lat="45.52425" lon="6.48168">
        <ele>441</ele>
        <time>2021-06-01T08:45:10Z</time>
      </trkpt>
      <trkpt lat="45.52433" lon="6.48168">
        <ele>441.2</ele>
        <time>2021-06-01T08:45:11Z</time>
      </trkpt>
      <trkpt lat="45.52442" lon="6.48171">
        <ele>440.8</ele>
        <time>2021-06-01T08:45:12Z</time>
      </trkpt>
      <trkpt lat="45.52451" lon="6.48175">
        <ele>440</ele>
        <time>2021-06-01T08:45:13Z</time>
      </trkpt>
      <trkpt lat="45.52467" lon="6.4818">
        <ele>439</ele>
        <time>2021-06-01T08:45:15Z</time>
      </trkpt>
      <trkpt lat="45.52476" lon="6.48182">
        <ele>438.6</ele>
        <time>2021-06-01T08:45:16Z</time>
      </trkpt>
      <trkpt lat="45.52484" lon="6.4818">
        <ele>438.4</ele>
        <time>2021-06-01T08:45:17Z</time>
      </trkpt>
      <trkpt lat="45.52489" lon="6.48177">
        <ele>438.2</ele>
        <time>2021-06-01T08:45:18Z</time>
      </trkpt>
      <trkpt lat="45.52494" lon="6.48172">
        <ele>438.4</ele>
        <time>2021-06-01T08:45:19Z</time>
      </trkpt>
      <trkpt lat="45.52499" lon="6.48167">
        <ele>438.8</ele>
        <time>2021-06-01T08:45:20Z</time>
      </trkpt>
      <trkpt lat="45.52541" lon="6.48137">
        <ele>438.2</ele>
        <time>2021-06-01T08:45:27Z</time>
      </trkpt>
      <trkpt lat="45.52548" lon="6.48131">
        <ele>438.2</ele>
        <time>2021-06-01T08:45:28Z</time>
      </trkpt>
      <trkpt lat="45.52556" lon="6.48127">
        <ele>437.8</ele>
        <time>2021-06-01T08:45:29Z</time>
      </trkpt>
      <trkpt lat="45.52565" lon="6.48123">
        <ele>437.6</ele>
        <time>2021-06-01T08:45:30Z</time>
      </trkpt>
      <trkpt lat="45.52574" lon="6.48118">
        <ele>436.8</ele>
        <time>2021-06-01T08:45:31Z</time>
      </trkpt>
      <trkpt lat="45.52583" lon="6.48113">
        <ele>436.6</ele>
        <time>2021-06-01T08:45:32Z</time>
      </trkpt>
      <trkpt lat="45.52591" lon="6.48108">
        <ele>436.4</ele>
        <time>2021-06-01T08:45:33Z</time>
      </trkpt>
      <trkpt lat="45.526" lon="6.48103">
        <ele>436.4</ele>
        <time>2021-06-01T08:45:34Z</time>
      </trkpt>
      <trkpt lat="45.52609" lon="6.48098">
        <ele>435.8</ele>
        <time>2021-06-01T08:45:35Z</time>
      </trkpt>
      <trkpt lat="45.52617" lon="6.48092">
        <ele>436</ele>
        <time>2021-06-01T08:45:36Z</time>
      </trkpt>
      <trkpt lat="45.52625" lon="6.48085">
        <ele>435.6</ele>
        <time>2021-06-01T08:45:37Z</time>
      </trkpt>
      <trkpt lat="45.52632" lon="6.48079">
        <ele>435.2</ele>
        <time>2021-06-01T08:45:38Z</time>
      </trkpt>
      <trkpt lat="45.5264" lon="6.48072">
        <ele>435</ele>
        <time>2021-06-01T08:45:39Z</time>
      </trkpt>
      <trkpt lat="45.52648" lon="6.48066">
        <ele>434.8</ele>
        <time>2021-06-01T08:45:40Z</time>
      </trkpt>
      <trkpt lat="45.52655" lon="6.48058">
        <ele>434.2</ele>
        <time>2021-06-01T08:45:41Z</time>
      </trkpt>
      <trkpt lat="45.52662" lon="6.48051">
        <ele>433.8</ele>
        <time>2021-06-01T08:45:42Z</time>
      </trkpt>
      <trkpt lat="45.52669" lon="6.48043">
        <ele>433.6</ele>
        <time>2021-06-01T08:45:43Z</time>
      </trkpt>
      <trkpt lat="45.52676" lon="6.48035">
        <ele>433.2</ele>
        <time>2021-06-01T08:45:44Z</time>
      </trkpt>
      <trkpt lat="45.52684" lon="6.48028">
        <ele>432.6</ele>
        <time>2021-06-01T08:45:45Z</time>
      </trkpt>
      <trkpt lat="45.52692" lon="6.4802">
        <ele>432.2</ele>
        <time>2021-06-01T08:45:46Z</time>
      </trkpt>
      <trkpt lat="45.527" lon="6.48012">
        <ele>431.8</ele>
        <time>2021-06-01T08:45:47Z</time>
      </trkpt>
      <trkpt lat="45.52708" lon="6.48004">
        <ele>431.6</ele>
        <time>2021-06-01T08:45:48Z</time>
      </trkpt>
      <trkpt lat="45.52716" lon="6.47997">
        <ele>431</ele>
        <time>2021-06-01T08:45:49Z</time>
      </trkpt>
      <trkpt lat="45.52723" lon="6.47989">
        <ele>430.4</ele>
        <time>2021-06-01T08:45:50Z</time>
      </trkpt>
      <trkpt lat="45.52731" lon="6.47981">
        <ele>429.8</ele>
        <time>2021-06-01T08:45:51Z</time>
      </trkpt>
      <trkpt lat="45.52737" lon="6.47973">
        <ele>428.8</ele>
        <time>2021-06-01T08:45:52Z</time>
      </trkpt>
      <trkpt lat="45.52745" lon="6.47965">
        <ele>427.8</ele>
        <time>2021-06-01T08:45:53Z</time>
      </trkpt>
      <trkpt lat="45.52752" lon="6.47957">
        <ele>427</ele>
        <time>2021-06-01T08:45:54Z</time>
      </trkpt>
      <trkpt lat="45.52758" lon="6.47949">
        <ele>427.2</ele>
        <time>2021-06-01T08:45:55Z</time>
      </trkpt>
      <trkpt lat="45.52765" lon="6.47941">
        <ele>427.4</ele>
        <time>2021-06-01T08:45:56Z</time>
      </trkpt>
      <trkpt lat="45.52772" lon="6.47934">
        <ele>427.8</ele>
        <time>2021-06-01T08:45:57Z</time>
      </trkpt>
      <trkpt lat="45.52778" lon="6.47926">
        <ele>427.8</ele>
        <time>2021-06-01T08:45:58Z</time>
      </trkpt>
      <trkpt lat="45.52785" lon="6.47919">
        <ele>428.2</ele>
        <time>2021-06-01T08:45:59Z</time>
      </trkpt>
      <trkpt lat="45.52791" lon="6.47911">
        <ele>428</ele>
        <time>2021-06-01T08:46:00Z</time>
      </trkpt>
      <trkpt lat="45.52796" lon="6.47903">
        <ele>428</ele>
        <time>2021-06-01T08:46:01Z</time>
      </trkpt>
      <trkpt lat="45.52802" lon="6.47896">
        <ele>428.4</ele>
        <time>2021-06-01T08:46:02Z</time>
      </trkpt>
      <trkpt lat="45.52808" lon="6.47889">
        <ele>428.4</ele>
        <time>2021-06-01T08:46:03Z</time>
      </trkpt>
      <trkpt lat="45.52814" lon="6.47882">
        <ele>428.2</ele>
        <time>2021-06-01T08:46:04Z</time>
      </trkpt>
      <trkpt lat="45.5282" lon="6.47875">
        <ele>428.4</ele>
        <time>2021-06-01T08:46:05Z</time>
      </trkpt>
      <trkpt lat="45.52827" lon="6.47868">
        <ele>428.2</ele>
        <time>2021-06-01T08:46:06Z</time>
      </trkpt>
      <trkpt lat="45.52833" lon="6.47861">
        <ele>428.6</ele>
        <time>2021-06-01T08:46:07Z</time>
      </trkpt>
      <trkpt lat="45.52838" lon="6.47854">
        <ele>428.4</ele>
        <time>2021-06-01T08:46:08Z</time>
      </trkpt>
      <trkpt lat="45.52844" lon="6.47847">
        <ele>428.4</ele>
        <time>2021-06-01T08:46:09Z</time>
      </trkpt>
      <trkpt lat="45.5285" lon="6.47841">
        <ele>428.4</ele>
        <time>2021-06-01T08:46:10Z</time>
      </trkpt>
      <trkpt lat="45.52856" lon="6.47834">
        <ele>428.4</ele>
        <time>2021-06-01T08:46:11Z</time>
      </trkpt>
      <trkpt lat="45.52862" lon="6.47826">
        <ele>428.2</ele>
        <time>2021-06-01T08:46:12Z</time>
      </trkpt>
      <trkpt lat="45.52868" lon="6.4782">
        <ele>428</ele>
        <time>2021-06-01T08:46:13Z</time>
      </trkpt>
      <trkpt lat="45.52873" lon="6.47813">
        <ele>427.8</ele>
        <time>2021-06-01T08:46:14Z</time>
      </trkpt>
      <trkpt lat="45.52879" lon="6.47807">
        <ele>428</ele>
        <time>2021-06-01T08:46:15Z</time>
      </trkpt>
      <trkpt lat="45.52885" lon="6.47801">
        <ele>427.8</ele>
        <time>2021-06-01T08:46:16Z</time>
      </trkpt>
      <trkpt lat="45.52892" lon="6.47795">
        <ele>427.8</ele>
        <time>2021-06-01T08:46:17Z</time>
      </trkpt>
      <trkpt lat="45.52898" lon="6.47788">
        <ele>427.8</ele>
        <time>2021-06-01T08:46:18Z</time>
      </trkpt>
      <trkpt lat="45.52904" lon="6.47782">
        <ele>427.8</ele>
        <time>2021-06-01T08:46:19Z</time>
      </trkpt>
      <trkpt lat="45.52911" lon="6.47775">
        <ele>427.8</ele>
        <time>2021-06-01T08:46:20Z</time>
      </trkpt>
      <trkpt lat="45.52917" lon="6.47769">
        <ele>427.8</ele>
        <time>2021-06-01T08:46:21Z</time>
      </trkpt>
      <trkpt lat="45.52923" lon="6.47762">
        <ele>427.8</ele>
        <time>2021-06-01T08:46:22Z</time>
      </trkpt>
      <trkpt lat="45.5293" lon="6.47756">
        <ele>428.2</ele>
        <time>2021-06-01T08:46:23Z</time>
      </trkpt>
      <trkpt lat="45.52936" lon="6.4775">
        <ele>428.2</ele>
        <time>2021-06-01T08:46:24Z</time>
      </trkpt>
      <trkpt lat="45.52942" lon="6.47744">
        <ele>428.4</ele>
        <time>2021-06-01T08:46:25Z</time>
      </trkpt>
      <trkpt lat="45.52949" lon="6.47738">
        <ele>428.2</ele>
        <time>2021-06-01T08:46:26Z</time>
      </trkpt>
      <trkpt lat="45.52955" lon="6.47732">
        <ele>428</ele>
        <time>2021-06-01T08:46:27Z</time>
      </trkpt>
      <trkpt lat="45.52961" lon="6.47725">
        <ele>427.8</ele>
        <time>2021-06-01T08:46:28Z</time>
      </trkpt>
      <trkpt lat="45.52968" lon="6.47719">
        <ele>428.2</ele>
        <time>2021-06-01T08:46:29Z</time>
      </trkpt>
      <trkpt lat="45.52974" lon="6.47713">
        <ele>428.6</ele>
        <time>2021-06-01T08:46:30Z</time>
      </trkpt>
      <trkpt lat="45.52981" lon="6.47707">
        <ele>429</ele>
        <time>2021-06-01T08:46:31Z</time>
      </trkpt>
      <trkpt lat="45.52988" lon="6.47701">
        <ele>428.2</ele>
        <time>2021-06-01T08:46:32Z</time>
      </trkpt>
      <trkpt lat="45.52993" lon="6.47694">
        <ele>427.6</ele>
        <time>2021-06-01T08:46:33Z</time>
      </trkpt>
      <trkpt lat="45.53" lon="6.47688">
        <ele>427.2</ele>
        <time>2021-06-01T08:46:34Z</time>
      </trkpt>
      <trkpt lat="45.53007" lon="6.47681">
        <ele>427.2</ele>
        <time>2021-06-01T08:46:35Z</time>
      </trkpt>
      <trkpt lat="45.53013" lon="6.47675">
        <ele>427.8</ele>
        <time>2021-06-01T08:46:36Z</time>
      </trkpt>
      <trkpt lat="45.5302" lon="6.47669">
        <ele>428</ele>
        <time>2021-06-01T08:46:37Z</time>
      </trkpt>
      <trkpt lat="45.53048" lon="6.47646">
        <ele>427</ele>
        <time>2021-06-01T08:46:41Z</time>
      </trkpt>
      <trkpt lat="45.53055" lon="6.47644">
        <ele>427</ele>
        <time>2021-06-01T08:46:42Z</time>
      </trkpt>
      <trkpt lat="45.53063" lon="6.47643">
        <ele>426.8</ele>
        <time>2021-06-01T08:46:43Z</time>
      </trkpt>
      <trkpt lat="45.53071" lon="6.4764">
        <ele>426.4</ele>
        <time>2021-06-01T08:46:44Z</time>
      </trkpt>
      <trkpt lat="45.53874" lon="6.46717">
        <ele>416</ele>
        <time>2021-06-01T08:49:24Z</time>
      </trkpt>
      <trkpt lat="45.53875" lon="6.46711">
        <ele>415.6</ele>
        <time>2021-06-01T08:49:25Z</time>
      </trkpt>
      <trkpt lat="45.53876" lon="6.46704">
        <ele>415.6</ele>
        <time>2021-06-01T08:49:26Z</time>
      </trkpt>
      <trkpt lat="45.53875" lon="6.46698">
        <ele>415.4</ele>
        <time>2021-06-01T08:49:27Z</time>
      </trkpt>
      <trkpt lat="45.53873" lon="6.46691">
        <ele>415.2</ele>
        <time>2021-06-01T08:49:28Z</time>
      </trkpt>
      <trkpt lat="45.53871" lon="6.46684">
        <ele>415</ele>
        <time>2021-06-01T08:49:29Z</time>
      </trkpt>
      <trkpt lat="45.5387" lon="6.46677">
        <ele>414.8</ele>
        <time>2021-06-01T08:49:30Z</time>
      </trkpt>
      <trkpt lat="45.53869" lon="6.4667">
        <ele>414.8</ele>
        <time>2021-06-01T08:49:31Z</time>
      </trkpt>
      <trkpt lat="45.53868" lon="6.46663">
        <ele>414.8</ele>
        <time>2021-06-01T08:49:32Z</time>
      </trkpt>
      <trkpt lat="45.53868" lon="6.46655">
        <ele>414.6</ele>
        <time>2021-06-01T08:49:33Z</time>
      </trkpt>
      <trkpt lat="45.53867" lon="6.46647">
        <ele>414.4</ele>
        <time>2021-06-01T08:49:34Z</time>
      </trkpt>
      <trkpt lat="45.53868" lon="6.46639">
        <ele>414</ele>
        <time>2021-06-01T08:49:35Z</time>
      </trkpt>
      <trkpt lat="45.53872" lon="6.46632">
        <ele>413.6</ele>
        <time>2021-06-01T08:49:36Z</time>
      </trkpt>
      <trkpt lat="45.53877" lon="6.46627">
        <ele>413.2</ele>
        <time>2021-06-01T08:49:37Z</time>
      </trkpt>
      <trkpt lat="45.53884" lon="6.46625">
        <ele>413</ele>
        <time>2021-06-01T08:49:38Z</time>
      </trkpt>
      <trkpt lat="45.5389" lon="6.46623">
        <ele>412.6</ele>
        <time>2021-06-01T08:49:39Z</time>
      </trkpt>
      <trkpt lat="45.53897" lon="6.46621">
        <ele>412.8</ele>
        <time>2021-06-01T08:49:40Z</time>
      </trkpt>
      <trkpt lat="45.53904" lon="6.46619">
        <ele>413</ele>
        <time>2021-06-01T08:49:41Z</time>
      </trkpt>
      <trkpt lat="45.53911" lon="6.46617">
        <ele>413.2</ele>
        <time>2021-06-01T08:49:42Z</time>
      </trkpt>
      <trkpt lat="45.53917" lon="6.46614">
        <ele>413.2</ele>
        <time>2021-06-01T08:49:43Z</time>
      </trkpt>
      <trkpt lat="45.53924" lon="6.4661">
        <ele>413.4</ele>
        <time>2021-06-01T08:49:44Z</time>
      </trkpt>
      <trkpt lat="45.5393" lon="6.46607">
        <ele>413.2</ele>
        <time>2021-06-01T08:49:45Z</time>
      </trkpt>
      <trkpt lat="45.53936" lon="6.46604">
        <ele>413.4</ele>
        <time>2021-06-01T08:49:46Z</time>
      </trkpt>
      <trkpt lat="45.53942" lon="6.46601">
        <ele>413.4</ele>
        <time>2021-06-01T08:49:47Z</time>
      </trkpt>
      <trkpt lat="45.53948" lon="6.46598">
        <ele>413.6</ele>
        <time>2021-06-01T08:49:48Z</time>
      </trkpt>
      <trkpt lat="45.53954" lon="6.46596">
        <ele>413.6</ele>
        <time>2021-06-01T08:49:49Z</time>
      </trkpt>
      <trkpt lat="45.5396" lon="6.46593">
        <ele>414.2</ele>
        <time>2021-06-01T08:49:50Z</time>
      </trkpt>
      <trkpt lat="45.53966" lon="6.46591">
        <ele>414.2</ele>
        <time>2021-06-01T08:49:51Z</time>
      </trkpt>
      <trkpt lat="45.53973" lon="6.4659">
        <ele>414.4</ele>
        <time>2021-06-01T08:49:52Z</time>
      </trkpt>
      <trkpt lat="45.53979" lon="6.46588">
        <ele>414.4</ele>
        <time>2021-06-01T08:49:53Z</time>
      </trkpt>
      <trkpt lat="45.53986" lon="6.46586">
        <ele>414.8</ele>
        <time>2021-06-01T08:49:54Z</time>
      </trkpt>
      <trkpt lat="45.53991" lon="6.46586">
        <ele>414.8</ele>
        <time>2021-06-01T08:49:55Z</time>
      </trkpt>
      <trkpt lat="45.53996" lon="6.46587">
        <ele>415</ele>
        <time>2021-06-01T08:49:56Z</time>
      </trkpt>
      <trkpt lat="45.54002" lon="6.46588">
        <ele>415</ele>
        <time>2021-06-01T08:49:57Z</time>
      </trkpt>
      <trkpt lat="45.54008" lon="6.46588">
        <ele>415</ele>
        <time>2021-06-01T08:49:58Z</time>
      </trkpt>
      <trkpt lat="45.54014" lon="6.46589">
        <ele>415.2</ele>
        <time>2021-06-01T08:49:59Z</time>
      </trkpt>
      <trkpt lat="45.5402" lon="6.46588">
        <ele>415.2</ele>
        <time>2021-06-01T08:50:00Z</time>
      </trkpt>
      <trkpt lat="45.54026" lon="6.46588">
        <ele>415.6</ele>
        <time>2021-06-01T08:50:01Z</time>
      </trkpt>
      <trkpt lat="45.54031" lon="6.46587">
        <ele>415.4</ele>
        <time>2021-06-01T08:50:02Z</time>
      </trkpt>
      <trkpt lat="45.54038" lon="6.46587">
        <ele>415.6</ele>
        <time>2021-06-01T08:50:03Z</time>
      </trkpt>
      <trkpt lat="45.54044" lon="6.46587">
        <ele>415.8</ele>
        <time>2021-06-01T08:50:04Z</time>
      </trkpt>
      <trkpt lat="45.54051" lon="6.46587">
        <ele>415.8</ele>
        <time>2021-06-01T08:50:05Z</time>
      </trkpt>
      <trkpt lat="45.54055" lon="6.46589">
        <ele>415.8</ele>
        <time>2021-06-01T08:50:06Z</time>
      </trkpt>
      <trkpt lat="45.5406" lon="6.46591">
        <ele>415.8</ele>
        <time>2021-06-01T08:50:07Z</time>
      </trkpt>
      <trkpt lat="45.54064" lon="6.46593">
        <ele>415.6</ele>
        <time>2021-06-01T08:50:08Z</time>
      </trkpt>
      <trkpt lat="45.54068" lon="6.46597">
        <ele>415.4</ele>
        <time>2021-06-01T08:50:09Z</time>
      </trkpt>
      <trkpt lat="45.54073" lon="6.46599">
        <ele>415.4</ele>
        <time>2021-06-01T08:50:10Z</time>
      </trkpt>
      <trkpt lat="45.54078" lon="6.466">
        <ele>415.2</ele>
        <time>2021-06-01T08:50:11Z</time>
      </trkpt>
      <trkpt lat="45.54083" lon="6.46602">
        <ele>415</ele>
        <time>2021-06-01T08:50:12Z</time>
      </trkpt>
      <trkpt lat="45.54088" lon="6.46602">
        <ele>415.2</ele>
        <time>2021-06-01T08:50:13Z</time>
      </trkpt>
      <trkpt lat="45.54092" lon="6.46605">
        <ele>415</ele>
        <time>2021-06-01T08:50:14Z</time>
      </trkpt>
      <trkpt lat="45.54094" lon="6.46609">
        <ele>415</ele>
        <time>2021-06-01T08:50:15Z</time>
      </trkpt>
      <trkpt lat="45.54096" lon="6.46612">
        <ele>415</ele>
        <time>2021-06-01T08:50:16Z</time>
      </trkpt>
      <trkpt lat="45.54099" lon="6.46615">
        <ele>415.2</ele>
        <time>2021-06-01T08:50:17Z</time>
      </trkpt>
      <trkpt lat="45.54103" lon="6.46617">
        <ele>415.6</ele>
        <time>2021-06-01T08:50:18Z</time>
      </trkpt>
      <trkpt lat="45.54107" lon="6.46619">
        <ele>416</ele>
        <time>2021-06-01T08:50:19Z</time>
      </trkpt>
      <trkpt lat="45.54111" lon="6.4662">
        <ele>416.2</ele>
        <time>2021-06-01T08:50:20Z</time>
      </trkpt>
      <trkpt lat="45.54114" lon="6.46623">
        <ele>416.6</ele>
        <time>2021-06-01T08:50:21Z</time>
      </trkpt>
      <trkpt lat="45.54116" lon="6.46625">
        <ele>416.8</ele>
        <time>2021-06-01T08:50:22Z</time>
      </trkpt>
      <trkpt lat="45.54119" lon="6.46626">
        <ele>417.2</ele>
        <time>2021-06-01T08:50:23Z</time>
      </trkpt>
      <trkpt lat="45.54122" lon="6.46627">
        <ele>417.6</ele>
        <time>2021-06-01T08:50:24Z</time>
      </trkpt>
      <trkpt lat="45.54124" lon="6.46628">
        <ele>417.8</ele>
        <time>2021-06-01T08:50:25Z</time>
      </trkpt>
      <trkpt lat="45.54127" lon="6.4663">
        <ele>418.2</ele>
        <time>2021-06-01T08:50:26Z</time>
      </trkpt>
      <trkpt lat="45.5413" lon="6.46631">
        <ele>418.8</ele>
        <time>2021-06-01T08:50:27Z</time>
      </trkpt>
      <trkpt lat="45.54133" lon="6.46633">
        <ele>419.2</ele>
        <time>2021-06-01T08:50:28Z</time>
      </trkpt>
      <trkpt lat="45.54136" lon="6.46634">
        <ele>419.4</ele>
        <time>2021-06-01T08:50:29Z</time>
      </trkpt>
      <trkpt lat="45.54139" lon="6.46635">
        <ele>419.6</ele>
        <time>2021-06-01T08:50:30Z</time>
      </trkpt>
      <trkpt lat="45.54144" lon="6.46635">
        <ele>420</ele>
        <time>2021-06-01T08:50:31Z</time>
      </trkpt>
      <trkpt lat="45.54147" lon="6.46635">
        <ele>420.2</ele>
        <time>2021-06-01T08:50:32Z</time>
      </trkpt>
      <trkpt lat="45.5415" lon="6.46635">
        <ele>420.6</ele>
        <time>2021-06-01T08:50:33Z</time>
      </trkpt>
      <trkpt lat="45.54154" lon="6.46633">
        <ele>421</ele>
        <time>2021-06-01T08:50:34Z</time>
      </trkpt>
      <trkpt lat="45.54157" lon="6.46632">
        <ele>421.4</ele>
        <time>2021-06-01T08:50:35Z</time>
      </trkpt>
      <trkpt lat="45.54161" lon="6.46629">
        <ele>421.6</ele>
        <time>2021-06-01T08:50:36Z</time>
      </trkpt>
      <trkpt lat="45.54164" lon="6.46626">
        <ele>422</ele>
        <time>2021-06-01T08:50:37Z</time>
      </trkpt>
      <trkpt lat="45.54167" lon="6.46624">
        <ele>422.2</ele>
        <time>2021-06-01T08:50:38Z</time>
      </trkpt>
      <trkpt lat="45.5417" lon="6.46621">
        <ele>422.4</ele>
        <time>2021-06-01T08:50:39Z</time>
      </trkpt>
      <trkpt lat="45.54173" lon="6.46617">
        <ele>422.6</ele>
        <time>2021-06-01T08:50:40Z</time>
      </trkpt>
      <trkpt lat="45.54176" lon="6.46615">
        <ele>423</ele>
        <time>2021-06-01T08:50:41Z</time>
      </trkpt>
      <trkpt lat="45.54179" lon="6.46611">
        <ele>423.2</ele>
        <time>2021-06-01T08:50:42Z</time>
      </trkpt>
      <trkpt lat="45.54182" lon="6.46608">
        <ele>423.6</ele>
        <time>2021-06-01T08:50:43Z</time>
      </trkpt>
      <trkpt lat="45.54186" lon="6.46604">
        <ele>423.8</ele>
        <time>2021-06-01T08:50:44Z</time>
      </trkpt>
      <trkpt lat="45.5419" lon="6.46601">
        <ele>424</ele>
        <time>2021-06-01T08:50:45Z</time>
      </trkpt>
      <trkpt lat="45.54195" lon="6.46598">
        <ele>424.2</ele>
        <time>2021-06-01T08:50:46Z</time>
      </trkpt>
      <trkpt lat="45.542" lon="6.46596">
        <ele>424.6</ele>
        <time>2021-06-01T08:50:47Z</time>
      </trkpt>
      <trkpt lat="45.54204" lon="6.46594">
        <ele>425</ele>
        <time>2021-06-01T08:50:48Z</time>
      </trkpt>
      <trkpt lat="45.54209" lon="6.46592">
        <ele>425.6</ele>
        <time>2021-06-01T08:50:49Z</time>
      </trkpt>
      <trkpt lat="45.54213" lon="6.46589">
        <ele>426</ele>
        <time>2021-06-01T08:50:50Z</time>
      </trkpt>
      <trkpt lat="45.54218" lon="6.46587">
        <ele>426.8</ele>
        <time>2021-06-01T08:50:51Z</time>
      </trkpt>
      <trkpt lat="45.54221" lon="6.46585">
        <ele>427.4</ele>
        <time>2021-06-01T08:50:52Z</time>
      </trkpt>
      <trkpt lat="45.54226" lon="6.46583">
        <ele>427.6</ele>
        <time>2021-06-01T08:50:53Z</time>
      </trkpt>
      <trkpt lat="45.5423" lon="6.46581">
        <ele>428.2</ele>
        <time>2021-06-01T08:50:54Z</time>
      </trkpt>
      <trkpt lat="45.54233" lon="6.46579">
        <ele>428.6</ele>
        <time>2021-06-01T08:50:55Z</time>
      </trkpt>
      <trkpt lat="45.54237" lon="6.46576">
        <ele>429.2</ele>
        <time>2021-06-01T08:50:56Z</time>
      </trkpt>
      <trkpt lat="45.54241" lon="6.46574">
        <ele>429.8</ele>
        <time>2021-06-01T08:50:57Z</time>
      </trkpt>
      <trkpt lat="45.54245" lon="6.46572">
        <ele>430.2</ele>
        <time>2021-06-01T08:50:58Z</time>
      </trkpt>
      <trkpt lat="45.54249" lon="6.46569">
        <ele>430.8</ele>
        <time>2021-06-01T08:50:59Z</time>
      </trkpt>
      <trkpt lat="45.54253" lon="6.46566">
        <ele>431</ele>
        <time>2021-06-01T08:51:00Z</time>
      </trkpt>
      <trkpt lat="45.54257" lon="6.46564">
        <ele>431.6</ele>
        <time>2021-06-01T08:51:01Z</time>
      </trkpt>
      <trkpt lat="45.5426" lon="6.46563">
        <ele>431.6</ele>
        <time>2021-06-01T08:51:02Z</time>
      </trkpt>
      <trkpt lat="45.54264" lon="6.46561">
        <ele>432</ele>
        <time>2021-06-01T08:51:03Z</time>
      </trkpt>
      <trkpt lat="45.54268" lon="6.46559">
        <ele>432.4</ele>
        <time>2021-06-01T08:51:04Z</time>
      </trkpt>
      <trkpt lat="45.54272" lon="6.46558">
        <ele>433</ele>
        <time>2021-06-01T08:51:05Z</time>
      </trkpt>
      <trkpt lat="45.54276" lon="6.46556">
        <ele>433.4</ele>
        <time>2021-06-01T08:51:06Z</time>
      </trkpt>
      <trkpt lat="45.54281" lon="6.46554">
        <ele>433.6</ele>
        <time>2021-06-01T08:51:07Z</time>
      </trkpt>
      <trkpt lat="45.54285" lon="6.46551">
        <ele>434.4</ele>
        <time>2021-06-01T08:51:08Z</time>
      </trkpt>
      <trkpt lat="45.54289" lon="6.46549">
        <ele>434.6</ele>
        <time>2021-06-01T08:51:09Z</time>
      </trkpt>
      <trkpt lat="45.54292" lon="6.46548">
        <ele>434.6</ele>
        <time>2021-06-01T08:51:10Z</time>
      </trkpt>
      <trkpt lat="45.54295" lon="6.46546">
        <ele>435</ele>
        <time>2021-06-01T08:51:11Z</time>
      </trkpt>
      <trkpt lat="45.54299" lon="6.46546">
        <ele>435</ele>
        <time>2021-06-01T08:51:12Z</time>
      </trkpt>
      <trkpt lat="45.54302" lon="6.46545">
        <ele>434.8</ele>
        <time>2021-06-01T08:51:13Z</time>
      </trkpt>
      <trkpt lat="45.54305" lon="6.46544">
        <ele>434.8</ele>
        <time>2021-06-01T08:51:14Z</time>
      </trkpt>
      <trkpt lat="45.54308" lon="6.46543">
        <ele>435.2</ele>
        <time>2021-06-01T08:51:15Z</time>
      </trkpt>
      <trkpt lat="45.54311" lon="6.46542">
        <ele>435.4</ele>
        <time>2021-06-01T08:51:16Z</time>
      </trkpt>
      <trkpt lat="45.54314" lon="6.46541">
        <ele>435.6</ele>
        <time>2021-06-01T08:51:17Z</time>
      </trkpt>
      <trkpt lat="45.54316" lon="6.4654">
        <ele>435.6</ele>
        <time>2021-06-01T08:51:18Z</time>
      </trkpt>
      <trkpt lat="45.54318" lon="6.4654">
        <ele>435.2</ele>
        <time>2021-06-01T08:51:19Z</time>
      </trkpt>
      <trkpt lat="45.5432" lon="6.46539">
        <ele>434.8</ele>
        <time>2021-06-01T08:51:20Z</time>
      </trkpt>
      <trkpt lat="45.54322" lon="6.46538">
        <ele>434.8</ele>
        <time>2021-06-01T08:51:21Z</time>
      </trkpt>
      <trkpt lat="45.54324" lon="6.46537">
        <ele>434.4</ele>
        <time>2021-06-01T08:51:22Z</time>
      </trkpt>
      <trkpt lat="45.54326" lon="6.46537">
        <ele>434.2</ele>
        <time>2021-06-01T08:51:23Z</time>
      </trkpt>
      <trkpt lat="45.54329" lon="6.46537">
        <ele>434.4</ele>
        <time>2021-06-01T08:51:24Z</time>
      </trkpt>
      <trkpt lat="45.54332" lon="6.46535">
        <ele>434.4</ele>
        <time>2021-06-01T08:51:25Z</time>
      </trkpt>
      <trkpt lat="45.54336" lon="6.46534">
        <ele>434.6</ele>
        <time>2021-06-01T08:51:26Z</time>
      </trkpt>
      <trkpt lat="45.54339" lon="6.46532">
        <ele>435</ele>
        <time>2021-06-01T08:51:27Z</time>
      </trkpt>
      <trkpt lat="45.54343" lon="6.46531">
        <ele>435</ele>
        <time>2021-06-01T08:51:28Z</time>
      </trkpt>
      <trkpt lat="45.54346" lon="6.4653">
        <ele>435.2</ele>
        <time>2021-06-01T08:51:29Z</time>
      </trkpt>
      <trkpt lat="45.54349" lon="6.46529">
        <ele>435.6</ele>
        <time>2021-06-01T08:51:30Z</time>
      </trkpt>
      <trkpt lat="45.54353" lon="6.46528">
        <ele>436</ele>
        <time>2021-06-01T08:51:31Z</time>
      </trkpt>
      <trkpt lat="45.54357" lon="6.46526">
        <ele>436.2</ele>
        <time>2021-06-01T08:51:32Z</time>
      </trkpt>
      <trkpt lat="45.54361" lon="6.46524">
        <ele>436.2</ele>
        <time>2021-06-01T08:51:33Z</time>
      </trkpt>
      <trkpt lat="45.54366" lon="6.46522">
        <ele>436.2</ele>
        <time>2021-06-01T08:51:34Z</time>
      </trkpt>
      <trkpt lat="45.5437" lon="6.46521">
        <ele>436.2</ele>
        <time>2021-06-01T08:51:35Z</time>
      </trkpt>
      <trkpt lat="45.54374" lon="6.4652">
        <ele>436.4</ele>
        <time>2021-06-01T08:51:36Z</time>
      </trkpt>
      <trkpt lat="45.54378" lon="6.46519">
        <ele>436.4</ele>
        <time>2021-06-01T08:51:37Z</time>
      </trkpt>
      <trkpt lat="45.54381" lon="6.46518">
        <ele>436.8</ele>
        <time>2021-06-01T08:51:38Z</time>
      </trkpt>
      <trkpt lat="45.54385" lon="6.46516">
        <ele>437</ele>
        <time>2021-06-01T08:51:39Z</time>
      </trkpt>
      <trkpt lat="45.54389" lon="6.46516">
        <ele>437.2</ele>
        <time>2021-06-01T08:51:40Z</time>
      </trkpt>
      <trkpt lat="45.54392" lon="6.46515">
        <ele>437.4</ele>
        <time>2021-06-01T08:51:41Z</time>
      </trkpt>
      <trkpt lat="45.54395" lon="6.46515">
        <ele>437.8</ele>
        <time>2021-06-01T08:51:42Z</time>
      </trkpt>
      <trkpt lat="45.54399" lon="6.46514">
        <ele>438</ele>
        <time>2021-06-01T08:51:43Z</time>
      </trkpt>
      <trkpt lat="45.54403" lon="6.46514">
        <ele>438.4</ele>
        <time>2021-06-01T08:51:44Z</time>
      </trkpt>
      <trkpt lat="45.54405" lon="6.46514">
        <ele>439</ele>
        <time>2021-06-01T08:51:45Z</time>
      </trkpt>
      <trkpt lat="45.54408" lon="6.46513">
        <ele>439.6</ele>
        <time>2021-06-01T08:51:46Z</time>
      </trkpt>
      <trkpt lat="45.54411" lon="6.46512">
        <ele>440.2</ele>
        <time>2021-06-01T08:51:47Z</time>
      </trkpt>
      <trkpt lat="45.54414" lon="6.46511">
        <ele>440.6</ele>
        <time>2021-06-01T08:51:48Z</time>
      </trkpt>
      <trkpt lat="45.54417" lon="6.4651">
        <ele>440.8</ele>
        <time>2021-06-01T08:51:49Z</time>
      </trkpt>
      <trkpt lat="45.5442" lon="6.46509">
        <ele>440.8</ele>
        <time>2021-06-01T08:51:50Z</time>
      </trkpt>
      <trkpt lat="45.54423" lon="6.46508">
        <ele>441.2</ele>
        <time>2021-06-01T08:51:51Z</time>
      </trkpt>
      <trkpt lat="45.54426" lon="6.46506">
        <ele>441.4</ele>
        <time>2021-06-01T08:51:52Z</time>
      </trkpt>
      <trkpt lat="45.54429" lon="6.46505">
        <ele>442</ele>
        <time>2021-06-01T08:51:53Z</time>
      </trkpt>
      <trkpt lat="45.54433" lon="6.46503">
        <ele>442.6</ele>
        <time>2021-06-01T08:51:54Z</time>
      </trkpt>
      <trkpt lat="45.54436" lon="6.46501">
        <ele>443.2</ele>
        <time>2021-06-01T08:51:55Z</time>
      </trkpt>
      <trkpt lat="45.54441" lon="6.465">
        <ele>444</ele>
        <time>2021-06-01T08:51:56Z</time>
      </trkpt>
      <trkpt lat="45.54445" lon="6.46498">
        <ele>444.8</ele>
        <time>2021-06-01T08:51:57Z</time>
      </trkpt>
      <trkpt lat="45.54449" lon="6.46497">
        <ele>445.4</ele>
        <time>2021-06-01T08:51:58Z</time>
      </trkpt>
      <trkpt lat="45.54454" lon="6.46495">
        <ele>446</ele>
        <time>2021-06-01T08:51:59Z</time>
      </trkpt>
      <trkpt lat="45.54458" lon="6.46493">
        <ele>446.6</ele>
        <time>2021-06-01T08:52:00Z</time>
      </trkpt>
      <trkpt lat="45.54462" lon="6.46492">
        <ele>447.2</ele>
        <time>2021-06-01T08:52:01Z</time>
      </trkpt>
      <trkpt lat="45.54467" lon="6.46491">
        <ele>447.6</ele>
        <time>2021-06-01T08:52:02Z</time>
      </trkpt>
      <trkpt lat="45.54472" lon="6.46489">
        <ele>448.2</ele>
        <time>2021-06-01T08:52:03Z</time>
      </trkpt>
      <trkpt lat="45.54476" lon="6.46487">
        <ele>448.4</ele>
        <time>2021-06-01T08:52:04Z</time>
      </trkpt>
      <trkpt lat="45.54481" lon="6.46485">
        <ele>448.8</ele>
        <time>2021-06-01T08:52:05Z</time>
      </trkpt>
      <trkpt lat="45.54485" lon="6.46483">
        <ele>449</ele>
        <time>2021-06-01T08:52:06Z</time>
      </trkpt>
      <trkpt lat="45.54492" lon="6.46482">
        <ele>448.8</ele>
        <time>2021-06-01T08:52:07Z</time>
      </trkpt>
      <trkpt lat="45.54498" lon="6.4648">
        <ele>448.8</ele>
        <time>2021-06-01T08:52:08Z</time>
      </trkpt>
      <trkpt lat="45.54506" lon="6.46479">
        <ele>448.8</ele>
        <time>2021-06-01T08:52:09Z</time>
      </trkpt>
      <trkpt lat="45.54514" lon="6.46477">
        <ele>448.8</ele>
        <time>2021-06-01T08:52:10Z</time>
      </trkpt>
      <trkpt lat="45.54524" lon="6.46476">
        <ele>448.6</ele>
        <time>2021-06-01T08:52:11Z</time>
      </trkpt>
      <trkpt lat="45.54533" lon="6.46475">
        <ele>448.4</ele>
        <time>2021-06-01T08:52:12Z</time>
      </trkpt>
      <trkpt lat="45.54544" lon="6.46475">
        <ele>448</ele>
        <time>2021-06-01T08:52:13Z</time>
      </trkpt>
      <trkpt lat="45.54557" lon="6.46475">
        <ele>447.6</ele>
        <time>2021-06-01T08:52:14Z</time>
      </trkpt>
      <trkpt lat="45.54568" lon="6.46476">
        <ele>447.2</ele>
        <time>2021-06-01T08:52:15Z</time>
      </trkpt>
      <trkpt lat="45.54579" lon="6.46478">
        <ele>446.8</ele>
        <time>2021-06-01T08:52:16Z</time>
      </trkpt>
      <trkpt lat="45.5459" lon="6.4648">
        <ele>446.6</ele>
        <time>2021-06-01T08:52:17Z</time>
      </trkpt>
      <trkpt lat="45.54602" lon="6.46483">
        <ele>446</ele>
        <time>2021-06-01T08:52:18Z</time>
      </trkpt>
      <trkpt lat="45.54613" lon="6.46485">
        <ele>445.8</ele>
        <time>2021-06-01T08:52:19Z</time>
      </trkpt>
      <trkpt lat="45.54625" lon="6.46489">
        <ele>444.4</ele>
        <time>2021-06-01T08:52:20Z</time>
      </trkpt>
      <trkpt lat="45.54637" lon="6.46492">
        <ele>442.8</ele>
        <time>2021-06-01T08:52:21Z</time>
      </trkpt>
      <trkpt lat="45.54649" lon="6.46496">
        <ele>441</ele>
        <time>2021-06-01T08:52:22Z</time>
      </trkpt>
      <trkpt lat="45.5466" lon="6.46499">
        <ele>439.8</ele>
        <time>2021-06-01T08:52:23Z</time>
      </trkpt>
      <trkpt lat="45.54673" lon="6.46503">
        <ele>438.6</ele>
        <time>2021-06-01T08:52:24Z</time>
      </trkpt>
      <trkpt lat="45.54684" lon="6.46506">
        <ele>437.8</ele>
        <time>2021-06-01T08:52:25Z</time>
      </trkpt>
      <trkpt lat="45.54696" lon="6.46511">
        <ele>436.8</ele>
        <time>2021-06-01T08:52:26Z</time>
      </trkpt>
      <trkpt lat="45.5471" lon="6.46516">
        <ele>435.6</ele>
        <time>2021-06-01T08:52:27Z</time>
      </trkpt>
      <trkpt lat="45.54723" lon="6.46522">
        <ele>434.8</ele>
        <time>2021-06-01T08:52:28Z</time>
      </trkpt>
      <trkpt lat="45.54736" lon="6.46529">
        <ele>433.4</ele>
        <time>2021-06-01T08:52:29Z</time>
      </trkpt>
      <trkpt lat="45.54748" lon="6.46538">
        <ele>432.4</ele>
        <time>2021-06-01T08:52:30Z</time>
      </trkpt>
      <trkpt lat="45.5476" lon="6.46547">
        <ele>431</ele>
        <time>2021-06-01T08:52:31Z</time>
      </trkpt>
      <trkpt lat="45.54772" lon="6.46555">
        <ele>429.4</ele>
        <time>2021-06-01T08:52:32Z</time>
      </trkpt>
      <trkpt lat="45.54784" lon="6.46564">
        <ele>428.2</ele>
        <time>2021-06-01T08:52:33Z</time>
      </trkpt>
      <trkpt lat="45.54796" lon="6.46573">
        <ele>427.2</ele>
        <time>2021-06-01T08:52:34Z</time>
      </trkpt>
      <trkpt lat="45.54808" lon="6.46581">
        <ele>425.8</ele>
        <time>2021-06-01T08:52:35Z</time>
      </trkpt>
      <trkpt lat="45.5482" lon="6.4659">
        <ele>424.8</ele>
        <time>2021-06-01T08:52:36Z</time>
      </trkpt>
      <trkpt lat="45.54832" lon="6.46599">
        <ele>424</ele>
        <time>2021-06-01T08:52:37Z</time>
      </trkpt>
      <trkpt lat="45.54844" lon="6.46608">
        <ele>423</ele>
        <time>2021-06-01T08:52:38Z</time>
      </trkpt>
      <trkpt lat="45.54856" lon="6.46618">
        <ele>421.6</ele>
        <time>2021-06-01T08:52:39Z</time>
      </trkpt>
      <trkpt lat="45.54867" lon="6.46628">
        <ele>421</ele>
        <time>2021-06-01T08:52:40Z</time>
      </trkpt>
      <trkpt lat="45.54878" lon="6.46637">
        <ele>419.8</ele>
        <time>2021-06-01T08:52:41Z</time>
      </trkpt>
      <trkpt lat="45.54889" lon="6.46648">
        <ele>418.8</ele>
        <time>2021-06-01T08:52:42Z</time>
      </trkpt>
      <trkpt lat="45.549" lon="6.46658">
        <ele>417.8</ele>
        <time>2021-06-01T08:52:43Z</time>
      </trkpt>
      <trkpt lat="45.54911" lon="6.46668">
        <ele>417.4</ele>
        <time>2021-06-01T08:52:44Z</time>
      </trkpt>
      <trkpt lat="45.54922" lon="6.46678">
        <ele>416.6</ele>
        <time>2021-06-01T08:52:45Z</time>
      </trkpt>
      <trkpt lat="45.54932" lon="6.4669">
        <ele>415.6</ele>
        <time>2021-06-01T08:52:46Z</time>
      </trkpt>
      <trkpt lat="45.54943" lon="6.467">
        <ele>415</ele>
        <time>2021-06-01T08:52:47Z</time>
      </trkpt>
      <trkpt lat="45.54954" lon="6.4671">
        <ele>414</ele>
        <time>2021-06-01T08:52:48Z</time>
      </trkpt>
      <trkpt lat="45.54965" lon="6.4672">
        <ele>413.2</ele>
        <time>2021-06-01T08:52:49Z</time>
      </trkpt>
      <trkpt lat="45.54975" lon="6.4673">
        <ele>412.6</ele>
        <time>2021-06-01T08:52:50Z</time>
      </trkpt>
      <trkpt lat="45.54986" lon="6.4674">
        <ele>411.6</ele>
        <time>2021-06-01T08:52:51Z</time>
      </trkpt>
      <trkpt lat="45.54996" lon="6.46749">
        <ele>411.2</ele>
        <time>2021-06-01T08:52:52Z</time>
      </trkpt>
      <trkpt lat="45.55006" lon="6.46758">
        <ele>410.6</ele>
        <time>2021-06-01T08:52:53Z</time>
      </trkpt>
      <trkpt lat="45.55018" lon="6.46767">
        <ele>410</ele>
        <time>2021-06-01T08:52:54Z</time>
      </trkpt>
      <trkpt lat="45.55028" lon="6.46777">
        <ele>409.6</ele>
        <time>2021-06-01T08:52:55Z</time>
      </trkpt>
      <trkpt lat="45.55039" lon="6.46786">
        <ele>409.2</ele>
        <time>2021-06-01T08:52:56Z</time>
      </trkpt>
      <trkpt lat="45.5505" lon="6.46794">
        <ele>408.6</ele>
        <time>2021-06-01T08:52:57Z</time>
      </trkpt>
      <trkpt lat="45.5506" lon="6.46801">
        <ele>408.2</ele>
        <time>2021-06-01T08:52:58Z</time>
      </trkpt>
      <trkpt lat="45.5507" lon="6.46807">
        <ele>407.4</ele>
        <time>2021-06-01T08:52:59Z</time>
      </trkpt>
      <trkpt lat="45.5508" lon="6.46812">
        <ele>407</ele>
        <time>2021-06-01T08:53:00Z</time>
      </trkpt>
      <trkpt lat="45.55089" lon="6.46817">
        <ele>406.6</ele>
        <time>2021-06-01T08:53:01Z</time>
      </trkpt>
      <trkpt lat="45.55098" lon="6.4682">
        <ele>406.4</ele>
        <time>2021-06-01T08:53:02Z</time>
      </trkpt>
      <trkpt lat="45.55107" lon="6.46825">
        <ele>406.4</ele>
        <time>2021-06-01T08:53:03Z</time>
      </trkpt>
      <trkpt lat="45.55116" lon="6.46828">
        <ele>406.8</ele>
        <time>2021-06-01T08:53:04Z</time>
      </trkpt>
      <trkpt lat="45.55125" lon="6.46832">
        <ele>406.8</ele>
        <time>2021-06-01T08:53:05Z</time>
      </trkpt>
      <trkpt lat="45.55134" lon="6.46835">
        <ele>406.8</ele>
        <time>2021-06-01T08:53:06Z</time>
      </trkpt>
      <trkpt lat="45.55143" lon="6.46838">
        <ele>406.8</ele>
        <time>2021-06-01T08:53:07Z</time>
      </trkpt>
      <trkpt lat="45.55151" lon="6.4684">
        <ele>406.6</ele>
        <time>2021-06-01T08:53:08Z</time>
      </trkpt>
      <trkpt lat="45.55161" lon="6.46842">
        <ele>406.4</ele>
        <time>2021-06-01T08:53:09Z</time>
      </trkpt>
      <trkpt lat="45.5517" lon="6.46842">
        <ele>406.2</ele>
        <time>2021-06-01T08:53:10Z</time>
      </trkpt>
      <trkpt lat="45.55179" lon="6.46843">
        <ele>406.2</ele>
        <time>2021-06-01T08:53:11Z</time>
      </trkpt>
      <trkpt lat="45.55187" lon="6.46842">
        <ele>406</ele>
        <time>2021-06-01T08:53:12Z</time>
      </trkpt>
      <trkpt lat="45.55196" lon="6.46841">
        <ele>406</ele>
        <time>2021-06-01T08:53:13Z</time>
      </trkpt>
      <trkpt lat="45.55204" lon="6.4684">
        <ele>406</ele>
        <time>2021-06-01T08:53:14Z</time>
      </trkpt>
      <trkpt lat="45.55213" lon="6.46837">
        <ele>405.6</ele>
        <time>2021-06-01T08:53:15Z</time>
      </trkpt>
      <trkpt lat="45.55222" lon="6.46835">
        <ele>405.6</ele>
        <time>2021-06-01T08:53:16Z</time>
      </trkpt>
      <trkpt lat="45.55231" lon="6.46832">
        <ele>405.4</ele>
        <time>2021-06-01T08:53:17Z</time>
      </trkpt>
      <trkpt lat="45.55239" lon="6.46827">
        <ele>405.4</ele>
        <time>2021-06-01T08:53:18Z</time>
      </trkpt>
      <trkpt lat="45.55247" lon="6.46823">
        <ele>405.6</ele>
        <time>2021-06-01T08:53:19Z</time>
      </trkpt>
      <trkpt lat="45.55255" lon="6.46819">
        <ele>405.4</ele>
        <time>2021-06-01T08:53:20Z</time>
      </trkpt>
      <trkpt lat="45.55264" lon="6.46815">
        <ele>405.6</ele>
        <time>2021-06-01T08:53:21Z</time>
      </trkpt>
      <trkpt lat="45.55272" lon="6.46811">
        <ele>405.6</ele>
        <time>2021-06-01T08:53:22Z</time>
      </trkpt>
      <trkpt lat="45.5528" lon="6.46806">
        <ele>405.6</ele>
        <time>2021-06-01T08:53:23Z</time>
      </trkpt>
      <trkpt lat="45.55288" lon="6.46803">
        <ele>405.4</ele>
        <time>2021-06-01T08:53:24Z</time>
      </trkpt>
      <trkpt lat="45.55296" lon="6.46799">
        <ele>405.4</ele>
        <time>2021-06-01T08:53:25Z</time>
      </trkpt>
      <trkpt lat="45.55304" lon="6.46794">
        <ele>405.2</ele>
        <time>2021-06-01T08:53:26Z</time>
      </trkpt>
      <trkpt lat="45.55311" lon="6.4679">
        <ele>405</ele>
        <time>2021-06-01T08:53:27Z</time>
      </trkpt>
      <trkpt lat="45.5532" lon="6.46786">
        <ele>405.2</ele>
        <time>2021-06-01T08:53:28Z</time>
      </trkpt>
      <trkpt lat="45.55851" lon="6.46506">
        <ele>396.2</ele>
        <time>2021-06-01T08:54:32Z</time>
      </trkpt>
      <trkpt lat="45.55863" lon="6.46506">
        <ele>395.8</ele>
        <time>2021-06-01T08:54:34Z</time>
      </trkpt>
      <trkpt lat="45.55868" lon="6.46494">
        <ele>395.4</ele>
        <time>2021-06-01T08:54:35Z</time>
      </trkpt>
      <trkpt lat="45.55874" lon="6.46492">
        <ele>395.6</ele>
        <time>2021-06-01T08:54:36Z</time>
      </trkpt>
      <trkpt lat="45.55884" lon="6.4649">
        <ele>395.8</ele>
        <time>2021-06-01T08:54:37Z</time>
      </trkpt>
      <trkpt lat="45.55891" lon="6.46486">
        <ele>395.2</ele>
        <time>2021-06-01T08:54:38Z</time>
      </trkpt>
      <trkpt lat="45.559" lon="6.46485">
        <ele>395.8</ele>
        <time>2021-06-01T08:54:39Z</time>
      </trkpt>
      <trkpt lat="45.55907" lon="6.46484">
        <ele>395.6</ele>
        <time>2021-06-01T08:54:40Z</time>
      </trkpt>
      <trkpt lat="45.55915" lon="6.46484">
        <ele>396</ele>
        <time>2021-06-01T08:54:41Z</time>
      </trkpt>
      <trkpt lat="45.55922" lon="6.46484">
        <ele>396.2</ele>
        <time>2021-06-01T08:54:42Z</time>
      </trkpt>
      <trkpt lat="45.5593" lon="6.46487">
        <ele>396.4</ele>
        <time>2021-06-01T08:54:43Z</time>
      </trkpt>
      <trkpt lat="45.55938" lon="6.46489">
        <ele>396.2</ele>
        <time>2021-06-01T08:54:44Z</time>
      </trkpt>
      <trkpt lat="45.55947" lon="6.4649">
        <ele>396</ele>
        <time>2021-06-01T08:54:45Z</time>
      </trkpt>
      <trkpt lat="45.55955" lon="6.46492">
        <ele>395.8</ele>
        <time>2021-06-01T08:54:46Z</time>
      </trkpt>
      <trkpt lat="45.55964" lon="6.46494">
        <ele>395.8</ele>
        <time>2021-06-01T08:54:47Z</time>
      </trkpt>
      <trkpt lat="45.55971" lon="6.46497">
        <ele>395.6</ele>
        <time>2021-06-01T08:54:48Z</time>
      </trkpt>
      <trkpt lat="45.5598" lon="6.46498">
        <ele>395.4</ele>
        <time>2021-06-01T08:54:49Z</time>
      </trkpt>
      <trkpt lat="45.55988" lon="6.46501">
        <ele>395.6</ele>
        <time>2021-06-01T08:54:50Z</time>
      </trkpt>
      <trkpt lat="45.55996" lon="6.46503">
        <ele>395.4</ele>
        <time>2021-06-01T08:54:51Z</time>
      </trkpt>
      <trkpt lat="45.56004" lon="6.46504">
        <ele>395.4</ele>
        <time>2021-06-01T08:54:52Z</time>
      </trkpt>
      <trkpt lat="45.56012" lon="6.46505">
        <ele>395.6</ele>
        <time>2021-06-01T08:54:53Z</time>
      </trkpt>
      <trkpt lat="45.5602" lon="6.46505">
        <ele>395.6</ele>
        <time>2021-06-01T08:54:54Z</time>
      </trkpt>
      <trkpt lat="45.56029" lon="6.46506">
        <ele>395.8</ele>
        <time>2021-06-01T08:54:55Z</time>
      </trkpt>
      <trkpt lat="45.56037" lon="6.46507">
        <ele>395.8</ele>
        <time>2021-06-01T08:54:56Z</time>
      </trkpt>
      <trkpt lat="45.56047" lon="6.46508">
        <ele>396.2</ele>
        <time>2021-06-01T08:54:57Z</time>
      </trkpt>
      <trkpt lat="45.56055" lon="6.46509">
        <ele>396.2</ele>
        <time>2021-06-01T08:54:58Z</time>
      </trkpt>
      <trkpt lat="45.56065" lon="6.46511">
        <ele>396.2</ele>
        <time>2021-06-01T08:54:59Z</time>
      </trkpt>
      <trkpt lat="45.56073" lon="6.46512">
        <ele>396</ele>
        <time>2021-06-01T08:55:00Z</time>
      </trkpt>
      <trkpt lat="45.56081" lon="6.46514">
        <ele>396.2</ele>
        <time>2021-06-01T08:55:01Z</time>
      </trkpt>
      <trkpt lat="45.5609" lon="6.46517">
        <ele>396</ele>
        <time>2021-06-01T08:55:02Z</time>
      </trkpt>
      <trkpt lat="45.56101" lon="6.4652">
        <ele>396.4</ele>
        <time>2021-06-01T08:55:03Z</time>
      </trkpt>
      <trkpt lat="45.56111" lon="6.46522">
        <ele>396</ele>
        <time>2021-06-01T08:55:04Z</time>
      </trkpt>
      <trkpt lat="45.56122" lon="6.46525">
        <ele>397</ele>
        <time>2021-06-01T08:55:05Z</time>
      </trkpt>
      <trkpt lat="45.56131" lon="6.46526">
        <ele>397.6</ele>
        <time>2021-06-01T08:55:06Z</time>
      </trkpt>
      <trkpt lat="45.56139" lon="6.46525">
        <ele>398.2</ele>
        <time>2021-06-01T08:55:07Z</time>
      </trkpt>
      <trkpt lat="45.56157" lon="6.4652">
        <ele>399</ele>
        <time>2021-06-01T08:55:09Z</time>
      </trkpt>
      <trkpt lat="45.56161" lon="6.46514">
        <ele>399.2</ele>
        <time>2021-06-01T08:55:10Z</time>
      </trkpt>
      <trkpt lat="45.56166" lon="6.46506">
        <ele>399</ele>
        <time>2021-06-01T08:55:11Z</time>
      </trkpt>
      <trkpt lat="45.56172" lon="6.46498">
        <ele>399</ele>
        <time>2021-06-01T08:55:12Z</time>
      </trkpt>
      <trkpt lat="45.56317" lon="6.46359">
        <ele>397.2</ele>
        <time>2021-06-01T08:55:34Z</time>
      </trkpt>
      <trkpt lat="45.5632" lon="6.46358">
        <ele>397.2</ele>
        <time>2021-06-01T08:55:35Z</time>
      </trkpt>
      <trkpt lat="45.56328" lon="6.46357">
        <ele>397.2</ele>
        <time>2021-06-01T08:55:36Z</time>
      </trkpt>
      <trkpt lat="45.5634" lon="6.46358">
        <ele>397</ele>
        <time>2021-06-01T08:55:37Z</time>
      </trkpt>
      <trkpt lat="45.56347" lon="6.46359">
        <ele>397</ele>
        <time>2021-06-01T08:55:38Z</time>
      </trkpt>
      <trkpt lat="45.56355" lon="6.46361">
        <ele>397</ele>
        <time>2021-06-01T08:55:39Z</time>
      </trkpt>
      <trkpt lat="45.56365" lon="6.46365">
        <ele>397</ele>
        <time>2021-06-01T08:55:40Z</time>
      </trkpt>
      <trkpt lat="45.56377" lon="6.46369">
        <ele>397</ele>
        <time>2021-06-01T08:55:41Z</time>
      </trkpt>
      <trkpt lat="45.56385" lon="6.46371">
        <ele>396.8</ele>
        <time>2021-06-01T08:55:42Z</time>
      </trkpt>
      <trkpt lat="45.56393" lon="6.46373">
        <ele>396.8</ele>
        <time>2021-06-01T08:55:43Z</time>
      </trkpt>
      <trkpt lat="45.56401" lon="6.46373">
        <ele>396.8</ele>
        <time>2021-06-01T08:55:44Z</time>
      </trkpt>
      <trkpt lat="45.56406" lon="6.46373">
        <ele>396.6</ele>
        <time>2021-06-01T08:55:45Z</time>
      </trkpt>
      <trkpt lat="45.56412" lon="6.46371">
        <ele>396.4</ele>
        <time>2021-06-01T08:55:46Z</time>
      </trkpt>
      <trkpt lat="45.56444" lon="6.46368">
        <ele>395.8</ele>
        <time>2021-06-01T08:55:50Z</time>
      </trkpt>
      <trkpt lat="45.5645" lon="6.46366">
        <ele>395.8</ele>
        <time>2021-06-01T08:55:51Z</time>
      </trkpt>
      <trkpt lat="45.56453" lon="6.46365">
        <ele>395.8</ele>
        <time>2021-06-01T08:55:52Z</time>
      </trkpt>
      <trkpt lat="45.56462" lon="6.46363">
        <ele>396</ele>
        <time>2021-06-01T08:55:53Z</time>
      </trkpt>
      <trkpt lat="45.56469" lon="6.46361">
        <ele>395.6</ele>
        <time>2021-06-01T08:55:54Z</time>
      </trkpt>
      <trkpt lat="45.56477" lon="6.46358">
        <ele>395.6</ele>
        <time>2021-06-01T08:55:55Z</time>
      </trkpt>
      <trkpt lat="45.56485" lon="6.46356">
        <ele>395.6</ele>
        <time>2021-06-01T08:55:56Z</time>
      </trkpt>
      <trkpt lat="45.56494" lon="6.46355">
        <ele>396</ele>
        <time>2021-06-01T08:55:57Z</time>
      </trkpt>
      <trkpt lat="45.56502" lon="6.46354">
        <ele>395.8</ele>
        <time>2021-06-01T08:55:58Z</time>
      </trkpt>
      <trkpt lat="45.56511" lon="6.46353">
        <ele>395.4</ele>
        <time>2021-06-01T08:55:59Z</time>
      </trkpt>
      <trkpt lat="45.56519" lon="6.46352">
        <ele>395.4</ele>
        <time>2021-06-01T08:56:00Z</time>
      </trkpt>
      <trkpt lat="45.56528" lon="6.46352">
        <ele>395.2</ele>
        <time>2021-06-01T08:56:01Z</time>
      </trkpt>
      <trkpt lat="45.56537" lon="6.46352">
        <ele>395.4</ele>
        <time>2021-06-01T08:56:02Z</time>
      </trkpt>
      <trkpt lat="45.56548" lon="6.46353">
        <ele>395.8</ele>
        <time>2021-06-01T08:56:03Z</time>
      </trkpt>
      <trkpt lat="45.56559" lon="6.46355">
        <ele>395.4</ele>
        <time>2021-06-01T08:56:04Z</time>
      </trkpt>
      <trkpt lat="45.56569" lon="6.46358">
        <ele>395</ele>
        <time>2021-06-01T08:56:05Z</time>
      </trkpt>
      <trkpt lat="45.56578" lon="6.46361">
        <ele>394.8</ele>
        <time>2021-06-01T08:56:06Z</time>
      </trkpt>
      <trkpt lat="45.56588" lon="6.46364">
        <ele>394.6</ele>
        <time>2021-06-01T08:56:07Z</time>
      </trkpt>
      <trkpt lat="45.56597" lon="6.46369">
        <ele>394.8</ele>
        <time>2021-06-01T08:56:08Z</time>
      </trkpt>
      <trkpt lat="45.56607" lon="6.46374">
        <ele>394.6</ele>
        <time>2021-06-01T08:56:09Z</time>
      </trkpt>
      <trkpt lat="45.56618" lon="6.46378">
        <ele>394.6</ele>
        <time>2021-06-01T08:56:10Z</time>
      </trkpt>
      <trkpt lat="45.56627" lon="6.46381">
        <ele>394.2</ele>
        <time>2021-06-01T08:56:11Z</time>
      </trkpt>
      <trkpt lat="45.56633" lon="6.46385">
        <ele>394.2</ele>
        <time>2021-06-01T08:56:12Z</time>
      </trkpt>
      <trkpt lat="45.56641" lon="6.46388">
        <ele>394.2</ele>
        <time>2021-06-01T08:56:13Z</time>
      </trkpt>
      <trkpt lat="45.56647" lon="6.46392">
        <ele>393.2</ele>
        <time>2021-06-01T08:56:14Z</time>
      </trkpt>
      <trkpt lat="45.56653" lon="6.46396">
        <ele>393.6</ele>
        <time>2021-06-01T08:56:15Z</time>
      </trkpt>
      <trkpt lat="45.56661" lon="6.464">
        <ele>393.8</ele>
        <time>2021-06-01T08:56:16Z</time>
      </trkpt>
      <trkpt lat="45.56668" lon="6.46405">
        <ele>394.4</ele>
        <time>2021-06-01T08:56:17Z</time>
      </trkpt>
      <trkpt lat="45.56675" lon="6.46408">
        <ele>394.6</ele>
        <time>2021-06-01T08:56:18Z</time>
      </trkpt>
      <trkpt lat="45.56684" lon="6.46411">
        <ele>395.2</ele>
        <time>2021-06-01T08:56:19Z</time>
      </trkpt>
      <trkpt lat="45.56692" lon="6.46412">
        <ele>395.2</ele>
        <time>2021-06-01T08:56:20Z</time>
      </trkpt>
      <trkpt lat="45.56699" lon="6.46411">
        <ele>395.2</ele>
        <time>2021-06-01T08:56:21Z</time>
      </trkpt>
      <trkpt lat="45.56706" lon="6.4641">
        <ele>395.4</ele>
        <time>2021-06-01T08:56:22Z</time>
      </trkpt>
      <trkpt lat="45.56714" lon="6.46409">
        <ele>395</ele>
        <time>2021-06-01T08:56:23Z</time>
      </trkpt>
      <trkpt lat="45.5672" lon="6.46407">
        <ele>395</ele>
        <time>2021-06-01T08:56:24Z</time>
      </trkpt>
      <trkpt lat="45.56728" lon="6.46406">
        <ele>394.8</ele>
        <time>2021-06-01T08:56:25Z</time>
      </trkpt>
      <trkpt lat="45.56735" lon="6.46404">
        <ele>394.6</ele>
        <time>2021-06-01T08:56:26Z</time>
      </trkpt>
      <trkpt lat="45.56741" lon="6.46402">
        <ele>394.8</ele>
        <time>2021-06-01T08:56:27Z</time>
      </trkpt>
      <trkpt lat="45.56748" lon="6.46399">
        <ele>393.6</ele>
        <time>2021-06-01T08:56:28Z</time>
      </trkpt>
      <trkpt lat="45.56754" lon="6.46397">
        <ele>392.8</ele>
        <time>2021-06-01T08:56:29Z</time>
      </trkpt>
      <trkpt lat="45.5676" lon="6.46395">
        <ele>393</ele>
        <time>2021-06-01T08:56:30Z</time>
      </trkpt>
      <trkpt lat="45.56766" lon="6.46394">
        <ele>393.6</ele>
        <time>2021-06-01T08:56:31Z</time>
      </trkpt>
      <trkpt lat="45.56773" lon="6.46391">
        <ele>393.8</ele>
        <time>2021-06-01T08:56:32Z</time>
      </trkpt>
      <trkpt lat="45.5678" lon="6.46389">
        <ele>394</ele>
        <time>2021-06-01T08:56:33Z</time>
      </trkpt>
      <trkpt lat="45.56788" lon="6.46388">
        <ele>394</ele>
        <time>2021-06-01T08:56:34Z</time>
      </trkpt>
      <trkpt lat="45.56796" lon="6.46387">
        <ele>394</ele>
        <time>2021-06-01T08:56:35Z</time>
      </trkpt>
      <trkpt lat="45.56802" lon="6.46385">
        <ele>394</ele>
        <time>2021-06-01T08:56:36Z</time>
      </trkpt>
      <trkpt lat="45.56808" lon="6.46383">
        <ele>393.4</ele>
        <time>2021-06-01T08:56:37Z</time>
      </trkpt>
      <trkpt lat="45.56816" lon="6.46383">
        <ele>393.4</ele>
        <time>2021-06-01T08:56:38Z</time>
      </trkpt>
      <trkpt lat="45.56823" lon="6.46383">
        <ele>393.4</ele>
        <time>2021-06-01T08:56:39Z</time>
      </trkpt>
      <trkpt lat="45.56829" lon="6.46384">
        <ele>393.4</ele>
        <time>2021-06-01T08:56:40Z</time>
      </trkpt>
      <trkpt lat="45.56836" lon="6.46387">
        <ele>393.6</ele>
        <time>2021-06-01T08:56:41Z</time>
      </trkpt>
      <trkpt lat="45.56843" lon="6.46389">
        <ele>393.6</ele>
        <time>2021-06-01T08:56:42Z</time>
      </trkpt>
      <trkpt lat="45.5685" lon="6.46392">
        <ele>393.8</ele>
        <time>2021-06-01T08:56:43Z</time>
      </trkpt>
      <trkpt lat="45.56857" lon="6.46395">
        <ele>393.6</ele>
        <time>2021-06-01T08:56:44Z</time>
      </trkpt>
      <trkpt lat="45.56863" lon="6.46399">
        <ele>393.6</ele>
        <time>2021-06-01T08:56:45Z</time>
      </trkpt>
      <trkpt lat="45.56871" lon="6.46403">
        <ele>393.6</ele>
        <time>2021-06-01T08:56:46Z</time>
      </trkpt>
      <trkpt lat="45.56879" lon="6.46406">
        <ele>392.8</ele>
        <time>2021-06-01T08:56:47Z</time>
      </trkpt>
      <trkpt lat="45.56885" lon="6.46408">
        <ele>392.8</ele>
        <time>2021-06-01T08:56:48Z</time>
      </trkpt>
      <trkpt lat="45.56892" lon="6.46411">
        <ele>392.6</ele>
        <time>2021-06-01T08:56:49Z</time>
      </trkpt>
      <trkpt lat="45.56899" lon="6.46413">
        <ele>392.8</ele>
        <time>2021-06-01T08:56:50Z</time>
      </trkpt>
      <trkpt lat="45.56905" lon="6.46416">
        <ele>392.8</ele>
        <time>2021-06-01T08:56:51Z</time>
      </trkpt>
      <trkpt lat="45.56912" lon="6.46419">
        <ele>393.6</ele>
        <time>2021-06-01T08:56:52Z</time>
      </trkpt>
      <trkpt lat="45.56919" lon="6.46422">
        <ele>393.4</ele>
        <time>2021-06-01T08:56:53Z</time>
      </trkpt>
      <trkpt lat="45.56927" lon="6.46423">
        <ele>393.8</ele>
        <time>2021-06-01T08:56:54Z</time>
      </trkpt>
      <trkpt lat="45.56935" lon="6.46422">
        <ele>393.8</ele>
        <time>2021-06-01T08:56:55Z</time>
      </trkpt>
      <trkpt lat="45.56942" lon="6.4642">
        <ele>393.8</ele>
        <time>2021-06-01T08:56:56Z</time>
      </trkpt>
      <trkpt lat="45.56948" lon="6.46415">
        <ele>393.6</ele>
        <time>2021-06-01T08:56:57Z</time>
      </trkpt>
      <trkpt lat="45.56955" lon="6.46411">
        <ele>393</ele>
        <time>2021-06-01T08:56:58Z</time>
      </trkpt>
      <trkpt lat="45.56962" lon="6.46406">
        <ele>392.8</ele>
        <time>2021-06-01T08:56:59Z</time>
      </trkpt>
      <trkpt lat="45.56969" lon="6.46399">
        <ele>392.4</ele>
        <time>2021-06-01T08:57:00Z</time>
      </trkpt>
      <trkpt lat="45.56976" lon="6.46394">
        <ele>391.8</ele>
        <time>2021-06-01T08:57:01Z</time>
      </trkpt>
      <trkpt lat="45.56983" lon="6.46388">
        <ele>391.6</ele>
        <time>2021-06-01T08:57:02Z</time>
      </trkpt>
      <trkpt lat="45.56991" lon="6.46383">
        <ele>391.4</ele>
        <time>2021-06-01T08:57:03Z</time>
      </trkpt>
      <trkpt lat="45.56998" lon="6.46379">
        <ele>391.2</ele>
        <time>2021-06-01T08:57:04Z</time>
      </trkpt>
      <trkpt lat="45.57006" lon="6.46377">
        <ele>391.2</ele>
        <time>2021-06-01T08:57:05Z</time>
      </trkpt>
      <trkpt lat="45.57013" lon="6.46374">
        <ele>391.4</ele>
        <time>2021-06-01T08:57:06Z</time>
      </trkpt>
      <trkpt lat="45.5702" lon="6.4637">
        <ele>391.6</ele>
        <time>2021-06-01T08:57:07Z</time>
      </trkpt>
      <trkpt lat="45.57028" lon="6.46367">
        <ele>391.6</ele>
        <time>2021-06-01T08:57:08Z</time>
      </trkpt>
      <trkpt lat="45.57034" lon="6.46364">
        <ele>391.6</ele>
        <time>2021-06-01T08:57:09Z</time>
      </trkpt>
      <trkpt lat="45.57042" lon="6.46361">
        <ele>391.6</ele>
        <time>2021-06-01T08:57:10Z</time>
      </trkpt>
      <trkpt lat="45.57049" lon="6.46358">
        <ele>391.6</ele>
        <time>2021-06-01T08:57:11Z</time>
      </trkpt>
      <trkpt lat="45.57059" lon="6.46356">
        <ele>391.8</ele>
        <time>2021-06-01T08:57:12Z</time>
      </trkpt>
      <trkpt lat="45.58193" lon="6.45214">
        <ele>379.8</ele>
        <time>2021-06-01T09:00:18Z</time>
      </trkpt>
      <trkpt lat="45.58198" lon="6.45205">
        <ele>379.8</ele>
        <time>2021-06-01T09:00:19Z</time>
      </trkpt>
      <trkpt lat="45.58204" lon="6.45199">
        <ele>379.8</ele>
        <time>2021-06-01T09:00:20Z</time>
      </trkpt>
      <trkpt lat="45.5821" lon="6.45192">
        <ele>379.4</ele>
        <time>2021-06-01T09:00:21Z</time>
      </trkpt>
      <trkpt lat="45.58216" lon="6.45185">
        <ele>379.2</ele>
        <time>2021-06-01T09:00:22Z</time>
      </trkpt>
      <trkpt lat="45.58223" lon="6.45179">
        <ele>379</ele>
        <time>2021-06-01T09:00:23Z</time>
      </trkpt>
      <trkpt lat="45.58229" lon="6.45174">
        <ele>379.2</ele>
        <time>2021-06-01T09:00:24Z</time>
      </trkpt>
      <trkpt lat="45.58236" lon="6.45169">
        <ele>379.4</ele>
        <time>2021-06-01T09:00:25Z</time>
      </trkpt>
      <trkpt lat="45.58244" lon="6.45165">
        <ele>379.8</ele>
        <time>2021-06-01T09:00:26Z</time>
      </trkpt>
      <trkpt lat="45.58251" lon="6.45161">
        <ele>379.8</ele>
        <time>2021-06-01T09:00:27Z</time>
      </trkpt>
      <trkpt lat="45.58257" lon="6.45157">
        <ele>379.8</ele>
        <time>2021-06-01T09:00:28Z</time>
      </trkpt>
      <trkpt lat="45.58264" lon="6.45153">
        <ele>379.8</ele>
        <time>2021-06-01T09:00:29Z</time>
      </trkpt>
      <trkpt lat="45.58271" lon="6.45149">
        <ele>379.6</ele>
        <time>2021-06-01T09:00:30Z</time>
      </trkpt>
      <trkpt lat="45.58278" lon="6.45146">
        <ele>379.2</ele>
        <time>2021-06-01T09:00:31Z</time>
      </trkpt>
      <trkpt lat="45.58285" lon="6.45142">
        <ele>379</ele>
        <time>2021-06-01T09:00:32Z</time>
      </trkpt>
      <trkpt lat="45.58292" lon="6.45139">
        <ele>378.4</ele>
        <time>2021-06-01T09:00:33Z</time>
      </trkpt>
      <trkpt lat="45.58299" lon="6.45135">
        <ele>378.4</ele>
        <time>2021-06-01T09:00:34Z</time>
      </trkpt>
      <trkpt lat="45.58307" lon="6.45131">
        <ele>378.2</ele>
        <time>2021-06-01T09:00:35Z</time>
      </trkpt>
      <trkpt lat="45.58314" lon="6.45127">
        <ele>378.4</ele>
        <time>2021-06-01T09:00:36Z</time>
      </trkpt>
      <trkpt lat="45.58321" lon="6.45122">
        <ele>378.2</ele>
        <time>2021-06-01T09:00:37Z</time>
      </trkpt>
      <trkpt lat="45.58329" lon="6.45117">
        <ele>378.2</ele>
        <time>2021-06-01T09:00:38Z</time>
      </trkpt>
      <trkpt lat="45.58336" lon="6.45111">
        <ele>378.2</ele>
        <time>2021-06-01T09:00:39Z</time>
      </trkpt>
      <trkpt lat="45.58343" lon="6.45106">
        <ele>378.2</ele>
        <time>2021-06-01T09:00:40Z</time>
      </trkpt>
      <trkpt lat="45.5835" lon="6.451">
        <ele>378.6</ele>
        <time>2021-06-01T09:00:41Z</time>
      </trkpt>
      <trkpt lat="45.58355" lon="6.45094">
        <ele>378.6</ele>
        <time>2021-06-01T09:00:42Z</time>
      </trkpt>
      <trkpt lat="45.58361" lon="6.45088">
        <ele>378.6</ele>
        <time>2021-06-01T09:00:43Z</time>
      </trkpt>
      <trkpt lat="45.58366" lon="6.45083">
        <ele>378.4</ele>
        <time>2021-06-01T09:00:44Z</time>
      </trkpt>
      <trkpt lat="45.58372" lon="6.45077">
        <ele>378.4</ele>
        <time>2021-06-01T09:00:45Z</time>
      </trkpt>
      <trkpt lat="45.58379" lon="6.45072">
        <ele>378.2</ele>
        <time>2021-06-01T09:00:46Z</time>
      </trkpt>
      <trkpt lat="45.58385" lon="6.45066">
        <ele>378</ele>
        <time>2021-06-01T09:00:47Z</time>
      </trkpt>
      <trkpt lat="45.58391" lon="6.4506">
        <ele>378</ele>
        <time>2021-06-01T09:00:48Z</time>
      </trkpt>
      <trkpt lat="45.58398" lon="6.45053">
        <ele>378.8</ele>
        <time>2021-06-01T09:00:49Z</time>
      </trkpt>
      <trkpt lat="45.58404" lon="6.45047">
        <ele>379.4</ele>
        <time>2021-06-01T09:00:50Z</time>
      </trkpt>
      <trkpt lat="45.5841" lon="6.4504">
        <ele>379.6</ele>
        <time>2021-06-01T09:00:51Z</time>
      </trkpt>
      <trkpt lat="45.58416" lon="6.45033">
        <ele>379.8</ele>
        <time>2021-06-01T09:00:52Z</time>
      </trkpt>
      <trkpt lat="45.58423" lon="6.45026">
        <ele>380.2</ele>
        <time>2021-06-01T09:00:53Z</time>
      </trkpt>
      <trkpt lat="45.58429" lon="6.45019">
        <ele>380.4</ele>
        <time>2021-06-01T09:00:54Z</time>
      </trkpt>
      <trkpt lat="45.58436" lon="6.45012">
        <ele>380.2</ele>
        <time>2021-06-01T09:00:55Z</time>
      </trkpt>
      <trkpt lat="45.58443" lon="6.45004">
        <ele>380.2</ele>
        <time>2021-06-01T09:00:56Z</time>
      </trkpt>
      <trkpt lat="45.5845" lon="6.44995">
        <ele>380.2</ele>
        <time>2021-06-01T09:00:57Z</time>
      </trkpt>
      <trkpt lat="45.58455" lon="6.44987">
        <ele>380</ele>
        <time>2021-06-01T09:00:58Z</time>
      </trkpt>
      <trkpt lat="45.58462" lon="6.44979">
        <ele>380.2</ele>
        <time>2021-06-01T09:00:59Z</time>
      </trkpt>
      <trkpt lat="45.58468" lon="6.44971">
        <ele>379.8</ele>
        <time>2021-06-01T09:01:00Z</time>
      </trkpt>
      <trkpt lat="45.58476" lon="6.44963">
        <ele>379.6</ele>
        <time>2021-06-01T09:01:01Z</time>
      </trkpt>
      <trkpt lat="45.58483" lon="6.44954">
        <ele>379.2</ele>
        <time>2021-06-01T09:01:02Z</time>
      </trkpt>
      <trkpt lat="45.58488" lon="6.44946">
        <ele>379</ele>
        <time>2021-06-01T09:01:03Z</time>
      </trkpt>
      <trkpt lat="45.58494" lon="6.44938">
        <ele>378.4</ele>
        <time>2021-06-01T09:01:04Z</time>
      </trkpt>
      <trkpt lat="45.585" lon="6.44929">
        <ele>378.2</ele>
        <time>2021-06-01T09:01:05Z</time>
      </trkpt>
      <trkpt lat="45.58505" lon="6.44919">
        <ele>378</ele>
        <time>2021-06-01T09:01:06Z</time>
      </trkpt>
      <trkpt lat="45.58511" lon="6.4491">
        <ele>377.8</ele>
        <time>2021-06-01T09:01:07Z</time>
      </trkpt>
      <trkpt lat="45.58517" lon="6.44902">
        <ele>377.8</ele>
        <time>2021-06-01T09:01:08Z</time>
      </trkpt>
      <trkpt lat="45.58522" lon="6.44894">
        <ele>377.8</ele>
        <time>2021-06-01T09:01:09Z</time>
      </trkpt>
      <trkpt lat="45.58528" lon="6.44885">
        <ele>377.6</ele>
        <time>2021-06-01T09:01:10Z</time>
      </trkpt>
      <trkpt lat="45.58534" lon="6.44876">
        <ele>377.4</ele>
        <time>2021-06-01T09:01:11Z</time>
      </trkpt>
      <trkpt lat="45.5854" lon="6.44867">
        <ele>377.4</ele>
        <time>2021-06-01T09:01:12Z</time>
      </trkpt>
      <trkpt lat="45.58545" lon="6.44858">
        <ele>377</ele>
        <time>2021-06-01T09:01:13Z</time>
      </trkpt>
      <trkpt lat="45.58551" lon="6.44849">
        <ele>377</ele>
        <time>2021-06-01T09:01:14Z</time>
      </trkpt>
      <trkpt lat="45.58556" lon="6.4484">
        <ele>376.8</ele>
        <time>2021-06-01T09:01:15Z</time>
      </trkpt>
      <trkpt lat="45.58563" lon="6.44831">
        <ele>376.6</ele>
        <time>2021-06-01T09:01:16Z</time>
      </trkpt>
      <trkpt lat="45.58568" lon="6.44822">
        <ele>376.6</ele>
        <time>2021-06-01T09:01:17Z</time>
      </trkpt>
      <trkpt lat="45.58575" lon="6.44813">
        <ele>376.2</ele>
        <time>2021-06-01T09:01:18Z</time>
      </trkpt>
      <trkpt lat="45.58582" lon="6.44804">
        <ele>376</ele>
        <time>2021-06-01T09:01:19Z</time>
      </trkpt>
      <trkpt lat="45.58589" lon="6.44795">
        <ele>376</ele>
        <time>2021-06-01T09:01:20Z</time>
      </trkpt>
      <trkpt lat="45.58595" lon="6.44786">
        <ele>376</ele>
        <time>2021-06-01T09:01:21Z</time>
      </trkpt>
      <trkpt lat="45.58601" lon="6.44776">
        <ele>376</ele>
        <time>2021-06-01T09:01:22Z</time>
      </trkpt>
      <trkpt lat="45.58608" lon="6.44767">
        <ele>376.2</ele>
        <time>2021-06-01T09:01:23Z</time>
      </trkpt>
      <trkpt lat="45.58614" lon="6.44757">
        <ele>376.4</ele>
        <time>2021-06-01T09:01:24Z</time>
      </trkpt>
      <trkpt lat="45.5862" lon="6.44746">
        <ele>376.4</ele>
        <time>2021-06-01T09:01:25Z</time>
      </trkpt>
      <trkpt lat="45.58625" lon="6.44736">
        <ele>376.6</ele>
        <time>2021-06-01T09:01:26Z</time>
      </trkpt>
      <trkpt lat="45.58629" lon="6.44725">
        <ele>376.8</ele>
        <time>2021-06-01T09:01:27Z</time>
      </trkpt>
      <trkpt lat="45.58634" lon="6.44714">
        <ele>376.6</ele>
        <time>2021-06-01T09:01:28Z</time>
      </trkpt>
      <trkpt lat="45.5864" lon="6.44703">
        <ele>376.8</ele>
        <time>2021-06-01T09:01:29Z</time>
      </trkpt>
      <trkpt lat="45.58643" lon="6.44693">
        <ele>376.6</ele>
        <time>2021-06-01T09:01:30Z</time>
      </trkpt>
      <trkpt lat="45.58647" lon="6.44683">
        <ele>376.6</ele>
        <time>2021-06-01T09:01:31Z</time>
      </trkpt>
      <trkpt lat="45.58652" lon="6.44673">
        <ele>376.6</ele>
        <time>2021-06-01T09:01:32Z</time>
      </trkpt>
      <trkpt lat="45.58657" lon="6.44666">
        <ele>376.4</ele>
        <time>2021-06-01T09:01:33Z</time>
      </trkpt>
      <trkpt lat="45.58664" lon="6.44658">
        <ele>376.4</ele>
        <time>2021-06-01T09:01:34Z</time>
      </trkpt>
      <trkpt lat="45.5867" lon="6.44651">
        <ele>376.4</ele>
        <time>2021-06-01T09:01:35Z</time>
      </trkpt>
      <trkpt lat="45.58676" lon="6.44643">
        <ele>376.4</ele>
        <time>2021-06-01T09:01:36Z</time>
      </trkpt>
      <trkpt lat="45.58682" lon="6.44636">
        <ele>376.8</ele>
        <time>2021-06-01T09:01:37Z</time>
      </trkpt>
      <trkpt lat="45.58687" lon="6.44629">
        <ele>376.8</ele>
        <time>2021-06-01T09:01:38Z</time>
      </trkpt>
      <trkpt lat="45.58694" lon="6.44622">
        <ele>377.2</ele>
        <time>2021-06-01T09:01:39Z</time>
      </trkpt>
      <trkpt lat="45.587" lon="6.44614">
        <ele>377.2</ele>
        <time>2021-06-01T09:01:40Z</time>
      </trkpt>
      <trkpt lat="45.58706" lon="6.44607">
        <ele>377.2</ele>
        <time>2021-06-01T09:01:41Z</time>
      </trkpt>
      <trkpt lat="45.58711" lon="6.446">
        <ele>377.4</ele>
        <time>2021-06-01T09:01:42Z</time>
      </trkpt>
      <trkpt lat="45.58716" lon="6.44594">
        <ele>377.2</ele>
        <time>2021-06-01T09:01:43Z</time>
      </trkpt>
      <trkpt lat="45.58722" lon="6.44589">
        <ele>377.2</ele>
        <time>2021-06-01T09:01:44Z</time>
      </trkpt>
      <trkpt lat="45.5873" lon="6.44585">
        <ele>377.4</ele>
        <time>2021-06-01T09:01:45Z</time>
      </trkpt>
      <trkpt lat="45.58737" lon="6.44582">
        <ele>377.6</ele>
        <time>2021-06-01T09:01:46Z</time>
      </trkpt>
      <trkpt lat="45.58744" lon="6.44581">
        <ele>377.8</ele>
        <time>2021-06-01T09:01:47Z</time>
      </trkpt>
      <trkpt lat="45.58754" lon="6.44582">
        <ele>377.8</ele>
        <time>2021-06-01T09:01:48Z</time>
      </trkpt>
      <trkpt lat="45.58761" lon="6.44583">
        <ele>377.8</ele>
        <time>2021-06-01T09:01:49Z</time>
      </trkpt>
      <trkpt lat="45.58768" lon="6.44583">
        <ele>377.8</ele>
        <time>2021-06-01T09:01:50Z</time>
      </trkpt>
      <trkpt lat="45.58775" lon="6.44582">
        <ele>377.8</ele>
        <time>2021-06-01T09:01:51Z</time>
      </trkpt>
      <trkpt lat="45.58782" lon="6.44582">
        <ele>378</ele>
        <time>2021-06-01T09:01:52Z</time>
      </trkpt>
      <trkpt lat="45.58789" lon="6.4458">
        <ele>377.8</ele>
        <time>2021-06-01T09:01:53Z</time>
      </trkpt>
      <trkpt lat="45.58797" lon="6.4458">
        <ele>378</ele>
        <time>2021-06-01T09:01:54Z</time>
      </trkpt>
      <trkpt lat="45.58804" lon="6.44579">
        <ele>378.2</ele>
        <time>2021-06-01T09:01:55Z</time>
      </trkpt>
      <trkpt lat="45.5881" lon="6.44579">
        <ele>378.4</ele>
        <time>2021-06-01T09:01:56Z</time>
      </trkpt>
      <trkpt lat="45.58816" lon="6.44578">
        <ele>378.6</ele>
        <time>2021-06-01T09:01:57Z</time>
      </trkpt>
      <trkpt lat="45.58823" lon="6.44578">
        <ele>379</ele>
        <time>2021-06-01T09:01:58Z</time>
      </trkpt>
      <trkpt lat="45.58829" lon="6.44577">
        <ele>379.2</ele>
        <time>2021-06-01T09:01:59Z</time>
      </trkpt>
      <trkpt lat="45.58836" lon="6.44577">
        <ele>379.4</ele>
        <time>2021-06-01T09:02:00Z</time>
      </trkpt>
      <trkpt lat="45.58841" lon="6.44577">
        <ele>379.6</ele>
        <time>2021-06-01T09:02:01Z</time>
      </trkpt>
      <trkpt lat="45.58848" lon="6.44577">
        <ele>379.8</ele>
        <time>2021-06-01T09:02:02Z</time>
      </trkpt>
      <trkpt lat="45.58855" lon="6.44577">
        <ele>380</ele>
        <time>2021-06-01T09:02:03Z</time>
      </trkpt>
      <trkpt lat="45.58861" lon="6.44578">
        <ele>380.4</ele>
        <time>2021-06-01T09:02:04Z</time>
      </trkpt>
      <trkpt lat="45.58867" lon="6.44579">
        <ele>380.6</ele>
        <time>2021-06-01T09:02:05Z</time>
      </trkpt>
      <trkpt lat="45.58873" lon="6.44579">
        <ele>381</ele>
        <time>2021-06-01T09:02:06Z</time>
      </trkpt>
      <trkpt lat="45.58879" lon="6.44579">
        <ele>381.2</ele>
        <time>2021-06-01T09:02:07Z</time>
      </trkpt>
      <trkpt lat="45.58886" lon="6.4458">
        <ele>381.6</ele>
        <time>2021-06-01T09:02:08Z</time>
      </trkpt>
      <trkpt lat="45.58892" lon="6.44581">
        <ele>381.6</ele>
        <time>2021-06-01T09:02:09Z</time>
      </trkpt>
      <trkpt lat="45.58898" lon="6.44583">
        <ele>381.6</ele>
        <time>2021-06-01T09:02:10Z</time>
      </trkpt>
      <trkpt lat="45.58904" lon="6.44584">
        <ele>381.4</ele>
        <time>2021-06-01T09:02:11Z</time>
      </trkpt>
      <trkpt lat="45.5891" lon="6.44586">
        <ele>381.4</ele>
        <time>2021-06-01T09:02:12Z</time>
      </trkpt>
      <trkpt lat="45.58916" lon="6.44587">
        <ele>381.4</ele>
        <time>2021-06-01T09:02:13Z</time>
      </trkpt>
      <trkpt lat="45.58922" lon="6.44588">
        <ele>381.4</ele>
        <time>2021-06-01T09:02:14Z</time>
      </trkpt>
      <trkpt lat="45.58928" lon="6.44589">
        <ele>381.6</ele>
        <time>2021-06-01T09:02:15Z</time>
      </trkpt>
      <trkpt lat="45.58934" lon="6.44591">
        <ele>381.6</ele>
        <time>2021-06-01T09:02:16Z</time>
      </trkpt>
      <trkpt lat="45.58941" lon="6.44592">
        <ele>381.8</ele>
        <time>2021-06-01T09:02:17Z</time>
      </trkpt>
      <trkpt lat="45.58948" lon="6.44593">
        <ele>382</ele>
        <time>2021-06-01T09:02:18Z</time>
      </trkpt>
      <trkpt lat="45.58954" lon="6.44594">
        <ele>382.2</ele>
        <time>2021-06-01T09:02:19Z</time>
      </trkpt>
      <trkpt lat="45.5896" lon="6.44595">
        <ele>382.6</ele>
        <time>2021-06-01T09:02:20Z</time>
      </trkpt>
      <trkpt lat="45.58967" lon="6.44597">
        <ele>383</ele>
        <time>2021-06-01T09:02:21Z</time>
      </trkpt>
      <trkpt lat="45.58973" lon="6.44599">
        <ele>383.2</ele>
        <time>2021-06-01T09:02:22Z</time>
      </trkpt>
      <trkpt lat="45.5898" lon="6.446">
        <ele>383.4</ele>
        <time>2021-06-01T09:02:23Z</time>
      </trkpt>
      <trkpt lat="45.58987" lon="6.44601">
        <ele>383.6</ele>
        <time>2021-06-01T09:02:24Z</time>
      </trkpt>
      <trkpt lat="45.58994" lon="6.44602">
        <ele>383.8</ele>
        <time>2021-06-01T09:02:25Z</time>
      </trkpt>
      <trkpt lat="45.59" lon="6.44604">
        <ele>383.8</ele>
        <time>2021-06-01T09:02:26Z</time>
      </trkpt>
      <trkpt lat="45.59006" lon="6.44605">
        <ele>384.2</ele>
        <time>2021-06-01T09:02:27Z</time>
      </trkpt>
      <trkpt lat="45.59013" lon="6.44606">
        <ele>384.2</ele>
        <time>2021-06-01T09:02:28Z</time>
      </trkpt>
      <trkpt lat="45.5902" lon="6.44608">
        <ele>384</ele>
        <time>2021-06-01T09:02:29Z</time>
      </trkpt>
      <trkpt lat="45.59028" lon="6.44609">
        <ele>384.2</ele>
        <time>2021-06-01T09:02:30Z</time>
      </trkpt>
      <trkpt lat="45.59034" lon="6.44611">
        <ele>384</ele>
        <time>2021-06-01T09:02:31Z</time>
      </trkpt>
      <trkpt lat="45.59041" lon="6.44612">
        <ele>384</ele>
        <time>2021-06-01T09:02:32Z</time>
      </trkpt>
      <trkpt lat="45.59048" lon="6.44614">
        <ele>384</ele>
        <time>2021-06-01T09:02:33Z</time>
      </trkpt>
      <trkpt lat="45.59056" lon="6.44616">
        <ele>383.8</ele>
        <time>2021-06-01T09:02:34Z</time>
      </trkpt>
      <trkpt lat="45.59063" lon="6.44618">
        <ele>383.8</ele>
        <time>2021-06-01T09:02:35Z</time>
      </trkpt>
      <trkpt lat="45.59071" lon="6.44619">
        <ele>383.8</ele>
        <time>2021-06-01T09:02:36Z</time>
      </trkpt>
      <trkpt lat="45.59079" lon="6.44621">
        <ele>383.6</ele>
        <time>2021-06-01T09:02:37Z</time>
      </trkpt>
      <trkpt lat="45.59087" lon="6.44622">
        <ele>383.4</ele>
        <time>2021-06-01T09:02:38Z</time>
      </trkpt>
      <trkpt lat="45.59095" lon="6.44624">
        <ele>383</ele>
        <time>2021-06-01T09:02:39Z</time>
      </trkpt>
      <trkpt lat="45.59104" lon="6.44625">
        <ele>382.8</ele>
        <time>2021-06-01T09:02:40Z</time>
      </trkpt>
      <trkpt lat="45.59112" lon="6.44627">
        <ele>382.8</ele>
        <time>2021-06-01T09:02:41Z</time>
      </trkpt>
      <trkpt lat="45.59121" lon="6.44628">
        <ele>382.6</ele>
        <time>2021-06-01T09:02:42Z</time>
      </trkpt>
      <trkpt lat="45.59131" lon="6.44629">
        <ele>382.4</ele>
        <time>2021-06-01T09:02:43Z</time>
      </trkpt>
      <trkpt lat="45.5914" lon="6.4463">
        <ele>382.2</ele>
        <time>2021-06-01T09:02:44Z</time>
      </trkpt>
      <trkpt lat="45.59148" lon="6.44632">
        <ele>382.2</ele>
        <time>2021-06-01T09:02:45Z</time>
      </trkpt>
      <trkpt lat="45.59157" lon="6.44633">
        <ele>381.4</ele>
        <time>2021-06-01T09:02:46Z</time>
      </trkpt>
      <trkpt lat="45.59165" lon="6.44634">
        <ele>381</ele>
        <time>2021-06-01T09:02:47Z</time>
      </trkpt>
      <trkpt lat="45.59174" lon="6.44635">
        <ele>379.8</ele>
        <time>2021-06-01T09:02:48Z</time>
      </trkpt>
      <trkpt lat="45.59183" lon="6.44636">
        <ele>379.8</ele>
        <time>2021-06-01T09:02:49Z</time>
      </trkpt>
      <trkpt lat="45.59193" lon="6.44637">
        <ele>379.6</ele>
        <time>2021-06-01T09:02:50Z</time>
      </trkpt>
      <trkpt lat="45.59201" lon="6.44639">
        <ele>379.4</ele>
        <time>2021-06-01T09:02:51Z</time>
      </trkpt>
      <trkpt lat="45.5921" lon="6.4464">
        <ele>379.2</ele>
        <time>2021-06-01T09:02:52Z</time>
      </trkpt>
      <trkpt lat="45.5922" lon="6.44641">
        <ele>379</ele>
        <time>2021-06-01T09:02:53Z</time>
      </trkpt>
      <trkpt lat="45.59229" lon="6.44642">
        <ele>379.2</ele>
        <time>2021-06-01T09:02:54Z</time>
      </trkpt>
      <trkpt lat="45.59239" lon="6.44643">
        <ele>378.8</ele>
        <time>2021-06-01T09:02:55Z</time>
      </trkpt>
      <trkpt lat="45.59248" lon="6.44644">
        <ele>378.4</ele>
        <time>2021-06-01T09:02:56Z</time>
      </trkpt>
      <trkpt lat="45.59258" lon="6.44645">
        <ele>378.4</ele>
        <time>2021-06-01T09:02:57Z</time>
      </trkpt>
      <trkpt lat="45.59266" lon="6.44644">
        <ele>378.4</ele>
        <time>2021-06-01T09:02:58Z</time>
      </trkpt>
      <trkpt lat="45.59273" lon="6.44642">
        <ele>378.2</ele>
        <time>2021-06-01T09:02:59Z</time>
      </trkpt>
      <trkpt lat="45.59282" lon="6.44639">
        <ele>378</ele>
        <time>2021-06-01T09:03:00Z</time>
      </trkpt>
      <trkpt lat="45.5929" lon="6.44636">
        <ele>378</ele>
        <time>2021-06-01T09:03:01Z</time>
      </trkpt>
      <trkpt lat="45.59299" lon="6.44631">
        <ele>378</ele>
        <time>2021-06-01T09:03:02Z</time>
      </trkpt>
      <trkpt lat="45.59308" lon="6.44628">
        <ele>378</ele>
        <time>2021-06-01T09:03:03Z</time>
      </trkpt>
      <trkpt lat="45.59316" lon="6.44624">
        <ele>377.8</ele>
        <time>2021-06-01T09:03:04Z</time>
      </trkpt>
      <trkpt lat="45.59325" lon="6.44621">
        <ele>377.8</ele>
        <time>2021-06-01T09:03:05Z</time>
      </trkpt>
      <trkpt lat="45.59333" lon="6.44618">
        <ele>377.6</ele>
        <time>2021-06-01T09:03:06Z</time>
      </trkpt>
      <trkpt lat="45.59341" lon="6.44614">
        <ele>377.2</ele>
        <time>2021-06-01T09:03:07Z</time>
      </trkpt>
      <trkpt lat="45.59349" lon="6.44611">
        <ele>376.6</ele>
        <time>2021-06-01T09:03:08Z</time>
      </trkpt>
      <trkpt lat="45.59356" lon="6.44609">
        <ele>376.2</ele>
        <time>2021-06-01T09:03:09Z</time>
      </trkpt>
      <trkpt lat="45.59363" lon="6.44608">
        <ele>376</ele>
        <time>2021-06-01T09:03:10Z</time>
      </trkpt>
      <trkpt lat="45.59371" lon="6.44606">
        <ele>375.4</ele>
        <time>2021-06-01T09:03:11Z</time>
      </trkpt>
      <trkpt lat="45.59379" lon="6.44605">
        <ele>375.2</ele>
        <time>2021-06-01T09:03:12Z</time>
      </trkpt>
      <trkpt lat="45.59387" lon="6.44603">
        <ele>375</ele>
        <time>2021-06-01T09:03:13Z</time>
      </trkpt>
      <trkpt lat="45.59395" lon="6.44602">
        <ele>374.6</ele>
        <time>2021-06-01T09:03:14Z</time>
      </trkpt>
      <trkpt lat="45.59403" lon="6.44603">
        <ele>374.6</ele>
        <time>2021-06-01T09:03:15Z</time>
      </trkpt>
      <trkpt lat="45.5941" lon="6.44608">
        <ele>374.4</ele>
        <time>2021-06-01T09:03:16Z</time>
      </trkpt>
      <trkpt lat="45.59415" lon="6.44615">
        <ele>374.4</ele>
        <time>2021-06-01T09:03:17Z</time>
      </trkpt>
      <trkpt lat="45.59421" lon="6.44623">
        <ele>374.2</ele>
        <time>2021-06-01T09:03:18Z</time>
      </trkpt>
      <trkpt lat="45.59427" lon="6.4463">
        <ele>374.4</ele>
        <time>2021-06-01T09:03:19Z</time>
      </trkpt>
      <trkpt lat="45.59431" lon="6.44639">
        <ele>374.2</ele>
        <time>2021-06-01T09:03:20Z</time>
      </trkpt>
      <trkpt lat="45.59436" lon="6.44647">
        <ele>372.6</ele>
        <time>2021-06-01T09:03:21Z</time>
      </trkpt>
      <trkpt lat="45.59441" lon="6.44654">
        <ele>372.2</ele>
        <time>2021-06-01T09:03:22Z</time>
      </trkpt>
      <trkpt lat="45.59446" lon="6.44662">
        <ele>372.2</ele>
        <time>2021-06-01T09:03:23Z</time>
      </trkpt>
      <trkpt lat="45.59451" lon="6.4467">
        <ele>372.2</ele>
        <time>2021-06-01T09:03:24Z</time>
      </trkpt>
      <trkpt lat="45.59454" lon="6.44679">
        <ele>372.2</ele>
        <time>2021-06-01T09:03:25Z</time>
      </trkpt>
      <trkpt lat="45.59456" lon="6.44689">
        <ele>372.4</ele>
        <time>2021-06-01T09:03:26Z</time>
      </trkpt>
      <trkpt lat="45.59456" lon="6.44698">
        <ele>372.6</ele>
        <time>2021-06-01T09:03:27Z</time>
      </trkpt>
      <trkpt lat="45.59454" lon="6.44705">
        <ele>372.6</ele>
        <time>2021-06-01T09:03:28Z</time>
      </trkpt>
      <trkpt lat="45.5945" lon="6.44709">
        <ele>372.6</ele>
        <time>2021-06-01T09:03:29Z</time>
      </trkpt>
      <trkpt lat="45.59445" lon="6.44711">
        <ele>372.6</ele>
        <time>2021-06-01T09:03:30Z</time>
      </trkpt>
      <trkpt lat="45.5944" lon="6.44713">
        <ele>372.8</ele>
        <time>2021-06-01T09:03:31Z</time>
      </trkpt>
      <trkpt lat="45.59436" lon="6.44714">
        <ele>372.6</ele>
        <time>2021-06-01T09:03:32Z</time>
      </trkpt>
      <trkpt lat="45.59431" lon="6.44716">
        <ele>372.8</ele>
        <time>2021-06-01T09:03:33Z</time>
      </trkpt>
      <trkpt lat="45.59426" lon="6.44719">
        <ele>372.8</ele>
        <time>2021-06-01T09:03:34Z</time>
      </trkpt>
      <trkpt lat="45.59422" lon="6.44723">
        <ele>372.8</ele>
        <time>2021-06-01T09:03:35Z</time>
      </trkpt>
      <trkpt lat="45.5942" lon="6.44729">
        <ele>373</ele>
        <time>2021-06-01T09:03:36Z</time>
      </trkpt>
      <trkpt lat="45.59418" lon="6.44735">
        <ele>373.2</ele>
        <time>2021-06-01T09:03:37Z</time>
      </trkpt>
      <trkpt lat="45.59417" lon="6.44741">
        <ele>373.2</ele>
        <time>2021-06-01T09:03:38Z</time>
      </trkpt>
      <trkpt lat="45.59416" lon="6.44749">
        <ele>373.4</ele>
        <time>2021-06-01T09:03:39Z</time>
      </trkpt>
      <trkpt lat="45.59417" lon="6.44756">
        <ele>373.4</ele>
        <time>2021-06-01T09:03:40Z</time>
      </trkpt>
      <trkpt lat="45.59418" lon="6.44764">
        <ele>373.2</ele>
        <time>2021-06-01T09:03:41Z</time>
      </trkpt>
      <trkpt lat="45.59419" lon="6.44772">
        <ele>373.4</ele>
        <time>2021-06-01T09:03:42Z</time>
      </trkpt>
      <trkpt lat="45.59419" lon="6.44781">
        <ele>373.2</ele>
        <time>2021-06-01T09:03:43Z</time>
      </trkpt>
      <trkpt lat="45.59419" lon="6.4479">
        <ele>373.2</ele>
        <time>2021-06-01T09:03:44Z</time>
      </trkpt>
      <trkpt lat="45.59417" lon="6.44798">
        <ele>373.2</ele>
        <time>2021-06-01T09:03:45Z</time>
      </trkpt>
      <trkpt lat="45.59417" lon="6.44806">
        <ele>373.2</ele>
        <time>2021-06-01T09:03:46Z</time>
      </trkpt>
      <trkpt lat="45.59419" lon="6.44815">
        <ele>373.2</ele>
        <time>2021-06-01T09:03:47Z</time>
      </trkpt>
      <trkpt lat="45.59423" lon="6.44819">
        <ele>373</ele>
        <time>2021-06-01T09:03:48Z</time>
      </trkpt>
      <trkpt lat="45.59428" lon="6.44822">
        <ele>372.6</ele>
        <time>2021-06-01T09:03:49Z</time>
      </trkpt>
      <trkpt lat="45.59435" lon="6.44823">
        <ele>372</ele>
        <time>2021-06-01T09:03:50Z</time>
      </trkpt>
      <trkpt lat="45.59442" lon="6.44824">
        <ele>371.6</ele>
        <time>2021-06-01T09:03:51Z</time>
      </trkpt>
      <trkpt lat="45.5945" lon="6.44823">
        <ele>371.6</ele>
        <time>2021-06-01T09:03:52Z</time>
      </trkpt>
      <trkpt lat="45.59458" lon="6.44822">
        <ele>371.8</ele>
        <time>2021-06-01T09:03:53Z</time>
      </trkpt>
      <trkpt lat="45.59466" lon="6.4482">
        <ele>371.8</ele>
        <time>2021-06-01T09:03:54Z</time>
      </trkpt>
      <trkpt lat="45.59475" lon="6.44817">
        <ele>371.8</ele>
        <time>2021-06-01T09:03:55Z</time>
      </trkpt>
      <trkpt lat="45.59483" lon="6.44814">
        <ele>371.6</ele>
        <time>2021-06-01T09:03:56Z</time>
      </trkpt>
      <trkpt lat="45.59491" lon="6.44811">
        <ele>371.4</ele>
        <time>2021-06-01T09:03:57Z</time>
      </trkpt>
      <trkpt lat="45.595" lon="6.44808">
        <ele>371.2</ele>
        <time>2021-06-01T09:03:58Z</time>
      </trkpt>
      <trkpt lat="45.59509" lon="6.44805">
        <ele>370.8</ele>
        <time>2021-06-01T09:03:59Z</time>
      </trkpt>
      <trkpt lat="45.59518" lon="6.44803">
        <ele>370.8</ele>
        <time>2021-06-01T09:04:00Z</time>
      </trkpt>
      <trkpt lat="45.59527" lon="6.448">
        <ele>370.8</ele>
        <time>2021-06-01T09:04:01Z</time>
      </trkpt>
      <trkpt lat="45.59536" lon="6.44797">
        <ele>370.8</ele>
        <time>2021-06-01T09:04:02Z</time>
      </trkpt>
      <trkpt lat="45.59544" lon="6.44793">
        <ele>370.8</ele>
        <time>2021-06-01T09:04:03Z</time>
      </trkpt>
      <trkpt lat="45.59553" lon="6.44788">
        <ele>371</ele>
        <time>2021-06-01T09:04:04Z</time>
      </trkpt>
      <trkpt lat="45.59561" lon="6.44784">
        <ele>371.2</ele>
        <time>2021-06-01T09:04:05Z</time>
      </trkpt>
      <trkpt lat="45.5957" lon="6.4478">
        <ele>371.4</ele>
        <time>2021-06-01T09:04:06Z</time>
      </trkpt>
      <trkpt lat="45.59578" lon="6.44776">
        <ele>371.4</ele>
        <time>2021-06-01T09:04:07Z</time>
      </trkpt>
      <trkpt lat="45.59588" lon="6.44774">
        <ele>371.6</ele>
        <time>2021-06-01T09:04:08Z</time>
      </trkpt>
      <trkpt lat="45.59597" lon="6.44772">
        <ele>371.6</ele>
        <time>2021-06-01T09:04:09Z</time>
      </trkpt>
      <trkpt lat="45.59606" lon="6.44772">
        <ele>371.6</ele>
        <time>2021-06-01T09:04:10Z</time>
      </trkpt>
      <trkpt lat="45.59615" lon="6.44773">
        <ele>372</ele>
        <time>2021-06-01T09:04:11Z</time>
      </trkpt>
      <trkpt lat="45.59624" lon="6.44775">
        <ele>372</ele>
        <time>2021-06-01T09:04:12Z</time>
      </trkpt>
      <trkpt lat="45.59633" lon="6.44777">
        <ele>372</ele>
        <time>2021-06-01T09:04:13Z</time>
      </trkpt>
      <trkpt lat="45.59642" lon="6.4478">
        <ele>372</ele>
        <time>2021-06-01T09:04:14Z</time>
      </trkpt>
      <trkpt lat="45.59651" lon="6.44783">
        <ele>372.2</ele>
        <time>2021-06-01T09:04:15Z</time>
      </trkpt>
      <trkpt lat="45.59659" lon="6.44786">
        <ele>372.4</ele>
        <time>2021-06-01T09:04:16Z</time>
      </trkpt>
      <trkpt lat="45.59668" lon="6.44789">
        <ele>372.4</ele>
        <time>2021-06-01T09:04:17Z</time>
      </trkpt>
      <trkpt lat="45.59676" lon="6.44791">
        <ele>372.2</ele>
        <time>2021-06-01T09:04:18Z</time>
      </trkpt>
      <trkpt lat="45.59685" lon="6.44794">
        <ele>372.2</ele>
        <time>2021-06-01T09:04:19Z</time>
      </trkpt>
      <trkpt lat="45.59694" lon="6.44797">
        <ele>372</ele>
        <time>2021-06-01T09:04:20Z</time>
      </trkpt>
      <trkpt lat="45.59703" lon="6.448">
        <ele>372</ele>
        <time>2021-06-01T09:04:21Z</time>
      </trkpt>
      <trkpt lat="45.59711" lon="6.44802">
        <ele>371.8</ele>
        <time>2021-06-01T09:04:22Z</time>
      </trkpt>
      <trkpt lat="45.5972" lon="6.44805">
        <ele>372</ele>
        <time>2021-06-01T09:04:23Z</time>
      </trkpt>
      <trkpt lat="45.59729" lon="6.44807">
        <ele>371.8</ele>
        <time>2021-06-01T09:04:24Z</time>
      </trkpt>
      <trkpt lat="45.59737" lon="6.4481">
        <ele>371.8</ele>
        <time>2021-06-01T09:04:25Z</time>
      </trkpt>
      <trkpt lat="45.59746" lon="6.44813">
        <ele>371.8</ele>
        <time>2021-06-01T09:04:26Z</time>
      </trkpt>
      <trkpt lat="45.59755" lon="6.44815">
        <ele>371.8</ele>
        <time>2021-06-01T09:04:27Z</time>
      </trkpt>
      <trkpt lat="45.59763" lon="6.44818">
        <ele>371.8</ele>
        <time>2021-06-01T09:04:28Z</time>
      </trkpt>
      <trkpt lat="45.59771" lon="6.44822">
        <ele>372</ele>
        <time>2021-06-01T09:04:29Z</time>
      </trkpt>
      <trkpt lat="45.59779" lon="6.44825">
        <ele>372</ele>
        <time>2021-06-01T09:04:30Z</time>
      </trkpt>
      <trkpt lat="45.59788" lon="6.44828">
        <ele>372</ele>
        <time>2021-06-01T09:04:31Z</time>
      </trkpt>
      <trkpt lat="45.59797" lon="6.44831">
        <ele>372</ele>
        <time>2021-06-01T09:04:32Z</time>
      </trkpt>
      <trkpt lat="45.59806" lon="6.44834">
        <ele>372</ele>
        <time>2021-06-01T09:04:33Z</time>
      </trkpt>
      <trkpt lat="45.59815" lon="6.44836">
        <ele>371.6</ele>
        <time>2021-06-01T09:04:34Z</time>
      </trkpt>
      <trkpt lat="45.59824" lon="6.44839">
        <ele>371.4</ele>
        <time>2021-06-01T09:04:35Z</time>
      </trkpt>
      <trkpt lat="45.59834" lon="6.44841">
        <ele>371.2</ele>
        <time>2021-06-01T09:04:36Z</time>
      </trkpt>
      <trkpt lat="45.59844" lon="6.44844">
        <ele>371</ele>
        <time>2021-06-01T09:04:37Z</time>
      </trkpt>
      <trkpt lat="45.59854" lon="6.44847">
        <ele>370.8</ele>
        <time>2021-06-01T09:04:38Z</time>
      </trkpt>
      <trkpt lat="45.59864" lon="6.4485">
        <ele>370.4</ele>
        <time>2021-06-01T09:04:39Z</time>
      </trkpt>
      <trkpt lat="45.59874" lon="6.44853">
        <ele>370.4</ele>
        <time>2021-06-01T09:04:40Z</time>
      </trkpt>
      <trkpt lat="45.59885" lon="6.44855">
        <ele>370.2</ele>
        <time>2021-06-01T09:04:41Z</time>
      </trkpt>
      <trkpt lat="45.59895" lon="6.44858">
        <ele>370.2</ele>
        <time>2021-06-01T09:04:42Z</time>
      </trkpt>
      <trkpt lat="45.59904" lon="6.44861">
        <ele>370</ele>
        <time>2021-06-01T09:04:43Z</time>
      </trkpt>
      <trkpt lat="45.59914" lon="6.44864">
        <ele>370</ele>
        <time>2021-06-01T09:04:44Z</time>
      </trkpt>
      <trkpt lat="45.59923" lon="6.44867">
        <ele>370</ele>
        <time>2021-06-01T09:04:45Z</time>
      </trkpt>
      <trkpt lat="45.59933" lon="6.4487">
        <ele>370</ele>
        <time>2021-06-01T09:04:46Z</time>
      </trkpt>
      <trkpt lat="45.59942" lon="6.44874">
        <ele>370.2</ele>
        <time>2021-06-01T09:04:47Z</time>
      </trkpt>
      <trkpt lat="45.59951" lon="6.44876">
        <ele>370</ele>
        <time>2021-06-01T09:04:48Z</time>
      </trkpt>
      <trkpt lat="45.5996" lon="6.44879">
        <ele>369.8</ele>
        <time>2021-06-01T09:04:49Z</time>
      </trkpt>
      <trkpt lat="45.59969" lon="6.44882">
        <ele>369.8</ele>
        <time>2021-06-01T09:04:50Z</time>
      </trkpt>
      <trkpt lat="45.59978" lon="6.44886">
        <ele>369.8</ele>
        <time>2021-06-01T09:04:51Z</time>
      </trkpt>
      <trkpt lat="45.59987" lon="6.44891">
        <ele>369.6</ele>
        <time>2021-06-01T09:04:52Z</time>
      </trkpt>
      <trkpt lat="45.59994" lon="6.44897">
        <ele>369.6</ele>
        <time>2021-06-01T09:04:53Z</time>
      </trkpt>
      <trkpt lat="45.60001" lon="6.44904">
        <ele>369.4</ele>
        <time>2021-06-01T09:04:54Z</time>
      </trkpt>
      <trkpt lat="45.60007" lon="6.4491">
        <ele>369.2</ele>
        <time>2021-06-01T09:04:55Z</time>
      </trkpt>
      <trkpt lat="45.60013" lon="6.44917">
        <ele>369</ele>
        <time>2021-06-01T09:04:56Z</time>
      </trkpt>
      <trkpt lat="45.6002" lon="6.44921">
        <ele>369</ele>
        <time>2021-06-01T09:04:57Z</time>
      </trkpt>
      <trkpt lat="45.60026" lon="6.44926">
        <ele>368.8</ele>
        <time>2021-06-01T09:04:58Z</time>
      </trkpt>
      <trkpt lat="45.60033" lon="6.4493">
        <ele>368.6</ele>
        <time>2021-06-01T09:04:59Z</time>
      </trkpt>
      <trkpt lat="45.6004" lon="6.44933">
        <ele>368.4</ele>
        <time>2021-06-01T09:05:00Z</time>
      </trkpt>
      <trkpt lat="45.60049" lon="6.44936">
        <ele>368.4</ele>
        <time>2021-06-01T09:05:01Z</time>
      </trkpt>
      <trkpt lat="45.60057" lon="6.44939">
        <ele>368.4</ele>
        <time>2021-06-01T09:05:02Z</time>
      </trkpt>
      <trkpt lat="45.60066" lon="6.44941">
        <ele>368.4</ele>
        <time>2021-06-01T09:05:03Z</time>
      </trkpt>
      <trkpt lat="45.60074" lon="6.44942">
        <ele>368.2</ele>
        <time>2021-06-01T09:05:04Z</time>
      </trkpt>
      <trkpt lat="45.60082" lon="6.44942">
        <ele>367.8</ele>
        <time>2021-06-01T09:05:05Z</time>
      </trkpt>
      <trkpt lat="45.6009" lon="6.4494">
        <ele>367.4</ele>
        <time>2021-06-01T09:05:06Z</time>
      </trkpt>
      <trkpt lat="45.60098" lon="6.44937">
        <ele>367.2</ele>
        <time>2021-06-01T09:05:07Z</time>
      </trkpt>
      <trkpt lat="45.60106" lon="6.44935">
        <ele>366.8</ele>
        <time>2021-06-01T09:05:08Z</time>
      </trkpt>
      <trkpt lat="45.60116" lon="6.44933">
        <ele>366.8</ele>
        <time>2021-06-01T09:05:09Z</time>
      </trkpt>
      <trkpt lat="45.60124" lon="6.44933">
        <ele>366.2</ele>
        <time>2021-06-01T09:05:10Z</time>
      </trkpt>
      <trkpt lat="45.60134" lon="6.44935">
        <ele>366.2</ele>
        <time>2021-06-01T09:05:11Z</time>
      </trkpt>
      <trkpt lat="45.60144" lon="6.44937">
        <ele>365.8</ele>
        <time>2021-06-01T09:05:12Z</time>
      </trkpt>
      <trkpt lat="45.60153" lon="6.4494">
        <ele>365.2</ele>
        <time>2021-06-01T09:05:13Z</time>
      </trkpt>
      <trkpt lat="45.60162" lon="6.44942">
        <ele>365</ele>
        <time>2021-06-01T09:05:14Z</time>
      </trkpt>
      <trkpt lat="45.6017" lon="6.44945">
        <ele>365</ele>
        <time>2021-06-01T09:05:15Z</time>
      </trkpt>
      <trkpt lat="45.60179" lon="6.44948">
        <ele>365</ele>
        <time>2021-06-01T09:05:16Z</time>
      </trkpt>
      <trkpt lat="45.60188" lon="6.44951">
        <ele>364.8</ele>
        <time>2021-06-01T09:05:17Z</time>
      </trkpt>
      <trkpt lat="45.60197" lon="6.44953">
        <ele>364.8</ele>
        <time>2021-06-01T09:05:18Z</time>
      </trkpt>
      <trkpt lat="45.60206" lon="6.44956">
        <ele>364.8</ele>
        <time>2021-06-01T09:05:19Z</time>
      </trkpt>
      <trkpt lat="45.60215" lon="6.44958">
        <ele>364.8</ele>
        <time>2021-06-01T09:05:20Z</time>
      </trkpt>
      <trkpt lat="45.60224" lon="6.44961">
        <ele>364.6</ele>
        <time>2021-06-01T09:05:21Z</time>
      </trkpt>
      <trkpt lat="45.60233" lon="6.44964">
        <ele>364.8</ele>
        <time>2021-06-01T09:05:22Z</time>
      </trkpt>
      <trkpt lat="45.60241" lon="6.44967">
        <ele>364.6</ele>
        <time>2021-06-01T09:05:23Z</time>
      </trkpt>
      <trkpt lat="45.60251" lon="6.44969">
        <ele>364.4</ele>
        <time>2021-06-01T09:05:24Z</time>
      </trkpt>
      <trkpt lat="45.60259" lon="6.44972">
        <ele>364.6</ele>
        <time>2021-06-01T09:05:25Z</time>
      </trkpt>
      <trkpt lat="45.60268" lon="6.44975">
        <ele>364.4</ele>
        <time>2021-06-01T09:05:26Z</time>
      </trkpt>
      <trkpt lat="45.60277" lon="6.44977">
        <ele>364.8</ele>
        <time>2021-06-01T09:05:27Z</time>
      </trkpt>
      <trkpt lat="45.60286" lon="6.4498">
        <ele>364.8</ele>
        <time>2021-06-01T09:05:28Z</time>
      </trkpt>
      <trkpt lat="45.60295" lon="6.44983">
        <ele>364.6</ele>
        <time>2021-06-01T09:05:29Z</time>
      </trkpt>
      <trkpt lat="45.60303" lon="6.44986">
        <ele>364.6</ele>
        <time>2021-06-01T09:05:30Z</time>
      </trkpt>
      <trkpt lat="45.60313" lon="6.44989">
        <ele>364.8</ele>
        <time>2021-06-01T09:05:31Z</time>
      </trkpt>
      <trkpt lat="45.60321" lon="6.44992">
        <ele>364.8</ele>
        <time>2021-06-01T09:05:32Z</time>
      </trkpt>
      <trkpt lat="45.6033" lon="6.44994">
        <ele>364.8</ele>
        <time>2021-06-01T09:05:33Z</time>
      </trkpt>
      <trkpt lat="45.60339" lon="6.44997">
        <ele>364.8</ele>
        <time>2021-06-01T09:05:34Z</time>
      </trkpt>
      <trkpt lat="45.60348" lon="6.45">
        <ele>364.8</ele>
        <time>2021-06-01T09:05:35Z</time>
      </trkpt>
      <trkpt lat="45.60357" lon="6.45002">
        <ele>364.8</ele>
        <time>2021-06-01T09:05:36Z</time>
      </trkpt>
      <trkpt lat="45.60366" lon="6.45005">
        <ele>365.2</ele>
        <time>2021-06-01T09:05:37Z</time>
      </trkpt>
      <trkpt lat="45.60375" lon="6.45008">
        <ele>365.2</ele>
        <time>2021-06-01T09:05:38Z</time>
      </trkpt>
      <trkpt lat="45.60384" lon="6.4501">
        <ele>365.4</ele>
        <time>2021-06-01T09:05:39Z</time>
      </trkpt>
      <trkpt lat="45.60393" lon="6.45013">
        <ele>365.2</ele>
        <time>2021-06-01T09:05:40Z</time>
      </trkpt>
      <trkpt lat="45.60402" lon="6.45016">
        <ele>365.8</ele>
        <time>2021-06-01T09:05:41Z</time>
      </trkpt>
      <trkpt lat="45.60411" lon="6.45019">
        <ele>365.4</ele>
        <time>2021-06-01T09:05:42Z</time>
      </trkpt>
      <trkpt lat="45.6042" lon="6.45021">
        <ele>365</ele>
        <time>2021-06-01T09:05:43Z</time>
      </trkpt>
      <trkpt lat="45.60429" lon="6.45024">
        <ele>365</ele>
        <time>2021-06-01T09:05:44Z</time>
      </trkpt>
      <trkpt lat="45.60438" lon="6.45027">
        <ele>365</ele>
        <time>2021-06-01T09:05:45Z</time>
      </trkpt>
      <trkpt lat="45.60447" lon="6.4503">
        <ele>364.6</ele>
        <time>2021-06-01T09:05:46Z</time>
      </trkpt>
      <trkpt lat="45.60456" lon="6.45033">
        <ele>364.6</ele>
        <time>2021-06-01T09:05:47Z</time>
      </trkpt>
      <trkpt lat="45.60465" lon="6.45035">
        <ele>364.6</ele>
        <time>2021-06-01T09:05:48Z</time>
      </trkpt>
      <trkpt lat="45.60474" lon="6.45038">
        <ele>364.6</ele>
        <time>2021-06-01T09:05:49Z</time>
      </trkpt>
      <trkpt lat="45.60484" lon="6.45041">
        <ele>364.4</ele>
        <time>2021-06-01T09:05:50Z</time>
      </trkpt>
      <trkpt lat="45.60493" lon="6.45044">
        <ele>364.2</ele>
        <time>2021-06-01T09:05:51Z</time>
      </trkpt>
      <trkpt lat="45.60502" lon="6.45047">
        <ele>364</ele>
        <time>2021-06-01T09:05:52Z</time>
      </trkpt>
      <trkpt lat="45.60511" lon="6.45049">
        <ele>364</ele>
        <time>2021-06-01T09:05:53Z</time>
      </trkpt>
      <trkpt lat="45.6052" lon="6.45052">
        <ele>364</ele>
        <time>2021-06-01T09:05:54Z</time>
      </trkpt>
      <trkpt lat="45.60529" lon="6.45055">
        <ele>364</ele>
        <time>2021-06-01T09:05:55Z</time>
      </trkpt>
      <trkpt lat="45.60539" lon="6.45058">
        <ele>363.6</ele>
        <time>2021-06-01T09:05:56Z</time>
      </trkpt>
      <trkpt lat="45.60548" lon="6.45061">
        <ele>363.6</ele>
        <time>2021-06-01T09:05:57Z</time>
      </trkpt>
      <trkpt lat="45.60557" lon="6.45064">
        <ele>363.2</ele>
        <time>2021-06-01T09:05:58Z</time>
      </trkpt>
      <trkpt lat="45.60566" lon="6.45067">
        <ele>363</ele>
        <time>2021-06-01T09:05:59Z</time>
      </trkpt>
      <trkpt lat="45.60575" lon="6.4507">
        <ele>363</ele>
        <time>2021-06-01T09:06:00Z</time>
      </trkpt>
      <trkpt lat="45.60583" lon="6.45072">
        <ele>363</ele>
        <time>2021-06-01T09:06:01Z</time>
      </trkpt>
      <trkpt lat="45.60593" lon="6.45075">
        <ele>363</ele>
        <time>2021-06-01T09:06:02Z</time>
      </trkpt>
      <trkpt lat="45.60602" lon="6.45077">
        <ele>363.2</ele>
        <time>2021-06-01T09:06:03Z</time>
      </trkpt>
      <trkpt lat="45.60611" lon="6.4508">
        <ele>363.2</ele>
        <time>2021-06-01T09:06:04Z</time>
      </trkpt>
      <trkpt lat="45.6062" lon="6.45083">
        <ele>363</ele>
        <time>2021-06-01T09:06:05Z</time>
      </trkpt>
      <trkpt lat="45.60628" lon="6.45085">
        <ele>362.6</ele>
        <time>2021-06-01T09:06:06Z</time>
      </trkpt>
      <trkpt lat="45.60638" lon="6.45088">
        <ele>362.6</ele>
        <time>2021-06-01T09:06:07Z</time>
      </trkpt>
      <trkpt lat="45.60647" lon="6.45091">
        <ele>363</ele>
        <time>2021-06-01T09:06:08Z</time>
      </trkpt>
      <trkpt lat="45.60656" lon="6.45094">
        <ele>362.8</ele>
        <time>2021-06-01T09:06:09Z</time>
      </trkpt>
      <trkpt lat="45.60664" lon="6.45096">
        <ele>363.4</ele>
        <time>2021-06-01T09:06:10Z</time>
      </trkpt>
      <trkpt lat="45.60673" lon="6.45099">
        <ele>363.2</ele>
        <time>2021-06-01T09:06:11Z</time>
      </trkpt>
      <trkpt lat="45.60681" lon="6.45101">
        <ele>363</ele>
        <time>2021-06-01T09:06:12Z</time>
      </trkpt>
      <trkpt lat="45.6069" lon="6.45104">
        <ele>362.8</ele>
        <time>2021-06-01T09:06:13Z</time>
      </trkpt>
      <trkpt lat="45.60698" lon="6.45106">
        <ele>362.8</ele>
        <time>2021-06-01T09:06:14Z</time>
      </trkpt>
      <trkpt lat="45.60707" lon="6.45108">
        <ele>362.4</ele>
        <time>2021-06-01T09:06:15Z</time>
      </trkpt>
      <trkpt lat="45.60716" lon="6.4511">
        <ele>362.2</ele>
        <time>2021-06-01T09:06:16Z</time>
      </trkpt>
      <trkpt lat="45.60724" lon="6.45113">
        <ele>362.4</ele>
        <time>2021-06-01T09:06:17Z</time>
      </trkpt>
      <trkpt lat="45.60733" lon="6.45116">
        <ele>362</ele>
        <time>2021-06-01T09:06:18Z</time>
      </trkpt>
      <trkpt lat="45.60741" lon="6.45119">
        <ele>361.6</ele>
        <time>2021-06-01T09:06:19Z</time>
      </trkpt>
      <trkpt lat="45.60749" lon="6.45122">
        <ele>361.4</ele>
        <time>2021-06-01T09:06:20Z</time>
      </trkpt>
      <trkpt lat="45.60758" lon="6.45126">
        <ele>361.2</ele>
        <time>2021-06-01T09:06:21Z</time>
      </trkpt>
      <trkpt lat="45.60767" lon="6.45129">
        <ele>361</ele>
        <time>2021-06-01T09:06:22Z</time>
      </trkpt>
      <trkpt lat="45.60774" lon="6.45132">
        <ele>361.2</ele>
        <time>2021-06-01T09:06:23Z</time>
      </trkpt>
      <trkpt lat="45.60782" lon="6.45135">
        <ele>361.4</ele>
        <time>2021-06-01T09:06:24Z</time>
      </trkpt>
      <trkpt lat="45.60789" lon="6.45139">
        <ele>361.4</ele>
        <time>2021-06-01T09:06:25Z</time>
      </trkpt>
      <trkpt lat="45.60797" lon="6.45142">
        <ele>361.6</ele>
        <time>2021-06-01T09:06:26Z</time>
      </trkpt>
      <trkpt lat="45.60805" lon="6.45145">
        <ele>361.8</ele>
        <time>2021-06-01T09:06:27Z</time>
      </trkpt>
      <trkpt lat="45.60813" lon="6.45148">
        <ele>362.2</ele>
        <time>2021-06-01T09:06:28Z</time>
      </trkpt>
      <trkpt lat="45.6082" lon="6.45151">
        <ele>362.4</ele>
        <time>2021-06-01T09:06:29Z</time>
      </trkpt>
      <trkpt lat="45.60827" lon="6.45154">
        <ele>363</ele>
        <time>2021-06-01T09:06:30Z</time>
      </trkpt>
      <trkpt lat="45.60835" lon="6.45157">
        <ele>363.2</ele>
        <time>2021-06-01T09:06:31Z</time>
      </trkpt>
      <trkpt lat="45.60843" lon="6.4516">
        <ele>364</ele>
        <time>2021-06-01T09:06:32Z</time>
      </trkpt>
      <trkpt lat="45.60851" lon="6.45164">
        <ele>364.4</ele>
        <time>2021-06-01T09:06:33Z</time>
      </trkpt>
      <trkpt lat="45.60858" lon="6.45167">
        <ele>364.6</ele>
        <time>2021-06-01T09:06:34Z</time>
      </trkpt>
      <trkpt lat="45.60866" lon="6.45171">
        <ele>365.2</ele>
        <time>2021-06-01T09:06:35Z</time>
      </trkpt>
      <trkpt lat="45.60874" lon="6.45174">
        <ele>365.2</ele>
        <time>2021-06-01T09:06:36Z</time>
      </trkpt>
      <trkpt lat="45.60881" lon="6.45176">
        <ele>365.2</ele>
        <time>2021-06-01T09:06:37Z</time>
      </trkpt>
      <trkpt lat="45.60889" lon="6.45178">
        <ele>365.6</ele>
        <time>2021-06-01T09:06:38Z</time>
      </trkpt>
      <trkpt lat="45.60897" lon="6.4518">
        <ele>366</ele>
        <time>2021-06-01T09:06:39Z</time>
      </trkpt>
      <trkpt lat="45.60905" lon="6.45181">
        <ele>365.8</ele>
        <time>2021-06-01T09:06:40Z</time>
      </trkpt>
      <trkpt lat="45.60912" lon="6.45181">
        <ele>366.2</ele>
        <time>2021-06-01T09:06:41Z</time>
      </trkpt>
      <trkpt lat="45.6092" lon="6.4518">
        <ele>366.8</ele>
        <time>2021-06-01T09:06:42Z</time>
      </trkpt>
      <trkpt lat="45.60928" lon="6.45179">
        <ele>367.2</ele>
        <time>2021-06-01T09:06:43Z</time>
      </trkpt>
      <trkpt lat="45.60936" lon="6.45178">
        <ele>367.2</ele>
        <time>2021-06-01T09:06:44Z</time>
      </trkpt>
      <trkpt lat="45.60943" lon="6.45176">
        <ele>367.2</ele>
        <time>2021-06-01T09:06:45Z</time>
      </trkpt>
      <trkpt lat="45.60951" lon="6.45174">
        <ele>367</ele>
        <time>2021-06-01T09:06:46Z</time>
      </trkpt>
      <trkpt lat="45.60959" lon="6.45173">
        <ele>366.8</ele>
        <time>2021-06-01T09:06:47Z</time>
      </trkpt>
      <trkpt lat="45.60967" lon="6.45172">
        <ele>366.6</ele>
        <time>2021-06-01T09:06:48Z</time>
      </trkpt>
      <trkpt lat="45.60975" lon="6.45172">
        <ele>366.6</ele>
        <time>2021-06-01T09:06:49Z</time>
      </trkpt>
      <trkpt lat="45.60983" lon="6.45172">
        <ele>366.6</ele>
        <time>2021-06-01T09:06:50Z</time>
      </trkpt>
      <trkpt lat="45.60991" lon="6.45171">
        <ele>366.4</ele>
        <time>2021-06-01T09:06:51Z</time>
      </trkpt>
      <trkpt lat="45.60999" lon="6.45171">
        <ele>366.4</ele>
        <time>2021-06-01T09:06:52Z</time>
      </trkpt>
      <trkpt lat="45.61008" lon="6.45173">
        <ele>366.2</ele>
        <time>2021-06-01T09:06:53Z</time>
      </trkpt>
      <trkpt lat="45.61016" lon="6.45175">
        <ele>365.6</ele>
        <time>2021-06-01T09:06:54Z</time>
      </trkpt>
      <trkpt lat="45.61027" lon="6.45178">
        <ele>365.4</ele>
        <time>2021-06-01T09:06:55Z</time>
      </trkpt>
      <trkpt lat="45.61037" lon="6.45182">
        <ele>364.8</ele>
        <time>2021-06-01T09:06:56Z</time>
      </trkpt>
      <trkpt lat="45.61049" lon="6.45186">
        <ele>364.2</ele>
        <time>2021-06-01T09:06:57Z</time>
      </trkpt>
      <trkpt lat="45.61059" lon="6.45189">
        <ele>364</ele>
        <time>2021-06-01T09:06:58Z</time>
      </trkpt>
      <trkpt lat="45.61069" lon="6.45193">
        <ele>363.6</ele>
        <time>2021-06-01T09:06:59Z</time>
      </trkpt>
      <trkpt lat="45.61079" lon="6.45197">
        <ele>363.2</ele>
        <time>2021-06-01T09:07:00Z</time>
      </trkpt>
      <trkpt lat="45.61089" lon="6.452">
        <ele>363.2</ele>
        <time>2021-06-01T09:07:01Z</time>
      </trkpt>
      <trkpt lat="45.61098" lon="6.45202">
        <ele>362.8</ele>
        <time>2021-06-01T09:07:02Z</time>
      </trkpt>
      <trkpt lat="45.61107" lon="6.45205">
        <ele>362.8</ele>
        <time>2021-06-01T09:07:03Z</time>
      </trkpt>
      <trkpt lat="45.61117" lon="6.45208">
        <ele>362.4</ele>
        <time>2021-06-01T09:07:04Z</time>
      </trkpt>
      <trkpt lat="45.61126" lon="6.45211">
        <ele>362.4</ele>
        <time>2021-06-01T09:07:05Z</time>
      </trkpt>
      <trkpt lat="45.61135" lon="6.45214">
        <ele>362.4</ele>
        <time>2021-06-01T09:07:06Z</time>
      </trkpt>
      <trkpt lat="45.61143" lon="6.45217">
        <ele>362</ele>
        <time>2021-06-01T09:07:07Z</time>
      </trkpt>
      <trkpt lat="45.61151" lon="6.4522">
        <ele>361.6</ele>
        <time>2021-06-01T09:07:08Z</time>
      </trkpt>
      <trkpt lat="45.61159" lon="6.45223">
        <ele>361.8</ele>
        <time>2021-06-01T09:07:09Z</time>
      </trkpt>
      <trkpt lat="45.61167" lon="6.45225">
        <ele>361.8</ele>
        <time>2021-06-01T09:07:10Z</time>
      </trkpt>
      <trkpt lat="45.61175" lon="6.45227">
        <ele>361.8</ele>
        <time>2021-06-01T09:07:11Z</time>
      </trkpt>
      <trkpt lat="45.61182" lon="6.45229">
        <ele>361.6</ele>
        <time>2021-06-01T09:07:12Z</time>
      </trkpt>
      <trkpt lat="45.6119" lon="6.45231">
        <ele>361.4</ele>
        <time>2021-06-01T09:07:13Z</time>
      </trkpt>
      <trkpt lat="45.61198" lon="6.45234">
        <ele>361.4</ele>
        <time>2021-06-01T09:07:14Z</time>
      </trkpt>
      <trkpt lat="45.61206" lon="6.45237">
        <ele>361.4</ele>
        <time>2021-06-01T09:07:15Z</time>
      </trkpt>
      <trkpt lat="45.61256" lon="6.45251">
        <ele>361.8</ele>
        <time>2021-06-01T09:07:22Z</time>
      </trkpt>
      <trkpt lat="45.61279" lon="6.4526">
        <ele>362</ele>
        <time>2021-06-01T09:07:25Z</time>
      </trkpt>
      <trkpt lat="45.61286" lon="6.45262">
        <ele>362.2</ele>
        <time>2021-06-01T09:07:26Z</time>
      </trkpt>
      <trkpt lat="45.61294" lon="6.45265">
        <ele>362.2</ele>
        <time>2021-06-01T09:07:27Z</time>
      </trkpt>
      <trkpt lat="45.61301" lon="6.45267">
        <ele>362.4</ele>
        <time>2021-06-01T09:07:28Z</time>
      </trkpt>
      <trkpt lat="45.61309" lon="6.45271">
        <ele>362.2</ele>
        <time>2021-06-01T09:07:29Z</time>
      </trkpt>
      <trkpt lat="45.61317" lon="6.45274">
        <ele>362</ele>
        <time>2021-06-01T09:07:30Z</time>
      </trkpt>
      <trkpt lat="45.61324" lon="6.45277">
        <ele>362</ele>
        <time>2021-06-01T09:07:31Z</time>
      </trkpt>
      <trkpt lat="45.61331" lon="6.45281">
        <ele>362.4</ele>
        <time>2021-06-01T09:07:32Z</time>
      </trkpt>
      <trkpt lat="45.61337" lon="6.45284">
        <ele>362.2</ele>
        <time>2021-06-01T09:07:33Z</time>
      </trkpt>
      <trkpt lat="45.61343" lon="6.45288">
        <ele>362.2</ele>
        <time>2021-06-01T09:07:34Z</time>
      </trkpt>
      <trkpt lat="45.61348" lon="6.45292">
        <ele>362.4</ele>
        <time>2021-06-01T09:07:35Z</time>
      </trkpt>
      <trkpt lat="45.61355" lon="6.45296">
        <ele>362.6</ele>
        <time>2021-06-01T09:07:36Z</time>
      </trkpt>
      <trkpt lat="45.61361" lon="6.45299">
        <ele>362.8</ele>
        <time>2021-06-01T09:07:37Z</time>
      </trkpt>
      <trkpt lat="45.61367" lon="6.45301">
        <ele>363</ele>
        <time>2021-06-01T09:07:38Z</time>
      </trkpt>
      <trkpt lat="45.61372" lon="6.45303">
        <ele>363</ele>
        <time>2021-06-01T09:07:39Z</time>
      </trkpt>
      <trkpt lat="45.61379" lon="6.45304">
        <ele>363.4</ele>
        <time>2021-06-01T09:07:40Z</time>
      </trkpt>
      <trkpt lat="45.61385" lon="6.45304">
        <ele>363.6</ele>
        <time>2021-06-01T09:07:41Z</time>
      </trkpt>
      <trkpt lat="45.61391" lon="6.45304">
        <ele>363.8</ele>
        <time>2021-06-01T09:07:42Z</time>
      </trkpt>
      <trkpt lat="45.61397" lon="6.45304">
        <ele>363.8</ele>
        <time>2021-06-01T09:07:43Z</time>
      </trkpt>
      <trkpt lat="45.61403" lon="6.45304">
        <ele>363.8</ele>
        <time>2021-06-01T09:07:44Z</time>
      </trkpt>
      <trkpt lat="45.61408" lon="6.45303">
        <ele>364</ele>
        <time>2021-06-01T09:07:45Z</time>
      </trkpt>
      <trkpt lat="45.61414" lon="6.45302">
        <ele>364.4</ele>
        <time>2021-06-01T09:07:46Z</time>
      </trkpt>
      <trkpt lat="45.61421" lon="6.45301">
        <ele>364.6</ele>
        <time>2021-06-01T09:07:47Z</time>
      </trkpt>
      <trkpt lat="45.61428" lon="6.453">
        <ele>364.8</ele>
        <time>2021-06-01T09:07:48Z</time>
      </trkpt>
      <trkpt lat="45.61435" lon="6.453">
        <ele>364.8</ele>
        <time>2021-06-01T09:07:49Z</time>
      </trkpt>
      <trkpt lat="45.61442" lon="6.45299">
        <ele>365</ele>
        <time>2021-06-01T09:07:50Z</time>
      </trkpt>
      <trkpt lat="45.61449" lon="6.45298">
        <ele>365</ele>
        <time>2021-06-01T09:07:51Z</time>
      </trkpt>
      <trkpt lat="45.61456" lon="6.45297">
        <ele>365.4</ele>
        <time>2021-06-01T09:07:52Z</time>
      </trkpt>
      <trkpt lat="45.61463" lon="6.45296">
        <ele>365.4</ele>
        <time>2021-06-01T09:07:53Z</time>
      </trkpt>
      <trkpt lat="45.61468" lon="6.45294">
        <ele>365.6</ele>
        <time>2021-06-01T09:07:54Z</time>
      </trkpt>
      <trkpt lat="45.61475" lon="6.45292">
        <ele>365.8</ele>
        <time>2021-06-01T09:07:55Z</time>
      </trkpt>
      <trkpt lat="45.61481" lon="6.45291">
        <ele>366.2</ele>
        <time>2021-06-01T09:07:56Z</time>
      </trkpt>
      <trkpt lat="45.61487" lon="6.45289">
        <ele>366.6</ele>
        <time>2021-06-01T09:07:57Z</time>
      </trkpt>
      <trkpt lat="45.61492" lon="6.45287">
        <ele>366.8</ele>
        <time>2021-06-01T09:07:58Z</time>
      </trkpt>
      <trkpt lat="45.61498" lon="6.45286">
        <ele>367</ele>
        <time>2021-06-01T09:07:59Z</time>
      </trkpt>
      <trkpt lat="45.61504" lon="6.45284">
        <ele>367.4</ele>
        <time>2021-06-01T09:08:00Z</time>
      </trkpt>
      <trkpt lat="45.6151" lon="6.45283">
        <ele>367.4</ele>
        <time>2021-06-01T09:08:01Z</time>
      </trkpt>
      <trkpt lat="45.61516" lon="6.45281">
        <ele>367.6</ele>
        <time>2021-06-01T09:08:02Z</time>
      </trkpt>
      <trkpt lat="45.61523" lon="6.45279">
        <ele>368</ele>
        <time>2021-06-01T09:08:03Z</time>
      </trkpt>
      <trkpt lat="45.61529" lon="6.45276">
        <ele>368.2</ele>
        <time>2021-06-01T09:08:04Z</time>
      </trkpt>
      <trkpt lat="45.61534" lon="6.45272">
        <ele>368.6</ele>
        <time>2021-06-01T09:08:05Z</time>
      </trkpt>
      <trkpt lat="45.6154" lon="6.45267">
        <ele>368.8</ele>
        <time>2021-06-01T09:08:06Z</time>
      </trkpt>
      <trkpt lat="45.61544" lon="6.45262">
        <ele>369.2</ele>
        <time>2021-06-01T09:08:07Z</time>
      </trkpt>
      <trkpt lat="45.6155" lon="6.45257">
        <ele>369.4</ele>
        <time>2021-06-01T09:08:08Z</time>
      </trkpt>
      <trkpt lat="45.61555" lon="6.45252">
        <ele>369.6</ele>
        <time>2021-06-01T09:08:09Z</time>
      </trkpt>
      <trkpt lat="45.6156" lon="6.45248">
        <ele>369.8</ele>
        <time>2021-06-01T09:08:10Z</time>
      </trkpt>
      <trkpt lat="45.61565" lon="6.45242">
        <ele>370.2</ele>
        <time>2021-06-01T09:08:11Z</time>
      </trkpt>
      <trkpt lat="45.6157" lon="6.45236">
        <ele>370.2</ele>
        <time>2021-06-01T09:08:12Z</time>
      </trkpt>
      <trkpt lat="45.61574" lon="6.4523">
        <ele>370.4</ele>
        <time>2021-06-01T09:08:13Z</time>
      </trkpt>
      <trkpt lat="45.61579" lon="6.45225">
        <ele>370.8</ele>
        <time>2021-06-01T09:08:14Z</time>
      </trkpt>
      <trkpt lat="45.61583" lon="6.45221">
        <ele>370.8</ele>
        <time>2021-06-01T09:08:15Z</time>
      </trkpt>
      <trkpt lat="45.61589" lon="6.45217">
        <ele>371</ele>
        <time>2021-06-01T09:08:16Z</time>
      </trkpt>
      <trkpt lat="45.61594" lon="6.45213">
        <ele>371.4</ele>
        <time>2021-06-01T09:08:17Z</time>
      </trkpt>
      <trkpt lat="45.61599" lon="6.45211">
        <ele>371.8</ele>
        <time>2021-06-01T09:08:18Z</time>
      </trkpt>
      <trkpt lat="45.61604" lon="6.45208">
        <ele>372</ele>
        <time>2021-06-01T09:08:19Z</time>
      </trkpt>
      <trkpt lat="45.61609" lon="6.45205">
        <ele>372.4</ele>
        <time>2021-06-01T09:08:20Z</time>
      </trkpt>
      <trkpt lat="45.61614" lon="6.45201">
        <ele>372.6</ele>
        <time>2021-06-01T09:08:21Z</time>
      </trkpt>
      <trkpt lat="45.61619" lon="6.45197">
        <ele>372.8</ele>
        <time>2021-06-01T09:08:22Z</time>
      </trkpt>
      <trkpt lat="45.61624" lon="6.45195">
        <ele>373</ele>
        <time>2021-06-01T09:08:23Z</time>
      </trkpt>
      <trkpt lat="45.61629" lon="6.45193">
        <ele>373.2</ele>
        <time>2021-06-01T09:08:24Z</time>
      </trkpt>
      <trkpt lat="45.61634" lon="6.45191">
        <ele>373.4</ele>
        <time>2021-06-01T09:08:25Z</time>
      </trkpt>
      <trkpt lat="45.61639" lon="6.4519">
        <ele>373.8</ele>
        <time>2021-06-01T09:08:26Z</time>
      </trkpt>
      <trkpt lat="45.61645" lon="6.45188">
        <ele>374</ele>
        <time>2021-06-01T09:08:27Z</time>
      </trkpt>
      <trkpt lat="45.6165" lon="6.45185">
        <ele>374.4</ele>
        <time>2021-06-01T09:08:28Z</time>
      </trkpt>
      <trkpt lat="45.61655" lon="6.45182">
        <ele>374.4</ele>
        <time>2021-06-01T09:08:29Z</time>
      </trkpt>
      <trkpt lat="45.6166" lon="6.45179">
        <ele>374.6</ele>
        <time>2021-06-01T09:08:30Z</time>
      </trkpt>
      <trkpt lat="45.61666" lon="6.45176">
        <ele>374.8</ele>
        <time>2021-06-01T09:08:31Z</time>
      </trkpt>
      <trkpt lat="45.61672" lon="6.45174">
        <ele>374.6</ele>
        <time>2021-06-01T09:08:32Z</time>
      </trkpt>
      <trkpt lat="45.61678" lon="6.45171">
        <ele>374.8</ele>
        <time>2021-06-01T09:08:33Z</time>
      </trkpt>
      <trkpt lat="45.61684" lon="6.45167">
        <ele>375</ele>
        <time>2021-06-01T09:08:34Z</time>
      </trkpt>
      <trkpt lat="45.6169" lon="6.45164">
        <ele>375</ele>
        <time>2021-06-01T09:08:35Z</time>
      </trkpt>
      <trkpt lat="45.61695" lon="6.45161">
        <ele>375.2</ele>
        <time>2021-06-01T09:08:36Z</time>
      </trkpt>
      <trkpt lat="45.61702" lon="6.45158">
        <ele>375.2</ele>
        <time>2021-06-01T09:08:37Z</time>
      </trkpt>
      <trkpt lat="45.61708" lon="6.45156">
        <ele>375.2</ele>
        <time>2021-06-01T09:08:38Z</time>
      </trkpt>
      <trkpt lat="45.61715" lon="6.45153">
        <ele>375.4</ele>
        <time>2021-06-01T09:08:39Z</time>
      </trkpt>
      <trkpt lat="45.61721" lon="6.45151">
        <ele>375.8</ele>
        <time>2021-06-01T09:08:40Z</time>
      </trkpt>
      <trkpt lat="45.61728" lon="6.45147">
        <ele>375.8</ele>
        <time>2021-06-01T09:08:41Z</time>
      </trkpt>
      <trkpt lat="45.61734" lon="6.45144">
        <ele>376</ele>
        <time>2021-06-01T09:08:42Z</time>
      </trkpt>
      <trkpt lat="45.61741" lon="6.45141">
        <ele>376.2</ele>
        <time>2021-06-01T09:08:43Z</time>
      </trkpt>
      <trkpt lat="45.61748" lon="6.45138">
        <ele>376.2</ele>
        <time>2021-06-01T09:08:44Z</time>
      </trkpt>
      <trkpt lat="45.61754" lon="6.45135">
        <ele>375.8</ele>
        <time>2021-06-01T09:08:45Z</time>
      </trkpt>
      <trkpt lat="45.6176" lon="6.45132">
        <ele>376</ele>
        <time>2021-06-01T09:08:46Z</time>
      </trkpt>
      <trkpt lat="45.61766" lon="6.45129">
        <ele>375.8</ele>
        <time>2021-06-01T09:08:47Z</time>
      </trkpt>
      <trkpt lat="45.61772" lon="6.45127">
        <ele>375.6</ele>
        <time>2021-06-01T09:08:48Z</time>
      </trkpt>
      <trkpt lat="45.61779" lon="6.45123">
        <ele>375.8</ele>
        <time>2021-06-01T09:08:49Z</time>
      </trkpt>
      <trkpt lat="45.61785" lon="6.4512">
        <ele>375.8</ele>
        <time>2021-06-01T09:08:50Z</time>
      </trkpt>
      <trkpt lat="45.61791" lon="6.45117">
        <ele>375.8</ele>
        <time>2021-06-01T09:08:51Z</time>
      </trkpt>
      <trkpt lat="45.61798" lon="6.45114">
        <ele>375.6</ele>
        <time>2021-06-01T09:08:52Z</time>
      </trkpt>
      <trkpt lat="45.61805" lon="6.45111">
        <ele>375.8</ele>
        <time>2021-06-01T09:08:53Z</time>
      </trkpt>
      <trkpt lat="45.61812" lon="6.45107">
        <ele>375.6</ele>
        <time>2021-06-01T09:08:54Z</time>
      </trkpt>
      <trkpt lat="45.6182" lon="6.45104">
        <ele>375.2</ele>
        <time>2021-06-01T09:08:55Z</time>
      </trkpt>
      <trkpt lat="45.61828" lon="6.45101">
        <ele>375.2</ele>
        <time>2021-06-01T09:08:56Z</time>
      </trkpt>
      <trkpt lat="45.61836" lon="6.45098">
        <ele>375</ele>
        <time>2021-06-01T09:08:57Z</time>
      </trkpt>
      <trkpt lat="45.61844" lon="6.45094">
        <ele>374.6</ele>
        <time>2021-06-01T09:08:58Z</time>
      </trkpt>
      <trkpt lat="45.61852" lon="6.45091">
        <ele>374.6</ele>
        <time>2021-06-01T09:08:59Z</time>
      </trkpt>
      <trkpt lat="45.6186" lon="6.45087">
        <ele>374.2</ele>
        <time>2021-06-01T09:09:00Z</time>
      </trkpt>
      <trkpt lat="45.61868" lon="6.45083">
        <ele>374.4</ele>
        <time>2021-06-01T09:09:01Z</time>
      </trkpt>
      <trkpt lat="45.61876" lon="6.45078">
        <ele>373.8</ele>
        <time>2021-06-01T09:09:02Z</time>
      </trkpt>
      <trkpt lat="45.61885" lon="6.45074">
        <ele>373.2</ele>
        <time>2021-06-01T09:09:03Z</time>
      </trkpt>
      <trkpt lat="45.61894" lon="6.45071">
        <ele>372.8</ele>
        <time>2021-06-01T09:09:04Z</time>
      </trkpt>
      <trkpt lat="45.61903" lon="6.45066">
        <ele>372.2</ele>
        <time>2021-06-01T09:09:05Z</time>
      </trkpt>
      <trkpt lat="45.61912" lon="6.45061">
        <ele>372</ele>
        <time>2021-06-01T09:09:06Z</time>
      </trkpt>
      <trkpt lat="45.61921" lon="6.45056">
        <ele>371.8</ele>
        <time>2021-06-01T09:09:07Z</time>
      </trkpt>
      <trkpt lat="45.6193" lon="6.45052">
        <ele>371.2</ele>
        <time>2021-06-01T09:09:08Z</time>
      </trkpt>
      <trkpt lat="45.61939" lon="6.45047">
        <ele>371.4</ele>
        <time>2021-06-01T09:09:09Z</time>
      </trkpt>
      <trkpt lat="45.61948" lon="6.45043">
        <ele>371</ele>
        <time>2021-06-01T09:09:10Z</time>
      </trkpt>
      <trkpt lat="45.61958" lon="6.45039">
        <ele>370.4</ele>
        <time>2021-06-01T09:09:11Z</time>
      </trkpt>
      <trkpt lat="45.61967" lon="6.45035">
        <ele>370</ele>
        <time>2021-06-01T09:09:12Z</time>
      </trkpt>
      <trkpt lat="45.61977" lon="6.45031">
        <ele>369.6</ele>
        <time>2021-06-01T09:09:13Z</time>
      </trkpt>
      <trkpt lat="45.61987" lon="6.45027">
        <ele>368.4</ele>
        <time>2021-06-01T09:09:14Z</time>
      </trkpt>
      <trkpt lat="45.61998" lon="6.45024">
        <ele>368</ele>
        <time>2021-06-01T09:09:15Z</time>
      </trkpt>
      <trkpt lat="45.62008" lon="6.4502">
        <ele>368</ele>
        <time>2021-06-01T09:09:16Z</time>
      </trkpt>
      <trkpt lat="45.62018" lon="6.45016">
        <ele>367.8</ele>
        <time>2021-06-01T09:09:17Z</time>
      </trkpt>
      <trkpt lat="45.62027" lon="6.45013">
        <ele>367.2</ele>
        <time>2021-06-01T09:09:18Z</time>
      </trkpt>
      <trkpt lat="45.62038" lon="6.45009">
        <ele>366.6</ele>
        <time>2021-06-01T09:09:19Z</time>
      </trkpt>
      <trkpt lat="45.62047" lon="6.45005">
        <ele>366.6</ele>
        <time>2021-06-01T09:09:20Z</time>
      </trkpt>
      <trkpt lat="45.62057" lon="6.45001">
        <ele>365.6</ele>
        <time>2021-06-01T09:09:21Z</time>
      </trkpt>
      <trkpt lat="45.62066" lon="6.44996">
        <ele>364.8</ele>
        <time>2021-06-01T09:09:22Z</time>
      </trkpt>
      <trkpt lat="45.62076" lon="6.44992">
        <ele>364.2</ele>
        <time>2021-06-01T09:09:23Z</time>
      </trkpt>
      <trkpt lat="45.62085" lon="6.44988">
        <ele>364.4</ele>
        <time>2021-06-01T09:09:24Z</time>
      </trkpt>
      <trkpt lat="45.62094" lon="6.44986">
        <ele>364.2</ele>
        <time>2021-06-01T09:09:25Z</time>
      </trkpt>
      <trkpt lat="45.62103" lon="6.44983">
        <ele>363.8</ele>
        <time>2021-06-01T09:09:26Z</time>
      </trkpt>
      <trkpt lat="45.62112" lon="6.44978">
        <ele>363.8</ele>
        <time>2021-06-01T09:09:27Z</time>
      </trkpt>
      <trkpt lat="45.6212" lon="6.44974">
        <ele>363.2</ele>
        <time>2021-06-01T09:09:28Z</time>
      </trkpt>
      <trkpt lat="45.62128" lon="6.4497">
        <ele>362.8</ele>
        <time>2021-06-01T09:09:29Z</time>
      </trkpt>
      <trkpt lat="45.62136" lon="6.44966">
        <ele>362.2</ele>
        <time>2021-06-01T09:09:30Z</time>
      </trkpt>
      <trkpt lat="45.62144" lon="6.44962">
        <ele>362</ele>
        <time>2021-06-01T09:09:31Z</time>
      </trkpt>
      <trkpt lat="45.62153" lon="6.4496">
        <ele>362</ele>
        <time>2021-06-01T09:09:32Z</time>
      </trkpt>
      <trkpt lat="45.62161" lon="6.44958">
        <ele>362</ele>
        <time>2021-06-01T09:09:33Z</time>
      </trkpt>
      <trkpt lat="45.6217" lon="6.44956">
        <ele>361.8</ele>
        <time>2021-06-01T09:09:34Z</time>
      </trkpt>
      <trkpt lat="45.62179" lon="6.44955">
        <ele>361.6</ele>
        <time>2021-06-01T09:09:35Z</time>
      </trkpt>
      <trkpt lat="45.62188" lon="6.44953">
        <ele>361.6</ele>
        <time>2021-06-01T09:09:36Z</time>
      </trkpt>
      <trkpt lat="45.62196" lon="6.44951">
        <ele>361.6</ele>
        <time>2021-06-01T09:09:37Z</time>
      </trkpt>
      <trkpt lat="45.62204" lon="6.44949">
        <ele>361.4</ele>
        <time>2021-06-01T09:09:38Z</time>
      </trkpt>
      <trkpt lat="45.62213" lon="6.44948">
        <ele>361.2</ele>
        <time>2021-06-01T09:09:39Z</time>
      </trkpt>
      <trkpt lat="45.62221" lon="6.44946">
        <ele>360.8</ele>
        <time>2021-06-01T09:09:40Z</time>
      </trkpt>
      <trkpt lat="45.6223" lon="6.44944">
        <ele>360.2</ele>
        <time>2021-06-01T09:09:41Z</time>
      </trkpt>
      <trkpt lat="45.62239" lon="6.44942">
        <ele>360.4</ele>
        <time>2021-06-01T09:09:42Z</time>
      </trkpt>
      <trkpt lat="45.62247" lon="6.44941">
        <ele>360</ele>
        <time>2021-06-01T09:09:43Z</time>
      </trkpt>
      <trkpt lat="45.62257" lon="6.44939">
        <ele>359.6</ele>
        <time>2021-06-01T09:09:44Z</time>
      </trkpt>
      <trkpt lat="45.62265" lon="6.44938">
        <ele>359.6</ele>
        <time>2021-06-01T09:09:45Z</time>
      </trkpt>
      <trkpt lat="45.62274" lon="6.44936">
        <ele>359.8</ele>
        <time>2021-06-01T09:09:46Z</time>
      </trkpt>
      <trkpt lat="45.62282" lon="6.44933">
        <ele>359.8</ele>
        <time>2021-06-01T09:09:47Z</time>
      </trkpt>
      <trkpt lat="45.62291" lon="6.44931">
        <ele>359.6</ele>
        <time>2021-06-01T09:09:48Z</time>
      </trkpt>
      <trkpt lat="45.62299" lon="6.44927">
        <ele>359.6</ele>
        <time>2021-06-01T09:09:49Z</time>
      </trkpt>
      <trkpt lat="45.62307" lon="6.44924">
        <ele>359.2</ele>
        <time>2021-06-01T09:09:50Z</time>
      </trkpt>
      <trkpt lat="45.62315" lon="6.44922">
        <ele>359.2</ele>
        <time>2021-06-01T09:09:51Z</time>
      </trkpt>
      <trkpt lat="45.62323" lon="6.44922">
        <ele>359.2</ele>
        <time>2021-06-01T09:09:52Z</time>
      </trkpt>
      <trkpt lat="45.62331" lon="6.44922">
        <ele>358</ele>
        <time>2021-06-01T09:09:53Z</time>
      </trkpt>
      <trkpt lat="45.62338" lon="6.44922">
        <ele>357.8</ele>
        <time>2021-06-01T09:09:54Z</time>
      </trkpt>
      <trkpt lat="45.62346" lon="6.44922">
        <ele>357.4</ele>
        <time>2021-06-01T09:09:55Z</time>
      </trkpt>
      <trkpt lat="45.62352" lon="6.44919">
        <ele>357.4</ele>
        <time>2021-06-01T09:09:56Z</time>
      </trkpt>
      <trkpt lat="45.62359" lon="6.44915">
        <ele>357.2</ele>
        <time>2021-06-01T09:09:57Z</time>
      </trkpt>
      <trkpt lat="45.62365" lon="6.44912">
        <ele>357</ele>
        <time>2021-06-01T09:09:58Z</time>
      </trkpt>
      <trkpt lat="45.62372" lon="6.44909">
        <ele>356.4</ele>
        <time>2021-06-01T09:09:59Z</time>
      </trkpt>
      <trkpt lat="45.6238" lon="6.44907">
        <ele>356.4</ele>
        <time>2021-06-01T09:10:00Z</time>
      </trkpt>
      <trkpt lat="45.62388" lon="6.44905">
        <ele>355.2</ele>
        <time>2021-06-01T09:10:01Z</time>
      </trkpt>
      <trkpt lat="45.62395" lon="6.44904">
        <ele>354.6</ele>
        <time>2021-06-01T09:10:02Z</time>
      </trkpt>
      <trkpt lat="45.62402" lon="6.44902">
        <ele>354.2</ele>
        <time>2021-06-01T09:10:03Z</time>
      </trkpt>
      <trkpt lat="45.6241" lon="6.44901">
        <ele>353.4</ele>
        <time>2021-06-01T09:10:04Z</time>
      </trkpt>
      <trkpt lat="45.62418" lon="6.44901">
        <ele>353</ele>
        <time>2021-06-01T09:10:05Z</time>
      </trkpt>
      <trkpt lat="45.62426" lon="6.449">
        <ele>352.8</ele>
        <time>2021-06-01T09:10:06Z</time>
      </trkpt>
      <trkpt lat="45.62434" lon="6.44899">
        <ele>352.6</ele>
        <time>2021-06-01T09:10:07Z</time>
      </trkpt>
      <trkpt lat="45.62442" lon="6.44898">
        <ele>352.6</ele>
        <time>2021-06-01T09:10:08Z</time>
      </trkpt>
      <trkpt lat="45.6245" lon="6.44897">
        <ele>352.2</ele>
        <time>2021-06-01T09:10:09Z</time>
      </trkpt>
      <trkpt lat="45.62457" lon="6.44896">
        <ele>352</ele>
        <time>2021-06-01T09:10:10Z</time>
      </trkpt>
      <trkpt lat="45.62465" lon="6.44895">
        <ele>352</ele>
        <time>2021-06-01T09:10:11Z</time>
      </trkpt>
      <trkpt lat="45.62473" lon="6.44894">
        <ele>352</ele>
        <time>2021-06-01T09:10:12Z</time>
      </trkpt>
      <trkpt lat="45.62481" lon="6.44893">
        <ele>352</ele>
        <time>2021-06-01T09:10:13Z</time>
      </trkpt>
      <trkpt lat="45.62488" lon="6.44891">
        <ele>351.8</ele>
        <time>2021-06-01T09:10:14Z</time>
      </trkpt>
      <trkpt lat="45.62496" lon="6.44889">
        <ele>351.6</ele>
        <time>2021-06-01T09:10:15Z</time>
      </trkpt>
      <trkpt lat="45.62503" lon="6.44887">
        <ele>351.4</ele>
        <time>2021-06-01T09:10:16Z</time>
      </trkpt>
      <trkpt lat="45.62511" lon="6.44885">
        <ele>351.4</ele>
        <time>2021-06-01T09:10:17Z</time>
      </trkpt>
      <trkpt lat="45.62519" lon="6.44883">
        <ele>351.4</ele>
        <time>2021-06-01T09:10:18Z</time>
      </trkpt>
      <trkpt lat="45.62526" lon="6.44881">
        <ele>351.2</ele>
        <time>2021-06-01T09:10:19Z</time>
      </trkpt>
      <trkpt lat="45.62534" lon="6.44879">
        <ele>351.2</ele>
        <time>2021-06-01T09:10:20Z</time>
      </trkpt>
      <trkpt lat="45.62542" lon="6.44877">
        <ele>351</ele>
        <time>2021-06-01T09:10:21Z</time>
      </trkpt>
      <trkpt lat="45.62549" lon="6.44875">
        <ele>350</ele>
        <time>2021-06-01T09:10:22Z</time>
      </trkpt>
      <trkpt lat="45.62557" lon="6.44872">
        <ele>349.8</ele>
        <time>2021-06-01T09:10:23Z</time>
      </trkpt>
      <trkpt lat="45.62565" lon="6.44871">
        <ele>350</ele>
        <time>2021-06-01T09:10:24Z</time>
      </trkpt>
      <trkpt lat="45.62572" lon="6.44869">
        <ele>350</ele>
        <time>2021-06-01T09:10:25Z</time>
      </trkpt>
      <trkpt lat="45.6258" lon="6.44868">
        <ele>350</ele>
        <time>2021-06-01T09:10:26Z</time>
      </trkpt>
      <trkpt lat="45.62588" lon="6.44866">
        <ele>350</ele>
        <time>2021-06-01T09:10:27Z</time>
      </trkpt>
      <trkpt lat="45.62596" lon="6.44864">
        <ele>349.4</ele>
        <time>2021-06-01T09:10:28Z</time>
      </trkpt>
      <trkpt lat="45.62604" lon="6.44862">
        <ele>349.4</ele>
        <time>2021-06-01T09:10:29Z</time>
      </trkpt>
      <trkpt lat="45.62611" lon="6.4486">
        <ele>349.2</ele>
        <time>2021-06-01T09:10:30Z</time>
      </trkpt>
      <trkpt lat="45.62619" lon="6.44858">
        <ele>349</ele>
        <time>2021-06-01T09:10:31Z</time>
      </trkpt>
      <trkpt lat="45.62626" lon="6.44856">
        <ele>349</ele>
        <time>2021-06-01T09:10:32Z</time>
      </trkpt>
      <trkpt lat="45.62633" lon="6.44854">
        <ele>349</ele>
        <time>2021-06-01T09:10:33Z</time>
      </trkpt>
      <trkpt lat="45.6264" lon="6.44852">
        <ele>348.8</ele>
        <time>2021-06-01T09:10:34Z</time>
      </trkpt>
      <trkpt lat="45.62648" lon="6.4485">
        <ele>349.2</ele>
        <time>2021-06-01T09:10:35Z</time>
      </trkpt>
      <trkpt lat="45.62656" lon="6.44847">
        <ele>350.2</ele>
        <time>2021-06-01T09:10:36Z</time>
      </trkpt>
      <trkpt lat="45.62664" lon="6.44843">
        <ele>350.8</ele>
        <time>2021-06-01T09:10:37Z</time>
      </trkpt>
      <trkpt lat="45.62671" lon="6.44841">
        <ele>351</ele>
        <time>2021-06-01T09:10:38Z</time>
      </trkpt>
      <trkpt lat="45.62679" lon="6.44838">
        <ele>351.4</ele>
        <time>2021-06-01T09:10:39Z</time>
      </trkpt>
      <trkpt lat="45.62687" lon="6.44835">
        <ele>351.6</ele>
        <time>2021-06-01T09:10:40Z</time>
      </trkpt>
      <trkpt lat="45.62695" lon="6.44833">
        <ele>351.8</ele>
        <time>2021-06-01T09:10:41Z</time>
      </trkpt>
      <trkpt lat="45.62704" lon="6.4483">
        <ele>352</ele>
        <time>2021-06-01T09:10:42Z</time>
      </trkpt>
      <trkpt lat="45.62712" lon="6.44827">
        <ele>352</ele>
        <time>2021-06-01T09:10:43Z</time>
      </trkpt>
      <trkpt lat="45.6272" lon="6.44825">
        <ele>352.2</ele>
        <time>2021-06-01T09:10:44Z</time>
      </trkpt>
      <trkpt lat="45.62728" lon="6.44822">
        <ele>352.2</ele>
        <time>2021-06-01T09:10:45Z</time>
      </trkpt>
      <trkpt lat="45.62735" lon="6.44818">
        <ele>352.4</ele>
        <time>2021-06-01T09:10:46Z</time>
      </trkpt>
      <trkpt lat="45.62743" lon="6.44816">
        <ele>352.2</ele>
        <time>2021-06-01T09:10:47Z</time>
      </trkpt>
      <trkpt lat="45.62751" lon="6.44814">
        <ele>352</ele>
        <time>2021-06-01T09:10:48Z</time>
      </trkpt>
      <trkpt lat="45.62759" lon="6.44812">
        <ele>352.2</ele>
        <time>2021-06-01T09:10:49Z</time>
      </trkpt>
      <trkpt lat="45.62766" lon="6.44809">
        <ele>352.2</ele>
        <time>2021-06-01T09:10:50Z</time>
      </trkpt>
      <trkpt lat="45.62773" lon="6.44805">
        <ele>352</ele>
        <time>2021-06-01T09:10:51Z</time>
      </trkpt>
      <trkpt lat="45.62781" lon="6.44801">
        <ele>352.2</ele>
        <time>2021-06-01T09:10:52Z</time>
      </trkpt>
      <trkpt lat="45.62789" lon="6.44799">
        <ele>352</ele>
        <time>2021-06-01T09:10:53Z</time>
      </trkpt>
      <trkpt lat="45.62797" lon="6.44796">
        <ele>352</ele>
        <time>2021-06-01T09:10:54Z</time>
      </trkpt>
      <trkpt lat="45.62805" lon="6.44793">
        <ele>352.2</ele>
        <time>2021-06-01T09:10:55Z</time>
      </trkpt>
      <trkpt lat="45.62812" lon="6.44789">
        <ele>352</ele>
        <time>2021-06-01T09:10:56Z</time>
      </trkpt>
      <trkpt lat="45.6282" lon="6.44786">
        <ele>352.2</ele>
        <time>2021-06-01T09:10:57Z</time>
      </trkpt>
      <trkpt lat="45.62827" lon="6.44782">
        <ele>352.2</ele>
        <time>2021-06-01T09:10:58Z</time>
      </trkpt>
      <trkpt lat="45.62834" lon="6.44778">
        <ele>352.2</ele>
        <time>2021-06-01T09:10:59Z</time>
      </trkpt>
      <trkpt lat="45.62842" lon="6.44775">
        <ele>352.2</ele>
        <time>2021-06-01T09:11:00Z</time>
      </trkpt>
      <trkpt lat="45.62849" lon="6.44772">
        <ele>352.2</ele>
        <time>2021-06-01T09:11:01Z</time>
      </trkpt>
      <trkpt lat="45.62856" lon="6.44769">
        <ele>352</ele>
        <time>2021-06-01T09:11:02Z</time>
      </trkpt>
      <trkpt lat="45.62864" lon="6.44766">
        <ele>351.6</ele>
        <time>2021-06-01T09:11:03Z</time>
      </trkpt>
      <trkpt lat="45.62871" lon="6.44762">
        <ele>351.2</ele>
        <time>2021-06-01T09:11:04Z</time>
      </trkpt>
      <trkpt lat="45.62878" lon="6.44758">
        <ele>350.8</ele>
        <time>2021-06-01T09:11:05Z</time>
      </trkpt>
      <trkpt lat="45.62886" lon="6.44754">
        <ele>351</ele>
        <time>2021-06-01T09:11:06Z</time>
      </trkpt>
      <trkpt lat="45.62893" lon="6.44751">
        <ele>350.8</ele>
        <time>2021-06-01T09:11:07Z</time>
      </trkpt>
      <trkpt lat="45.629" lon="6.44749">
        <ele>351</ele>
        <time>2021-06-01T09:11:08Z</time>
      </trkpt>
      <trkpt lat="45.62908" lon="6.44747">
        <ele>351</ele>
        <time>2021-06-01T09:11:09Z</time>
      </trkpt>
      <trkpt lat="45.62916" lon="6.44744">
        <ele>351.2</ele>
        <time>2021-06-01T09:11:10Z</time>
      </trkpt>
      <trkpt lat="45.62923" lon="6.44742">
        <ele>351.6</ele>
        <time>2021-06-01T09:11:11Z</time>
      </trkpt>
      <trkpt lat="45.6293" lon="6.44741">
        <ele>351.4</ele>
        <time>2021-06-01T09:11:12Z</time>
      </trkpt>
      <trkpt lat="45.62938" lon="6.4474">
        <ele>351.4</ele>
        <time>2021-06-01T09:11:13Z</time>
      </trkpt>
      <trkpt lat="45.62946" lon="6.44738">
        <ele>351.2</ele>
        <time>2021-06-01T09:11:14Z</time>
      </trkpt>
      <trkpt lat="45.62954" lon="6.44737">
        <ele>351.6</ele>
        <time>2021-06-01T09:11:15Z</time>
      </trkpt>
      <trkpt lat="45.62961" lon="6.44735">
        <ele>351.6</ele>
        <time>2021-06-01T09:11:16Z</time>
      </trkpt>
      <trkpt lat="45.62968" lon="6.44734">
        <ele>351.4</ele>
        <time>2021-06-01T09:11:17Z</time>
      </trkpt>
      <trkpt lat="45.62976" lon="6.44732">
        <ele>351.6</ele>
        <time>2021-06-01T09:11:18Z</time>
      </trkpt>
      <trkpt lat="45.62983" lon="6.44731">
        <ele>352</ele>
        <time>2021-06-01T09:11:19Z</time>
      </trkpt>
      <trkpt lat="45.62991" lon="6.4473">
        <ele>352.2</ele>
        <time>2021-06-01T09:11:20Z</time>
      </trkpt>
      <trkpt lat="45.62998" lon="6.44729">
        <ele>352.6</ele>
        <time>2021-06-01T09:11:21Z</time>
      </trkpt>
      <trkpt lat="45.63005" lon="6.44727">
        <ele>352.4</ele>
        <time>2021-06-01T09:11:22Z</time>
      </trkpt>
      <trkpt lat="45.63013" lon="6.44726">
        <ele>352.2</ele>
        <time>2021-06-01T09:11:23Z</time>
      </trkpt>
      <trkpt lat="45.6302" lon="6.44725">
        <ele>352</ele>
        <time>2021-06-01T09:11:24Z</time>
      </trkpt>
      <trkpt lat="45.63027" lon="6.44723">
        <ele>352.2</ele>
        <time>2021-06-01T09:11:25Z</time>
      </trkpt>
      <trkpt lat="45.63035" lon="6.44722">
        <ele>352</ele>
        <time>2021-06-01T09:11:26Z</time>
      </trkpt>
      <trkpt lat="45.63043" lon="6.44721">
        <ele>351.8</ele>
        <time>2021-06-01T09:11:27Z</time>
      </trkpt>
      <trkpt lat="45.6305" lon="6.4472">
        <ele>350</ele>
        <time>2021-06-01T09:11:28Z</time>
      </trkpt>
      <trkpt lat="45.63057" lon="6.44718">
        <ele>349.8</ele>
        <time>2021-06-01T09:11:29Z</time>
      </trkpt>
      <trkpt lat="45.63064" lon="6.44716">
        <ele>349.8</ele>
        <time>2021-06-01T09:11:30Z</time>
      </trkpt>
      <trkpt lat="45.63072" lon="6.44715">
        <ele>350</ele>
        <time>2021-06-01T09:11:31Z</time>
      </trkpt>
      <trkpt lat="45.63079" lon="6.44713">
        <ele>350.4</ele>
        <time>2021-06-01T09:11:32Z</time>
      </trkpt>
      <trkpt lat="45.63085" lon="6.44711">
        <ele>350.4</ele>
        <time>2021-06-01T09:11:33Z</time>
      </trkpt>
      <trkpt lat="45.63093" lon="6.44708">
        <ele>350.4</ele>
        <time>2021-06-01T09:11:34Z</time>
      </trkpt>
      <trkpt lat="45.631" lon="6.44706">
        <ele>350.8</ele>
        <time>2021-06-01T09:11:35Z</time>
      </trkpt>
      <trkpt lat="45.63108" lon="6.44703">
        <ele>351</ele>
        <time>2021-06-01T09:11:36Z</time>
      </trkpt>
      <trkpt lat="45.63116" lon="6.447">
        <ele>351.2</ele>
        <time>2021-06-01T09:11:37Z</time>
      </trkpt>
      <trkpt lat="45.63123" lon="6.44698">
        <ele>351.2</ele>
        <time>2021-06-01T09:11:38Z</time>
      </trkpt>
      <trkpt lat="45.63131" lon="6.44696">
        <ele>351</ele>
        <time>2021-06-01T09:11:39Z</time>
      </trkpt>
      <trkpt lat="45.63139" lon="6.44694">
        <ele>350.8</ele>
        <time>2021-06-01T09:11:40Z</time>
      </trkpt>
      <trkpt lat="45.63146" lon="6.4469">
        <ele>350.6</ele>
        <time>2021-06-01T09:11:41Z</time>
      </trkpt>
      <trkpt lat="45.63153" lon="6.44688">
        <ele>350.8</ele>
        <time>2021-06-01T09:11:42Z</time>
      </trkpt>
      <trkpt lat="45.6316" lon="6.44687">
        <ele>350.6</ele>
        <time>2021-06-01T09:11:43Z</time>
      </trkpt>
      <trkpt lat="45.63168" lon="6.44685">
        <ele>350.8</ele>
        <time>2021-06-01T09:11:44Z</time>
      </trkpt>
      <trkpt lat="45.63175" lon="6.44684">
        <ele>351</ele>
        <time>2021-06-01T09:11:45Z</time>
      </trkpt>
      <trkpt lat="45.63183" lon="6.44684">
        <ele>351</ele>
        <time>2021-06-01T09:11:46Z</time>
      </trkpt>
      <trkpt lat="45.63191" lon="6.44685">
        <ele>351.2</ele>
        <time>2021-06-01T09:11:47Z</time>
      </trkpt>
      <trkpt lat="45.63199" lon="6.44686">
        <ele>350.8</ele>
        <time>2021-06-01T09:11:48Z</time>
      </trkpt>
      <trkpt lat="45.63207" lon="6.44686">
        <ele>350.6</ele>
        <time>2021-06-01T09:11:49Z</time>
      </trkpt>
      <trkpt lat="45.63214" lon="6.44686">
        <ele>350.8</ele>
        <time>2021-06-01T09:11:50Z</time>
      </trkpt>
      <trkpt lat="45.63222" lon="6.44686">
        <ele>350.8</ele>
        <time>2021-06-01T09:11:51Z</time>
      </trkpt>
      <trkpt lat="45.6323" lon="6.44685">
        <ele>351</ele>
        <time>2021-06-01T09:11:52Z</time>
      </trkpt>
      <trkpt lat="45.63236" lon="6.44684">
        <ele>351.2</ele>
        <time>2021-06-01T09:11:53Z</time>
      </trkpt>
      <trkpt lat="45.63244" lon="6.44682">
        <ele>351.2</ele>
        <time>2021-06-01T09:11:54Z</time>
      </trkpt>
      <trkpt lat="45.63251" lon="6.44681">
        <ele>351</ele>
        <time>2021-06-01T09:11:55Z</time>
      </trkpt>
      <trkpt lat="45.63259" lon="6.4468">
        <ele>350.8</ele>
        <time>2021-06-01T09:11:56Z</time>
      </trkpt>
      <trkpt lat="45.63266" lon="6.4468">
        <ele>351.8</ele>
        <time>2021-06-01T09:11:57Z</time>
      </trkpt>
      <trkpt lat="45.63274" lon="6.44679">
        <ele>351.6</ele>
        <time>2021-06-01T09:11:58Z</time>
      </trkpt>
      <trkpt lat="45.63281" lon="6.44678">
        <ele>350.8</ele>
        <time>2021-06-01T09:11:59Z</time>
      </trkpt>
      <trkpt lat="45.63287" lon="6.44676">
        <ele>350.4</ele>
        <time>2021-06-01T09:12:00Z</time>
      </trkpt>
      <trkpt lat="45.63293" lon="6.44674">
        <ele>350.2</ele>
        <time>2021-06-01T09:12:01Z</time>
      </trkpt>
      <trkpt lat="45.633" lon="6.44673">
        <ele>349.8</ele>
        <time>2021-06-01T09:12:02Z</time>
      </trkpt>
      <trkpt lat="45.63305" lon="6.44671">
        <ele>349.6</ele>
        <time>2021-06-01T09:12:03Z</time>
      </trkpt>
      <trkpt lat="45.6331" lon="6.44669">
        <ele>349.4</ele>
        <time>2021-06-01T09:12:04Z</time>
      </trkpt>
      <trkpt lat="45.63316" lon="6.44667">
        <ele>349.2</ele>
        <time>2021-06-01T09:12:05Z</time>
      </trkpt>
      <trkpt lat="45.6332" lon="6.44665">
        <ele>349</ele>
        <time>2021-06-01T09:12:06Z</time>
      </trkpt>
      <trkpt lat="45.63324" lon="6.44663">
        <ele>348.6</ele>
        <time>2021-06-01T09:12:07Z</time>
      </trkpt>
      <trkpt lat="45.63328" lon="6.44661">
        <ele>348.6</ele>
        <time>2021-06-01T09:12:08Z</time>
      </trkpt>
      <trkpt lat="45.63332" lon="6.44659">
        <ele>348.8</ele>
        <time>2021-06-01T09:12:09Z</time>
      </trkpt>
      <trkpt lat="45.63336" lon="6.44657">
        <ele>348.6</ele>
        <time>2021-06-01T09:12:10Z</time>
      </trkpt>
      <trkpt lat="45.6334" lon="6.44656">
        <ele>348.4</ele>
        <time>2021-06-01T09:12:11Z</time>
      </trkpt>
      <trkpt lat="45.63345" lon="6.44653">
        <ele>348.4</ele>
        <time>2021-06-01T09:12:12Z</time>
      </trkpt>
      <trkpt lat="45.63349" lon="6.4465">
        <ele>348.4</ele>
        <time>2021-06-01T09:12:13Z</time>
      </trkpt>
      <trkpt lat="45.63353" lon="6.44647">
        <ele>348.4</ele>
        <time>2021-06-01T09:12:14Z</time>
      </trkpt>
      <trkpt lat="45.63357" lon="6.44644">
        <ele>348.4</ele>
        <time>2021-06-01T09:12:15Z</time>
      </trkpt>
      <trkpt lat="45.63363" lon="6.44641">
        <ele>348.4</ele>
        <time>2021-06-01T09:12:16Z</time>
      </trkpt>
      <trkpt lat="45.63368" lon="6.44639">
        <ele>348.4</ele>
        <time>2021-06-01T09:12:17Z</time>
      </trkpt>
      <trkpt lat="45.63373" lon="6.44635">
        <ele>348.4</ele>
        <time>2021-06-01T09:12:18Z</time>
      </trkpt>
      <trkpt lat="45.63379" lon="6.44631">
        <ele>348.6</ele>
        <time>2021-06-01T09:12:19Z</time>
      </trkpt>
      <trkpt lat="45.63385" lon="6.44627">
        <ele>348.4</ele>
        <time>2021-06-01T09:12:20Z</time>
      </trkpt>
      <trkpt lat="45.63391" lon="6.44623">
        <ele>347.6</ele>
        <time>2021-06-01T09:12:21Z</time>
      </trkpt>
      <trkpt lat="45.63398" lon="6.4462">
        <ele>347.2</ele>
        <time>2021-06-01T09:12:22Z</time>
      </trkpt>
      <trkpt lat="45.63403" lon="6.44616">
        <ele>347.4</ele>
        <time>2021-06-01T09:12:23Z</time>
      </trkpt>
      <trkpt lat="45.6341" lon="6.44611">
        <ele>348</ele>
        <time>2021-06-01T09:12:24Z</time>
      </trkpt>
      <trkpt lat="45.63416" lon="6.44607">
        <ele>348</ele>
        <time>2021-06-01T09:12:25Z</time>
      </trkpt>
      <trkpt lat="45.63423" lon="6.44603">
        <ele>348.4</ele>
        <time>2021-06-01T09:12:26Z</time>
      </trkpt>
      <trkpt lat="45.6343" lon="6.44599">
        <ele>348.6</ele>
        <time>2021-06-01T09:12:27Z</time>
      </trkpt>
      <trkpt lat="45.63437" lon="6.44595">
        <ele>348.8</ele>
        <time>2021-06-01T09:12:28Z</time>
      </trkpt>
      <trkpt lat="45.63444" lon="6.44591">
        <ele>349</ele>
        <time>2021-06-01T09:12:29Z</time>
      </trkpt>
      <trkpt lat="45.63451" lon="6.44587">
        <ele>349.4</ele>
        <time>2021-06-01T09:12:30Z</time>
      </trkpt>
      <trkpt lat="45.63458" lon="6.44582">
        <ele>349.2</ele>
        <time>2021-06-01T09:12:31Z</time>
      </trkpt>
      <trkpt lat="45.63465" lon="6.44577">
        <ele>349.2</ele>
        <time>2021-06-01T09:12:32Z</time>
      </trkpt>
      <trkpt lat="45.63472" lon="6.44572">
        <ele>349.6</ele>
        <time>2021-06-01T09:12:33Z</time>
      </trkpt>
      <trkpt lat="45.63479" lon="6.44568">
        <ele>349.6</ele>
        <time>2021-06-01T09:12:34Z</time>
      </trkpt>
      <trkpt lat="45.63486" lon="6.44564">
        <ele>349.6</ele>
        <time>2021-06-01T09:12:35Z</time>
      </trkpt>
      <trkpt lat="45.63494" lon="6.4456">
        <ele>349.6</ele>
        <time>2021-06-01T09:12:36Z</time>
      </trkpt>
      <trkpt lat="45.63501" lon="6.44555">
        <ele>349.4</ele>
        <time>2021-06-01T09:12:37Z</time>
      </trkpt>
      <trkpt lat="45.63508" lon="6.4455">
        <ele>349.4</ele>
        <time>2021-06-01T09:12:38Z</time>
      </trkpt>
      <trkpt lat="45.63516" lon="6.44546">
        <ele>349.4</ele>
        <time>2021-06-01T09:12:39Z</time>
      </trkpt>
      <trkpt lat="45.63522" lon="6.4454">
        <ele>349.6</ele>
        <time>2021-06-01T09:12:40Z</time>
      </trkpt>
      <trkpt lat="45.63529" lon="6.44535">
        <ele>349.6</ele>
        <time>2021-06-01T09:12:41Z</time>
      </trkpt>
      <trkpt lat="45.63536" lon="6.4453">
        <ele>349.6</ele>
        <time>2021-06-01T09:12:42Z</time>
      </trkpt>
      <trkpt lat="45.63544" lon="6.44525">
        <ele>349.6</ele>
        <time>2021-06-01T09:12:43Z</time>
      </trkpt>
      <trkpt lat="45.63551" lon="6.4452">
        <ele>349.4</ele>
        <time>2021-06-01T09:12:44Z</time>
      </trkpt>
      <trkpt lat="45.63558" lon="6.44515">
        <ele>349.4</ele>
        <time>2021-06-01T09:12:45Z</time>
      </trkpt>
      <trkpt lat="45.63566" lon="6.44511">
        <ele>349.8</ele>
        <time>2021-06-01T09:12:46Z</time>
      </trkpt>
      <trkpt lat="45.63574" lon="6.44506">
        <ele>349.6</ele>
        <time>2021-06-01T09:12:47Z</time>
      </trkpt>
      <trkpt lat="45.63582" lon="6.44501">
        <ele>349.6</ele>
        <time>2021-06-01T09:12:48Z</time>
      </trkpt>
      <trkpt lat="45.63589" lon="6.44496">
        <ele>349.4</ele>
        <time>2021-06-01T09:12:49Z</time>
      </trkpt>
      <trkpt lat="45.63596" lon="6.44491">
        <ele>349.6</ele>
        <time>2021-06-01T09:12:50Z</time>
      </trkpt>
      <trkpt lat="45.63604" lon="6.44487">
        <ele>349.4</ele>
        <time>2021-06-01T09:12:51Z</time>
      </trkpt>
      <trkpt lat="45.63612" lon="6.44483">
        <ele>349.2</ele>
        <time>2021-06-01T09:12:52Z</time>
      </trkpt>
      <trkpt lat="45.63619" lon="6.44477">
        <ele>349.2</ele>
        <time>2021-06-01T09:12:53Z</time>
      </trkpt>
      <trkpt lat="45.63626" lon="6.44472">
        <ele>349</ele>
        <time>2021-06-01T09:12:54Z</time>
      </trkpt>
      <trkpt lat="45.63633" lon="6.44467">
        <ele>348.6</ele>
        <time>2021-06-01T09:12:55Z</time>
      </trkpt>
      <trkpt lat="45.63639" lon="6.44461">
        <ele>348.6</ele>
        <time>2021-06-01T09:12:56Z</time>
      </trkpt>
      <trkpt lat="45.63646" lon="6.44457">
        <ele>349</ele>
        <time>2021-06-01T09:12:57Z</time>
      </trkpt>
      <trkpt lat="45.63653" lon="6.44452">
        <ele>349</ele>
        <time>2021-06-01T09:12:58Z</time>
      </trkpt>
      <trkpt lat="45.6366" lon="6.44447">
        <ele>349.2</ele>
        <time>2021-06-01T09:12:59Z</time>
      </trkpt>
      <trkpt lat="45.63667" lon="6.44442">
        <ele>349.4</ele>
        <time>2021-06-01T09:13:00Z</time>
      </trkpt>
      <trkpt lat="45.63674" lon="6.44438">
        <ele>349.4</ele>
        <time>2021-06-01T09:13:01Z</time>
      </trkpt>
      <trkpt lat="45.6368" lon="6.44432">
        <ele>349.4</ele>
        <time>2021-06-01T09:13:02Z</time>
      </trkpt>
      <trkpt lat="45.63686" lon="6.44428">
        <ele>349</ele>
        <time>2021-06-01T09:13:03Z</time>
      </trkpt>
      <trkpt lat="45.63693" lon="6.44423">
        <ele>349</ele>
        <time>2021-06-01T09:13:04Z</time>
      </trkpt>
      <trkpt lat="45.637" lon="6.44419">
        <ele>349</ele>
        <time>2021-06-01T09:13:05Z</time>
      </trkpt>
      <trkpt lat="45.63707" lon="6.44415">
        <ele>348.6</ele>
        <time>2021-06-01T09:13:06Z</time>
      </trkpt>
      <trkpt lat="45.63714" lon="6.4441">
        <ele>348</ele>
        <time>2021-06-01T09:13:07Z</time>
      </trkpt>
      <trkpt lat="45.6372" lon="6.44406">
        <ele>347.2</ele>
        <time>2021-06-01T09:13:08Z</time>
      </trkpt>
      <trkpt lat="45.63727" lon="6.44402">
        <ele>346.4</ele>
        <time>2021-06-01T09:13:09Z</time>
      </trkpt>
      <trkpt lat="45.63733" lon="6.44397">
        <ele>346</ele>
        <time>2021-06-01T09:13:10Z</time>
      </trkpt>
      <trkpt lat="45.63739" lon="6.44392">
        <ele>345.6</ele>
        <time>2021-06-01T09:13:11Z</time>
      </trkpt>
      <trkpt lat="45.63744" lon="6.44387">
        <ele>345.8</ele>
        <time>2021-06-01T09:13:12Z</time>
      </trkpt>
      <trkpt lat="45.63751" lon="6.44382">
        <ele>345.4</ele>
        <time>2021-06-01T09:13:13Z</time>
      </trkpt>
      <trkpt lat="45.63757" lon="6.44377">
        <ele>345.2</ele>
        <time>2021-06-01T09:13:14Z</time>
      </trkpt>
      <trkpt lat="45.63764" lon="6.44372">
        <ele>345</ele>
        <time>2021-06-01T09:13:15Z</time>
      </trkpt>
      <trkpt lat="45.63772" lon="6.44368">
        <ele>344.8</ele>
        <time>2021-06-01T09:13:16Z</time>
      </trkpt>
      <trkpt lat="45.6378" lon="6.44363">
        <ele>344.6</ele>
        <time>2021-06-01T09:13:17Z</time>
      </trkpt>
      <trkpt lat="45.63787" lon="6.44358">
        <ele>344.8</ele>
        <time>2021-06-01T09:13:18Z</time>
      </trkpt>
      <trkpt lat="45.63795" lon="6.44353">
        <ele>344.8</ele>
        <time>2021-06-01T09:13:19Z</time>
      </trkpt>
      <trkpt lat="45.63802" lon="6.44349">
        <ele>345.2</ele>
        <time>2021-06-01T09:13:20Z</time>
      </trkpt>
      <trkpt lat="45.63809" lon="6.44344">
        <ele>345.6</ele>
        <time>2021-06-01T09:13:21Z</time>
      </trkpt>
      <trkpt lat="45.63815" lon="6.44339">
        <ele>345.8</ele>
        <time>2021-06-01T09:13:22Z</time>
      </trkpt>
      <trkpt lat="45.63822" lon="6.44334">
        <ele>346.4</ele>
        <time>2021-06-01T09:13:23Z</time>
      </trkpt>
      <trkpt lat="45.63829" lon="6.4433">
        <ele>346.6</ele>
        <time>2021-06-01T09:13:24Z</time>
      </trkpt>
      <trkpt lat="45.63836" lon="6.44325">
        <ele>346.4</ele>
        <time>2021-06-01T09:13:25Z</time>
      </trkpt>
      <trkpt lat="45.63842" lon="6.44321">
        <ele>346.2</ele>
        <time>2021-06-01T09:13:26Z</time>
      </trkpt>
      <trkpt lat="45.63851" lon="6.44318">
        <ele>346</ele>
        <time>2021-06-01T09:13:27Z</time>
      </trkpt>
      <trkpt lat="45.63858" lon="6.44314">
        <ele>346.4</ele>
        <time>2021-06-01T09:13:28Z</time>
      </trkpt>
      <trkpt lat="45.63863" lon="6.4431">
        <ele>346.6</ele>
        <time>2021-06-01T09:13:29Z</time>
      </trkpt>
      <trkpt lat="45.63868" lon="6.44306">
        <ele>346.8</ele>
        <time>2021-06-01T09:13:30Z</time>
      </trkpt>
      <trkpt lat="45.63873" lon="6.44303">
        <ele>347</ele>
        <time>2021-06-01T09:13:31Z</time>
      </trkpt>
      <trkpt lat="45.63879" lon="6.44298">
        <ele>347.2</ele>
        <time>2021-06-01T09:13:32Z</time>
      </trkpt>
      <trkpt lat="45.63884" lon="6.44294">
        <ele>347.6</ele>
        <time>2021-06-01T09:13:33Z</time>
      </trkpt>
      <trkpt lat="45.6389" lon="6.4429">
        <ele>347.2</ele>
        <time>2021-06-01T09:13:34Z</time>
      </trkpt>
      <trkpt lat="45.63895" lon="6.44286">
        <ele>347.8</ele>
        <time>2021-06-01T09:13:35Z</time>
      </trkpt>
      <trkpt lat="45.63901" lon="6.44283">
        <ele>348.2</ele>
        <time>2021-06-01T09:13:36Z</time>
      </trkpt>
      <trkpt lat="45.63908" lon="6.4428">
        <ele>348.2</ele>
        <time>2021-06-01T09:13:37Z</time>
      </trkpt>
      <trkpt lat="45.63914" lon="6.44277">
        <ele>348.6</ele>
        <time>2021-06-01T09:13:38Z</time>
      </trkpt>
      <trkpt lat="45.6392" lon="6.44274">
        <ele>349</ele>
        <time>2021-06-01T09:13:39Z</time>
      </trkpt>
      <trkpt lat="45.63927" lon="6.44272">
        <ele>349.4</ele>
        <time>2021-06-01T09:13:40Z</time>
      </trkpt>
      <trkpt lat="45.63934" lon="6.4427">
        <ele>349.4</ele>
        <time>2021-06-01T09:13:41Z</time>
      </trkpt>
      <trkpt lat="45.63941" lon="6.44269">
        <ele>349.4</ele>
        <time>2021-06-01T09:13:42Z</time>
      </trkpt>
      <trkpt lat="45.63949" lon="6.44267">
        <ele>349.4</ele>
        <time>2021-06-01T09:13:43Z</time>
      </trkpt>
      <trkpt lat="45.63957" lon="6.44266">
        <ele>349.4</ele>
        <time>2021-06-01T09:13:44Z</time>
      </trkpt>
      <trkpt lat="45.63964" lon="6.44264">
        <ele>349.2</ele>
        <time>2021-06-01T09:13:45Z</time>
      </trkpt>
      <trkpt lat="45.63972" lon="6.44262">
        <ele>349.2</ele>
        <time>2021-06-01T09:13:46Z</time>
      </trkpt>
      <trkpt lat="45.6398" lon="6.4426">
        <ele>348.8</ele>
        <time>2021-06-01T09:13:47Z</time>
      </trkpt>
      <trkpt lat="45.63988" lon="6.44258">
        <ele>348.4</ele>
        <time>2021-06-01T09:13:48Z</time>
      </trkpt>
      <trkpt lat="45.63997" lon="6.44255">
        <ele>348.2</ele>
        <time>2021-06-01T09:13:49Z</time>
      </trkpt>
      <trkpt lat="45.64006" lon="6.44253">
        <ele>348</ele>
        <time>2021-06-01T09:13:50Z</time>
      </trkpt>
      <trkpt lat="45.64014" lon="6.44252">
        <ele>348</ele>
        <time>2021-06-01T09:13:51Z</time>
      </trkpt>
      <trkpt lat="45.64024" lon="6.4425">
        <ele>347.8</ele>
        <time>2021-06-01T09:13:52Z</time>
      </trkpt>
      <trkpt lat="45.64032" lon="6.44247">
        <ele>347.4</ele>
        <time>2021-06-01T09:13:53Z</time>
      </trkpt>
      <trkpt lat="45.64041" lon="6.44245">
        <ele>347.4</ele>
        <time>2021-06-01T09:13:54Z</time>
      </trkpt>
      <trkpt lat="45.6405" lon="6.44243">
        <ele>347.6</ele>
        <time>2021-06-01T09:13:55Z</time>
      </trkpt>
      <trkpt lat="45.64059" lon="6.4424">
        <ele>347.6</ele>
        <time>2021-06-01T09:13:56Z</time>
      </trkpt>
      <trkpt lat="45.64068" lon="6.44238">
        <ele>347.6</ele>
        <time>2021-06-01T09:13:57Z</time>
      </trkpt>
      <trkpt lat="45.64076" lon="6.44236">
        <ele>347.8</ele>
        <time>2021-06-01T09:13:58Z</time>
      </trkpt>
      <trkpt lat="45.64085" lon="6.44234">
        <ele>348</ele>
        <time>2021-06-01T09:13:59Z</time>
      </trkpt>
      <trkpt lat="45.64094" lon="6.44231">
        <ele>347.4</ele>
        <time>2021-06-01T09:14:00Z</time>
      </trkpt>
      <trkpt lat="45.64102" lon="6.44229">
        <ele>347.6</ele>
        <time>2021-06-01T09:14:01Z</time>
      </trkpt>
      <trkpt lat="45.64111" lon="6.44226">
        <ele>347.6</ele>
        <time>2021-06-01T09:14:02Z</time>
      </trkpt>
      <trkpt lat="45.64119" lon="6.44224">
        <ele>347.6</ele>
        <time>2021-06-01T09:14:03Z</time>
      </trkpt>
      <trkpt lat="45.64128" lon="6.44222">
        <ele>347.4</ele>
        <time>2021-06-01T09:14:04Z</time>
      </trkpt>
      <trkpt lat="45.64137" lon="6.44219">
        <ele>347.6</ele>
        <time>2021-06-01T09:14:05Z</time>
      </trkpt>
      <trkpt lat="45.64145" lon="6.44217">
        <ele>347.6</ele>
        <time>2021-06-01T09:14:06Z</time>
      </trkpt>
      <trkpt lat="45.64153" lon="6.44215">
        <ele>347.8</ele>
        <time>2021-06-01T09:14:07Z</time>
      </trkpt>
      <trkpt lat="45.64162" lon="6.44213">
        <ele>348</ele>
        <time>2021-06-01T09:14:08Z</time>
      </trkpt>
      <trkpt lat="45.6417" lon="6.44211">
        <ele>348</ele>
        <time>2021-06-01T09:14:09Z</time>
      </trkpt>
      <trkpt lat="45.64179" lon="6.44208">
        <ele>347.6</ele>
        <time>2021-06-01T09:14:10Z</time>
      </trkpt>
      <trkpt lat="45.64187" lon="6.44206">
        <ele>347.8</ele>
        <time>2021-06-01T09:14:11Z</time>
      </trkpt>
      <trkpt lat="45.64195" lon="6.44204">
        <ele>347.4</ele>
        <time>2021-06-01T09:14:12Z</time>
      </trkpt>
      <trkpt lat="45.64203" lon="6.44202">
        <ele>347.2</ele>
        <time>2021-06-01T09:14:13Z</time>
      </trkpt>
      <trkpt lat="45.64211" lon="6.442">
        <ele>347.6</ele>
        <time>2021-06-01T09:14:14Z</time>
      </trkpt>
      <trkpt lat="45.6422" lon="6.44198">
        <ele>347.6</ele>
        <time>2021-06-01T09:14:15Z</time>
      </trkpt>
      <trkpt lat="45.64228" lon="6.44195">
        <ele>347.4</ele>
        <time>2021-06-01T09:14:16Z</time>
      </trkpt>
      <trkpt lat="45.64236" lon="6.44193">
        <ele>347</ele>
        <time>2021-06-01T09:14:17Z</time>
      </trkpt>
      <trkpt lat="45.64244" lon="6.4419">
        <ele>346.8</ele>
        <time>2021-06-01T09:14:18Z</time>
      </trkpt>
      <trkpt lat="45.64252" lon="6.44188">
        <ele>346.4</ele>
        <time>2021-06-01T09:14:19Z</time>
      </trkpt>
      <trkpt lat="45.6426" lon="6.44185">
        <ele>346.2</ele>
        <time>2021-06-01T09:14:20Z</time>
      </trkpt>
      <trkpt lat="45.64269" lon="6.44183">
        <ele>346</ele>
        <time>2021-06-01T09:14:21Z</time>
      </trkpt>
      <trkpt lat="45.64278" lon="6.4418">
        <ele>345.8</ele>
        <time>2021-06-01T09:14:22Z</time>
      </trkpt>
      <trkpt lat="45.64286" lon="6.44178">
        <ele>346</ele>
        <time>2021-06-01T09:14:23Z</time>
      </trkpt>
      <trkpt lat="45.64295" lon="6.44176">
        <ele>346.2</ele>
        <time>2021-06-01T09:14:24Z</time>
      </trkpt>
      <trkpt lat="45.64303" lon="6.44173">
        <ele>346</ele>
        <time>2021-06-01T09:14:25Z</time>
      </trkpt>
      <trkpt lat="45.64312" lon="6.44171">
        <ele>345.8</ele>
        <time>2021-06-01T09:14:26Z</time>
      </trkpt>
      <trkpt lat="45.6432" lon="6.44169">
        <ele>345.6</ele>
        <time>2021-06-01T09:14:27Z</time>
      </trkpt>
      <trkpt lat="45.64329" lon="6.44167">
        <ele>345.6</ele>
        <time>2021-06-01T09:14:28Z</time>
      </trkpt>
      <trkpt lat="45.64337" lon="6.44165">
        <ele>345.6</ele>
        <time>2021-06-01T09:14:29Z</time>
      </trkpt>
      <trkpt lat="45.64346" lon="6.44162">
        <ele>345.6</ele>
        <time>2021-06-01T09:14:30Z</time>
      </trkpt>
      <trkpt lat="45.64354" lon="6.4416">
        <ele>345.4</ele>
        <time>2021-06-01T09:14:31Z</time>
      </trkpt>
      <trkpt lat="45.64362" lon="6.44158">
        <ele>345.2</ele>
        <time>2021-06-01T09:14:32Z</time>
      </trkpt>
      <trkpt lat="45.64371" lon="6.44156">
        <ele>345.2</ele>
        <time>2021-06-01T09:14:33Z</time>
      </trkpt>
      <trkpt lat="45.64379" lon="6.44153">
        <ele>345.2</ele>
        <time>2021-06-01T09:14:34Z</time>
      </trkpt>
      <trkpt lat="45.64388" lon="6.44151">
        <ele>345</ele>
        <time>2021-06-01T09:14:35Z</time>
      </trkpt>
      <trkpt lat="45.64396" lon="6.44149">
        <ele>345</ele>
        <time>2021-06-01T09:14:36Z</time>
      </trkpt>
      <trkpt lat="45.64404" lon="6.44147">
        <ele>344.8</ele>
        <time>2021-06-01T09:14:37Z</time>
      </trkpt>
      <trkpt lat="45.64413" lon="6.44146">
        <ele>344.8</ele>
        <time>2021-06-01T09:14:38Z</time>
      </trkpt>
      <trkpt lat="45.64422" lon="6.44144">
        <ele>344.8</ele>
        <time>2021-06-01T09:14:39Z</time>
      </trkpt>
      <trkpt lat="45.6443" lon="6.44142">
        <ele>344.8</ele>
        <time>2021-06-01T09:14:40Z</time>
      </trkpt>
      <trkpt lat="45.64438" lon="6.44139">
        <ele>344.8</ele>
        <time>2021-06-01T09:14:41Z</time>
      </trkpt>
      <trkpt lat="45.64447" lon="6.44137">
        <ele>344.8</ele>
        <time>2021-06-01T09:14:42Z</time>
      </trkpt>
      <trkpt lat="45.64455" lon="6.44135">
        <ele>344.6</ele>
        <time>2021-06-01T09:14:43Z</time>
      </trkpt>
      <trkpt lat="45.64463" lon="6.44133">
        <ele>344.6</ele>
        <time>2021-06-01T09:14:44Z</time>
      </trkpt>
      <trkpt lat="45.64471" lon="6.44131">
        <ele>344.4</ele>
        <time>2021-06-01T09:14:45Z</time>
      </trkpt>
      <trkpt lat="45.6448" lon="6.44129">
        <ele>344.2</ele>
        <time>2021-06-01T09:14:46Z</time>
      </trkpt>
      <trkpt lat="45.64489" lon="6.44128">
        <ele>344</ele>
        <time>2021-06-01T09:14:47Z</time>
      </trkpt>
      <trkpt lat="45.64497" lon="6.44125">
        <ele>343.8</ele>
        <time>2021-06-01T09:14:48Z</time>
      </trkpt>
      <trkpt lat="45.64505" lon="6.44122">
        <ele>344</ele>
        <time>2021-06-01T09:14:49Z</time>
      </trkpt>
      <trkpt lat="45.64513" lon="6.4412">
        <ele>343.6</ele>
        <time>2021-06-01T09:14:50Z</time>
      </trkpt>
      <trkpt lat="45.64522" lon="6.44119">
        <ele>343.8</ele>
        <time>2021-06-01T09:14:51Z</time>
      </trkpt>
      <trkpt lat="45.6453" lon="6.44117">
        <ele>343.8</ele>
        <time>2021-06-01T09:14:52Z</time>
      </trkpt>
      <trkpt lat="45.64538" lon="6.44115">
        <ele>343.8</ele>
        <time>2021-06-01T09:14:53Z</time>
      </trkpt>
      <trkpt lat="45.64547" lon="6.44114">
        <ele>343.8</ele>
        <time>2021-06-01T09:14:54Z</time>
      </trkpt>
      <trkpt lat="45.64555" lon="6.44112">
        <ele>343.4</ele>
        <time>2021-06-01T09:14:55Z</time>
      </trkpt>
      <trkpt lat="45.64563" lon="6.44111">
        <ele>343.2</ele>
        <time>2021-06-01T09:14:56Z</time>
      </trkpt>
      <trkpt lat="45.6457" lon="6.44109">
        <ele>343.2</ele>
        <time>2021-06-01T09:14:57Z</time>
      </trkpt>
      <trkpt lat="45.64578" lon="6.44107">
        <ele>343.2</ele>
        <time>2021-06-01T09:14:58Z</time>
      </trkpt>
      <trkpt lat="45.64586" lon="6.44105">
        <ele>343</ele>
        <time>2021-06-01T09:14:59Z</time>
      </trkpt>
      <trkpt lat="45.64594" lon="6.44103">
        <ele>343</ele>
        <time>2021-06-01T09:15:00Z</time>
      </trkpt>
      <trkpt lat="45.64601" lon="6.44102">
        <ele>343</ele>
        <time>2021-06-01T09:15:01Z</time>
      </trkpt>
      <trkpt lat="45.64608" lon="6.441">
        <ele>343</ele>
        <time>2021-06-01T09:15:02Z</time>
      </trkpt>
      <trkpt lat="45.64616" lon="6.44098">
        <ele>343.2</ele>
        <time>2021-06-01T09:15:03Z</time>
      </trkpt>
      <trkpt lat="45.64623" lon="6.44097">
        <ele>343.4</ele>
        <time>2021-06-01T09:15:04Z</time>
      </trkpt>
      <trkpt lat="45.6463" lon="6.44096">
        <ele>343.6</ele>
        <time>2021-06-01T09:15:05Z</time>
      </trkpt>
      <trkpt lat="45.64638" lon="6.44094">
        <ele>343.6</ele>
        <time>2021-06-01T09:15:06Z</time>
      </trkpt>
      <trkpt lat="45.64645" lon="6.44093">
        <ele>344</ele>
        <time>2021-06-01T09:15:07Z</time>
      </trkpt>
      <trkpt lat="45.64652" lon="6.44092">
        <ele>344</ele>
        <time>2021-06-01T09:15:08Z</time>
      </trkpt>
      <trkpt lat="45.6466" lon="6.4409">
        <ele>344.2</ele>
        <time>2021-06-01T09:15:09Z</time>
      </trkpt>
      <trkpt lat="45.64667" lon="6.44089">
        <ele>344.4</ele>
        <time>2021-06-01T09:15:10Z</time>
      </trkpt>
      <trkpt lat="45.64674" lon="6.44087">
        <ele>344.4</ele>
        <time>2021-06-01T09:15:11Z</time>
      </trkpt>
      <trkpt lat="45.64681" lon="6.44086">
        <ele>344.2</ele>
        <time>2021-06-01T09:15:12Z</time>
      </trkpt>
      <trkpt lat="45.64688" lon="6.44084">
        <ele>344.2</ele>
        <time>2021-06-01T09:15:13Z</time>
      </trkpt>
      <trkpt lat="45.64695" lon="6.44083">
        <ele>344.2</ele>
        <time>2021-06-01T09:15:14Z</time>
      </trkpt>
      <trkpt lat="45.64702" lon="6.44081">
        <ele>344.6</ele>
        <time>2021-06-01T09:15:15Z</time>
      </trkpt>
      <trkpt lat="45.64709" lon="6.4408">
        <ele>344.6</ele>
        <time>2021-06-01T09:15:16Z</time>
      </trkpt>
      <trkpt lat="45.64716" lon="6.44078">
        <ele>344.8</ele>
        <time>2021-06-01T09:15:17Z</time>
      </trkpt>
      <trkpt lat="45.64723" lon="6.44077">
        <ele>345</ele>
        <time>2021-06-01T09:15:18Z</time>
      </trkpt>
      <trkpt lat="45.6473" lon="6.44075">
        <ele>345.4</ele>
        <time>2021-06-01T09:15:19Z</time>
      </trkpt>
      <trkpt lat="45.64737" lon="6.44073">
        <ele>345.8</ele>
        <time>2021-06-01T09:15:20Z</time>
      </trkpt>
      <trkpt lat="45.64745" lon="6.44072">
        <ele>346</ele>
        <time>2021-06-01T09:15:21Z</time>
      </trkpt>
      <trkpt lat="45.64752" lon="6.4407">
        <ele>346.2</ele>
        <time>2021-06-01T09:15:22Z</time>
      </trkpt>
      <trkpt lat="45.64759" lon="6.44069">
        <ele>346.8</ele>
        <time>2021-06-01T09:15:23Z</time>
      </trkpt>
      <trkpt lat="45.64766" lon="6.44068">
        <ele>346.8</ele>
        <time>2021-06-01T09:15:24Z</time>
      </trkpt>
      <trkpt lat="45.64773" lon="6.44067">
        <ele>346.6</ele>
        <time>2021-06-01T09:15:25Z</time>
      </trkpt>
      <trkpt lat="45.6478" lon="6.44066">
        <ele>347.2</ele>
        <time>2021-06-01T09:15:26Z</time>
      </trkpt>
      <trkpt lat="45.64787" lon="6.44064">
        <ele>347</ele>
        <time>2021-06-01T09:15:27Z</time>
      </trkpt>
      <trkpt lat="45.64793" lon="6.44062">
        <ele>347</ele>
        <time>2021-06-01T09:15:28Z</time>
      </trkpt>
      <trkpt lat="45.64799" lon="6.4406">
        <ele>347.2</ele>
        <time>2021-06-01T09:15:29Z</time>
      </trkpt>
      <trkpt lat="45.64806" lon="6.44059">
        <ele>347</ele>
        <time>2021-06-01T09:15:30Z</time>
      </trkpt>
      <trkpt lat="45.64812" lon="6.44057">
        <ele>347</ele>
        <time>2021-06-01T09:15:31Z</time>
      </trkpt>
      <trkpt lat="45.64819" lon="6.44055">
        <ele>347.2</ele>
        <time>2021-06-01T09:15:32Z</time>
      </trkpt>
      <trkpt lat="45.64825" lon="6.44053">
        <ele>347.4</ele>
        <time>2021-06-01T09:15:33Z</time>
      </trkpt>
      <trkpt lat="45.64832" lon="6.4405">
        <ele>347.2</ele>
        <time>2021-06-01T09:15:34Z</time>
      </trkpt>
      <trkpt lat="45.64839" lon="6.44048">
        <ele>347.2</ele>
        <time>2021-06-01T09:15:35Z</time>
      </trkpt>
      <trkpt lat="45.64846" lon="6.44046">
        <ele>347.8</ele>
        <time>2021-06-01T09:15:36Z</time>
      </trkpt>
      <trkpt lat="45.64852" lon="6.44043">
        <ele>347.8</ele>
        <time>2021-06-01T09:15:37Z</time>
      </trkpt>
      <trkpt lat="45.6486" lon="6.44041">
        <ele>348.2</ele>
        <time>2021-06-01T09:15:38Z</time>
      </trkpt>
      <trkpt lat="45.64866" lon="6.44038">
        <ele>349</ele>
        <time>2021-06-01T09:15:39Z</time>
      </trkpt>
      <trkpt lat="45.64873" lon="6.44035">
        <ele>349.2</ele>
        <time>2021-06-01T09:15:40Z</time>
      </trkpt>
      <trkpt lat="45.64879" lon="6.44032">
        <ele>349.6</ele>
        <time>2021-06-01T09:15:41Z</time>
      </trkpt>
      <trkpt lat="45.64885" lon="6.44028">
        <ele>349.4</ele>
        <time>2021-06-01T09:15:42Z</time>
      </trkpt>
      <trkpt lat="45.64892" lon="6.44025">
        <ele>349.8</ele>
        <time>2021-06-01T09:15:43Z</time>
      </trkpt>
      <trkpt lat="45.64898" lon="6.44022">
        <ele>350</ele>
        <time>2021-06-01T09:15:44Z</time>
      </trkpt>
      <trkpt lat="45.64905" lon="6.44019">
        <ele>350.4</ele>
        <time>2021-06-01T09:15:45Z</time>
      </trkpt>
      <trkpt lat="45.64912" lon="6.44015">
        <ele>350.6</ele>
        <time>2021-06-01T09:15:46Z</time>
      </trkpt>
      <trkpt lat="45.64918" lon="6.44011">
        <ele>350.8</ele>
        <time>2021-06-01T09:15:47Z</time>
      </trkpt>
      <trkpt lat="45.64926" lon="6.44008">
        <ele>350.6</ele>
        <time>2021-06-01T09:15:48Z</time>
      </trkpt>
      <trkpt lat="45.64933" lon="6.44005">
        <ele>350.6</ele>
        <time>2021-06-01T09:15:49Z</time>
      </trkpt>
      <trkpt lat="45.6494" lon="6.44001">
        <ele>351</ele>
        <time>2021-06-01T09:15:50Z</time>
      </trkpt>
      <trkpt lat="45.64946" lon="6.43997">
        <ele>351</ele>
        <time>2021-06-01T09:15:51Z</time>
      </trkpt>
      <trkpt lat="45.64954" lon="6.43994">
        <ele>351</ele>
        <time>2021-06-01T09:15:52Z</time>
      </trkpt>
      <trkpt lat="45.64961" lon="6.4399">
        <ele>351.2</ele>
        <time>2021-06-01T09:15:53Z</time>
      </trkpt>
      <trkpt lat="45.64968" lon="6.43986">
        <ele>351</ele>
        <time>2021-06-01T09:15:54Z</time>
      </trkpt>
      <trkpt lat="45.64975" lon="6.43982">
        <ele>351.4</ele>
        <time>2021-06-01T09:15:55Z</time>
      </trkpt>
      <trkpt lat="45.64982" lon="6.43979">
        <ele>351.6</ele>
        <time>2021-06-01T09:15:56Z</time>
      </trkpt>
      <trkpt lat="45.64989" lon="6.43974">
        <ele>351.6</ele>
        <time>2021-06-01T09:15:57Z</time>
      </trkpt>
      <trkpt lat="45.64996" lon="6.43971">
        <ele>351.4</ele>
        <time>2021-06-01T09:15:58Z</time>
      </trkpt>
      <trkpt lat="45.65003" lon="6.43967">
        <ele>351.8</ele>
        <time>2021-06-01T09:15:59Z</time>
      </trkpt>
      <trkpt lat="45.65011" lon="6.43964">
        <ele>351.8</ele>
        <time>2021-06-01T09:16:00Z</time>
      </trkpt>
      <trkpt lat="45.65017" lon="6.4396">
        <ele>352</ele>
        <time>2021-06-01T09:16:01Z</time>
      </trkpt>
      <trkpt lat="45.65024" lon="6.43957">
        <ele>352.2</ele>
        <time>2021-06-01T09:16:02Z</time>
      </trkpt>
      <trkpt lat="45.6503" lon="6.43953">
        <ele>352.6</ele>
        <time>2021-06-01T09:16:03Z</time>
      </trkpt>
      <trkpt lat="45.65037" lon="6.43949">
        <ele>352.8</ele>
        <time>2021-06-01T09:16:04Z</time>
      </trkpt>
      <trkpt lat="45.65043" lon="6.43945">
        <ele>353.2</ele>
        <time>2021-06-01T09:16:05Z</time>
      </trkpt>
      <trkpt lat="45.65049" lon="6.43941">
        <ele>353.4</ele>
        <time>2021-06-01T09:16:06Z</time>
      </trkpt>
      <trkpt lat="45.65054" lon="6.43936">
        <ele>353.4</ele>
        <time>2021-06-01T09:16:07Z</time>
      </trkpt>
      <trkpt lat="45.6506" lon="6.43933">
        <ele>353.8</ele>
        <time>2021-06-01T09:16:08Z</time>
      </trkpt>
      <trkpt lat="45.65067" lon="6.43929">
        <ele>353.6</ele>
        <time>2021-06-01T09:16:09Z</time>
      </trkpt>
      <trkpt lat="45.65072" lon="6.43925">
        <ele>353.6</ele>
        <time>2021-06-01T09:16:10Z</time>
      </trkpt>
      <trkpt lat="45.65078" lon="6.43921">
        <ele>353.4</ele>
        <time>2021-06-01T09:16:11Z</time>
      </trkpt>
      <trkpt lat="45.65084" lon="6.43916">
        <ele>353.2</ele>
        <time>2021-06-01T09:16:12Z</time>
      </trkpt>
      <trkpt lat="45.65089" lon="6.4391">
        <ele>353.4</ele>
        <time>2021-06-01T09:16:13Z</time>
      </trkpt>
      <trkpt lat="45.65096" lon="6.43904">
        <ele>353.2</ele>
        <time>2021-06-01T09:16:14Z</time>
      </trkpt>
      <trkpt lat="45.65102" lon="6.43899">
        <ele>353</ele>
        <time>2021-06-01T09:16:15Z</time>
      </trkpt>
      <trkpt lat="45.65108" lon="6.43894">
        <ele>352.8</ele>
        <time>2021-06-01T09:16:16Z</time>
      </trkpt>
      <trkpt lat="45.65115" lon="6.4389">
        <ele>352.6</ele>
        <time>2021-06-01T09:16:17Z</time>
      </trkpt>
      <trkpt lat="45.65122" lon="6.43884">
        <ele>352.2</ele>
        <time>2021-06-01T09:16:18Z</time>
      </trkpt>
      <trkpt lat="45.65128" lon="6.43879">
        <ele>352.4</ele>
        <time>2021-06-01T09:16:19Z</time>
      </trkpt>
      <trkpt lat="45.65135" lon="6.43873">
        <ele>352.6</ele>
        <time>2021-06-01T09:16:20Z</time>
      </trkpt>
      <trkpt lat="45.65141" lon="6.43868">
        <ele>353</ele>
        <time>2021-06-01T09:16:21Z</time>
      </trkpt>
      <trkpt lat="45.65148" lon="6.43862">
        <ele>353.2</ele>
        <time>2021-06-01T09:16:22Z</time>
      </trkpt>
      <trkpt lat="45.65155" lon="6.43856">
        <ele>353.2</ele>
        <time>2021-06-01T09:16:23Z</time>
      </trkpt>
      <trkpt lat="45.65161" lon="6.4385">
        <ele>353.8</ele>
        <time>2021-06-01T09:16:24Z</time>
      </trkpt>
      <trkpt lat="45.65167" lon="6.43843">
        <ele>353.8</ele>
        <time>2021-06-01T09:16:25Z</time>
      </trkpt>
      <trkpt lat="45.65173" lon="6.43837">
        <ele>353.6</ele>
        <time>2021-06-01T09:16:26Z</time>
      </trkpt>
      <trkpt lat="45.6518" lon="6.4383">
        <ele>353.6</ele>
        <time>2021-06-01T09:16:27Z</time>
      </trkpt>
      <trkpt lat="45.65186" lon="6.43824">
        <ele>353.6</ele>
        <time>2021-06-01T09:16:28Z</time>
      </trkpt>
      <trkpt lat="45.65192" lon="6.43818">
        <ele>353.4</ele>
        <time>2021-06-01T09:16:29Z</time>
      </trkpt>
      <trkpt lat="45.65199" lon="6.43812">
        <ele>353.2</ele>
        <time>2021-06-01T09:16:30Z</time>
      </trkpt>
      <trkpt lat="45.65206" lon="6.43806">
        <ele>353.4</ele>
        <time>2021-06-01T09:16:31Z</time>
      </trkpt>
      <trkpt lat="45.65213" lon="6.438">
        <ele>353.6</ele>
        <time>2021-06-01T09:16:32Z</time>
      </trkpt>
      <trkpt lat="45.6522" lon="6.43794">
        <ele>353.6</ele>
        <time>2021-06-01T09:16:33Z</time>
      </trkpt>
      <trkpt lat="45.65227" lon="6.43789">
        <ele>353.6</ele>
        <time>2021-06-01T09:16:34Z</time>
      </trkpt>
      <trkpt lat="45.65234" lon="6.43784">
        <ele>353.6</ele>
        <time>2021-06-01T09:16:35Z</time>
      </trkpt>
      <trkpt lat="45.6524" lon="6.4378">
        <ele>353.8</ele>
        <time>2021-06-01T09:16:36Z</time>
      </trkpt>
      <trkpt lat="45.65247" lon="6.43775">
        <ele>353.6</ele>
        <time>2021-06-01T09:16:37Z</time>
      </trkpt>
      <trkpt lat="45.65253" lon="6.43771">
        <ele>353.6</ele>
        <time>2021-06-01T09:16:38Z</time>
      </trkpt>
      <trkpt lat="45.6526" lon="6.43767">
        <ele>353.8</ele>
        <time>2021-06-01T09:16:39Z</time>
      </trkpt>
      <trkpt lat="45.65267" lon="6.43764">
        <ele>354.2</ele>
        <time>2021-06-01T09:16:40Z</time>
      </trkpt>
      <trkpt lat="45.65274" lon="6.43761">
        <ele>354.2</ele>
        <time>2021-06-01T09:16:41Z</time>
      </trkpt>
      <trkpt lat="45.65282" lon="6.4376">
        <ele>354.4</ele>
        <time>2021-06-01T09:16:42Z</time>
      </trkpt>
      <trkpt lat="45.65289" lon="6.43759">
        <ele>354.2</ele>
        <time>2021-06-01T09:16:43Z</time>
      </trkpt>
      <trkpt lat="45.65296" lon="6.43755">
        <ele>354.2</ele>
        <time>2021-06-01T09:16:44Z</time>
      </trkpt>
      <trkpt lat="45.65303" lon="6.4375">
        <ele>354.4</ele>
        <time>2021-06-01T09:16:45Z</time>
      </trkpt>
      <trkpt lat="45.65309" lon="6.43746">
        <ele>354.2</ele>
        <time>2021-06-01T09:16:46Z</time>
      </trkpt>
      <trkpt lat="45.65316" lon="6.43741">
        <ele>354.4</ele>
        <time>2021-06-01T09:16:47Z</time>
      </trkpt>
      <trkpt lat="45.65323" lon="6.43738">
        <ele>354.6</ele>
        <time>2021-06-01T09:16:48Z</time>
      </trkpt>
      <trkpt lat="45.6533" lon="6.43734">
        <ele>354.4</ele>
        <time>2021-06-01T09:16:49Z</time>
      </trkpt>
      <trkpt lat="45.65336" lon="6.43731">
        <ele>354.8</ele>
        <time>2021-06-01T09:16:50Z</time>
      </trkpt>
      <trkpt lat="45.65343" lon="6.43727">
        <ele>354.8</ele>
        <time>2021-06-01T09:16:51Z</time>
      </trkpt>
      <trkpt lat="45.65349" lon="6.43723">
        <ele>355</ele>
        <time>2021-06-01T09:16:52Z</time>
      </trkpt>
      <trkpt lat="45.65356" lon="6.43719">
        <ele>355</ele>
        <time>2021-06-01T09:16:53Z</time>
      </trkpt>
      <trkpt lat="45.65362" lon="6.43715">
        <ele>355</ele>
        <time>2021-06-01T09:16:54Z</time>
      </trkpt>
      <trkpt lat="45.65367" lon="6.43708">
        <ele>354.8</ele>
        <time>2021-06-01T09:16:55Z</time>
      </trkpt>
      <trkpt lat="45.65373" lon="6.437">
        <ele>354.6</ele>
        <time>2021-06-01T09:16:56Z</time>
      </trkpt>
      <trkpt lat="45.65378" lon="6.43691">
        <ele>355</ele>
        <time>2021-06-01T09:16:57Z</time>
      </trkpt>
      <trkpt lat="45.65383" lon="6.43682">
        <ele>354.6</ele>
        <time>2021-06-01T09:16:58Z</time>
      </trkpt>
      <trkpt lat="45.65388" lon="6.43673">
        <ele>354.2</ele>
        <time>2021-06-01T09:16:59Z</time>
      </trkpt>
      <trkpt lat="45.65393" lon="6.43664">
        <ele>354</ele>
        <time>2021-06-01T09:17:00Z</time>
      </trkpt>
      <trkpt lat="45.65398" lon="6.43655">
        <ele>354</ele>
        <time>2021-06-01T09:17:01Z</time>
      </trkpt>
      <trkpt lat="45.65405" lon="6.43648">
        <ele>353.8</ele>
        <time>2021-06-01T09:17:02Z</time>
      </trkpt>
      <trkpt lat="45.65412" lon="6.43641">
        <ele>353.2</ele>
        <time>2021-06-01T09:17:03Z</time>
      </trkpt>
      <trkpt lat="45.65418" lon="6.43633">
        <ele>353.2</ele>
        <time>2021-06-01T09:17:04Z</time>
      </trkpt>
      <trkpt lat="45.65425" lon="6.43626">
        <ele>353.2</ele>
        <time>2021-06-01T09:17:05Z</time>
      </trkpt>
      <trkpt lat="45.65432" lon="6.4362">
        <ele>353.2</ele>
        <time>2021-06-01T09:17:06Z</time>
      </trkpt>
      <trkpt lat="45.65439" lon="6.43613">
        <ele>353.4</ele>
        <time>2021-06-01T09:17:07Z</time>
      </trkpt>
      <trkpt lat="45.65447" lon="6.43608">
        <ele>353.4</ele>
        <time>2021-06-01T09:17:08Z</time>
      </trkpt>
      <trkpt lat="45.65454" lon="6.43603">
        <ele>353.4</ele>
        <time>2021-06-01T09:17:09Z</time>
      </trkpt>
      <trkpt lat="45.65462" lon="6.43599">
        <ele>352.8</ele>
        <time>2021-06-01T09:17:10Z</time>
      </trkpt>
      <trkpt lat="45.6547" lon="6.43596">
        <ele>353</ele>
        <time>2021-06-01T09:17:11Z</time>
      </trkpt>
      <trkpt lat="45.65477" lon="6.43595">
        <ele>353.2</ele>
        <time>2021-06-01T09:17:12Z</time>
      </trkpt>
      <trkpt lat="45.65484" lon="6.43593">
        <ele>353.6</ele>
        <time>2021-06-01T09:17:13Z</time>
      </trkpt>
      <trkpt lat="45.65492" lon="6.43591">
        <ele>353.8</ele>
        <time>2021-06-01T09:17:14Z</time>
      </trkpt>
      <trkpt lat="45.65499" lon="6.43588">
        <ele>354</ele>
        <time>2021-06-01T09:17:15Z</time>
      </trkpt>
      <trkpt lat="45.65506" lon="6.43586">
        <ele>353.4</ele>
        <time>2021-06-01T09:17:16Z</time>
      </trkpt>
      <trkpt lat="45.65513" lon="6.43583">
        <ele>353.2</ele>
        <time>2021-06-01T09:17:17Z</time>
      </trkpt>
      <trkpt lat="45.6552" lon="6.4358">
        <ele>353.2</ele>
        <time>2021-06-01T09:17:18Z</time>
      </trkpt>
      <trkpt lat="45.65527" lon="6.43577">
        <ele>353.2</ele>
        <time>2021-06-01T09:17:19Z</time>
      </trkpt>
      <trkpt lat="45.65534" lon="6.43574">
        <ele>353</ele>
        <time>2021-06-01T09:17:20Z</time>
      </trkpt>
      <trkpt lat="45.65541" lon="6.4357">
        <ele>353</ele>
        <time>2021-06-01T09:17:21Z</time>
      </trkpt>
      <trkpt lat="45.65548" lon="6.43566">
        <ele>352.8</ele>
        <time>2021-06-01T09:17:22Z</time>
      </trkpt>
      <trkpt lat="45.65555" lon="6.43562">
        <ele>352.2</ele>
        <time>2021-06-01T09:17:23Z</time>
      </trkpt>
      <trkpt lat="45.65562" lon="6.43559">
        <ele>351.6</ele>
        <time>2021-06-01T09:17:24Z</time>
      </trkpt>
      <trkpt lat="45.65569" lon="6.43557">
        <ele>351</ele>
        <time>2021-06-01T09:17:25Z</time>
      </trkpt>
      <trkpt lat="45.65577" lon="6.43556">
        <ele>350.6</ele>
        <time>2021-06-01T09:17:26Z</time>
      </trkpt>
      <trkpt lat="45.65584" lon="6.43554">
        <ele>350.6</ele>
        <time>2021-06-01T09:17:27Z</time>
      </trkpt>
      <trkpt lat="45.65592" lon="6.43552">
        <ele>350.2</ele>
        <time>2021-06-01T09:17:28Z</time>
      </trkpt>
      <trkpt lat="45.65599" lon="6.4355">
        <ele>349.8</ele>
        <time>2021-06-01T09:17:29Z</time>
      </trkpt>
      <trkpt lat="45.65606" lon="6.43547">
        <ele>349.4</ele>
        <time>2021-06-01T09:17:30Z</time>
      </trkpt>
      <trkpt lat="45.65613" lon="6.43543">
        <ele>349.4</ele>
        <time>2021-06-01T09:17:31Z</time>
      </trkpt>
      <trkpt lat="45.6562" lon="6.43538">
        <ele>349</ele>
        <time>2021-06-01T09:17:32Z</time>
      </trkpt>
      <trkpt lat="45.65626" lon="6.43532">
        <ele>348.8</ele>
        <time>2021-06-01T09:17:33Z</time>
      </trkpt>
      <trkpt lat="45.65633" lon="6.43527">
        <ele>348.6</ele>
        <time>2021-06-01T09:17:34Z</time>
      </trkpt>
      <trkpt lat="45.65639" lon="6.43519">
        <ele>348.4</ele>
        <time>2021-06-01T09:17:35Z</time>
      </trkpt>
      <trkpt lat="45.65646" lon="6.43512">
        <ele>348.4</ele>
        <time>2021-06-01T09:17:36Z</time>
      </trkpt>
      <trkpt lat="45.65652" lon="6.43504">
        <ele>348</ele>
        <time>2021-06-01T09:17:37Z</time>
      </trkpt>
      <trkpt lat="45.65659" lon="6.43496">
        <ele>348</ele>
        <time>2021-06-01T09:17:38Z</time>
      </trkpt>
      <trkpt lat="45.65667" lon="6.4349">
        <ele>348.2</ele>
        <time>2021-06-01T09:17:39Z</time>
      </trkpt>
      <trkpt lat="45.65675" lon="6.43483">
        <ele>348.2</ele>
        <time>2021-06-01T09:17:40Z</time>
      </trkpt>
      <trkpt lat="45.65683" lon="6.43477">
        <ele>348</ele>
        <time>2021-06-01T09:17:41Z</time>
      </trkpt>
      <trkpt lat="45.65691" lon="6.43472">
        <ele>347.6</ele>
        <time>2021-06-01T09:17:42Z</time>
      </trkpt>
      <trkpt lat="45.657" lon="6.43467">
        <ele>346.8</ele>
        <time>2021-06-01T09:17:43Z</time>
      </trkpt>
      <trkpt lat="45.65708" lon="6.43462">
        <ele>346.4</ele>
        <time>2021-06-01T09:17:44Z</time>
      </trkpt>
      <trkpt lat="45.65716" lon="6.43457">
        <ele>345.6</ele>
        <time>2021-06-01T09:17:45Z</time>
      </trkpt>
      <trkpt lat="45.65725" lon="6.43453">
        <ele>345.2</ele>
        <time>2021-06-01T09:17:46Z</time>
      </trkpt>
      <trkpt lat="45.65734" lon="6.43448">
        <ele>344.6</ele>
        <time>2021-06-01T09:17:47Z</time>
      </trkpt>
      <trkpt lat="45.65742" lon="6.43444">
        <ele>344.8</ele>
        <time>2021-06-01T09:17:48Z</time>
      </trkpt>
      <trkpt lat="45.65751" lon="6.43439">
        <ele>344.8</ele>
        <time>2021-06-01T09:17:49Z</time>
      </trkpt>
      <trkpt lat="45.6576" lon="6.43434">
        <ele>344.8</ele>
        <time>2021-06-01T09:17:50Z</time>
      </trkpt>
      <trkpt lat="45.65769" lon="6.43431">
        <ele>345</ele>
        <time>2021-06-01T09:17:51Z</time>
      </trkpt>
      <trkpt lat="45.65778" lon="6.43427">
        <ele>345.2</ele>
        <time>2021-06-01T09:17:52Z</time>
      </trkpt>
      <trkpt lat="45.65786" lon="6.43424">
        <ele>345</ele>
        <time>2021-06-01T09:17:53Z</time>
      </trkpt>
      <trkpt lat="45.65795" lon="6.4342">
        <ele>345.2</ele>
        <time>2021-06-01T09:17:54Z</time>
      </trkpt>
      <trkpt lat="45.65804" lon="6.43416">
        <ele>345</ele>
        <time>2021-06-01T09:17:55Z</time>
      </trkpt>
      <trkpt lat="45.65813" lon="6.43414">
        <ele>345.2</ele>
        <time>2021-06-01T09:17:56Z</time>
      </trkpt>
      <trkpt lat="45.65821" lon="6.43411">
        <ele>345.2</ele>
        <time>2021-06-01T09:17:57Z</time>
      </trkpt>
      <trkpt lat="45.65831" lon="6.43409">
        <ele>345</ele>
        <time>2021-06-01T09:17:58Z</time>
      </trkpt>
      <trkpt lat="45.65839" lon="6.43408">
        <ele>345.4</ele>
        <time>2021-06-01T09:17:59Z</time>
      </trkpt>
      <trkpt lat="45.65849" lon="6.43407">
        <ele>345.2</ele>
        <time>2021-06-01T09:18:00Z</time>
      </trkpt>
      <trkpt lat="45.65857" lon="6.43405">
        <ele>345</ele>
        <time>2021-06-01T09:18:01Z</time>
      </trkpt>
      <trkpt lat="45.65866" lon="6.43404">
        <ele>344.6</ele>
        <time>2021-06-01T09:18:02Z</time>
      </trkpt>
      <trkpt lat="45.65874" lon="6.43401">
        <ele>344.4</ele>
        <time>2021-06-01T09:18:03Z</time>
      </trkpt>
      <trkpt lat="45.65881" lon="6.43398">
        <ele>344.4</ele>
        <time>2021-06-01T09:18:04Z</time>
      </trkpt>
      <trkpt lat="45.6589" lon="6.43395">
        <ele>343.8</ele>
        <time>2021-06-01T09:18:05Z</time>
      </trkpt>
      <trkpt lat="45.65899" lon="6.43391">
        <ele>343.4</ele>
        <time>2021-06-01T09:18:06Z</time>
      </trkpt>
      <trkpt lat="45.65907" lon="6.43387">
        <ele>342.4</ele>
        <time>2021-06-01T09:18:07Z</time>
      </trkpt>
      <trkpt lat="45.65916" lon="6.43383">
        <ele>342.8</ele>
        <time>2021-06-01T09:18:08Z</time>
      </trkpt>
      <trkpt lat="45.65925" lon="6.43379">
        <ele>343</ele>
        <time>2021-06-01T09:18:09Z</time>
      </trkpt>
      <trkpt lat="45.65933" lon="6.43374">
        <ele>343.2</ele>
        <time>2021-06-01T09:18:10Z</time>
      </trkpt>
      <trkpt lat="45.65941" lon="6.43369">
        <ele>343.2</ele>
        <time>2021-06-01T09:18:11Z</time>
      </trkpt>
      <trkpt lat="45.65949" lon="6.43363">
        <ele>343.4</ele>
        <time>2021-06-01T09:18:12Z</time>
      </trkpt>
      <trkpt lat="45.65958" lon="6.43357">
        <ele>343.2</ele>
        <time>2021-06-01T09:18:13Z</time>
      </trkpt>
      <trkpt lat="45.65966" lon="6.43351">
        <ele>343.2</ele>
        <time>2021-06-01T09:18:14Z</time>
      </trkpt>
      <trkpt lat="45.65974" lon="6.43344">
        <ele>342.8</ele>
        <time>2021-06-01T09:18:15Z</time>
      </trkpt>
      <trkpt lat="45.65982" lon="6.43337">
        <ele>342.6</ele>
        <time>2021-06-01T09:18:16Z</time>
      </trkpt>
      <trkpt lat="45.6599" lon="6.43332">
        <ele>342</ele>
        <time>2021-06-01T09:18:17Z</time>
      </trkpt>
      <trkpt lat="45.65999" lon="6.43327">
        <ele>342.2</ele>
        <time>2021-06-01T09:18:18Z</time>
      </trkpt>
      <trkpt lat="45.66008" lon="6.43323">
        <ele>342.4</ele>
        <time>2021-06-01T09:18:19Z</time>
      </trkpt>
      <trkpt lat="45.66017" lon="6.43319">
        <ele>342.4</ele>
        <time>2021-06-01T09:18:20Z</time>
      </trkpt>
      <trkpt lat="45.66026" lon="6.43317">
        <ele>342.4</ele>
        <time>2021-06-01T09:18:21Z</time>
      </trkpt>
      <trkpt lat="45.66036" lon="6.43315">
        <ele>342.4</ele>
        <time>2021-06-01T09:18:22Z</time>
      </trkpt>
      <trkpt lat="45.66045" lon="6.43314">
        <ele>342.2</ele>
        <time>2021-06-01T09:18:23Z</time>
      </trkpt>
      <trkpt lat="45.66055" lon="6.43312">
        <ele>342.4</ele>
        <time>2021-06-01T09:18:24Z</time>
      </trkpt>
      <trkpt lat="45.66065" lon="6.43312">
        <ele>342.2</ele>
        <time>2021-06-01T09:18:25Z</time>
      </trkpt>
      <trkpt lat="45.66076" lon="6.43314">
        <ele>342.2</ele>
        <time>2021-06-01T09:18:26Z</time>
      </trkpt>
      <trkpt lat="45.66084" lon="6.43316">
        <ele>342.4</ele>
        <time>2021-06-01T09:18:27Z</time>
      </trkpt>
      <trkpt lat="45.66093" lon="6.43318">
        <ele>342.4</ele>
        <time>2021-06-01T09:18:28Z</time>
      </trkpt>
      <trkpt lat="45.66104" lon="6.43319">
        <ele>342.6</ele>
        <time>2021-06-01T09:18:29Z</time>
      </trkpt>
      <trkpt lat="45.66113" lon="6.43321">
        <ele>342.6</ele>
        <time>2021-06-01T09:18:30Z</time>
      </trkpt>
      <trkpt lat="45.66123" lon="6.43321">
        <ele>342.8</ele>
        <time>2021-06-01T09:18:31Z</time>
      </trkpt>
      <trkpt lat="45.66131" lon="6.4332">
        <ele>343</ele>
        <time>2021-06-01T09:18:32Z</time>
      </trkpt>
      <trkpt lat="45.6614" lon="6.43318">
        <ele>343.6</ele>
        <time>2021-06-01T09:18:33Z</time>
      </trkpt>
      <trkpt lat="45.66148" lon="6.43316">
        <ele>343.6</ele>
        <time>2021-06-01T09:18:34Z</time>
      </trkpt>
      <trkpt lat="45.66156" lon="6.43315">
        <ele>343.2</ele>
        <time>2021-06-01T09:18:35Z</time>
      </trkpt>
      <trkpt lat="45.66165" lon="6.43313">
        <ele>342.6</ele>
        <time>2021-06-01T09:18:36Z</time>
      </trkpt>
      <trkpt lat="45.66174" lon="6.4331">
        <ele>342.6</ele>
        <time>2021-06-01T09:18:37Z</time>
      </trkpt>
      <trkpt lat="45.66183" lon="6.43307">
        <ele>342.2</ele>
        <time>2021-06-01T09:18:38Z</time>
      </trkpt>
      <trkpt lat="45.66191" lon="6.43304">
        <ele>342.2</ele>
        <time>2021-06-01T09:18:39Z</time>
      </trkpt>
      <trkpt lat="45.662" lon="6.43298">
        <ele>342.2</ele>
        <time>2021-06-01T09:18:40Z</time>
      </trkpt>
      <trkpt lat="45.66207" lon="6.43291">
        <ele>342</ele>
        <time>2021-06-01T09:18:41Z</time>
      </trkpt>
      <trkpt lat="45.66215" lon="6.43284">
        <ele>342</ele>
        <time>2021-06-01T09:18:42Z</time>
      </trkpt>
      <trkpt lat="45.66221" lon="6.43276">
        <ele>342.2</ele>
        <time>2021-06-01T09:18:43Z</time>
      </trkpt>
      <trkpt lat="45.66228" lon="6.43268">
        <ele>342</ele>
        <time>2021-06-01T09:18:44Z</time>
      </trkpt>
      <trkpt lat="45.66235" lon="6.4326">
        <ele>342.6</ele>
        <time>2021-06-01T09:18:45Z</time>
      </trkpt>
      <trkpt lat="45.6624" lon="6.43249">
        <ele>342.6</ele>
        <time>2021-06-01T09:18:46Z</time>
      </trkpt>
      <trkpt lat="45.66243" lon="6.43237">
        <ele>342.8</ele>
        <time>2021-06-01T09:18:47Z</time>
      </trkpt>
      <trkpt lat="45.66247" lon="6.43226">
        <ele>343</ele>
        <time>2021-06-01T09:18:48Z</time>
      </trkpt>
      <trkpt lat="45.66251" lon="6.43215">
        <ele>343</ele>
        <time>2021-06-01T09:18:49Z</time>
      </trkpt>
      <trkpt lat="45.66254" lon="6.43203">
        <ele>342.8</ele>
        <time>2021-06-01T09:18:50Z</time>
      </trkpt>
      <trkpt lat="45.66258" lon="6.43191">
        <ele>342.6</ele>
        <time>2021-06-01T09:18:51Z</time>
      </trkpt>
      <trkpt lat="45.66262" lon="6.43181">
        <ele>342.4</ele>
        <time>2021-06-01T09:18:52Z</time>
      </trkpt>
      <trkpt lat="45.66265" lon="6.43169">
        <ele>342.2</ele>
        <time>2021-06-01T09:18:53Z</time>
      </trkpt>
      <trkpt lat="45.66268" lon="6.43157">
        <ele>342</ele>
        <time>2021-06-01T09:18:54Z</time>
      </trkpt>
      <trkpt lat="45.6627" lon="6.43144">
        <ele>341.6</ele>
        <time>2021-06-01T09:18:55Z</time>
      </trkpt>
      <trkpt lat="45.66274" lon="6.43132">
        <ele>341.2</ele>
        <time>2021-06-01T09:18:56Z</time>
      </trkpt>
      <trkpt lat="45.66277" lon="6.43119">
        <ele>341.2</ele>
        <time>2021-06-01T09:18:57Z</time>
      </trkpt>
      <trkpt lat="45.66281" lon="6.43107">
        <ele>340.8</ele>
        <time>2021-06-01T09:18:58Z</time>
      </trkpt>
      <trkpt lat="45.66285" lon="6.43095">
        <ele>341</ele>
        <time>2021-06-01T09:18:59Z</time>
      </trkpt>
      <trkpt lat="45.6629" lon="6.43084">
        <ele>340.6</ele>
        <time>2021-06-01T09:19:00Z</time>
      </trkpt>
      <trkpt lat="45.66294" lon="6.43073">
        <ele>340.4</ele>
        <time>2021-06-01T09:19:01Z</time>
      </trkpt>
      <trkpt lat="45.663" lon="6.43063">
        <ele>340</ele>
        <time>2021-06-01T09:19:02Z</time>
      </trkpt>
      <trkpt lat="45.66306" lon="6.43054">
        <ele>340</ele>
        <time>2021-06-01T09:19:03Z</time>
      </trkpt>
      <trkpt lat="45.66312" lon="6.43044">
        <ele>340</ele>
        <time>2021-06-01T09:19:04Z</time>
      </trkpt>
      <trkpt lat="45.66319" lon="6.43036">
        <ele>340</ele>
        <time>2021-06-01T09:19:05Z</time>
      </trkpt>
      <trkpt lat="45.66326" lon="6.43029">
        <ele>340</ele>
        <time>2021-06-01T09:19:06Z</time>
      </trkpt>
      <trkpt lat="45.66333" lon="6.43022">
        <ele>340.6</ele>
        <time>2021-06-01T09:19:07Z</time>
      </trkpt>
      <trkpt lat="45.6634" lon="6.43016">
        <ele>340</ele>
        <time>2021-06-01T09:19:08Z</time>
      </trkpt>
      <trkpt lat="45.66347" lon="6.43011">
        <ele>339.8</ele>
        <time>2021-06-01T09:19:09Z</time>
      </trkpt>
      <trkpt lat="45.66354" lon="6.43005">
        <ele>340</ele>
        <time>2021-06-01T09:19:10Z</time>
      </trkpt>
      <trkpt lat="45.66361" lon="6.43">
        <ele>339.8</ele>
        <time>2021-06-01T09:19:11Z</time>
      </trkpt>
      <trkpt lat="45.66368" lon="6.42995">
        <ele>339.8</ele>
        <time>2021-06-01T09:19:12Z</time>
      </trkpt>
      <trkpt lat="45.66375" lon="6.42989">
        <ele>339.4</ele>
        <time>2021-06-01T09:19:13Z</time>
      </trkpt>
      <trkpt lat="45.66381" lon="6.42983">
        <ele>339.6</ele>
        <time>2021-06-01T09:19:14Z</time>
      </trkpt>
      <trkpt lat="45.66388" lon="6.42977">
        <ele>339.4</ele>
        <time>2021-06-01T09:19:15Z</time>
      </trkpt>
      <trkpt lat="45.66394" lon="6.42971">
        <ele>339.8</ele>
        <time>2021-06-01T09:19:16Z</time>
      </trkpt>
      <trkpt lat="45.664" lon="6.42964">
        <ele>339.6</ele>
        <time>2021-06-01T09:19:17Z</time>
      </trkpt>
      <trkpt lat="45.66406" lon="6.42957">
        <ele>339.2</ele>
        <time>2021-06-01T09:19:18Z</time>
      </trkpt>
      <trkpt lat="45.66412" lon="6.4295">
        <ele>338.8</ele>
        <time>2021-06-01T09:19:19Z</time>
      </trkpt>
      <trkpt lat="45.66419" lon="6.42942">
        <ele>338.6</ele>
        <time>2021-06-01T09:19:20Z</time>
      </trkpt>
      <trkpt lat="45.66424" lon="6.42934">
        <ele>338.6</ele>
        <time>2021-06-01T09:19:21Z</time>
      </trkpt>
      <trkpt lat="45.66429" lon="6.42924">
        <ele>338.4</ele>
        <time>2021-06-01T09:19:22Z</time>
      </trkpt>
      <trkpt lat="45.66433" lon="6.42913">
        <ele>338</ele>
        <time>2021-06-01T09:19:23Z</time>
      </trkpt>
      <trkpt lat="45.66437" lon="6.42904">
        <ele>337.8</ele>
        <time>2021-06-01T09:19:24Z</time>
      </trkpt>
      <trkpt lat="45.6644" lon="6.42893">
        <ele>337.8</ele>
        <time>2021-06-01T09:19:25Z</time>
      </trkpt>
      <trkpt lat="45.66443" lon="6.42882">
        <ele>337.6</ele>
        <time>2021-06-01T09:19:26Z</time>
      </trkpt>
      <trkpt lat="45.66443" lon="6.4287">
        <ele>337.4</ele>
        <time>2021-06-01T09:19:27Z</time>
      </trkpt>
      <trkpt lat="45.66445" lon="6.42858">
        <ele>337.4</ele>
        <time>2021-06-01T09:19:28Z</time>
      </trkpt>
      <trkpt lat="45.66445" lon="6.42847">
        <ele>337.6</ele>
        <time>2021-06-01T09:19:29Z</time>
      </trkpt>
      <trkpt lat="45.66444" lon="6.42836">
        <ele>337.6</ele>
        <time>2021-06-01T09:19:30Z</time>
      </trkpt>
      <trkpt lat="45.66442" lon="6.42826">
        <ele>337.6</ele>
        <time>2021-06-01T09:19:31Z</time>
      </trkpt>
      <trkpt lat="45.66439" lon="6.42816">
        <ele>337.8</ele>
        <time>2021-06-01T09:19:32Z</time>
      </trkpt>
      <trkpt lat="45.66436" lon="6.42806">
        <ele>338</ele>
        <time>2021-06-01T09:19:33Z</time>
      </trkpt>
      <trkpt lat="45.66433" lon="6.42796">
        <ele>338.4</ele>
        <time>2021-06-01T09:19:34Z</time>
      </trkpt>
      <trkpt lat="45.6643" lon="6.42786">
        <ele>338.6</ele>
        <time>2021-06-01T09:19:35Z</time>
      </trkpt>
      <trkpt lat="45.66428" lon="6.42775">
        <ele>338.6</ele>
        <time>2021-06-01T09:19:36Z</time>
      </trkpt>
      <trkpt lat="45.66427" lon="6.42765">
        <ele>338.8</ele>
        <time>2021-06-01T09:19:37Z</time>
      </trkpt>
      <trkpt lat="45.66427" lon="6.42755">
        <ele>338.8</ele>
        <time>2021-06-01T09:19:38Z</time>
      </trkpt>
      <trkpt lat="45.66428" lon="6.42745">
        <ele>339</ele>
        <time>2021-06-01T09:19:39Z</time>
      </trkpt>
      <trkpt lat="45.66429" lon="6.42736">
        <ele>339.2</ele>
        <time>2021-06-01T09:19:40Z</time>
      </trkpt>
      <trkpt lat="45.66432" lon="6.42726">
        <ele>339</ele>
        <time>2021-06-01T09:19:41Z</time>
      </trkpt>
      <trkpt lat="45.66435" lon="6.42717">
        <ele>338.8</ele>
        <time>2021-06-01T09:19:42Z</time>
      </trkpt>
      <trkpt lat="45.66437" lon="6.42708">
        <ele>338.6</ele>
        <time>2021-06-01T09:19:43Z</time>
      </trkpt>
      <trkpt lat="45.66441" lon="6.42698">
        <ele>338.4</ele>
        <time>2021-06-01T09:19:44Z</time>
      </trkpt>
      <trkpt lat="45.66445" lon="6.4269">
        <ele>338.4</ele>
        <time>2021-06-01T09:19:45Z</time>
      </trkpt>
      <trkpt lat="45.66449" lon="6.42681">
        <ele>338.4</ele>
        <time>2021-06-01T09:19:46Z</time>
      </trkpt>
      <trkpt lat="45.66453" lon="6.42672">
        <ele>338.2</ele>
        <time>2021-06-01T09:19:47Z</time>
      </trkpt>
      <trkpt lat="45.66458" lon="6.42664">
        <ele>338</ele>
        <time>2021-06-01T09:19:48Z</time>
      </trkpt>
      <trkpt lat="45.66463" lon="6.42656">
        <ele>337.8</ele>
        <time>2021-06-01T09:19:49Z</time>
      </trkpt>
      <trkpt lat="45.66469" lon="6.42648">
        <ele>337.4</ele>
        <time>2021-06-01T09:19:50Z</time>
      </trkpt>
      <trkpt lat="45.66475" lon="6.42641">
        <ele>337.2</ele>
        <time>2021-06-01T09:19:51Z</time>
      </trkpt>
      <trkpt lat="45.6648" lon="6.42633">
        <ele>337</ele>
        <time>2021-06-01T09:19:52Z</time>
      </trkpt>
      <trkpt lat="45.66486" lon="6.42625">
        <ele>336.8</ele>
        <time>2021-06-01T09:19:53Z</time>
      </trkpt>
      <trkpt lat="45.66492" lon="6.42616">
        <ele>336.6</ele>
        <time>2021-06-01T09:19:54Z</time>
      </trkpt>
      <trkpt lat="45.66497" lon="6.42607">
        <ele>336.2</ele>
        <time>2021-06-01T09:19:55Z</time>
      </trkpt>
      <trkpt lat="45.66503" lon="6.42598">
        <ele>336.4</ele>
        <time>2021-06-01T09:19:56Z</time>
      </trkpt>
      <trkpt lat="45.66509" lon="6.42589">
        <ele>336</ele>
        <time>2021-06-01T09:19:57Z</time>
      </trkpt>
      <trkpt lat="45.66514" lon="6.4258">
        <ele>335.8</ele>
        <time>2021-06-01T09:19:58Z</time>
      </trkpt>
      <trkpt lat="45.66519" lon="6.4257">
        <ele>335.4</ele>
        <time>2021-06-01T09:19:59Z</time>
      </trkpt>
      <trkpt lat="45.66523" lon="6.42559">
        <ele>335.4</ele>
        <time>2021-06-01T09:20:00Z</time>
      </trkpt>
      <trkpt lat="45.66528" lon="6.42552">
        <ele>335.2</ele>
        <time>2021-06-01T09:20:01Z</time>
      </trkpt>
      <trkpt lat="45.66531" lon="6.42542">
        <ele>335.2</ele>
        <time>2021-06-01T09:20:02Z</time>
      </trkpt>
      <trkpt lat="45.66532" lon="6.42531">
        <ele>335.2</ele>
        <time>2021-06-01T09:20:03Z</time>
      </trkpt>
      <trkpt lat="45.66532" lon="6.4252">
        <ele>335.4</ele>
        <time>2021-06-01T09:20:04Z</time>
      </trkpt>
      <trkpt lat="45.66532" lon="6.42509">
        <ele>335.6</ele>
        <time>2021-06-01T09:20:05Z</time>
      </trkpt>
      <trkpt lat="45.66532" lon="6.42498">
        <ele>336</ele>
        <time>2021-06-01T09:20:06Z</time>
      </trkpt>
      <trkpt lat="45.66531" lon="6.42487">
        <ele>336</ele>
        <time>2021-06-01T09:20:07Z</time>
      </trkpt>
      <trkpt lat="45.6653" lon="6.42475">
        <ele>335.6</ele>
        <time>2021-06-01T09:20:08Z</time>
      </trkpt>
      <trkpt lat="45.66528" lon="6.42463">
        <ele>335.4</ele>
        <time>2021-06-01T09:20:09Z</time>
      </trkpt>
      <trkpt lat="45.66527" lon="6.4245">
        <ele>334.8</ele>
        <time>2021-06-01T09:20:10Z</time>
      </trkpt>
      <trkpt lat="45.66525" lon="6.42438">
        <ele>334.6</ele>
        <time>2021-06-01T09:20:11Z</time>
      </trkpt>
      <trkpt lat="45.66524" lon="6.42424">
        <ele>334.2</ele>
        <time>2021-06-01T09:20:12Z</time>
      </trkpt>
      <trkpt lat="45.66522" lon="6.4241">
        <ele>334.4</ele>
        <time>2021-06-01T09:20:13Z</time>
      </trkpt>
      <trkpt lat="45.6652" lon="6.42395">
        <ele>334.2</ele>
        <time>2021-06-01T09:20:14Z</time>
      </trkpt>
      <trkpt lat="45.66519" lon="6.42382">
        <ele>334.4</ele>
        <time>2021-06-01T09:20:15Z</time>
      </trkpt>
      <trkpt lat="45.66517" lon="6.42368">
        <ele>334.6</ele>
        <time>2021-06-01T09:20:16Z</time>
      </trkpt>
      <trkpt lat="45.66516" lon="6.42355">
        <ele>334.6</ele>
        <time>2021-06-01T09:20:17Z</time>
      </trkpt>
      <trkpt lat="45.66515" lon="6.42341">
        <ele>334.4</ele>
        <time>2021-06-01T09:20:18Z</time>
      </trkpt>
      <trkpt lat="45.66514" lon="6.42328">
        <ele>333.6</ele>
        <time>2021-06-01T09:20:19Z</time>
      </trkpt>
      <trkpt lat="45.66512" lon="6.42315">
        <ele>333</ele>
        <time>2021-06-01T09:20:20Z</time>
      </trkpt>
      <trkpt lat="45.66511" lon="6.42302">
        <ele>332.6</ele>
        <time>2021-06-01T09:20:21Z</time>
      </trkpt>
      <trkpt lat="45.6651" lon="6.42289">
        <ele>332.4</ele>
        <time>2021-06-01T09:20:22Z</time>
      </trkpt>
      <trkpt lat="45.66509" lon="6.42276">
        <ele>331.8</ele>
        <time>2021-06-01T09:20:23Z</time>
      </trkpt>
      <trkpt lat="45.66508" lon="6.42264">
        <ele>331.2</ele>
        <time>2021-06-01T09:20:24Z</time>
      </trkpt>
      <trkpt lat="45.66507" lon="6.42251">
        <ele>331.2</ele>
        <time>2021-06-01T09:20:25Z</time>
      </trkpt>
      <trkpt lat="45.66505" lon="6.42239">
        <ele>330.8</ele>
        <time>2021-06-01T09:20:26Z</time>
      </trkpt>
      <trkpt lat="45.66504" lon="6.42227">
        <ele>330.8</ele>
        <time>2021-06-01T09:20:27Z</time>
      </trkpt>
      <trkpt lat="45.66503" lon="6.42214">
        <ele>330.4</ele>
        <time>2021-06-01T09:20:28Z</time>
      </trkpt>
      <trkpt lat="45.66502" lon="6.42202">
        <ele>330.4</ele>
        <time>2021-06-01T09:20:29Z</time>
      </trkpt>
      <trkpt lat="45.66501" lon="6.42189">
        <ele>330.4</ele>
        <time>2021-06-01T09:20:30Z</time>
      </trkpt>
      <trkpt lat="45.665" lon="6.42177">
        <ele>330.6</ele>
        <time>2021-06-01T09:20:31Z</time>
      </trkpt>
      <trkpt lat="45.66499" lon="6.42165">
        <ele>330.6</ele>
        <time>2021-06-01T09:20:32Z</time>
      </trkpt>
      <trkpt lat="45.66498" lon="6.42152">
        <ele>330.4</ele>
        <time>2021-06-01T09:20:33Z</time>
      </trkpt>
      <trkpt lat="45.66497" lon="6.4214">
        <ele>330</ele>
        <time>2021-06-01T09:20:34Z</time>
      </trkpt>
      <trkpt lat="45.66496" lon="6.42128">
        <ele>329.8</ele>
        <time>2021-06-01T09:20:35Z</time>
      </trkpt>
      <trkpt lat="45.66496" lon="6.42115">
        <ele>330</ele>
        <time>2021-06-01T09:20:36Z</time>
      </trkpt>
      <trkpt lat="45.66496" lon="6.42103">
        <ele>329.8</ele>
        <time>2021-06-01T09:20:37Z</time>
      </trkpt>
      <trkpt lat="45.66497" lon="6.42091">
        <ele>329.6</ele>
        <time>2021-06-01T09:20:38Z</time>
      </trkpt>
      <trkpt lat="45.66497" lon="6.42079">
        <ele>329.2</ele>
        <time>2021-06-01T09:20:39Z</time>
      </trkpt>
      <trkpt lat="45.66499" lon="6.42067">
        <ele>328.8</ele>
        <time>2021-06-01T09:20:40Z</time>
      </trkpt>
      <trkpt lat="45.66501" lon="6.42055">
        <ele>328.6</ele>
        <time>2021-06-01T09:20:41Z</time>
      </trkpt>
      <trkpt lat="45.66502" lon="6.42043">
        <ele>328.4</ele>
        <time>2021-06-01T09:20:42Z</time>
      </trkpt>
      <trkpt lat="45.66505" lon="6.42031">
        <ele>328.2</ele>
        <time>2021-06-01T09:20:43Z</time>
      </trkpt>
      <trkpt lat="45.66507" lon="6.4202">
        <ele>328.2</ele>
        <time>2021-06-01T09:20:44Z</time>
      </trkpt>
      <trkpt lat="45.66508" lon="6.42007">
        <ele>327.8</ele>
        <time>2021-06-01T09:20:45Z</time>
      </trkpt>
      <trkpt lat="45.6651" lon="6.41995">
        <ele>327.6</ele>
        <time>2021-06-01T09:20:46Z</time>
      </trkpt>
      <trkpt lat="45.66513" lon="6.41983">
        <ele>327.8</ele>
        <time>2021-06-01T09:20:47Z</time>
      </trkpt>
      <trkpt lat="45.66515" lon="6.41971">
        <ele>327</ele>
        <time>2021-06-01T09:20:48Z</time>
      </trkpt>
      <trkpt lat="45.66517" lon="6.41959">
        <ele>326.4</ele>
        <time>2021-06-01T09:20:49Z</time>
      </trkpt>
      <trkpt lat="45.66519" lon="6.41947">
        <ele>325.8</ele>
        <time>2021-06-01T09:20:50Z</time>
      </trkpt>
      <trkpt lat="45.66521" lon="6.41934">
        <ele>326</ele>
        <time>2021-06-01T09:20:51Z</time>
      </trkpt>
      <trkpt lat="45.66523" lon="6.41922">
        <ele>325.8</ele>
        <time>2021-06-01T09:20:52Z</time>
      </trkpt>
      <trkpt lat="45.66526" lon="6.41911">
        <ele>325.8</ele>
        <time>2021-06-01T09:20:53Z</time>
      </trkpt>
      <trkpt lat="45.66528" lon="6.41899">
        <ele>325.6</ele>
        <time>2021-06-01T09:20:54Z</time>
      </trkpt>
      <trkpt lat="45.6653" lon="6.41887">
        <ele>326</ele>
        <time>2021-06-01T09:20:55Z</time>
      </trkpt>
      <trkpt lat="45.66532" lon="6.41874">
        <ele>326.2</ele>
        <time>2021-06-01T09:20:56Z</time>
      </trkpt>
      <trkpt lat="45.66534" lon="6.41862">
        <ele>326.2</ele>
        <time>2021-06-01T09:20:57Z</time>
      </trkpt>
      <trkpt lat="45.66536" lon="6.41851">
        <ele>326.4</ele>
        <time>2021-06-01T09:20:58Z</time>
      </trkpt>
      <trkpt lat="45.66538" lon="6.41839">
        <ele>326</ele>
        <time>2021-06-01T09:20:59Z</time>
      </trkpt>
      <trkpt lat="45.66539" lon="6.41827">
        <ele>326</ele>
        <time>2021-06-01T09:21:00Z</time>
      </trkpt>
      <trkpt lat="45.6654" lon="6.41815">
        <ele>326</ele>
        <time>2021-06-01T09:21:01Z</time>
      </trkpt>
      <trkpt lat="45.6654" lon="6.41802">
        <ele>325.8</ele>
        <time>2021-06-01T09:21:02Z</time>
      </trkpt>
      <trkpt lat="45.6654" lon="6.4179">
        <ele>325.6</ele>
        <time>2021-06-01T09:21:03Z</time>
      </trkpt>
      <trkpt lat="45.6654" lon="6.41778">
        <ele>325.6</ele>
        <time>2021-06-01T09:21:04Z</time>
      </trkpt>
      <trkpt lat="45.66541" lon="6.41767">
        <ele>325.6</ele>
        <time>2021-06-01T09:21:05Z</time>
      </trkpt>
      <trkpt lat="45.66542" lon="6.41755">
        <ele>325.4</ele>
        <time>2021-06-01T09:21:06Z</time>
      </trkpt>
      <trkpt lat="45.66544" lon="6.41743">
        <ele>325.4</ele>
        <time>2021-06-01T09:21:07Z</time>
      </trkpt>
      <trkpt lat="45.66546" lon="6.41733">
        <ele>325.6</ele>
        <time>2021-06-01T09:21:08Z</time>
      </trkpt>
      <trkpt lat="45.66548" lon="6.41721">
        <ele>325.6</ele>
        <time>2021-06-01T09:21:09Z</time>
      </trkpt>
      <trkpt lat="45.66552" lon="6.41711">
        <ele>326.4</ele>
        <time>2021-06-01T09:21:10Z</time>
      </trkpt>
      <trkpt lat="45.66556" lon="6.417">
        <ele>326.2</ele>
        <time>2021-06-01T09:21:11Z</time>
      </trkpt>
      <trkpt lat="45.66559" lon="6.41689">
        <ele>326.4</ele>
        <time>2021-06-01T09:21:12Z</time>
      </trkpt>
      <trkpt lat="45.66563" lon="6.41678">
        <ele>326.4</ele>
        <time>2021-06-01T09:21:13Z</time>
      </trkpt>
      <trkpt lat="45.66568" lon="6.41669">
        <ele>326.4</ele>
        <time>2021-06-01T09:21:14Z</time>
      </trkpt>
      <trkpt lat="45.66572" lon="6.41659">
        <ele>326.8</ele>
        <time>2021-06-01T09:21:15Z</time>
      </trkpt>
      <trkpt lat="45.66576" lon="6.41647">
        <ele>326.8</ele>
        <time>2021-06-01T09:21:16Z</time>
      </trkpt>
      <trkpt lat="45.66579" lon="6.41636">
        <ele>326.6</ele>
        <time>2021-06-01T09:21:17Z</time>
      </trkpt>
      <trkpt lat="45.66582" lon="6.41625">
        <ele>326.4</ele>
        <time>2021-06-01T09:21:18Z</time>
      </trkpt>
      <trkpt lat="45.66584" lon="6.41613">
        <ele>326.4</ele>
        <time>2021-06-01T09:21:19Z</time>
      </trkpt>
      <trkpt lat="45.66587" lon="6.41602">
        <ele>326.6</ele>
        <time>2021-06-01T09:21:20Z</time>
      </trkpt>
      <trkpt lat="45.66588" lon="6.41591">
        <ele>326.8</ele>
        <time>2021-06-01T09:21:21Z</time>
      </trkpt>
      <trkpt lat="45.6659" lon="6.41579">
        <ele>326.6</ele>
        <time>2021-06-01T09:21:22Z</time>
      </trkpt>
      <trkpt lat="45.66591" lon="6.41567">
        <ele>327.2</ele>
        <time>2021-06-01T09:21:23Z</time>
      </trkpt>
      <trkpt lat="45.66592" lon="6.41556">
        <ele>327.4</ele>
        <time>2021-06-01T09:21:24Z</time>
      </trkpt>
      <trkpt lat="45.66594" lon="6.41544">
        <ele>327.6</ele>
        <time>2021-06-01T09:21:25Z</time>
      </trkpt>
      <trkpt lat="45.66595" lon="6.41532">
        <ele>327</ele>
        <time>2021-06-01T09:21:26Z</time>
      </trkpt>
      <trkpt lat="45.66597" lon="6.41521">
        <ele>326.8</ele>
        <time>2021-06-01T09:21:27Z</time>
      </trkpt>
      <trkpt lat="45.66599" lon="6.41509">
        <ele>326.4</ele>
        <time>2021-06-01T09:21:28Z</time>
      </trkpt>
      <trkpt lat="45.66601" lon="6.41497">
        <ele>325.8</ele>
        <time>2021-06-01T09:21:29Z</time>
      </trkpt>
      <trkpt lat="45.66604" lon="6.41486">
        <ele>325.4</ele>
        <time>2021-06-01T09:21:30Z</time>
      </trkpt>
      <trkpt lat="45.66606" lon="6.41475">
        <ele>325.2</ele>
        <time>2021-06-01T09:21:31Z</time>
      </trkpt>
      <trkpt lat="45.66608" lon="6.41464">
        <ele>324.8</ele>
        <time>2021-06-01T09:21:32Z</time>
      </trkpt>
      <trkpt lat="45.66611" lon="6.41453">
        <ele>324.8</ele>
        <time>2021-06-01T09:21:33Z</time>
      </trkpt>
      <trkpt lat="45.66614" lon="6.41441">
        <ele>324.2</ele>
        <time>2021-06-01T09:21:34Z</time>
      </trkpt>
      <trkpt lat="45.66617" lon="6.41431">
        <ele>324.4</ele>
        <time>2021-06-01T09:21:35Z</time>
      </trkpt>
      <trkpt lat="45.6662" lon="6.4142">
        <ele>324.8</ele>
        <time>2021-06-01T09:21:36Z</time>
      </trkpt>
      <trkpt lat="45.66622" lon="6.41409">
        <ele>324.4</ele>
        <time>2021-06-01T09:21:37Z</time>
      </trkpt>
      <trkpt lat="45.66625" lon="6.41398">
        <ele>324.6</ele>
        <time>2021-06-01T09:21:38Z</time>
      </trkpt>
      <trkpt lat="45.66628" lon="6.41387">
        <ele>324.6</ele>
        <time>2021-06-01T09:21:39Z</time>
      </trkpt>
      <trkpt lat="45.6663" lon="6.41376">
        <ele>324.2</ele>
        <time>2021-06-01T09:21:40Z</time>
      </trkpt>
      <trkpt lat="45.66634" lon="6.41365">
        <ele>324.4</ele>
        <time>2021-06-01T09:21:41Z</time>
      </trkpt>
      <trkpt lat="45.66637" lon="6.41355">
        <ele>324.2</ele>
        <time>2021-06-01T09:21:42Z</time>
      </trkpt>
      <trkpt lat="45.6664" lon="6.41345">
        <ele>323.6</ele>
        <time>2021-06-01T09:21:43Z</time>
      </trkpt>
      <trkpt lat="45.66644" lon="6.41335">
        <ele>323.8</ele>
        <time>2021-06-01T09:21:44Z</time>
      </trkpt>
      <trkpt lat="45.66647" lon="6.41326">
        <ele>323.8</ele>
        <time>2021-06-01T09:21:45Z</time>
      </trkpt>
      <trkpt lat="45.66651" lon="6.41317">
        <ele>323.6</ele>
        <time>2021-06-01T09:21:46Z</time>
      </trkpt>
      <trkpt lat="45.66656" lon="6.41308">
        <ele>323.6</ele>
        <time>2021-06-01T09:21:47Z</time>
      </trkpt>
      <trkpt lat="45.6666" lon="6.41299">
        <ele>323.8</ele>
        <time>2021-06-01T09:21:48Z</time>
      </trkpt>
      <trkpt lat="45.66665" lon="6.41291">
        <ele>323.8</ele>
        <time>2021-06-01T09:21:49Z</time>
      </trkpt>
      <trkpt lat="45.66669" lon="6.41282">
        <ele>323.8</ele>
        <time>2021-06-01T09:21:50Z</time>
      </trkpt>
      <trkpt lat="45.66673" lon="6.41273">
        <ele>323.8</ele>
        <time>2021-06-01T09:21:51Z</time>
      </trkpt>
      <trkpt lat="45.66678" lon="6.41264">
        <ele>323.6</ele>
        <time>2021-06-01T09:21:52Z</time>
      </trkpt>
      <trkpt lat="45.66683" lon="6.41256">
        <ele>323.6</ele>
        <time>2021-06-01T09:21:53Z</time>
      </trkpt>
      <trkpt lat="45.66688" lon="6.41247">
        <ele>323.2</ele>
        <time>2021-06-01T09:21:54Z</time>
      </trkpt>
      <trkpt lat="45.66693" lon="6.41239">
        <ele>323.6</ele>
        <time>2021-06-01T09:21:55Z</time>
      </trkpt>
      <trkpt lat="45.66699" lon="6.4123">
        <ele>323.8</ele>
        <time>2021-06-01T09:21:56Z</time>
      </trkpt>
      <trkpt lat="45.66704" lon="6.41222">
        <ele>324.2</ele>
        <time>2021-06-01T09:21:57Z</time>
      </trkpt>
      <trkpt lat="45.66708" lon="6.41213">
        <ele>324.2</ele>
        <time>2021-06-01T09:21:58Z</time>
      </trkpt>
      <trkpt lat="45.66714" lon="6.41205">
        <ele>324.2</ele>
        <time>2021-06-01T09:21:59Z</time>
      </trkpt>
      <trkpt lat="45.66719" lon="6.41196">
        <ele>324.2</ele>
        <time>2021-06-01T09:22:00Z</time>
      </trkpt>
      <trkpt lat="45.66723" lon="6.41187">
        <ele>324.2</ele>
        <time>2021-06-01T09:22:01Z</time>
      </trkpt>
      <trkpt lat="45.66727" lon="6.41177">
        <ele>324.6</ele>
        <time>2021-06-01T09:22:02Z</time>
      </trkpt>
      <trkpt lat="45.66732" lon="6.41167">
        <ele>324.6</ele>
        <time>2021-06-01T09:22:03Z</time>
      </trkpt>
      <trkpt lat="45.66735" lon="6.41158">
        <ele>324.4</ele>
        <time>2021-06-01T09:22:04Z</time>
      </trkpt>
      <trkpt lat="45.66739" lon="6.41148">
        <ele>324.8</ele>
        <time>2021-06-01T09:22:05Z</time>
      </trkpt>
      <trkpt lat="45.66742" lon="6.41138">
        <ele>325.2</ele>
        <time>2021-06-01T09:22:06Z</time>
      </trkpt>
      <trkpt lat="45.66745" lon="6.41128">
        <ele>325.6</ele>
        <time>2021-06-01T09:22:07Z</time>
      </trkpt>
      <trkpt lat="45.66748" lon="6.41118">
        <ele>325.8</ele>
        <time>2021-06-01T09:22:08Z</time>
      </trkpt>
      <trkpt lat="45.6675" lon="6.41109">
        <ele>325.8</ele>
        <time>2021-06-01T09:22:09Z</time>
      </trkpt>
      <trkpt lat="45.66752" lon="6.41099">
        <ele>326</ele>
        <time>2021-06-01T09:22:10Z</time>
      </trkpt>
      <trkpt lat="45.66755" lon="6.4109">
        <ele>325.8</ele>
        <time>2021-06-01T09:22:11Z</time>
      </trkpt>
      <trkpt lat="45.66757" lon="6.4108">
        <ele>325.6</ele>
        <time>2021-06-01T09:22:12Z</time>
      </trkpt>
      <trkpt lat="45.66761" lon="6.41071">
        <ele>325.4</ele>
        <time>2021-06-01T09:22:13Z</time>
      </trkpt>
      <trkpt lat="45.66764" lon="6.41063">
        <ele>325</ele>
        <time>2021-06-01T09:22:14Z</time>
      </trkpt>
      <trkpt lat="45.66769" lon="6.41055">
        <ele>325</ele>
        <time>2021-06-01T09:22:15Z</time>
      </trkpt>
      <trkpt lat="45.66775" lon="6.41047">
        <ele>325</ele>
        <time>2021-06-01T09:22:16Z</time>
      </trkpt>
      <trkpt lat="45.66781" lon="6.4104">
        <ele>324.8</ele>
        <time>2021-06-01T09:22:17Z</time>
      </trkpt>
      <trkpt lat="45.66787" lon="6.41034">
        <ele>325</ele>
        <time>2021-06-01T09:22:18Z</time>
      </trkpt>
      <trkpt lat="45.66794" lon="6.41027">
        <ele>325</ele>
        <time>2021-06-01T09:22:19Z</time>
      </trkpt>
      <trkpt lat="45.668" lon="6.4102">
        <ele>324.8</ele>
        <time>2021-06-01T09:22:20Z</time>
      </trkpt>
      <trkpt lat="45.66805" lon="6.41012">
        <ele>324.8</ele>
        <time>2021-06-01T09:22:21Z</time>
      </trkpt>
      <trkpt lat="45.6681" lon="6.41003">
        <ele>325</ele>
        <time>2021-06-01T09:22:22Z</time>
      </trkpt>
      <trkpt lat="45.66815" lon="6.40995">
        <ele>325.2</ele>
        <time>2021-06-01T09:22:23Z</time>
      </trkpt>
      <trkpt lat="45.6682" lon="6.40986">
        <ele>325.6</ele>
        <time>2021-06-01T09:22:24Z</time>
      </trkpt>
      <trkpt lat="45.66825" lon="6.40978">
        <ele>325.8</ele>
        <time>2021-06-01T09:22:25Z</time>
      </trkpt>
      <trkpt lat="45.66829" lon="6.40968">
        <ele>325.6</ele>
        <time>2021-06-01T09:22:26Z</time>
      </trkpt>
      <trkpt lat="45.66832" lon="6.40958">
        <ele>325.6</ele>
        <time>2021-06-01T09:22:27Z</time>
      </trkpt>
      <trkpt lat="45.66835" lon="6.40947">
        <ele>325.8</ele>
        <time>2021-06-01T09:22:28Z</time>
      </trkpt>
      <trkpt lat="45.66836" lon="6.40936">
        <ele>325.6</ele>
        <time>2021-06-01T09:22:29Z</time>
      </trkpt>
      <trkpt lat="45.66838" lon="6.40926">
        <ele>325.6</ele>
        <time>2021-06-01T09:22:30Z</time>
      </trkpt>
      <trkpt lat="45.6684" lon="6.40914">
        <ele>325.6</ele>
        <time>2021-06-01T09:22:31Z</time>
      </trkpt>
      <trkpt lat="45.66841" lon="6.40903">
        <ele>325.8</ele>
        <time>2021-06-01T09:22:32Z</time>
      </trkpt>
      <trkpt lat="45.66842" lon="6.40892">
        <ele>326.2</ele>
        <time>2021-06-01T09:22:33Z</time>
      </trkpt>
      <trkpt lat="45.66844" lon="6.40882">
        <ele>326.4</ele>
        <time>2021-06-01T09:22:34Z</time>
      </trkpt>
      <trkpt lat="45.66845" lon="6.40871">
        <ele>326.6</ele>
        <time>2021-06-01T09:22:35Z</time>
      </trkpt>
      <trkpt lat="45.66846" lon="6.4086">
        <ele>326.4</ele>
        <time>2021-06-01T09:22:36Z</time>
      </trkpt>
      <trkpt lat="45.66847" lon="6.40849">
        <ele>326.4</ele>
        <time>2021-06-01T09:22:37Z</time>
      </trkpt>
      <trkpt lat="45.66848" lon="6.40838">
        <ele>326.2</ele>
        <time>2021-06-01T09:22:38Z</time>
      </trkpt>
      <trkpt lat="45.66849" lon="6.40827">
        <ele>326</ele>
        <time>2021-06-01T09:22:39Z</time>
      </trkpt>
      <trkpt lat="45.6685" lon="6.40815">
        <ele>325.8</ele>
        <time>2021-06-01T09:22:40Z</time>
      </trkpt>
      <trkpt lat="45.6685" lon="6.40804">
        <ele>326</ele>
        <time>2021-06-01T09:22:41Z</time>
      </trkpt>
      <trkpt lat="45.66852" lon="6.40793">
        <ele>326.2</ele>
        <time>2021-06-01T09:22:42Z</time>
      </trkpt>
      <trkpt lat="45.66852" lon="6.40781">
        <ele>326.4</ele>
        <time>2021-06-01T09:22:43Z</time>
      </trkpt>
      <trkpt lat="45.66853" lon="6.40771">
        <ele>326.6</ele>
        <time>2021-06-01T09:22:44Z</time>
      </trkpt>
      <trkpt lat="45.66855" lon="6.4076">
        <ele>326.4</ele>
        <time>2021-06-01T09:22:45Z</time>
      </trkpt>
      <trkpt lat="45.66856" lon="6.40749">
        <ele>326</ele>
        <time>2021-06-01T09:22:46Z</time>
      </trkpt>
      <trkpt lat="45.66857" lon="6.40738">
        <ele>325.8</ele>
        <time>2021-06-01T09:22:47Z</time>
      </trkpt>
      <trkpt lat="45.66858" lon="6.40727">
        <ele>325.8</ele>
        <time>2021-06-01T09:22:48Z</time>
      </trkpt>
      <trkpt lat="45.66859" lon="6.40716">
        <ele>326</ele>
        <time>2021-06-01T09:22:49Z</time>
      </trkpt>
      <trkpt lat="45.6686" lon="6.40705">
        <ele>326.6</ele>
        <time>2021-06-01T09:22:50Z</time>
      </trkpt>
      <trkpt lat="45.66861" lon="6.40695">
        <ele>326.4</ele>
        <time>2021-06-01T09:22:51Z</time>
      </trkpt>
      <trkpt lat="45.66863" lon="6.40685">
        <ele>326.4</ele>
        <time>2021-06-01T09:22:52Z</time>
      </trkpt>
      <trkpt lat="45.66864" lon="6.40675">
        <ele>326.4</ele>
        <time>2021-06-01T09:22:53Z</time>
      </trkpt>
      <trkpt lat="45.66864" lon="6.40665">
        <ele>326.2</ele>
        <time>2021-06-01T09:22:54Z</time>
      </trkpt>
      <trkpt lat="45.66864" lon="6.40655">
        <ele>326.2</ele>
        <time>2021-06-01T09:22:55Z</time>
      </trkpt>
      <trkpt lat="45.66864" lon="6.40645">
        <ele>325.8</ele>
        <time>2021-06-01T09:22:56Z</time>
      </trkpt>
      <trkpt lat="45.66864" lon="6.40633">
        <ele>325.2</ele>
        <time>2021-06-01T09:22:57Z</time>
      </trkpt>
      <trkpt lat="45.66865" lon="6.40623">
        <ele>325.2</ele>
        <time>2021-06-01T09:22:58Z</time>
      </trkpt>
      <trkpt lat="45.66865" lon="6.40612">
        <ele>325.2</ele>
        <time>2021-06-01T09:22:59Z</time>
      </trkpt>
      <trkpt lat="45.66865" lon="6.40601">
        <ele>325.2</ele>
        <time>2021-06-01T09:23:00Z</time>
      </trkpt>
      <trkpt lat="45.66865" lon="6.4059">
        <ele>325</ele>
        <time>2021-06-01T09:23:01Z</time>
      </trkpt>
      <trkpt lat="45.66865" lon="6.40578">
        <ele>325</ele>
        <time>2021-06-01T09:23:02Z</time>
      </trkpt>
      <trkpt lat="45.66865" lon="6.40567">
        <ele>324.8</ele>
        <time>2021-06-01T09:23:03Z</time>
      </trkpt>
      <trkpt lat="45.66865" lon="6.40556">
        <ele>325</ele>
        <time>2021-06-01T09:23:04Z</time>
      </trkpt>
      <trkpt lat="45.66864" lon="6.40546">
        <ele>324.8</ele>
        <time>2021-06-01T09:23:05Z</time>
      </trkpt>
      <trkpt lat="45.66864" lon="6.40535">
        <ele>324.4</ele>
        <time>2021-06-01T09:23:06Z</time>
      </trkpt>
      <trkpt lat="45.66863" lon="6.40524">
        <ele>324.2</ele>
        <time>2021-06-01T09:23:07Z</time>
      </trkpt>
      <trkpt lat="45.66864" lon="6.40514">
        <ele>323.8</ele>
        <time>2021-06-01T09:23:08Z</time>
      </trkpt>
      <trkpt lat="45.66864" lon="6.40503">
        <ele>323.8</ele>
        <time>2021-06-01T09:23:09Z</time>
      </trkpt>
      <trkpt lat="45.66863" lon="6.40492">
        <ele>323.8</ele>
        <time>2021-06-01T09:23:10Z</time>
      </trkpt>
      <trkpt lat="45.66863" lon="6.40481">
        <ele>323.8</ele>
        <time>2021-06-01T09:23:11Z</time>
      </trkpt>
      <trkpt lat="45.66864" lon="6.4047">
        <ele>323.8</ele>
        <time>2021-06-01T09:23:12Z</time>
      </trkpt>
      <trkpt lat="45.66867" lon="6.4046">
        <ele>323.8</ele>
        <time>2021-06-01T09:23:13Z</time>
      </trkpt>
      <trkpt lat="45.66869" lon="6.4045">
        <ele>323.6</ele>
        <time>2021-06-01T09:23:14Z</time>
      </trkpt>
      <trkpt lat="45.66872" lon="6.40441">
        <ele>323.8</ele>
        <time>2021-06-01T09:23:15Z</time>
      </trkpt>
      <trkpt lat="45.66873" lon="6.4043">
        <ele>323.8</ele>
        <time>2021-06-01T09:23:16Z</time>
      </trkpt>
      <trkpt lat="45.66876" lon="6.40419">
        <ele>324</ele>
        <time>2021-06-01T09:23:17Z</time>
      </trkpt>
      <trkpt lat="45.66878" lon="6.40409">
        <ele>324</ele>
        <time>2021-06-01T09:23:18Z</time>
      </trkpt>
      <trkpt lat="45.6688" lon="6.40398">
        <ele>323.6</ele>
        <time>2021-06-01T09:23:19Z</time>
      </trkpt>
      <trkpt lat="45.66882" lon="6.40386">
        <ele>323.6</ele>
        <time>2021-06-01T09:23:20Z</time>
      </trkpt>
      <trkpt lat="45.66885" lon="6.40375">
        <ele>323.8</ele>
        <time>2021-06-01T09:23:21Z</time>
      </trkpt>
      <trkpt lat="45.66888" lon="6.40364">
        <ele>323.8</ele>
        <time>2021-06-01T09:23:22Z</time>
      </trkpt>
      <trkpt lat="45.66891" lon="6.40353">
        <ele>323.6</ele>
        <time>2021-06-01T09:23:23Z</time>
      </trkpt>
      <trkpt lat="45.66893" lon="6.40341">
        <ele>323.2</ele>
        <time>2021-06-01T09:23:24Z</time>
      </trkpt>
      <trkpt lat="45.66895" lon="6.40329">
        <ele>322.8</ele>
        <time>2021-06-01T09:23:25Z</time>
      </trkpt>
      <trkpt lat="45.66896" lon="6.40317">
        <ele>322.6</ele>
        <time>2021-06-01T09:23:26Z</time>
      </trkpt>
      <trkpt lat="45.66897" lon="6.40306">
        <ele>322.4</ele>
        <time>2021-06-01T09:23:27Z</time>
      </trkpt>
      <trkpt lat="45.66898" lon="6.40295">
        <ele>322.2</ele>
        <time>2021-06-01T09:23:28Z</time>
      </trkpt>
      <trkpt lat="45.66898" lon="6.40284">
        <ele>322.2</ele>
        <time>2021-06-01T09:23:29Z</time>
      </trkpt>
      <trkpt lat="45.66898" lon="6.40273">
        <ele>321.8</ele>
        <time>2021-06-01T09:23:30Z</time>
      </trkpt>
      <trkpt lat="45.66898" lon="6.40261">
        <ele>321.6</ele>
        <time>2021-06-01T09:23:31Z</time>
      </trkpt>
      <trkpt lat="45.66897" lon="6.4025">
        <ele>321.2</ele>
        <time>2021-06-01T09:23:32Z</time>
      </trkpt>
      <trkpt lat="45.66896" lon="6.4024">
        <ele>321.2</ele>
        <time>2021-06-01T09:23:33Z</time>
      </trkpt>
      <trkpt lat="45.66893" lon="6.40229">
        <ele>321.6</ele>
        <time>2021-06-01T09:23:34Z</time>
      </trkpt>
      <trkpt lat="45.66892" lon="6.40218">
        <ele>322</ele>
        <time>2021-06-01T09:23:35Z</time>
      </trkpt>
      <trkpt lat="45.6689" lon="6.40208">
        <ele>322</ele>
        <time>2021-06-01T09:23:36Z</time>
      </trkpt>
      <trkpt lat="45.66888" lon="6.40197">
        <ele>322.2</ele>
        <time>2021-06-01T09:23:37Z</time>
      </trkpt>
      <trkpt lat="45.66886" lon="6.40187">
        <ele>322.4</ele>
        <time>2021-06-01T09:23:38Z</time>
      </trkpt>
      <trkpt lat="45.66884" lon="6.40177">
        <ele>322.4</ele>
        <time>2021-06-01T09:23:39Z</time>
      </trkpt>
      <trkpt lat="45.66882" lon="6.40167">
        <ele>322.2</ele>
        <time>2021-06-01T09:23:40Z</time>
      </trkpt>
      <trkpt lat="45.6688" lon="6.40157">
        <ele>322</ele>
        <time>2021-06-01T09:23:41Z</time>
      </trkpt>
      <trkpt lat="45.66877" lon="6.40147">
        <ele>321.8</ele>
        <time>2021-06-01T09:23:42Z</time>
      </trkpt>
      <trkpt lat="45.66875" lon="6.40137">
        <ele>321.6</ele>
        <time>2021-06-01T09:23:43Z</time>
      </trkpt>
      <trkpt lat="45.66872" lon="6.40127">
        <ele>321.4</ele>
        <time>2021-06-01T09:23:44Z</time>
      </trkpt>
      <trkpt lat="45.66869" lon="6.40118">
        <ele>320.8</ele>
        <time>2021-06-01T09:23:45Z</time>
      </trkpt>
      <trkpt lat="45.66866" lon="6.40109">
        <ele>320.4</ele>
        <time>2021-06-01T09:23:46Z</time>
      </trkpt>
      <trkpt lat="45.66861" lon="6.40101">
        <ele>320.2</ele>
        <time>2021-06-01T09:23:47Z</time>
      </trkpt>
      <trkpt lat="45.66857" lon="6.40092">
        <ele>319.8</ele>
        <time>2021-06-01T09:23:48Z</time>
      </trkpt>
      <trkpt lat="45.66852" lon="6.40084">
        <ele>319.4</ele>
        <time>2021-06-01T09:23:49Z</time>
      </trkpt>
      <trkpt lat="45.66847" lon="6.40075">
        <ele>318.4</ele>
        <time>2021-06-01T09:23:50Z</time>
      </trkpt>
      <trkpt lat="45.66842" lon="6.40066">
        <ele>318.2</ele>
        <time>2021-06-01T09:23:51Z</time>
      </trkpt>
      <trkpt lat="45.66837" lon="6.40058">
        <ele>318.4</ele>
        <time>2021-06-01T09:23:52Z</time>
      </trkpt>
      <trkpt lat="45.66832" lon="6.4005">
        <ele>318.6</ele>
        <time>2021-06-01T09:23:53Z</time>
      </trkpt>
      <trkpt lat="45.66827" lon="6.40042">
        <ele>318</ele>
        <time>2021-06-01T09:23:54Z</time>
      </trkpt>
      <trkpt lat="45.66822" lon="6.40034">
        <ele>317.8</ele>
        <time>2021-06-01T09:23:55Z</time>
      </trkpt>
      <trkpt lat="45.66816" lon="6.40026">
        <ele>317.8</ele>
        <time>2021-06-01T09:23:56Z</time>
      </trkpt>
      <trkpt lat="45.66811" lon="6.40018">
        <ele>317.8</ele>
        <time>2021-06-01T09:23:57Z</time>
      </trkpt>
      <trkpt lat="45.66806" lon="6.40009">
        <ele>317.4</ele>
        <time>2021-06-01T09:23:58Z</time>
      </trkpt>
      <trkpt lat="45.66801" lon="6.39999">
        <ele>317.8</ele>
        <time>2021-06-01T09:23:59Z</time>
      </trkpt>
      <trkpt lat="45.66796" lon="6.39991">
        <ele>318</ele>
        <time>2021-06-01T09:24:00Z</time>
      </trkpt>
      <trkpt lat="45.66793" lon="6.39981">
        <ele>318</ele>
        <time>2021-06-01T09:24:01Z</time>
      </trkpt>
      <trkpt lat="45.6679" lon="6.3997">
        <ele>317.6</ele>
        <time>2021-06-01T09:24:02Z</time>
      </trkpt>
      <trkpt lat="45.66787" lon="6.3996">
        <ele>317.6</ele>
        <time>2021-06-01T09:24:03Z</time>
      </trkpt>
      <trkpt lat="45.66785" lon="6.3995">
        <ele>317.6</ele>
        <time>2021-06-01T09:24:04Z</time>
      </trkpt>
      <trkpt lat="45.66783" lon="6.39939">
        <ele>317.6</ele>
        <time>2021-06-01T09:24:05Z</time>
      </trkpt>
      <trkpt lat="45.66781" lon="6.39928">
        <ele>317.8</ele>
        <time>2021-06-01T09:24:06Z</time>
      </trkpt>
      <trkpt lat="45.66779" lon="6.39918">
        <ele>317.8</ele>
        <time>2021-06-01T09:24:07Z</time>
      </trkpt>
      <trkpt lat="45.66777" lon="6.39906">
        <ele>318.2</ele>
        <time>2021-06-01T09:24:08Z</time>
      </trkpt>
      <trkpt lat="45.66775" lon="6.39896">
        <ele>318.2</ele>
        <time>2021-06-01T09:24:09Z</time>
      </trkpt>
      <trkpt lat="45.66774" lon="6.39885">
        <ele>318</ele>
        <time>2021-06-01T09:24:10Z</time>
      </trkpt>
      <trkpt lat="45.66773" lon="6.39875">
        <ele>318.2</ele>
        <time>2021-06-01T09:24:11Z</time>
      </trkpt>
      <trkpt lat="45.66771" lon="6.39864">
        <ele>318.4</ele>
        <time>2021-06-01T09:24:12Z</time>
      </trkpt>
      <trkpt lat="45.66767" lon="6.39853">
        <ele>318.4</ele>
        <time>2021-06-01T09:24:13Z</time>
      </trkpt>
      <trkpt lat="45.66766" lon="6.39842">
        <ele>318.4</ele>
        <time>2021-06-01T09:24:14Z</time>
      </trkpt>
      <trkpt lat="45.66765" lon="6.39831">
        <ele>318.8</ele>
        <time>2021-06-01T09:24:15Z</time>
      </trkpt>
      <trkpt lat="45.66764" lon="6.39819">
        <ele>319</ele>
        <time>2021-06-01T09:24:16Z</time>
      </trkpt>
      <trkpt lat="45.66763" lon="6.39808">
        <ele>319</ele>
        <time>2021-06-01T09:24:17Z</time>
      </trkpt>
      <trkpt lat="45.66763" lon="6.39797">
        <ele>319</ele>
        <time>2021-06-01T09:24:18Z</time>
      </trkpt>
      <trkpt lat="45.66763" lon="6.39786">
        <ele>319.2</ele>
        <time>2021-06-01T09:24:19Z</time>
      </trkpt>
      <trkpt lat="45.66763" lon="6.39776">
        <ele>319.4</ele>
        <time>2021-06-01T09:24:20Z</time>
      </trkpt>
      <trkpt lat="45.66763" lon="6.39764">
        <ele>319.6</ele>
        <time>2021-06-01T09:24:21Z</time>
      </trkpt>
      <trkpt lat="45.66763" lon="6.39753">
        <ele>319.8</ele>
        <time>2021-06-01T09:24:22Z</time>
      </trkpt>
      <trkpt lat="45.66763" lon="6.39742">
        <ele>319.4</ele>
        <time>2021-06-01T09:24:23Z</time>
      </trkpt>
      <trkpt lat="45.66764" lon="6.39732">
        <ele>319.6</ele>
        <time>2021-06-01T09:24:24Z</time>
      </trkpt>
      <trkpt lat="45.66764" lon="6.39721">
        <ele>319.6</ele>
        <time>2021-06-01T09:24:25Z</time>
      </trkpt>
      <trkpt lat="45.66764" lon="6.3971">
        <ele>319.6</ele>
        <time>2021-06-01T09:24:26Z</time>
      </trkpt>
      <trkpt lat="45.66764" lon="6.39699">
        <ele>319.6</ele>
        <time>2021-06-01T09:24:27Z</time>
      </trkpt>
      <trkpt lat="45.66765" lon="6.39688">
        <ele>319.2</ele>
        <time>2021-06-01T09:24:28Z</time>
      </trkpt>
      <trkpt lat="45.66766" lon="6.39677">
        <ele>319.2</ele>
        <time>2021-06-01T09:24:29Z</time>
      </trkpt>
      <trkpt lat="45.66767" lon="6.39667">
        <ele>319.4</ele>
        <time>2021-06-01T09:24:30Z</time>
      </trkpt>
      <trkpt lat="45.66769" lon="6.39657">
        <ele>319.8</ele>
        <time>2021-06-01T09:24:31Z</time>
      </trkpt>
      <trkpt lat="45.66771" lon="6.39647">
        <ele>319.8</ele>
        <time>2021-06-01T09:24:32Z</time>
      </trkpt>
      <trkpt lat="45.66774" lon="6.39636">
        <ele>320.4</ele>
        <time>2021-06-01T09:24:33Z</time>
      </trkpt>
      <trkpt lat="45.66777" lon="6.39626">
        <ele>320.8</ele>
        <time>2021-06-01T09:24:34Z</time>
      </trkpt>
      <trkpt lat="45.66779" lon="6.39617">
        <ele>321.6</ele>
        <time>2021-06-01T09:24:35Z</time>
      </trkpt>
      <trkpt lat="45.66782" lon="6.39607">
        <ele>321.8</ele>
        <time>2021-06-01T09:24:36Z</time>
      </trkpt>
      <trkpt lat="45.66785" lon="6.39597">
        <ele>322.2</ele>
        <time>2021-06-01T09:24:37Z</time>
      </trkpt>
      <trkpt lat="45.66787" lon="6.39587">
        <ele>322.4</ele>
        <time>2021-06-01T09:24:38Z</time>
      </trkpt>
      <trkpt lat="45.6679" lon="6.39578">
        <ele>322.4</ele>
        <time>2021-06-01T09:24:39Z</time>
      </trkpt>
      <trkpt lat="45.66793" lon="6.39569">
        <ele>322.6</ele>
        <time>2021-06-01T09:24:40Z</time>
      </trkpt>
      <trkpt lat="45.66795" lon="6.3956">
        <ele>323</ele>
        <time>2021-06-01T09:24:41Z</time>
      </trkpt>
      <trkpt lat="45.66798" lon="6.3955">
        <ele>323</ele>
        <time>2021-06-01T09:24:42Z</time>
      </trkpt>
      <trkpt lat="45.66802" lon="6.39541">
        <ele>323.2</ele>
        <time>2021-06-01T09:24:43Z</time>
      </trkpt>
      <trkpt lat="45.66804" lon="6.39533">
        <ele>323.2</ele>
        <time>2021-06-01T09:24:44Z</time>
      </trkpt>
      <trkpt lat="45.66808" lon="6.39525">
        <ele>323.2</ele>
        <time>2021-06-01T09:24:45Z</time>
      </trkpt>
      <trkpt lat="45.66812" lon="6.39517">
        <ele>323.2</ele>
        <time>2021-06-01T09:24:46Z</time>
      </trkpt>
      <trkpt lat="45.66815" lon="6.3951">
        <ele>323</ele>
        <time>2021-06-01T09:24:47Z</time>
      </trkpt>
      <trkpt lat="45.66819" lon="6.39503">
        <ele>323.4</ele>
        <time>2021-06-01T09:24:48Z</time>
      </trkpt>
      <trkpt lat="45.66822" lon="6.39497">
        <ele>323.2</ele>
        <time>2021-06-01T09:24:49Z</time>
      </trkpt>
      <trkpt lat="45.66825" lon="6.39491">
        <ele>323.2</ele>
        <time>2021-06-01T09:24:50Z</time>
      </trkpt>
      <trkpt lat="45.66828" lon="6.39486">
        <ele>323.2</ele>
        <time>2021-06-01T09:24:51Z</time>
      </trkpt>
      <trkpt lat="45.6683" lon="6.39482">
        <ele>323.4</ele>
        <time>2021-06-01T09:24:52Z</time>
      </trkpt>
      <trkpt lat="45.66833" lon="6.39479">
        <ele>323.2</ele>
        <time>2021-06-01T09:24:53Z</time>
      </trkpt>
      <trkpt lat="45.66836" lon="6.39476">
        <ele>323</ele>
        <time>2021-06-01T09:24:54Z</time>
      </trkpt>
      <trkpt lat="45.66838" lon="6.39474">
        <ele>323</ele>
        <time>2021-06-01T09:24:55Z</time>
      </trkpt>
      <trkpt lat="45.66841" lon="6.39471">
        <ele>322.6</ele>
        <time>2021-06-01T09:24:56Z</time>
      </trkpt>
      <trkpt lat="45.66844" lon="6.39468">
        <ele>322.6</ele>
        <time>2021-06-01T09:24:57Z</time>
      </trkpt>
      <trkpt lat="45.66848" lon="6.39466">
        <ele>322.8</ele>
        <time>2021-06-01T09:24:58Z</time>
      </trkpt>
      <trkpt lat="45.66852" lon="6.39463">
        <ele>322.8</ele>
        <time>2021-06-01T09:24:59Z</time>
      </trkpt>
      <trkpt lat="45.66855" lon="6.39462">
        <ele>322.4</ele>
        <time>2021-06-01T09:25:00Z</time>
      </trkpt>
      <trkpt lat="45.66858" lon="6.3946">
        <ele>322</ele>
        <time>2021-06-01T09:25:01Z</time>
      </trkpt>
      <trkpt lat="45.66861" lon="6.39459">
        <ele>321.6</ele>
        <time>2021-06-01T09:25:02Z</time>
      </trkpt>
      <trkpt lat="45.66864" lon="6.39458">
        <ele>321</ele>
        <time>2021-06-01T09:25:03Z</time>
      </trkpt>
      <trkpt lat="45.66868" lon="6.39458">
        <ele>320.4</ele>
        <time>2021-06-01T09:25:04Z</time>
      </trkpt>
      <trkpt lat="45.66873" lon="6.39457">
        <ele>320.2</ele>
        <time>2021-06-01T09:25:05Z</time>
      </trkpt>
      <trkpt lat="45.66877" lon="6.39457">
        <ele>320.2</ele>
        <time>2021-06-01T09:25:06Z</time>
      </trkpt>
      <trkpt lat="45.66882" lon="6.39457">
        <ele>320</ele>
        <time>2021-06-01T09:25:07Z</time>
      </trkpt>
      <trkpt lat="45.66886" lon="6.39456">
        <ele>320.4</ele>
        <time>2021-06-01T09:25:08Z</time>
      </trkpt>
      <trkpt lat="45.66891" lon="6.39455">
        <ele>320.4</ele>
        <time>2021-06-01T09:25:09Z</time>
      </trkpt>
      <trkpt lat="45.66896" lon="6.39455">
        <ele>320.6</ele>
        <time>2021-06-01T09:25:10Z</time>
      </trkpt>
      <trkpt lat="45.66902" lon="6.39457">
        <ele>320.8</ele>
        <time>2021-06-01T09:25:11Z</time>
      </trkpt>
      <trkpt lat="45.66907" lon="6.39457">
        <ele>320.8</ele>
        <time>2021-06-01T09:25:12Z</time>
      </trkpt>
      <trkpt lat="45.66912" lon="6.39457">
        <ele>321</ele>
        <time>2021-06-01T09:25:13Z</time>
      </trkpt>
      <trkpt lat="45.66917" lon="6.39457">
        <ele>321</ele>
        <time>2021-06-01T09:25:14Z</time>
      </trkpt>
      <trkpt lat="45.66922" lon="6.39456">
        <ele>321</ele>
        <time>2021-06-01T09:25:15Z</time>
      </trkpt>
      <trkpt lat="45.66926" lon="6.39456">
        <ele>320.8</ele>
        <time>2021-06-01T09:25:16Z</time>
      </trkpt>
      <trkpt lat="45.6693" lon="6.39456">
        <ele>320.8</ele>
        <time>2021-06-01T09:25:17Z</time>
      </trkpt>
      <trkpt lat="45.66934" lon="6.39454">
        <ele>320.8</ele>
        <time>2021-06-01T09:25:18Z</time>
      </trkpt>
      <trkpt lat="45.66939" lon="6.39453">
        <ele>321</ele>
        <time>2021-06-01T09:25:19Z</time>
      </trkpt>
      <trkpt lat="45.66943" lon="6.39452">
        <ele>321.2</ele>
        <time>2021-06-01T09:25:20Z</time>
      </trkpt>
      <trkpt lat="45.66949" lon="6.39451">
        <ele>321.6</ele>
        <time>2021-06-01T09:25:21Z</time>
      </trkpt>
      <trkpt lat="45.66955" lon="6.3945">
        <ele>321.8</ele>
        <time>2021-06-01T09:25:22Z</time>
      </trkpt>
      <trkpt lat="45.6696" lon="6.39448">
        <ele>322.2</ele>
        <time>2021-06-01T09:25:23Z</time>
      </trkpt>
      <trkpt lat="45.66965" lon="6.39447">
        <ele>322.4</ele>
        <time>2021-06-01T09:25:24Z</time>
      </trkpt>
      <trkpt lat="45.66971" lon="6.39446">
        <ele>322.6</ele>
        <time>2021-06-01T09:25:25Z</time>
      </trkpt>
      <trkpt lat="45.66976" lon="6.39444">
        <ele>322.8</ele>
        <time>2021-06-01T09:25:26Z</time>
      </trkpt>
      <trkpt lat="45.66981" lon="6.39443">
        <ele>323</ele>
        <time>2021-06-01T09:25:27Z</time>
      </trkpt>
      <trkpt lat="45.66987" lon="6.39443">
        <ele>323</ele>
        <time>2021-06-01T09:25:28Z</time>
      </trkpt>
      <trkpt lat="45.66992" lon="6.39442">
        <ele>323.4</ele>
        <time>2021-06-01T09:25:29Z</time>
      </trkpt>
      <trkpt lat="45.66997" lon="6.39441">
        <ele>323.6</ele>
        <time>2021-06-01T09:25:30Z</time>
      </trkpt>
      <trkpt lat="45.67003" lon="6.39439">
        <ele>323.8</ele>
        <time>2021-06-01T09:25:31Z</time>
      </trkpt>
      <trkpt lat="45.67009" lon="6.39437">
        <ele>323.8</ele>
        <time>2021-06-01T09:25:32Z</time>
      </trkpt>
      <trkpt lat="45.67015" lon="6.39435">
        <ele>323.8</ele>
        <time>2021-06-01T09:25:33Z</time>
      </trkpt>
      <trkpt lat="45.67021" lon="6.39434">
        <ele>323.4</ele>
        <time>2021-06-01T09:25:34Z</time>
      </trkpt>
      <trkpt lat="45.67027" lon="6.39433">
        <ele>323.6</ele>
        <time>2021-06-01T09:25:35Z</time>
      </trkpt>
      <trkpt lat="45.67033" lon="6.39433">
        <ele>323.6</ele>
        <time>2021-06-01T09:25:36Z</time>
      </trkpt>
      <trkpt lat="45.67039" lon="6.39433">
        <ele>323.4</ele>
        <time>2021-06-01T09:25:37Z</time>
      </trkpt>
      <trkpt lat="45.67046" lon="6.39433">
        <ele>323.6</ele>
        <time>2021-06-01T09:25:38Z</time>
      </trkpt>
      <trkpt lat="45.67052" lon="6.39433">
        <ele>323.6</ele>
        <time>2021-06-01T09:25:39Z</time>
      </trkpt>
      <trkpt lat="45.67058" lon="6.39432">
        <ele>323.8</ele>
        <time>2021-06-01T09:25:40Z</time>
      </trkpt>
      <trkpt lat="45.67065" lon="6.39431">
        <ele>323.8</ele>
        <time>2021-06-01T09:25:41Z</time>
      </trkpt>
      <trkpt lat="45.67072" lon="6.39431">
        <ele>324</ele>
        <time>2021-06-01T09:25:42Z</time>
      </trkpt>
      <trkpt lat="45.67078" lon="6.3943">
        <ele>324.4</ele>
        <time>2021-06-01T09:25:43Z</time>
      </trkpt>
      <trkpt lat="45.67084" lon="6.39429">
        <ele>324.8</ele>
        <time>2021-06-01T09:25:44Z</time>
      </trkpt>
      <trkpt lat="45.6709" lon="6.39428">
        <ele>324.8</ele>
        <time>2021-06-01T09:25:45Z</time>
      </trkpt>
      <trkpt lat="45.67097" lon="6.39428">
        <ele>325.2</ele>
        <time>2021-06-01T09:25:46Z</time>
      </trkpt>
      <trkpt lat="45.67103" lon="6.39428">
        <ele>325.4</ele>
        <time>2021-06-01T09:25:47Z</time>
      </trkpt>
      <trkpt lat="45.6711" lon="6.39428">
        <ele>325.6</ele>
        <time>2021-06-01T09:25:48Z</time>
      </trkpt>
      <trkpt lat="45.67116" lon="6.39429">
        <ele>325.8</ele>
        <time>2021-06-01T09:25:49Z</time>
      </trkpt>
      <trkpt lat="45.67123" lon="6.3943">
        <ele>326.2</ele>
        <time>2021-06-01T09:25:50Z</time>
      </trkpt>
      <trkpt lat="45.67129" lon="6.39431">
        <ele>326.4</ele>
        <time>2021-06-01T09:25:51Z</time>
      </trkpt>
      <trkpt lat="45.67136" lon="6.39433">
        <ele>326.6</ele>
        <time>2021-06-01T09:25:52Z</time>
      </trkpt>
      <trkpt lat="45.67142" lon="6.39435">
        <ele>326.8</ele>
        <time>2021-06-01T09:25:53Z</time>
      </trkpt>
      <trkpt lat="45.67149" lon="6.39436">
        <ele>327</ele>
        <time>2021-06-01T09:25:54Z</time>
      </trkpt>
      <trkpt lat="45.67156" lon="6.39438">
        <ele>327.2</ele>
        <time>2021-06-01T09:25:55Z</time>
      </trkpt>
      <trkpt lat="45.67162" lon="6.3944">
        <ele>327.2</ele>
        <time>2021-06-01T09:25:56Z</time>
      </trkpt>
      <trkpt lat="45.67168" lon="6.39441">
        <ele>327.2</ele>
        <time>2021-06-01T09:25:57Z</time>
      </trkpt>
      <trkpt lat="45.67175" lon="6.39443">
        <ele>327.4</ele>
        <time>2021-06-01T09:25:58Z</time>
      </trkpt>
      <trkpt lat="45.67182" lon="6.39444">
        <ele>327.8</ele>
        <time>2021-06-01T09:25:59Z</time>
      </trkpt>
      <trkpt lat="45.67189" lon="6.39446">
        <ele>327.8</ele>
        <time>2021-06-01T09:26:00Z</time>
      </trkpt>
      <trkpt lat="45.67196" lon="6.39447">
        <ele>328.2</ele>
        <time>2021-06-01T09:26:01Z</time>
      </trkpt>
      <trkpt lat="45.67202" lon="6.39449">
        <ele>328</ele>
        <time>2021-06-01T09:26:02Z</time>
      </trkpt>
      <trkpt lat="45.67209" lon="6.3945">
        <ele>328</ele>
        <time>2021-06-01T09:26:03Z</time>
      </trkpt>
      <trkpt lat="45.67215" lon="6.39452">
        <ele>328</ele>
        <time>2021-06-01T09:26:04Z</time>
      </trkpt>
      <trkpt lat="45.67221" lon="6.39453">
        <ele>328</ele>
        <time>2021-06-01T09:26:05Z</time>
      </trkpt>
      <trkpt lat="45.67228" lon="6.39455">
        <ele>328.2</ele>
        <time>2021-06-01T09:26:06Z</time>
      </trkpt>
      <trkpt lat="45.67235" lon="6.39456">
        <ele>328</ele>
        <time>2021-06-01T09:26:07Z</time>
      </trkpt>
      <trkpt lat="45.67241" lon="6.39458">
        <ele>328.2</ele>
        <time>2021-06-01T09:26:08Z</time>
      </trkpt>
      <trkpt lat="45.67248" lon="6.39459">
        <ele>328</ele>
        <time>2021-06-01T09:26:09Z</time>
      </trkpt>
      <trkpt lat="45.67255" lon="6.39461">
        <ele>328</ele>
        <time>2021-06-01T09:26:10Z</time>
      </trkpt>
      <trkpt lat="45.67261" lon="6.39463">
        <ele>328</ele>
        <time>2021-06-01T09:26:11Z</time>
      </trkpt>
      <trkpt lat="45.67268" lon="6.39465">
        <ele>328.2</ele>
        <time>2021-06-01T09:26:12Z</time>
      </trkpt>
      <trkpt lat="45.67273" lon="6.39467">
        <ele>328.2</ele>
        <time>2021-06-01T09:26:13Z</time>
      </trkpt>
      <trkpt lat="45.67279" lon="6.39468">
        <ele>328.4</ele>
        <time>2021-06-01T09:26:14Z</time>
      </trkpt>
      <trkpt lat="45.67286" lon="6.3947">
        <ele>328.6</ele>
        <time>2021-06-01T09:26:15Z</time>
      </trkpt>
      <trkpt lat="45.67293" lon="6.39471">
        <ele>328.6</ele>
        <time>2021-06-01T09:26:16Z</time>
      </trkpt>
      <trkpt lat="45.67301" lon="6.39473">
        <ele>328.6</ele>
        <time>2021-06-01T09:26:17Z</time>
      </trkpt>
      <trkpt lat="45.67308" lon="6.39475">
        <ele>328.6</ele>
        <time>2021-06-01T09:26:18Z</time>
      </trkpt>
      <trkpt lat="45.67315" lon="6.39477">
        <ele>328.6</ele>
        <time>2021-06-01T09:26:19Z</time>
      </trkpt>
      <trkpt lat="45.67322" lon="6.39478">
        <ele>328.4</ele>
        <time>2021-06-01T09:26:20Z</time>
      </trkpt>
      <trkpt lat="45.67329" lon="6.39479">
        <ele>328</ele>
        <time>2021-06-01T09:26:21Z</time>
      </trkpt>
      <trkpt lat="45.67337" lon="6.39481">
        <ele>328</ele>
        <time>2021-06-01T09:26:22Z</time>
      </trkpt>
      <trkpt lat="45.67344" lon="6.39482">
        <ele>328.4</ele>
        <time>2021-06-01T09:26:23Z</time>
      </trkpt>
      <trkpt lat="45.67352" lon="6.39484">
        <ele>328.6</ele>
        <time>2021-06-01T09:26:24Z</time>
      </trkpt>
      <trkpt lat="45.6736" lon="6.39486">
        <ele>328.8</ele>
        <time>2021-06-01T09:26:25Z</time>
      </trkpt>
      <trkpt lat="45.67368" lon="6.39487">
        <ele>328.8</ele>
        <time>2021-06-01T09:26:26Z</time>
      </trkpt>
      <trkpt lat="45.67375" lon="6.39489">
        <ele>329.2</ele>
        <time>2021-06-01T09:26:27Z</time>
      </trkpt>
      <trkpt lat="45.67382" lon="6.39491">
        <ele>329.2</ele>
        <time>2021-06-01T09:26:28Z</time>
      </trkpt>
      <trkpt lat="45.67389" lon="6.39492">
        <ele>329.6</ele>
        <time>2021-06-01T09:26:29Z</time>
      </trkpt>
      <trkpt lat="45.67396" lon="6.39494">
        <ele>329.6</ele>
        <time>2021-06-01T09:26:30Z</time>
      </trkpt>
      <trkpt lat="45.67403" lon="6.39496">
        <ele>330</ele>
        <time>2021-06-01T09:26:31Z</time>
      </trkpt>
      <trkpt lat="45.6741" lon="6.39497">
        <ele>330.4</ele>
        <time>2021-06-01T09:26:32Z</time>
      </trkpt>
      <trkpt lat="45.67416" lon="6.39498">
        <ele>330.6</ele>
        <time>2021-06-01T09:26:33Z</time>
      </trkpt>
      <trkpt lat="45.67424" lon="6.395">
        <ele>330.6</ele>
        <time>2021-06-01T09:26:34Z</time>
      </trkpt>
      <trkpt lat="45.6743" lon="6.39501">
        <ele>330.4</ele>
        <time>2021-06-01T09:26:35Z</time>
      </trkpt>
      <trkpt lat="45.67437" lon="6.39502">
        <ele>330.6</ele>
        <time>2021-06-01T09:26:36Z</time>
      </trkpt>
      <trkpt lat="45.67444" lon="6.39504">
        <ele>330.8</ele>
        <time>2021-06-01T09:26:37Z</time>
      </trkpt>
      <trkpt lat="45.67452" lon="6.39505">
        <ele>331</ele>
        <time>2021-06-01T09:26:38Z</time>
      </trkpt>
      <trkpt lat="45.67458" lon="6.39507">
        <ele>331</ele>
        <time>2021-06-01T09:26:39Z</time>
      </trkpt>
      <trkpt lat="45.67463" lon="6.39508">
        <ele>331.2</ele>
        <time>2021-06-01T09:26:40Z</time>
      </trkpt>
      <trkpt lat="45.67469" lon="6.3951">
        <ele>331.2</ele>
        <time>2021-06-01T09:26:41Z</time>
      </trkpt>
      <trkpt lat="45.67476" lon="6.39511">
        <ele>331.4</ele>
        <time>2021-06-01T09:26:42Z</time>
      </trkpt>
      <trkpt lat="45.67481" lon="6.39513">
        <ele>331.6</ele>
        <time>2021-06-01T09:26:43Z</time>
      </trkpt>
      <trkpt lat="45.67488" lon="6.39515">
        <ele>331.6</ele>
        <time>2021-06-01T09:26:44Z</time>
      </trkpt>
      <trkpt lat="45.67493" lon="6.39517">
        <ele>331.6</ele>
        <time>2021-06-01T09:26:45Z</time>
      </trkpt>
      <trkpt lat="45.675" lon="6.39519">
        <ele>331.8</ele>
        <time>2021-06-01T09:26:46Z</time>
      </trkpt>
      <trkpt lat="45.67507" lon="6.3952">
        <ele>331.6</ele>
        <time>2021-06-01T09:26:47Z</time>
      </trkpt>
      <trkpt lat="45.67514" lon="6.39521">
        <ele>331.4</ele>
        <time>2021-06-01T09:26:48Z</time>
      </trkpt>
      <trkpt lat="45.6752" lon="6.39523">
        <ele>331.6</ele>
        <time>2021-06-01T09:26:49Z</time>
      </trkpt>
      <trkpt lat="45.67527" lon="6.39524">
        <ele>332.2</ele>
        <time>2021-06-01T09:26:50Z</time>
      </trkpt>
      <trkpt lat="45.67534" lon="6.39525">
        <ele>332.4</ele>
        <time>2021-06-01T09:26:51Z</time>
      </trkpt>
      <trkpt lat="45.67541" lon="6.39527">
        <ele>332.8</ele>
        <time>2021-06-01T09:26:52Z</time>
      </trkpt>
      <trkpt lat="45.67548" lon="6.39528">
        <ele>332.8</ele>
        <time>2021-06-01T09:26:53Z</time>
      </trkpt>
      <trkpt lat="45.67554" lon="6.3953">
        <ele>332.6</ele>
        <time>2021-06-01T09:26:54Z</time>
      </trkpt>
      <trkpt lat="45.67559" lon="6.39532">
        <ele>332.8</ele>
        <time>2021-06-01T09:26:55Z</time>
      </trkpt>
      <trkpt lat="45.67564" lon="6.39534">
        <ele>332.6</ele>
        <time>2021-06-01T09:26:56Z</time>
      </trkpt>
      <trkpt lat="45.67569" lon="6.39536">
        <ele>332.6</ele>
        <time>2021-06-01T09:26:57Z</time>
      </trkpt>
      <trkpt lat="45.67575" lon="6.39538">
        <ele>332.2</ele>
        <time>2021-06-01T09:26:58Z</time>
      </trkpt>
      <trkpt lat="45.6758" lon="6.3954">
        <ele>332</ele>
        <time>2021-06-01T09:26:59Z</time>
      </trkpt>
      <trkpt lat="45.67584" lon="6.39542">
        <ele>331.8</ele>
        <time>2021-06-01T09:27:00Z</time>
      </trkpt>
      <trkpt lat="45.67588" lon="6.39542">
        <ele>331.6</ele>
        <time>2021-06-01T09:27:01Z</time>
      </trkpt>
      <trkpt lat="45.67593" lon="6.39542">
        <ele>331.4</ele>
        <time>2021-06-01T09:27:02Z</time>
      </trkpt>
      <trkpt lat="45.67597" lon="6.39543">
        <ele>331.2</ele>
        <time>2021-06-01T09:27:03Z</time>
      </trkpt>
      <trkpt lat="45.67603" lon="6.39544">
        <ele>331</ele>
        <time>2021-06-01T09:27:04Z</time>
      </trkpt>
      <trkpt lat="45.67607" lon="6.39544">
        <ele>331</ele>
        <time>2021-06-01T09:27:05Z</time>
      </trkpt>
      <trkpt lat="45.67612" lon="6.39546">
        <ele>330.6</ele>
        <time>2021-06-01T09:27:06Z</time>
      </trkpt>
      <trkpt lat="45.6762" lon="6.39547">
        <ele>330.6</ele>
        <time>2021-06-01T09:27:07Z</time>
      </trkpt>
      <trkpt lat="45.6763" lon="6.39548">
        <ele>330.4</ele>
        <time>2021-06-01T09:27:08Z</time>
      </trkpt>
      <trkpt lat="45.67636" lon="6.3955">
        <ele>330.6</ele>
        <time>2021-06-01T09:27:09Z</time>
      </trkpt>
      <trkpt lat="45.67643" lon="6.39553">
        <ele>330.8</ele>
        <time>2021-06-01T09:27:10Z</time>
      </trkpt>
      <trkpt lat="45.67648" lon="6.39555">
        <ele>331</ele>
        <time>2021-06-01T09:27:11Z</time>
      </trkpt>
      <trkpt lat="45.67654" lon="6.39557">
        <ele>331.2</ele>
        <time>2021-06-01T09:27:12Z</time>
      </trkpt>
      <trkpt lat="45.6766" lon="6.39559">
        <ele>331.6</ele>
        <time>2021-06-01T09:27:13Z</time>
      </trkpt>
      <trkpt lat="45.67664" lon="6.39561">
        <ele>332</ele>
        <time>2021-06-01T09:27:14Z</time>
      </trkpt>
      <trkpt lat="45.67668" lon="6.39562">
        <ele>332.2</ele>
        <time>2021-06-01T09:27:15Z</time>
      </trkpt>
      <trkpt lat="45.67673" lon="6.39564">
        <ele>332.6</ele>
        <time>2021-06-01T09:27:16Z</time>
      </trkpt>
      <trkpt lat="45.67677" lon="6.39566">
        <ele>333.2</ele>
        <time>2021-06-01T09:27:17Z</time>
      </trkpt>
      <trkpt lat="45.67682" lon="6.39568">
        <ele>333.8</ele>
        <time>2021-06-01T09:27:18Z</time>
      </trkpt>
      <trkpt lat="45.67687" lon="6.3957">
        <ele>334.2</ele>
        <time>2021-06-01T09:27:19Z</time>
      </trkpt>
      <trkpt lat="45.67692" lon="6.39572">
        <ele>334.8</ele>
        <time>2021-06-01T09:27:20Z</time>
      </trkpt>
      <trkpt lat="45.67699" lon="6.39573">
        <ele>335.2</ele>
        <time>2021-06-01T09:27:21Z</time>
      </trkpt>
      <trkpt lat="45.67704" lon="6.39575">
        <ele>335.6</ele>
        <time>2021-06-01T09:27:22Z</time>
      </trkpt>
      <trkpt lat="45.67708" lon="6.39577">
        <ele>336.2</ele>
        <time>2021-06-01T09:27:23Z</time>
      </trkpt>
      <trkpt lat="45.67713" lon="6.39578">
        <ele>336.8</ele>
        <time>2021-06-01T09:27:24Z</time>
      </trkpt>
      <trkpt lat="45.67718" lon="6.39581">
        <ele>337.2</ele>
        <time>2021-06-01T09:27:25Z</time>
      </trkpt>
      <trkpt lat="45.67723" lon="6.39583">
        <ele>337.4</ele>
        <time>2021-06-01T09:27:26Z</time>
      </trkpt>
      <trkpt lat="45.67727" lon="6.39586">
        <ele>337.8</ele>
        <time>2021-06-01T09:27:27Z</time>
      </trkpt>
      <trkpt lat="45.67732" lon="6.39588">
        <ele>338.2</ele>
        <time>2021-06-01T09:27:28Z</time>
      </trkpt>
      <trkpt lat="45.67736" lon="6.39592">
        <ele>338.8</ele>
        <time>2021-06-01T09:27:29Z</time>
      </trkpt>
      <trkpt lat="45.6774" lon="6.39596">
        <ele>339.2</ele>
        <time>2021-06-01T09:27:30Z</time>
      </trkpt>
      <trkpt lat="45.67743" lon="6.396">
        <ele>339.6</ele>
        <time>2021-06-01T09:27:31Z</time>
      </trkpt>
      <trkpt lat="45.67747" lon="6.39605">
        <ele>340</ele>
        <time>2021-06-01T09:27:32Z</time>
      </trkpt>
      <trkpt lat="45.6775" lon="6.39609">
        <ele>340.2</ele>
        <time>2021-06-01T09:27:33Z</time>
      </trkpt>
      <trkpt lat="45.67753" lon="6.39614">
        <ele>340.6</ele>
        <time>2021-06-01T09:27:34Z</time>
      </trkpt>
      <trkpt lat="45.67757" lon="6.39618">
        <ele>340.8</ele>
        <time>2021-06-01T09:27:35Z</time>
      </trkpt>
      <trkpt lat="45.67761" lon="6.39623">
        <ele>341.4</ele>
        <time>2021-06-01T09:27:36Z</time>
      </trkpt>
      <trkpt lat="45.67764" lon="6.39627">
        <ele>341.8</ele>
        <time>2021-06-01T09:27:37Z</time>
      </trkpt>
      <trkpt lat="45.67768" lon="6.3963">
        <ele>342</ele>
        <time>2021-06-01T09:27:38Z</time>
      </trkpt>
      <trkpt lat="45.67773" lon="6.39634">
        <ele>342.2</ele>
        <time>2021-06-01T09:27:39Z</time>
      </trkpt>
      <trkpt lat="45.67778" lon="6.39637">
        <ele>342.4</ele>
        <time>2021-06-01T09:27:40Z</time>
      </trkpt>
      <trkpt lat="45.67783" lon="6.3964">
        <ele>342.6</ele>
        <time>2021-06-01T09:27:41Z</time>
      </trkpt>
      <trkpt lat="45.67788" lon="6.39641">
        <ele>342.6</ele>
        <time>2021-06-01T09:27:42Z</time>
      </trkpt>
      <trkpt lat="45.67792" lon="6.39643">
        <ele>342.8</ele>
        <time>2021-06-01T09:27:43Z</time>
      </trkpt>
      <trkpt lat="45.67796" lon="6.39643">
        <ele>343.2</ele>
        <time>2021-06-01T09:27:44Z</time>
      </trkpt>
      <trkpt lat="45.67801" lon="6.39643">
        <ele>343.4</ele>
        <time>2021-06-01T09:27:45Z</time>
      </trkpt>
      <trkpt lat="45.67806" lon="6.39643">
        <ele>343.6</ele>
        <time>2021-06-01T09:27:46Z</time>
      </trkpt>
      <trkpt lat="45.67811" lon="6.39641">
        <ele>343.8</ele>
        <time>2021-06-01T09:27:47Z</time>
      </trkpt>
      <trkpt lat="45.67815" lon="6.39639">
        <ele>344</ele>
        <time>2021-06-01T09:27:48Z</time>
      </trkpt>
      <trkpt lat="45.6782" lon="6.39637">
        <ele>344.2</ele>
        <time>2021-06-01T09:27:49Z</time>
      </trkpt>
      <trkpt lat="45.67825" lon="6.39635">
        <ele>344.6</ele>
        <time>2021-06-01T09:27:50Z</time>
      </trkpt>
      <trkpt lat="45.67831" lon="6.39634">
        <ele>344.8</ele>
        <time>2021-06-01T09:27:51Z</time>
      </trkpt>
      <trkpt lat="45.67837" lon="6.39633">
        <ele>345</ele>
        <time>2021-06-01T09:27:52Z</time>
      </trkpt>
      <trkpt lat="45.67842" lon="6.39634">
        <ele>345.2</ele>
        <time>2021-06-01T09:27:53Z</time>
      </trkpt>
      <trkpt lat="45.67847" lon="6.39635">
        <ele>345.4</ele>
        <time>2021-06-01T09:27:54Z</time>
      </trkpt>
      <trkpt lat="45.67852" lon="6.39637">
        <ele>345.8</ele>
        <time>2021-06-01T09:27:55Z</time>
      </trkpt>
      <trkpt lat="45.67857" lon="6.39639">
        <ele>346</ele>
        <time>2021-06-01T09:27:56Z</time>
      </trkpt>
      <trkpt lat="45.67862" lon="6.39641">
        <ele>346.4</ele>
        <time>2021-06-01T09:27:57Z</time>
      </trkpt>
      <trkpt lat="45.67866" lon="6.39642">
        <ele>346.8</ele>
        <time>2021-06-01T09:27:58Z</time>
      </trkpt>
      <trkpt lat="45.6787" lon="6.39645">
        <ele>347</ele>
        <time>2021-06-01T09:27:59Z</time>
      </trkpt>
      <trkpt lat="45.67879" lon="6.39651">
        <ele>347.8</ele>
        <time>2021-06-01T09:28:01Z</time>
      </trkpt>
      <trkpt lat="45.67884" lon="6.39655">
        <ele>348.2</ele>
        <time>2021-06-01T09:28:02Z</time>
      </trkpt>
      <trkpt lat="45.67887" lon="6.39658">
        <ele>348.4</ele>
        <time>2021-06-01T09:28:03Z</time>
      </trkpt>
      <trkpt lat="45.67892" lon="6.39663">
        <ele>348.6</ele>
        <time>2021-06-01T09:28:04Z</time>
      </trkpt>
      <trkpt lat="45.67896" lon="6.39667">
        <ele>348.6</ele>
        <time>2021-06-01T09:28:05Z</time>
      </trkpt>
      <trkpt lat="45.679" lon="6.39671">
        <ele>349</ele>
        <time>2021-06-01T09:28:06Z</time>
      </trkpt>
      <trkpt lat="45.67904" lon="6.39675">
        <ele>349.2</ele>
        <time>2021-06-01T09:28:07Z</time>
      </trkpt>
      <trkpt lat="45.67908" lon="6.39679">
        <ele>349.4</ele>
        <time>2021-06-01T09:28:08Z</time>
      </trkpt>
      <trkpt lat="45.67913" lon="6.39683">
        <ele>349.6</ele>
        <time>2021-06-01T09:28:09Z</time>
      </trkpt>
      <trkpt lat="45.67916" lon="6.39686">
        <ele>349.8</ele>
        <time>2021-06-01T09:28:10Z</time>
      </trkpt>
      <trkpt lat="45.6792" lon="6.3969">
        <ele>350</ele>
        <time>2021-06-01T09:28:11Z</time>
      </trkpt>
      <trkpt lat="45.67924" lon="6.39694">
        <ele>350.2</ele>
        <time>2021-06-01T09:28:12Z</time>
      </trkpt>
      <trkpt lat="45.67928" lon="6.39697">
        <ele>350.6</ele>
        <time>2021-06-01T09:28:13Z</time>
      </trkpt>
      <trkpt lat="45.67932" lon="6.397">
        <ele>351</ele>
        <time>2021-06-01T09:28:14Z</time>
      </trkpt>
      <trkpt lat="45.67935" lon="6.39703">
        <ele>351.2</ele>
        <time>2021-06-01T09:28:15Z</time>
      </trkpt>
      <trkpt lat="45.6794" lon="6.39706">
        <ele>351.4</ele>
        <time>2021-06-01T09:28:16Z</time>
      </trkpt>
      <trkpt lat="45.67957" lon="6.39715">
        <ele>352.4</ele>
        <time>2021-06-01T09:28:20Z</time>
      </trkpt>
      <trkpt lat="45.67962" lon="6.39717">
        <ele>352.8</ele>
        <time>2021-06-01T09:28:21Z</time>
      </trkpt>
      <trkpt lat="45.67967" lon="6.39719">
        <ele>353.2</ele>
        <time>2021-06-01T09:28:22Z</time>
      </trkpt>
      <trkpt lat="45.67972" lon="6.39721">
        <ele>353.4</ele>
        <time>2021-06-01T09:28:23Z</time>
      </trkpt>
      <trkpt lat="45.67977" lon="6.39723">
        <ele>353.8</ele>
        <time>2021-06-01T09:28:24Z</time>
      </trkpt>
      <trkpt lat="45.67982" lon="6.39726">
        <ele>354</ele>
        <time>2021-06-01T09:28:25Z</time>
      </trkpt>
      <trkpt lat="45.67988" lon="6.39729">
        <ele>354.4</ele>
        <time>2021-06-01T09:28:26Z</time>
      </trkpt>
      <trkpt lat="45.67994" lon="6.39732">
        <ele>354.6</ele>
        <time>2021-06-01T09:28:27Z</time>
      </trkpt>
      <trkpt lat="45.67998" lon="6.39735">
        <ele>355</ele>
        <time>2021-06-01T09:28:28Z</time>
      </trkpt>
      <trkpt lat="45.68142" lon="6.39792">
        <ele>360.4</ele>
        <time>2021-06-01T09:29:00Z</time>
      </trkpt>
      <trkpt lat="45.68146" lon="6.39795">
        <ele>360.8</ele>
        <time>2021-06-01T09:29:01Z</time>
      </trkpt>
      <trkpt lat="45.6815" lon="6.39798">
        <ele>361.2</ele>
        <time>2021-06-01T09:29:02Z</time>
      </trkpt>
      <trkpt lat="45.68153" lon="6.39802">
        <ele>361.4</ele>
        <time>2021-06-01T09:29:03Z</time>
      </trkpt>
      <trkpt lat="45.68157" lon="6.39806">
        <ele>361.6</ele>
        <time>2021-06-01T09:29:04Z</time>
      </trkpt>
      <trkpt lat="45.68162" lon="6.3981">
        <ele>362.4</ele>
        <time>2021-06-01T09:29:05Z</time>
      </trkpt>
      <trkpt lat="45.68171" lon="6.39818">
        <ele>363.2</ele>
        <time>2021-06-01T09:29:07Z</time>
      </trkpt>
      <trkpt lat="45.68175" lon="6.39822">
        <ele>363.6</ele>
        <time>2021-06-01T09:29:08Z</time>
      </trkpt>
      <trkpt lat="45.6818" lon="6.39825">
        <ele>364</ele>
        <time>2021-06-01T09:29:09Z</time>
      </trkpt>
      <trkpt lat="45.68183" lon="6.39827">
        <ele>364.4</ele>
        <time>2021-06-01T09:29:10Z</time>
      </trkpt>
      <trkpt lat="45.68187" lon="6.3983">
        <ele>364.4</ele>
        <time>2021-06-01T09:29:11Z</time>
      </trkpt>
      <trkpt lat="45.68192" lon="6.39832">
        <ele>364.8</ele>
        <time>2021-06-01T09:29:12Z</time>
      </trkpt>
      <trkpt lat="45.68196" lon="6.39835">
        <ele>365</ele>
        <time>2021-06-01T09:29:13Z</time>
      </trkpt>
      <trkpt lat="45.68199" lon="6.39837">
        <ele>365.4</ele>
        <time>2021-06-01T09:29:14Z</time>
      </trkpt>
      <trkpt lat="45.68204" lon="6.3984">
        <ele>365.8</ele>
        <time>2021-06-01T09:29:15Z</time>
      </trkpt>
      <trkpt lat="45.68208" lon="6.39842">
        <ele>366</ele>
        <time>2021-06-01T09:29:16Z</time>
      </trkpt>
      <trkpt lat="45.68212" lon="6.39845">
        <ele>366.4</ele>
        <time>2021-06-01T09:29:17Z</time>
      </trkpt>
      <trkpt lat="45.68217" lon="6.39847">
        <ele>366.8</ele>
        <time>2021-06-01T09:29:18Z</time>
      </trkpt>
      <trkpt lat="45.6822" lon="6.39849">
        <ele>367.2</ele>
        <time>2021-06-01T09:29:19Z</time>
      </trkpt>
      <trkpt lat="45.68224" lon="6.39851">
        <ele>367.6</ele>
        <time>2021-06-01T09:29:20Z</time>
      </trkpt>
      <trkpt lat="45.68228" lon="6.39853">
        <ele>368</ele>
        <time>2021-06-01T09:29:21Z</time>
      </trkpt>
      <trkpt lat="45.68232" lon="6.39855">
        <ele>368.2</ele>
        <time>2021-06-01T09:29:22Z</time>
      </trkpt>
      <trkpt lat="45.68235" lon="6.39857">
        <ele>368.6</ele>
        <time>2021-06-01T09:29:23Z</time>
      </trkpt>
      <trkpt lat="45.68238" lon="6.39859">
        <ele>368.8</ele>
        <time>2021-06-01T09:29:24Z</time>
      </trkpt>
      <trkpt lat="45.68241" lon="6.3986">
        <ele>369.2</ele>
        <time>2021-06-01T09:29:25Z</time>
      </trkpt>
      <trkpt lat="45.68244" lon="6.3986">
        <ele>369.4</ele>
        <time>2021-06-01T09:29:26Z</time>
      </trkpt>
      <trkpt lat="45.68248" lon="6.39862">
        <ele>370</ele>
        <time>2021-06-01T09:29:27Z</time>
      </trkpt>
      <trkpt lat="45.68252" lon="6.39864">
        <ele>370.2</ele>
        <time>2021-06-01T09:29:28Z</time>
      </trkpt>
      <trkpt lat="45.68256" lon="6.39867">
        <ele>370.6</ele>
        <time>2021-06-01T09:29:29Z</time>
      </trkpt>
      <trkpt lat="45.6826" lon="6.3987">
        <ele>371</ele>
        <time>2021-06-01T09:29:30Z</time>
      </trkpt>
      <trkpt lat="45.68264" lon="6.39873">
        <ele>371.2</ele>
        <time>2021-06-01T09:29:31Z</time>
      </trkpt>
      <trkpt lat="45.68267" lon="6.39876">
        <ele>371.4</ele>
        <time>2021-06-01T09:29:32Z</time>
      </trkpt>
      <trkpt lat="45.6827" lon="6.3988">
        <ele>371.8</ele>
        <time>2021-06-01T09:29:33Z</time>
      </trkpt>
      <trkpt lat="45.68275" lon="6.39885">
        <ele>372</ele>
        <time>2021-06-01T09:29:34Z</time>
      </trkpt>
      <trkpt lat="45.68279" lon="6.39889">
        <ele>372.4</ele>
        <time>2021-06-01T09:29:35Z</time>
      </trkpt>
      <trkpt lat="45.68282" lon="6.39893">
        <ele>372.8</ele>
        <time>2021-06-01T09:29:36Z</time>
      </trkpt>
      <trkpt lat="45.68283" lon="6.39897">
        <ele>373</ele>
        <time>2021-06-01T09:29:37Z</time>
      </trkpt>
      <trkpt lat="45.68285" lon="6.39902">
        <ele>373.4</ele>
        <time>2021-06-01T09:29:38Z</time>
      </trkpt>
      <trkpt lat="45.68288" lon="6.39908">
        <ele>373.8</ele>
        <time>2021-06-01T09:29:39Z</time>
      </trkpt>
      <trkpt lat="45.6829" lon="6.39913">
        <ele>374</ele>
        <time>2021-06-01T09:29:40Z</time>
      </trkpt>
      <trkpt lat="45.68292" lon="6.39918">
        <ele>374.4</ele>
        <time>2021-06-01T09:29:41Z</time>
      </trkpt>
      <trkpt lat="45.68294" lon="6.39923">
        <ele>374.8</ele>
        <time>2021-06-01T09:29:42Z</time>
      </trkpt>
      <trkpt lat="45.68296" lon="6.39928">
        <ele>375</ele>
        <time>2021-06-01T09:29:43Z</time>
      </trkpt>
      <trkpt lat="45.68298" lon="6.39933">
        <ele>375.4</ele>
        <time>2021-06-01T09:29:44Z</time>
      </trkpt>
      <trkpt lat="45.68302" lon="6.39939">
        <ele>375.8</ele>
        <time>2021-06-01T09:29:45Z</time>
      </trkpt>
      <trkpt lat="45.68304" lon="6.39945">
        <ele>376</ele>
        <time>2021-06-01T09:29:46Z</time>
      </trkpt>
      <trkpt lat="45.68308" lon="6.3995">
        <ele>376.4</ele>
        <time>2021-06-01T09:29:47Z</time>
      </trkpt>
      <trkpt lat="45.68311" lon="6.39955">
        <ele>376.6</ele>
        <time>2021-06-01T09:29:48Z</time>
      </trkpt>
      <trkpt lat="45.68317" lon="6.3996">
        <ele>376.8</ele>
        <time>2021-06-01T09:29:49Z</time>
      </trkpt>
      <trkpt lat="45.68322" lon="6.39965">
        <ele>377.4</ele>
        <time>2021-06-01T09:29:50Z</time>
      </trkpt>
      <trkpt lat="45.68326" lon="6.39969">
        <ele>377.6</ele>
        <time>2021-06-01T09:29:51Z</time>
      </trkpt>
      <trkpt lat="45.6833" lon="6.39972">
        <ele>378</ele>
        <time>2021-06-01T09:29:52Z</time>
      </trkpt>
      <trkpt lat="45.68336" lon="6.39976">
        <ele>378.2</ele>
        <time>2021-06-01T09:29:53Z</time>
      </trkpt>
      <trkpt lat="45.6834" lon="6.3998">
        <ele>378.4</ele>
        <time>2021-06-01T09:29:54Z</time>
      </trkpt>
      <trkpt lat="45.68345" lon="6.39984">
        <ele>378.4</ele>
        <time>2021-06-01T09:29:55Z</time>
      </trkpt>
      <trkpt lat="45.68351" lon="6.39987">
        <ele>378.6</ele>
        <time>2021-06-01T09:29:56Z</time>
      </trkpt>
      <trkpt lat="45.68356" lon="6.39991">
        <ele>378.8</ele>
        <time>2021-06-01T09:29:57Z</time>
      </trkpt>
      <trkpt lat="45.68362" lon="6.39994">
        <ele>379</ele>
        <time>2021-06-01T09:29:58Z</time>
      </trkpt>
      <trkpt lat="45.68369" lon="6.39998">
        <ele>379.2</ele>
        <time>2021-06-01T09:29:59Z</time>
      </trkpt>
      <trkpt lat="45.68374" lon="6.40001">
        <ele>379.2</ele>
        <time>2021-06-01T09:30:00Z</time>
      </trkpt>
      <trkpt lat="45.68379" lon="6.40005">
        <ele>379.6</ele>
        <time>2021-06-01T09:30:01Z</time>
      </trkpt>
      <trkpt lat="45.68384" lon="6.40009">
        <ele>380</ele>
        <time>2021-06-01T09:30:02Z</time>
      </trkpt>
      <trkpt lat="45.68389" lon="6.40014">
        <ele>380.2</ele>
        <time>2021-06-01T09:30:03Z</time>
      </trkpt>
      <trkpt lat="45.68393" lon="6.40018">
        <ele>380.6</ele>
        <time>2021-06-01T09:30:04Z</time>
      </trkpt>
      <trkpt lat="45.68398" lon="6.40022">
        <ele>381</ele>
        <time>2021-06-01T09:30:05Z</time>
      </trkpt>
      <trkpt lat="45.68402" lon="6.40026">
        <ele>381.4</ele>
        <time>2021-06-01T09:30:06Z</time>
      </trkpt>
      <trkpt lat="45.68405" lon="6.4003">
        <ele>381.6</ele>
        <time>2021-06-01T09:30:07Z</time>
      </trkpt>
      <trkpt lat="45.68408" lon="6.40035">
        <ele>382</ele>
        <time>2021-06-01T09:30:08Z</time>
      </trkpt>
      <trkpt lat="45.68411" lon="6.40039">
        <ele>382.4</ele>
        <time>2021-06-01T09:30:09Z</time>
      </trkpt>
      <trkpt lat="45.68414" lon="6.40042">
        <ele>382.6</ele>
        <time>2021-06-01T09:30:10Z</time>
      </trkpt>
      <trkpt lat="45.68417" lon="6.40046">
        <ele>383</ele>
        <time>2021-06-01T09:30:11Z</time>
      </trkpt>
      <trkpt lat="45.68421" lon="6.4005">
        <ele>383.4</ele>
        <time>2021-06-01T09:30:12Z</time>
      </trkpt>
      <trkpt lat="45.68426" lon="6.40055">
        <ele>383.8</ele>
        <time>2021-06-01T09:30:13Z</time>
      </trkpt>
      <trkpt lat="45.68431" lon="6.40059">
        <ele>384</ele>
        <time>2021-06-01T09:30:14Z</time>
      </trkpt>
      <trkpt lat="45.68436" lon="6.40063">
        <ele>384.2</ele>
        <time>2021-06-01T09:30:15Z</time>
      </trkpt>
      <trkpt lat="45.6844" lon="6.40067">
        <ele>384.4</ele>
        <time>2021-06-01T09:30:16Z</time>
      </trkpt>
      <trkpt lat="45.68444" lon="6.4007">
        <ele>384.6</ele>
        <time>2021-06-01T09:30:17Z</time>
      </trkpt>
      <trkpt lat="45.68448" lon="6.40072">
        <ele>384.8</ele>
        <time>2021-06-01T09:30:18Z</time>
      </trkpt>
      <trkpt lat="45.68453" lon="6.40074">
        <ele>385</ele>
        <time>2021-06-01T09:30:19Z</time>
      </trkpt>
      <trkpt lat="45.68457" lon="6.40076">
        <ele>385.2</ele>
        <time>2021-06-01T09:30:20Z</time>
      </trkpt>
      <trkpt lat="45.68463" lon="6.40078">
        <ele>385.4</ele>
        <time>2021-06-01T09:30:21Z</time>
      </trkpt>
      <trkpt lat="45.68468" lon="6.4008">
        <ele>385.8</ele>
        <time>2021-06-01T09:30:22Z</time>
      </trkpt>
      <trkpt lat="45.68472" lon="6.40082">
        <ele>386</ele>
        <time>2021-06-01T09:30:23Z</time>
      </trkpt>
      <trkpt lat="45.68476" lon="6.40084">
        <ele>386.2</ele>
        <time>2021-06-01T09:30:24Z</time>
      </trkpt>
      <trkpt lat="45.6848" lon="6.40086">
        <ele>386.4</ele>
        <time>2021-06-01T09:30:25Z</time>
      </trkpt>
      <trkpt lat="45.68484" lon="6.40089">
        <ele>386.8</ele>
        <time>2021-06-01T09:30:26Z</time>
      </trkpt>
      <trkpt lat="45.68487" lon="6.40093">
        <ele>387.2</ele>
        <time>2021-06-01T09:30:27Z</time>
      </trkpt>
      <trkpt lat="45.68492" lon="6.40097">
        <ele>387.6</ele>
        <time>2021-06-01T09:30:28Z</time>
      </trkpt>
      <trkpt lat="45.68497" lon="6.401">
        <ele>387.8</ele>
        <time>2021-06-01T09:30:29Z</time>
      </trkpt>
      <trkpt lat="45.68502" lon="6.40104">
        <ele>388.2</ele>
        <time>2021-06-01T09:30:30Z</time>
      </trkpt>
      <trkpt lat="45.68505" lon="6.40107">
        <ele>388.4</ele>
        <time>2021-06-01T09:30:31Z</time>
      </trkpt>
      <trkpt lat="45.6851" lon="6.4011">
        <ele>388.4</ele>
        <time>2021-06-01T09:30:32Z</time>
      </trkpt>
      <trkpt lat="45.68514" lon="6.40113">
        <ele>388.4</ele>
        <time>2021-06-01T09:30:33Z</time>
      </trkpt>
      <trkpt lat="45.68518" lon="6.40116">
        <ele>388.2</ele>
        <time>2021-06-01T09:30:34Z</time>
      </trkpt>
      <trkpt lat="45.68523" lon="6.40119">
        <ele>388.2</ele>
        <time>2021-06-01T09:30:35Z</time>
      </trkpt>
      <trkpt lat="45.68527" lon="6.40121">
        <ele>388.4</ele>
        <time>2021-06-01T09:30:36Z</time>
      </trkpt>
      <trkpt lat="45.68534" lon="6.40123">
        <ele>388.8</ele>
        <time>2021-06-01T09:30:37Z</time>
      </trkpt>
      <trkpt lat="45.68539" lon="6.40125">
        <ele>389</ele>
        <time>2021-06-01T09:30:38Z</time>
      </trkpt>
      <trkpt lat="45.68544" lon="6.40127">
        <ele>389.6</ele>
        <time>2021-06-01T09:30:39Z</time>
      </trkpt>
      <trkpt lat="45.68549" lon="6.40128">
        <ele>390</ele>
        <time>2021-06-01T09:30:40Z</time>
      </trkpt>
      <trkpt lat="45.68554" lon="6.40131">
        <ele>390.4</ele>
        <time>2021-06-01T09:30:41Z</time>
      </trkpt>
      <trkpt lat="45.68559" lon="6.40133">
        <ele>390.8</ele>
        <time>2021-06-01T09:30:42Z</time>
      </trkpt>
      <trkpt lat="45.68564" lon="6.40137">
        <ele>391.4</ele>
        <time>2021-06-01T09:30:43Z</time>
      </trkpt>
      <trkpt lat="45.68568" lon="6.40141">
        <ele>392</ele>
        <time>2021-06-01T09:30:44Z</time>
      </trkpt>
      <trkpt lat="45.68572" lon="6.40145">
        <ele>392.6</ele>
        <time>2021-06-01T09:30:45Z</time>
      </trkpt>
      <trkpt lat="45.68576" lon="6.40149">
        <ele>393</ele>
        <time>2021-06-01T09:30:46Z</time>
      </trkpt>
      <trkpt lat="45.6858" lon="6.40154">
        <ele>393.4</ele>
        <time>2021-06-01T09:30:47Z</time>
      </trkpt>
      <trkpt lat="45.68584" lon="6.40159">
        <ele>394</ele>
        <time>2021-06-01T09:30:48Z</time>
      </trkpt>
      <trkpt lat="45.68587" lon="6.40164">
        <ele>394.8</ele>
        <time>2021-06-01T09:30:49Z</time>
      </trkpt>
      <trkpt lat="45.68592" lon="6.40176">
        <ele>395.4</ele>
        <time>2021-06-01T09:30:51Z</time>
      </trkpt>
      <trkpt lat="45.68594" lon="6.40181">
        <ele>395.8</ele>
        <time>2021-06-01T09:30:52Z</time>
      </trkpt>
      <trkpt lat="45.68596" lon="6.40187">
        <ele>396</ele>
        <time>2021-06-01T09:30:53Z</time>
      </trkpt>
      <trkpt lat="45.68598" lon="6.40192">
        <ele>396.2</ele>
        <time>2021-06-01T09:30:54Z</time>
      </trkpt>
      <trkpt lat="45.68602" lon="6.40198">
        <ele>396</ele>
        <time>2021-06-01T09:30:55Z</time>
      </trkpt>
      <trkpt lat="45.68603" lon="6.40203">
        <ele>395.8</ele>
        <time>2021-06-01T09:30:56Z</time>
      </trkpt>
      <trkpt lat="45.68605" lon="6.40208">
        <ele>395.6</ele>
        <time>2021-06-01T09:30:57Z</time>
      </trkpt>
      <trkpt lat="45.68607" lon="6.40214">
        <ele>395.8</ele>
        <time>2021-06-01T09:30:58Z</time>
      </trkpt>
      <trkpt lat="45.68609" lon="6.4022">
        <ele>395.8</ele>
        <time>2021-06-01T09:30:59Z</time>
      </trkpt>
      <trkpt lat="45.68612" lon="6.40224">
        <ele>395.6</ele>
        <time>2021-06-01T09:31:00Z</time>
      </trkpt>
      <trkpt lat="45.68615" lon="6.40229">
        <ele>395.6</ele>
        <time>2021-06-01T09:31:01Z</time>
      </trkpt>
      <trkpt lat="45.68618" lon="6.40234">
        <ele>395.6</ele>
        <time>2021-06-01T09:31:02Z</time>
      </trkpt>
      <trkpt lat="45.68622" lon="6.4024">
        <ele>395.8</ele>
        <time>2021-06-01T09:31:03Z</time>
      </trkpt>
      <trkpt lat="45.68626" lon="6.40245">
        <ele>396</ele>
        <time>2021-06-01T09:31:04Z</time>
      </trkpt>
      <trkpt lat="45.68629" lon="6.4025">
        <ele>396.2</ele>
        <time>2021-06-01T09:31:05Z</time>
      </trkpt>
      <trkpt lat="45.68634" lon="6.40256">
        <ele>396.8</ele>
        <time>2021-06-01T09:31:06Z</time>
      </trkpt>
      <trkpt lat="45.68637" lon="6.40262">
        <ele>397.2</ele>
        <time>2021-06-01T09:31:07Z</time>
      </trkpt>
      <trkpt lat="45.68639" lon="6.40268">
        <ele>397.6</ele>
        <time>2021-06-01T09:31:08Z</time>
      </trkpt>
      <trkpt lat="45.68642" lon="6.40275">
        <ele>398</ele>
        <time>2021-06-01T09:31:09Z</time>
      </trkpt>
      <trkpt lat="45.68645" lon="6.40281">
        <ele>398.6</ele>
        <time>2021-06-01T09:31:10Z</time>
      </trkpt>
      <trkpt lat="45.68647" lon="6.40287">
        <ele>398.6</ele>
        <time>2021-06-01T09:31:11Z</time>
      </trkpt>
      <trkpt lat="45.68649" lon="6.40293">
        <ele>398.8</ele>
        <time>2021-06-01T09:31:12Z</time>
      </trkpt>
      <trkpt lat="45.68649" lon="6.40299">
        <ele>398.8</ele>
        <time>2021-06-01T09:31:13Z</time>
      </trkpt>
      <trkpt lat="45.68651" lon="6.40306">
        <ele>399</ele>
        <time>2021-06-01T09:31:14Z</time>
      </trkpt>
      <trkpt lat="45.68652" lon="6.40312">
        <ele>399.2</ele>
        <time>2021-06-01T09:31:15Z</time>
      </trkpt>
      <trkpt lat="45.68653" lon="6.40318">
        <ele>399.2</ele>
        <time>2021-06-01T09:31:16Z</time>
      </trkpt>
      <trkpt lat="45.68653" lon="6.40325">
        <ele>399.4</ele>
        <time>2021-06-01T09:31:17Z</time>
      </trkpt>
      <trkpt lat="45.68654" lon="6.40331">
        <ele>399.4</ele>
        <time>2021-06-01T09:31:18Z</time>
      </trkpt>
      <trkpt lat="45.68654" lon="6.40337">
        <ele>399.2</ele>
        <time>2021-06-01T09:31:19Z</time>
      </trkpt>
      <trkpt lat="45.68655" lon="6.40343">
        <ele>399.8</ele>
        <time>2021-06-01T09:31:20Z</time>
      </trkpt>
      <trkpt lat="45.68656" lon="6.40349">
        <ele>399.8</ele>
        <time>2021-06-01T09:31:21Z</time>
      </trkpt>
      <trkpt lat="45.68658" lon="6.40356">
        <ele>399.8</ele>
        <time>2021-06-01T09:31:22Z</time>
      </trkpt>
      <trkpt lat="45.6866" lon="6.40362">
        <ele>400</ele>
        <time>2021-06-01T09:31:23Z</time>
      </trkpt>
      <trkpt lat="45.68663" lon="6.40367">
        <ele>400.4</ele>
        <time>2021-06-01T09:31:24Z</time>
      </trkpt>
      <trkpt lat="45.68665" lon="6.40372">
        <ele>400.4</ele>
        <time>2021-06-01T09:31:25Z</time>
      </trkpt>
      <trkpt lat="45.68667" lon="6.40376">
        <ele>400.4</ele>
        <time>2021-06-01T09:31:26Z</time>
      </trkpt>
      <trkpt lat="45.68669" lon="6.4038">
        <ele>400.4</ele>
        <time>2021-06-01T09:31:27Z</time>
      </trkpt>
      <trkpt lat="45.68673" lon="6.40383">
        <ele>400.6</ele>
        <time>2021-06-01T09:31:28Z</time>
      </trkpt>
      <trkpt lat="45.68677" lon="6.40387">
        <ele>400.6</ele>
        <time>2021-06-01T09:31:29Z</time>
      </trkpt>
      <trkpt lat="45.68681" lon="6.40391">
        <ele>401</ele>
        <time>2021-06-01T09:31:30Z</time>
      </trkpt>
      <trkpt lat="45.68684" lon="6.40395">
        <ele>401</ele>
        <time>2021-06-01T09:31:31Z</time>
      </trkpt>
      <trkpt lat="45.68688" lon="6.40399">
        <ele>401.4</ele>
        <time>2021-06-01T09:31:32Z</time>
      </trkpt>
      <trkpt lat="45.68692" lon="6.40402">
        <ele>401.4</ele>
        <time>2021-06-01T09:31:33Z</time>
      </trkpt>
      <trkpt lat="45.68695" lon="6.40406">
        <ele>401.6</ele>
        <time>2021-06-01T09:31:34Z</time>
      </trkpt>
      <trkpt lat="45.68699" lon="6.40409">
        <ele>401.8</ele>
        <time>2021-06-01T09:31:35Z</time>
      </trkpt>
      <trkpt lat="45.68702" lon="6.40411">
        <ele>402</ele>
        <time>2021-06-01T09:31:36Z</time>
      </trkpt>
      <trkpt lat="45.68706" lon="6.40413">
        <ele>402.4</ele>
        <time>2021-06-01T09:31:37Z</time>
      </trkpt>
      <trkpt lat="45.68711" lon="6.40415">
        <ele>402.6</ele>
        <time>2021-06-01T09:31:38Z</time>
      </trkpt>
      <trkpt lat="45.68715" lon="6.40418">
        <ele>402.8</ele>
        <time>2021-06-01T09:31:39Z</time>
      </trkpt>
      <trkpt lat="45.68719" lon="6.40419">
        <ele>403.2</ele>
        <time>2021-06-01T09:31:40Z</time>
      </trkpt>
      <trkpt lat="45.68724" lon="6.40421">
        <ele>403.6</ele>
        <time>2021-06-01T09:31:41Z</time>
      </trkpt>
      <trkpt lat="45.68729" lon="6.40422">
        <ele>403.8</ele>
        <time>2021-06-01T09:31:42Z</time>
      </trkpt>
      <trkpt lat="45.68734" lon="6.40424">
        <ele>403.8</ele>
        <time>2021-06-01T09:31:43Z</time>
      </trkpt>
      <trkpt lat="45.68739" lon="6.40427">
        <ele>403.8</ele>
        <time>2021-06-01T09:31:44Z</time>
      </trkpt>
      <trkpt lat="45.68744" lon="6.4043">
        <ele>403.8</ele>
        <time>2021-06-01T09:31:45Z</time>
      </trkpt>
      <trkpt lat="45.68748" lon="6.40434">
        <ele>404</ele>
        <time>2021-06-01T09:31:46Z</time>
      </trkpt>
      <trkpt lat="45.68752" lon="6.40438">
        <ele>404</ele>
        <time>2021-06-01T09:31:47Z</time>
      </trkpt>
      <trkpt lat="45.68756" lon="6.40442">
        <ele>404.2</ele>
        <time>2021-06-01T09:31:48Z</time>
      </trkpt>
      <trkpt lat="45.6876" lon="6.40446">
        <ele>404.2</ele>
        <time>2021-06-01T09:31:49Z</time>
      </trkpt>
      <trkpt lat="45.68763" lon="6.40451">
        <ele>404.4</ele>
        <time>2021-06-01T09:31:50Z</time>
      </trkpt>
      <trkpt lat="45.68767" lon="6.40456">
        <ele>404.6</ele>
        <time>2021-06-01T09:31:51Z</time>
      </trkpt>
      <trkpt lat="45.68771" lon="6.4046">
        <ele>404.8</ele>
        <time>2021-06-01T09:31:52Z</time>
      </trkpt>
      <trkpt lat="45.68774" lon="6.40466">
        <ele>405</ele>
        <time>2021-06-01T09:31:53Z</time>
      </trkpt>
      <trkpt lat="45.68776" lon="6.40472">
        <ele>405.2</ele>
        <time>2021-06-01T09:31:54Z</time>
      </trkpt>
      <trkpt lat="45.68778" lon="6.40478">
        <ele>405.2</ele>
        <time>2021-06-01T09:31:55Z</time>
      </trkpt>
      <trkpt lat="45.6878" lon="6.40483">
        <ele>405.2</ele>
        <time>2021-06-01T09:31:56Z</time>
      </trkpt>
      <trkpt lat="45.68781" lon="6.40488">
        <ele>405.4</ele>
        <time>2021-06-01T09:31:57Z</time>
      </trkpt>
      <trkpt lat="45.68783" lon="6.40493">
        <ele>405.6</ele>
        <time>2021-06-01T09:31:58Z</time>
      </trkpt>
      <trkpt lat="45.68786" lon="6.40497">
        <ele>405.8</ele>
        <time>2021-06-01T09:31:59Z</time>
      </trkpt>
      <trkpt lat="45.68788" lon="6.40501">
        <ele>406</ele>
        <time>2021-06-01T09:32:00Z</time>
      </trkpt>
      <trkpt lat="45.6879" lon="6.40505">
        <ele>406.2</ele>
        <time>2021-06-01T09:32:01Z</time>
      </trkpt>
      <trkpt lat="45.68794" lon="6.40508">
        <ele>406.4</ele>
        <time>2021-06-01T09:32:02Z</time>
      </trkpt>
      <trkpt lat="45.68798" lon="6.4051">
        <ele>406.6</ele>
        <time>2021-06-01T09:32:03Z</time>
      </trkpt>
      <trkpt lat="45.68802" lon="6.40512">
        <ele>407</ele>
        <time>2021-06-01T09:32:04Z</time>
      </trkpt>
      <trkpt lat="45.68804" lon="6.40513">
        <ele>407.2</ele>
        <time>2021-06-01T09:32:05Z</time>
      </trkpt>
      <trkpt lat="45.68807" lon="6.40514">
        <ele>407.6</ele>
        <time>2021-06-01T09:32:06Z</time>
      </trkpt>
      <trkpt lat="45.6881" lon="6.40514">
        <ele>408</ele>
        <time>2021-06-01T09:32:07Z</time>
      </trkpt>
      <trkpt lat="45.68813" lon="6.40513">
        <ele>408.4</ele>
        <time>2021-06-01T09:32:08Z</time>
      </trkpt>
      <trkpt lat="45.68818" lon="6.40513">
        <ele>408.4</ele>
        <time>2021-06-01T09:32:09Z</time>
      </trkpt>
      <trkpt lat="45.68822" lon="6.40513">
        <ele>408.6</ele>
        <time>2021-06-01T09:32:10Z</time>
      </trkpt>
      <trkpt lat="45.68827" lon="6.40513">
        <ele>408.6</ele>
        <time>2021-06-01T09:32:11Z</time>
      </trkpt>
      <trkpt lat="45.68831" lon="6.40514">
        <ele>408.6</ele>
        <time>2021-06-01T09:32:12Z</time>
      </trkpt>
      <trkpt lat="45.68835" lon="6.40516">
        <ele>408.8</ele>
        <time>2021-06-01T09:32:13Z</time>
      </trkpt>
      <trkpt lat="45.68838" lon="6.40518">
        <ele>409</ele>
        <time>2021-06-01T09:32:14Z</time>
      </trkpt>
      <trkpt lat="45.68842" lon="6.40521">
        <ele>409.6</ele>
        <time>2021-06-01T09:32:15Z</time>
      </trkpt>
      <trkpt lat="45.68846" lon="6.40525">
        <ele>409.8</ele>
        <time>2021-06-01T09:32:16Z</time>
      </trkpt>
      <trkpt lat="45.68849" lon="6.4053">
        <ele>410.4</ele>
        <time>2021-06-01T09:32:17Z</time>
      </trkpt>
      <trkpt lat="45.68852" lon="6.40535">
        <ele>411</ele>
        <time>2021-06-01T09:32:18Z</time>
      </trkpt>
      <trkpt lat="45.68854" lon="6.4054">
        <ele>411.6</ele>
        <time>2021-06-01T09:32:19Z</time>
      </trkpt>
      <trkpt lat="45.68856" lon="6.40546">
        <ele>412.4</ele>
        <time>2021-06-01T09:32:20Z</time>
      </trkpt>
      <trkpt lat="45.68858" lon="6.40551">
        <ele>413</ele>
        <time>2021-06-01T09:32:21Z</time>
      </trkpt>
      <trkpt lat="45.6886" lon="6.40556">
        <ele>413.6</ele>
        <time>2021-06-01T09:32:22Z</time>
      </trkpt>
      <trkpt lat="45.68861" lon="6.40562">
        <ele>414.2</ele>
        <time>2021-06-01T09:32:23Z</time>
      </trkpt>
      <trkpt lat="45.68862" lon="6.40568">
        <ele>414.8</ele>
        <time>2021-06-01T09:32:24Z</time>
      </trkpt>
      <trkpt lat="45.68864" lon="6.40574">
        <ele>415.4</ele>
        <time>2021-06-01T09:32:25Z</time>
      </trkpt>
      <trkpt lat="45.68866" lon="6.40579">
        <ele>416</ele>
        <time>2021-06-01T09:32:26Z</time>
      </trkpt>
      <trkpt lat="45.68868" lon="6.40585">
        <ele>416.6</ele>
        <time>2021-06-01T09:32:27Z</time>
      </trkpt>
      <trkpt lat="45.6887" lon="6.4059">
        <ele>417</ele>
        <time>2021-06-01T09:32:28Z</time>
      </trkpt>
      <trkpt lat="45.68872" lon="6.40594">
        <ele>417.4</ele>
        <time>2021-06-01T09:32:29Z</time>
      </trkpt>
      <trkpt lat="45.68876" lon="6.40599">
        <ele>417.8</ele>
        <time>2021-06-01T09:32:30Z</time>
      </trkpt>
      <trkpt lat="45.6888" lon="6.40603">
        <ele>418.2</ele>
        <time>2021-06-01T09:32:31Z</time>
      </trkpt>
      <trkpt lat="45.68884" lon="6.40606">
        <ele>418.6</ele>
        <time>2021-06-01T09:32:32Z</time>
      </trkpt>
      <trkpt lat="45.68888" lon="6.40609">
        <ele>418.8</ele>
        <time>2021-06-01T09:32:33Z</time>
      </trkpt>
      <trkpt lat="45.68893" lon="6.40611">
        <ele>419.2</ele>
        <time>2021-06-01T09:32:34Z</time>
      </trkpt>
      <trkpt lat="45.68898" lon="6.40613">
        <ele>419.4</ele>
        <time>2021-06-01T09:32:35Z</time>
      </trkpt>
      <trkpt lat="45.68903" lon="6.40613">
        <ele>419.6</ele>
        <time>2021-06-01T09:32:36Z</time>
      </trkpt>
      <trkpt lat="45.68907" lon="6.40612">
        <ele>419.8</ele>
        <time>2021-06-01T09:32:37Z</time>
      </trkpt>
      <trkpt lat="45.68912" lon="6.40611">
        <ele>420</ele>
        <time>2021-06-01T09:32:38Z</time>
      </trkpt>
      <trkpt lat="45.68915" lon="6.40608">
        <ele>420.2</ele>
        <time>2021-06-01T09:32:39Z</time>
      </trkpt>
      <trkpt lat="45.6892" lon="6.40606">
        <ele>420.8</ele>
        <time>2021-06-01T09:32:40Z</time>
      </trkpt>
      <trkpt lat="45.68924" lon="6.40603">
        <ele>421</ele>
        <time>2021-06-01T09:32:41Z</time>
      </trkpt>
      <trkpt lat="45.68929" lon="6.406">
        <ele>421.4</ele>
        <time>2021-06-01T09:32:42Z</time>
      </trkpt>
      <trkpt lat="45.68933" lon="6.40597">
        <ele>421.6</ele>
        <time>2021-06-01T09:32:43Z</time>
      </trkpt>
      <trkpt lat="45.68938" lon="6.40595">
        <ele>422</ele>
        <time>2021-06-01T09:32:44Z</time>
      </trkpt>
      <trkpt lat="45.68943" lon="6.40593">
        <ele>422.4</ele>
        <time>2021-06-01T09:32:45Z</time>
      </trkpt>
      <trkpt lat="45.68948" lon="6.40593">
        <ele>422.8</ele>
        <time>2021-06-01T09:32:46Z</time>
      </trkpt>
      <trkpt lat="45.68953" lon="6.40595">
        <ele>423.2</ele>
        <time>2021-06-01T09:32:47Z</time>
      </trkpt>
      <trkpt lat="45.68959" lon="6.40597">
        <ele>423.6</ele>
        <time>2021-06-01T09:32:48Z</time>
      </trkpt>
      <trkpt lat="45.68963" lon="6.40598">
        <ele>424</ele>
        <time>2021-06-01T09:32:49Z</time>
      </trkpt>
      <trkpt lat="45.68968" lon="6.40601">
        <ele>424.2</ele>
        <time>2021-06-01T09:32:50Z</time>
      </trkpt>
      <trkpt lat="45.68972" lon="6.40603">
        <ele>424.6</ele>
        <time>2021-06-01T09:32:51Z</time>
      </trkpt>
      <trkpt lat="45.68976" lon="6.40605">
        <ele>425</ele>
        <time>2021-06-01T09:32:52Z</time>
      </trkpt>
      <trkpt lat="45.6898" lon="6.40608">
        <ele>425.2</ele>
        <time>2021-06-01T09:32:53Z</time>
      </trkpt>
      <trkpt lat="45.68985" lon="6.40611">
        <ele>425.4</ele>
        <time>2021-06-01T09:32:54Z</time>
      </trkpt>
      <trkpt lat="45.68989" lon="6.40613">
        <ele>425.8</ele>
        <time>2021-06-01T09:32:55Z</time>
      </trkpt>
      <trkpt lat="45.68993" lon="6.40616">
        <ele>425.8</ele>
        <time>2021-06-01T09:32:56Z</time>
      </trkpt>
      <trkpt lat="45.68997" lon="6.40618">
        <ele>426.2</ele>
        <time>2021-06-01T09:32:57Z</time>
      </trkpt>
      <trkpt lat="45.69001" lon="6.40621">
        <ele>426.4</ele>
        <time>2021-06-01T09:32:58Z</time>
      </trkpt>
      <trkpt lat="45.69005" lon="6.40623">
        <ele>426.4</ele>
        <time>2021-06-01T09:32:59Z</time>
      </trkpt>
      <trkpt lat="45.69009" lon="6.40626">
        <ele>426.6</ele>
        <time>2021-06-01T09:33:00Z</time>
      </trkpt>
      <trkpt lat="45.69013" lon="6.4063">
        <ele>426.8</ele>
        <time>2021-06-01T09:33:01Z</time>
      </trkpt>
      <trkpt lat="45.69017" lon="6.40634">
        <ele>426.8</ele>
        <time>2021-06-01T09:33:02Z</time>
      </trkpt>
      <trkpt lat="45.6902" lon="6.40639">
        <ele>426.8</ele>
        <time>2021-06-01T09:33:03Z</time>
      </trkpt>
      <trkpt lat="45.69023" lon="6.40644">
        <ele>427.2</ele>
        <time>2021-06-01T09:33:04Z</time>
      </trkpt>
      <trkpt lat="45.69026" lon="6.4065">
        <ele>427.4</ele>
        <time>2021-06-01T09:33:05Z</time>
      </trkpt>
      <trkpt lat="45.69028" lon="6.40656">
        <ele>427.6</ele>
        <time>2021-06-01T09:33:06Z</time>
      </trkpt>
      <trkpt lat="45.69029" lon="6.40662">
        <ele>427.8</ele>
        <time>2021-06-01T09:33:07Z</time>
      </trkpt>
      <trkpt lat="45.69029" lon="6.40668">
        <ele>428.2</ele>
        <time>2021-06-01T09:33:08Z</time>
      </trkpt>
      <trkpt lat="45.69029" lon="6.40674">
        <ele>428.4</ele>
        <time>2021-06-01T09:33:09Z</time>
      </trkpt>
      <trkpt lat="45.69028" lon="6.4068">
        <ele>428.6</ele>
        <time>2021-06-01T09:33:10Z</time>
      </trkpt>
      <trkpt lat="45.69027" lon="6.40685">
        <ele>429</ele>
        <time>2021-06-01T09:33:11Z</time>
      </trkpt>
      <trkpt lat="45.69024" lon="6.40691">
        <ele>429.2</ele>
        <time>2021-06-01T09:33:12Z</time>
      </trkpt>
      <trkpt lat="45.69022" lon="6.40696">
        <ele>429.4</ele>
        <time>2021-06-01T09:33:13Z</time>
      </trkpt>
      <trkpt lat="45.69019" lon="6.40701">
        <ele>429.8</ele>
        <time>2021-06-01T09:33:14Z</time>
      </trkpt>
      <trkpt lat="45.69017" lon="6.40706">
        <ele>430.2</ele>
        <time>2021-06-01T09:33:15Z</time>
      </trkpt>
      <trkpt lat="45.69015" lon="6.40712">
        <ele>430.6</ele>
        <time>2021-06-01T09:33:16Z</time>
      </trkpt>
      <trkpt lat="45.69013" lon="6.40717">
        <ele>431</ele>
        <time>2021-06-01T09:33:17Z</time>
      </trkpt>
      <trkpt lat="45.69011" lon="6.40723">
        <ele>431.4</ele>
        <time>2021-06-01T09:33:18Z</time>
      </trkpt>
      <trkpt lat="45.69009" lon="6.40728">
        <ele>431.6</ele>
        <time>2021-06-01T09:33:19Z</time>
      </trkpt>
      <trkpt lat="45.69007" lon="6.40734">
        <ele>432</ele>
        <time>2021-06-01T09:33:20Z</time>
      </trkpt>
      <trkpt lat="45.69006" lon="6.4074">
        <ele>432.2</ele>
        <time>2021-06-01T09:33:21Z</time>
      </trkpt>
      <trkpt lat="45.69006" lon="6.40746">
        <ele>432.4</ele>
        <time>2021-06-01T09:33:22Z</time>
      </trkpt>
      <trkpt lat="45.69006" lon="6.40752">
        <ele>432.8</ele>
        <time>2021-06-01T09:33:23Z</time>
      </trkpt>
      <trkpt lat="45.69006" lon="6.40758">
        <ele>433</ele>
        <time>2021-06-01T09:33:24Z</time>
      </trkpt>
      <trkpt lat="45.69006" lon="6.40764">
        <ele>433.4</ele>
        <time>2021-06-01T09:33:25Z</time>
      </trkpt>
      <trkpt lat="45.69007" lon="6.4077">
        <ele>433.6</ele>
        <time>2021-06-01T09:33:26Z</time>
      </trkpt>
      <trkpt lat="45.69008" lon="6.40776">
        <ele>434.2</ele>
        <time>2021-06-01T09:33:27Z</time>
      </trkpt>
      <trkpt lat="45.69009" lon="6.40782">
        <ele>434.4</ele>
        <time>2021-06-01T09:33:28Z</time>
      </trkpt>
      <trkpt lat="45.69009" lon="6.40788">
        <ele>434.6</ele>
        <time>2021-06-01T09:33:29Z</time>
      </trkpt>
      <trkpt lat="45.6901" lon="6.40793">
        <ele>434.6</ele>
        <time>2021-06-01T09:33:30Z</time>
      </trkpt>
      <trkpt lat="45.69011" lon="6.40799">
        <ele>434.4</ele>
        <time>2021-06-01T09:33:31Z</time>
      </trkpt>
      <trkpt lat="45.69013" lon="6.40804">
        <ele>434</ele>
        <time>2021-06-01T09:33:32Z</time>
      </trkpt>
      <trkpt lat="45.69015" lon="6.40809">
        <ele>433.8</ele>
        <time>2021-06-01T09:33:33Z</time>
      </trkpt>
      <trkpt lat="45.69017" lon="6.40814">
        <ele>433.4</ele>
        <time>2021-06-01T09:33:34Z</time>
      </trkpt>
      <trkpt lat="45.69019" lon="6.40819">
        <ele>433.2</ele>
        <time>2021-06-01T09:33:35Z</time>
      </trkpt>
      <trkpt lat="45.69022" lon="6.40824">
        <ele>432.8</ele>
        <time>2021-06-01T09:33:36Z</time>
      </trkpt>
      <trkpt lat="45.69025" lon="6.40828">
        <ele>432.6</ele>
        <time>2021-06-01T09:33:37Z</time>
      </trkpt>
      <trkpt lat="45.69028" lon="6.40832">
        <ele>432.2</ele>
        <time>2021-06-01T09:33:38Z</time>
      </trkpt>
      <trkpt lat="45.69032" lon="6.40836">
        <ele>432.2</ele>
        <time>2021-06-01T09:33:39Z</time>
      </trkpt>
      <trkpt lat="45.69036" lon="6.40839">
        <ele>432.4</ele>
        <time>2021-06-01T09:33:40Z</time>
      </trkpt>
      <trkpt lat="45.6904" lon="6.40843">
        <ele>432.6</ele>
        <time>2021-06-01T09:33:41Z</time>
      </trkpt>
      <trkpt lat="45.69043" lon="6.40847">
        <ele>433</ele>
        <time>2021-06-01T09:33:42Z</time>
      </trkpt>
      <trkpt lat="45.69046" lon="6.4085">
        <ele>433.4</ele>
        <time>2021-06-01T09:33:43Z</time>
      </trkpt>
      <trkpt lat="45.6905" lon="6.40853">
        <ele>433.6</ele>
        <time>2021-06-01T09:33:44Z</time>
      </trkpt>
      <trkpt lat="45.69054" lon="6.40856">
        <ele>434</ele>
        <time>2021-06-01T09:33:45Z</time>
      </trkpt>
      <trkpt lat="45.69058" lon="6.40859">
        <ele>434.4</ele>
        <time>2021-06-01T09:33:46Z</time>
      </trkpt>
      <trkpt lat="45.69062" lon="6.40863">
        <ele>434.8</ele>
        <time>2021-06-01T09:33:47Z</time>
      </trkpt>
      <trkpt lat="45.69065" lon="6.40866">
        <ele>435.2</ele>
        <time>2021-06-01T09:33:48Z</time>
      </trkpt>
      <trkpt lat="45.69069" lon="6.40869">
        <ele>435.4</ele>
        <time>2021-06-01T09:33:49Z</time>
      </trkpt>
      <trkpt lat="45.69073" lon="6.40872">
        <ele>435.6</ele>
        <time>2021-06-01T09:33:50Z</time>
      </trkpt>
      <trkpt lat="45.69076" lon="6.40876">
        <ele>436</ele>
        <time>2021-06-01T09:33:51Z</time>
      </trkpt>
      <trkpt lat="45.6908" lon="6.40881">
        <ele>436</ele>
        <time>2021-06-01T09:33:52Z</time>
      </trkpt>
      <trkpt lat="45.69082" lon="6.40885">
        <ele>436.2</ele>
        <time>2021-06-01T09:33:53Z</time>
      </trkpt>
      <trkpt lat="45.69084" lon="6.40891">
        <ele>436.4</ele>
        <time>2021-06-01T09:33:54Z</time>
      </trkpt>
      <trkpt lat="45.69086" lon="6.40897">
        <ele>436.8</ele>
        <time>2021-06-01T09:33:55Z</time>
      </trkpt>
      <trkpt lat="45.69086" lon="6.40903">
        <ele>437.2</ele>
        <time>2021-06-01T09:33:56Z</time>
      </trkpt>
      <trkpt lat="45.69086" lon="6.40908">
        <ele>437.6</ele>
        <time>2021-06-01T09:33:57Z</time>
      </trkpt>
      <trkpt lat="45.69084" lon="6.40913">
        <ele>438.2</ele>
        <time>2021-06-01T09:33:58Z</time>
      </trkpt>
      <trkpt lat="45.69082" lon="6.40919">
        <ele>438.6</ele>
        <time>2021-06-01T09:33:59Z</time>
      </trkpt>
      <trkpt lat="45.69081" lon="6.40925">
        <ele>439</ele>
        <time>2021-06-01T09:34:00Z</time>
      </trkpt>
      <trkpt lat="45.69079" lon="6.4093">
        <ele>439.6</ele>
        <time>2021-06-01T09:34:01Z</time>
      </trkpt>
      <trkpt lat="45.69076" lon="6.40934">
        <ele>439.8</ele>
        <time>2021-06-01T09:34:02Z</time>
      </trkpt>
      <trkpt lat="45.69073" lon="6.40937">
        <ele>440</ele>
        <time>2021-06-01T09:34:03Z</time>
      </trkpt>
      <trkpt lat="45.6907" lon="6.4094">
        <ele>440.2</ele>
        <time>2021-06-01T09:34:04Z</time>
      </trkpt>
      <trkpt lat="45.69066" lon="6.40942">
        <ele>440.4</ele>
        <time>2021-06-01T09:34:05Z</time>
      </trkpt>
      <trkpt lat="45.69062" lon="6.40943">
        <ele>440.4</ele>
        <time>2021-06-01T09:34:06Z</time>
      </trkpt>
      <trkpt lat="45.69059" lon="6.40945">
        <ele>440.6</ele>
        <time>2021-06-01T09:34:07Z</time>
      </trkpt>
      <trkpt lat="45.69054" lon="6.40946">
        <ele>440.8</ele>
        <time>2021-06-01T09:34:08Z</time>
      </trkpt>
      <trkpt lat="45.69051" lon="6.40948">
        <ele>441</ele>
        <time>2021-06-01T09:34:09Z</time>
      </trkpt>
      <trkpt lat="45.69046" lon="6.40949">
        <ele>441.2</ele>
        <time>2021-06-01T09:34:10Z</time>
      </trkpt>
      <trkpt lat="45.69042" lon="6.40951">
        <ele>441.2</ele>
        <time>2021-06-01T09:34:11Z</time>
      </trkpt>
      <trkpt lat="45.69038" lon="6.40952">
        <ele>441</ele>
        <time>2021-06-01T09:34:12Z</time>
      </trkpt>
      <trkpt lat="45.69033" lon="6.40954">
        <ele>441.2</ele>
        <time>2021-06-01T09:34:13Z</time>
      </trkpt>
      <trkpt lat="45.69029" lon="6.40956">
        <ele>441.6</ele>
        <time>2021-06-01T09:34:14Z</time>
      </trkpt>
      <trkpt lat="45.69025" lon="6.40959">
        <ele>442</ele>
        <time>2021-06-01T09:34:15Z</time>
      </trkpt>
      <trkpt lat="45.69022" lon="6.40962">
        <ele>442.2</ele>
        <time>2021-06-01T09:34:16Z</time>
      </trkpt>
      <trkpt lat="45.69019" lon="6.40965">
        <ele>442.8</ele>
        <time>2021-06-01T09:34:17Z</time>
      </trkpt>
      <trkpt lat="45.69016" lon="6.40968">
        <ele>443.4</ele>
        <time>2021-06-01T09:34:18Z</time>
      </trkpt>
      <trkpt lat="45.69013" lon="6.40972">
        <ele>443.8</ele>
        <time>2021-06-01T09:34:19Z</time>
      </trkpt>
      <trkpt lat="45.69011" lon="6.40977">
        <ele>444</ele>
        <time>2021-06-01T09:34:20Z</time>
      </trkpt>
      <trkpt lat="45.69009" lon="6.40981">
        <ele>443.8</ele>
        <time>2021-06-01T09:34:21Z</time>
      </trkpt>
      <trkpt lat="45.69007" lon="6.40987">
        <ele>443.6</ele>
        <time>2021-06-01T09:34:22Z</time>
      </trkpt>
      <trkpt lat="45.69006" lon="6.40992">
        <ele>443.4</ele>
        <time>2021-06-01T09:34:23Z</time>
      </trkpt>
      <trkpt lat="45.69005" lon="6.40998">
        <ele>443.4</ele>
        <time>2021-06-01T09:34:24Z</time>
      </trkpt>
      <trkpt lat="45.69004" lon="6.41004">
        <ele>443.4</ele>
        <time>2021-06-01T09:34:25Z</time>
      </trkpt>
      <trkpt lat="45.69004" lon="6.4101">
        <ele>443.4</ele>
        <time>2021-06-01T09:34:26Z</time>
      </trkpt>
      <trkpt lat="45.69003" lon="6.41016">
        <ele>443.4</ele>
        <time>2021-06-01T09:34:27Z</time>
      </trkpt>
      <trkpt lat="45.69003" lon="6.41022">
        <ele>443.4</ele>
        <time>2021-06-01T09:34:28Z</time>
      </trkpt>
      <trkpt lat="45.69003" lon="6.41029">
        <ele>443.6</ele>
        <time>2021-06-01T09:34:29Z</time>
      </trkpt>
      <trkpt lat="45.69003" lon="6.41035">
        <ele>443.4</ele>
        <time>2021-06-01T09:34:30Z</time>
      </trkpt>
      <trkpt lat="45.69003" lon="6.41042">
        <ele>443.6</ele>
        <time>2021-06-01T09:34:31Z</time>
      </trkpt>
      <trkpt lat="45.69002" lon="6.41048">
        <ele>444</ele>
        <time>2021-06-01T09:34:32Z</time>
      </trkpt>
      <trkpt lat="45.69001" lon="6.41054">
        <ele>444.2</ele>
        <time>2021-06-01T09:34:33Z</time>
      </trkpt>
      <trkpt lat="45.69" lon="6.4106">
        <ele>444.4</ele>
        <time>2021-06-01T09:34:34Z</time>
      </trkpt>
      <trkpt lat="45.68999" lon="6.41067">
        <ele>444.8</ele>
        <time>2021-06-01T09:34:35Z</time>
      </trkpt>
      <trkpt lat="45.68997" lon="6.41073">
        <ele>445.4</ele>
        <time>2021-06-01T09:34:36Z</time>
      </trkpt>
      <trkpt lat="45.68996" lon="6.41078">
        <ele>445.6</ele>
        <time>2021-06-01T09:34:37Z</time>
      </trkpt>
      <trkpt lat="45.68994" lon="6.41084">
        <ele>446.2</ele>
        <time>2021-06-01T09:34:38Z</time>
      </trkpt>
      <trkpt lat="45.68991" lon="6.41089">
        <ele>446.4</ele>
        <time>2021-06-01T09:34:39Z</time>
      </trkpt>
      <trkpt lat="45.68989" lon="6.41095">
        <ele>446.6</ele>
        <time>2021-06-01T09:34:40Z</time>
      </trkpt>
      <trkpt lat="45.68987" lon="6.411">
        <ele>446.8</ele>
        <time>2021-06-01T09:34:41Z</time>
      </trkpt>
      <trkpt lat="45.68984" lon="6.41106">
        <ele>447.2</ele>
        <time>2021-06-01T09:34:42Z</time>
      </trkpt>
      <trkpt lat="45.68982" lon="6.41111">
        <ele>447.6</ele>
        <time>2021-06-01T09:34:43Z</time>
      </trkpt>
      <trkpt lat="45.6898" lon="6.41117">
        <ele>448</ele>
        <time>2021-06-01T09:34:44Z</time>
      </trkpt>
      <trkpt lat="45.68979" lon="6.41123">
        <ele>448.6</ele>
        <time>2021-06-01T09:34:45Z</time>
      </trkpt>
      <trkpt lat="45.68977" lon="6.41129">
        <ele>449.2</ele>
        <time>2021-06-01T09:34:46Z</time>
      </trkpt>
      <trkpt lat="45.68977" lon="6.41135">
        <ele>449.8</ele>
        <time>2021-06-01T09:34:47Z</time>
      </trkpt>
      <trkpt lat="45.68976" lon="6.41141">
        <ele>450.4</ele>
        <time>2021-06-01T09:34:48Z</time>
      </trkpt>
      <trkpt lat="45.68977" lon="6.41147">
        <ele>450.8</ele>
        <time>2021-06-01T09:34:49Z</time>
      </trkpt>
      <trkpt lat="45.68978" lon="6.41153">
        <ele>451.2</ele>
        <time>2021-06-01T09:34:50Z</time>
      </trkpt>
      <trkpt lat="45.6898" lon="6.41159">
        <ele>452</ele>
        <time>2021-06-01T09:34:51Z</time>
      </trkpt>
      <trkpt lat="45.68983" lon="6.41164">
        <ele>452.4</ele>
        <time>2021-06-01T09:34:52Z</time>
      </trkpt>
      <trkpt lat="45.68986" lon="6.41168">
        <ele>452.8</ele>
        <time>2021-06-01T09:34:53Z</time>
      </trkpt>
      <trkpt lat="45.68989" lon="6.41173">
        <ele>453.2</ele>
        <time>2021-06-01T09:34:54Z</time>
      </trkpt>
      <trkpt lat="45.68993" lon="6.41177">
        <ele>453.4</ele>
        <time>2021-06-01T09:34:55Z</time>
      </trkpt>
      <trkpt lat="45.68996" lon="6.41181">
        <ele>453.6</ele>
        <time>2021-06-01T09:34:56Z</time>
      </trkpt>
      <trkpt lat="45.69" lon="6.41185">
        <ele>454</ele>
        <time>2021-06-01T09:34:57Z</time>
      </trkpt>
      <trkpt lat="45.69004" lon="6.41189">
        <ele>454.4</ele>
        <time>2021-06-01T09:34:58Z</time>
      </trkpt>
      <trkpt lat="45.69007" lon="6.41194">
        <ele>454.6</ele>
        <time>2021-06-01T09:34:59Z</time>
      </trkpt>
      <trkpt lat="45.69011" lon="6.41199">
        <ele>455</ele>
        <time>2021-06-01T09:35:00Z</time>
      </trkpt>
      <trkpt lat="45.69014" lon="6.41205">
        <ele>455.4</ele>
        <time>2021-06-01T09:35:01Z</time>
      </trkpt>
      <trkpt lat="45.69016" lon="6.41211">
        <ele>455.8</ele>
        <time>2021-06-01T09:35:02Z</time>
      </trkpt>
      <trkpt lat="45.69018" lon="6.41217">
        <ele>456.2</ele>
        <time>2021-06-01T09:35:03Z</time>
      </trkpt>
      <trkpt lat="45.69019" lon="6.41223">
        <ele>456.4</ele>
        <time>2021-06-01T09:35:04Z</time>
      </trkpt>
      <trkpt lat="45.69021" lon="6.41229">
        <ele>456.6</ele>
        <time>2021-06-01T09:35:05Z</time>
      </trkpt>
      <trkpt lat="45.69022" lon="6.41236">
        <ele>456.8</ele>
        <time>2021-06-01T09:35:06Z</time>
      </trkpt>
      <trkpt lat="45.69022" lon="6.41243">
        <ele>457.4</ele>
        <time>2021-06-01T09:35:07Z</time>
      </trkpt>
      <trkpt lat="45.69022" lon="6.4125">
        <ele>458</ele>
        <time>2021-06-01T09:35:08Z</time>
      </trkpt>
      <trkpt lat="45.6902" lon="6.41256">
        <ele>458.4</ele>
        <time>2021-06-01T09:35:09Z</time>
      </trkpt>
      <trkpt lat="45.69019" lon="6.41263">
        <ele>459</ele>
        <time>2021-06-01T09:35:10Z</time>
      </trkpt>
      <trkpt lat="45.69018" lon="6.41269">
        <ele>459.6</ele>
        <time>2021-06-01T09:35:11Z</time>
      </trkpt>
      <trkpt lat="45.69017" lon="6.41275">
        <ele>460.2</ele>
        <time>2021-06-01T09:35:12Z</time>
      </trkpt>
      <trkpt lat="45.69015" lon="6.41282">
        <ele>460.6</ele>
        <time>2021-06-01T09:35:13Z</time>
      </trkpt>
      <trkpt lat="45.69014" lon="6.41288">
        <ele>461</ele>
        <time>2021-06-01T09:35:14Z</time>
      </trkpt>
      <trkpt lat="45.69013" lon="6.41294">
        <ele>461.6</ele>
        <time>2021-06-01T09:35:15Z</time>
      </trkpt>
      <trkpt lat="45.69011" lon="6.413">
        <ele>462</ele>
        <time>2021-06-01T09:35:16Z</time>
      </trkpt>
      <trkpt lat="45.69009" lon="6.41306">
        <ele>462.6</ele>
        <time>2021-06-01T09:35:17Z</time>
      </trkpt>
      <trkpt lat="45.69008" lon="6.41312">
        <ele>463</ele>
        <time>2021-06-01T09:35:18Z</time>
      </trkpt>
      <trkpt lat="45.69006" lon="6.41317">
        <ele>463.4</ele>
        <time>2021-06-01T09:35:19Z</time>
      </trkpt>
      <trkpt lat="45.69004" lon="6.41323">
        <ele>463.6</ele>
        <time>2021-06-01T09:35:20Z</time>
      </trkpt>
      <trkpt lat="45.69002" lon="6.41329">
        <ele>464</ele>
        <time>2021-06-01T09:35:21Z</time>
      </trkpt>
      <trkpt lat="45.69" lon="6.41335">
        <ele>464.2</ele>
        <time>2021-06-01T09:35:22Z</time>
      </trkpt>
      <trkpt lat="45.68998" lon="6.4134">
        <ele>464.2</ele>
        <time>2021-06-01T09:35:23Z</time>
      </trkpt>
      <trkpt lat="45.68995" lon="6.41346">
        <ele>464.4</ele>
        <time>2021-06-01T09:35:24Z</time>
      </trkpt>
      <trkpt lat="45.68993" lon="6.41351">
        <ele>464.6</ele>
        <time>2021-06-01T09:35:25Z</time>
      </trkpt>
      <trkpt lat="45.68989" lon="6.41356">
        <ele>465</ele>
        <time>2021-06-01T09:35:26Z</time>
      </trkpt>
      <trkpt lat="45.68987" lon="6.41361">
        <ele>465.4</ele>
        <time>2021-06-01T09:35:27Z</time>
      </trkpt>
      <trkpt lat="45.68984" lon="6.41365">
        <ele>465.6</ele>
        <time>2021-06-01T09:35:28Z</time>
      </trkpt>
      <trkpt lat="45.68981" lon="6.4137">
        <ele>465.8</ele>
        <time>2021-06-01T09:35:29Z</time>
      </trkpt>
      <trkpt lat="45.68979" lon="6.41374">
        <ele>465.8</ele>
        <time>2021-06-01T09:35:30Z</time>
      </trkpt>
      <trkpt lat="45.68977" lon="6.4138">
        <ele>465.6</ele>
        <time>2021-06-01T09:35:31Z</time>
      </trkpt>
      <trkpt lat="45.68974" lon="6.41384">
        <ele>465.2</ele>
        <time>2021-06-01T09:35:32Z</time>
      </trkpt>
      <trkpt lat="45.68972" lon="6.4139">
        <ele>464.6</ele>
        <time>2021-06-01T09:35:33Z</time>
      </trkpt>
      <trkpt lat="45.68969" lon="6.41395">
        <ele>464</ele>
        <time>2021-06-01T09:35:34Z</time>
      </trkpt>
      <trkpt lat="45.68966" lon="6.414">
        <ele>463.6</ele>
        <time>2021-06-01T09:35:35Z</time>
      </trkpt>
      <trkpt lat="45.68963" lon="6.41404">
        <ele>463</ele>
        <time>2021-06-01T09:35:36Z</time>
      </trkpt>
      <trkpt lat="45.68961" lon="6.41409">
        <ele>462.6</ele>
        <time>2021-06-01T09:35:37Z</time>
      </trkpt>
      <trkpt lat="45.68959" lon="6.41414">
        <ele>462.4</ele>
        <time>2021-06-01T09:35:38Z</time>
      </trkpt>
      <trkpt lat="45.68956" lon="6.4142">
        <ele>462</ele>
        <time>2021-06-01T09:35:39Z</time>
      </trkpt>
      <trkpt lat="45.68954" lon="6.41426">
        <ele>461.6</ele>
        <time>2021-06-01T09:35:40Z</time>
      </trkpt>
      <trkpt lat="45.68953" lon="6.41431">
        <ele>461.6</ele>
        <time>2021-06-01T09:35:41Z</time>
      </trkpt>
      <trkpt lat="45.68952" lon="6.41438">
        <ele>461.4</ele>
        <time>2021-06-01T09:35:42Z</time>
      </trkpt>
      <trkpt lat="45.68952" lon="6.41444">
        <ele>461.4</ele>
        <time>2021-06-01T09:35:43Z</time>
      </trkpt>
      <trkpt lat="45.68951" lon="6.4145">
        <ele>461.6</ele>
        <time>2021-06-01T09:35:44Z</time>
      </trkpt>
      <trkpt lat="45.68951" lon="6.41456">
        <ele>461.8</ele>
        <time>2021-06-01T09:35:45Z</time>
      </trkpt>
      <trkpt lat="45.68951" lon="6.41462">
        <ele>461.8</ele>
        <time>2021-06-01T09:35:46Z</time>
      </trkpt>
      <trkpt lat="45.68951" lon="6.41468">
        <ele>462.2</ele>
        <time>2021-06-01T09:35:47Z</time>
      </trkpt>
      <trkpt lat="45.68951" lon="6.41474">
        <ele>462.6</ele>
        <time>2021-06-01T09:35:48Z</time>
      </trkpt>
      <trkpt lat="45.68951" lon="6.41481">
        <ele>463.2</ele>
        <time>2021-06-01T09:35:49Z</time>
      </trkpt>
      <trkpt lat="45.6895" lon="6.41488">
        <ele>464</ele>
        <time>2021-06-01T09:35:50Z</time>
      </trkpt>
      <trkpt lat="45.68949" lon="6.41495">
        <ele>464.8</ele>
        <time>2021-06-01T09:35:51Z</time>
      </trkpt>
      <trkpt lat="45.68949" lon="6.41502">
        <ele>465.6</ele>
        <time>2021-06-01T09:35:52Z</time>
      </trkpt>
      <trkpt lat="45.68948" lon="6.41508">
        <ele>466.4</ele>
        <time>2021-06-01T09:35:53Z</time>
      </trkpt>
      <trkpt lat="45.68948" lon="6.41514">
        <ele>467.2</ele>
        <time>2021-06-01T09:35:54Z</time>
      </trkpt>
      <trkpt lat="45.68948" lon="6.4152">
        <ele>468</ele>
        <time>2021-06-01T09:35:55Z</time>
      </trkpt>
      <trkpt lat="45.68947" lon="6.41527">
        <ele>468.6</ele>
        <time>2021-06-01T09:35:56Z</time>
      </trkpt>
      <trkpt lat="45.68947" lon="6.41535">
        <ele>469.2</ele>
        <time>2021-06-01T09:35:57Z</time>
      </trkpt>
      <trkpt lat="45.68946" lon="6.41541">
        <ele>469.6</ele>
        <time>2021-06-01T09:35:58Z</time>
      </trkpt>
      <trkpt lat="45.68945" lon="6.41548">
        <ele>470.2</ele>
        <time>2021-06-01T09:35:59Z</time>
      </trkpt>
      <trkpt lat="45.68943" lon="6.41554">
        <ele>470.6</ele>
        <time>2021-06-01T09:36:00Z</time>
      </trkpt>
      <trkpt lat="45.6894" lon="6.4156">
        <ele>471</ele>
        <time>2021-06-01T09:36:01Z</time>
      </trkpt>
      <trkpt lat="45.68937" lon="6.41564">
        <ele>471.6</ele>
        <time>2021-06-01T09:36:02Z</time>
      </trkpt>
      <trkpt lat="45.68933" lon="6.41569">
        <ele>472.2</ele>
        <time>2021-06-01T09:36:03Z</time>
      </trkpt>
      <trkpt lat="45.6893" lon="6.41573">
        <ele>472.8</ele>
        <time>2021-06-01T09:36:04Z</time>
      </trkpt>
      <trkpt lat="45.68925" lon="6.41577">
        <ele>473.4</ele>
        <time>2021-06-01T09:36:05Z</time>
      </trkpt>
      <trkpt lat="45.68922" lon="6.41581">
        <ele>474</ele>
        <time>2021-06-01T09:36:06Z</time>
      </trkpt>
      <trkpt lat="45.68919" lon="6.41586">
        <ele>474.6</ele>
        <time>2021-06-01T09:36:07Z</time>
      </trkpt>
      <trkpt lat="45.68916" lon="6.41592">
        <ele>475.2</ele>
        <time>2021-06-01T09:36:08Z</time>
      </trkpt>
      <trkpt lat="45.68914" lon="6.41598">
        <ele>475.8</ele>
        <time>2021-06-01T09:36:09Z</time>
      </trkpt>
      <trkpt lat="45.68912" lon="6.41603">
        <ele>476.6</ele>
        <time>2021-06-01T09:36:10Z</time>
      </trkpt>
      <trkpt lat="45.68911" lon="6.41609">
        <ele>477</ele>
        <time>2021-06-01T09:36:11Z</time>
      </trkpt>
      <trkpt lat="45.6891" lon="6.41615">
        <ele>477.6</ele>
        <time>2021-06-01T09:36:12Z</time>
      </trkpt>
      <trkpt lat="45.6891" lon="6.41621">
        <ele>478.2</ele>
        <time>2021-06-01T09:36:13Z</time>
      </trkpt>
      <trkpt lat="45.68911" lon="6.41628">
        <ele>478.6</ele>
        <time>2021-06-01T09:36:14Z</time>
      </trkpt>
      <trkpt lat="45.68913" lon="6.41635">
        <ele>479.2</ele>
        <time>2021-06-01T09:36:15Z</time>
      </trkpt>
      <trkpt lat="45.68916" lon="6.41641">
        <ele>479.4</ele>
        <time>2021-06-01T09:36:16Z</time>
      </trkpt>
      <trkpt lat="45.68917" lon="6.41647">
        <ele>479.8</ele>
        <time>2021-06-01T09:36:17Z</time>
      </trkpt>
      <trkpt lat="45.68919" lon="6.41653">
        <ele>479.8</ele>
        <time>2021-06-01T09:36:18Z</time>
      </trkpt>
      <trkpt lat="45.68921" lon="6.41659">
        <ele>480</ele>
        <time>2021-06-01T09:36:19Z</time>
      </trkpt>
      <trkpt lat="45.68923" lon="6.41666">
        <ele>480.2</ele>
        <time>2021-06-01T09:36:20Z</time>
      </trkpt>
      <trkpt lat="45.68924" lon="6.41671">
        <ele>480</ele>
        <time>2021-06-01T09:36:21Z</time>
      </trkpt>
      <trkpt lat="45.68924" lon="6.41677">
        <ele>480</ele>
        <time>2021-06-01T09:36:22Z</time>
      </trkpt>
      <trkpt lat="45.68925" lon="6.41683">
        <ele>480.2</ele>
        <time>2021-06-01T09:36:23Z</time>
      </trkpt>
      <trkpt lat="45.68925" lon="6.41689">
        <ele>480</ele>
        <time>2021-06-01T09:36:24Z</time>
      </trkpt>
      <trkpt lat="45.68927" lon="6.41694">
        <ele>480.2</ele>
        <time>2021-06-01T09:36:25Z</time>
      </trkpt>
      <trkpt lat="45.68929" lon="6.41699">
        <ele>480</ele>
        <time>2021-06-01T09:36:26Z</time>
      </trkpt>
      <trkpt lat="45.68931" lon="6.41703">
        <ele>480</ele>
        <time>2021-06-01T09:36:27Z</time>
      </trkpt>
      <trkpt lat="45.68933" lon="6.41708">
        <ele>479.8</ele>
        <time>2021-06-01T09:36:28Z</time>
      </trkpt>
      <trkpt lat="45.68935" lon="6.41713">
        <ele>479.8</ele>
        <time>2021-06-01T09:36:29Z</time>
      </trkpt>
      <trkpt lat="45.68938" lon="6.41719">
        <ele>479.8</ele>
        <time>2021-06-01T09:36:30Z</time>
      </trkpt>
      <trkpt lat="45.6894" lon="6.41725">
        <ele>479.8</ele>
        <time>2021-06-01T09:36:31Z</time>
      </trkpt>
      <trkpt lat="45.68943" lon="6.41731">
        <ele>479.8</ele>
        <time>2021-06-01T09:36:32Z</time>
      </trkpt>
      <trkpt lat="45.68945" lon="6.41737">
        <ele>479.8</ele>
        <time>2021-06-01T09:36:33Z</time>
      </trkpt>
      <trkpt lat="45.68946" lon="6.41743">
        <ele>479.8</ele>
        <time>2021-06-01T09:36:34Z</time>
      </trkpt>
      <trkpt lat="45.68947" lon="6.4175">
        <ele>479.8</ele>
        <time>2021-06-01T09:36:35Z</time>
      </trkpt>
      <trkpt lat="45.68947" lon="6.41757">
        <ele>479.8</ele>
        <time>2021-06-01T09:36:36Z</time>
      </trkpt>
      <trkpt lat="45.68946" lon="6.41763">
        <ele>480</ele>
        <time>2021-06-01T09:36:37Z</time>
      </trkpt>
      <trkpt lat="45.68945" lon="6.4177">
        <ele>480.2</ele>
        <time>2021-06-01T09:36:38Z</time>
      </trkpt>
      <trkpt lat="45.68943" lon="6.41777">
        <ele>480.4</ele>
        <time>2021-06-01T09:36:39Z</time>
      </trkpt>
      <trkpt lat="45.68941" lon="6.41784">
        <ele>480.8</ele>
        <time>2021-06-01T09:36:40Z</time>
      </trkpt>
      <trkpt lat="45.6894" lon="6.4179">
        <ele>481.2</ele>
        <time>2021-06-01T09:36:41Z</time>
      </trkpt>
      <trkpt lat="45.6894" lon="6.41797">
        <ele>481.6</ele>
        <time>2021-06-01T09:36:42Z</time>
      </trkpt>
      <trkpt lat="45.68939" lon="6.41804">
        <ele>482.2</ele>
        <time>2021-06-01T09:36:43Z</time>
      </trkpt>
      <trkpt lat="45.68938" lon="6.4181">
        <ele>482.6</ele>
        <time>2021-06-01T09:36:44Z</time>
      </trkpt>
      <trkpt lat="45.68938" lon="6.41817">
        <ele>483</ele>
        <time>2021-06-01T09:36:45Z</time>
      </trkpt>
      <trkpt lat="45.68938" lon="6.41823">
        <ele>483.2</ele>
        <time>2021-06-01T09:36:46Z</time>
      </trkpt>
      <trkpt lat="45.68939" lon="6.4183">
        <ele>483.8</ele>
        <time>2021-06-01T09:36:47Z</time>
      </trkpt>
      <trkpt lat="45.68939" lon="6.41837">
        <ele>484.2</ele>
        <time>2021-06-01T09:36:48Z</time>
      </trkpt>
      <trkpt lat="45.6894" lon="6.41844">
        <ele>484.8</ele>
        <time>2021-06-01T09:36:49Z</time>
      </trkpt>
      <trkpt lat="45.68941" lon="6.4185">
        <ele>485.2</ele>
        <time>2021-06-01T09:36:50Z</time>
      </trkpt>
      <trkpt lat="45.6894" lon="6.41857">
        <ele>485.6</ele>
        <time>2021-06-01T09:36:51Z</time>
      </trkpt>
      <trkpt lat="45.68943" lon="6.41863">
        <ele>486</ele>
        <time>2021-06-01T09:36:52Z</time>
      </trkpt>
      <trkpt lat="45.68945" lon="6.4187">
        <ele>486.4</ele>
        <time>2021-06-01T09:36:53Z</time>
      </trkpt>
      <trkpt lat="45.68948" lon="6.41877">
        <ele>486.8</ele>
        <time>2021-06-01T09:36:54Z</time>
      </trkpt>
      <trkpt lat="45.6895" lon="6.41883">
        <ele>487</ele>
        <time>2021-06-01T09:36:55Z</time>
      </trkpt>
      <trkpt lat="45.68952" lon="6.41889">
        <ele>487.6</ele>
        <time>2021-06-01T09:36:56Z</time>
      </trkpt>
      <trkpt lat="45.68954" lon="6.41896">
        <ele>488</ele>
        <time>2021-06-01T09:36:57Z</time>
      </trkpt>
      <trkpt lat="45.68956" lon="6.41902">
        <ele>488.6</ele>
        <time>2021-06-01T09:36:58Z</time>
      </trkpt>
      <trkpt lat="45.68957" lon="6.41909">
        <ele>489</ele>
        <time>2021-06-01T09:36:59Z</time>
      </trkpt>
      <trkpt lat="45.68959" lon="6.41915">
        <ele>489.4</ele>
        <time>2021-06-01T09:37:00Z</time>
      </trkpt>
      <trkpt lat="45.68961" lon="6.41927">
        <ele>490.4</ele>
        <time>2021-06-01T09:37:02Z</time>
      </trkpt>
      <trkpt lat="45.68961" lon="6.41933">
        <ele>490.8</ele>
        <time>2021-06-01T09:37:03Z</time>
      </trkpt>
      <trkpt lat="45.69103" lon="6.42043">
        <ele>501</ele>
        <time>2021-06-01T09:37:33Z</time>
      </trkpt>
      <trkpt lat="45.69108" lon="6.42048">
        <ele>501.4</ele>
        <time>2021-06-01T09:37:34Z</time>
      </trkpt>
      <trkpt lat="45.69113" lon="6.42052">
        <ele>501.6</ele>
        <time>2021-06-01T09:37:35Z</time>
      </trkpt>
      <trkpt lat="45.69118" lon="6.42057">
        <ele>501.8</ele>
        <time>2021-06-01T09:37:36Z</time>
      </trkpt>
      <trkpt lat="45.69124" lon="6.42063">
        <ele>502.2</ele>
        <time>2021-06-01T09:37:37Z</time>
      </trkpt>
      <trkpt lat="45.69128" lon="6.4207">
        <ele>502.4</ele>
        <time>2021-06-01T09:37:38Z</time>
      </trkpt>
      <trkpt lat="45.69132" lon="6.42078">
        <ele>502.8</ele>
        <time>2021-06-01T09:37:39Z</time>
      </trkpt>
      <trkpt lat="45.69134" lon="6.42087">
        <ele>503</ele>
        <time>2021-06-01T09:37:40Z</time>
      </trkpt>
      <trkpt lat="45.69138" lon="6.42097">
        <ele>503.4</ele>
        <time>2021-06-01T09:37:41Z</time>
      </trkpt>
      <trkpt lat="45.69141" lon="6.42105">
        <ele>503.6</ele>
        <time>2021-06-01T09:37:42Z</time>
      </trkpt>
      <trkpt lat="45.69144" lon="6.42112">
        <ele>503.8</ele>
        <time>2021-06-01T09:37:43Z</time>
      </trkpt>
      <trkpt lat="45.69148" lon="6.42118">
        <ele>503.6</ele>
        <time>2021-06-01T09:37:44Z</time>
      </trkpt>
      <trkpt lat="45.69152" lon="6.42122">
        <ele>503.4</ele>
        <time>2021-06-01T09:37:45Z</time>
      </trkpt>
      <trkpt lat="45.69157" lon="6.42125">
        <ele>503.6</ele>
        <time>2021-06-01T09:37:46Z</time>
      </trkpt>
      <trkpt lat="45.69164" lon="6.42128">
        <ele>504</ele>
        <time>2021-06-01T09:37:47Z</time>
      </trkpt>
      <trkpt lat="45.6917" lon="6.42129">
        <ele>504.2</ele>
        <time>2021-06-01T09:37:48Z</time>
      </trkpt>
      <trkpt lat="45.69177" lon="6.4213">
        <ele>504.6</ele>
        <time>2021-06-01T09:37:49Z</time>
      </trkpt>
      <trkpt lat="45.69185" lon="6.42131">
        <ele>505</ele>
        <time>2021-06-01T09:37:50Z</time>
      </trkpt>
      <trkpt lat="45.69192" lon="6.42134">
        <ele>505.2</ele>
        <time>2021-06-01T09:37:51Z</time>
      </trkpt>
      <trkpt lat="45.69199" lon="6.42137">
        <ele>505.6</ele>
        <time>2021-06-01T09:37:52Z</time>
      </trkpt>
      <trkpt lat="45.69205" lon="6.42141">
        <ele>505.8</ele>
        <time>2021-06-01T09:37:53Z</time>
      </trkpt>
      <trkpt lat="45.69212" lon="6.42144">
        <ele>506</ele>
        <time>2021-06-01T09:37:54Z</time>
      </trkpt>
      <trkpt lat="45.69218" lon="6.42146">
        <ele>506.4</ele>
        <time>2021-06-01T09:37:55Z</time>
      </trkpt>
      <trkpt lat="45.69224" lon="6.42148">
        <ele>506.6</ele>
        <time>2021-06-01T09:37:56Z</time>
      </trkpt>
      <trkpt lat="45.6923" lon="6.42149">
        <ele>507</ele>
        <time>2021-06-01T09:37:57Z</time>
      </trkpt>
      <trkpt lat="45.69237" lon="6.42152">
        <ele>507.2</ele>
        <time>2021-06-01T09:37:58Z</time>
      </trkpt>
      <trkpt lat="45.69244" lon="6.42156">
        <ele>507.4</ele>
        <time>2021-06-01T09:37:59Z</time>
      </trkpt>
      <trkpt lat="45.6925" lon="6.4216">
        <ele>507.6</ele>
        <time>2021-06-01T09:38:00Z</time>
      </trkpt>
      <trkpt lat="45.69255" lon="6.42165">
        <ele>508</ele>
        <time>2021-06-01T09:38:01Z</time>
      </trkpt>
      <trkpt lat="45.6926" lon="6.4217">
        <ele>508.2</ele>
        <time>2021-06-01T09:38:02Z</time>
      </trkpt>
      <trkpt lat="45.69264" lon="6.42176">
        <ele>508.6</ele>
        <time>2021-06-01T09:38:03Z</time>
      </trkpt>
      <trkpt lat="45.69268" lon="6.42182">
        <ele>508.8</ele>
        <time>2021-06-01T09:38:04Z</time>
      </trkpt>
      <trkpt lat="45.69272" lon="6.42189">
        <ele>509.2</ele>
        <time>2021-06-01T09:38:05Z</time>
      </trkpt>
      <trkpt lat="45.69277" lon="6.42197">
        <ele>509.4</ele>
        <time>2021-06-01T09:38:06Z</time>
      </trkpt>
      <trkpt lat="45.69282" lon="6.42204">
        <ele>509.6</ele>
        <time>2021-06-01T09:38:07Z</time>
      </trkpt>
      <trkpt lat="45.69286" lon="6.42212">
        <ele>509.8</ele>
        <time>2021-06-01T09:38:08Z</time>
      </trkpt>
      <trkpt lat="45.69291" lon="6.4222">
        <ele>510.2</ele>
        <time>2021-06-01T09:38:09Z</time>
      </trkpt>
      <trkpt lat="45.69296" lon="6.42228">
        <ele>510.6</ele>
        <time>2021-06-01T09:38:10Z</time>
      </trkpt>
      <trkpt lat="45.69301" lon="6.42237">
        <ele>510.6</ele>
        <time>2021-06-01T09:38:11Z</time>
      </trkpt>
      <trkpt lat="45.69307" lon="6.42246">
        <ele>511</ele>
        <time>2021-06-01T09:38:12Z</time>
      </trkpt>
      <trkpt lat="45.69311" lon="6.42256">
        <ele>511</ele>
        <time>2021-06-01T09:38:13Z</time>
      </trkpt>
      <trkpt lat="45.6932" lon="6.42275">
        <ele>511.6</ele>
        <time>2021-06-01T09:38:15Z</time>
      </trkpt>
      <trkpt lat="45.69321" lon="6.42284">
        <ele>511.8</ele>
        <time>2021-06-01T09:38:16Z</time>
      </trkpt>
      <trkpt lat="45.69323" lon="6.42293">
        <ele>512</ele>
        <time>2021-06-01T09:38:17Z</time>
      </trkpt>
      <trkpt lat="45.69326" lon="6.42303">
        <ele>512.4</ele>
        <time>2021-06-01T09:38:18Z</time>
      </trkpt>
      <trkpt lat="45.69327" lon="6.42311">
        <ele>512.6</ele>
        <time>2021-06-01T09:38:19Z</time>
      </trkpt>
      <trkpt lat="45.6933" lon="6.42319">
        <ele>513</ele>
        <time>2021-06-01T09:38:20Z</time>
      </trkpt>
      <trkpt lat="45.69332" lon="6.42327">
        <ele>513.4</ele>
        <time>2021-06-01T09:38:21Z</time>
      </trkpt>
      <trkpt lat="45.69336" lon="6.42335">
        <ele>513.4</ele>
        <time>2021-06-01T09:38:22Z</time>
      </trkpt>
      <trkpt lat="45.69342" lon="6.42343">
        <ele>513.6</ele>
        <time>2021-06-01T09:38:23Z</time>
      </trkpt>
      <trkpt lat="45.69347" lon="6.4235">
        <ele>513.8</ele>
        <time>2021-06-01T09:38:24Z</time>
      </trkpt>
      <trkpt lat="45.69351" lon="6.42357">
        <ele>513.6</ele>
        <time>2021-06-01T09:38:25Z</time>
      </trkpt>
      <trkpt lat="45.69356" lon="6.42365">
        <ele>513.6</ele>
        <time>2021-06-01T09:38:26Z</time>
      </trkpt>
      <trkpt lat="45.69361" lon="6.42372">
        <ele>513.6</ele>
        <time>2021-06-01T09:38:27Z</time>
      </trkpt>
      <trkpt lat="45.69366" lon="6.42379">
        <ele>513.6</ele>
        <time>2021-06-01T09:38:28Z</time>
      </trkpt>
      <trkpt lat="45.69439" lon="6.4248">
        <ele>514.4</ele>
        <time>2021-06-01T09:38:41Z</time>
      </trkpt>
      <trkpt lat="45.69447" lon="6.42483">
        <ele>514</ele>
        <time>2021-06-01T09:38:42Z</time>
      </trkpt>
      <trkpt lat="45.69453" lon="6.42487">
        <ele>513.8</ele>
        <time>2021-06-01T09:38:43Z</time>
      </trkpt>
      <trkpt lat="45.69461" lon="6.42491">
        <ele>513.8</ele>
        <time>2021-06-01T09:38:44Z</time>
      </trkpt>
      <trkpt lat="45.69473" lon="6.42495">
        <ele>513.4</ele>
        <time>2021-06-01T09:38:45Z</time>
      </trkpt>
      <trkpt lat="45.69483" lon="6.42499">
        <ele>512.8</ele>
        <time>2021-06-01T09:38:46Z</time>
      </trkpt>
      <trkpt lat="45.69492" lon="6.42505">
        <ele>512.4</ele>
        <time>2021-06-01T09:38:47Z</time>
      </trkpt>
      <trkpt lat="45.69502" lon="6.42512">
        <ele>512.2</ele>
        <time>2021-06-01T09:38:48Z</time>
      </trkpt>
      <trkpt lat="45.69518" lon="6.4253">
        <ele>511.6</ele>
        <time>2021-06-01T09:38:50Z</time>
      </trkpt>
      <trkpt lat="45.69532" lon="6.42553">
        <ele>511.2</ele>
        <time>2021-06-01T09:38:52Z</time>
      </trkpt>
      <trkpt lat="45.69541" lon="6.42562">
        <ele>510.8</ele>
        <time>2021-06-01T09:38:53Z</time>
      </trkpt>
      <trkpt lat="45.69555" lon="6.4258">
        <ele>510.6</ele>
        <time>2021-06-01T09:38:55Z</time>
      </trkpt>
      <trkpt lat="45.69563" lon="6.4259">
        <ele>510.4</ele>
        <time>2021-06-01T09:38:56Z</time>
      </trkpt>
      <trkpt lat="45.69571" lon="6.426">
        <ele>510.2</ele>
        <time>2021-06-01T09:38:57Z</time>
      </trkpt>
      <trkpt lat="45.69578" lon="6.42612">
        <ele>510.2</ele>
        <time>2021-06-01T09:38:58Z</time>
      </trkpt>
      <trkpt lat="45.69585" lon="6.42625">
        <ele>510.2</ele>
        <time>2021-06-01T09:38:59Z</time>
      </trkpt>
      <trkpt lat="45.69593" lon="6.42636">
        <ele>510</ele>
        <time>2021-06-01T09:39:00Z</time>
      </trkpt>
      <trkpt lat="45.6967" lon="6.42681">
        <ele>508.2</ele>
        <time>2021-06-01T09:39:08Z</time>
      </trkpt>
      <trkpt lat="45.69681" lon="6.42686">
        <ele>508.2</ele>
        <time>2021-06-01T09:39:09Z</time>
      </trkpt>
      <trkpt lat="45.69691" lon="6.4269">
        <ele>508</ele>
        <time>2021-06-01T09:39:10Z</time>
      </trkpt>
      <trkpt lat="45.69701" lon="6.42695">
        <ele>508</ele>
        <time>2021-06-01T09:39:11Z</time>
      </trkpt>
      <trkpt lat="45.69758" lon="6.42698">
        <ele>506.8</ele>
        <time>2021-06-01T09:39:16Z</time>
      </trkpt>
      <trkpt lat="45.69765" lon="6.42705">
        <ele>506.6</ele>
        <time>2021-06-01T09:39:17Z</time>
      </trkpt>
      <trkpt lat="45.69775" lon="6.42713">
        <ele>506.6</ele>
        <time>2021-06-01T09:39:18Z</time>
      </trkpt>
      <trkpt lat="45.69783" lon="6.42722">
        <ele>506.4</ele>
        <time>2021-06-01T09:39:19Z</time>
      </trkpt>
      <trkpt lat="45.69791" lon="6.42728">
        <ele>506.2</ele>
        <time>2021-06-01T09:39:20Z</time>
      </trkpt>
      <trkpt lat="45.698" lon="6.42735">
        <ele>506</ele>
        <time>2021-06-01T09:39:21Z</time>
      </trkpt>
      <trkpt lat="45.69811" lon="6.4274">
        <ele>505.8</ele>
        <time>2021-06-01T09:39:22Z</time>
      </trkpt>
      <trkpt lat="45.6982" lon="6.42745">
        <ele>505.6</ele>
        <time>2021-06-01T09:39:23Z</time>
      </trkpt>
      <trkpt lat="45.69829" lon="6.42752">
        <ele>505.4</ele>
        <time>2021-06-01T09:39:24Z</time>
      </trkpt>
      <trkpt lat="45.69851" lon="6.42764">
        <ele>505.6</ele>
        <time>2021-06-01T09:39:26Z</time>
      </trkpt>
      <trkpt lat="45.69861" lon="6.42771">
        <ele>505.6</ele>
        <time>2021-06-01T09:39:27Z</time>
      </trkpt>
      <trkpt lat="45.69881" lon="6.42784">
        <ele>504.8</ele>
        <time>2021-06-01T09:39:29Z</time>
      </trkpt>
      <trkpt lat="45.69932" lon="6.42817">
        <ele>503.2</ele>
        <time>2021-06-01T09:39:34Z</time>
      </trkpt>
      <trkpt lat="45.69954" lon="6.42832">
        <ele>502.8</ele>
        <time>2021-06-01T09:39:36Z</time>
      </trkpt>
      <trkpt lat="45.69964" lon="6.42839">
        <ele>502.2</ele>
        <time>2021-06-01T09:39:37Z</time>
      </trkpt>
      <trkpt lat="45.69973" lon="6.42846">
        <ele>502</ele>
        <time>2021-06-01T09:39:38Z</time>
      </trkpt>
      <trkpt lat="45.70208" lon="6.42985">
        <ele>495.8</ele>
        <time>2021-06-01T09:40:01Z</time>
      </trkpt>
      <trkpt lat="45.70216" lon="6.42997">
        <ele>495.8</ele>
        <time>2021-06-01T09:40:02Z</time>
      </trkpt>
      <trkpt lat="45.70224" lon="6.43009">
        <ele>495.4</ele>
        <time>2021-06-01T09:40:03Z</time>
      </trkpt>
      <trkpt lat="45.70259" lon="6.43044">
        <ele>494.6</ele>
        <time>2021-06-01T09:40:07Z</time>
      </trkpt>
      <trkpt lat="45.70268" lon="6.43052">
        <ele>494.4</ele>
        <time>2021-06-01T09:40:08Z</time>
      </trkpt>
      <trkpt lat="45.70278" lon="6.4306">
        <ele>493.8</ele>
        <time>2021-06-01T09:40:09Z</time>
      </trkpt>
      <trkpt lat="45.70289" lon="6.43069">
        <ele>493.8</ele>
        <time>2021-06-01T09:40:10Z</time>
      </trkpt>
      <trkpt lat="45.70299" lon="6.43077">
        <ele>493.2</ele>
        <time>2021-06-01T09:40:11Z</time>
      </trkpt>
      <trkpt lat="45.70309" lon="6.43084">
        <ele>492.4</ele>
        <time>2021-06-01T09:40:12Z</time>
      </trkpt>
      <trkpt lat="45.70319" lon="6.43091">
        <ele>491.8</ele>
        <time>2021-06-01T09:40:13Z</time>
      </trkpt>
      <trkpt lat="45.70331" lon="6.43097">
        <ele>491</ele>
        <time>2021-06-01T09:40:14Z</time>
      </trkpt>
      <trkpt lat="45.70343" lon="6.43101">
        <ele>490.4</ele>
        <time>2021-06-01T09:40:15Z</time>
      </trkpt>
      <trkpt lat="45.70354" lon="6.43101">
        <ele>489.8</ele>
        <time>2021-06-01T09:40:16Z</time>
      </trkpt>
      <trkpt lat="45.70364" lon="6.43097">
        <ele>489</ele>
        <time>2021-06-01T09:40:17Z</time>
      </trkpt>
      <trkpt lat="45.70373" lon="6.4309">
        <ele>488.8</ele>
        <time>2021-06-01T09:40:18Z</time>
      </trkpt>
      <trkpt lat="45.70381" lon="6.43081">
        <ele>488.6</ele>
        <time>2021-06-01T09:40:19Z</time>
      </trkpt>
      <trkpt lat="45.70391" lon="6.43073">
        <ele>488.6</ele>
        <time>2021-06-01T09:40:20Z</time>
      </trkpt>
      <trkpt lat="45.70401" lon="6.43068">
        <ele>488.6</ele>
        <time>2021-06-01T09:40:21Z</time>
      </trkpt>
      <trkpt lat="45.70411" lon="6.43066">
        <ele>488.8</ele>
        <time>2021-06-01T09:40:22Z</time>
      </trkpt>
      <trkpt lat="45.7042" lon="6.43067">
        <ele>488.4</ele>
        <time>2021-06-01T09:40:23Z</time>
      </trkpt>
      <trkpt lat="45.7043" lon="6.43069">
        <ele>488</ele>
        <time>2021-06-01T09:40:24Z</time>
      </trkpt>
      <trkpt lat="45.70441" lon="6.43072">
        <ele>487.4</ele>
        <time>2021-06-01T09:40:25Z</time>
      </trkpt>
      <trkpt lat="45.70451" lon="6.43076">
        <ele>487.4</ele>
        <time>2021-06-01T09:40:26Z</time>
      </trkpt>
      <trkpt lat="45.7046" lon="6.43079">
        <ele>487.6</ele>
        <time>2021-06-01T09:40:27Z</time>
      </trkpt>
      <trkpt lat="45.7047" lon="6.43084">
        <ele>487.4</ele>
        <time>2021-06-01T09:40:28Z</time>
      </trkpt>
      <trkpt lat="45.70478" lon="6.43087">
        <ele>487.4</ele>
        <time>2021-06-01T09:40:29Z</time>
      </trkpt>
      <trkpt lat="45.70487" lon="6.43092">
        <ele>487.2</ele>
        <time>2021-06-01T09:40:30Z</time>
      </trkpt>
      <trkpt lat="45.70495" lon="6.43098">
        <ele>487.2</ele>
        <time>2021-06-01T09:40:31Z</time>
      </trkpt>
      <trkpt lat="45.70504" lon="6.43105">
        <ele>487</ele>
        <time>2021-06-01T09:40:32Z</time>
      </trkpt>
      <trkpt lat="45.70512" lon="6.43114">
        <ele>487.2</ele>
        <time>2021-06-01T09:40:33Z</time>
      </trkpt>
      <trkpt lat="45.70519" lon="6.43123">
        <ele>487</ele>
        <time>2021-06-01T09:40:34Z</time>
      </trkpt>
      <trkpt lat="45.70526" lon="6.43134">
        <ele>486.8</ele>
        <time>2021-06-01T09:40:35Z</time>
      </trkpt>
      <trkpt lat="45.70533" lon="6.43145">
        <ele>486.8</ele>
        <time>2021-06-01T09:40:36Z</time>
      </trkpt>
      <trkpt lat="45.7054" lon="6.43157">
        <ele>486.6</ele>
        <time>2021-06-01T09:40:37Z</time>
      </trkpt>
      <trkpt lat="45.70547" lon="6.43168">
        <ele>486.4</ele>
        <time>2021-06-01T09:40:38Z</time>
      </trkpt>
      <trkpt lat="45.70552" lon="6.43179">
        <ele>486.4</ele>
        <time>2021-06-01T09:40:39Z</time>
      </trkpt>
      <trkpt lat="45.70557" lon="6.4319">
        <ele>486.8</ele>
        <time>2021-06-01T09:40:40Z</time>
      </trkpt>
      <trkpt lat="45.70564" lon="6.43199">
        <ele>486.8</ele>
        <time>2021-06-01T09:40:41Z</time>
      </trkpt>
      <trkpt lat="45.70571" lon="6.43209">
        <ele>487</ele>
        <time>2021-06-01T09:40:42Z</time>
      </trkpt>
      <trkpt lat="45.70577" lon="6.43218">
        <ele>487</ele>
        <time>2021-06-01T09:40:43Z</time>
      </trkpt>
      <trkpt lat="45.70585" lon="6.43227">
        <ele>487</ele>
        <time>2021-06-01T09:40:44Z</time>
      </trkpt>
      <trkpt lat="45.70591" lon="6.43235">
        <ele>487</ele>
        <time>2021-06-01T09:40:45Z</time>
      </trkpt>
      <trkpt lat="45.70596" lon="6.43243">
        <ele>487</ele>
        <time>2021-06-01T09:40:46Z</time>
      </trkpt>
      <trkpt lat="45.70603" lon="6.43251">
        <ele>487</ele>
        <time>2021-06-01T09:40:47Z</time>
      </trkpt>
      <trkpt lat="45.70602" lon="6.43258">
        <ele>486.8</ele>
        <time>2021-06-01T09:40:48Z</time>
      </trkpt>
      <trkpt lat="45.70605" lon="6.43268">
        <ele>486.8</ele>
        <time>2021-06-01T09:40:49Z</time>
      </trkpt>
      <trkpt lat="45.70609" lon="6.43278">
        <ele>486.6</ele>
        <time>2021-06-01T09:40:50Z</time>
      </trkpt>
      <trkpt lat="45.70617" lon="6.43296">
        <ele>486.6</ele>
        <time>2021-06-01T09:40:52Z</time>
      </trkpt>
      <trkpt lat="45.70623" lon="6.43307">
        <ele>486.6</ele>
        <time>2021-06-01T09:40:53Z</time>
      </trkpt>
      <trkpt lat="45.71578" lon="6.44475">
        <ele>496.8</ele>
        <time>2021-06-01T09:43:41Z</time>
      </trkpt>
      <trkpt lat="45.71587" lon="6.4449">
        <ele>496.2</ele>
        <time>2021-06-01T09:43:43Z</time>
      </trkpt>
      <trkpt lat="45.71591" lon="6.44498">
        <ele>495.8</ele>
        <time>2021-06-01T09:43:44Z</time>
      </trkpt>
      <trkpt lat="45.71595" lon="6.44505">
        <ele>495.4</ele>
        <time>2021-06-01T09:43:45Z</time>
      </trkpt>
      <trkpt lat="45.71599" lon="6.44512">
        <ele>495</ele>
        <time>2021-06-01T09:43:46Z</time>
      </trkpt>
      <trkpt lat="45.71717" lon="6.44707">
        <ele>486.6</ele>
        <time>2021-06-01T09:44:23Z</time>
      </trkpt>
      <trkpt lat="45.71721" lon="6.44709">
        <ele>486.4</ele>
        <time>2021-06-01T09:44:24Z</time>
      </trkpt>
      <trkpt lat="45.71724" lon="6.44712">
        <ele>486.2</ele>
        <time>2021-06-01T09:44:25Z</time>
      </trkpt>
      <trkpt lat="45.71729" lon="6.44714">
        <ele>486</ele>
        <time>2021-06-01T09:44:26Z</time>
      </trkpt>
      <trkpt lat="45.71733" lon="6.44717">
        <ele>485.8</ele>
        <time>2021-06-01T09:44:27Z</time>
      </trkpt>
      <trkpt lat="45.71738" lon="6.44719">
        <ele>485.6</ele>
        <time>2021-06-01T09:44:28Z</time>
      </trkpt>
      <trkpt lat="45.71743" lon="6.44721">
        <ele>485.4</ele>
        <time>2021-06-01T09:44:29Z</time>
      </trkpt>
      <trkpt lat="45.71747" lon="6.44724">
        <ele>485.6</ele>
        <time>2021-06-01T09:44:30Z</time>
      </trkpt>
      <trkpt lat="45.71753" lon="6.44725">
        <ele>485.6</ele>
        <time>2021-06-01T09:44:31Z</time>
      </trkpt>
      <trkpt lat="45.71757" lon="6.44727">
        <ele>485.8</ele>
        <time>2021-06-01T09:44:32Z</time>
      </trkpt>
      <trkpt lat="45.71761" lon="6.44729">
        <ele>486.2</ele>
        <time>2021-06-01T09:44:33Z</time>
      </trkpt>
      <trkpt lat="45.71766" lon="6.44732">
        <ele>486.4</ele>
        <time>2021-06-01T09:44:34Z</time>
      </trkpt>
      <trkpt lat="45.71771" lon="6.44736">
        <ele>486.8</ele>
        <time>2021-06-01T09:44:35Z</time>
      </trkpt>
      <trkpt lat="45.71777" lon="6.4474">
        <ele>487</ele>
        <time>2021-06-01T09:44:36Z</time>
      </trkpt>
      <trkpt lat="45.71791" lon="6.44749">
        <ele>487.4</ele>
        <time>2021-06-01T09:44:38Z</time>
      </trkpt>
      <trkpt lat="45.71797" lon="6.44753">
        <ele>487.6</ele>
        <time>2021-06-01T09:44:39Z</time>
      </trkpt>
      <trkpt lat="45.71804" lon="6.44758">
        <ele>487.8</ele>
        <time>2021-06-01T09:44:40Z</time>
      </trkpt>
      <trkpt lat="45.7181" lon="6.44763">
        <ele>487.8</ele>
        <time>2021-06-01T09:44:41Z</time>
      </trkpt>
      <trkpt lat="45.71815" lon="6.44769">
        <ele>488.4</ele>
        <time>2021-06-01T09:44:42Z</time>
      </trkpt>
      <trkpt lat="45.71821" lon="6.44776">
        <ele>489</ele>
        <time>2021-06-01T09:44:43Z</time>
      </trkpt>
      <trkpt lat="45.71827" lon="6.44784">
        <ele>489.2</ele>
        <time>2021-06-01T09:44:44Z</time>
      </trkpt>
      <trkpt lat="45.71831" lon="6.44794">
        <ele>489.6</ele>
        <time>2021-06-01T09:44:45Z</time>
      </trkpt>
      <trkpt lat="45.71834" lon="6.44803">
        <ele>490.2</ele>
        <time>2021-06-01T09:44:46Z</time>
      </trkpt>
      <trkpt lat="45.71836" lon="6.44813">
        <ele>490.8</ele>
        <time>2021-06-01T09:44:47Z</time>
      </trkpt>
      <trkpt lat="45.71838" lon="6.44823">
        <ele>491.6</ele>
        <time>2021-06-01T09:44:48Z</time>
      </trkpt>
      <trkpt lat="45.71838" lon="6.44834">
        <ele>492.2</ele>
        <time>2021-06-01T09:44:49Z</time>
      </trkpt>
      <trkpt lat="45.71837" lon="6.44844">
        <ele>493.2</ele>
        <time>2021-06-01T09:44:50Z</time>
      </trkpt>
      <trkpt lat="45.71836" lon="6.44853">
        <ele>494.2</ele>
        <time>2021-06-01T09:44:51Z</time>
      </trkpt>
      <trkpt lat="45.71834" lon="6.44863">
        <ele>495</ele>
        <time>2021-06-01T09:44:52Z</time>
      </trkpt>
      <trkpt lat="45.71831" lon="6.44872">
        <ele>495.8</ele>
        <time>2021-06-01T09:44:53Z</time>
      </trkpt>
      <trkpt lat="45.7183" lon="6.44882">
        <ele>497.2</ele>
        <time>2021-06-01T09:44:54Z</time>
      </trkpt>
      <trkpt lat="45.71828" lon="6.44892">
        <ele>498</ele>
        <time>2021-06-01T09:44:55Z</time>
      </trkpt>
      <trkpt lat="45.71826" lon="6.44902">
        <ele>498.2</ele>
        <time>2021-06-01T09:44:56Z</time>
      </trkpt>
      <trkpt lat="45.71824" lon="6.44912">
        <ele>498.2</ele>
        <time>2021-06-01T09:44:57Z</time>
      </trkpt>
      <trkpt lat="45.71822" lon="6.44923">
        <ele>498.2</ele>
        <time>2021-06-01T09:44:58Z</time>
      </trkpt>
      <trkpt lat="45.7182" lon="6.44934">
        <ele>498.4</ele>
        <time>2021-06-01T09:44:59Z</time>
      </trkpt>
      <trkpt lat="45.71819" lon="6.44943">
        <ele>498.4</ele>
        <time>2021-06-01T09:45:00Z</time>
      </trkpt>
      <trkpt lat="45.71817" lon="6.44956">
        <ele>498.6</ele>
        <time>2021-06-01T09:45:01Z</time>
      </trkpt>
      <trkpt lat="45.71815" lon="6.44967">
        <ele>498.6</ele>
        <time>2021-06-01T09:45:02Z</time>
      </trkpt>
      <trkpt lat="45.71814" lon="6.44978">
        <ele>498.8</ele>
        <time>2021-06-01T09:45:03Z</time>
      </trkpt>
      <trkpt lat="45.71812" lon="6.44989">
        <ele>499</ele>
        <time>2021-06-01T09:45:04Z</time>
      </trkpt>
      <trkpt lat="45.7181" lon="6.45">
        <ele>499.6</ele>
        <time>2021-06-01T09:45:05Z</time>
      </trkpt>
      <trkpt lat="45.71808" lon="6.4501">
        <ele>500.4</ele>
        <time>2021-06-01T09:45:06Z</time>
      </trkpt>
      <trkpt lat="45.71805" lon="6.45021">
        <ele>500.8</ele>
        <time>2021-06-01T09:45:07Z</time>
      </trkpt>
      <trkpt lat="45.71803" lon="6.45032">
        <ele>501.4</ele>
        <time>2021-06-01T09:45:08Z</time>
      </trkpt>
      <trkpt lat="45.718" lon="6.45042">
        <ele>501.8</ele>
        <time>2021-06-01T09:45:09Z</time>
      </trkpt>
      <trkpt lat="45.71797" lon="6.45052">
        <ele>502.4</ele>
        <time>2021-06-01T09:45:10Z</time>
      </trkpt>
      <trkpt lat="45.71795" lon="6.45062">
        <ele>502.8</ele>
        <time>2021-06-01T09:45:11Z</time>
      </trkpt>
      <trkpt lat="45.71793" lon="6.45073">
        <ele>503.2</ele>
        <time>2021-06-01T09:45:12Z</time>
      </trkpt>
      <trkpt lat="45.71791" lon="6.45083">
        <ele>503.8</ele>
        <time>2021-06-01T09:45:13Z</time>
      </trkpt>
      <trkpt lat="45.7179" lon="6.45093">
        <ele>504.2</ele>
        <time>2021-06-01T09:45:14Z</time>
      </trkpt>
      <trkpt lat="45.71789" lon="6.45104">
        <ele>504.6</ele>
        <time>2021-06-01T09:45:15Z</time>
      </trkpt>
      <trkpt lat="45.71788" lon="6.45115">
        <ele>505.2</ele>
        <time>2021-06-01T09:45:16Z</time>
      </trkpt>
      <trkpt lat="45.71789" lon="6.45124">
        <ele>505.6</ele>
        <time>2021-06-01T09:45:17Z</time>
      </trkpt>
      <trkpt lat="45.71789" lon="6.45135">
        <ele>506</ele>
        <time>2021-06-01T09:45:18Z</time>
      </trkpt>
      <trkpt lat="45.7179" lon="6.45146">
        <ele>506.4</ele>
        <time>2021-06-01T09:45:19Z</time>
      </trkpt>
      <trkpt lat="45.7179" lon="6.45155">
        <ele>506.6</ele>
        <time>2021-06-01T09:45:20Z</time>
      </trkpt>
      <trkpt lat="45.7179" lon="6.45165">
        <ele>506.8</ele>
        <time>2021-06-01T09:45:21Z</time>
      </trkpt>
      <trkpt lat="45.71791" lon="6.45175">
        <ele>507</ele>
        <time>2021-06-01T09:45:22Z</time>
      </trkpt>
      <trkpt lat="45.71793" lon="6.45183">
        <ele>507</ele>
        <time>2021-06-01T09:45:23Z</time>
      </trkpt>
      <trkpt lat="45.71795" lon="6.45195">
        <ele>507.2</ele>
        <time>2021-06-01T09:45:24Z</time>
      </trkpt>
      <trkpt lat="45.71797" lon="6.45206">
        <ele>507.4</ele>
        <time>2021-06-01T09:45:25Z</time>
      </trkpt>
      <trkpt lat="45.71798" lon="6.45218">
        <ele>507.6</ele>
        <time>2021-06-01T09:45:26Z</time>
      </trkpt>
      <trkpt lat="45.71799" lon="6.4523">
        <ele>507.6</ele>
        <time>2021-06-01T09:45:27Z</time>
      </trkpt>
      <trkpt lat="45.718" lon="6.45241">
        <ele>507.6</ele>
        <time>2021-06-01T09:45:28Z</time>
      </trkpt>
      <trkpt lat="45.71801" lon="6.45252">
        <ele>507.8</ele>
        <time>2021-06-01T09:45:29Z</time>
      </trkpt>
      <trkpt lat="45.71801" lon="6.45264">
        <ele>507.8</ele>
        <time>2021-06-01T09:45:30Z</time>
      </trkpt>
      <trkpt lat="45.71801" lon="6.45275">
        <ele>508</ele>
        <time>2021-06-01T09:45:31Z</time>
      </trkpt>
      <trkpt lat="45.718" lon="6.45287">
        <ele>507.8</ele>
        <time>2021-06-01T09:45:32Z</time>
      </trkpt>
      <trkpt lat="45.71799" lon="6.45298">
        <ele>507.8</ele>
        <time>2021-06-01T09:45:33Z</time>
      </trkpt>
      <trkpt lat="45.71798" lon="6.4531">
        <ele>508</ele>
        <time>2021-06-01T09:45:34Z</time>
      </trkpt>
      <trkpt lat="45.71796" lon="6.45321">
        <ele>508.2</ele>
        <time>2021-06-01T09:45:35Z</time>
      </trkpt>
      <trkpt lat="45.71795" lon="6.45332">
        <ele>508.2</ele>
        <time>2021-06-01T09:45:36Z</time>
      </trkpt>
      <trkpt lat="45.71793" lon="6.45343">
        <ele>508.4</ele>
        <time>2021-06-01T09:45:37Z</time>
      </trkpt>
      <trkpt lat="45.71791" lon="6.45354">
        <ele>508.6</ele>
        <time>2021-06-01T09:45:38Z</time>
      </trkpt>
      <trkpt lat="45.71789" lon="6.45364">
        <ele>508.2</ele>
        <time>2021-06-01T09:45:39Z</time>
      </trkpt>
      <trkpt lat="45.71788" lon="6.45374">
        <ele>508</ele>
        <time>2021-06-01T09:45:40Z</time>
      </trkpt>
      <trkpt lat="45.71786" lon="6.45385">
        <ele>508</ele>
        <time>2021-06-01T09:45:41Z</time>
      </trkpt>
      <trkpt lat="45.71784" lon="6.45397">
        <ele>508</ele>
        <time>2021-06-01T09:45:42Z</time>
      </trkpt>
      <trkpt lat="45.71782" lon="6.45408">
        <ele>508.2</ele>
        <time>2021-06-01T09:45:43Z</time>
      </trkpt>
      <trkpt lat="45.7178" lon="6.45419">
        <ele>508</ele>
        <time>2021-06-01T09:45:44Z</time>
      </trkpt>
      <trkpt lat="45.71779" lon="6.45429">
        <ele>507.8</ele>
        <time>2021-06-01T09:45:45Z</time>
      </trkpt>
      <trkpt lat="45.71777" lon="6.4544">
        <ele>507.8</ele>
        <time>2021-06-01T09:45:46Z</time>
      </trkpt>
      <trkpt lat="45.71776" lon="6.4545">
        <ele>508</ele>
        <time>2021-06-01T09:45:47Z</time>
      </trkpt>
      <trkpt lat="45.71775" lon="6.45462">
        <ele>508.2</ele>
        <time>2021-06-01T09:45:48Z</time>
      </trkpt>
      <trkpt lat="45.71774" lon="6.45473">
        <ele>508.6</ele>
        <time>2021-06-01T09:45:49Z</time>
      </trkpt>
      <trkpt lat="45.71773" lon="6.45484">
        <ele>508.8</ele>
        <time>2021-06-01T09:45:50Z</time>
      </trkpt>
      <trkpt lat="45.71773" lon="6.45495">
        <ele>509</ele>
        <time>2021-06-01T09:45:51Z</time>
      </trkpt>
      <trkpt lat="45.71773" lon="6.45506">
        <ele>509</ele>
        <time>2021-06-01T09:45:52Z</time>
      </trkpt>
      <trkpt lat="45.71773" lon="6.45517">
        <ele>509.2</ele>
        <time>2021-06-01T09:45:53Z</time>
      </trkpt>
      <trkpt lat="45.71773" lon="6.45529">
        <ele>509.4</ele>
        <time>2021-06-01T09:45:54Z</time>
      </trkpt>
      <trkpt lat="45.71775" lon="6.4554">
        <ele>509.4</ele>
        <time>2021-06-01T09:45:55Z</time>
      </trkpt>
      <trkpt lat="45.71776" lon="6.45551">
        <ele>509.6</ele>
        <time>2021-06-01T09:45:56Z</time>
      </trkpt>
      <trkpt lat="45.71778" lon="6.45563">
        <ele>509.8</ele>
        <time>2021-06-01T09:45:57Z</time>
      </trkpt>
      <trkpt lat="45.71779" lon="6.45574">
        <ele>509.8</ele>
        <time>2021-06-01T09:45:58Z</time>
      </trkpt>
      <trkpt lat="45.71781" lon="6.45584">
        <ele>510</ele>
        <time>2021-06-01T09:45:59Z</time>
      </trkpt>
      <trkpt lat="45.71782" lon="6.45596">
        <ele>510.2</ele>
        <time>2021-06-01T09:46:00Z</time>
      </trkpt>
      <trkpt lat="45.71784" lon="6.45607">
        <ele>510.4</ele>
        <time>2021-06-01T09:46:01Z</time>
      </trkpt>
      <trkpt lat="45.71785" lon="6.45618">
        <ele>510.2</ele>
        <time>2021-06-01T09:46:02Z</time>
      </trkpt>
      <trkpt lat="45.71787" lon="6.4563">
        <ele>510.6</ele>
        <time>2021-06-01T09:46:03Z</time>
      </trkpt>
      <trkpt lat="45.71788" lon="6.45641">
        <ele>511</ele>
        <time>2021-06-01T09:46:04Z</time>
      </trkpt>
      <trkpt lat="45.71789" lon="6.45651">
        <ele>511.2</ele>
        <time>2021-06-01T09:46:05Z</time>
      </trkpt>
      <trkpt lat="45.7179" lon="6.45662">
        <ele>511.6</ele>
        <time>2021-06-01T09:46:06Z</time>
      </trkpt>
      <trkpt lat="45.71792" lon="6.45673">
        <ele>511.8</ele>
        <time>2021-06-01T09:46:07Z</time>
      </trkpt>
      <trkpt lat="45.71793" lon="6.45683">
        <ele>512</ele>
        <time>2021-06-01T09:46:08Z</time>
      </trkpt>
      <trkpt lat="45.71796" lon="6.45704">
        <ele>512.8</ele>
        <time>2021-06-01T09:46:10Z</time>
      </trkpt>
      <trkpt lat="45.71797" lon="6.45715">
        <ele>512.8</ele>
        <time>2021-06-01T09:46:11Z</time>
      </trkpt>
      <trkpt lat="45.71797" lon="6.45725">
        <ele>513</ele>
        <time>2021-06-01T09:46:12Z</time>
      </trkpt>
      <trkpt lat="45.71797" lon="6.45735">
        <ele>513</ele>
        <time>2021-06-01T09:46:13Z</time>
      </trkpt>
      <trkpt lat="45.71797" lon="6.45747">
        <ele>513</ele>
        <time>2021-06-01T09:46:14Z</time>
      </trkpt>
      <trkpt lat="45.71797" lon="6.45757">
        <ele>513</ele>
        <time>2021-06-01T09:46:15Z</time>
      </trkpt>
      <trkpt lat="45.71796" lon="6.45768">
        <ele>513.4</ele>
        <time>2021-06-01T09:46:16Z</time>
      </trkpt>
      <trkpt lat="45.71795" lon="6.45778">
        <ele>513.6</ele>
        <time>2021-06-01T09:46:17Z</time>
      </trkpt>
      <trkpt lat="45.71792" lon="6.45788">
        <ele>513.4</ele>
        <time>2021-06-01T09:46:18Z</time>
      </trkpt>
      <trkpt lat="45.71788" lon="6.45797">
        <ele>513.4</ele>
        <time>2021-06-01T09:46:19Z</time>
      </trkpt>
      <trkpt lat="45.71785" lon="6.45807">
        <ele>513.2</ele>
        <time>2021-06-01T09:46:20Z</time>
      </trkpt>
      <trkpt lat="45.71781" lon="6.45817">
        <ele>513</ele>
        <time>2021-06-01T09:46:21Z</time>
      </trkpt>
      <trkpt lat="45.71776" lon="6.45824">
        <ele>513</ele>
        <time>2021-06-01T09:46:22Z</time>
      </trkpt>
      <trkpt lat="45.71771" lon="6.45831">
        <ele>512.8</ele>
        <time>2021-06-01T09:46:23Z</time>
      </trkpt>
      <trkpt lat="45.71766" lon="6.45838">
        <ele>513</ele>
        <time>2021-06-01T09:46:24Z</time>
      </trkpt>
      <trkpt lat="45.71761" lon="6.45846">
        <ele>513.2</ele>
        <time>2021-06-01T09:46:25Z</time>
      </trkpt>
      <trkpt lat="45.71757" lon="6.45854">
        <ele>513.4</ele>
        <time>2021-06-01T09:46:26Z</time>
      </trkpt>
      <trkpt lat="45.71754" lon="6.45862">
        <ele>513.6</ele>
        <time>2021-06-01T09:46:27Z</time>
      </trkpt>
      <trkpt lat="45.71751" lon="6.45871">
        <ele>513.8</ele>
        <time>2021-06-01T09:46:28Z</time>
      </trkpt>
      <trkpt lat="45.71747" lon="6.45881">
        <ele>513.8</ele>
        <time>2021-06-01T09:46:29Z</time>
      </trkpt>
      <trkpt lat="45.71743" lon="6.4589">
        <ele>514.2</ele>
        <time>2021-06-01T09:46:30Z</time>
      </trkpt>
      <trkpt lat="45.71739" lon="6.45898">
        <ele>514.4</ele>
        <time>2021-06-01T09:46:31Z</time>
      </trkpt>
      <trkpt lat="45.71734" lon="6.45907">
        <ele>514.8</ele>
        <time>2021-06-01T09:46:32Z</time>
      </trkpt>
      <trkpt lat="45.71729" lon="6.45914">
        <ele>515</ele>
        <time>2021-06-01T09:46:33Z</time>
      </trkpt>
      <trkpt lat="45.71724" lon="6.45921">
        <ele>515.2</ele>
        <time>2021-06-01T09:46:34Z</time>
      </trkpt>
      <trkpt lat="45.71718" lon="6.45927">
        <ele>515.2</ele>
        <time>2021-06-01T09:46:35Z</time>
      </trkpt>
      <trkpt lat="45.71713" lon="6.45934">
        <ele>515.2</ele>
        <time>2021-06-01T09:46:36Z</time>
      </trkpt>
      <trkpt lat="45.71707" lon="6.45941">
        <ele>515.4</ele>
        <time>2021-06-01T09:46:37Z</time>
      </trkpt>
      <trkpt lat="45.71701" lon="6.45948">
        <ele>515.6</ele>
        <time>2021-06-01T09:46:38Z</time>
      </trkpt>
      <trkpt lat="45.71697" lon="6.45955">
        <ele>515.8</ele>
        <time>2021-06-01T09:46:39Z</time>
      </trkpt>
      <trkpt lat="45.71692" lon="6.45963">
        <ele>515.8</ele>
        <time>2021-06-01T09:46:40Z</time>
      </trkpt>
      <trkpt lat="45.71687" lon="6.45971">
        <ele>516</ele>
        <time>2021-06-01T09:46:41Z</time>
      </trkpt>
      <trkpt lat="45.71684" lon="6.45979">
        <ele>515.8</ele>
        <time>2021-06-01T09:46:42Z</time>
      </trkpt>
      <trkpt lat="45.7168" lon="6.45988">
        <ele>516</ele>
        <time>2021-06-01T09:46:43Z</time>
      </trkpt>
      <trkpt lat="45.71677" lon="6.45997">
        <ele>516.4</ele>
        <time>2021-06-01T09:46:44Z</time>
      </trkpt>
      <trkpt lat="45.71674" lon="6.46005">
        <ele>516.8</ele>
        <time>2021-06-01T09:46:45Z</time>
      </trkpt>
      <trkpt lat="45.71672" lon="6.46015">
        <ele>517</ele>
        <time>2021-06-01T09:46:46Z</time>
      </trkpt>
      <trkpt lat="45.7167" lon="6.46024">
        <ele>517.4</ele>
        <time>2021-06-01T09:46:47Z</time>
      </trkpt>
      <trkpt lat="45.71669" lon="6.46034">
        <ele>517.6</ele>
        <time>2021-06-01T09:46:48Z</time>
      </trkpt>
      <trkpt lat="45.71668" lon="6.46043">
        <ele>517.8</ele>
        <time>2021-06-01T09:46:49Z</time>
      </trkpt>
      <trkpt lat="45.71668" lon="6.46053">
        <ele>518</ele>
        <time>2021-06-01T09:46:50Z</time>
      </trkpt>
      <trkpt lat="45.71668" lon="6.46063">
        <ele>518.4</ele>
        <time>2021-06-01T09:46:51Z</time>
      </trkpt>
      <trkpt lat="45.71668" lon="6.46073">
        <ele>518.8</ele>
        <time>2021-06-01T09:46:52Z</time>
      </trkpt>
      <trkpt lat="45.71669" lon="6.46083">
        <ele>518.8</ele>
        <time>2021-06-01T09:46:53Z</time>
      </trkpt>
      <trkpt lat="45.71669" lon="6.46093">
        <ele>518.6</ele>
        <time>2021-06-01T09:46:54Z</time>
      </trkpt>
      <trkpt lat="45.71669" lon="6.46103">
        <ele>518.6</ele>
        <time>2021-06-01T09:46:55Z</time>
      </trkpt>
      <trkpt lat="45.7167" lon="6.46112">
        <ele>519</ele>
        <time>2021-06-01T09:46:56Z</time>
      </trkpt>
      <trkpt lat="45.7167" lon="6.46122">
        <ele>518.6</ele>
        <time>2021-06-01T09:46:57Z</time>
      </trkpt>
      <trkpt lat="45.71671" lon="6.46132">
        <ele>518.8</ele>
        <time>2021-06-01T09:46:58Z</time>
      </trkpt>
      <trkpt lat="45.71671" lon="6.46142">
        <ele>518.6</ele>
        <time>2021-06-01T09:46:59Z</time>
      </trkpt>
      <trkpt lat="45.71672" lon="6.46152">
        <ele>518.6</ele>
        <time>2021-06-01T09:47:00Z</time>
      </trkpt>
      <trkpt lat="45.71672" lon="6.46162">
        <ele>518.4</ele>
        <time>2021-06-01T09:47:01Z</time>
      </trkpt>
      <trkpt lat="45.71673" lon="6.46172">
        <ele>518.6</ele>
        <time>2021-06-01T09:47:02Z</time>
      </trkpt>
      <trkpt lat="45.71675" lon="6.46182">
        <ele>518.4</ele>
        <time>2021-06-01T09:47:03Z</time>
      </trkpt>
      <trkpt lat="45.71676" lon="6.46193">
        <ele>518.4</ele>
        <time>2021-06-01T09:47:04Z</time>
      </trkpt>
      <trkpt lat="45.71677" lon="6.46203">
        <ele>518</ele>
        <time>2021-06-01T09:47:05Z</time>
      </trkpt>
      <trkpt lat="45.71678" lon="6.46213">
        <ele>518.4</ele>
        <time>2021-06-01T09:47:06Z</time>
      </trkpt>
      <trkpt lat="45.71679" lon="6.46224">
        <ele>518.6</ele>
        <time>2021-06-01T09:47:07Z</time>
      </trkpt>
      <trkpt lat="45.7168" lon="6.46235">
        <ele>518.8</ele>
        <time>2021-06-01T09:47:08Z</time>
      </trkpt>
      <trkpt lat="45.71682" lon="6.46247">
        <ele>519</ele>
        <time>2021-06-01T09:47:09Z</time>
      </trkpt>
      <trkpt lat="45.71683" lon="6.46259">
        <ele>519</ele>
        <time>2021-06-01T09:47:10Z</time>
      </trkpt>
      <trkpt lat="45.71685" lon="6.46271">
        <ele>519</ele>
        <time>2021-06-01T09:47:11Z</time>
      </trkpt>
      <trkpt lat="45.71686" lon="6.46283">
        <ele>519.4</ele>
        <time>2021-06-01T09:47:12Z</time>
      </trkpt>
      <trkpt lat="45.71688" lon="6.46295">
        <ele>519.2</ele>
        <time>2021-06-01T09:47:13Z</time>
      </trkpt>
      <trkpt lat="45.7169" lon="6.46307">
        <ele>519.4</ele>
        <time>2021-06-01T09:47:14Z</time>
      </trkpt>
      <trkpt lat="45.71692" lon="6.46319">
        <ele>519.8</ele>
        <time>2021-06-01T09:47:15Z</time>
      </trkpt>
      <trkpt lat="45.71695" lon="6.46331">
        <ele>520.2</ele>
        <time>2021-06-01T09:47:16Z</time>
      </trkpt>
      <trkpt lat="45.71698" lon="6.46342">
        <ele>520.4</ele>
        <time>2021-06-01T09:47:17Z</time>
      </trkpt>
      <trkpt lat="45.71701" lon="6.46353">
        <ele>520.6</ele>
        <time>2021-06-01T09:47:18Z</time>
      </trkpt>
      <trkpt lat="45.71706" lon="6.46363">
        <ele>520.6</ele>
        <time>2021-06-01T09:47:19Z</time>
      </trkpt>
      <trkpt lat="45.7171" lon="6.46374">
        <ele>521</ele>
        <time>2021-06-01T09:47:20Z</time>
      </trkpt>
      <trkpt lat="45.71713" lon="6.46383">
        <ele>521</ele>
        <time>2021-06-01T09:47:21Z</time>
      </trkpt>
      <trkpt lat="45.71716" lon="6.46393">
        <ele>521.2</ele>
        <time>2021-06-01T09:47:22Z</time>
      </trkpt>
      <trkpt lat="45.71719" lon="6.46403">
        <ele>521.4</ele>
        <time>2021-06-01T09:47:23Z</time>
      </trkpt>
      <trkpt lat="45.71721" lon="6.46413">
        <ele>521.8</ele>
        <time>2021-06-01T09:47:24Z</time>
      </trkpt>
      <trkpt lat="45.71724" lon="6.46422">
        <ele>522</ele>
        <time>2021-06-01T09:47:25Z</time>
      </trkpt>
      <trkpt lat="45.71726" lon="6.46432">
        <ele>522.4</ele>
        <time>2021-06-01T09:47:26Z</time>
      </trkpt>
      <trkpt lat="45.71729" lon="6.46442">
        <ele>522.8</ele>
        <time>2021-06-01T09:47:27Z</time>
      </trkpt>
      <trkpt lat="45.71731" lon="6.46452">
        <ele>523</ele>
        <time>2021-06-01T09:47:28Z</time>
      </trkpt>
      <trkpt lat="45.71733" lon="6.46462">
        <ele>523.2</ele>
        <time>2021-06-01T09:47:29Z</time>
      </trkpt>
      <trkpt lat="45.71735" lon="6.46472">
        <ele>523.2</ele>
        <time>2021-06-01T09:47:30Z</time>
      </trkpt>
      <trkpt lat="45.71738" lon="6.46483">
        <ele>523.4</ele>
        <time>2021-06-01T09:47:31Z</time>
      </trkpt>
      <trkpt lat="45.71739" lon="6.46493">
        <ele>523.4</ele>
        <time>2021-06-01T09:47:32Z</time>
      </trkpt>
      <trkpt lat="45.7174" lon="6.46504">
        <ele>523.4</ele>
        <time>2021-06-01T09:47:33Z</time>
      </trkpt>
      <trkpt lat="45.71741" lon="6.46515">
        <ele>523.6</ele>
        <time>2021-06-01T09:47:34Z</time>
      </trkpt>
      <trkpt lat="45.71743" lon="6.46526">
        <ele>523.8</ele>
        <time>2021-06-01T09:47:35Z</time>
      </trkpt>
      <trkpt lat="45.71743" lon="6.46537">
        <ele>524</ele>
        <time>2021-06-01T09:47:36Z</time>
      </trkpt>
      <trkpt lat="45.71743" lon="6.46548">
        <ele>524.2</ele>
        <time>2021-06-01T09:47:37Z</time>
      </trkpt>
      <trkpt lat="45.71743" lon="6.46558">
        <ele>524.6</ele>
        <time>2021-06-01T09:47:38Z</time>
      </trkpt>
      <trkpt lat="45.71736" lon="6.46566">
        <ele>524.6</ele>
        <time>2021-06-01T09:47:39Z</time>
      </trkpt>
      <trkpt lat="45.71732" lon="6.46576">
        <ele>524.6</ele>
        <time>2021-06-01T09:47:40Z</time>
      </trkpt>
      <trkpt lat="45.71728" lon="6.46587">
        <ele>524.8</ele>
        <time>2021-06-01T09:47:41Z</time>
      </trkpt>
      <trkpt lat="45.71723" lon="6.46596">
        <ele>524.8</ele>
        <time>2021-06-01T09:47:42Z</time>
      </trkpt>
      <trkpt lat="45.71719" lon="6.46605">
        <ele>525</ele>
        <time>2021-06-01T09:47:43Z</time>
      </trkpt>
      <trkpt lat="45.71715" lon="6.46615">
        <ele>525.4</ele>
        <time>2021-06-01T09:47:44Z</time>
      </trkpt>
      <trkpt lat="45.7171" lon="6.46625">
        <ele>525.6</ele>
        <time>2021-06-01T09:47:45Z</time>
      </trkpt>
      <trkpt lat="45.71705" lon="6.46634">
        <ele>525.8</ele>
        <time>2021-06-01T09:47:46Z</time>
      </trkpt>
      <trkpt lat="45.71699" lon="6.46644">
        <ele>526.2</ele>
        <time>2021-06-01T09:47:47Z</time>
      </trkpt>
      <trkpt lat="45.71693" lon="6.46652">
        <ele>526.4</ele>
        <time>2021-06-01T09:47:48Z</time>
      </trkpt>
      <trkpt lat="45.71687" lon="6.4666">
        <ele>526.6</ele>
        <time>2021-06-01T09:47:49Z</time>
      </trkpt>
      <trkpt lat="45.71681" lon="6.46669">
        <ele>526.8</ele>
        <time>2021-06-01T09:47:50Z</time>
      </trkpt>
      <trkpt lat="45.71675" lon="6.46676">
        <ele>527.2</ele>
        <time>2021-06-01T09:47:51Z</time>
      </trkpt>
      <trkpt lat="45.71669" lon="6.46684">
        <ele>527.4</ele>
        <time>2021-06-01T09:47:52Z</time>
      </trkpt>
      <trkpt lat="45.71663" lon="6.46691">
        <ele>527.8</ele>
        <time>2021-06-01T09:47:53Z</time>
      </trkpt>
      <trkpt lat="45.71658" lon="6.46698">
        <ele>528</ele>
        <time>2021-06-01T09:47:54Z</time>
      </trkpt>
      <trkpt lat="45.71652" lon="6.46706">
        <ele>528.4</ele>
        <time>2021-06-01T09:47:55Z</time>
      </trkpt>
      <trkpt lat="45.71645" lon="6.46714">
        <ele>528.8</ele>
        <time>2021-06-01T09:47:56Z</time>
      </trkpt>
      <trkpt lat="45.7164" lon="6.46723">
        <ele>529.2</ele>
        <time>2021-06-01T09:47:57Z</time>
      </trkpt>
      <trkpt lat="45.71634" lon="6.46732">
        <ele>529.4</ele>
        <time>2021-06-01T09:47:58Z</time>
      </trkpt>
      <trkpt lat="45.71629" lon="6.46741">
        <ele>529.6</ele>
        <time>2021-06-01T09:47:59Z</time>
      </trkpt>
      <trkpt lat="45.71624" lon="6.4675">
        <ele>530.2</ele>
        <time>2021-06-01T09:48:00Z</time>
      </trkpt>
      <trkpt lat="45.71619" lon="6.46759">
        <ele>530.4</ele>
        <time>2021-06-01T09:48:01Z</time>
      </trkpt>
      <trkpt lat="45.71613" lon="6.46768">
        <ele>530.6</ele>
        <time>2021-06-01T09:48:02Z</time>
      </trkpt>
      <trkpt lat="45.71608" lon="6.46777">
        <ele>530.8</ele>
        <time>2021-06-01T09:48:03Z</time>
      </trkpt>
      <trkpt lat="45.71604" lon="6.46787">
        <ele>530.6</ele>
        <time>2021-06-01T09:48:04Z</time>
      </trkpt>
      <trkpt lat="45.71599" lon="6.46798">
        <ele>530.8</ele>
        <time>2021-06-01T09:48:05Z</time>
      </trkpt>
      <trkpt lat="45.71595" lon="6.46808">
        <ele>531</ele>
        <time>2021-06-01T09:48:06Z</time>
      </trkpt>
      <trkpt lat="45.71591" lon="6.46819">
        <ele>531.2</ele>
        <time>2021-06-01T09:48:07Z</time>
      </trkpt>
      <trkpt lat="45.71588" lon="6.46831">
        <ele>531.4</ele>
        <time>2021-06-01T09:48:08Z</time>
      </trkpt>
      <trkpt lat="45.71584" lon="6.46842">
        <ele>532</ele>
        <time>2021-06-01T09:48:09Z</time>
      </trkpt>
      <trkpt lat="45.7158" lon="6.46853">
        <ele>532</ele>
        <time>2021-06-01T09:48:10Z</time>
      </trkpt>
      <trkpt lat="45.71577" lon="6.46865">
        <ele>532.4</ele>
        <time>2021-06-01T09:48:11Z</time>
      </trkpt>
      <trkpt lat="45.71572" lon="6.46876">
        <ele>532.6</ele>
        <time>2021-06-01T09:48:12Z</time>
      </trkpt>
      <trkpt lat="45.71568" lon="6.46887">
        <ele>532.6</ele>
        <time>2021-06-01T09:48:13Z</time>
      </trkpt>
      <trkpt lat="45.71564" lon="6.46898">
        <ele>532.8</ele>
        <time>2021-06-01T09:48:14Z</time>
      </trkpt>
      <trkpt lat="45.7156" lon="6.46909">
        <ele>533</ele>
        <time>2021-06-01T09:48:15Z</time>
      </trkpt>
      <trkpt lat="45.71556" lon="6.4692">
        <ele>533</ele>
        <time>2021-06-01T09:48:16Z</time>
      </trkpt>
      <trkpt lat="45.71552" lon="6.46931">
        <ele>533.2</ele>
        <time>2021-06-01T09:48:17Z</time>
      </trkpt>
      <trkpt lat="45.71549" lon="6.46943">
        <ele>533.6</ele>
        <time>2021-06-01T09:48:18Z</time>
      </trkpt>
      <trkpt lat="45.71545" lon="6.46954">
        <ele>533.6</ele>
        <time>2021-06-01T09:48:19Z</time>
      </trkpt>
      <trkpt lat="45.71542" lon="6.46965">
        <ele>534</ele>
        <time>2021-06-01T09:48:20Z</time>
      </trkpt>
      <trkpt lat="45.71538" lon="6.46976">
        <ele>534</ele>
        <time>2021-06-01T09:48:21Z</time>
      </trkpt>
      <trkpt lat="45.71535" lon="6.46987">
        <ele>534.4</ele>
        <time>2021-06-01T09:48:22Z</time>
      </trkpt>
      <trkpt lat="45.71532" lon="6.46998">
        <ele>534.2</ele>
        <time>2021-06-01T09:48:23Z</time>
      </trkpt>
      <trkpt lat="45.71528" lon="6.47009">
        <ele>534</ele>
        <time>2021-06-01T09:48:24Z</time>
      </trkpt>
      <trkpt lat="45.71525" lon="6.47019">
        <ele>534.2</ele>
        <time>2021-06-01T09:48:25Z</time>
      </trkpt>
      <trkpt lat="45.71521" lon="6.4703">
        <ele>534.4</ele>
        <time>2021-06-01T09:48:26Z</time>
      </trkpt>
      <trkpt lat="45.71518" lon="6.47041">
        <ele>534.6</ele>
        <time>2021-06-01T09:48:27Z</time>
      </trkpt>
      <trkpt lat="45.71514" lon="6.47051">
        <ele>534.8</ele>
        <time>2021-06-01T09:48:28Z</time>
      </trkpt>
      <trkpt lat="45.7151" lon="6.47061">
        <ele>534.8</ele>
        <time>2021-06-01T09:48:29Z</time>
      </trkpt>
      <trkpt lat="45.71506" lon="6.4707">
        <ele>535</ele>
        <time>2021-06-01T09:48:30Z</time>
      </trkpt>
      <trkpt lat="45.71501" lon="6.47081">
        <ele>535.2</ele>
        <time>2021-06-01T09:48:31Z</time>
      </trkpt>
      <trkpt lat="45.71498" lon="6.4709">
        <ele>535.8</ele>
        <time>2021-06-01T09:48:32Z</time>
      </trkpt>
      <trkpt lat="45.71495" lon="6.471">
        <ele>535.8</ele>
        <time>2021-06-01T09:48:33Z</time>
      </trkpt>
      <trkpt lat="45.71491" lon="6.4711">
        <ele>536</ele>
        <time>2021-06-01T09:48:34Z</time>
      </trkpt>
      <trkpt lat="45.71488" lon="6.4712">
        <ele>536.4</ele>
        <time>2021-06-01T09:48:35Z</time>
      </trkpt>
      <trkpt lat="45.71486" lon="6.4713">
        <ele>536.6</ele>
        <time>2021-06-01T09:48:36Z</time>
      </trkpt>
      <trkpt lat="45.71485" lon="6.47141">
        <ele>536.6</ele>
        <time>2021-06-01T09:48:37Z</time>
      </trkpt>
      <trkpt lat="45.71484" lon="6.47151">
        <ele>536.8</ele>
        <time>2021-06-01T09:48:38Z</time>
      </trkpt>
      <trkpt lat="45.71484" lon="6.47161">
        <ele>537.2</ele>
        <time>2021-06-01T09:48:39Z</time>
      </trkpt>
      <trkpt lat="45.71484" lon="6.47171">
        <ele>537.6</ele>
        <time>2021-06-01T09:48:40Z</time>
      </trkpt>
      <trkpt lat="45.71484" lon="6.47182">
        <ele>538</ele>
        <time>2021-06-01T09:48:41Z</time>
      </trkpt>
      <trkpt lat="45.71484" lon="6.47192">
        <ele>538.4</ele>
        <time>2021-06-01T09:48:42Z</time>
      </trkpt>
      <trkpt lat="45.71484" lon="6.47202">
        <ele>538.6</ele>
        <time>2021-06-01T09:48:43Z</time>
      </trkpt>
      <trkpt lat="45.71484" lon="6.47212">
        <ele>538.8</ele>
        <time>2021-06-01T09:48:44Z</time>
      </trkpt>
      <trkpt lat="45.71485" lon="6.47222">
        <ele>539</ele>
        <time>2021-06-01T09:48:45Z</time>
      </trkpt>
      <trkpt lat="45.71485" lon="6.47232">
        <ele>539</ele>
        <time>2021-06-01T09:48:46Z</time>
      </trkpt>
      <trkpt lat="45.71486" lon="6.47242">
        <ele>539</ele>
        <time>2021-06-01T09:48:47Z</time>
      </trkpt>
      <trkpt lat="45.71486" lon="6.47252">
        <ele>538.8</ele>
        <time>2021-06-01T09:48:48Z</time>
      </trkpt>
      <trkpt lat="45.71487" lon="6.47262">
        <ele>539</ele>
        <time>2021-06-01T09:48:49Z</time>
      </trkpt>
      <trkpt lat="45.71489" lon="6.4727">
        <ele>539</ele>
        <time>2021-06-01T09:48:50Z</time>
      </trkpt>
      <trkpt lat="45.71492" lon="6.47279">
        <ele>539</ele>
        <time>2021-06-01T09:48:51Z</time>
      </trkpt>
      <trkpt lat="45.71495" lon="6.47288">
        <ele>538.8</ele>
        <time>2021-06-01T09:48:52Z</time>
      </trkpt>
      <trkpt lat="45.71498" lon="6.47297">
        <ele>538.8</ele>
        <time>2021-06-01T09:48:53Z</time>
      </trkpt>
      <trkpt lat="45.71501" lon="6.47306">
        <ele>539</ele>
        <time>2021-06-01T09:48:54Z</time>
      </trkpt>
      <trkpt lat="45.71505" lon="6.47315">
        <ele>539.2</ele>
        <time>2021-06-01T09:48:55Z</time>
      </trkpt>
      <trkpt lat="45.71509" lon="6.47324">
        <ele>539.6</ele>
        <time>2021-06-01T09:48:56Z</time>
      </trkpt>
      <trkpt lat="45.71513" lon="6.47333">
        <ele>540</ele>
        <time>2021-06-01T09:48:57Z</time>
      </trkpt>
      <trkpt lat="45.71516" lon="6.47342">
        <ele>540.4</ele>
        <time>2021-06-01T09:48:58Z</time>
      </trkpt>
      <trkpt lat="45.7152" lon="6.47351">
        <ele>540.6</ele>
        <time>2021-06-01T09:48:59Z</time>
      </trkpt>
      <trkpt lat="45.71523" lon="6.47361">
        <ele>541</ele>
        <time>2021-06-01T09:49:00Z</time>
      </trkpt>
      <trkpt lat="45.71525" lon="6.4737">
        <ele>541</ele>
        <time>2021-06-01T09:49:01Z</time>
      </trkpt>
      <trkpt lat="45.71528" lon="6.4738">
        <ele>541.4</ele>
        <time>2021-06-01T09:49:02Z</time>
      </trkpt>
      <trkpt lat="45.7153" lon="6.47389">
        <ele>541.8</ele>
        <time>2021-06-01T09:49:03Z</time>
      </trkpt>
      <trkpt lat="45.71532" lon="6.47399">
        <ele>542.2</ele>
        <time>2021-06-01T09:49:04Z</time>
      </trkpt>
      <trkpt lat="45.71532" lon="6.47409">
        <ele>542.4</ele>
        <time>2021-06-01T09:49:05Z</time>
      </trkpt>
      <trkpt lat="45.71532" lon="6.47419">
        <ele>542.8</ele>
        <time>2021-06-01T09:49:06Z</time>
      </trkpt>
      <trkpt lat="45.71532" lon="6.4743">
        <ele>542.6</ele>
        <time>2021-06-01T09:49:07Z</time>
      </trkpt>
      <trkpt lat="45.71531" lon="6.4744">
        <ele>542.6</ele>
        <time>2021-06-01T09:49:08Z</time>
      </trkpt>
      <trkpt lat="45.71531" lon="6.4745">
        <ele>542.8</ele>
        <time>2021-06-01T09:49:09Z</time>
      </trkpt>
      <trkpt lat="45.7153" lon="6.47461">
        <ele>543</ele>
        <time>2021-06-01T09:49:10Z</time>
      </trkpt>
      <trkpt lat="45.71529" lon="6.47472">
        <ele>543</ele>
        <time>2021-06-01T09:49:11Z</time>
      </trkpt>
      <trkpt lat="45.71529" lon="6.47482">
        <ele>543</ele>
        <time>2021-06-01T09:49:12Z</time>
      </trkpt>
      <trkpt lat="45.71528" lon="6.47494">
        <ele>543</ele>
        <time>2021-06-01T09:49:13Z</time>
      </trkpt>
      <trkpt lat="45.71528" lon="6.47505">
        <ele>543</ele>
        <time>2021-06-01T09:49:14Z</time>
      </trkpt>
      <trkpt lat="45.71529" lon="6.47516">
        <ele>543</ele>
        <time>2021-06-01T09:49:15Z</time>
      </trkpt>
      <trkpt lat="45.71531" lon="6.47526">
        <ele>543.4</ele>
        <time>2021-06-01T09:49:16Z</time>
      </trkpt>
      <trkpt lat="45.71534" lon="6.47537">
        <ele>543.6</ele>
        <time>2021-06-01T09:49:17Z</time>
      </trkpt>
      <trkpt lat="45.71539" lon="6.47547">
        <ele>543.8</ele>
        <time>2021-06-01T09:49:18Z</time>
      </trkpt>
      <trkpt lat="45.71544" lon="6.47555">
        <ele>544.2</ele>
        <time>2021-06-01T09:49:19Z</time>
      </trkpt>
      <trkpt lat="45.7155" lon="6.47563">
        <ele>545</ele>
        <time>2021-06-01T09:49:20Z</time>
      </trkpt>
      <trkpt lat="45.71556" lon="6.47571">
        <ele>545.6</ele>
        <time>2021-06-01T09:49:21Z</time>
      </trkpt>
      <trkpt lat="45.71562" lon="6.47579">
        <ele>546</ele>
        <time>2021-06-01T09:49:22Z</time>
      </trkpt>
      <trkpt lat="45.71568" lon="6.47587">
        <ele>546.4</ele>
        <time>2021-06-01T09:49:23Z</time>
      </trkpt>
      <trkpt lat="45.71573" lon="6.47596">
        <ele>546.4</ele>
        <time>2021-06-01T09:49:24Z</time>
      </trkpt>
      <trkpt lat="45.71579" lon="6.47606">
        <ele>546</ele>
        <time>2021-06-01T09:49:25Z</time>
      </trkpt>
      <trkpt lat="45.71584" lon="6.47616">
        <ele>545.8</ele>
        <time>2021-06-01T09:49:26Z</time>
      </trkpt>
      <trkpt lat="45.71588" lon="6.47627">
        <ele>545.2</ele>
        <time>2021-06-01T09:49:27Z</time>
      </trkpt>
      <trkpt lat="45.71591" lon="6.47638">
        <ele>545.6</ele>
        <time>2021-06-01T09:49:28Z</time>
      </trkpt>
      <trkpt lat="45.71594" lon="6.47649">
        <ele>545</ele>
        <time>2021-06-01T09:49:29Z</time>
      </trkpt>
      <trkpt lat="45.71595" lon="6.47659">
        <ele>544.4</ele>
        <time>2021-06-01T09:49:30Z</time>
      </trkpt>
      <trkpt lat="45.71596" lon="6.47671">
        <ele>544.4</ele>
        <time>2021-06-01T09:49:31Z</time>
      </trkpt>
      <trkpt lat="45.71598" lon="6.47681">
        <ele>544.2</ele>
        <time>2021-06-01T09:49:32Z</time>
      </trkpt>
      <trkpt lat="45.716" lon="6.47691">
        <ele>544</ele>
        <time>2021-06-01T09:49:33Z</time>
      </trkpt>
      <trkpt lat="45.71601" lon="6.47702">
        <ele>544</ele>
        <time>2021-06-01T09:49:34Z</time>
      </trkpt>
      <trkpt lat="45.71603" lon="6.47713">
        <ele>544.2</ele>
        <time>2021-06-01T09:49:35Z</time>
      </trkpt>
      <trkpt lat="45.71604" lon="6.47723">
        <ele>545</ele>
        <time>2021-06-01T09:49:36Z</time>
      </trkpt>
      <trkpt lat="45.71605" lon="6.47733">
        <ele>545.6</ele>
        <time>2021-06-01T09:49:37Z</time>
      </trkpt>
      <trkpt lat="45.71607" lon="6.47742">
        <ele>545.8</ele>
        <time>2021-06-01T09:49:38Z</time>
      </trkpt>
      <trkpt lat="45.71608" lon="6.47752">
        <ele>546.4</ele>
        <time>2021-06-01T09:49:39Z</time>
      </trkpt>
      <trkpt lat="45.7161" lon="6.47762">
        <ele>546.6</ele>
        <time>2021-06-01T09:49:40Z</time>
      </trkpt>
      <trkpt lat="45.7161" lon="6.47773">
        <ele>547</ele>
        <time>2021-06-01T09:49:41Z</time>
      </trkpt>
      <trkpt lat="45.71612" lon="6.47783">
        <ele>547.2</ele>
        <time>2021-06-01T09:49:42Z</time>
      </trkpt>
      <trkpt lat="45.71612" lon="6.47794">
        <ele>547.4</ele>
        <time>2021-06-01T09:49:43Z</time>
      </trkpt>
      <trkpt lat="45.71612" lon="6.47805">
        <ele>547.6</ele>
        <time>2021-06-01T09:49:44Z</time>
      </trkpt>
      <trkpt lat="45.71613" lon="6.47816">
        <ele>547.8</ele>
        <time>2021-06-01T09:49:45Z</time>
      </trkpt>
      <trkpt lat="45.71612" lon="6.47827">
        <ele>547.8</ele>
        <time>2021-06-01T09:49:46Z</time>
      </trkpt>
      <trkpt lat="45.7161" lon="6.47839">
        <ele>548</ele>
        <time>2021-06-01T09:49:47Z</time>
      </trkpt>
      <trkpt lat="45.71608" lon="6.4785">
        <ele>548</ele>
        <time>2021-06-01T09:49:48Z</time>
      </trkpt>
      <trkpt lat="45.71606" lon="6.47861">
        <ele>548.2</ele>
        <time>2021-06-01T09:49:49Z</time>
      </trkpt>
      <trkpt lat="45.71603" lon="6.47871">
        <ele>548.4</ele>
        <time>2021-06-01T09:49:50Z</time>
      </trkpt>
      <trkpt lat="45.71599" lon="6.47882">
        <ele>548.8</ele>
        <time>2021-06-01T09:49:51Z</time>
      </trkpt>
      <trkpt lat="45.71595" lon="6.47892">
        <ele>549</ele>
        <time>2021-06-01T09:49:52Z</time>
      </trkpt>
      <trkpt lat="45.7159" lon="6.47901">
        <ele>549.2</ele>
        <time>2021-06-01T09:49:53Z</time>
      </trkpt>
      <trkpt lat="45.71584" lon="6.47911">
        <ele>549.4</ele>
        <time>2021-06-01T09:49:54Z</time>
      </trkpt>
      <trkpt lat="45.71578" lon="6.4792">
        <ele>549.4</ele>
        <time>2021-06-01T09:49:55Z</time>
      </trkpt>
      <trkpt lat="45.71572" lon="6.47928">
        <ele>549.6</ele>
        <time>2021-06-01T09:49:56Z</time>
      </trkpt>
      <trkpt lat="45.71566" lon="6.47936">
        <ele>550</ele>
        <time>2021-06-01T09:49:57Z</time>
      </trkpt>
      <trkpt lat="45.71559" lon="6.47945">
        <ele>550.2</ele>
        <time>2021-06-01T09:49:58Z</time>
      </trkpt>
      <trkpt lat="45.71553" lon="6.47954">
        <ele>550.4</ele>
        <time>2021-06-01T09:49:59Z</time>
      </trkpt>
      <trkpt lat="45.71547" lon="6.47962">
        <ele>550.4</ele>
        <time>2021-06-01T09:50:00Z</time>
      </trkpt>
      <trkpt lat="45.71541" lon="6.47971">
        <ele>551.2</ele>
        <time>2021-06-01T09:50:01Z</time>
      </trkpt>
      <trkpt lat="45.71536" lon="6.4798">
        <ele>551.4</ele>
        <time>2021-06-01T09:50:02Z</time>
      </trkpt>
      <trkpt lat="45.7153" lon="6.47989">
        <ele>551.8</ele>
        <time>2021-06-01T09:50:03Z</time>
      </trkpt>
      <trkpt lat="45.71524" lon="6.47998">
        <ele>552</ele>
        <time>2021-06-01T09:50:04Z</time>
      </trkpt>
      <trkpt lat="45.71518" lon="6.48006">
        <ele>552.2</ele>
        <time>2021-06-01T09:50:05Z</time>
      </trkpt>
      <trkpt lat="45.71512" lon="6.48015">
        <ele>552.4</ele>
        <time>2021-06-01T09:50:06Z</time>
      </trkpt>
      <trkpt lat="45.71506" lon="6.48023">
        <ele>552.8</ele>
        <time>2021-06-01T09:50:07Z</time>
      </trkpt>
      <trkpt lat="45.715" lon="6.48032">
        <ele>553</ele>
        <time>2021-06-01T09:50:08Z</time>
      </trkpt>
      <trkpt lat="45.71494" lon="6.4804">
        <ele>553.4</ele>
        <time>2021-06-01T09:50:09Z</time>
      </trkpt>
      <trkpt lat="45.71489" lon="6.48048">
        <ele>553.6</ele>
        <time>2021-06-01T09:50:10Z</time>
      </trkpt>
      <trkpt lat="45.71483" lon="6.48056">
        <ele>553.6</ele>
        <time>2021-06-01T09:50:11Z</time>
      </trkpt>
      <trkpt lat="45.71478" lon="6.48064">
        <ele>553.8</ele>
        <time>2021-06-01T09:50:12Z</time>
      </trkpt>
      <trkpt lat="45.71473" lon="6.48073">
        <ele>554</ele>
        <time>2021-06-01T09:50:13Z</time>
      </trkpt>
      <trkpt lat="45.71468" lon="6.48081">
        <ele>554</ele>
        <time>2021-06-01T09:50:14Z</time>
      </trkpt>
      <trkpt lat="45.71462" lon="6.48089">
        <ele>554</ele>
        <time>2021-06-01T09:50:15Z</time>
      </trkpt>
      <trkpt lat="45.71457" lon="6.48096">
        <ele>554.2</ele>
        <time>2021-06-01T09:50:16Z</time>
      </trkpt>
      <trkpt lat="45.71452" lon="6.48104">
        <ele>554.2</ele>
        <time>2021-06-01T09:50:17Z</time>
      </trkpt>
      <trkpt lat="45.71447" lon="6.48111">
        <ele>554.2</ele>
        <time>2021-06-01T09:50:18Z</time>
      </trkpt>
      <trkpt lat="45.71442" lon="6.48119">
        <ele>554.4</ele>
        <time>2021-06-01T09:50:19Z</time>
      </trkpt>
      <trkpt lat="45.71438" lon="6.48127">
        <ele>554.8</ele>
        <time>2021-06-01T09:50:20Z</time>
      </trkpt>
      <trkpt lat="45.71434" lon="6.48135">
        <ele>555.2</ele>
        <time>2021-06-01T09:50:21Z</time>
      </trkpt>
      <trkpt lat="45.71431" lon="6.48144">
        <ele>555.4</ele>
        <time>2021-06-01T09:50:22Z</time>
      </trkpt>
      <trkpt lat="45.7143" lon="6.48154">
        <ele>555.6</ele>
        <time>2021-06-01T09:50:23Z</time>
      </trkpt>
      <trkpt lat="45.7143" lon="6.48164">
        <ele>555.6</ele>
        <time>2021-06-01T09:50:24Z</time>
      </trkpt>
      <trkpt lat="45.71431" lon="6.48174">
        <ele>555.8</ele>
        <time>2021-06-01T09:50:25Z</time>
      </trkpt>
      <trkpt lat="45.71432" lon="6.48183">
        <ele>555.8</ele>
        <time>2021-06-01T09:50:26Z</time>
      </trkpt>
      <trkpt lat="45.71434" lon="6.4819">
        <ele>556</ele>
        <time>2021-06-01T09:50:27Z</time>
      </trkpt>
      <trkpt lat="45.71437" lon="6.48201">
        <ele>556.4</ele>
        <time>2021-06-01T09:50:28Z</time>
      </trkpt>
      <trkpt lat="45.71441" lon="6.48209">
        <ele>556.8</ele>
        <time>2021-06-01T09:50:29Z</time>
      </trkpt>
      <trkpt lat="45.71445" lon="6.48217">
        <ele>557</ele>
        <time>2021-06-01T09:50:30Z</time>
      </trkpt>
      <trkpt lat="45.7145" lon="6.48224">
        <ele>557.2</ele>
        <time>2021-06-01T09:50:31Z</time>
      </trkpt>
      <trkpt lat="45.71454" lon="6.48231">
        <ele>557.4</ele>
        <time>2021-06-01T09:50:32Z</time>
      </trkpt>
      <trkpt lat="45.71459" lon="6.48237">
        <ele>557.8</ele>
        <time>2021-06-01T09:50:33Z</time>
      </trkpt>
      <trkpt lat="45.71463" lon="6.48243">
        <ele>558</ele>
        <time>2021-06-01T09:50:34Z</time>
      </trkpt>
      <trkpt lat="45.71468" lon="6.48249">
        <ele>558.2</ele>
        <time>2021-06-01T09:50:35Z</time>
      </trkpt>
      <trkpt lat="45.71473" lon="6.48256">
        <ele>558.2</ele>
        <time>2021-06-01T09:50:36Z</time>
      </trkpt>
      <trkpt lat="45.71478" lon="6.48263">
        <ele>558.4</ele>
        <time>2021-06-01T09:50:37Z</time>
      </trkpt>
      <trkpt lat="45.71483" lon="6.48269">
        <ele>558.6</ele>
        <time>2021-06-01T09:50:38Z</time>
      </trkpt>
      <trkpt lat="45.71487" lon="6.48275">
        <ele>558.8</ele>
        <time>2021-06-01T09:50:39Z</time>
      </trkpt>
      <trkpt lat="45.71491" lon="6.4828">
        <ele>558.8</ele>
        <time>2021-06-01T09:50:40Z</time>
      </trkpt>
      <trkpt lat="45.71495" lon="6.48286">
        <ele>558.6</ele>
        <time>2021-06-01T09:50:41Z</time>
      </trkpt>
      <trkpt lat="45.71499" lon="6.48292">
        <ele>558.6</ele>
        <time>2021-06-01T09:50:42Z</time>
      </trkpt>
      <trkpt lat="45.71503" lon="6.48298">
        <ele>558.6</ele>
        <time>2021-06-01T09:50:43Z</time>
      </trkpt>
      <trkpt lat="45.71508" lon="6.48305">
        <ele>558.6</ele>
        <time>2021-06-01T09:50:44Z</time>
      </trkpt>
      <trkpt lat="45.71511" lon="6.48311">
        <ele>558.4</ele>
        <time>2021-06-01T09:50:45Z</time>
      </trkpt>
      <trkpt lat="45.71515" lon="6.48316">
        <ele>558.8</ele>
        <time>2021-06-01T09:50:46Z</time>
      </trkpt>
      <trkpt lat="45.71519" lon="6.48322">
        <ele>559</ele>
        <time>2021-06-01T09:50:47Z</time>
      </trkpt>
      <trkpt lat="45.71524" lon="6.48327">
        <ele>559.2</ele>
        <time>2021-06-01T09:50:48Z</time>
      </trkpt>
      <trkpt lat="45.71527" lon="6.48332">
        <ele>559.4</ele>
        <time>2021-06-01T09:50:49Z</time>
      </trkpt>
      <trkpt lat="45.71531" lon="6.48336">
        <ele>559.4</ele>
        <time>2021-06-01T09:50:50Z</time>
      </trkpt>
      <trkpt lat="45.71535" lon="6.48339">
        <ele>559.6</ele>
        <time>2021-06-01T09:50:51Z</time>
      </trkpt>
      <trkpt lat="45.7154" lon="6.48341">
        <ele>559.6</ele>
        <time>2021-06-01T09:50:52Z</time>
      </trkpt>
      <trkpt lat="45.71547" lon="6.48342">
        <ele>559.6</ele>
        <time>2021-06-01T09:50:53Z</time>
      </trkpt>
      <trkpt lat="45.71552" lon="6.48343">
        <ele>559.8</ele>
        <time>2021-06-01T09:50:54Z</time>
      </trkpt>
      <trkpt lat="45.7156" lon="6.48344">
        <ele>559.6</ele>
        <time>2021-06-01T09:50:55Z</time>
      </trkpt>
      <trkpt lat="45.71567" lon="6.48346">
        <ele>559.6</ele>
        <time>2021-06-01T09:50:56Z</time>
      </trkpt>
      <trkpt lat="45.71574" lon="6.48348">
        <ele>559.8</ele>
        <time>2021-06-01T09:50:57Z</time>
      </trkpt>
      <trkpt lat="45.71581" lon="6.4835">
        <ele>559.8</ele>
        <time>2021-06-01T09:50:58Z</time>
      </trkpt>
      <trkpt lat="45.71588" lon="6.48353">
        <ele>559.8</ele>
        <time>2021-06-01T09:50:59Z</time>
      </trkpt>
      <trkpt lat="45.71595" lon="6.48358">
        <ele>559.8</ele>
        <time>2021-06-01T09:51:00Z</time>
      </trkpt>
      <trkpt lat="45.71601" lon="6.48362">
        <ele>559.8</ele>
        <time>2021-06-01T09:51:01Z</time>
      </trkpt>
      <trkpt lat="45.71607" lon="6.48367">
        <ele>559.6</ele>
        <time>2021-06-01T09:51:02Z</time>
      </trkpt>
      <trkpt lat="45.71613" lon="6.48371">
        <ele>559.6</ele>
        <time>2021-06-01T09:51:03Z</time>
      </trkpt>
      <trkpt lat="45.71619" lon="6.48376">
        <ele>559.8</ele>
        <time>2021-06-01T09:51:04Z</time>
      </trkpt>
      <trkpt lat="45.71624" lon="6.48381">
        <ele>559.8</ele>
        <time>2021-06-01T09:51:05Z</time>
      </trkpt>
      <trkpt lat="45.71628" lon="6.48386">
        <ele>559.8</ele>
        <time>2021-06-01T09:51:06Z</time>
      </trkpt>
      <trkpt lat="45.71633" lon="6.48392">
        <ele>560.2</ele>
        <time>2021-06-01T09:51:07Z</time>
      </trkpt>
      <trkpt lat="45.71637" lon="6.48397">
        <ele>560.8</ele>
        <time>2021-06-01T09:51:08Z</time>
      </trkpt>
      <trkpt lat="45.71641" lon="6.48403">
        <ele>561</ele>
        <time>2021-06-01T09:51:09Z</time>
      </trkpt>
      <trkpt lat="45.71644" lon="6.4841">
        <ele>561.2</ele>
        <time>2021-06-01T09:51:10Z</time>
      </trkpt>
      <trkpt lat="45.71648" lon="6.48416">
        <ele>561.4</ele>
        <time>2021-06-01T09:51:11Z</time>
      </trkpt>
      <trkpt lat="45.71652" lon="6.48422">
        <ele>561.4</ele>
        <time>2021-06-01T09:51:12Z</time>
      </trkpt>
      <trkpt lat="45.71655" lon="6.48429">
        <ele>561.2</ele>
        <time>2021-06-01T09:51:13Z</time>
      </trkpt>
      <trkpt lat="45.71659" lon="6.48436">
        <ele>561.2</ele>
        <time>2021-06-01T09:51:14Z</time>
      </trkpt>
      <trkpt lat="45.71662" lon="6.48443">
        <ele>561</ele>
        <time>2021-06-01T09:51:15Z</time>
      </trkpt>
      <trkpt lat="45.71665" lon="6.48451">
        <ele>561</ele>
        <time>2021-06-01T09:51:16Z</time>
      </trkpt>
      <trkpt lat="45.71667" lon="6.4846">
        <ele>561</ele>
        <time>2021-06-01T09:51:17Z</time>
      </trkpt>
      <trkpt lat="45.71669" lon="6.48468">
        <ele>560.8</ele>
        <time>2021-06-01T09:51:18Z</time>
      </trkpt>
      <trkpt lat="45.7167" lon="6.48476">
        <ele>560.8</ele>
        <time>2021-06-01T09:51:19Z</time>
      </trkpt>
      <trkpt lat="45.7167" lon="6.48483">
        <ele>560.6</ele>
        <time>2021-06-01T09:51:20Z</time>
      </trkpt>
      <trkpt lat="45.71672" lon="6.4849">
        <ele>560.6</ele>
        <time>2021-06-01T09:51:21Z</time>
      </trkpt>
      <trkpt lat="45.71674" lon="6.48497">
        <ele>560.2</ele>
        <time>2021-06-01T09:51:22Z</time>
      </trkpt>
      <trkpt lat="45.71675" lon="6.48505">
        <ele>560.2</ele>
        <time>2021-06-01T09:51:23Z</time>
      </trkpt>
      <trkpt lat="45.71677" lon="6.48512">
        <ele>560.2</ele>
        <time>2021-06-01T09:51:24Z</time>
      </trkpt>
      <trkpt lat="45.71678" lon="6.4852">
        <ele>560.2</ele>
        <time>2021-06-01T09:51:25Z</time>
      </trkpt>
      <trkpt lat="45.7168" lon="6.48528">
        <ele>560.6</ele>
        <time>2021-06-01T09:51:26Z</time>
      </trkpt>
      <trkpt lat="45.71681" lon="6.48537">
        <ele>560.6</ele>
        <time>2021-06-01T09:51:27Z</time>
      </trkpt>
      <trkpt lat="45.71682" lon="6.48545">
        <ele>560.6</ele>
        <time>2021-06-01T09:51:28Z</time>
      </trkpt>
      <trkpt lat="45.71683" lon="6.48553">
        <ele>560.4</ele>
        <time>2021-06-01T09:51:29Z</time>
      </trkpt>
      <trkpt lat="45.71685" lon="6.48561">
        <ele>560.6</ele>
        <time>2021-06-01T09:51:30Z</time>
      </trkpt>
      <trkpt lat="45.71686" lon="6.48569">
        <ele>560.6</ele>
        <time>2021-06-01T09:51:31Z</time>
      </trkpt>
      <trkpt lat="45.71687" lon="6.48576">
        <ele>560.8</ele>
        <time>2021-06-01T09:51:32Z</time>
      </trkpt>
      <trkpt lat="45.71689" lon="6.48583">
        <ele>561</ele>
        <time>2021-06-01T09:51:33Z</time>
      </trkpt>
      <trkpt lat="45.71691" lon="6.4859">
        <ele>561</ele>
        <time>2021-06-01T09:51:34Z</time>
      </trkpt>
      <trkpt lat="45.71693" lon="6.48597">
        <ele>561.2</ele>
        <time>2021-06-01T09:51:35Z</time>
      </trkpt>
      <trkpt lat="45.71693" lon="6.48605">
        <ele>561.6</ele>
        <time>2021-06-01T09:51:36Z</time>
      </trkpt>
      <trkpt lat="45.71694" lon="6.48612">
        <ele>561.8</ele>
        <time>2021-06-01T09:51:37Z</time>
      </trkpt>
      <trkpt lat="45.71695" lon="6.4862">
        <ele>562</ele>
        <time>2021-06-01T09:51:38Z</time>
      </trkpt>
      <trkpt lat="45.71696" lon="6.48628">
        <ele>561.8</ele>
        <time>2021-06-01T09:51:39Z</time>
      </trkpt>
      <trkpt lat="45.71696" lon="6.48635">
        <ele>562.2</ele>
        <time>2021-06-01T09:51:40Z</time>
      </trkpt>
      <trkpt lat="45.71697" lon="6.48642">
        <ele>562.4</ele>
        <time>2021-06-01T09:51:41Z</time>
      </trkpt>
      <trkpt lat="45.71697" lon="6.48649">
        <ele>562.4</ele>
        <time>2021-06-01T09:51:42Z</time>
      </trkpt>
      <trkpt lat="45.71698" lon="6.48657">
        <ele>562.4</ele>
        <time>2021-06-01T09:51:43Z</time>
      </trkpt>
      <trkpt lat="45.71698" lon="6.48664">
        <ele>562.2</ele>
        <time>2021-06-01T09:51:44Z</time>
      </trkpt>
      <trkpt lat="45.71698" lon="6.48672">
        <ele>562.4</ele>
        <time>2021-06-01T09:51:45Z</time>
      </trkpt>
      <trkpt lat="45.71699" lon="6.48677">
        <ele>562.4</ele>
        <time>2021-06-01T09:51:46Z</time>
      </trkpt>
      <trkpt lat="45.717" lon="6.48684">
        <ele>562.4</ele>
        <time>2021-06-01T09:51:47Z</time>
      </trkpt>
      <trkpt lat="45.717" lon="6.48688">
        <ele>562.4</ele>
        <time>2021-06-01T09:51:48Z</time>
      </trkpt>
      <trkpt lat="45.71701" lon="6.48694">
        <ele>562.2</ele>
        <time>2021-06-01T09:51:49Z</time>
      </trkpt>
      <trkpt lat="45.71702" lon="6.48698">
        <ele>562.2</ele>
        <time>2021-06-01T09:51:50Z</time>
      </trkpt>
      <trkpt lat="45.71705" lon="6.48703">
        <ele>562.2</ele>
        <time>2021-06-01T09:51:51Z</time>
      </trkpt>
      <trkpt lat="45.71707" lon="6.48708">
        <ele>562.4</ele>
        <time>2021-06-01T09:51:52Z</time>
      </trkpt>
      <trkpt lat="45.7171" lon="6.48714">
        <ele>562.4</ele>
        <time>2021-06-01T09:51:53Z</time>
      </trkpt>
      <trkpt lat="45.71712" lon="6.48719">
        <ele>562.4</ele>
        <time>2021-06-01T09:51:54Z</time>
      </trkpt>
      <trkpt lat="45.71715" lon="6.48724">
        <ele>562.2</ele>
        <time>2021-06-01T09:51:55Z</time>
      </trkpt>
      <trkpt lat="45.71718" lon="6.48729">
        <ele>562.2</ele>
        <time>2021-06-01T09:51:56Z</time>
      </trkpt>
      <trkpt lat="45.71723" lon="6.48734">
        <ele>562</ele>
        <time>2021-06-01T09:51:57Z</time>
      </trkpt>
      <trkpt lat="45.71726" lon="6.48739">
        <ele>562</ele>
        <time>2021-06-01T09:51:58Z</time>
      </trkpt>
      <trkpt lat="45.71729" lon="6.48745">
        <ele>562.2</ele>
        <time>2021-06-01T09:51:59Z</time>
      </trkpt>
      <trkpt lat="45.71731" lon="6.48751">
        <ele>562</ele>
        <time>2021-06-01T09:52:00Z</time>
      </trkpt>
      <trkpt lat="45.71734" lon="6.48758">
        <ele>562</ele>
        <time>2021-06-01T09:52:01Z</time>
      </trkpt>
      <trkpt lat="45.71736" lon="6.48764">
        <ele>562</ele>
        <time>2021-06-01T09:52:02Z</time>
      </trkpt>
      <trkpt lat="45.71738" lon="6.4877">
        <ele>562</ele>
        <time>2021-06-01T09:52:03Z</time>
      </trkpt>
      <trkpt lat="45.71739" lon="6.48778">
        <ele>562.4</ele>
        <time>2021-06-01T09:52:04Z</time>
      </trkpt>
      <trkpt lat="45.71739" lon="6.48786">
        <ele>562.8</ele>
        <time>2021-06-01T09:52:05Z</time>
      </trkpt>
      <trkpt lat="45.71739" lon="6.48793">
        <ele>563.2</ele>
        <time>2021-06-01T09:52:06Z</time>
      </trkpt>
      <trkpt lat="45.71739" lon="6.488">
        <ele>563.6</ele>
        <time>2021-06-01T09:52:07Z</time>
      </trkpt>
      <trkpt lat="45.71739" lon="6.48807">
        <ele>564.2</ele>
        <time>2021-06-01T09:52:08Z</time>
      </trkpt>
      <trkpt lat="45.71738" lon="6.48816">
        <ele>564.6</ele>
        <time>2021-06-01T09:52:09Z</time>
      </trkpt>
      <trkpt lat="45.71738" lon="6.48823">
        <ele>565.2</ele>
        <time>2021-06-01T09:52:10Z</time>
      </trkpt>
      <trkpt lat="45.71737" lon="6.48828">
        <ele>565.8</ele>
        <time>2021-06-01T09:52:11Z</time>
      </trkpt>
      <trkpt lat="45.71737" lon="6.48836">
        <ele>566.2</ele>
        <time>2021-06-01T09:52:12Z</time>
      </trkpt>
      <trkpt lat="45.71736" lon="6.48843">
        <ele>566.4</ele>
        <time>2021-06-01T09:52:13Z</time>
      </trkpt>
      <trkpt lat="45.71736" lon="6.48849">
        <ele>566.4</ele>
        <time>2021-06-01T09:52:14Z</time>
      </trkpt>
      <trkpt lat="45.71735" lon="6.48856">
        <ele>566.6</ele>
        <time>2021-06-01T09:52:15Z</time>
      </trkpt>
      <trkpt lat="45.71735" lon="6.48863">
        <ele>567</ele>
        <time>2021-06-01T09:52:16Z</time>
      </trkpt>
      <trkpt lat="45.71735" lon="6.4887">
        <ele>567.2</ele>
        <time>2021-06-01T09:52:17Z</time>
      </trkpt>
      <trkpt lat="45.71734" lon="6.48877">
        <ele>567.6</ele>
        <time>2021-06-01T09:52:18Z</time>
      </trkpt>
      <trkpt lat="45.71734" lon="6.48883">
        <ele>567.8</ele>
        <time>2021-06-01T09:52:19Z</time>
      </trkpt>
      <trkpt lat="45.71733" lon="6.4889">
        <ele>567.8</ele>
        <time>2021-06-01T09:52:20Z</time>
      </trkpt>
      <trkpt lat="45.71733" lon="6.48896">
        <ele>567.8</ele>
        <time>2021-06-01T09:52:21Z</time>
      </trkpt>
      <trkpt lat="45.71732" lon="6.48902">
        <ele>568</ele>
        <time>2021-06-01T09:52:22Z</time>
      </trkpt>
      <trkpt lat="45.71731" lon="6.48908">
        <ele>568</ele>
        <time>2021-06-01T09:52:23Z</time>
      </trkpt>
      <trkpt lat="45.7173" lon="6.48914">
        <ele>568</ele>
        <time>2021-06-01T09:52:24Z</time>
      </trkpt>
      <trkpt lat="45.71729" lon="6.4892">
        <ele>568</ele>
        <time>2021-06-01T09:52:25Z</time>
      </trkpt>
      <trkpt lat="45.71727" lon="6.48926">
        <ele>568.4</ele>
        <time>2021-06-01T09:52:26Z</time>
      </trkpt>
      <trkpt lat="45.71726" lon="6.48932">
        <ele>568.6</ele>
        <time>2021-06-01T09:52:27Z</time>
      </trkpt>
      <trkpt lat="45.71724" lon="6.48937">
        <ele>569</ele>
        <time>2021-06-01T09:52:28Z</time>
      </trkpt>
      <trkpt lat="45.71722" lon="6.48942">
        <ele>569</ele>
        <time>2021-06-01T09:52:29Z</time>
      </trkpt>
      <trkpt lat="45.7172" lon="6.48947">
        <ele>569.2</ele>
        <time>2021-06-01T09:52:30Z</time>
      </trkpt>
      <trkpt lat="45.71718" lon="6.48952">
        <ele>569.6</ele>
        <time>2021-06-01T09:52:31Z</time>
      </trkpt>
      <trkpt lat="45.71717" lon="6.48957">
        <ele>569.8</ele>
        <time>2021-06-01T09:52:32Z</time>
      </trkpt>
      <trkpt lat="45.71716" lon="6.48962">
        <ele>569.8</ele>
        <time>2021-06-01T09:52:33Z</time>
      </trkpt>
      <trkpt lat="45.71715" lon="6.48968">
        <ele>570.2</ele>
        <time>2021-06-01T09:52:34Z</time>
      </trkpt>
      <trkpt lat="45.71714" lon="6.48973">
        <ele>570.4</ele>
        <time>2021-06-01T09:52:35Z</time>
      </trkpt>
      <trkpt lat="45.71713" lon="6.48979">
        <ele>570.4</ele>
        <time>2021-06-01T09:52:36Z</time>
      </trkpt>
      <trkpt lat="45.71711" lon="6.48984">
        <ele>571</ele>
        <time>2021-06-01T09:52:37Z</time>
      </trkpt>
      <trkpt lat="45.71709" lon="6.48989">
        <ele>571.2</ele>
        <time>2021-06-01T09:52:38Z</time>
      </trkpt>
      <trkpt lat="45.71708" lon="6.48994">
        <ele>571.4</ele>
        <time>2021-06-01T09:52:39Z</time>
      </trkpt>
      <trkpt lat="45.71706" lon="6.48998">
        <ele>571.8</ele>
        <time>2021-06-01T09:52:40Z</time>
      </trkpt>
      <trkpt lat="45.71705" lon="6.49003">
        <ele>572</ele>
        <time>2021-06-01T09:52:41Z</time>
      </trkpt>
      <trkpt lat="45.71703" lon="6.49008">
        <ele>572.2</ele>
        <time>2021-06-01T09:52:42Z</time>
      </trkpt>
      <trkpt lat="45.71702" lon="6.49013">
        <ele>572.4</ele>
        <time>2021-06-01T09:52:43Z</time>
      </trkpt>
      <trkpt lat="45.71701" lon="6.49018">
        <ele>572.8</ele>
        <time>2021-06-01T09:52:44Z</time>
      </trkpt>
      <trkpt lat="45.717" lon="6.49023">
        <ele>573.2</ele>
        <time>2021-06-01T09:52:45Z</time>
      </trkpt>
      <trkpt lat="45.71699" lon="6.49029">
        <ele>573.8</ele>
        <time>2021-06-01T09:52:46Z</time>
      </trkpt>
      <trkpt lat="45.71699" lon="6.49033">
        <ele>574.4</ele>
        <time>2021-06-01T09:52:47Z</time>
      </trkpt>
      <trkpt lat="45.71698" lon="6.49039">
        <ele>574.8</ele>
        <time>2021-06-01T09:52:48Z</time>
      </trkpt>
      <trkpt lat="45.71698" lon="6.49045">
        <ele>575</ele>
        <time>2021-06-01T09:52:49Z</time>
      </trkpt>
      <trkpt lat="45.71698" lon="6.49051">
        <ele>575.2</ele>
        <time>2021-06-01T09:52:50Z</time>
      </trkpt>
      <trkpt lat="45.71698" lon="6.49057">
        <ele>575.4</ele>
        <time>2021-06-01T09:52:51Z</time>
      </trkpt>
      <trkpt lat="45.71699" lon="6.49063">
        <ele>575.6</ele>
        <time>2021-06-01T09:52:52Z</time>
      </trkpt>
      <trkpt lat="45.717" lon="6.49069">
        <ele>576</ele>
        <time>2021-06-01T09:52:53Z</time>
      </trkpt>
      <trkpt lat="45.71702" lon="6.49075">
        <ele>576.4</ele>
        <time>2021-06-01T09:52:54Z</time>
      </trkpt>
      <trkpt lat="45.71704" lon="6.49081">
        <ele>576.8</ele>
        <time>2021-06-01T09:52:55Z</time>
      </trkpt>
      <trkpt lat="45.71705" lon="6.49087">
        <ele>577.2</ele>
        <time>2021-06-01T09:52:56Z</time>
      </trkpt>
      <trkpt lat="45.71707" lon="6.49092">
        <ele>577.4</ele>
        <time>2021-06-01T09:52:57Z</time>
      </trkpt>
      <trkpt lat="45.71709" lon="6.49097">
        <ele>577.6</ele>
        <time>2021-06-01T09:52:58Z</time>
      </trkpt>
      <trkpt lat="45.71711" lon="6.49101">
        <ele>577.8</ele>
        <time>2021-06-01T09:52:59Z</time>
      </trkpt>
      <trkpt lat="45.71713" lon="6.49106">
        <ele>577.8</ele>
        <time>2021-06-01T09:53:00Z</time>
      </trkpt>
      <trkpt lat="45.71714" lon="6.49109">
        <ele>577.6</ele>
        <time>2021-06-01T09:53:01Z</time>
      </trkpt>
      <trkpt lat="45.71715" lon="6.49114">
        <ele>577.6</ele>
        <time>2021-06-01T09:53:02Z</time>
      </trkpt>
      <trkpt lat="45.71717" lon="6.4912">
        <ele>577.4</ele>
        <time>2021-06-01T09:53:03Z</time>
      </trkpt>
      <trkpt lat="45.71719" lon="6.49125">
        <ele>577.2</ele>
        <time>2021-06-01T09:53:04Z</time>
      </trkpt>
      <trkpt lat="45.71721" lon="6.49129">
        <ele>577.2</ele>
        <time>2021-06-01T09:53:05Z</time>
      </trkpt>
      <trkpt lat="45.71723" lon="6.49134">
        <ele>577.2</ele>
        <time>2021-06-01T09:53:06Z</time>
      </trkpt>
      <trkpt lat="45.71724" lon="6.49138">
        <ele>577.2</ele>
        <time>2021-06-01T09:53:07Z</time>
      </trkpt>
      <trkpt lat="45.71726" lon="6.49143">
        <ele>577.4</ele>
        <time>2021-06-01T09:53:08Z</time>
      </trkpt>
      <trkpt lat="45.71728" lon="6.49148">
        <ele>577.4</ele>
        <time>2021-06-01T09:53:09Z</time>
      </trkpt>
      <trkpt lat="45.71731" lon="6.49152">
        <ele>577.8</ele>
        <time>2021-06-01T09:53:10Z</time>
      </trkpt>
      <trkpt lat="45.71734" lon="6.49155">
        <ele>578.4</ele>
        <time>2021-06-01T09:53:11Z</time>
      </trkpt>
      <trkpt lat="45.71738" lon="6.49159">
        <ele>578.6</ele>
        <time>2021-06-01T09:53:12Z</time>
      </trkpt>
      <trkpt lat="45.7174" lon="6.49163">
        <ele>579</ele>
        <time>2021-06-01T09:53:13Z</time>
      </trkpt>
      <trkpt lat="45.71742" lon="6.49168">
        <ele>579.4</ele>
        <time>2021-06-01T09:53:14Z</time>
      </trkpt>
      <trkpt lat="45.71743" lon="6.49173">
        <ele>579.6</ele>
        <time>2021-06-01T09:53:15Z</time>
      </trkpt>
      <trkpt lat="45.71745" lon="6.49178">
        <ele>580</ele>
        <time>2021-06-01T09:53:16Z</time>
      </trkpt>
      <trkpt lat="45.71748" lon="6.49182">
        <ele>580.2</ele>
        <time>2021-06-01T09:53:17Z</time>
      </trkpt>
      <trkpt lat="45.7175" lon="6.49186">
        <ele>580.8</ele>
        <time>2021-06-01T09:53:18Z</time>
      </trkpt>
      <trkpt lat="45.71752" lon="6.4919">
        <ele>581.2</ele>
        <time>2021-06-01T09:53:19Z</time>
      </trkpt>
      <trkpt lat="45.71754" lon="6.49195">
        <ele>581.8</ele>
        <time>2021-06-01T09:53:20Z</time>
      </trkpt>
      <trkpt lat="45.71756" lon="6.49199">
        <ele>582.4</ele>
        <time>2021-06-01T09:53:21Z</time>
      </trkpt>
      <trkpt lat="45.71759" lon="6.49203">
        <ele>583.2</ele>
        <time>2021-06-01T09:53:22Z</time>
      </trkpt>
      <trkpt lat="45.71761" lon="6.49207">
        <ele>583.8</ele>
        <time>2021-06-01T09:53:23Z</time>
      </trkpt>
      <trkpt lat="45.71763" lon="6.49211">
        <ele>584.6</ele>
        <time>2021-06-01T09:53:24Z</time>
      </trkpt>
      <trkpt lat="45.71765" lon="6.49215">
        <ele>585.4</ele>
        <time>2021-06-01T09:53:25Z</time>
      </trkpt>
      <trkpt lat="45.71767" lon="6.49219">
        <ele>586.4</ele>
        <time>2021-06-01T09:53:26Z</time>
      </trkpt>
      <trkpt lat="45.71768" lon="6.49223">
        <ele>587.2</ele>
        <time>2021-06-01T09:53:27Z</time>
      </trkpt>
      <trkpt lat="45.71769" lon="6.49227">
        <ele>587.8</ele>
        <time>2021-06-01T09:53:28Z</time>
      </trkpt>
      <trkpt lat="45.71771" lon="6.49232">
        <ele>588.6</ele>
        <time>2021-06-01T09:53:29Z</time>
      </trkpt>
      <trkpt lat="45.71771" lon="6.49237">
        <ele>589</ele>
        <time>2021-06-01T09:53:30Z</time>
      </trkpt>
      <trkpt lat="45.71772" lon="6.49243">
        <ele>589.4</ele>
        <time>2021-06-01T09:53:31Z</time>
      </trkpt>
      <trkpt lat="45.71773" lon="6.49249">
        <ele>589.6</ele>
        <time>2021-06-01T09:53:32Z</time>
      </trkpt>
      <trkpt lat="45.71773" lon="6.49255">
        <ele>589.8</ele>
        <time>2021-06-01T09:53:33Z</time>
      </trkpt>
      <trkpt lat="45.71774" lon="6.49261">
        <ele>589.8</ele>
        <time>2021-06-01T09:53:34Z</time>
      </trkpt>
      <trkpt lat="45.71774" lon="6.49267">
        <ele>590</ele>
        <time>2021-06-01T09:53:35Z</time>
      </trkpt>
      <trkpt lat="45.71774" lon="6.49273">
        <ele>590.4</ele>
        <time>2021-06-01T09:53:36Z</time>
      </trkpt>
      <trkpt lat="45.71775" lon="6.49279">
        <ele>590.8</ele>
        <time>2021-06-01T09:53:37Z</time>
      </trkpt>
      <trkpt lat="45.71775" lon="6.49285">
        <ele>591.6</ele>
        <time>2021-06-01T09:53:38Z</time>
      </trkpt>
      <trkpt lat="45.71775" lon="6.4929">
        <ele>592.4</ele>
        <time>2021-06-01T09:53:39Z</time>
      </trkpt>
      <trkpt lat="45.71775" lon="6.49295">
        <ele>593.4</ele>
        <time>2021-06-01T09:53:40Z</time>
      </trkpt>
      <trkpt lat="45.71775" lon="6.493">
        <ele>594.4</ele>
        <time>2021-06-01T09:53:41Z</time>
      </trkpt>
      <trkpt lat="45.71775" lon="6.49305">
        <ele>595.4</ele>
        <time>2021-06-01T09:53:42Z</time>
      </trkpt>
      <trkpt lat="45.71776" lon="6.49311">
        <ele>596.4</ele>
        <time>2021-06-01T09:53:43Z</time>
      </trkpt>
      <trkpt lat="45.71777" lon="6.49317">
        <ele>597</ele>
        <time>2021-06-01T09:53:44Z</time>
      </trkpt>
      <trkpt lat="45.71779" lon="6.49322">
        <ele>597.8</ele>
        <time>2021-06-01T09:53:45Z</time>
      </trkpt>
      <trkpt lat="45.7178" lon="6.49327">
        <ele>598.6</ele>
        <time>2021-06-01T09:53:46Z</time>
      </trkpt>
      <trkpt lat="45.71782" lon="6.49333">
        <ele>599.2</ele>
        <time>2021-06-01T09:53:47Z</time>
      </trkpt>
      <trkpt lat="45.71785" lon="6.49337">
        <ele>599.8</ele>
        <time>2021-06-01T09:53:48Z</time>
      </trkpt>
      <trkpt lat="45.71787" lon="6.49342">
        <ele>600.2</ele>
        <time>2021-06-01T09:53:49Z</time>
      </trkpt>
      <trkpt lat="45.71789" lon="6.49347">
        <ele>600.2</ele>
        <time>2021-06-01T09:53:50Z</time>
      </trkpt>
      <trkpt lat="45.71791" lon="6.49354">
        <ele>600.2</ele>
        <time>2021-06-01T09:53:51Z</time>
      </trkpt>
      <trkpt lat="45.71793" lon="6.49362">
        <ele>600.4</ele>
        <time>2021-06-01T09:53:52Z</time>
      </trkpt>
      <trkpt lat="45.71795" lon="6.49369">
        <ele>600.4</ele>
        <time>2021-06-01T09:53:53Z</time>
      </trkpt>
      <trkpt lat="45.71796" lon="6.49376">
        <ele>600.2</ele>
        <time>2021-06-01T09:53:54Z</time>
      </trkpt>
      <trkpt lat="45.71797" lon="6.49383">
        <ele>600.2</ele>
        <time>2021-06-01T09:53:55Z</time>
      </trkpt>
      <trkpt lat="45.71799" lon="6.49391">
        <ele>600.2</ele>
        <time>2021-06-01T09:53:56Z</time>
      </trkpt>
      <trkpt lat="45.71801" lon="6.49398">
        <ele>600.4</ele>
        <time>2021-06-01T09:53:57Z</time>
      </trkpt>
      <trkpt lat="45.71804" lon="6.49406">
        <ele>600.8</ele>
        <time>2021-06-01T09:53:58Z</time>
      </trkpt>
      <trkpt lat="45.71806" lon="6.49415">
        <ele>601.4</ele>
        <time>2021-06-01T09:53:59Z</time>
      </trkpt>
      <trkpt lat="45.71809" lon="6.49424">
        <ele>602.2</ele>
        <time>2021-06-01T09:54:00Z</time>
      </trkpt>
      <trkpt lat="45.71811" lon="6.49431">
        <ele>603.2</ele>
        <time>2021-06-01T09:54:01Z</time>
      </trkpt>
      <trkpt lat="45.71813" lon="6.49438">
        <ele>604.2</ele>
        <time>2021-06-01T09:54:02Z</time>
      </trkpt>
      <trkpt lat="45.71815" lon="6.49445">
        <ele>605</ele>
        <time>2021-06-01T09:54:03Z</time>
      </trkpt>
      <trkpt lat="45.71817" lon="6.4945">
        <ele>605.8</ele>
        <time>2021-06-01T09:54:04Z</time>
      </trkpt>
      <trkpt lat="45.71819" lon="6.49456">
        <ele>606.6</ele>
        <time>2021-06-01T09:54:05Z</time>
      </trkpt>
      <trkpt lat="45.71822" lon="6.49462">
        <ele>607.4</ele>
        <time>2021-06-01T09:54:06Z</time>
      </trkpt>
      <trkpt lat="45.71826" lon="6.49469">
        <ele>608.2</ele>
        <time>2021-06-01T09:54:07Z</time>
      </trkpt>
      <trkpt lat="45.71829" lon="6.49475">
        <ele>609</ele>
        <time>2021-06-01T09:54:08Z</time>
      </trkpt>
      <trkpt lat="45.71834" lon="6.49481">
        <ele>609.6</ele>
        <time>2021-06-01T09:54:09Z</time>
      </trkpt>
      <trkpt lat="45.71839" lon="6.49488">
        <ele>610.2</ele>
        <time>2021-06-01T09:54:10Z</time>
      </trkpt>
      <trkpt lat="45.71843" lon="6.49494">
        <ele>610.4</ele>
        <time>2021-06-01T09:54:11Z</time>
      </trkpt>
      <trkpt lat="45.71849" lon="6.49501">
        <ele>610.4</ele>
        <time>2021-06-01T09:54:12Z</time>
      </trkpt>
      <trkpt lat="45.71854" lon="6.49507">
        <ele>610.6</ele>
        <time>2021-06-01T09:54:13Z</time>
      </trkpt>
      <trkpt lat="45.71859" lon="6.49512">
        <ele>611</ele>
        <time>2021-06-01T09:54:14Z</time>
      </trkpt>
      <trkpt lat="45.71864" lon="6.49518">
        <ele>611.4</ele>
        <time>2021-06-01T09:54:15Z</time>
      </trkpt>
      <trkpt lat="45.7187" lon="6.49526">
        <ele>611.8</ele>
        <time>2021-06-01T09:54:16Z</time>
      </trkpt>
      <trkpt lat="45.71874" lon="6.49536">
        <ele>612.4</ele>
        <time>2021-06-01T09:54:17Z</time>
      </trkpt>
      <trkpt lat="45.71874" lon="6.49547">
        <ele>612.8</ele>
        <time>2021-06-01T09:54:18Z</time>
      </trkpt>
      <trkpt lat="45.71872" lon="6.49558">
        <ele>613.4</ele>
        <time>2021-06-01T09:54:19Z</time>
      </trkpt>
      <trkpt lat="45.71868" lon="6.49569">
        <ele>613.8</ele>
        <time>2021-06-01T09:54:20Z</time>
      </trkpt>
      <trkpt lat="45.71865" lon="6.4958">
        <ele>614.2</ele>
        <time>2021-06-01T09:54:21Z</time>
      </trkpt>
      <trkpt lat="45.71862" lon="6.4959">
        <ele>614.6</ele>
        <time>2021-06-01T09:54:22Z</time>
      </trkpt>
      <trkpt lat="45.71859" lon="6.496">
        <ele>615</ele>
        <time>2021-06-01T09:54:23Z</time>
      </trkpt>
      <trkpt lat="45.71857" lon="6.4961">
        <ele>615.6</ele>
        <time>2021-06-01T09:54:24Z</time>
      </trkpt>
      <trkpt lat="45.71855" lon="6.4962">
        <ele>615.8</ele>
        <time>2021-06-01T09:54:25Z</time>
      </trkpt>
      <trkpt lat="45.71854" lon="6.49631">
        <ele>616.2</ele>
        <time>2021-06-01T09:54:26Z</time>
      </trkpt>
      <trkpt lat="45.71854" lon="6.49641">
        <ele>616.6</ele>
        <time>2021-06-01T09:54:27Z</time>
      </trkpt>
      <trkpt lat="45.71854" lon="6.49652">
        <ele>617</ele>
        <time>2021-06-01T09:54:28Z</time>
      </trkpt>
      <trkpt lat="45.71854" lon="6.49663">
        <ele>616.8</ele>
        <time>2021-06-01T09:54:29Z</time>
      </trkpt>
      <trkpt lat="45.71855" lon="6.49674">
        <ele>617</ele>
        <time>2021-06-01T09:54:30Z</time>
      </trkpt>
      <trkpt lat="45.71856" lon="6.49685">
        <ele>616.8</ele>
        <time>2021-06-01T09:54:31Z</time>
      </trkpt>
      <trkpt lat="45.71857" lon="6.49697">
        <ele>616.8</ele>
        <time>2021-06-01T09:54:32Z</time>
      </trkpt>
      <trkpt lat="45.71858" lon="6.4971">
        <ele>616.8</ele>
        <time>2021-06-01T09:54:33Z</time>
      </trkpt>
      <trkpt lat="45.71859" lon="6.49723">
        <ele>617</ele>
        <time>2021-06-01T09:54:34Z</time>
      </trkpt>
      <trkpt lat="45.7186" lon="6.49736">
        <ele>616.8</ele>
        <time>2021-06-01T09:54:35Z</time>
      </trkpt>
      <trkpt lat="45.71861" lon="6.49748">
        <ele>617</ele>
        <time>2021-06-01T09:54:36Z</time>
      </trkpt>
      <trkpt lat="45.71862" lon="6.4976">
        <ele>617.2</ele>
        <time>2021-06-01T09:54:37Z</time>
      </trkpt>
      <trkpt lat="45.71864" lon="6.49772">
        <ele>617.4</ele>
        <time>2021-06-01T09:54:38Z</time>
      </trkpt>
      <trkpt lat="45.71865" lon="6.49784">
        <ele>617.6</ele>
        <time>2021-06-01T09:54:39Z</time>
      </trkpt>
      <trkpt lat="45.71866" lon="6.49796">
        <ele>617.8</ele>
        <time>2021-06-01T09:54:40Z</time>
      </trkpt>
      <trkpt lat="45.71867" lon="6.49809">
        <ele>617.8</ele>
        <time>2021-06-01T09:54:41Z</time>
      </trkpt>
      <trkpt lat="45.71867" lon="6.49821">
        <ele>617.8</ele>
        <time>2021-06-01T09:54:42Z</time>
      </trkpt>
      <trkpt lat="45.71866" lon="6.49832">
        <ele>618</ele>
        <time>2021-06-01T09:54:43Z</time>
      </trkpt>
      <trkpt lat="45.71865" lon="6.49844">
        <ele>618</ele>
        <time>2021-06-01T09:54:44Z</time>
      </trkpt>
      <trkpt lat="45.71862" lon="6.49855">
        <ele>618</ele>
        <time>2021-06-01T09:54:45Z</time>
      </trkpt>
      <trkpt lat="45.7186" lon="6.49865">
        <ele>618.2</ele>
        <time>2021-06-01T09:54:46Z</time>
      </trkpt>
      <trkpt lat="45.71859" lon="6.49876">
        <ele>618.2</ele>
        <time>2021-06-01T09:54:47Z</time>
      </trkpt>
      <trkpt lat="45.71857" lon="6.49887">
        <ele>618.4</ele>
        <time>2021-06-01T09:54:48Z</time>
      </trkpt>
      <trkpt lat="45.71855" lon="6.49898">
        <ele>618.4</ele>
        <time>2021-06-01T09:54:49Z</time>
      </trkpt>
      <trkpt lat="45.71853" lon="6.49909">
        <ele>618.6</ele>
        <time>2021-06-01T09:54:50Z</time>
      </trkpt>
      <trkpt lat="45.71851" lon="6.49919">
        <ele>618.6</ele>
        <time>2021-06-01T09:54:51Z</time>
      </trkpt>
      <trkpt lat="45.71848" lon="6.4993">
        <ele>618.8</ele>
        <time>2021-06-01T09:54:52Z</time>
      </trkpt>
      <trkpt lat="45.71844" lon="6.4994">
        <ele>618.8</ele>
        <time>2021-06-01T09:54:53Z</time>
      </trkpt>
      <trkpt lat="45.71841" lon="6.49951">
        <ele>618.6</ele>
        <time>2021-06-01T09:54:54Z</time>
      </trkpt>
      <trkpt lat="45.71837" lon="6.49962">
        <ele>618.6</ele>
        <time>2021-06-01T09:54:55Z</time>
      </trkpt>
      <trkpt lat="45.71833" lon="6.49972">
        <ele>618.6</ele>
        <time>2021-06-01T09:54:56Z</time>
      </trkpt>
      <trkpt lat="45.7183" lon="6.49982">
        <ele>618</ele>
        <time>2021-06-01T09:54:57Z</time>
      </trkpt>
      <trkpt lat="45.71825" lon="6.49992">
        <ele>617.6</ele>
        <time>2021-06-01T09:54:58Z</time>
      </trkpt>
      <trkpt lat="45.71821" lon="6.50001">
        <ele>617.4</ele>
        <time>2021-06-01T09:54:59Z</time>
      </trkpt>
      <trkpt lat="45.71816" lon="6.50011">
        <ele>617</ele>
        <time>2021-06-01T09:55:00Z</time>
      </trkpt>
      <trkpt lat="45.71812" lon="6.50022">
        <ele>616.6</ele>
        <time>2021-06-01T09:55:01Z</time>
      </trkpt>
      <trkpt lat="45.71808" lon="6.50033">
        <ele>616</ele>
        <time>2021-06-01T09:55:02Z</time>
      </trkpt>
      <trkpt lat="45.71805" lon="6.50043">
        <ele>615.6</ele>
        <time>2021-06-01T09:55:03Z</time>
      </trkpt>
      <trkpt lat="45.71802" lon="6.50054">
        <ele>615.4</ele>
        <time>2021-06-01T09:55:04Z</time>
      </trkpt>
      <trkpt lat="45.71799" lon="6.50065">
        <ele>615</ele>
        <time>2021-06-01T09:55:05Z</time>
      </trkpt>
      <trkpt lat="45.71796" lon="6.50076">
        <ele>615.2</ele>
        <time>2021-06-01T09:55:06Z</time>
      </trkpt>
      <trkpt lat="45.71792" lon="6.50087">
        <ele>615</ele>
        <time>2021-06-01T09:55:07Z</time>
      </trkpt>
      <trkpt lat="45.71789" lon="6.50099">
        <ele>614.6</ele>
        <time>2021-06-01T09:55:08Z</time>
      </trkpt>
      <trkpt lat="45.71787" lon="6.50111">
        <ele>614.2</ele>
        <time>2021-06-01T09:55:09Z</time>
      </trkpt>
      <trkpt lat="45.71783" lon="6.50123">
        <ele>613.8</ele>
        <time>2021-06-01T09:55:10Z</time>
      </trkpt>
      <trkpt lat="45.7178" lon="6.50135">
        <ele>613.6</ele>
        <time>2021-06-01T09:55:11Z</time>
      </trkpt>
      <trkpt lat="45.71778" lon="6.50148">
        <ele>613.6</ele>
        <time>2021-06-01T09:55:12Z</time>
      </trkpt>
      <trkpt lat="45.71775" lon="6.50161">
        <ele>613.8</ele>
        <time>2021-06-01T09:55:13Z</time>
      </trkpt>
      <trkpt lat="45.71772" lon="6.50173">
        <ele>613.8</ele>
        <time>2021-06-01T09:55:14Z</time>
      </trkpt>
      <trkpt lat="45.71769" lon="6.50186">
        <ele>614</ele>
        <time>2021-06-01T09:55:15Z</time>
      </trkpt>
      <trkpt lat="45.71765" lon="6.50198">
        <ele>613.8</ele>
        <time>2021-06-01T09:55:16Z</time>
      </trkpt>
      <trkpt lat="45.71763" lon="6.5021">
        <ele>614</ele>
        <time>2021-06-01T09:55:17Z</time>
      </trkpt>
      <trkpt lat="45.71759" lon="6.50222">
        <ele>614.4</ele>
        <time>2021-06-01T09:55:18Z</time>
      </trkpt>
      <trkpt lat="45.71756" lon="6.50235">
        <ele>614.4</ele>
        <time>2021-06-01T09:55:19Z</time>
      </trkpt>
      <trkpt lat="45.71753" lon="6.50247">
        <ele>614.8</ele>
        <time>2021-06-01T09:55:20Z</time>
      </trkpt>
      <trkpt lat="45.71749" lon="6.50259">
        <ele>615.4</ele>
        <time>2021-06-01T09:55:21Z</time>
      </trkpt>
      <trkpt lat="45.71747" lon="6.50271">
        <ele>615.8</ele>
        <time>2021-06-01T09:55:22Z</time>
      </trkpt>
      <trkpt lat="45.71744" lon="6.50284">
        <ele>616.2</ele>
        <time>2021-06-01T09:55:23Z</time>
      </trkpt>
      <trkpt lat="45.71741" lon="6.50296">
        <ele>616.8</ele>
        <time>2021-06-01T09:55:24Z</time>
      </trkpt>
      <trkpt lat="45.71738" lon="6.50308">
        <ele>617.4</ele>
        <time>2021-06-01T09:55:25Z</time>
      </trkpt>
      <trkpt lat="45.71735" lon="6.5032">
        <ele>618</ele>
        <time>2021-06-01T09:55:26Z</time>
      </trkpt>
      <trkpt lat="45.71732" lon="6.50332">
        <ele>618</ele>
        <time>2021-06-01T09:55:27Z</time>
      </trkpt>
      <trkpt lat="45.7173" lon="6.50344">
        <ele>618.6</ele>
        <time>2021-06-01T09:55:28Z</time>
      </trkpt>
      <trkpt lat="45.71727" lon="6.50356">
        <ele>618.8</ele>
        <time>2021-06-01T09:55:29Z</time>
      </trkpt>
      <trkpt lat="45.71724" lon="6.50367">
        <ele>618.8</ele>
        <time>2021-06-01T09:55:30Z</time>
      </trkpt>
      <trkpt lat="45.71721" lon="6.50379">
        <ele>618.8</ele>
        <time>2021-06-01T09:55:31Z</time>
      </trkpt>
      <trkpt lat="45.71718" lon="6.5039">
        <ele>618.6</ele>
        <time>2021-06-01T09:55:32Z</time>
      </trkpt>
      <trkpt lat="45.71715" lon="6.50401">
        <ele>618.6</ele>
        <time>2021-06-01T09:55:33Z</time>
      </trkpt>
      <trkpt lat="45.71712" lon="6.50412">
        <ele>618.8</ele>
        <time>2021-06-01T09:55:34Z</time>
      </trkpt>
      <trkpt lat="45.71709" lon="6.50423">
        <ele>618.8</ele>
        <time>2021-06-01T09:55:35Z</time>
      </trkpt>
      <trkpt lat="45.71707" lon="6.50434">
        <ele>618.8</ele>
        <time>2021-06-01T09:55:36Z</time>
      </trkpt>
      <trkpt lat="45.71705" lon="6.50445">
        <ele>618.6</ele>
        <time>2021-06-01T09:55:37Z</time>
      </trkpt>
      <trkpt lat="45.71703" lon="6.50456">
        <ele>618.4</ele>
        <time>2021-06-01T09:55:38Z</time>
      </trkpt>
      <trkpt lat="45.71702" lon="6.50467">
        <ele>618</ele>
        <time>2021-06-01T09:55:39Z</time>
      </trkpt>
      <trkpt lat="45.71701" lon="6.50479">
        <ele>618</ele>
        <time>2021-06-01T09:55:40Z</time>
      </trkpt>
      <trkpt lat="45.717" lon="6.50491">
        <ele>617.6</ele>
        <time>2021-06-01T09:55:41Z</time>
      </trkpt>
      <trkpt lat="45.717" lon="6.50503">
        <ele>617.2</ele>
        <time>2021-06-01T09:55:42Z</time>
      </trkpt>
      <trkpt lat="45.717" lon="6.50515">
        <ele>617</ele>
        <time>2021-06-01T09:55:43Z</time>
      </trkpt>
      <trkpt lat="45.71701" lon="6.50526">
        <ele>616.8</ele>
        <time>2021-06-01T09:55:44Z</time>
      </trkpt>
      <trkpt lat="45.71703" lon="6.50538">
        <ele>616.4</ele>
        <time>2021-06-01T09:55:45Z</time>
      </trkpt>
      <trkpt lat="45.71705" lon="6.50549">
        <ele>616</ele>
        <time>2021-06-01T09:55:46Z</time>
      </trkpt>
      <trkpt lat="45.71707" lon="6.5056">
        <ele>615.8</ele>
        <time>2021-06-01T09:55:47Z</time>
      </trkpt>
      <trkpt lat="45.71709" lon="6.50571">
        <ele>615.6</ele>
        <time>2021-06-01T09:55:48Z</time>
      </trkpt>
      <trkpt lat="45.71713" lon="6.50583">
        <ele>615.6</ele>
        <time>2021-06-01T09:55:49Z</time>
      </trkpt>
      <trkpt lat="45.71716" lon="6.50593">
        <ele>615.6</ele>
        <time>2021-06-01T09:55:50Z</time>
      </trkpt>
      <trkpt lat="45.71719" lon="6.50603">
        <ele>616</ele>
        <time>2021-06-01T09:55:51Z</time>
      </trkpt>
      <trkpt lat="45.71723" lon="6.50613">
        <ele>616.4</ele>
        <time>2021-06-01T09:55:52Z</time>
      </trkpt>
      <trkpt lat="45.71727" lon="6.50623">
        <ele>616.8</ele>
        <time>2021-06-01T09:55:53Z</time>
      </trkpt>
      <trkpt lat="45.71732" lon="6.50633">
        <ele>617</ele>
        <time>2021-06-01T09:55:54Z</time>
      </trkpt>
      <trkpt lat="45.71737" lon="6.50643">
        <ele>617.2</ele>
        <time>2021-06-01T09:55:55Z</time>
      </trkpt>
      <trkpt lat="45.71741" lon="6.50653">
        <ele>617.6</ele>
        <time>2021-06-01T09:55:56Z</time>
      </trkpt>
      <trkpt lat="45.71746" lon="6.50664">
        <ele>618</ele>
        <time>2021-06-01T09:55:57Z</time>
      </trkpt>
      <trkpt lat="45.71751" lon="6.50675">
        <ele>618.6</ele>
        <time>2021-06-01T09:55:58Z</time>
      </trkpt>
      <trkpt lat="45.71756" lon="6.50686">
        <ele>619</ele>
        <time>2021-06-01T09:55:59Z</time>
      </trkpt>
      <trkpt lat="45.71761" lon="6.50697">
        <ele>619.6</ele>
        <time>2021-06-01T09:56:00Z</time>
      </trkpt>
      <trkpt lat="45.71765" lon="6.50708">
        <ele>620.2</ele>
        <time>2021-06-01T09:56:01Z</time>
      </trkpt>
      <trkpt lat="45.7177" lon="6.5072">
        <ele>620.6</ele>
        <time>2021-06-01T09:56:02Z</time>
      </trkpt>
      <trkpt lat="45.71774" lon="6.50731">
        <ele>621.4</ele>
        <time>2021-06-01T09:56:03Z</time>
      </trkpt>
      <trkpt lat="45.71778" lon="6.50743">
        <ele>621.8</ele>
        <time>2021-06-01T09:56:04Z</time>
      </trkpt>
      <trkpt lat="45.71781" lon="6.50756">
        <ele>622.2</ele>
        <time>2021-06-01T09:56:05Z</time>
      </trkpt>
      <trkpt lat="45.71785" lon="6.50769">
        <ele>622.8</ele>
        <time>2021-06-01T09:56:06Z</time>
      </trkpt>
      <trkpt lat="45.71788" lon="6.50782">
        <ele>623.2</ele>
        <time>2021-06-01T09:56:07Z</time>
      </trkpt>
      <trkpt lat="45.71791" lon="6.50795">
        <ele>623.8</ele>
        <time>2021-06-01T09:56:08Z</time>
      </trkpt>
      <trkpt lat="45.71794" lon="6.50809">
        <ele>624.2</ele>
        <time>2021-06-01T09:56:09Z</time>
      </trkpt>
      <trkpt lat="45.71795" lon="6.50822">
        <ele>624.6</ele>
        <time>2021-06-01T09:56:10Z</time>
      </trkpt>
      <trkpt lat="45.71795" lon="6.50835">
        <ele>624.6</ele>
        <time>2021-06-01T09:56:11Z</time>
      </trkpt>
      <trkpt lat="45.71794" lon="6.50847">
        <ele>625</ele>
        <time>2021-06-01T09:56:12Z</time>
      </trkpt>
      <trkpt lat="45.71794" lon="6.50861">
        <ele>625</ele>
        <time>2021-06-01T09:56:13Z</time>
      </trkpt>
      <trkpt lat="45.71794" lon="6.50873">
        <ele>625.2</ele>
        <time>2021-06-01T09:56:14Z</time>
      </trkpt>
      <trkpt lat="45.71795" lon="6.50885">
        <ele>625.2</ele>
        <time>2021-06-01T09:56:15Z</time>
      </trkpt>
      <trkpt lat="45.71795" lon="6.50897">
        <ele>625.2</ele>
        <time>2021-06-01T09:56:16Z</time>
      </trkpt>
      <trkpt lat="45.71796" lon="6.50909">
        <ele>625.6</ele>
        <time>2021-06-01T09:56:17Z</time>
      </trkpt>
      <trkpt lat="45.71797" lon="6.50921">
        <ele>625.4</ele>
        <time>2021-06-01T09:56:18Z</time>
      </trkpt>
      <trkpt lat="45.71799" lon="6.50933">
        <ele>625.4</ele>
        <time>2021-06-01T09:56:19Z</time>
      </trkpt>
      <trkpt lat="45.71801" lon="6.50945">
        <ele>625.4</ele>
        <time>2021-06-01T09:56:20Z</time>
      </trkpt>
      <trkpt lat="45.71804" lon="6.50956">
        <ele>625.6</ele>
        <time>2021-06-01T09:56:21Z</time>
      </trkpt>
      <trkpt lat="45.71808" lon="6.50968">
        <ele>626</ele>
        <time>2021-06-01T09:56:22Z</time>
      </trkpt>
      <trkpt lat="45.71811" lon="6.50979">
        <ele>626.2</ele>
        <time>2021-06-01T09:56:23Z</time>
      </trkpt>
      <trkpt lat="45.71814" lon="6.50991">
        <ele>626.2</ele>
        <time>2021-06-01T09:56:24Z</time>
      </trkpt>
      <trkpt lat="45.71818" lon="6.51002">
        <ele>626.6</ele>
        <time>2021-06-01T09:56:25Z</time>
      </trkpt>
      <trkpt lat="45.71821" lon="6.51013">
        <ele>626.6</ele>
        <time>2021-06-01T09:56:26Z</time>
      </trkpt>
      <trkpt lat="45.71825" lon="6.51024">
        <ele>627</ele>
        <time>2021-06-01T09:56:27Z</time>
      </trkpt>
      <trkpt lat="45.71829" lon="6.51035">
        <ele>627</ele>
        <time>2021-06-01T09:56:28Z</time>
      </trkpt>
      <trkpt lat="45.71832" lon="6.51047">
        <ele>627.2</ele>
        <time>2021-06-01T09:56:29Z</time>
      </trkpt>
      <trkpt lat="45.71836" lon="6.51058">
        <ele>627.4</ele>
        <time>2021-06-01T09:56:30Z</time>
      </trkpt>
      <trkpt lat="45.7184" lon="6.51069">
        <ele>627.6</ele>
        <time>2021-06-01T09:56:31Z</time>
      </trkpt>
      <trkpt lat="45.71843" lon="6.51081">
        <ele>627.6</ele>
        <time>2021-06-01T09:56:32Z</time>
      </trkpt>
      <trkpt lat="45.71847" lon="6.51092">
        <ele>627.6</ele>
        <time>2021-06-01T09:56:33Z</time>
      </trkpt>
      <trkpt lat="45.71854" lon="6.51115">
        <ele>628.2</ele>
        <time>2021-06-01T09:56:35Z</time>
      </trkpt>
      <trkpt lat="45.71857" lon="6.51126">
        <ele>628.6</ele>
        <time>2021-06-01T09:56:36Z</time>
      </trkpt>
      <trkpt lat="45.71861" lon="6.51137">
        <ele>628.8</ele>
        <time>2021-06-01T09:56:37Z</time>
      </trkpt>
      <trkpt lat="45.71864" lon="6.51149">
        <ele>628.8</ele>
        <time>2021-06-01T09:56:38Z</time>
      </trkpt>
      <trkpt lat="45.71868" lon="6.5116">
        <ele>629.2</ele>
        <time>2021-06-01T09:56:39Z</time>
      </trkpt>
      <trkpt lat="45.71872" lon="6.51172">
        <ele>629.4</ele>
        <time>2021-06-01T09:56:40Z</time>
      </trkpt>
      <trkpt lat="45.71876" lon="6.51183">
        <ele>629.8</ele>
        <time>2021-06-01T09:56:41Z</time>
      </trkpt>
      <trkpt lat="45.7188" lon="6.51195">
        <ele>630</ele>
        <time>2021-06-01T09:56:42Z</time>
      </trkpt>
      <trkpt lat="45.71884" lon="6.51207">
        <ele>630</ele>
        <time>2021-06-01T09:56:43Z</time>
      </trkpt>
      <trkpt lat="45.71887" lon="6.51219">
        <ele>630</ele>
        <time>2021-06-01T09:56:44Z</time>
      </trkpt>
      <trkpt lat="45.71891" lon="6.51231">
        <ele>630.2</ele>
        <time>2021-06-01T09:56:45Z</time>
      </trkpt>
      <trkpt lat="45.71895" lon="6.51243">
        <ele>630.4</ele>
        <time>2021-06-01T09:56:46Z</time>
      </trkpt>
      <trkpt lat="45.71899" lon="6.51255">
        <ele>630.6</ele>
        <time>2021-06-01T09:56:47Z</time>
      </trkpt>
      <trkpt lat="45.71902" lon="6.51266">
        <ele>631</ele>
        <time>2021-06-01T09:56:48Z</time>
      </trkpt>
      <trkpt lat="45.71906" lon="6.51278">
        <ele>631.2</ele>
        <time>2021-06-01T09:56:49Z</time>
      </trkpt>
      <trkpt lat="45.71909" lon="6.51289">
        <ele>631.4</ele>
        <time>2021-06-01T09:56:50Z</time>
      </trkpt>
      <trkpt lat="45.71912" lon="6.51301">
        <ele>631.6</ele>
        <time>2021-06-01T09:56:51Z</time>
      </trkpt>
      <trkpt lat="45.71916" lon="6.51312">
        <ele>631.8</ele>
        <time>2021-06-01T09:56:52Z</time>
      </trkpt>
      <trkpt lat="45.7192" lon="6.51324">
        <ele>632</ele>
        <time>2021-06-01T09:56:53Z</time>
      </trkpt>
      <trkpt lat="45.71924" lon="6.51336">
        <ele>632</ele>
        <time>2021-06-01T09:56:54Z</time>
      </trkpt>
      <trkpt lat="45.71926" lon="6.51347">
        <ele>632.2</ele>
        <time>2021-06-01T09:56:55Z</time>
      </trkpt>
      <trkpt lat="45.7193" lon="6.51359">
        <ele>632.4</ele>
        <time>2021-06-01T09:56:56Z</time>
      </trkpt>
      <trkpt lat="45.71934" lon="6.51371">
        <ele>632.6</ele>
        <time>2021-06-01T09:56:57Z</time>
      </trkpt>
      <trkpt lat="45.71938" lon="6.51382">
        <ele>632.8</ele>
        <time>2021-06-01T09:56:58Z</time>
      </trkpt>
      <trkpt lat="45.71941" lon="6.51394">
        <ele>633</ele>
        <time>2021-06-01T09:56:59Z</time>
      </trkpt>
      <trkpt lat="45.71945" lon="6.51405">
        <ele>633.2</ele>
        <time>2021-06-01T09:57:00Z</time>
      </trkpt>
      <trkpt lat="45.71949" lon="6.51417">
        <ele>633.4</ele>
        <time>2021-06-01T09:57:01Z</time>
      </trkpt>
      <trkpt lat="45.71952" lon="6.51428">
        <ele>633.6</ele>
        <time>2021-06-01T09:57:02Z</time>
      </trkpt>
      <trkpt lat="45.71956" lon="6.51439">
        <ele>634</ele>
        <time>2021-06-01T09:57:03Z</time>
      </trkpt>
      <trkpt lat="45.71959" lon="6.51451">
        <ele>634.2</ele>
        <time>2021-06-01T09:57:04Z</time>
      </trkpt>
      <trkpt lat="45.71963" lon="6.51462">
        <ele>634.2</ele>
        <time>2021-06-01T09:57:05Z</time>
      </trkpt>
      <trkpt lat="45.71966" lon="6.51473">
        <ele>634.4</ele>
        <time>2021-06-01T09:57:06Z</time>
      </trkpt>
      <trkpt lat="45.7197" lon="6.51484">
        <ele>634.4</ele>
        <time>2021-06-01T09:57:07Z</time>
      </trkpt>
      <trkpt lat="45.71974" lon="6.51495">
        <ele>634.4</ele>
        <time>2021-06-01T09:57:08Z</time>
      </trkpt>
      <trkpt lat="45.71977" lon="6.51506">
        <ele>635</ele>
        <time>2021-06-01T09:57:09Z</time>
      </trkpt>
      <trkpt lat="45.71981" lon="6.51517">
        <ele>635.4</ele>
        <time>2021-06-01T09:57:10Z</time>
      </trkpt>
      <trkpt lat="45.71984" lon="6.51528">
        <ele>635.4</ele>
        <time>2021-06-01T09:57:11Z</time>
      </trkpt>
      <trkpt lat="45.71987" lon="6.51539">
        <ele>635.4</ele>
        <time>2021-06-01T09:57:12Z</time>
      </trkpt>
      <trkpt lat="45.7199" lon="6.5155">
        <ele>635.4</ele>
        <time>2021-06-01T09:57:13Z</time>
      </trkpt>
      <trkpt lat="45.71993" lon="6.5156">
        <ele>635</ele>
        <time>2021-06-01T09:57:14Z</time>
      </trkpt>
      <trkpt lat="45.71996" lon="6.51571">
        <ele>634.6</ele>
        <time>2021-06-01T09:57:15Z</time>
      </trkpt>
      <trkpt lat="45.71999" lon="6.51581">
        <ele>634.4</ele>
        <time>2021-06-01T09:57:16Z</time>
      </trkpt>
      <trkpt lat="45.72003" lon="6.51592">
        <ele>634.4</ele>
        <time>2021-06-01T09:57:17Z</time>
      </trkpt>
      <trkpt lat="45.72005" lon="6.51603">
        <ele>634.4</ele>
        <time>2021-06-01T09:57:18Z</time>
      </trkpt>
      <trkpt lat="45.72008" lon="6.51614">
        <ele>634</ele>
        <time>2021-06-01T09:57:19Z</time>
      </trkpt>
      <trkpt lat="45.7201" lon="6.51625">
        <ele>633.8</ele>
        <time>2021-06-01T09:57:20Z</time>
      </trkpt>
      <trkpt lat="45.72011" lon="6.51636">
        <ele>633.6</ele>
        <time>2021-06-01T09:57:21Z</time>
      </trkpt>
      <trkpt lat="45.72013" lon="6.51647">
        <ele>633.6</ele>
        <time>2021-06-01T09:57:22Z</time>
      </trkpt>
      <trkpt lat="45.72015" lon="6.51659">
        <ele>633.4</ele>
        <time>2021-06-01T09:57:23Z</time>
      </trkpt>
      <trkpt lat="45.72015" lon="6.5167">
        <ele>633.2</ele>
        <time>2021-06-01T09:57:24Z</time>
      </trkpt>
      <trkpt lat="45.72016" lon="6.51682">
        <ele>633</ele>
        <time>2021-06-01T09:57:25Z</time>
      </trkpt>
      <trkpt lat="45.72017" lon="6.51693">
        <ele>632.8</ele>
        <time>2021-06-01T09:57:26Z</time>
      </trkpt>
      <trkpt lat="45.72017" lon="6.51705">
        <ele>632.6</ele>
        <time>2021-06-01T09:57:27Z</time>
      </trkpt>
      <trkpt lat="45.72017" lon="6.51716">
        <ele>632.4</ele>
        <time>2021-06-01T09:57:28Z</time>
      </trkpt>
      <trkpt lat="45.72017" lon="6.51727">
        <ele>632</ele>
        <time>2021-06-01T09:57:29Z</time>
      </trkpt>
      <trkpt lat="45.72016" lon="6.51739">
        <ele>631.8</ele>
        <time>2021-06-01T09:57:30Z</time>
      </trkpt>
      <trkpt lat="45.72015" lon="6.5175">
        <ele>631.6</ele>
        <time>2021-06-01T09:57:31Z</time>
      </trkpt>
      <trkpt lat="45.72015" lon="6.51762">
        <ele>631.4</ele>
        <time>2021-06-01T09:57:32Z</time>
      </trkpt>
      <trkpt lat="45.72015" lon="6.51774">
        <ele>631.4</ele>
        <time>2021-06-01T09:57:33Z</time>
      </trkpt>
      <trkpt lat="45.72015" lon="6.51785">
        <ele>631.4</ele>
        <time>2021-06-01T09:57:34Z</time>
      </trkpt>
      <trkpt lat="45.72014" lon="6.51797">
        <ele>631.4</ele>
        <time>2021-06-01T09:57:35Z</time>
      </trkpt>
      <trkpt lat="45.72013" lon="6.51808">
        <ele>631.6</ele>
        <time>2021-06-01T09:57:36Z</time>
      </trkpt>
      <trkpt lat="45.72013" lon="6.5182">
        <ele>631.8</ele>
        <time>2021-06-01T09:57:37Z</time>
      </trkpt>
      <trkpt lat="45.72012" lon="6.5183">
        <ele>631.6</ele>
        <time>2021-06-01T09:57:38Z</time>
      </trkpt>
      <trkpt lat="45.72011" lon="6.51841">
        <ele>632.2</ele>
        <time>2021-06-01T09:57:39Z</time>
      </trkpt>
      <trkpt lat="45.72011" lon="6.51852">
        <ele>632.8</ele>
        <time>2021-06-01T09:57:40Z</time>
      </trkpt>
      <trkpt lat="45.7201" lon="6.51863">
        <ele>633.4</ele>
        <time>2021-06-01T09:57:41Z</time>
      </trkpt>
      <trkpt lat="45.7201" lon="6.51873">
        <ele>633.8</ele>
        <time>2021-06-01T09:57:42Z</time>
      </trkpt>
      <trkpt lat="45.72009" lon="6.51885">
        <ele>634</ele>
        <time>2021-06-01T09:57:43Z</time>
      </trkpt>
      <trkpt lat="45.72009" lon="6.51896">
        <ele>634.2</ele>
        <time>2021-06-01T09:57:44Z</time>
      </trkpt>
      <trkpt lat="45.72008" lon="6.51906">
        <ele>634.2</ele>
        <time>2021-06-01T09:57:45Z</time>
      </trkpt>
      <trkpt lat="45.72007" lon="6.51917">
        <ele>634.2</ele>
        <time>2021-06-01T09:57:46Z</time>
      </trkpt>
      <trkpt lat="45.72007" lon="6.51928">
        <ele>634.2</ele>
        <time>2021-06-01T09:57:47Z</time>
      </trkpt>
      <trkpt lat="45.72007" lon="6.51939">
        <ele>634</ele>
        <time>2021-06-01T09:57:48Z</time>
      </trkpt>
      <trkpt lat="45.72007" lon="6.5195">
        <ele>634</ele>
        <time>2021-06-01T09:57:49Z</time>
      </trkpt>
      <trkpt lat="45.72007" lon="6.51962">
        <ele>634</ele>
        <time>2021-06-01T09:57:50Z</time>
      </trkpt>
      <trkpt lat="45.72008" lon="6.51973">
        <ele>633.8</ele>
        <time>2021-06-01T09:57:51Z</time>
      </trkpt>
      <trkpt lat="45.72009" lon="6.51985">
        <ele>633.8</ele>
        <time>2021-06-01T09:57:52Z</time>
      </trkpt>
      <trkpt lat="45.72011" lon="6.51996">
        <ele>633.8</ele>
        <time>2021-06-01T09:57:53Z</time>
      </trkpt>
      <trkpt lat="45.72012" lon="6.52006">
        <ele>633.8</ele>
        <time>2021-06-01T09:57:54Z</time>
      </trkpt>
      <trkpt lat="45.72013" lon="6.52017">
        <ele>633.6</ele>
        <time>2021-06-01T09:57:55Z</time>
      </trkpt>
      <trkpt lat="45.72015" lon="6.52027">
        <ele>633.2</ele>
        <time>2021-06-01T09:57:56Z</time>
      </trkpt>
      <trkpt lat="45.72018" lon="6.52037">
        <ele>633</ele>
        <time>2021-06-01T09:57:57Z</time>
      </trkpt>
      <trkpt lat="45.72021" lon="6.52047">
        <ele>632.8</ele>
        <time>2021-06-01T09:57:58Z</time>
      </trkpt>
      <trkpt lat="45.72025" lon="6.52057">
        <ele>632.6</ele>
        <time>2021-06-01T09:57:59Z</time>
      </trkpt>
      <trkpt lat="45.72028" lon="6.52067">
        <ele>632.4</ele>
        <time>2021-06-01T09:58:00Z</time>
      </trkpt>
      <trkpt lat="45.72033" lon="6.52076">
        <ele>632.4</ele>
        <time>2021-06-01T09:58:01Z</time>
      </trkpt>
      <trkpt lat="45.72037" lon="6.52085">
        <ele>632.2</ele>
        <time>2021-06-01T09:58:02Z</time>
      </trkpt>
      <trkpt lat="45.72042" lon="6.52094">
        <ele>632.2</ele>
        <time>2021-06-01T09:58:03Z</time>
      </trkpt>
      <trkpt lat="45.72047" lon="6.52102">
        <ele>632.2</ele>
        <time>2021-06-01T09:58:04Z</time>
      </trkpt>
      <trkpt lat="45.72052" lon="6.5211">
        <ele>632.4</ele>
        <time>2021-06-01T09:58:05Z</time>
      </trkpt>
      <trkpt lat="45.72057" lon="6.52117">
        <ele>632.2</ele>
        <time>2021-06-01T09:58:06Z</time>
      </trkpt>
      <trkpt lat="45.72063" lon="6.52125">
        <ele>632</ele>
        <time>2021-06-01T09:58:07Z</time>
      </trkpt>
      <trkpt lat="45.72068" lon="6.52133">
        <ele>632</ele>
        <time>2021-06-01T09:58:08Z</time>
      </trkpt>
      <trkpt lat="45.72074" lon="6.52141">
        <ele>632</ele>
        <time>2021-06-01T09:58:09Z</time>
      </trkpt>
      <trkpt lat="45.7208" lon="6.52149">
        <ele>632.4</ele>
        <time>2021-06-01T09:58:10Z</time>
      </trkpt>
      <trkpt lat="45.72085" lon="6.52156">
        <ele>632.6</ele>
        <time>2021-06-01T09:58:11Z</time>
      </trkpt>
      <trkpt lat="45.72091" lon="6.52163">
        <ele>633</ele>
        <time>2021-06-01T09:58:12Z</time>
      </trkpt>
      <trkpt lat="45.72098" lon="6.52169">
        <ele>633.6</ele>
        <time>2021-06-01T09:58:13Z</time>
      </trkpt>
      <trkpt lat="45.72103" lon="6.52175">
        <ele>633.8</ele>
        <time>2021-06-01T09:58:14Z</time>
      </trkpt>
      <trkpt lat="45.7211" lon="6.52179">
        <ele>634.2</ele>
        <time>2021-06-01T09:58:15Z</time>
      </trkpt>
      <trkpt lat="45.72116" lon="6.52184">
        <ele>634.6</ele>
        <time>2021-06-01T09:58:16Z</time>
      </trkpt>
      <trkpt lat="45.72122" lon="6.52187">
        <ele>635.2</ele>
        <time>2021-06-01T09:58:17Z</time>
      </trkpt>
      <trkpt lat="45.7213" lon="6.52189">
        <ele>635.8</ele>
        <time>2021-06-01T09:58:18Z</time>
      </trkpt>
      <trkpt lat="45.72137" lon="6.5219">
        <ele>636.6</ele>
        <time>2021-06-01T09:58:19Z</time>
      </trkpt>
      <trkpt lat="45.72143" lon="6.52188">
        <ele>637.6</ele>
        <time>2021-06-01T09:58:20Z</time>
      </trkpt>
      <trkpt lat="45.72149" lon="6.52187">
        <ele>638.8</ele>
        <time>2021-06-01T09:58:21Z</time>
      </trkpt>
      <trkpt lat="45.72156" lon="6.52184">
        <ele>639.6</ele>
        <time>2021-06-01T09:58:22Z</time>
      </trkpt>
      <trkpt lat="45.72163" lon="6.52181">
        <ele>640.4</ele>
        <time>2021-06-01T09:58:23Z</time>
      </trkpt>
      <trkpt lat="45.7217" lon="6.52178">
        <ele>641</ele>
        <time>2021-06-01T09:58:24Z</time>
      </trkpt>
      <trkpt lat="45.72176" lon="6.52176">
        <ele>641.8</ele>
        <time>2021-06-01T09:58:25Z</time>
      </trkpt>
      <trkpt lat="45.72183" lon="6.52175">
        <ele>642.2</ele>
        <time>2021-06-01T09:58:26Z</time>
      </trkpt>
      <trkpt lat="45.72189" lon="6.52173">
        <ele>642.8</ele>
        <time>2021-06-01T09:58:27Z</time>
      </trkpt>
      <trkpt lat="45.72196" lon="6.52173">
        <ele>643.8</ele>
        <time>2021-06-01T09:58:28Z</time>
      </trkpt>
      <trkpt lat="45.72202" lon="6.52173">
        <ele>644.6</ele>
        <time>2021-06-01T09:58:29Z</time>
      </trkpt>
      <trkpt lat="45.72209" lon="6.52174">
        <ele>645</ele>
        <time>2021-06-01T09:58:30Z</time>
      </trkpt>
      <trkpt lat="45.72215" lon="6.52176">
        <ele>645.6</ele>
        <time>2021-06-01T09:58:31Z</time>
      </trkpt>
      <trkpt lat="45.72221" lon="6.52178">
        <ele>646.2</ele>
        <time>2021-06-01T09:58:32Z</time>
      </trkpt>
      <trkpt lat="45.72226" lon="6.52182">
        <ele>646.8</ele>
        <time>2021-06-01T09:58:33Z</time>
      </trkpt>
      <trkpt lat="45.72232" lon="6.52187">
        <ele>647.4</ele>
        <time>2021-06-01T09:58:34Z</time>
      </trkpt>
      <trkpt lat="45.72238" lon="6.52192">
        <ele>647.8</ele>
        <time>2021-06-01T09:58:35Z</time>
      </trkpt>
      <trkpt lat="45.72243" lon="6.52197">
        <ele>648.2</ele>
        <time>2021-06-01T09:58:36Z</time>
      </trkpt>
      <trkpt lat="45.72248" lon="6.52203">
        <ele>648.4</ele>
        <time>2021-06-01T09:58:37Z</time>
      </trkpt>
      <trkpt lat="45.72253" lon="6.52209">
        <ele>648.4</ele>
        <time>2021-06-01T09:58:38Z</time>
      </trkpt>
      <trkpt lat="45.72258" lon="6.52214">
        <ele>648.4</ele>
        <time>2021-06-01T09:58:39Z</time>
      </trkpt>
      <trkpt lat="45.72263" lon="6.52221">
        <ele>648.2</ele>
        <time>2021-06-01T09:58:40Z</time>
      </trkpt>
      <trkpt lat="45.72268" lon="6.52227">
        <ele>648.2</ele>
        <time>2021-06-01T09:58:41Z</time>
      </trkpt>
      <trkpt lat="45.72273" lon="6.52234">
        <ele>648</ele>
        <time>2021-06-01T09:58:42Z</time>
      </trkpt>
      <trkpt lat="45.72277" lon="6.5224">
        <ele>648</ele>
        <time>2021-06-01T09:58:43Z</time>
      </trkpt>
      <trkpt lat="45.72283" lon="6.52246">
        <ele>648</ele>
        <time>2021-06-01T09:58:44Z</time>
      </trkpt>
      <trkpt lat="45.72287" lon="6.52252">
        <ele>648.2</ele>
        <time>2021-06-01T09:58:45Z</time>
      </trkpt>
      <trkpt lat="45.72291" lon="6.52259">
        <ele>648.2</ele>
        <time>2021-06-01T09:58:46Z</time>
      </trkpt>
      <trkpt lat="45.72296" lon="6.52266">
        <ele>648.2</ele>
        <time>2021-06-01T09:58:47Z</time>
      </trkpt>
      <trkpt lat="45.723" lon="6.52273">
        <ele>648.4</ele>
        <time>2021-06-01T09:58:48Z</time>
      </trkpt>
      <trkpt lat="45.72305" lon="6.5228">
        <ele>648.4</ele>
        <time>2021-06-01T09:58:49Z</time>
      </trkpt>
      <trkpt lat="45.72309" lon="6.52287">
        <ele>648.8</ele>
        <time>2021-06-01T09:58:50Z</time>
      </trkpt>
      <trkpt lat="45.72313" lon="6.52295">
        <ele>649</ele>
        <time>2021-06-01T09:58:51Z</time>
      </trkpt>
      <trkpt lat="45.72316" lon="6.52303">
        <ele>649</ele>
        <time>2021-06-01T09:58:52Z</time>
      </trkpt>
      <trkpt lat="45.7232" lon="6.5231">
        <ele>648.8</ele>
        <time>2021-06-01T09:58:53Z</time>
      </trkpt>
      <trkpt lat="45.72324" lon="6.52318">
        <ele>648.8</ele>
        <time>2021-06-01T09:58:54Z</time>
      </trkpt>
      <trkpt lat="45.72327" lon="6.52326">
        <ele>648.8</ele>
        <time>2021-06-01T09:58:55Z</time>
      </trkpt>
      <trkpt lat="45.72331" lon="6.52334">
        <ele>649.2</ele>
        <time>2021-06-01T09:58:56Z</time>
      </trkpt>
      <trkpt lat="45.72335" lon="6.52341">
        <ele>649.2</ele>
        <time>2021-06-01T09:58:57Z</time>
      </trkpt>
      <trkpt lat="45.72338" lon="6.52349">
        <ele>649.4</ele>
        <time>2021-06-01T09:58:58Z</time>
      </trkpt>
      <trkpt lat="45.72342" lon="6.52357">
        <ele>649.4</ele>
        <time>2021-06-01T09:58:59Z</time>
      </trkpt>
      <trkpt lat="45.72346" lon="6.52365">
        <ele>649</ele>
        <time>2021-06-01T09:59:00Z</time>
      </trkpt>
      <trkpt lat="45.72349" lon="6.52373">
        <ele>649.4</ele>
        <time>2021-06-01T09:59:01Z</time>
      </trkpt>
      <trkpt lat="45.72353" lon="6.5238">
        <ele>649.8</ele>
        <time>2021-06-01T09:59:02Z</time>
      </trkpt>
      <trkpt lat="45.72356" lon="6.52387">
        <ele>649.8</ele>
        <time>2021-06-01T09:59:03Z</time>
      </trkpt>
      <trkpt lat="45.72359" lon="6.52395">
        <ele>650</ele>
        <time>2021-06-01T09:59:04Z</time>
      </trkpt>
      <trkpt lat="45.72363" lon="6.52401">
        <ele>650</ele>
        <time>2021-06-01T09:59:05Z</time>
      </trkpt>
      <trkpt lat="45.72365" lon="6.52408">
        <ele>650.2</ele>
        <time>2021-06-01T09:59:06Z</time>
      </trkpt>
      <trkpt lat="45.72368" lon="6.52415">
        <ele>650.4</ele>
        <time>2021-06-01T09:59:07Z</time>
      </trkpt>
      <trkpt lat="45.72371" lon="6.52421">
        <ele>650.8</ele>
        <time>2021-06-01T09:59:08Z</time>
      </trkpt>
      <trkpt lat="45.72373" lon="6.52427">
        <ele>651.2</ele>
        <time>2021-06-01T09:59:09Z</time>
      </trkpt>
      <trkpt lat="45.72376" lon="6.52434">
        <ele>652</ele>
        <time>2021-06-01T09:59:10Z</time>
      </trkpt>
      <trkpt lat="45.72379" lon="6.52441">
        <ele>652.6</ele>
        <time>2021-06-01T09:59:11Z</time>
      </trkpt>
      <trkpt lat="45.72382" lon="6.52447">
        <ele>653.4</ele>
        <time>2021-06-01T09:59:12Z</time>
      </trkpt>
      <trkpt lat="45.72385" lon="6.52454">
        <ele>654.2</ele>
        <time>2021-06-01T09:59:13Z</time>
      </trkpt>
      <trkpt lat="45.72388" lon="6.52461">
        <ele>654.8</ele>
        <time>2021-06-01T09:59:14Z</time>
      </trkpt>
      <trkpt lat="45.72391" lon="6.52467">
        <ele>655.4</ele>
        <time>2021-06-01T09:59:15Z</time>
      </trkpt>
      <trkpt lat="45.72393" lon="6.52473">
        <ele>656</ele>
        <time>2021-06-01T09:59:16Z</time>
      </trkpt>
      <trkpt lat="45.72396" lon="6.5248">
        <ele>656.8</ele>
        <time>2021-06-01T09:59:17Z</time>
      </trkpt>
      <trkpt lat="45.72399" lon="6.52486">
        <ele>657.4</ele>
        <time>2021-06-01T09:59:18Z</time>
      </trkpt>
      <trkpt lat="45.72402" lon="6.52493">
        <ele>658</ele>
        <time>2021-06-01T09:59:19Z</time>
      </trkpt>
      <trkpt lat="45.72405" lon="6.52499">
        <ele>658.6</ele>
        <time>2021-06-01T09:59:20Z</time>
      </trkpt>
      <trkpt lat="45.72407" lon="6.52505">
        <ele>658.8</ele>
        <time>2021-06-01T09:59:21Z</time>
      </trkpt>
      <trkpt lat="45.7241" lon="6.52512">
        <ele>659.4</ele>
        <time>2021-06-01T09:59:22Z</time>
      </trkpt>
      <trkpt lat="45.72412" lon="6.52518">
        <ele>660</ele>
        <time>2021-06-01T09:59:23Z</time>
      </trkpt>
      <trkpt lat="45.72414" lon="6.52524">
        <ele>660.6</ele>
        <time>2021-06-01T09:59:24Z</time>
      </trkpt>
      <trkpt lat="45.72416" lon="6.52531">
        <ele>660.6</ele>
        <time>2021-06-01T09:59:25Z</time>
      </trkpt>
      <trkpt lat="45.72418" lon="6.52538">
        <ele>661</ele>
        <time>2021-06-01T09:59:26Z</time>
      </trkpt>
      <trkpt lat="45.7242" lon="6.52545">
        <ele>661.6</ele>
        <time>2021-06-01T09:59:27Z</time>
      </trkpt>
      <trkpt lat="45.72422" lon="6.52552">
        <ele>662</ele>
        <time>2021-06-01T09:59:28Z</time>
      </trkpt>
      <trkpt lat="45.72424" lon="6.52559">
        <ele>662.4</ele>
        <time>2021-06-01T09:59:29Z</time>
      </trkpt>
      <trkpt lat="45.72426" lon="6.52566">
        <ele>662.6</ele>
        <time>2021-06-01T09:59:30Z</time>
      </trkpt>
      <trkpt lat="45.72427" lon="6.52573">
        <ele>663</ele>
        <time>2021-06-01T09:59:31Z</time>
      </trkpt>
      <trkpt lat="45.72429" lon="6.52581">
        <ele>663</ele>
        <time>2021-06-01T09:59:32Z</time>
      </trkpt>
      <trkpt lat="45.7243" lon="6.52589">
        <ele>663.2</ele>
        <time>2021-06-01T09:59:33Z</time>
      </trkpt>
      <trkpt lat="45.72432" lon="6.52598">
        <ele>663.2</ele>
        <time>2021-06-01T09:59:34Z</time>
      </trkpt>
      <trkpt lat="45.72434" lon="6.52606">
        <ele>663.2</ele>
        <time>2021-06-01T09:59:35Z</time>
      </trkpt>
      <trkpt lat="45.72435" lon="6.52614">
        <ele>663.2</ele>
        <time>2021-06-01T09:59:36Z</time>
      </trkpt>
      <trkpt lat="45.72436" lon="6.52622">
        <ele>663.2</ele>
        <time>2021-06-01T09:59:37Z</time>
      </trkpt>
      <trkpt lat="45.72436" lon="6.5263">
        <ele>663.2</ele>
        <time>2021-06-01T09:59:38Z</time>
      </trkpt>
      <trkpt lat="45.72438" lon="6.52638">
        <ele>663.4</ele>
        <time>2021-06-01T09:59:39Z</time>
      </trkpt>
      <trkpt lat="45.72439" lon="6.52645">
        <ele>663.6</ele>
        <time>2021-06-01T09:59:40Z</time>
      </trkpt>
      <trkpt lat="45.7244" lon="6.52652">
        <ele>663.8</ele>
        <time>2021-06-01T09:59:41Z</time>
      </trkpt>
      <trkpt lat="45.72441" lon="6.5266">
        <ele>663.8</ele>
        <time>2021-06-01T09:59:42Z</time>
      </trkpt>
      <trkpt lat="45.72442" lon="6.52667">
        <ele>664.2</ele>
        <time>2021-06-01T09:59:43Z</time>
      </trkpt>
      <trkpt lat="45.72443" lon="6.52674">
        <ele>664.2</ele>
        <time>2021-06-01T09:59:44Z</time>
      </trkpt>
      <trkpt lat="45.72444" lon="6.52681">
        <ele>664.2</ele>
        <time>2021-06-01T09:59:45Z</time>
      </trkpt>
      <trkpt lat="45.72445" lon="6.52688">
        <ele>663.8</ele>
        <time>2021-06-01T09:59:46Z</time>
      </trkpt>
      <trkpt lat="45.72446" lon="6.52696">
        <ele>664</ele>
        <time>2021-06-01T09:59:47Z</time>
      </trkpt>
      <trkpt lat="45.72448" lon="6.52703">
        <ele>664.2</ele>
        <time>2021-06-01T09:59:48Z</time>
      </trkpt>
      <trkpt lat="45.7245" lon="6.5271">
        <ele>664.8</ele>
        <time>2021-06-01T09:59:49Z</time>
      </trkpt>
      <trkpt lat="45.72452" lon="6.52717">
        <ele>665</ele>
        <time>2021-06-01T09:59:50Z</time>
      </trkpt>
      <trkpt lat="45.72454" lon="6.52724">
        <ele>665</ele>
        <time>2021-06-01T09:59:51Z</time>
      </trkpt>
      <trkpt lat="45.72456" lon="6.52731">
        <ele>665.2</ele>
        <time>2021-06-01T09:59:52Z</time>
      </trkpt>
      <trkpt lat="45.72458" lon="6.52738">
        <ele>665</ele>
        <time>2021-06-01T09:59:53Z</time>
      </trkpt>
      <trkpt lat="45.7246" lon="6.52745">
        <ele>665.2</ele>
        <time>2021-06-01T09:59:54Z</time>
      </trkpt>
      <trkpt lat="45.72462" lon="6.52752">
        <ele>665.6</ele>
        <time>2021-06-01T09:59:55Z</time>
      </trkpt>
      <trkpt lat="45.72465" lon="6.52759">
        <ele>665.8</ele>
        <time>2021-06-01T09:59:56Z</time>
      </trkpt>
      <trkpt lat="45.72468" lon="6.52766">
        <ele>665.8</ele>
        <time>2021-06-01T09:59:57Z</time>
      </trkpt>
      <trkpt lat="45.72471" lon="6.52773">
        <ele>665.8</ele>
        <time>2021-06-01T09:59:58Z</time>
      </trkpt>
      <trkpt lat="45.72473" lon="6.5278">
        <ele>666.2</ele>
        <time>2021-06-01T09:59:59Z</time>
      </trkpt>
      <trkpt lat="45.72476" lon="6.52787">
        <ele>666.2</ele>
        <time>2021-06-01T10:00:00Z</time>
      </trkpt>
      <trkpt lat="45.72478" lon="6.52794">
        <ele>666.6</ele>
        <time>2021-06-01T10:00:01Z</time>
      </trkpt>
      <trkpt lat="45.72481" lon="6.52801">
        <ele>667</ele>
        <time>2021-06-01T10:00:02Z</time>
      </trkpt>
      <trkpt lat="45.72484" lon="6.52808">
        <ele>667</ele>
        <time>2021-06-01T10:00:03Z</time>
      </trkpt>
      <trkpt lat="45.72486" lon="6.52816">
        <ele>667</ele>
        <time>2021-06-01T10:00:04Z</time>
      </trkpt>
      <trkpt lat="45.72489" lon="6.52823">
        <ele>667.2</ele>
        <time>2021-06-01T10:00:05Z</time>
      </trkpt>
      <trkpt lat="45.72491" lon="6.5283">
        <ele>667.6</ele>
        <time>2021-06-01T10:00:06Z</time>
      </trkpt>
      <trkpt lat="45.72494" lon="6.52838">
        <ele>667.8</ele>
        <time>2021-06-01T10:00:07Z</time>
      </trkpt>
      <trkpt lat="45.72497" lon="6.52845">
        <ele>667.8</ele>
        <time>2021-06-01T10:00:08Z</time>
      </trkpt>
      <trkpt lat="45.725" lon="6.52852">
        <ele>667.8</ele>
        <time>2021-06-01T10:00:09Z</time>
      </trkpt>
      <trkpt lat="45.72503" lon="6.52859">
        <ele>667.8</ele>
        <time>2021-06-01T10:00:10Z</time>
      </trkpt>
      <trkpt lat="45.72506" lon="6.52866">
        <ele>667.6</ele>
        <time>2021-06-01T10:00:11Z</time>
      </trkpt>
      <trkpt lat="45.7251" lon="6.52873">
        <ele>667.6</ele>
        <time>2021-06-01T10:00:12Z</time>
      </trkpt>
      <trkpt lat="45.72513" lon="6.5288">
        <ele>667.6</ele>
        <time>2021-06-01T10:00:13Z</time>
      </trkpt>
      <trkpt lat="45.72516" lon="6.52888">
        <ele>667.6</ele>
        <time>2021-06-01T10:00:14Z</time>
      </trkpt>
      <trkpt lat="45.72519" lon="6.52895">
        <ele>668</ele>
        <time>2021-06-01T10:00:15Z</time>
      </trkpt>
      <trkpt lat="45.72522" lon="6.52903">
        <ele>668.4</ele>
        <time>2021-06-01T10:00:16Z</time>
      </trkpt>
      <trkpt lat="45.72525" lon="6.5291">
        <ele>668.8</ele>
        <time>2021-06-01T10:00:17Z</time>
      </trkpt>
      <trkpt lat="45.72529" lon="6.52918">
        <ele>669.2</ele>
        <time>2021-06-01T10:00:18Z</time>
      </trkpt>
      <trkpt lat="45.72533" lon="6.52925">
        <ele>669.6</ele>
        <time>2021-06-01T10:00:19Z</time>
      </trkpt>
      <trkpt lat="45.72536" lon="6.52933">
        <ele>670</ele>
        <time>2021-06-01T10:00:20Z</time>
      </trkpt>
      <trkpt lat="45.72539" lon="6.5294">
        <ele>670.4</ele>
        <time>2021-06-01T10:00:21Z</time>
      </trkpt>
      <trkpt lat="45.72543" lon="6.52947">
        <ele>670.8</ele>
        <time>2021-06-01T10:00:22Z</time>
      </trkpt>
      <trkpt lat="45.72547" lon="6.52954">
        <ele>671.2</ele>
        <time>2021-06-01T10:00:23Z</time>
      </trkpt>
      <trkpt lat="45.72551" lon="6.52961">
        <ele>671.4</ele>
        <time>2021-06-01T10:00:24Z</time>
      </trkpt>
      <trkpt lat="45.72554" lon="6.52969">
        <ele>671.8</ele>
        <time>2021-06-01T10:00:25Z</time>
      </trkpt>
      <trkpt lat="45.72558" lon="6.52976">
        <ele>671.8</ele>
        <time>2021-06-01T10:00:26Z</time>
      </trkpt>
      <trkpt lat="45.72562" lon="6.52982">
        <ele>672.6</ele>
        <time>2021-06-01T10:00:27Z</time>
      </trkpt>
      <trkpt lat="45.72566" lon="6.52989">
        <ele>673.4</ele>
        <time>2021-06-01T10:00:28Z</time>
      </trkpt>
      <trkpt lat="45.72571" lon="6.52996">
        <ele>673.8</ele>
        <time>2021-06-01T10:00:29Z</time>
      </trkpt>
      <trkpt lat="45.72575" lon="6.53003">
        <ele>674.4</ele>
        <time>2021-06-01T10:00:30Z</time>
      </trkpt>
      <trkpt lat="45.72579" lon="6.53011">
        <ele>675</ele>
        <time>2021-06-01T10:00:31Z</time>
      </trkpt>
      <trkpt lat="45.72583" lon="6.53018">
        <ele>675.4</ele>
        <time>2021-06-01T10:00:32Z</time>
      </trkpt>
      <trkpt lat="45.72587" lon="6.53025">
        <ele>676</ele>
        <time>2021-06-01T10:00:33Z</time>
      </trkpt>
      <trkpt lat="45.7259" lon="6.53032">
        <ele>676.6</ele>
        <time>2021-06-01T10:00:34Z</time>
      </trkpt>
      <trkpt lat="45.72593" lon="6.5304">
        <ele>677.2</ele>
        <time>2021-06-01T10:00:35Z</time>
      </trkpt>
      <trkpt lat="45.72596" lon="6.53047">
        <ele>677.8</ele>
        <time>2021-06-01T10:00:36Z</time>
      </trkpt>
      <trkpt lat="45.72599" lon="6.53055">
        <ele>678.2</ele>
        <time>2021-06-01T10:00:37Z</time>
      </trkpt>
      <trkpt lat="45.72602" lon="6.53063">
        <ele>678.4</ele>
        <time>2021-06-01T10:00:38Z</time>
      </trkpt>
      <trkpt lat="45.72604" lon="6.53071">
        <ele>678.4</ele>
        <time>2021-06-01T10:00:39Z</time>
      </trkpt>
      <trkpt lat="45.72607" lon="6.53079">
        <ele>678.2</ele>
        <time>2021-06-01T10:00:40Z</time>
      </trkpt>
      <trkpt lat="45.72609" lon="6.53087">
        <ele>678.8</ele>
        <time>2021-06-01T10:00:41Z</time>
      </trkpt>
      <trkpt lat="45.72612" lon="6.53095">
        <ele>678.6</ele>
        <time>2021-06-01T10:00:42Z</time>
      </trkpt>
      <trkpt lat="45.72615" lon="6.53102">
        <ele>678.6</ele>
        <time>2021-06-01T10:00:43Z</time>
      </trkpt>
      <trkpt lat="45.72618" lon="6.5311">
        <ele>678.8</ele>
        <time>2021-06-01T10:00:44Z</time>
      </trkpt>
      <trkpt lat="45.72621" lon="6.53117">
        <ele>679</ele>
        <time>2021-06-01T10:00:45Z</time>
      </trkpt>
      <trkpt lat="45.72624" lon="6.53124">
        <ele>679.2</ele>
        <time>2021-06-01T10:00:46Z</time>
      </trkpt>
      <trkpt lat="45.72627" lon="6.53131">
        <ele>679.6</ele>
        <time>2021-06-01T10:00:47Z</time>
      </trkpt>
      <trkpt lat="45.72631" lon="6.53138">
        <ele>680</ele>
        <time>2021-06-01T10:00:48Z</time>
      </trkpt>
      <trkpt lat="45.72635" lon="6.53145">
        <ele>680.6</ele>
        <time>2021-06-01T10:00:49Z</time>
      </trkpt>
      <trkpt lat="45.72638" lon="6.53152">
        <ele>681</ele>
        <time>2021-06-01T10:00:50Z</time>
      </trkpt>
      <trkpt lat="45.72643" lon="6.53158">
        <ele>681</ele>
        <time>2021-06-01T10:00:51Z</time>
      </trkpt>
      <trkpt lat="45.72647" lon="6.53165">
        <ele>681.4</ele>
        <time>2021-06-01T10:00:52Z</time>
      </trkpt>
      <trkpt lat="45.72651" lon="6.53172">
        <ele>681.6</ele>
        <time>2021-06-01T10:00:53Z</time>
      </trkpt>
      <trkpt lat="45.72655" lon="6.53178">
        <ele>681.8</ele>
        <time>2021-06-01T10:00:54Z</time>
      </trkpt>
      <trkpt lat="45.72659" lon="6.53185">
        <ele>682</ele>
        <time>2021-06-01T10:00:55Z</time>
      </trkpt>
      <trkpt lat="45.72663" lon="6.53192">
        <ele>682.2</ele>
        <time>2021-06-01T10:00:56Z</time>
      </trkpt>
      <trkpt lat="45.72667" lon="6.53199">
        <ele>682.2</ele>
        <time>2021-06-01T10:00:57Z</time>
      </trkpt>
      <trkpt lat="45.7267" lon="6.53207">
        <ele>682.6</ele>
        <time>2021-06-01T10:00:58Z</time>
      </trkpt>
      <trkpt lat="45.72674" lon="6.53214">
        <ele>682.6</ele>
        <time>2021-06-01T10:00:59Z</time>
      </trkpt>
      <trkpt lat="45.72677" lon="6.53222">
        <ele>682.8</ele>
        <time>2021-06-01T10:01:00Z</time>
      </trkpt>
      <trkpt lat="45.72679" lon="6.53231">
        <ele>683.4</ele>
        <time>2021-06-01T10:01:01Z</time>
      </trkpt>
      <trkpt lat="45.72682" lon="6.53239">
        <ele>683.6</ele>
        <time>2021-06-01T10:01:02Z</time>
      </trkpt>
      <trkpt lat="45.72684" lon="6.53248">
        <ele>683.4</ele>
        <time>2021-06-01T10:01:03Z</time>
      </trkpt>
      <trkpt lat="45.72686" lon="6.53257">
        <ele>683.2</ele>
        <time>2021-06-01T10:01:04Z</time>
      </trkpt>
      <trkpt lat="45.72688" lon="6.53266">
        <ele>683</ele>
        <time>2021-06-01T10:01:05Z</time>
      </trkpt>
      <trkpt lat="45.72689" lon="6.53275">
        <ele>682.4</ele>
        <time>2021-06-01T10:01:06Z</time>
      </trkpt>
      <trkpt lat="45.72691" lon="6.53284">
        <ele>682</ele>
        <time>2021-06-01T10:01:07Z</time>
      </trkpt>
      <trkpt lat="45.72691" lon="6.53293">
        <ele>681.8</ele>
        <time>2021-06-01T10:01:08Z</time>
      </trkpt>
      <trkpt lat="45.72692" lon="6.53302">
        <ele>681.6</ele>
        <time>2021-06-01T10:01:09Z</time>
      </trkpt>
      <trkpt lat="45.72692" lon="6.53311">
        <ele>681.4</ele>
        <time>2021-06-01T10:01:10Z</time>
      </trkpt>
      <trkpt lat="45.72692" lon="6.5332">
        <ele>681.2</ele>
        <time>2021-06-01T10:01:11Z</time>
      </trkpt>
      <trkpt lat="45.72692" lon="6.53328">
        <ele>681</ele>
        <time>2021-06-01T10:01:12Z</time>
      </trkpt>
      <trkpt lat="45.72691" lon="6.53337">
        <ele>681</ele>
        <time>2021-06-01T10:01:13Z</time>
      </trkpt>
      <trkpt lat="45.7269" lon="6.53346">
        <ele>680.6</ele>
        <time>2021-06-01T10:01:14Z</time>
      </trkpt>
      <trkpt lat="45.72689" lon="6.53355">
        <ele>680.4</ele>
        <time>2021-06-01T10:01:15Z</time>
      </trkpt>
      <trkpt lat="45.72688" lon="6.53364">
        <ele>680.2</ele>
        <time>2021-06-01T10:01:16Z</time>
      </trkpt>
      <trkpt lat="45.72686" lon="6.53373">
        <ele>680</ele>
        <time>2021-06-01T10:01:17Z</time>
      </trkpt>
      <trkpt lat="45.72685" lon="6.53383">
        <ele>680.2</ele>
        <time>2021-06-01T10:01:18Z</time>
      </trkpt>
      <trkpt lat="45.72684" lon="6.53392">
        <ele>680.4</ele>
        <time>2021-06-01T10:01:19Z</time>
      </trkpt>
      <trkpt lat="45.72683" lon="6.53401">
        <ele>680.4</ele>
        <time>2021-06-01T10:01:20Z</time>
      </trkpt>
      <trkpt lat="45.72681" lon="6.5341">
        <ele>681</ele>
        <time>2021-06-01T10:01:21Z</time>
      </trkpt>
      <trkpt lat="45.7268" lon="6.53419">
        <ele>681.6</ele>
        <time>2021-06-01T10:01:22Z</time>
      </trkpt>
      <trkpt lat="45.72679" lon="6.53428">
        <ele>681.8</ele>
        <time>2021-06-01T10:01:23Z</time>
      </trkpt>
      <trkpt lat="45.72678" lon="6.53436">
        <ele>682.6</ele>
        <time>2021-06-01T10:01:24Z</time>
      </trkpt>
      <trkpt lat="45.72676" lon="6.53445">
        <ele>683.4</ele>
        <time>2021-06-01T10:01:25Z</time>
      </trkpt>
      <trkpt lat="45.72675" lon="6.53453">
        <ele>684</ele>
        <time>2021-06-01T10:01:26Z</time>
      </trkpt>
      <trkpt lat="45.72673" lon="6.53462">
        <ele>684.4</ele>
        <time>2021-06-01T10:01:27Z</time>
      </trkpt>
      <trkpt lat="45.72671" lon="6.53471">
        <ele>684.4</ele>
        <time>2021-06-01T10:01:28Z</time>
      </trkpt>
      <trkpt lat="45.72669" lon="6.5348">
        <ele>684.4</ele>
        <time>2021-06-01T10:01:29Z</time>
      </trkpt>
      <trkpt lat="45.72667" lon="6.5349">
        <ele>684</ele>
        <time>2021-06-01T10:01:30Z</time>
      </trkpt>
      <trkpt lat="45.72664" lon="6.53499">
        <ele>684</ele>
        <time>2021-06-01T10:01:31Z</time>
      </trkpt>
      <trkpt lat="45.72661" lon="6.53508">
        <ele>684</ele>
        <time>2021-06-01T10:01:32Z</time>
      </trkpt>
      <trkpt lat="45.72657" lon="6.53516">
        <ele>684</ele>
        <time>2021-06-01T10:01:33Z</time>
      </trkpt>
      <trkpt lat="45.72653" lon="6.53525">
        <ele>684</ele>
        <time>2021-06-01T10:01:34Z</time>
      </trkpt>
      <trkpt lat="45.72649" lon="6.53534">
        <ele>684.4</ele>
        <time>2021-06-01T10:01:35Z</time>
      </trkpt>
      <trkpt lat="45.72644" lon="6.53542">
        <ele>685.2</ele>
        <time>2021-06-01T10:01:36Z</time>
      </trkpt>
      <trkpt lat="45.72638" lon="6.53549">
        <ele>685.4</ele>
        <time>2021-06-01T10:01:37Z</time>
      </trkpt>
      <trkpt lat="45.72632" lon="6.53556">
        <ele>686.2</ele>
        <time>2021-06-01T10:01:38Z</time>
      </trkpt>
      <trkpt lat="45.72626" lon="6.53563">
        <ele>686.8</ele>
        <time>2021-06-01T10:01:39Z</time>
      </trkpt>
      <trkpt lat="45.7262" lon="6.5357">
        <ele>687.2</ele>
        <time>2021-06-01T10:01:40Z</time>
      </trkpt>
      <trkpt lat="45.72613" lon="6.53576">
        <ele>687.6</ele>
        <time>2021-06-01T10:01:41Z</time>
      </trkpt>
      <trkpt lat="45.72608" lon="6.53583">
        <ele>687.8</ele>
        <time>2021-06-01T10:01:42Z</time>
      </trkpt>
      <trkpt lat="45.72602" lon="6.53591">
        <ele>688.2</ele>
        <time>2021-06-01T10:01:43Z</time>
      </trkpt>
      <trkpt lat="45.72597" lon="6.53599">
        <ele>688.6</ele>
        <time>2021-06-01T10:01:44Z</time>
      </trkpt>
      <trkpt lat="45.72592" lon="6.53608">
        <ele>689</ele>
        <time>2021-06-01T10:01:45Z</time>
      </trkpt>
      <trkpt lat="45.72587" lon="6.53617">
        <ele>689</ele>
        <time>2021-06-01T10:01:46Z</time>
      </trkpt>
      <trkpt lat="45.72582" lon="6.53627">
        <ele>688.8</ele>
        <time>2021-06-01T10:01:47Z</time>
      </trkpt>
      <trkpt lat="45.72578" lon="6.53638">
        <ele>688.4</ele>
        <time>2021-06-01T10:01:48Z</time>
      </trkpt>
      <trkpt lat="45.72573" lon="6.53649">
        <ele>688</ele>
        <time>2021-06-01T10:01:49Z</time>
      </trkpt>
      <trkpt lat="45.72569" lon="6.53661">
        <ele>687.6</ele>
        <time>2021-06-01T10:01:50Z</time>
      </trkpt>
      <trkpt lat="45.72565" lon="6.53673">
        <ele>688</ele>
        <time>2021-06-01T10:01:51Z</time>
      </trkpt>
      <trkpt lat="45.72561" lon="6.53685">
        <ele>688.2</ele>
        <time>2021-06-01T10:01:52Z</time>
      </trkpt>
      <trkpt lat="45.72557" lon="6.53697">
        <ele>688.8</ele>
        <time>2021-06-01T10:01:53Z</time>
      </trkpt>
      <trkpt lat="45.72553" lon="6.5371">
        <ele>688.8</ele>
        <time>2021-06-01T10:01:54Z</time>
      </trkpt>
      <trkpt lat="45.72548" lon="6.53723">
        <ele>688.6</ele>
        <time>2021-06-01T10:01:55Z</time>
      </trkpt>
      <trkpt lat="45.72544" lon="6.53736">
        <ele>688.4</ele>
        <time>2021-06-01T10:01:56Z</time>
      </trkpt>
      <trkpt lat="45.72539" lon="6.5375">
        <ele>688.6</ele>
        <time>2021-06-01T10:01:57Z</time>
      </trkpt>
      <trkpt lat="45.72535" lon="6.53763">
        <ele>688.8</ele>
        <time>2021-06-01T10:01:58Z</time>
      </trkpt>
      <trkpt lat="45.72526" lon="6.53792">
        <ele>688.8</ele>
        <time>2021-06-01T10:02:00Z</time>
      </trkpt>
      <trkpt lat="45.72523" lon="6.53806">
        <ele>689</ele>
        <time>2021-06-01T10:02:01Z</time>
      </trkpt>
      <trkpt lat="45.7252" lon="6.53822">
        <ele>689</ele>
        <time>2021-06-01T10:02:02Z</time>
      </trkpt>
      <trkpt lat="45.72517" lon="6.53837">
        <ele>688.8</ele>
        <time>2021-06-01T10:02:03Z</time>
      </trkpt>
      <trkpt lat="45.72516" lon="6.53854">
        <ele>688.8</ele>
        <time>2021-06-01T10:02:04Z</time>
      </trkpt>
      <trkpt lat="45.72515" lon="6.53887">
        <ele>688.4</ele>
        <time>2021-06-01T10:02:06Z</time>
      </trkpt>
      <trkpt lat="45.72515" lon="6.53904">
        <ele>688.2</ele>
        <time>2021-06-01T10:02:07Z</time>
      </trkpt>
      <trkpt lat="45.72515" lon="6.53921">
        <ele>688.2</ele>
        <time>2021-06-01T10:02:08Z</time>
      </trkpt>
      <trkpt lat="45.72516" lon="6.53938">
        <ele>688.2</ele>
        <time>2021-06-01T10:02:09Z</time>
      </trkpt>
      <trkpt lat="45.72516" lon="6.53955">
        <ele>688</ele>
        <time>2021-06-01T10:02:10Z</time>
      </trkpt>
      <trkpt lat="45.72516" lon="6.53972">
        <ele>688.2</ele>
        <time>2021-06-01T10:02:11Z</time>
      </trkpt>
      <trkpt lat="45.72517" lon="6.5399">
        <ele>688.4</ele>
        <time>2021-06-01T10:02:12Z</time>
      </trkpt>
      <trkpt lat="45.72518" lon="6.54008">
        <ele>688.4</ele>
        <time>2021-06-01T10:02:13Z</time>
      </trkpt>
      <trkpt lat="45.7252" lon="6.54025">
        <ele>688.2</ele>
        <time>2021-06-01T10:02:14Z</time>
      </trkpt>
      <trkpt lat="45.72521" lon="6.54042">
        <ele>688.2</ele>
        <time>2021-06-01T10:02:15Z</time>
      </trkpt>
      <trkpt lat="45.72523" lon="6.54059">
        <ele>687.8</ele>
        <time>2021-06-01T10:02:16Z</time>
      </trkpt>
      <trkpt lat="45.72526" lon="6.54076">
        <ele>687.6</ele>
        <time>2021-06-01T10:02:17Z</time>
      </trkpt>
      <trkpt lat="45.7253" lon="6.54093">
        <ele>687.4</ele>
        <time>2021-06-01T10:02:18Z</time>
      </trkpt>
      <trkpt lat="45.72534" lon="6.54109">
        <ele>687.6</ele>
        <time>2021-06-01T10:02:19Z</time>
      </trkpt>
      <trkpt lat="45.7254" lon="6.54125">
        <ele>688</ele>
        <time>2021-06-01T10:02:20Z</time>
      </trkpt>
      <trkpt lat="45.72548" lon="6.54141">
        <ele>688.2</ele>
        <time>2021-06-01T10:02:21Z</time>
      </trkpt>
      <trkpt lat="45.72556" lon="6.54155">
        <ele>688.2</ele>
        <time>2021-06-01T10:02:22Z</time>
      </trkpt>
      <trkpt lat="45.72564" lon="6.54169">
        <ele>687.8</ele>
        <time>2021-06-01T10:02:23Z</time>
      </trkpt>
      <trkpt lat="45.72572" lon="6.54182">
        <ele>687.4</ele>
        <time>2021-06-01T10:02:24Z</time>
      </trkpt>
      <trkpt lat="45.72581" lon="6.54195">
        <ele>687.2</ele>
        <time>2021-06-01T10:02:25Z</time>
      </trkpt>
      <trkpt lat="45.72589" lon="6.54209">
        <ele>687</ele>
        <time>2021-06-01T10:02:26Z</time>
      </trkpt>
      <trkpt lat="45.72597" lon="6.54222">
        <ele>687.2</ele>
        <time>2021-06-01T10:02:27Z</time>
      </trkpt>
      <trkpt lat="45.72605" lon="6.54234">
        <ele>686.8</ele>
        <time>2021-06-01T10:02:28Z</time>
      </trkpt>
      <trkpt lat="45.72613" lon="6.54247">
        <ele>686.4</ele>
        <time>2021-06-01T10:02:29Z</time>
      </trkpt>
      <trkpt lat="45.72621" lon="6.54261">
        <ele>685.8</ele>
        <time>2021-06-01T10:02:30Z</time>
      </trkpt>
      <trkpt lat="45.7263" lon="6.54274">
        <ele>685.4</ele>
        <time>2021-06-01T10:02:31Z</time>
      </trkpt>
      <trkpt lat="45.72637" lon="6.54288">
        <ele>685</ele>
        <time>2021-06-01T10:02:32Z</time>
      </trkpt>
      <trkpt lat="45.72644" lon="6.54302">
        <ele>685</ele>
        <time>2021-06-01T10:02:33Z</time>
      </trkpt>
      <trkpt lat="45.7265" lon="6.54318">
        <ele>684.6</ele>
        <time>2021-06-01T10:02:34Z</time>
      </trkpt>
      <trkpt lat="45.72655" lon="6.54334">
        <ele>684.6</ele>
        <time>2021-06-01T10:02:35Z</time>
      </trkpt>
      <trkpt lat="45.7266" lon="6.54351">
        <ele>684.2</ele>
        <time>2021-06-01T10:02:36Z</time>
      </trkpt>
      <trkpt lat="45.72665" lon="6.54368">
        <ele>683.8</ele>
        <time>2021-06-01T10:02:37Z</time>
      </trkpt>
      <trkpt lat="45.72668" lon="6.54386">
        <ele>683.4</ele>
        <time>2021-06-01T10:02:38Z</time>
      </trkpt>
      <trkpt lat="45.72671" lon="6.54404">
        <ele>683.2</ele>
        <time>2021-06-01T10:02:39Z</time>
      </trkpt>
      <trkpt lat="45.72674" lon="6.54423">
        <ele>683</ele>
        <time>2021-06-01T10:02:40Z</time>
      </trkpt>
      <trkpt lat="45.72677" lon="6.54441">
        <ele>682.6</ele>
        <time>2021-06-01T10:02:41Z</time>
      </trkpt>
      <trkpt lat="45.72679" lon="6.54459">
        <ele>682.4</ele>
        <time>2021-06-01T10:02:42Z</time>
      </trkpt>
      <trkpt lat="45.72681" lon="6.54477">
        <ele>682.2</ele>
        <time>2021-06-01T10:02:43Z</time>
      </trkpt>
      <trkpt lat="45.72682" lon="6.54495">
        <ele>682.4</ele>
        <time>2021-06-01T10:02:44Z</time>
      </trkpt>
      <trkpt lat="45.72683" lon="6.54513">
        <ele>682.2</ele>
        <time>2021-06-01T10:02:45Z</time>
      </trkpt>
      <trkpt lat="45.72683" lon="6.5453">
        <ele>682.4</ele>
        <time>2021-06-01T10:02:46Z</time>
      </trkpt>
      <trkpt lat="45.72682" lon="6.54547">
        <ele>682.2</ele>
        <time>2021-06-01T10:02:47Z</time>
      </trkpt>
      <trkpt lat="45.72679" lon="6.54564">
        <ele>682</ele>
        <time>2021-06-01T10:02:48Z</time>
      </trkpt>
      <trkpt lat="45.72676" lon="6.54581">
        <ele>682.6</ele>
        <time>2021-06-01T10:02:49Z</time>
      </trkpt>
      <trkpt lat="45.72673" lon="6.54597">
        <ele>683</ele>
        <time>2021-06-01T10:02:50Z</time>
      </trkpt>
      <trkpt lat="45.72669" lon="6.54612">
        <ele>683.4</ele>
        <time>2021-06-01T10:02:51Z</time>
      </trkpt>
      <trkpt lat="45.72664" lon="6.54626">
        <ele>683.6</ele>
        <time>2021-06-01T10:02:52Z</time>
      </trkpt>
      <trkpt lat="45.72659" lon="6.54639">
        <ele>683.8</ele>
        <time>2021-06-01T10:02:53Z</time>
      </trkpt>
      <trkpt lat="45.72654" lon="6.54652">
        <ele>684</ele>
        <time>2021-06-01T10:02:54Z</time>
      </trkpt>
      <trkpt lat="45.72649" lon="6.54664">
        <ele>684</ele>
        <time>2021-06-01T10:02:55Z</time>
      </trkpt>
      <trkpt lat="45.72643" lon="6.54675">
        <ele>684.2</ele>
        <time>2021-06-01T10:02:56Z</time>
      </trkpt>
      <trkpt lat="45.72636" lon="6.54686">
        <ele>684</ele>
        <time>2021-06-01T10:02:57Z</time>
      </trkpt>
      <trkpt lat="45.7263" lon="6.54697">
        <ele>684</ele>
        <time>2021-06-01T10:02:58Z</time>
      </trkpt>
      <trkpt lat="45.72623" lon="6.54707">
        <ele>684</ele>
        <time>2021-06-01T10:02:59Z</time>
      </trkpt>
      <trkpt lat="45.72617" lon="6.54718">
        <ele>683.6</ele>
        <time>2021-06-01T10:03:00Z</time>
      </trkpt>
      <trkpt lat="45.72611" lon="6.54729">
        <ele>683.4</ele>
        <time>2021-06-01T10:03:01Z</time>
      </trkpt>
      <trkpt lat="45.72604" lon="6.5474">
        <ele>683.6</ele>
        <time>2021-06-01T10:03:02Z</time>
      </trkpt>
      <trkpt lat="45.72599" lon="6.54752">
        <ele>682.8</ele>
        <time>2021-06-01T10:03:03Z</time>
      </trkpt>
      <trkpt lat="45.72595" lon="6.54766">
        <ele>682.8</ele>
        <time>2021-06-01T10:03:04Z</time>
      </trkpt>
      <trkpt lat="45.72591" lon="6.5478">
        <ele>683</ele>
        <time>2021-06-01T10:03:05Z</time>
      </trkpt>
      <trkpt lat="45.72588" lon="6.54795">
        <ele>682.8</ele>
        <time>2021-06-01T10:03:06Z</time>
      </trkpt>
      <trkpt lat="45.72586" lon="6.5481">
        <ele>682.2</ele>
        <time>2021-06-01T10:03:07Z</time>
      </trkpt>
      <trkpt lat="45.72583" lon="6.54826">
        <ele>682</ele>
        <time>2021-06-01T10:03:08Z</time>
      </trkpt>
      <trkpt lat="45.72582" lon="6.54843">
        <ele>682</ele>
        <time>2021-06-01T10:03:09Z</time>
      </trkpt>
      <trkpt lat="45.7258" lon="6.5486">
        <ele>681.8</ele>
        <time>2021-06-01T10:03:10Z</time>
      </trkpt>
      <trkpt lat="45.72579" lon="6.54876">
        <ele>682</ele>
        <time>2021-06-01T10:03:11Z</time>
      </trkpt>
      <trkpt lat="45.72578" lon="6.54893">
        <ele>682.2</ele>
        <time>2021-06-01T10:03:12Z</time>
      </trkpt>
      <trkpt lat="45.72576" lon="6.5491">
        <ele>682</ele>
        <time>2021-06-01T10:03:13Z</time>
      </trkpt>
      <trkpt lat="45.72575" lon="6.54927">
        <ele>681.6</ele>
        <time>2021-06-01T10:03:14Z</time>
      </trkpt>
      <trkpt lat="45.72573" lon="6.54944">
        <ele>680.6</ele>
        <time>2021-06-01T10:03:15Z</time>
      </trkpt>
      <trkpt lat="45.72572" lon="6.54961">
        <ele>679.8</ele>
        <time>2021-06-01T10:03:16Z</time>
      </trkpt>
      <trkpt lat="45.72571" lon="6.54978">
        <ele>679.8</ele>
        <time>2021-06-01T10:03:17Z</time>
      </trkpt>
      <trkpt lat="45.72569" lon="6.54995">
        <ele>679.6</ele>
        <time>2021-06-01T10:03:18Z</time>
      </trkpt>
      <trkpt lat="45.72566" lon="6.55013">
        <ele>679.8</ele>
        <time>2021-06-01T10:03:19Z</time>
      </trkpt>
      <trkpt lat="45.72563" lon="6.55029">
        <ele>679.6</ele>
        <time>2021-06-01T10:03:20Z</time>
      </trkpt>
      <trkpt lat="45.72561" lon="6.55046">
        <ele>680.2</ele>
        <time>2021-06-01T10:03:21Z</time>
      </trkpt>
      <trkpt lat="45.72557" lon="6.55062">
        <ele>680.6</ele>
        <time>2021-06-01T10:03:22Z</time>
      </trkpt>
      <trkpt lat="45.72554" lon="6.55078">
        <ele>680.6</ele>
        <time>2021-06-01T10:03:23Z</time>
      </trkpt>
      <trkpt lat="45.7255" lon="6.55093">
        <ele>680.6</ele>
        <time>2021-06-01T10:03:24Z</time>
      </trkpt>
      <trkpt lat="45.72546" lon="6.55109">
        <ele>680.8</ele>
        <time>2021-06-01T10:03:25Z</time>
      </trkpt>
      <trkpt lat="45.72541" lon="6.55124">
        <ele>680.8</ele>
        <time>2021-06-01T10:03:26Z</time>
      </trkpt>
      <trkpt lat="45.72537" lon="6.55138">
        <ele>680.8</ele>
        <time>2021-06-01T10:03:27Z</time>
      </trkpt>
      <trkpt lat="45.72532" lon="6.55153">
        <ele>680.6</ele>
        <time>2021-06-01T10:03:28Z</time>
      </trkpt>
      <trkpt lat="45.72526" lon="6.55167">
        <ele>680.8</ele>
        <time>2021-06-01T10:03:29Z</time>
      </trkpt>
      <trkpt lat="45.72521" lon="6.5518">
        <ele>680.6</ele>
        <time>2021-06-01T10:03:30Z</time>
      </trkpt>
      <trkpt lat="45.72516" lon="6.55193">
        <ele>680.2</ele>
        <time>2021-06-01T10:03:31Z</time>
      </trkpt>
      <trkpt lat="45.7251" lon="6.55206">
        <ele>680</ele>
        <time>2021-06-01T10:03:32Z</time>
      </trkpt>
      <trkpt lat="45.72504" lon="6.55219">
        <ele>679.6</ele>
        <time>2021-06-01T10:03:33Z</time>
      </trkpt>
      <trkpt lat="45.72498" lon="6.55231">
        <ele>678.6</ele>
        <time>2021-06-01T10:03:34Z</time>
      </trkpt>
      <trkpt lat="45.72492" lon="6.55242">
        <ele>678.2</ele>
        <time>2021-06-01T10:03:35Z</time>
      </trkpt>
      <trkpt lat="45.72485" lon="6.55254">
        <ele>678</ele>
        <time>2021-06-01T10:03:36Z</time>
      </trkpt>
      <trkpt lat="45.72478" lon="6.55266">
        <ele>677.8</ele>
        <time>2021-06-01T10:03:37Z</time>
      </trkpt>
      <trkpt lat="45.72472" lon="6.55276">
        <ele>677.6</ele>
        <time>2021-06-01T10:03:38Z</time>
      </trkpt>
      <trkpt lat="45.72465" lon="6.55287">
        <ele>677.4</ele>
        <time>2021-06-01T10:03:39Z</time>
      </trkpt>
      <trkpt lat="45.72458" lon="6.55297">
        <ele>677.6</ele>
        <time>2021-06-01T10:03:40Z</time>
      </trkpt>
      <trkpt lat="45.72452" lon="6.55307">
        <ele>677.6</ele>
        <time>2021-06-01T10:03:41Z</time>
      </trkpt>
      <trkpt lat="45.72445" lon="6.55317">
        <ele>677.4</ele>
        <time>2021-06-01T10:03:42Z</time>
      </trkpt>
      <trkpt lat="45.72438" lon="6.55327">
        <ele>677.4</ele>
        <time>2021-06-01T10:03:43Z</time>
      </trkpt>
      <trkpt lat="45.72432" lon="6.55336">
        <ele>677.2</ele>
        <time>2021-06-01T10:03:44Z</time>
      </trkpt>
      <trkpt lat="45.72426" lon="6.55346">
        <ele>677.2</ele>
        <time>2021-06-01T10:03:45Z</time>
      </trkpt>
      <trkpt lat="45.72419" lon="6.55356">
        <ele>677.2</ele>
        <time>2021-06-01T10:03:46Z</time>
      </trkpt>
      <trkpt lat="45.72412" lon="6.55366">
        <ele>677</ele>
        <time>2021-06-01T10:03:47Z</time>
      </trkpt>
      <trkpt lat="45.72406" lon="6.55376">
        <ele>677</ele>
        <time>2021-06-01T10:03:48Z</time>
      </trkpt>
      <trkpt lat="45.724" lon="6.55385">
        <ele>677</ele>
        <time>2021-06-01T10:03:49Z</time>
      </trkpt>
      <trkpt lat="45.72394" lon="6.55394">
        <ele>676.8</ele>
        <time>2021-06-01T10:03:50Z</time>
      </trkpt>
      <trkpt lat="45.72388" lon="6.55404">
        <ele>676.8</ele>
        <time>2021-06-01T10:03:51Z</time>
      </trkpt>
      <trkpt lat="45.72381" lon="6.55413">
        <ele>676.8</ele>
        <time>2021-06-01T10:03:52Z</time>
      </trkpt>
      <trkpt lat="45.72375" lon="6.55422">
        <ele>677</ele>
        <time>2021-06-01T10:03:53Z</time>
      </trkpt>
      <trkpt lat="45.72369" lon="6.55432">
        <ele>677</ele>
        <time>2021-06-01T10:03:54Z</time>
      </trkpt>
      <trkpt lat="45.72363" lon="6.55441">
        <ele>677</ele>
        <time>2021-06-01T10:03:55Z</time>
      </trkpt>
      <trkpt lat="45.72357" lon="6.55451">
        <ele>677</ele>
        <time>2021-06-01T10:03:56Z</time>
      </trkpt>
      <trkpt lat="45.72351" lon="6.55461">
        <ele>677</ele>
        <time>2021-06-01T10:03:57Z</time>
      </trkpt>
      <trkpt lat="45.72345" lon="6.5547">
        <ele>677.4</ele>
        <time>2021-06-01T10:03:58Z</time>
      </trkpt>
      <trkpt lat="45.72339" lon="6.5548">
        <ele>677.4</ele>
        <time>2021-06-01T10:03:59Z</time>
      </trkpt>
      <trkpt lat="45.72333" lon="6.55489">
        <ele>678</ele>
        <time>2021-06-01T10:04:00Z</time>
      </trkpt>
      <trkpt lat="45.72327" lon="6.55498">
        <ele>678.4</ele>
        <time>2021-06-01T10:04:01Z</time>
      </trkpt>
      <trkpt lat="45.72321" lon="6.55507">
        <ele>678.4</ele>
        <time>2021-06-01T10:04:02Z</time>
      </trkpt>
      <trkpt lat="45.72316" lon="6.55516">
        <ele>678.4</ele>
        <time>2021-06-01T10:04:03Z</time>
      </trkpt>
      <trkpt lat="45.7231" lon="6.55525">
        <ele>678.6</ele>
        <time>2021-06-01T10:04:04Z</time>
      </trkpt>
      <trkpt lat="45.72304" lon="6.55534">
        <ele>678.4</ele>
        <time>2021-06-01T10:04:05Z</time>
      </trkpt>
      <trkpt lat="45.72299" lon="6.55543">
        <ele>678.6</ele>
        <time>2021-06-01T10:04:06Z</time>
      </trkpt>
      <trkpt lat="45.72293" lon="6.55552">
        <ele>678.8</ele>
        <time>2021-06-01T10:04:07Z</time>
      </trkpt>
      <trkpt lat="45.72287" lon="6.55561">
        <ele>678.8</ele>
        <time>2021-06-01T10:04:08Z</time>
      </trkpt>
      <trkpt lat="45.72281" lon="6.5557">
        <ele>678.8</ele>
        <time>2021-06-01T10:04:09Z</time>
      </trkpt>
      <trkpt lat="45.72276" lon="6.55579">
        <ele>678.8</ele>
        <time>2021-06-01T10:04:10Z</time>
      </trkpt>
      <trkpt lat="45.72271" lon="6.55588">
        <ele>678.6</ele>
        <time>2021-06-01T10:04:11Z</time>
      </trkpt>
      <trkpt lat="45.72265" lon="6.55597">
        <ele>678.8</ele>
        <time>2021-06-01T10:04:12Z</time>
      </trkpt>
      <trkpt lat="45.7226" lon="6.55606">
        <ele>679</ele>
        <time>2021-06-01T10:04:13Z</time>
      </trkpt>
      <trkpt lat="45.72254" lon="6.55615">
        <ele>679</ele>
        <time>2021-06-01T10:04:14Z</time>
      </trkpt>
      <trkpt lat="45.72249" lon="6.55623">
        <ele>679.4</ele>
        <time>2021-06-01T10:04:15Z</time>
      </trkpt>
      <trkpt lat="45.72244" lon="6.55632">
        <ele>679.4</ele>
        <time>2021-06-01T10:04:16Z</time>
      </trkpt>
      <trkpt lat="45.72238" lon="6.5564">
        <ele>679.6</ele>
        <time>2021-06-01T10:04:17Z</time>
      </trkpt>
      <trkpt lat="45.72233" lon="6.55649">
        <ele>679.6</ele>
        <time>2021-06-01T10:04:18Z</time>
      </trkpt>
      <trkpt lat="45.72228" lon="6.55658">
        <ele>680</ele>
        <time>2021-06-01T10:04:19Z</time>
      </trkpt>
      <trkpt lat="45.72222" lon="6.55666">
        <ele>680.2</ele>
        <time>2021-06-01T10:04:20Z</time>
      </trkpt>
      <trkpt lat="45.72216" lon="6.55675">
        <ele>680.6</ele>
        <time>2021-06-01T10:04:21Z</time>
      </trkpt>
      <trkpt lat="45.72211" lon="6.55684">
        <ele>680.8</ele>
        <time>2021-06-01T10:04:22Z</time>
      </trkpt>
      <trkpt lat="45.72206" lon="6.55692">
        <ele>681.2</ele>
        <time>2021-06-01T10:04:23Z</time>
      </trkpt>
      <trkpt lat="45.722" lon="6.55701">
        <ele>681.4</ele>
        <time>2021-06-01T10:04:24Z</time>
      </trkpt>
      <trkpt lat="45.72195" lon="6.5571">
        <ele>681.4</ele>
        <time>2021-06-01T10:04:25Z</time>
      </trkpt>
      <trkpt lat="45.7219" lon="6.55719">
        <ele>681.8</ele>
        <time>2021-06-01T10:04:26Z</time>
      </trkpt>
      <trkpt lat="45.72185" lon="6.55727">
        <ele>682</ele>
        <time>2021-06-01T10:04:27Z</time>
      </trkpt>
      <trkpt lat="45.7218" lon="6.55736">
        <ele>682.2</ele>
        <time>2021-06-01T10:04:28Z</time>
      </trkpt>
      <trkpt lat="45.72174" lon="6.55744">
        <ele>682.4</ele>
        <time>2021-06-01T10:04:29Z</time>
      </trkpt>
      <trkpt lat="45.72169" lon="6.55753">
        <ele>682.6</ele>
        <time>2021-06-01T10:04:30Z</time>
      </trkpt>
      <trkpt lat="45.72164" lon="6.55761">
        <ele>683.2</ele>
        <time>2021-06-01T10:04:31Z</time>
      </trkpt>
      <trkpt lat="45.72159" lon="6.55769">
        <ele>683</ele>
        <time>2021-06-01T10:04:32Z</time>
      </trkpt>
      <trkpt lat="45.72154" lon="6.55778">
        <ele>683.2</ele>
        <time>2021-06-01T10:04:33Z</time>
      </trkpt>
      <trkpt lat="45.7215" lon="6.55787">
        <ele>683.4</ele>
        <time>2021-06-01T10:04:34Z</time>
      </trkpt>
      <trkpt lat="45.72146" lon="6.55795">
        <ele>683.4</ele>
        <time>2021-06-01T10:04:35Z</time>
      </trkpt>
      <trkpt lat="45.72141" lon="6.55804">
        <ele>683.6</ele>
        <time>2021-06-01T10:04:36Z</time>
      </trkpt>
      <trkpt lat="45.72137" lon="6.55814">
        <ele>683.8</ele>
        <time>2021-06-01T10:04:37Z</time>
      </trkpt>
      <trkpt lat="45.72133" lon="6.55824">
        <ele>684</ele>
        <time>2021-06-01T10:04:38Z</time>
      </trkpt>
      <trkpt lat="45.7213" lon="6.55833">
        <ele>684.2</ele>
        <time>2021-06-01T10:04:39Z</time>
      </trkpt>
      <trkpt lat="45.72126" lon="6.55843">
        <ele>684</ele>
        <time>2021-06-01T10:04:40Z</time>
      </trkpt>
      <trkpt lat="45.72122" lon="6.55853">
        <ele>684.2</ele>
        <time>2021-06-01T10:04:41Z</time>
      </trkpt>
      <trkpt lat="45.72118" lon="6.55862">
        <ele>684.4</ele>
        <time>2021-06-01T10:04:42Z</time>
      </trkpt>
      <trkpt lat="45.72114" lon="6.55871">
        <ele>684.6</ele>
        <time>2021-06-01T10:04:43Z</time>
      </trkpt>
      <trkpt lat="45.7211" lon="6.5588">
        <ele>685.4</ele>
        <time>2021-06-01T10:04:44Z</time>
      </trkpt>
      <trkpt lat="45.72107" lon="6.5589">
        <ele>685.6</ele>
        <time>2021-06-01T10:04:45Z</time>
      </trkpt>
      <trkpt lat="45.72103" lon="6.55899">
        <ele>685.8</ele>
        <time>2021-06-01T10:04:46Z</time>
      </trkpt>
      <trkpt lat="45.72099" lon="6.55908">
        <ele>685.8</ele>
        <time>2021-06-01T10:04:47Z</time>
      </trkpt>
      <trkpt lat="45.72095" lon="6.55917">
        <ele>686</ele>
        <time>2021-06-01T10:04:48Z</time>
      </trkpt>
      <trkpt lat="45.72092" lon="6.55926">
        <ele>686.2</ele>
        <time>2021-06-01T10:04:49Z</time>
      </trkpt>
      <trkpt lat="45.72088" lon="6.55935">
        <ele>686.6</ele>
        <time>2021-06-01T10:04:50Z</time>
      </trkpt>
      <trkpt lat="45.72084" lon="6.55944">
        <ele>686.6</ele>
        <time>2021-06-01T10:04:51Z</time>
      </trkpt>
      <trkpt lat="45.72081" lon="6.55953">
        <ele>686.8</ele>
        <time>2021-06-01T10:04:52Z</time>
      </trkpt>
      <trkpt lat="45.72077" lon="6.55963">
        <ele>687</ele>
        <time>2021-06-01T10:04:53Z</time>
      </trkpt>
      <trkpt lat="45.72073" lon="6.55972">
        <ele>686.8</ele>
        <time>2021-06-01T10:04:54Z</time>
      </trkpt>
      <trkpt lat="45.7207" lon="6.55981">
        <ele>687</ele>
        <time>2021-06-01T10:04:55Z</time>
      </trkpt>
      <trkpt lat="45.72067" lon="6.5599">
        <ele>687.2</ele>
        <time>2021-06-01T10:04:56Z</time>
      </trkpt>
      <trkpt lat="45.72063" lon="6.55999">
        <ele>687.6</ele>
        <time>2021-06-01T10:04:57Z</time>
      </trkpt>
      <trkpt lat="45.7206" lon="6.56008">
        <ele>687.8</ele>
        <time>2021-06-01T10:04:58Z</time>
      </trkpt>
      <trkpt lat="45.72056" lon="6.56017">
        <ele>688</ele>
        <time>2021-06-01T10:04:59Z</time>
      </trkpt>
      <trkpt lat="45.72053" lon="6.56026">
        <ele>688</ele>
        <time>2021-06-01T10:05:00Z</time>
      </trkpt>
      <trkpt lat="45.72049" lon="6.56035">
        <ele>688.2</ele>
        <time>2021-06-01T10:05:01Z</time>
      </trkpt>
      <trkpt lat="45.72046" lon="6.56044">
        <ele>688.4</ele>
        <time>2021-06-01T10:05:02Z</time>
      </trkpt>
      <trkpt lat="45.72043" lon="6.56052">
        <ele>688.6</ele>
        <time>2021-06-01T10:05:03Z</time>
      </trkpt>
      <trkpt lat="45.7204" lon="6.56061">
        <ele>688.6</ele>
        <time>2021-06-01T10:05:04Z</time>
      </trkpt>
      <trkpt lat="45.72037" lon="6.5607">
        <ele>688.6</ele>
        <time>2021-06-01T10:05:05Z</time>
      </trkpt>
      <trkpt lat="45.72034" lon="6.56078">
        <ele>688.8</ele>
        <time>2021-06-01T10:05:06Z</time>
      </trkpt>
      <trkpt lat="45.72031" lon="6.56087">
        <ele>688.4</ele>
        <time>2021-06-01T10:05:07Z</time>
      </trkpt>
      <trkpt lat="45.72028" lon="6.56096">
        <ele>688.4</ele>
        <time>2021-06-01T10:05:08Z</time>
      </trkpt>
      <trkpt lat="45.72024" lon="6.56105">
        <ele>688.6</ele>
        <time>2021-06-01T10:05:09Z</time>
      </trkpt>
      <trkpt lat="45.72021" lon="6.56113">
        <ele>688.4</ele>
        <time>2021-06-01T10:05:10Z</time>
      </trkpt>
      <trkpt lat="45.72017" lon="6.56122">
        <ele>688.2</ele>
        <time>2021-06-01T10:05:11Z</time>
      </trkpt>
      <trkpt lat="45.72014" lon="6.56131">
        <ele>688.4</ele>
        <time>2021-06-01T10:05:12Z</time>
      </trkpt>
      <trkpt lat="45.72011" lon="6.5614">
        <ele>688.4</ele>
        <time>2021-06-01T10:05:13Z</time>
      </trkpt>
      <trkpt lat="45.72007" lon="6.56149">
        <ele>688.4</ele>
        <time>2021-06-01T10:05:14Z</time>
      </trkpt>
      <trkpt lat="45.72004" lon="6.56158">
        <ele>688.4</ele>
        <time>2021-06-01T10:05:15Z</time>
      </trkpt>
      <trkpt lat="45.72" lon="6.56167">
        <ele>688.2</ele>
        <time>2021-06-01T10:05:16Z</time>
      </trkpt>
      <trkpt lat="45.71996" lon="6.56176">
        <ele>688</ele>
        <time>2021-06-01T10:05:17Z</time>
      </trkpt>
      <trkpt lat="45.71993" lon="6.56185">
        <ele>688</ele>
        <time>2021-06-01T10:05:18Z</time>
      </trkpt>
      <trkpt lat="45.7199" lon="6.56194">
        <ele>687.8</ele>
        <time>2021-06-01T10:05:19Z</time>
      </trkpt>
      <trkpt lat="45.71987" lon="6.56203">
        <ele>687.6</ele>
        <time>2021-06-01T10:05:20Z</time>
      </trkpt>
      <trkpt lat="45.71983" lon="6.56212">
        <ele>687.4</ele>
        <time>2021-06-01T10:05:21Z</time>
      </trkpt>
      <trkpt lat="45.7198" lon="6.56221">
        <ele>687.4</ele>
        <time>2021-06-01T10:05:22Z</time>
      </trkpt>
      <trkpt lat="45.71976" lon="6.5623">
        <ele>687.2</ele>
        <time>2021-06-01T10:05:23Z</time>
      </trkpt>
      <trkpt lat="45.71973" lon="6.56239">
        <ele>687</ele>
        <time>2021-06-01T10:05:24Z</time>
      </trkpt>
      <trkpt lat="45.7197" lon="6.56249">
        <ele>687.4</ele>
        <time>2021-06-01T10:05:25Z</time>
      </trkpt>
      <trkpt lat="45.71968" lon="6.56258">
        <ele>687.6</ele>
        <time>2021-06-01T10:05:26Z</time>
      </trkpt>
      <trkpt lat="45.71965" lon="6.56267">
        <ele>688.4</ele>
        <time>2021-06-01T10:05:27Z</time>
      </trkpt>
      <trkpt lat="45.71964" lon="6.56277">
        <ele>688.8</ele>
        <time>2021-06-01T10:05:28Z</time>
      </trkpt>
      <trkpt lat="45.71962" lon="6.56287">
        <ele>688.4</ele>
        <time>2021-06-01T10:05:29Z</time>
      </trkpt>
      <trkpt lat="45.7196" lon="6.56296">
        <ele>688.4</ele>
        <time>2021-06-01T10:05:30Z</time>
      </trkpt>
      <trkpt lat="45.71958" lon="6.56305">
        <ele>688.6</ele>
        <time>2021-06-01T10:05:31Z</time>
      </trkpt>
      <trkpt lat="45.71957" lon="6.56314">
        <ele>688.8</ele>
        <time>2021-06-01T10:05:32Z</time>
      </trkpt>
      <trkpt lat="45.71956" lon="6.56322">
        <ele>688.6</ele>
        <time>2021-06-01T10:05:33Z</time>
      </trkpt>
      <trkpt lat="45.71954" lon="6.56331">
        <ele>688.8</ele>
        <time>2021-06-01T10:05:34Z</time>
      </trkpt>
      <trkpt lat="45.71953" lon="6.5634">
        <ele>688.4</ele>
        <time>2021-06-01T10:05:35Z</time>
      </trkpt>
      <trkpt lat="45.71953" lon="6.56349">
        <ele>688.6</ele>
        <time>2021-06-01T10:05:36Z</time>
      </trkpt>
      <trkpt lat="45.71952" lon="6.56357">
        <ele>688.4</ele>
        <time>2021-06-01T10:05:37Z</time>
      </trkpt>
      <trkpt lat="45.71952" lon="6.56366">
        <ele>688.4</ele>
        <time>2021-06-01T10:05:38Z</time>
      </trkpt>
      <trkpt lat="45.7195" lon="6.56374">
        <ele>688.4</ele>
        <time>2021-06-01T10:05:39Z</time>
      </trkpt>
      <trkpt lat="45.7195" lon="6.56383">
        <ele>688</ele>
        <time>2021-06-01T10:05:40Z</time>
      </trkpt>
      <trkpt lat="45.7195" lon="6.56392">
        <ele>688</ele>
        <time>2021-06-01T10:05:41Z</time>
      </trkpt>
      <trkpt lat="45.7195" lon="6.56401">
        <ele>688.4</ele>
        <time>2021-06-01T10:05:42Z</time>
      </trkpt>
      <trkpt lat="45.71951" lon="6.5641">
        <ele>688.4</ele>
        <time>2021-06-01T10:05:43Z</time>
      </trkpt>
      <trkpt lat="45.71952" lon="6.5642">
        <ele>688.4</ele>
        <time>2021-06-01T10:05:44Z</time>
      </trkpt>
      <trkpt lat="45.71953" lon="6.5643">
        <ele>688</ele>
        <time>2021-06-01T10:05:45Z</time>
      </trkpt>
      <trkpt lat="45.71954" lon="6.5644">
        <ele>687.8</ele>
        <time>2021-06-01T10:05:46Z</time>
      </trkpt>
      <trkpt lat="45.71955" lon="6.56449">
        <ele>687.4</ele>
        <time>2021-06-01T10:05:47Z</time>
      </trkpt>
      <trkpt lat="45.71956" lon="6.56459">
        <ele>687</ele>
        <time>2021-06-01T10:05:48Z</time>
      </trkpt>
      <trkpt lat="45.71957" lon="6.56469">
        <ele>686.8</ele>
        <time>2021-06-01T10:05:49Z</time>
      </trkpt>
      <trkpt lat="45.71958" lon="6.56479">
        <ele>686.4</ele>
        <time>2021-06-01T10:05:50Z</time>
      </trkpt>
      <trkpt lat="45.71959" lon="6.56488">
        <ele>685.8</ele>
        <time>2021-06-01T10:05:51Z</time>
      </trkpt>
      <trkpt lat="45.7196" lon="6.56499">
        <ele>685.8</ele>
        <time>2021-06-01T10:05:52Z</time>
      </trkpt>
      <trkpt lat="45.7196" lon="6.56509">
        <ele>685.8</ele>
        <time>2021-06-01T10:05:53Z</time>
      </trkpt>
      <trkpt lat="45.7196" lon="6.5652">
        <ele>686</ele>
        <time>2021-06-01T10:05:54Z</time>
      </trkpt>
      <trkpt lat="45.7196" lon="6.5653">
        <ele>686.4</ele>
        <time>2021-06-01T10:05:55Z</time>
      </trkpt>
      <trkpt lat="45.7196" lon="6.5654">
        <ele>686.6</ele>
        <time>2021-06-01T10:05:56Z</time>
      </trkpt>
      <trkpt lat="45.7196" lon="6.56551">
        <ele>686.6</ele>
        <time>2021-06-01T10:05:57Z</time>
      </trkpt>
      <trkpt lat="45.71961" lon="6.56561">
        <ele>687</ele>
        <time>2021-06-01T10:05:58Z</time>
      </trkpt>
      <trkpt lat="45.71962" lon="6.56571">
        <ele>687.4</ele>
        <time>2021-06-01T10:05:59Z</time>
      </trkpt>
      <trkpt lat="45.71964" lon="6.56581">
        <ele>687.4</ele>
        <time>2021-06-01T10:06:00Z</time>
      </trkpt>
      <trkpt lat="45.71965" lon="6.5659">
        <ele>687.2</ele>
        <time>2021-06-01T10:06:01Z</time>
      </trkpt>
      <trkpt lat="45.71965" lon="6.566">
        <ele>687.2</ele>
        <time>2021-06-01T10:06:02Z</time>
      </trkpt>
      <trkpt lat="45.71966" lon="6.56609">
        <ele>687.4</ele>
        <time>2021-06-01T10:06:03Z</time>
      </trkpt>
      <trkpt lat="45.71966" lon="6.56619">
        <ele>687.4</ele>
        <time>2021-06-01T10:06:04Z</time>
      </trkpt>
      <trkpt lat="45.71966" lon="6.56628">
        <ele>687.4</ele>
        <time>2021-06-01T10:06:05Z</time>
      </trkpt>
      <trkpt lat="45.71966" lon="6.56637">
        <ele>687.8</ele>
        <time>2021-06-01T10:06:06Z</time>
      </trkpt>
      <trkpt lat="45.71967" lon="6.56647">
        <ele>688</ele>
        <time>2021-06-01T10:06:07Z</time>
      </trkpt>
      <trkpt lat="45.71968" lon="6.56657">
        <ele>688.4</ele>
        <time>2021-06-01T10:06:08Z</time>
      </trkpt>
      <trkpt lat="45.71968" lon="6.56666">
        <ele>688.6</ele>
        <time>2021-06-01T10:06:09Z</time>
      </trkpt>
      <trkpt lat="45.71969" lon="6.56676">
        <ele>689</ele>
        <time>2021-06-01T10:06:10Z</time>
      </trkpt>
      <trkpt lat="45.7197" lon="6.56685">
        <ele>689</ele>
        <time>2021-06-01T10:06:11Z</time>
      </trkpt>
      <trkpt lat="45.7197" lon="6.56695">
        <ele>689.2</ele>
        <time>2021-06-01T10:06:12Z</time>
      </trkpt>
      <trkpt lat="45.71971" lon="6.56704">
        <ele>689.4</ele>
        <time>2021-06-01T10:06:13Z</time>
      </trkpt>
      <trkpt lat="45.71971" lon="6.56713">
        <ele>689.8</ele>
        <time>2021-06-01T10:06:14Z</time>
      </trkpt>
      <trkpt lat="45.71972" lon="6.56723">
        <ele>690.4</ele>
        <time>2021-06-01T10:06:15Z</time>
      </trkpt>
      <trkpt lat="45.71972" lon="6.56732">
        <ele>690.8</ele>
        <time>2021-06-01T10:06:16Z</time>
      </trkpt>
      <trkpt lat="45.71973" lon="6.56742">
        <ele>691.4</ele>
        <time>2021-06-01T10:06:17Z</time>
      </trkpt>
      <trkpt lat="45.71973" lon="6.56751">
        <ele>692</ele>
        <time>2021-06-01T10:06:18Z</time>
      </trkpt>
      <trkpt lat="45.71974" lon="6.56761">
        <ele>692.6</ele>
        <time>2021-06-01T10:06:19Z</time>
      </trkpt>
      <trkpt lat="45.71975" lon="6.5677">
        <ele>692.6</ele>
        <time>2021-06-01T10:06:20Z</time>
      </trkpt>
      <trkpt lat="45.71976" lon="6.5678">
        <ele>693</ele>
        <time>2021-06-01T10:06:21Z</time>
      </trkpt>
      <trkpt lat="45.71977" lon="6.56789">
        <ele>693.2</ele>
        <time>2021-06-01T10:06:22Z</time>
      </trkpt>
      <trkpt lat="45.71977" lon="6.56799">
        <ele>693.8</ele>
        <time>2021-06-01T10:06:23Z</time>
      </trkpt>
      <trkpt lat="45.71978" lon="6.56809">
        <ele>694.2</ele>
        <time>2021-06-01T10:06:24Z</time>
      </trkpt>
      <trkpt lat="45.71978" lon="6.56819">
        <ele>694.4</ele>
        <time>2021-06-01T10:06:25Z</time>
      </trkpt>
      <trkpt lat="45.7198" lon="6.56828">
        <ele>694.4</ele>
        <time>2021-06-01T10:06:26Z</time>
      </trkpt>
      <trkpt lat="45.7198" lon="6.56838">
        <ele>694.4</ele>
        <time>2021-06-01T10:06:27Z</time>
      </trkpt>
      <trkpt lat="45.71981" lon="6.56848">
        <ele>694.4</ele>
        <time>2021-06-01T10:06:28Z</time>
      </trkpt>
      <trkpt lat="45.71982" lon="6.56857">
        <ele>694.4</ele>
        <time>2021-06-01T10:06:29Z</time>
      </trkpt>
      <trkpt lat="45.71983" lon="6.56867">
        <ele>694</ele>
        <time>2021-06-01T10:06:30Z</time>
      </trkpt>
      <trkpt lat="45.71983" lon="6.56877">
        <ele>694.4</ele>
        <time>2021-06-01T10:06:31Z</time>
      </trkpt>
      <trkpt lat="45.71985" lon="6.56887">
        <ele>694.6</ele>
        <time>2021-06-01T10:06:32Z</time>
      </trkpt>
      <trkpt lat="45.71985" lon="6.56897">
        <ele>694.8</ele>
        <time>2021-06-01T10:06:33Z</time>
      </trkpt>
      <trkpt lat="45.71986" lon="6.56907">
        <ele>694.6</ele>
        <time>2021-06-01T10:06:34Z</time>
      </trkpt>
      <trkpt lat="45.71987" lon="6.56916">
        <ele>694.4</ele>
        <time>2021-06-01T10:06:35Z</time>
      </trkpt>
      <trkpt lat="45.71987" lon="6.56926">
        <ele>694</ele>
        <time>2021-06-01T10:06:36Z</time>
      </trkpt>
      <trkpt lat="45.71988" lon="6.56936">
        <ele>694</ele>
        <time>2021-06-01T10:06:37Z</time>
      </trkpt>
      <trkpt lat="45.71989" lon="6.56946">
        <ele>694</ele>
        <time>2021-06-01T10:06:38Z</time>
      </trkpt>
      <trkpt lat="45.71989" lon="6.56956">
        <ele>694</ele>
        <time>2021-06-01T10:06:39Z</time>
      </trkpt>
      <trkpt lat="45.7199" lon="6.56966">
        <ele>694.2</ele>
        <time>2021-06-01T10:06:40Z</time>
      </trkpt>
      <trkpt lat="45.7199" lon="6.56977">
        <ele>694.4</ele>
        <time>2021-06-01T10:06:41Z</time>
      </trkpt>
      <trkpt lat="45.71991" lon="6.56987">
        <ele>694.6</ele>
        <time>2021-06-01T10:06:42Z</time>
      </trkpt>
      <trkpt lat="45.71992" lon="6.56998">
        <ele>695</ele>
        <time>2021-06-01T10:06:43Z</time>
      </trkpt>
      <trkpt lat="45.71993" lon="6.57007">
        <ele>695.6</ele>
        <time>2021-06-01T10:06:44Z</time>
      </trkpt>
      <trkpt lat="45.71993" lon="6.57017">
        <ele>695.6</ele>
        <time>2021-06-01T10:06:45Z</time>
      </trkpt>
      <trkpt lat="45.71994" lon="6.5703">
        <ele>695.8</ele>
        <time>2021-06-01T10:06:46Z</time>
      </trkpt>
      <trkpt lat="45.71995" lon="6.57041">
        <ele>695.8</ele>
        <time>2021-06-01T10:06:47Z</time>
      </trkpt>
      <trkpt lat="45.71996" lon="6.57049">
        <ele>696.4</ele>
        <time>2021-06-01T10:06:48Z</time>
      </trkpt>
      <trkpt lat="45.71996" lon="6.57059">
        <ele>696.8</ele>
        <time>2021-06-01T10:06:49Z</time>
      </trkpt>
      <trkpt lat="45.71997" lon="6.57072">
        <ele>697.4</ele>
        <time>2021-06-01T10:06:50Z</time>
      </trkpt>
      <trkpt lat="45.71997" lon="6.57083">
        <ele>697.8</ele>
        <time>2021-06-01T10:06:51Z</time>
      </trkpt>
      <trkpt lat="45.71998" lon="6.57091">
        <ele>698.4</ele>
        <time>2021-06-01T10:06:52Z</time>
      </trkpt>
      <trkpt lat="45.71998" lon="6.57103">
        <ele>699</ele>
        <time>2021-06-01T10:06:53Z</time>
      </trkpt>
      <trkpt lat="45.71999" lon="6.57113">
        <ele>699.4</ele>
        <time>2021-06-01T10:06:54Z</time>
      </trkpt>
      <trkpt lat="45.71999" lon="6.57123">
        <ele>700</ele>
        <time>2021-06-01T10:06:55Z</time>
      </trkpt>
      <trkpt lat="45.72" lon="6.57133">
        <ele>700.6</ele>
        <time>2021-06-01T10:06:56Z</time>
      </trkpt>
      <trkpt lat="45.72" lon="6.57143">
        <ele>700.8</ele>
        <time>2021-06-01T10:06:57Z</time>
      </trkpt>
      <trkpt lat="45.72" lon="6.57153">
        <ele>701</ele>
        <time>2021-06-01T10:06:58Z</time>
      </trkpt>
      <trkpt lat="45.72" lon="6.57164">
        <ele>701.2</ele>
        <time>2021-06-01T10:06:59Z</time>
      </trkpt>
      <trkpt lat="45.72001" lon="6.57174">
        <ele>701.8</ele>
        <time>2021-06-01T10:07:00Z</time>
      </trkpt>
      <trkpt lat="45.72001" lon="6.57184">
        <ele>702</ele>
        <time>2021-06-01T10:07:01Z</time>
      </trkpt>
      <trkpt lat="45.71999" lon="6.57193">
        <ele>702.4</ele>
        <time>2021-06-01T10:07:02Z</time>
      </trkpt>
      <trkpt lat="45.71997" lon="6.57203">
        <ele>702.8</ele>
        <time>2021-06-01T10:07:03Z</time>
      </trkpt>
      <trkpt lat="45.71995" lon="6.57212">
        <ele>703</ele>
        <time>2021-06-01T10:07:04Z</time>
      </trkpt>
      <trkpt lat="45.71991" lon="6.57221">
        <ele>703</ele>
        <time>2021-06-01T10:07:05Z</time>
      </trkpt>
      <trkpt lat="45.71989" lon="6.57228">
        <ele>703.2</ele>
        <time>2021-06-01T10:07:06Z</time>
      </trkpt>
      <trkpt lat="45.71985" lon="6.57238">
        <ele>703.2</ele>
        <time>2021-06-01T10:07:07Z</time>
      </trkpt>
      <trkpt lat="45.71982" lon="6.57246">
        <ele>702.8</ele>
        <time>2021-06-01T10:07:08Z</time>
      </trkpt>
      <trkpt lat="45.7198" lon="6.57254">
        <ele>702.4</ele>
        <time>2021-06-01T10:07:09Z</time>
      </trkpt>
      <trkpt lat="45.71976" lon="6.57261">
        <ele>702</ele>
        <time>2021-06-01T10:07:10Z</time>
      </trkpt>
      <trkpt lat="45.71973" lon="6.57267">
        <ele>701.2</ele>
        <time>2021-06-01T10:07:11Z</time>
      </trkpt>
      <trkpt lat="45.7197" lon="6.57273">
        <ele>700.4</ele>
        <time>2021-06-01T10:07:12Z</time>
      </trkpt>
      <trkpt lat="45.71967" lon="6.57278">
        <ele>699.8</ele>
        <time>2021-06-01T10:07:13Z</time>
      </trkpt>
      <trkpt lat="45.71965" lon="6.57283">
        <ele>699</ele>
        <time>2021-06-01T10:07:14Z</time>
      </trkpt>
      <trkpt lat="45.71962" lon="6.57289">
        <ele>698.2</ele>
        <time>2021-06-01T10:07:15Z</time>
      </trkpt>
      <trkpt lat="45.71958" lon="6.57295">
        <ele>697.6</ele>
        <time>2021-06-01T10:07:16Z</time>
      </trkpt>
      <trkpt lat="45.71956" lon="6.57301">
        <ele>697</ele>
        <time>2021-06-01T10:07:17Z</time>
      </trkpt>
      <trkpt lat="45.71952" lon="6.57307">
        <ele>696.4</ele>
        <time>2021-06-01T10:07:18Z</time>
      </trkpt>
      <trkpt lat="45.71949" lon="6.57313">
        <ele>696.2</ele>
        <time>2021-06-01T10:07:19Z</time>
      </trkpt>
      <trkpt lat="45.71946" lon="6.57319">
        <ele>695.6</ele>
        <time>2021-06-01T10:07:20Z</time>
      </trkpt>
      <trkpt lat="45.71942" lon="6.57326">
        <ele>695.2</ele>
        <time>2021-06-01T10:07:21Z</time>
      </trkpt>
      <trkpt lat="45.71938" lon="6.57332">
        <ele>695.2</ele>
        <time>2021-06-01T10:07:22Z</time>
      </trkpt>
      <trkpt lat="45.71934" lon="6.57337">
        <ele>695.4</ele>
        <time>2021-06-01T10:07:23Z</time>
      </trkpt>
      <trkpt lat="45.71931" lon="6.57343">
        <ele>695.6</ele>
        <time>2021-06-01T10:07:24Z</time>
      </trkpt>
      <trkpt lat="45.71928" lon="6.57348">
        <ele>695.6</ele>
        <time>2021-06-01T10:07:25Z</time>
      </trkpt>
      <trkpt lat="45.71924" lon="6.57354">
        <ele>695.8</ele>
        <time>2021-06-01T10:07:26Z</time>
      </trkpt>
      <trkpt lat="45.71921" lon="6.5736">
        <ele>695.8</ele>
        <time>2021-06-01T10:07:27Z</time>
      </trkpt>
      <trkpt lat="45.71918" lon="6.57367">
        <ele>695.6</ele>
        <time>2021-06-01T10:07:28Z</time>
      </trkpt>
      <trkpt lat="45.71914" lon="6.57372">
        <ele>695.4</ele>
        <time>2021-06-01T10:07:29Z</time>
      </trkpt>
      <trkpt lat="45.7191" lon="6.57378">
        <ele>695.4</ele>
        <time>2021-06-01T10:07:30Z</time>
      </trkpt>
      <trkpt lat="45.71906" lon="6.57383">
        <ele>695.8</ele>
        <time>2021-06-01T10:07:31Z</time>
      </trkpt>
      <trkpt lat="45.719" lon="6.57386">
        <ele>696.6</ele>
        <time>2021-06-01T10:07:32Z</time>
      </trkpt>
      <trkpt lat="45.71896" lon="6.57389">
        <ele>697.4</ele>
        <time>2021-06-01T10:07:33Z</time>
      </trkpt>
      <trkpt lat="45.71891" lon="6.57391">
        <ele>698</ele>
        <time>2021-06-01T10:07:34Z</time>
      </trkpt>
      <trkpt lat="45.71886" lon="6.57391">
        <ele>698.8</ele>
        <time>2021-06-01T10:07:35Z</time>
      </trkpt>
      <trkpt lat="45.71882" lon="6.57392">
        <ele>699.2</ele>
        <time>2021-06-01T10:07:36Z</time>
      </trkpt>
      <trkpt lat="45.7188" lon="6.57394">
        <ele>699.2</ele>
        <time>2021-06-01T10:07:37Z</time>
      </trkpt>
      <trkpt lat="45.71876" lon="6.57397">
        <ele>698.8</ele>
        <time>2021-06-01T10:07:38Z</time>
      </trkpt>
      <trkpt lat="45.71874" lon="6.57401">
        <ele>698.4</ele>
        <time>2021-06-01T10:07:39Z</time>
      </trkpt>
      <trkpt lat="45.71871" lon="6.57405">
        <ele>698</ele>
        <time>2021-06-01T10:07:40Z</time>
      </trkpt>
      <trkpt lat="45.71868" lon="6.57409">
        <ele>697.8</ele>
        <time>2021-06-01T10:07:41Z</time>
      </trkpt>
      <trkpt lat="45.71866" lon="6.57414">
        <ele>697.8</ele>
        <time>2021-06-01T10:07:42Z</time>
      </trkpt>
      <trkpt lat="45.71864" lon="6.57418">
        <ele>698</ele>
        <time>2021-06-01T10:07:43Z</time>
      </trkpt>
      <trkpt lat="45.7186" lon="6.57423">
        <ele>698.2</ele>
        <time>2021-06-01T10:07:44Z</time>
      </trkpt>
      <trkpt lat="45.71858" lon="6.57428">
        <ele>698.6</ele>
        <time>2021-06-01T10:07:45Z</time>
      </trkpt>
      <trkpt lat="45.71854" lon="6.57433">
        <ele>698.8</ele>
        <time>2021-06-01T10:07:46Z</time>
      </trkpt>
      <trkpt lat="45.71851" lon="6.57438">
        <ele>698.6</ele>
        <time>2021-06-01T10:07:47Z</time>
      </trkpt>
      <trkpt lat="45.71847" lon="6.57443">
        <ele>698.4</ele>
        <time>2021-06-01T10:07:48Z</time>
      </trkpt>
      <trkpt lat="45.71843" lon="6.57448">
        <ele>698.4</ele>
        <time>2021-06-01T10:07:49Z</time>
      </trkpt>
      <trkpt lat="45.7184" lon="6.57451">
        <ele>698.2</ele>
        <time>2021-06-01T10:07:50Z</time>
      </trkpt>
      <trkpt lat="45.71837" lon="6.57456">
        <ele>697.6</ele>
        <time>2021-06-01T10:07:51Z</time>
      </trkpt>
      <trkpt lat="45.71834" lon="6.5746">
        <ele>697.2</ele>
        <time>2021-06-01T10:07:52Z</time>
      </trkpt>
      <trkpt lat="45.71831" lon="6.57465">
        <ele>697</ele>
        <time>2021-06-01T10:07:53Z</time>
      </trkpt>
      <trkpt lat="45.71827" lon="6.57469">
        <ele>697.6</ele>
        <time>2021-06-01T10:07:54Z</time>
      </trkpt>
      <trkpt lat="45.71824" lon="6.57473">
        <ele>697.8</ele>
        <time>2021-06-01T10:07:55Z</time>
      </trkpt>
      <trkpt lat="45.71821" lon="6.57477">
        <ele>697.6</ele>
        <time>2021-06-01T10:07:56Z</time>
      </trkpt>
      <trkpt lat="45.71818" lon="6.57481">
        <ele>697.8</ele>
        <time>2021-06-01T10:07:57Z</time>
      </trkpt>
      <trkpt lat="45.71814" lon="6.57486">
        <ele>697.8</ele>
        <time>2021-06-01T10:07:58Z</time>
      </trkpt>
      <trkpt lat="45.71811" lon="6.5749">
        <ele>697.6</ele>
        <time>2021-06-01T10:07:59Z</time>
      </trkpt>
      <trkpt lat="45.71808" lon="6.57493">
        <ele>697.6</ele>
        <time>2021-06-01T10:08:00Z</time>
      </trkpt>
      <trkpt lat="45.71805" lon="6.57494">
        <ele>697.8</ele>
        <time>2021-06-01T10:08:01Z</time>
      </trkpt>
      <trkpt lat="45.71803" lon="6.57494">
        <ele>698.2</ele>
        <time>2021-06-01T10:08:02Z</time>
      </trkpt>
      <trkpt lat="45.718" lon="6.57494">
        <ele>697.8</ele>
        <time>2021-06-01T10:08:03Z</time>
      </trkpt>
      <trkpt lat="45.71797" lon="6.57495">
        <ele>697.8</ele>
        <time>2021-06-01T10:08:04Z</time>
      </trkpt>
      <trkpt lat="45.71794" lon="6.57496">
        <ele>697.8</ele>
        <time>2021-06-01T10:08:05Z</time>
      </trkpt>
      <trkpt lat="45.71791" lon="6.57498">
        <ele>697.8</ele>
        <time>2021-06-01T10:08:06Z</time>
      </trkpt>
      <trkpt lat="45.71789" lon="6.57499">
        <ele>698</ele>
        <time>2021-06-01T10:08:07Z</time>
      </trkpt>
      <trkpt lat="45.71787" lon="6.57499">
        <ele>697.8</ele>
        <time>2021-06-01T10:08:09Z</time>
      </trkpt>
      <trkpt lat="45.71815" lon="6.57492">
        <ele>697.8</ele>
        <time>2021-06-01T10:10:12Z</time>
      </trkpt>
      <trkpt lat="45.71817" lon="6.57489">
        <ele>701.2</ele>
        <time>2021-06-01T10:10:14Z</time>
      </trkpt>
      <trkpt lat="45.71819" lon="6.57487">
        <ele>701</ele>
        <time>2021-06-01T10:10:15Z</time>
      </trkpt>
      <trkpt lat="45.71821" lon="6.57484">
        <ele>700.6</ele>
        <time>2021-06-01T10:10:16Z</time>
      </trkpt>
      <trkpt lat="45.71823" lon="6.57481">
        <ele>700.2</ele>
        <time>2021-06-01T10:10:17Z</time>
      </trkpt>
      <trkpt lat="45.71825" lon="6.57477">
        <ele>700.2</ele>
        <time>2021-06-01T10:10:18Z</time>
      </trkpt>
      <trkpt lat="45.71827" lon="6.57474">
        <ele>700</ele>
        <time>2021-06-01T10:10:19Z</time>
      </trkpt>
      <trkpt lat="45.7183" lon="6.57471">
        <ele>700.6</ele>
        <time>2021-06-01T10:10:20Z</time>
      </trkpt>
      <trkpt lat="45.71833" lon="6.57467">
        <ele>701.4</ele>
        <time>2021-06-01T10:10:21Z</time>
      </trkpt>
      <trkpt lat="45.71836" lon="6.57463">
        <ele>701.8</ele>
        <time>2021-06-01T10:10:22Z</time>
      </trkpt>
      <trkpt lat="45.71839" lon="6.5746">
        <ele>702.2</ele>
        <time>2021-06-01T10:10:23Z</time>
      </trkpt>
      <trkpt lat="45.71842" lon="6.57456">
        <ele>702.4</ele>
        <time>2021-06-01T10:10:24Z</time>
      </trkpt>
      <trkpt lat="45.71844" lon="6.57453">
        <ele>702.4</ele>
        <time>2021-06-01T10:10:25Z</time>
      </trkpt>
      <trkpt lat="45.71847" lon="6.57448">
        <ele>702.8</ele>
        <time>2021-06-01T10:10:26Z</time>
      </trkpt>
      <trkpt lat="45.71849" lon="6.57444">
        <ele>702.6</ele>
        <time>2021-06-01T10:10:27Z</time>
      </trkpt>
      <trkpt lat="45.71852" lon="6.5744">
        <ele>702.6</ele>
        <time>2021-06-01T10:10:28Z</time>
      </trkpt>
      <trkpt lat="45.71855" lon="6.57437">
        <ele>702.6</ele>
        <time>2021-06-01T10:10:29Z</time>
      </trkpt>
      <trkpt lat="45.71858" lon="6.57432">
        <ele>702.4</ele>
        <time>2021-06-01T10:10:30Z</time>
      </trkpt>
      <trkpt lat="45.7186" lon="6.57428">
        <ele>702.2</ele>
        <time>2021-06-01T10:10:31Z</time>
      </trkpt>
      <trkpt lat="45.71862" lon="6.57424">
        <ele>702.2</ele>
        <time>2021-06-01T10:10:32Z</time>
      </trkpt>
      <trkpt lat="45.71864" lon="6.57419">
        <ele>701.8</ele>
        <time>2021-06-01T10:10:33Z</time>
      </trkpt>
      <trkpt lat="45.71866" lon="6.57415">
        <ele>702</ele>
        <time>2021-06-01T10:10:34Z</time>
      </trkpt>
      <trkpt lat="45.71868" lon="6.57411">
        <ele>702</ele>
        <time>2021-06-01T10:10:35Z</time>
      </trkpt>
      <trkpt lat="45.7187" lon="6.57407">
        <ele>702</ele>
        <time>2021-06-01T10:10:36Z</time>
      </trkpt>
      <trkpt lat="45.71874" lon="6.57405">
        <ele>701.6</ele>
        <time>2021-06-01T10:10:37Z</time>
      </trkpt>
      <trkpt lat="45.71877" lon="6.57402">
        <ele>701.8</ele>
        <time>2021-06-01T10:10:38Z</time>
      </trkpt>
      <trkpt lat="45.71881" lon="6.574">
        <ele>702</ele>
        <time>2021-06-01T10:10:39Z</time>
      </trkpt>
      <trkpt lat="45.71884" lon="6.57398">
        <ele>702.4</ele>
        <time>2021-06-01T10:10:40Z</time>
      </trkpt>
      <trkpt lat="45.71888" lon="6.57395">
        <ele>702.6</ele>
        <time>2021-06-01T10:10:41Z</time>
      </trkpt>
      <trkpt lat="45.71892" lon="6.57384">
        <ele>702.6</ele>
        <time>2021-06-01T10:10:43Z</time>
      </trkpt>
      <trkpt lat="45.71892" lon="6.57378">
        <ele>702.6</ele>
        <time>2021-06-01T10:10:44Z</time>
      </trkpt>
      <trkpt lat="45.71892" lon="6.57373">
        <ele>702.6</ele>
        <time>2021-06-01T10:10:45Z</time>
      </trkpt>
      <trkpt lat="45.71892" lon="6.57369">
        <ele>702.6</ele>
        <time>2021-06-01T10:10:46Z</time>
      </trkpt>
      <trkpt lat="45.71891" lon="6.57366">
        <ele>703.2</ele>
        <time>2021-06-01T10:10:48Z</time>
      </trkpt>
      <trkpt lat="45.71891" lon="6.5737">
        <ele>702.6</ele>
        <time>2021-06-01T10:10:54Z</time>
      </trkpt>
      <trkpt lat="45.71892" lon="6.57374">
        <ele>702.4</ele>
        <time>2021-06-01T10:10:55Z</time>
      </trkpt>
      <trkpt lat="45.71892" lon="6.57377">
        <ele>702</ele>
        <time>2021-06-01T10:10:56Z</time>
      </trkpt>
      <trkpt lat="45.71892" lon="6.5738">
        <ele>701.8</ele>
        <time>2021-06-01T10:10:57Z</time>
      </trkpt>
      <trkpt lat="45.71892" lon="6.57383">
        <ele>701.2</ele>
        <time>2021-06-01T10:10:58Z</time>
      </trkpt>
      <trkpt lat="45.71893" lon="6.57387">
        <ele>701</ele>
        <time>2021-06-01T10:10:59Z</time>
      </trkpt>
      <trkpt lat="45.71893" lon="6.5739">
        <ele>700.6</ele>
        <time>2021-06-01T10:11:00Z</time>
      </trkpt>
      <trkpt lat="45.71892" lon="6.57395">
        <ele>700</ele>
        <time>2021-06-01T10:11:01Z</time>
      </trkpt>
      <trkpt lat="45.71892" lon="6.574">
        <ele>700</ele>
        <time>2021-06-01T10:11:02Z</time>
      </trkpt>
      <trkpt lat="45.7189" lon="6.57403">
        <ele>700</ele>
        <time>2021-06-01T10:11:03Z</time>
      </trkpt>
      <trkpt lat="45.71888" lon="6.57407">
        <ele>700</ele>
        <time>2021-06-01T10:11:04Z</time>
      </trkpt>
      <trkpt lat="45.71887" lon="6.5741">
        <ele>700.2</ele>
        <time>2021-06-01T10:11:05Z</time>
      </trkpt>
      <trkpt lat="45.71885" lon="6.57412">
        <ele>700</ele>
        <time>2021-06-01T10:11:06Z</time>
      </trkpt>
      <trkpt lat="45.71884" lon="6.57415">
        <ele>699.8</ele>
        <time>2021-06-01T10:11:07Z</time>
      </trkpt>
      <trkpt lat="45.71884" lon="6.57418">
        <ele>699.6</ele>
        <time>2021-06-01T10:11:08Z</time>
      </trkpt>
      <trkpt lat="45.71883" lon="6.57422">
        <ele>699.2</ele>
        <time>2021-06-01T10:11:10Z</time>
      </trkpt>
      <trkpt lat="45.71884" lon="6.57424">
        <ele>700.2</ele>
        <time>2021-06-01T10:11:12Z</time>
      </trkpt>
      <trkpt lat="45.71884" lon="6.57428">
        <ele>700.2</ele>
        <time>2021-06-01T10:11:14Z</time>
      </trkpt>
      <trkpt lat="45.71885" lon="6.57431">
        <ele>700.2</ele>
        <time>2021-06-01T10:11:15Z</time>
      </trkpt>
      <trkpt lat="45.71883" lon="6.57434">
        <ele>700</ele>
        <time>2021-06-01T10:11:17Z</time>
      </trkpt>
      <trkpt lat="45.71883" lon="6.57431">
        <ele>699.6</ele>
        <time>2021-06-01T10:11:23Z</time>
      </trkpt>
      <trkpt lat="45.71882" lon="6.57429">
        <ele>699.6</ele>
        <time>2021-06-01T10:11:24Z</time>
      </trkpt>
      <trkpt lat="45.71881" lon="6.57426">
        <ele>699.4</ele>
        <time>2021-06-01T10:11:25Z</time>
      </trkpt>
      <trkpt lat="45.7188" lon="6.57423">
        <ele>699.4</ele>
        <time>2021-06-01T10:11:26Z</time>
      </trkpt>
      <trkpt lat="45.71878" lon="6.5742">
        <ele>699.4</ele>
        <time>2021-06-01T10:11:27Z</time>
      </trkpt>
      <trkpt lat="45.71877" lon="6.57417">
        <ele>699.6</ele>
        <time>2021-06-01T10:11:29Z</time>
      </trkpt>
      <trkpt lat="45.71878" lon="6.57413">
        <ele>700.4</ele>
        <time>2021-06-01T10:11:31Z</time>
      </trkpt>
      <trkpt lat="45.71875" lon="6.57411">
        <ele>700.8</ele>
        <time>2021-06-01T10:11:33Z</time>
      </trkpt>
      <trkpt lat="45.71872" lon="6.57414">
        <ele>700.6</ele>
        <time>2021-06-01T10:11:35Z</time>
      </trkpt>
      <trkpt lat="45.7187" lon="6.57416">
        <ele>700.4</ele>
        <time>2021-06-01T10:11:36Z</time>
      </trkpt>
      <trkpt lat="45.71868" lon="6.57418">
        <ele>700.2</ele>
        <time>2021-06-01T10:11:37Z</time>
      </trkpt>
      <trkpt lat="45.71865" lon="6.5742">
        <ele>700</ele>
        <time>2021-06-01T10:11:38Z</time>
      </trkpt>
      <trkpt lat="45.71862" lon="6.57423">
        <ele>700</ele>
        <time>2021-06-01T10:11:39Z</time>
      </trkpt>
      <trkpt lat="45.71859" lon="6.57425">
        <ele>700.2</ele>
        <time>2021-06-01T10:11:40Z</time>
      </trkpt>
      <trkpt lat="45.71856" lon="6.57428">
        <ele>700.2</ele>
        <time>2021-06-01T10:11:41Z</time>
      </trkpt>
      <trkpt lat="45.71854" lon="6.57431">
        <ele>700.2</ele>
        <time>2021-06-01T10:11:42Z</time>
      </trkpt>
      <trkpt lat="45.71851" lon="6.57434">
        <ele>700</ele>
        <time>2021-06-01T10:11:43Z</time>
      </trkpt>
      <trkpt lat="45.71848" lon="6.57438">
        <ele>699.8</ele>
        <time>2021-06-01T10:11:44Z</time>
      </trkpt>
      <trkpt lat="45.71845" lon="6.57442">
        <ele>700</ele>
        <time>2021-06-01T10:11:45Z</time>
      </trkpt>
      <trkpt lat="45.71843" lon="6.57447">
        <ele>700.2</ele>
        <time>2021-06-01T10:11:46Z</time>
      </trkpt>
      <trkpt lat="45.7184" lon="6.57451">
        <ele>701</ele>
        <time>2021-06-01T10:11:47Z</time>
      </trkpt>
      <trkpt lat="45.71837" lon="6.57456">
        <ele>701.4</ele>
        <time>2021-06-01T10:11:48Z</time>
      </trkpt>
      <trkpt lat="45.71834" lon="6.5746">
        <ele>701.6</ele>
        <time>2021-06-01T10:11:49Z</time>
      </trkpt>
      <trkpt lat="45.71831" lon="6.57465">
        <ele>701.4</ele>
        <time>2021-06-01T10:11:50Z</time>
      </trkpt>
      <trkpt lat="45.71829" lon="6.57469">
        <ele>701.6</ele>
        <time>2021-06-01T10:11:51Z</time>
      </trkpt>
      <trkpt lat="45.71826" lon="6.57473">
        <ele>701.8</ele>
        <time>2021-06-01T10:11:52Z</time>
      </trkpt>
      <trkpt lat="45.71823" lon="6.57477">
        <ele>702.2</ele>
        <time>2021-06-01T10:11:53Z</time>
      </trkpt>
      <trkpt lat="45.71821" lon="6.57481">
        <ele>702.8</ele>
        <time>2021-06-01T10:11:54Z</time>
      </trkpt>
      <trkpt lat="45.71818" lon="6.57485">
        <ele>703.4</ele>
        <time>2021-06-01T10:11:55Z</time>
      </trkpt>
      <trkpt lat="45.71815" lon="6.5749">
        <ele>704</ele>
        <time>2021-06-01T10:11:56Z</time>
      </trkpt>
      <trkpt lat="45.71813" lon="6.57494">
        <ele>704.4</ele>
        <time>2021-06-01T10:11:57Z</time>
      </trkpt>
      <trkpt lat="45.7181" lon="6.57497">
        <ele>705.2</ele>
        <time>2021-06-01T10:11:58Z</time>
      </trkpt>
      <trkpt lat="45.71806" lon="6.57501">
        <ele>706</ele>
        <time>2021-06-01T10:11:59Z</time>
      </trkpt>
      <trkpt lat="45.71803" lon="6.57505">
        <ele>706.6</ele>
        <time>2021-06-01T10:12:00Z</time>
      </trkpt>
      <trkpt lat="45.718" lon="6.57509">
        <ele>707.8</ele>
        <time>2021-06-01T10:12:01Z</time>
      </trkpt>
      <trkpt lat="45.71796" lon="6.57514">
        <ele>708.6</ele>
        <time>2021-06-01T10:12:02Z</time>
      </trkpt>
      <trkpt lat="45.71793" lon="6.57518">
        <ele>709</ele>
        <time>2021-06-01T10:12:03Z</time>
      </trkpt>
      <trkpt lat="45.71789" lon="6.57522">
        <ele>709.6</ele>
        <time>2021-06-01T10:12:04Z</time>
      </trkpt>
      <trkpt lat="45.71786" lon="6.57526">
        <ele>710.2</ele>
        <time>2021-06-01T10:12:05Z</time>
      </trkpt>
      <trkpt lat="45.71783" lon="6.5753">
        <ele>710.6</ele>
        <time>2021-06-01T10:12:06Z</time>
      </trkpt>
      <trkpt lat="45.71779" lon="6.57534">
        <ele>711.2</ele>
        <time>2021-06-01T10:12:07Z</time>
      </trkpt>
      <trkpt lat="45.71775" lon="6.57537">
        <ele>711.6</ele>
        <time>2021-06-01T10:12:08Z</time>
      </trkpt>
      <trkpt lat="45.71771" lon="6.5754">
        <ele>711.8</ele>
        <time>2021-06-01T10:12:09Z</time>
      </trkpt>
      <trkpt lat="45.71768" lon="6.57542">
        <ele>712.2</ele>
        <time>2021-06-01T10:12:10Z</time>
      </trkpt>
      <trkpt lat="45.71764" lon="6.57545">
        <ele>712.6</ele>
        <time>2021-06-01T10:12:11Z</time>
      </trkpt>
      <trkpt lat="45.71761" lon="6.57547">
        <ele>713.2</ele>
        <time>2021-06-01T10:12:12Z</time>
      </trkpt>
      <trkpt lat="45.71757" lon="6.57549">
        <ele>713.4</ele>
        <time>2021-06-01T10:12:13Z</time>
      </trkpt>
      <trkpt lat="45.71753" lon="6.57551">
        <ele>713.2</ele>
        <time>2021-06-01T10:12:14Z</time>
      </trkpt>
      <trkpt lat="45.71749" lon="6.57553">
        <ele>713.6</ele>
        <time>2021-06-01T10:12:15Z</time>
      </trkpt>
      <trkpt lat="45.71745" lon="6.57555">
        <ele>713.2</ele>
        <time>2021-06-01T10:12:16Z</time>
      </trkpt>
      <trkpt lat="45.71742" lon="6.57556">
        <ele>712.4</ele>
        <time>2021-06-01T10:12:17Z</time>
      </trkpt>
      <trkpt lat="45.71738" lon="6.57558">
        <ele>711.6</ele>
        <time>2021-06-01T10:12:18Z</time>
      </trkpt>
      <trkpt lat="45.71735" lon="6.57559">
        <ele>711.2</ele>
        <time>2021-06-01T10:12:19Z</time>
      </trkpt>
      <trkpt lat="45.71731" lon="6.57561">
        <ele>711</ele>
        <time>2021-06-01T10:12:20Z</time>
      </trkpt>
      <trkpt lat="45.71727" lon="6.57562">
        <ele>711</ele>
        <time>2021-06-01T10:12:21Z</time>
      </trkpt>
      <trkpt lat="45.71724" lon="6.57564">
        <ele>711.4</ele>
        <time>2021-06-01T10:12:22Z</time>
      </trkpt>
      <trkpt lat="45.7172" lon="6.57566">
        <ele>711.6</ele>
        <time>2021-06-01T10:12:23Z</time>
      </trkpt>
      <trkpt lat="45.71716" lon="6.57568">
        <ele>711.8</ele>
        <time>2021-06-01T10:12:24Z</time>
      </trkpt>
      <trkpt lat="45.71713" lon="6.5757">
        <ele>712.4</ele>
        <time>2021-06-01T10:12:25Z</time>
      </trkpt>
      <trkpt lat="45.71709" lon="6.57573">
        <ele>712.8</ele>
        <time>2021-06-01T10:12:26Z</time>
      </trkpt>
      <trkpt lat="45.71706" lon="6.57577">
        <ele>713.4</ele>
        <time>2021-06-01T10:12:27Z</time>
      </trkpt>
      <trkpt lat="45.71701" lon="6.57579">
        <ele>713.6</ele>
        <time>2021-06-01T10:12:28Z</time>
      </trkpt>
      <trkpt lat="45.71698" lon="6.57582">
        <ele>714.2</ele>
        <time>2021-06-01T10:12:29Z</time>
      </trkpt>
      <trkpt lat="45.71695" lon="6.57586">
        <ele>714.4</ele>
        <time>2021-06-01T10:12:30Z</time>
      </trkpt>
      <trkpt lat="45.7169" lon="6.57589">
        <ele>714.6</ele>
        <time>2021-06-01T10:12:31Z</time>
      </trkpt>
      <trkpt lat="45.71686" lon="6.57592">
        <ele>715.2</ele>
        <time>2021-06-01T10:12:32Z</time>
      </trkpt>
      <trkpt lat="45.71682" lon="6.57595">
        <ele>715.6</ele>
        <time>2021-06-01T10:12:33Z</time>
      </trkpt>
      <trkpt lat="45.71678" lon="6.57598">
        <ele>715.6</ele>
        <time>2021-06-01T10:12:34Z</time>
      </trkpt>
      <trkpt lat="45.71674" lon="6.576">
        <ele>715.8</ele>
        <time>2021-06-01T10:12:35Z</time>
      </trkpt>
      <trkpt lat="45.7167" lon="6.57601">
        <ele>715.8</ele>
        <time>2021-06-01T10:12:36Z</time>
      </trkpt>
      <trkpt lat="45.71666" lon="6.57603">
        <ele>715.8</ele>
        <time>2021-06-01T10:12:37Z</time>
      </trkpt>
      <trkpt lat="45.71662" lon="6.57604">
        <ele>715.8</ele>
        <time>2021-06-01T10:12:38Z</time>
      </trkpt>
      <trkpt lat="45.71658" lon="6.57605">
        <ele>715.8</ele>
        <time>2021-06-01T10:12:39Z</time>
      </trkpt>
      <trkpt lat="45.71654" lon="6.57605">
        <ele>715.8</ele>
        <time>2021-06-01T10:12:40Z</time>
      </trkpt>
      <trkpt lat="45.7165" lon="6.57607">
        <ele>715.6</ele>
        <time>2021-06-01T10:12:41Z</time>
      </trkpt>
      <trkpt lat="45.71646" lon="6.57608">
        <ele>715.6</ele>
        <time>2021-06-01T10:12:42Z</time>
      </trkpt>
      <trkpt lat="45.71643" lon="6.5761">
        <ele>715.6</ele>
        <time>2021-06-01T10:12:43Z</time>
      </trkpt>
      <trkpt lat="45.71639" lon="6.57611">
        <ele>715.4</ele>
        <time>2021-06-01T10:12:44Z</time>
      </trkpt>
      <trkpt lat="45.71635" lon="6.57613">
        <ele>715.2</ele>
        <time>2021-06-01T10:12:45Z</time>
      </trkpt>
      <trkpt lat="45.71632" lon="6.57613">
        <ele>714.8</ele>
        <time>2021-06-01T10:12:46Z</time>
      </trkpt>
      <trkpt lat="45.71628" lon="6.57615">
        <ele>714.4</ele>
        <time>2021-06-01T10:12:47Z</time>
      </trkpt>
      <trkpt lat="45.71624" lon="6.57616">
        <ele>714.4</ele>
        <time>2021-06-01T10:12:48Z</time>
      </trkpt>
      <trkpt lat="45.7162" lon="6.57617">
        <ele>714.6</ele>
        <time>2021-06-01T10:12:49Z</time>
      </trkpt>
      <trkpt lat="45.71616" lon="6.57618">
        <ele>714.6</ele>
        <time>2021-06-01T10:12:50Z</time>
      </trkpt>
      <trkpt lat="45.71612" lon="6.57619">
        <ele>714.6</ele>
        <time>2021-06-01T10:12:51Z</time>
      </trkpt>
      <trkpt lat="45.71609" lon="6.57619">
        <ele>714.6</ele>
        <time>2021-06-01T10:12:52Z</time>
      </trkpt>
      <trkpt lat="45.71605" lon="6.5762">
        <ele>714.4</ele>
        <time>2021-06-01T10:12:53Z</time>
      </trkpt>
      <trkpt lat="45.71601" lon="6.57621">
        <ele>714.4</ele>
        <time>2021-06-01T10:12:54Z</time>
      </trkpt>
      <trkpt lat="45.71597" lon="6.57621">
        <ele>714.2</ele>
        <time>2021-06-01T10:12:55Z</time>
      </trkpt>
      <trkpt lat="45.71594" lon="6.57622">
        <ele>714.2</ele>
        <time>2021-06-01T10:12:56Z</time>
      </trkpt>
      <trkpt lat="45.7159" lon="6.57622">
        <ele>714.4</ele>
        <time>2021-06-01T10:12:57Z</time>
      </trkpt>
      <trkpt lat="45.71586" lon="6.57622">
        <ele>714.8</ele>
        <time>2021-06-01T10:12:58Z</time>
      </trkpt>
      <trkpt lat="45.71582" lon="6.57623">
        <ele>715</ele>
        <time>2021-06-01T10:12:59Z</time>
      </trkpt>
      <trkpt lat="45.71578" lon="6.57625">
        <ele>715.2</ele>
        <time>2021-06-01T10:13:00Z</time>
      </trkpt>
      <trkpt lat="45.71574" lon="6.57627">
        <ele>715.4</ele>
        <time>2021-06-01T10:13:01Z</time>
      </trkpt>
      <trkpt lat="45.7157" lon="6.57628">
        <ele>715.2</ele>
        <time>2021-06-01T10:13:02Z</time>
      </trkpt>
      <trkpt lat="45.71566" lon="6.57629">
        <ele>715.2</ele>
        <time>2021-06-01T10:13:03Z</time>
      </trkpt>
      <trkpt lat="45.71562" lon="6.57629">
        <ele>715</ele>
        <time>2021-06-01T10:13:04Z</time>
      </trkpt>
      <trkpt lat="45.71558" lon="6.57628">
        <ele>715</ele>
        <time>2021-06-01T10:13:05Z</time>
      </trkpt>
      <trkpt lat="45.71554" lon="6.57628">
        <ele>714.8</ele>
        <time>2021-06-01T10:13:06Z</time>
      </trkpt>
      <trkpt lat="45.7155" lon="6.57627">
        <ele>714.6</ele>
        <time>2021-06-01T10:13:07Z</time>
      </trkpt>
      <trkpt lat="45.71546" lon="6.57627">
        <ele>714.2</ele>
        <time>2021-06-01T10:13:08Z</time>
      </trkpt>
      <trkpt lat="45.71541" lon="6.57626">
        <ele>713.8</ele>
        <time>2021-06-01T10:13:09Z</time>
      </trkpt>
      <trkpt lat="45.71538" lon="6.57625">
        <ele>713.8</ele>
        <time>2021-06-01T10:13:10Z</time>
      </trkpt>
      <trkpt lat="45.71533" lon="6.57624">
        <ele>714.2</ele>
        <time>2021-06-01T10:13:11Z</time>
      </trkpt>
      <trkpt lat="45.7153" lon="6.57624">
        <ele>714.2</ele>
        <time>2021-06-01T10:13:12Z</time>
      </trkpt>
      <trkpt lat="45.71526" lon="6.57624">
        <ele>714</ele>
        <time>2021-06-01T10:13:13Z</time>
      </trkpt>
      <trkpt lat="45.71522" lon="6.57623">
        <ele>714</ele>
        <time>2021-06-01T10:13:14Z</time>
      </trkpt>
      <trkpt lat="45.71518" lon="6.57623">
        <ele>713.8</ele>
        <time>2021-06-01T10:13:15Z</time>
      </trkpt>
      <trkpt lat="45.71514" lon="6.57624">
        <ele>713.6</ele>
        <time>2021-06-01T10:13:16Z</time>
      </trkpt>
      <trkpt lat="45.7151" lon="6.57624">
        <ele>713.6</ele>
        <time>2021-06-01T10:13:17Z</time>
      </trkpt>
      <trkpt lat="45.71507" lon="6.57625">
        <ele>713.8</ele>
        <time>2021-06-01T10:13:18Z</time>
      </trkpt>
      <trkpt lat="45.71503" lon="6.57625">
        <ele>714</ele>
        <time>2021-06-01T10:13:19Z</time>
      </trkpt>
      <trkpt lat="45.71499" lon="6.57626">
        <ele>714</ele>
        <time>2021-06-01T10:13:20Z</time>
      </trkpt>
      <trkpt lat="45.71496" lon="6.57627">
        <ele>714.4</ele>
        <time>2021-06-01T10:13:21Z</time>
      </trkpt>
      <trkpt lat="45.71492" lon="6.57628">
        <ele>714.4</ele>
        <time>2021-06-01T10:13:22Z</time>
      </trkpt>
      <trkpt lat="45.71489" lon="6.5763">
        <ele>715</ele>
        <time>2021-06-01T10:13:23Z</time>
      </trkpt>
      <trkpt lat="45.71485" lon="6.57632">
        <ele>715.6</ele>
        <time>2021-06-01T10:13:24Z</time>
      </trkpt>
      <trkpt lat="45.71483" lon="6.57633">
        <ele>716.4</ele>
        <time>2021-06-01T10:13:25Z</time>
      </trkpt>
      <trkpt lat="45.71479" lon="6.57635">
        <ele>717.2</ele>
        <time>2021-06-01T10:13:26Z</time>
      </trkpt>
      <trkpt lat="45.71476" lon="6.57636">
        <ele>718</ele>
        <time>2021-06-01T10:13:27Z</time>
      </trkpt>
      <trkpt lat="45.71472" lon="6.57639">
        <ele>719</ele>
        <time>2021-06-01T10:13:28Z</time>
      </trkpt>
      <trkpt lat="45.71469" lon="6.5764">
        <ele>719.8</ele>
        <time>2021-06-01T10:13:29Z</time>
      </trkpt>
      <trkpt lat="45.71467" lon="6.57643">
        <ele>720.8</ele>
        <time>2021-06-01T10:13:30Z</time>
      </trkpt>
      <trkpt lat="45.71464" lon="6.57644">
        <ele>721.8</ele>
        <time>2021-06-01T10:13:31Z</time>
      </trkpt>
      <trkpt lat="45.71461" lon="6.57646">
        <ele>722.6</ele>
        <time>2021-06-01T10:13:32Z</time>
      </trkpt>
      <trkpt lat="45.71458" lon="6.57649">
        <ele>723.2</ele>
        <time>2021-06-01T10:13:33Z</time>
      </trkpt>
      <trkpt lat="45.71455" lon="6.57652">
        <ele>723.8</ele>
        <time>2021-06-01T10:13:34Z</time>
      </trkpt>
      <trkpt lat="45.71452" lon="6.57655">
        <ele>724.2</ele>
        <time>2021-06-01T10:13:35Z</time>
      </trkpt>
      <trkpt lat="45.71451" lon="6.57659">
        <ele>724.4</ele>
        <time>2021-06-01T10:13:36Z</time>
      </trkpt>
      <trkpt lat="45.71448" lon="6.57664">
        <ele>725</ele>
        <time>2021-06-01T10:13:37Z</time>
      </trkpt>
      <trkpt lat="45.71446" lon="6.5767">
        <ele>725.4</ele>
        <time>2021-06-01T10:13:38Z</time>
      </trkpt>
      <trkpt lat="45.71444" lon="6.57675">
        <ele>726</ele>
        <time>2021-06-01T10:13:39Z</time>
      </trkpt>
      <trkpt lat="45.71443" lon="6.57681">
        <ele>726.6</ele>
        <time>2021-06-01T10:13:40Z</time>
      </trkpt>
      <trkpt lat="45.71441" lon="6.57687">
        <ele>727</ele>
        <time>2021-06-01T10:13:41Z</time>
      </trkpt>
      <trkpt lat="45.7144" lon="6.57692">
        <ele>727.4</ele>
        <time>2021-06-01T10:13:42Z</time>
      </trkpt>
      <trkpt lat="45.71438" lon="6.57698">
        <ele>727.6</ele>
        <time>2021-06-01T10:13:43Z</time>
      </trkpt>
      <trkpt lat="45.71437" lon="6.57704">
        <ele>727.8</ele>
        <time>2021-06-01T10:13:44Z</time>
      </trkpt>
      <trkpt lat="45.71436" lon="6.57711">
        <ele>727.8</ele>
        <time>2021-06-01T10:13:45Z</time>
      </trkpt>
      <trkpt lat="45.71436" lon="6.57717">
        <ele>728.2</ele>
        <time>2021-06-01T10:13:46Z</time>
      </trkpt>
      <trkpt lat="45.71435" lon="6.57724">
        <ele>728.4</ele>
        <time>2021-06-01T10:13:47Z</time>
      </trkpt>
      <trkpt lat="45.71434" lon="6.5773">
        <ele>728.4</ele>
        <time>2021-06-01T10:13:48Z</time>
      </trkpt>
      <trkpt lat="45.71433" lon="6.57737">
        <ele>728.6</ele>
        <time>2021-06-01T10:13:49Z</time>
      </trkpt>
      <trkpt lat="45.71433" lon="6.57743">
        <ele>728.6</ele>
        <time>2021-06-01T10:13:50Z</time>
      </trkpt>
      <trkpt lat="45.71431" lon="6.57748">
        <ele>728.6</ele>
        <time>2021-06-01T10:13:51Z</time>
      </trkpt>
      <trkpt lat="45.7143" lon="6.57754">
        <ele>728.4</ele>
        <time>2021-06-01T10:13:52Z</time>
      </trkpt>
      <trkpt lat="45.71429" lon="6.5776">
        <ele>728.2</ele>
        <time>2021-06-01T10:13:53Z</time>
      </trkpt>
      <trkpt lat="45.71429" lon="6.57765">
        <ele>728</ele>
        <time>2021-06-01T10:13:54Z</time>
      </trkpt>
      <trkpt lat="45.71428" lon="6.57771">
        <ele>728</ele>
        <time>2021-06-01T10:13:55Z</time>
      </trkpt>
      <trkpt lat="45.71426" lon="6.57776">
        <ele>727.8</ele>
        <time>2021-06-01T10:13:56Z</time>
      </trkpt>
      <trkpt lat="45.71426" lon="6.57782">
        <ele>727.6</ele>
        <time>2021-06-01T10:13:57Z</time>
      </trkpt>
      <trkpt lat="45.71425" lon="6.57787">
        <ele>727.6</ele>
        <time>2021-06-01T10:13:58Z</time>
      </trkpt>
      <trkpt lat="45.71425" lon="6.57792">
        <ele>727.6</ele>
        <time>2021-06-01T10:13:59Z</time>
      </trkpt>
      <trkpt lat="45.71424" lon="6.57797">
        <ele>727.8</ele>
        <time>2021-06-01T10:14:00Z</time>
      </trkpt>
      <trkpt lat="45.71423" lon="6.57802">
        <ele>728.2</ele>
        <time>2021-06-01T10:14:01Z</time>
      </trkpt>
      <trkpt lat="45.71423" lon="6.57808">
        <ele>728.4</ele>
        <time>2021-06-01T10:14:02Z</time>
      </trkpt>
      <trkpt lat="45.71421" lon="6.57814">
        <ele>729</ele>
        <time>2021-06-01T10:14:03Z</time>
      </trkpt>
      <trkpt lat="45.7142" lon="6.5782">
        <ele>729.6</ele>
        <time>2021-06-01T10:14:04Z</time>
      </trkpt>
      <trkpt lat="45.7142" lon="6.57826">
        <ele>730</ele>
        <time>2021-06-01T10:14:05Z</time>
      </trkpt>
      <trkpt lat="45.71419" lon="6.57831">
        <ele>730.4</ele>
        <time>2021-06-01T10:14:06Z</time>
      </trkpt>
      <trkpt lat="45.71418" lon="6.57837">
        <ele>731</ele>
        <time>2021-06-01T10:14:07Z</time>
      </trkpt>
      <trkpt lat="45.71416" lon="6.57842">
        <ele>731.2</ele>
        <time>2021-06-01T10:14:08Z</time>
      </trkpt>
      <trkpt lat="45.71415" lon="6.57847">
        <ele>731.6</ele>
        <time>2021-06-01T10:14:09Z</time>
      </trkpt>
      <trkpt lat="45.71412" lon="6.57852">
        <ele>731.8</ele>
        <time>2021-06-01T10:14:10Z</time>
      </trkpt>
      <trkpt lat="45.7141" lon="6.57856">
        <ele>732.2</ele>
        <time>2021-06-01T10:14:11Z</time>
      </trkpt>
      <trkpt lat="45.71407" lon="6.57861">
        <ele>732.6</ele>
        <time>2021-06-01T10:14:12Z</time>
      </trkpt>
      <trkpt lat="45.71404" lon="6.57864">
        <ele>733</ele>
        <time>2021-06-01T10:14:13Z</time>
      </trkpt>
      <trkpt lat="45.71401" lon="6.57868">
        <ele>733.2</ele>
        <time>2021-06-01T10:14:14Z</time>
      </trkpt>
      <trkpt lat="45.71397" lon="6.57872">
        <ele>733.2</ele>
        <time>2021-06-01T10:14:15Z</time>
      </trkpt>
      <trkpt lat="45.71394" lon="6.57875">
        <ele>733.6</ele>
        <time>2021-06-01T10:14:16Z</time>
      </trkpt>
      <trkpt lat="45.7139" lon="6.57879">
        <ele>733.8</ele>
        <time>2021-06-01T10:14:17Z</time>
      </trkpt>
      <trkpt lat="45.71387" lon="6.57882">
        <ele>734.4</ele>
        <time>2021-06-01T10:14:18Z</time>
      </trkpt>
      <trkpt lat="45.71383" lon="6.57885">
        <ele>734.6</ele>
        <time>2021-06-01T10:14:19Z</time>
      </trkpt>
      <trkpt lat="45.7138" lon="6.57888">
        <ele>735</ele>
        <time>2021-06-01T10:14:20Z</time>
      </trkpt>
      <trkpt lat="45.71377" lon="6.57891">
        <ele>735.6</ele>
        <time>2021-06-01T10:14:21Z</time>
      </trkpt>
      <trkpt lat="45.71374" lon="6.57894">
        <ele>736.2</ele>
        <time>2021-06-01T10:14:22Z</time>
      </trkpt>
      <trkpt lat="45.7137" lon="6.57898">
        <ele>736.6</ele>
        <time>2021-06-01T10:14:23Z</time>
      </trkpt>
      <trkpt lat="45.71368" lon="6.57902">
        <ele>736.8</ele>
        <time>2021-06-01T10:14:24Z</time>
      </trkpt>
      <trkpt lat="45.71365" lon="6.57905">
        <ele>737</ele>
        <time>2021-06-01T10:14:25Z</time>
      </trkpt>
      <trkpt lat="45.71363" lon="6.57908">
        <ele>737.2</ele>
        <time>2021-06-01T10:14:26Z</time>
      </trkpt>
      <trkpt lat="45.71361" lon="6.5791">
        <ele>737.8</ele>
        <time>2021-06-01T10:14:27Z</time>
      </trkpt>
      <trkpt lat="45.71358" lon="6.57913">
        <ele>738.2</ele>
        <time>2021-06-01T10:14:28Z</time>
      </trkpt>
      <trkpt lat="45.71356" lon="6.57917">
        <ele>738.4</ele>
        <time>2021-06-01T10:14:29Z</time>
      </trkpt>
      <trkpt lat="45.71354" lon="6.57921">
        <ele>738.6</ele>
        <time>2021-06-01T10:14:30Z</time>
      </trkpt>
      <trkpt lat="45.71352" lon="6.57924">
        <ele>739</ele>
        <time>2021-06-01T10:14:31Z</time>
      </trkpt>
      <trkpt lat="45.7135" lon="6.57928">
        <ele>739.2</ele>
        <time>2021-06-01T10:14:32Z</time>
      </trkpt>
      <trkpt lat="45.71348" lon="6.57932">
        <ele>739.6</ele>
        <time>2021-06-01T10:14:33Z</time>
      </trkpt>
      <trkpt lat="45.71346" lon="6.57936">
        <ele>739.8</ele>
        <time>2021-06-01T10:14:34Z</time>
      </trkpt>
      <trkpt lat="45.71344" lon="6.57941">
        <ele>739.8</ele>
        <time>2021-06-01T10:14:35Z</time>
      </trkpt>
      <trkpt lat="45.71341" lon="6.57945">
        <ele>740</ele>
        <time>2021-06-01T10:14:36Z</time>
      </trkpt>
      <trkpt lat="45.7134" lon="6.57948">
        <ele>740</ele>
        <time>2021-06-01T10:14:37Z</time>
      </trkpt>
      <trkpt lat="45.71338" lon="6.57953">
        <ele>740.2</ele>
        <time>2021-06-01T10:14:38Z</time>
      </trkpt>
      <trkpt lat="45.71336" lon="6.57958">
        <ele>740.6</ele>
        <time>2021-06-01T10:14:39Z</time>
      </trkpt>
      <trkpt lat="45.71336" lon="6.57963">
        <ele>740.6</ele>
        <time>2021-06-01T10:14:40Z</time>
      </trkpt>
      <trkpt lat="45.71335" lon="6.57968">
        <ele>740.4</ele>
        <time>2021-06-01T10:14:41Z</time>
      </trkpt>
      <trkpt lat="45.71334" lon="6.57973">
        <ele>740.4</ele>
        <time>2021-06-01T10:14:42Z</time>
      </trkpt>
      <trkpt lat="45.71334" lon="6.57978">
        <ele>740.4</ele>
        <time>2021-06-01T10:14:43Z</time>
      </trkpt>
      <trkpt lat="45.71334" lon="6.57982">
        <ele>740.4</ele>
        <time>2021-06-01T10:14:44Z</time>
      </trkpt>
      <trkpt lat="45.71334" lon="6.57987">
        <ele>740.2</ele>
        <time>2021-06-01T10:14:45Z</time>
      </trkpt>
      <trkpt lat="45.71334" lon="6.57991">
        <ele>740</ele>
        <time>2021-06-01T10:14:46Z</time>
      </trkpt>
      <trkpt lat="45.71334" lon="6.57996">
        <ele>739.8</ele>
        <time>2021-06-01T10:14:47Z</time>
      </trkpt>
      <trkpt lat="45.71334" lon="6.57999">
        <ele>739.4</ele>
        <time>2021-06-01T10:14:48Z</time>
      </trkpt>
      <trkpt lat="45.71334" lon="6.58003">
        <ele>739.2</ele>
        <time>2021-06-01T10:14:49Z</time>
      </trkpt>
      <trkpt lat="45.71334" lon="6.58006">
        <ele>739</ele>
        <time>2021-06-01T10:14:50Z</time>
      </trkpt>
      <trkpt lat="45.71334" lon="6.58009">
        <ele>738.6</ele>
        <time>2021-06-01T10:14:51Z</time>
      </trkpt>
      <trkpt lat="45.71334" lon="6.58013">
        <ele>738</ele>
        <time>2021-06-01T10:14:52Z</time>
      </trkpt>
      <trkpt lat="45.71334" lon="6.58017">
        <ele>737.8</ele>
        <time>2021-06-01T10:14:53Z</time>
      </trkpt>
      <trkpt lat="45.71334" lon="6.58021">
        <ele>737.4</ele>
        <time>2021-06-01T10:14:54Z</time>
      </trkpt>
      <trkpt lat="45.71334" lon="6.58025">
        <ele>737</ele>
        <time>2021-06-01T10:14:55Z</time>
      </trkpt>
      <trkpt lat="45.71333" lon="6.5803">
        <ele>736.8</ele>
        <time>2021-06-01T10:14:56Z</time>
      </trkpt>
      <trkpt lat="45.71332" lon="6.58034">
        <ele>736.6</ele>
        <time>2021-06-01T10:14:57Z</time>
      </trkpt>
      <trkpt lat="45.71332" lon="6.58038">
        <ele>736.6</ele>
        <time>2021-06-01T10:14:58Z</time>
      </trkpt>
      <trkpt lat="45.71332" lon="6.58041">
        <ele>736.2</ele>
        <time>2021-06-01T10:14:59Z</time>
      </trkpt>
      <trkpt lat="45.71332" lon="6.58045">
        <ele>736</ele>
        <time>2021-06-01T10:15:00Z</time>
      </trkpt>
      <trkpt lat="45.71332" lon="6.58049">
        <ele>735.8</ele>
        <time>2021-06-01T10:15:01Z</time>
      </trkpt>
      <trkpt lat="45.71331" lon="6.58052">
        <ele>735.6</ele>
        <time>2021-06-01T10:15:02Z</time>
      </trkpt>
      <trkpt lat="45.7133" lon="6.58055">
        <ele>735.6</ele>
        <time>2021-06-01T10:15:03Z</time>
      </trkpt>
      <trkpt lat="45.7133" lon="6.58059">
        <ele>735.6</ele>
        <time>2021-06-01T10:15:04Z</time>
      </trkpt>
      <trkpt lat="45.71329" lon="6.58062">
        <ele>735.2</ele>
        <time>2021-06-01T10:15:05Z</time>
      </trkpt>
      <trkpt lat="45.71328" lon="6.58066">
        <ele>735.2</ele>
        <time>2021-06-01T10:15:06Z</time>
      </trkpt>
      <trkpt lat="45.71327" lon="6.5807">
        <ele>735.2</ele>
        <time>2021-06-01T10:15:07Z</time>
      </trkpt>
      <trkpt lat="45.71326" lon="6.58073">
        <ele>735.2</ele>
        <time>2021-06-01T10:15:08Z</time>
      </trkpt>
      <trkpt lat="45.71326" lon="6.58077">
        <ele>735.4</ele>
        <time>2021-06-01T10:15:09Z</time>
      </trkpt>
      <trkpt lat="45.71325" lon="6.58081">
        <ele>735.2</ele>
        <time>2021-06-01T10:15:10Z</time>
      </trkpt>
      <trkpt lat="45.71324" lon="6.58084">
        <ele>735.6</ele>
        <time>2021-06-01T10:15:11Z</time>
      </trkpt>
      <trkpt lat="45.71324" lon="6.58086">
        <ele>735.6</ele>
        <time>2021-06-01T10:15:12Z</time>
      </trkpt>
      <trkpt lat="45.71323" lon="6.58089">
        <ele>735.8</ele>
        <time>2021-06-01T10:15:13Z</time>
      </trkpt>
      <trkpt lat="45.71323" lon="6.58093">
        <ele>735.8</ele>
        <time>2021-06-01T10:15:14Z</time>
      </trkpt>
      <trkpt lat="45.71321" lon="6.58096">
        <ele>736</ele>
        <time>2021-06-01T10:15:15Z</time>
      </trkpt>
      <trkpt lat="45.7132" lon="6.58098">
        <ele>736</ele>
        <time>2021-06-01T10:15:16Z</time>
      </trkpt>
      <trkpt lat="45.71318" lon="6.58101">
        <ele>736</ele>
        <time>2021-06-01T10:15:17Z</time>
      </trkpt>
      <trkpt lat="45.71317" lon="6.58104">
        <ele>736</ele>
        <time>2021-06-01T10:15:18Z</time>
      </trkpt>
      <trkpt lat="45.71316" lon="6.58107">
        <ele>736.2</ele>
        <time>2021-06-01T10:15:19Z</time>
      </trkpt>
      <trkpt lat="45.71316" lon="6.58111">
        <ele>736.2</ele>
        <time>2021-06-01T10:15:20Z</time>
      </trkpt>
      <trkpt lat="45.71315" lon="6.58115">
        <ele>736.4</ele>
        <time>2021-06-01T10:15:21Z</time>
      </trkpt>
      <trkpt lat="45.71315" lon="6.58118">
        <ele>736.8</ele>
        <time>2021-06-01T10:15:22Z</time>
      </trkpt>
      <trkpt lat="45.71314" lon="6.58122">
        <ele>736.8</ele>
        <time>2021-06-01T10:15:23Z</time>
      </trkpt>
      <trkpt lat="45.71313" lon="6.58126">
        <ele>737</ele>
        <time>2021-06-01T10:15:24Z</time>
      </trkpt>
      <trkpt lat="45.71312" lon="6.58129">
        <ele>737</ele>
        <time>2021-06-01T10:15:25Z</time>
      </trkpt>
      <trkpt lat="45.71313" lon="6.58133">
        <ele>737</ele>
        <time>2021-06-01T10:15:26Z</time>
      </trkpt>
      <trkpt lat="45.71312" lon="6.58138">
        <ele>737.2</ele>
        <time>2021-06-01T10:15:27Z</time>
      </trkpt>
      <trkpt lat="45.71312" lon="6.58142">
        <ele>737.6</ele>
        <time>2021-06-01T10:15:28Z</time>
      </trkpt>
      <trkpt lat="45.71311" lon="6.58146">
        <ele>737.8</ele>
        <time>2021-06-01T10:15:29Z</time>
      </trkpt>
      <trkpt lat="45.7131" lon="6.5815">
        <ele>738</ele>
        <time>2021-06-01T10:15:30Z</time>
      </trkpt>
      <trkpt lat="45.7131" lon="6.58155">
        <ele>738.4</ele>
        <time>2021-06-01T10:15:31Z</time>
      </trkpt>
      <trkpt lat="45.71309" lon="6.58159">
        <ele>738.6</ele>
        <time>2021-06-01T10:15:32Z</time>
      </trkpt>
      <trkpt lat="45.71309" lon="6.58164">
        <ele>738.8</ele>
        <time>2021-06-01T10:15:33Z</time>
      </trkpt>
      <trkpt lat="45.71308" lon="6.58168">
        <ele>739.4</ele>
        <time>2021-06-01T10:15:34Z</time>
      </trkpt>
      <trkpt lat="45.71308" lon="6.58173">
        <ele>740.4</ele>
        <time>2021-06-01T10:15:35Z</time>
      </trkpt>
      <trkpt lat="45.71307" lon="6.58178">
        <ele>741.2</ele>
        <time>2021-06-01T10:15:36Z</time>
      </trkpt>
      <trkpt lat="45.71306" lon="6.58183">
        <ele>742</ele>
        <time>2021-06-01T10:15:37Z</time>
      </trkpt>
      <trkpt lat="45.71306" lon="6.58189">
        <ele>743</ele>
        <time>2021-06-01T10:15:38Z</time>
      </trkpt>
      <trkpt lat="45.71305" lon="6.58194">
        <ele>743.8</ele>
        <time>2021-06-01T10:15:39Z</time>
      </trkpt>
      <trkpt lat="45.71304" lon="6.58199">
        <ele>744.6</ele>
        <time>2021-06-01T10:15:40Z</time>
      </trkpt>
      <trkpt lat="45.71303" lon="6.58204">
        <ele>745.4</ele>
        <time>2021-06-01T10:15:41Z</time>
      </trkpt>
      <trkpt lat="45.71301" lon="6.58208">
        <ele>746.2</ele>
        <time>2021-06-01T10:15:42Z</time>
      </trkpt>
      <trkpt lat="45.713" lon="6.58213">
        <ele>747.2</ele>
        <time>2021-06-01T10:15:43Z</time>
      </trkpt>
      <trkpt lat="45.71298" lon="6.58217">
        <ele>747.8</ele>
        <time>2021-06-01T10:15:44Z</time>
      </trkpt>
      <trkpt lat="45.71297" lon="6.58221">
        <ele>748.8</ele>
        <time>2021-06-01T10:15:45Z</time>
      </trkpt>
      <trkpt lat="45.71295" lon="6.58226">
        <ele>749.4</ele>
        <time>2021-06-01T10:15:46Z</time>
      </trkpt>
      <trkpt lat="45.71292" lon="6.5823">
        <ele>750.2</ele>
        <time>2021-06-01T10:15:47Z</time>
      </trkpt>
      <trkpt lat="45.7129" lon="6.58235">
        <ele>751</ele>
        <time>2021-06-01T10:15:48Z</time>
      </trkpt>
      <trkpt lat="45.71288" lon="6.58239">
        <ele>751.6</ele>
        <time>2021-06-01T10:15:49Z</time>
      </trkpt>
      <trkpt lat="45.71286" lon="6.58243">
        <ele>752.2</ele>
        <time>2021-06-01T10:15:50Z</time>
      </trkpt>
      <trkpt lat="45.71284" lon="6.58247">
        <ele>752.6</ele>
        <time>2021-06-01T10:15:51Z</time>
      </trkpt>
      <trkpt lat="45.71282" lon="6.58252">
        <ele>753.4</ele>
        <time>2021-06-01T10:15:52Z</time>
      </trkpt>
      <trkpt lat="45.7128" lon="6.58256">
        <ele>754</ele>
        <time>2021-06-01T10:15:53Z</time>
      </trkpt>
      <trkpt lat="45.71278" lon="6.58261">
        <ele>754.6</ele>
        <time>2021-06-01T10:15:54Z</time>
      </trkpt>
      <trkpt lat="45.71276" lon="6.58265">
        <ele>755.2</ele>
        <time>2021-06-01T10:15:55Z</time>
      </trkpt>
      <trkpt lat="45.71274" lon="6.5827">
        <ele>755.8</ele>
        <time>2021-06-01T10:15:56Z</time>
      </trkpt>
      <trkpt lat="45.71273" lon="6.58275">
        <ele>756.6</ele>
        <time>2021-06-01T10:15:57Z</time>
      </trkpt>
      <trkpt lat="45.71272" lon="6.58279">
        <ele>757.4</ele>
        <time>2021-06-01T10:15:58Z</time>
      </trkpt>
      <trkpt lat="45.7127" lon="6.58284">
        <ele>758</ele>
        <time>2021-06-01T10:15:59Z</time>
      </trkpt>
      <trkpt lat="45.71269" lon="6.58288">
        <ele>758.6</ele>
        <time>2021-06-01T10:16:00Z</time>
      </trkpt>
      <trkpt lat="45.71267" lon="6.58293">
        <ele>759</ele>
        <time>2021-06-01T10:16:01Z</time>
      </trkpt>
      <trkpt lat="45.71265" lon="6.58297">
        <ele>759.2</ele>
        <time>2021-06-01T10:16:02Z</time>
      </trkpt>
      <trkpt lat="45.71264" lon="6.58302">
        <ele>759.6</ele>
        <time>2021-06-01T10:16:03Z</time>
      </trkpt>
      <trkpt lat="45.71263" lon="6.58306">
        <ele>760</ele>
        <time>2021-06-01T10:16:04Z</time>
      </trkpt>
      <trkpt lat="45.71261" lon="6.5831">
        <ele>760.2</ele>
        <time>2021-06-01T10:16:05Z</time>
      </trkpt>
      <trkpt lat="45.71259" lon="6.58315">
        <ele>760.4</ele>
        <time>2021-06-01T10:16:06Z</time>
      </trkpt>
      <trkpt lat="45.71258" lon="6.58319">
        <ele>760.6</ele>
        <time>2021-06-01T10:16:07Z</time>
      </trkpt>
      <trkpt lat="45.71256" lon="6.58322">
        <ele>760.6</ele>
        <time>2021-06-01T10:16:08Z</time>
      </trkpt>
      <trkpt lat="45.71255" lon="6.58325">
        <ele>760</ele>
        <time>2021-06-01T10:16:09Z</time>
      </trkpt>
      <trkpt lat="45.71255" lon="6.58328">
        <ele>759.4</ele>
        <time>2021-06-01T10:16:10Z</time>
      </trkpt>
      <trkpt lat="45.71255" lon="6.58332">
        <ele>757.8</ele>
        <time>2021-06-01T10:16:12Z</time>
      </trkpt>
      <trkpt lat="45.71254" lon="6.58336">
        <ele>756.6</ele>
        <time>2021-06-01T10:16:14Z</time>
      </trkpt>
      <trkpt lat="45.71253" lon="6.5834">
        <ele>755.6</ele>
        <time>2021-06-01T10:16:16Z</time>
      </trkpt>
      <trkpt lat="45.71252" lon="6.58344">
        <ele>754.6</ele>
        <time>2021-06-01T10:16:18Z</time>
      </trkpt>
      <trkpt lat="45.7125" lon="6.58349">
        <ele>753.8</ele>
        <time>2021-06-01T10:16:20Z</time>
      </trkpt>
      <trkpt lat="45.71249" lon="6.58352">
        <ele>753.6</ele>
        <time>2021-06-01T10:16:21Z</time>
      </trkpt>
      <trkpt lat="45.71249" lon="6.58355">
        <ele>753.4</ele>
        <time>2021-06-01T10:16:22Z</time>
      </trkpt>
      <trkpt lat="45.71247" lon="6.58358">
        <ele>753</ele>
        <time>2021-06-01T10:16:23Z</time>
      </trkpt>
      <trkpt lat="45.71246" lon="6.5836">
        <ele>752.8</ele>
        <time>2021-06-01T10:16:24Z</time>
      </trkpt>
      <trkpt lat="45.71244" lon="6.58363">
        <ele>752.6</ele>
        <time>2021-06-01T10:16:25Z</time>
      </trkpt>
      <trkpt lat="45.71243" lon="6.58366">
        <ele>752.4</ele>
        <time>2021-06-01T10:16:26Z</time>
      </trkpt>
      <trkpt lat="45.7124" lon="6.58368">
        <ele>752.4</ele>
        <time>2021-06-01T10:16:27Z</time>
      </trkpt>
      <trkpt lat="45.71238" lon="6.58372">
        <ele>752.2</ele>
        <time>2021-06-01T10:16:28Z</time>
      </trkpt>
      <trkpt lat="45.71237" lon="6.58375">
        <ele>752.2</ele>
        <time>2021-06-01T10:16:29Z</time>
      </trkpt>
      <trkpt lat="45.71235" lon="6.58379">
        <ele>752.2</ele>
        <time>2021-06-01T10:16:30Z</time>
      </trkpt>
      <trkpt lat="45.71233" lon="6.58381">
        <ele>752.4</ele>
        <time>2021-06-01T10:16:31Z</time>
      </trkpt>
      <trkpt lat="45.71231" lon="6.58385">
        <ele>752.4</ele>
        <time>2021-06-01T10:16:32Z</time>
      </trkpt>
      <trkpt lat="45.71229" lon="6.58389">
        <ele>752.4</ele>
        <time>2021-06-01T10:16:33Z</time>
      </trkpt>
      <trkpt lat="45.71228" lon="6.58393">
        <ele>752.4</ele>
        <time>2021-06-01T10:16:34Z</time>
      </trkpt>
      <trkpt lat="45.71227" lon="6.58397">
        <ele>752.6</ele>
        <time>2021-06-01T10:16:35Z</time>
      </trkpt>
      <trkpt lat="45.71225" lon="6.58401">
        <ele>752.6</ele>
        <time>2021-06-01T10:16:36Z</time>
      </trkpt>
      <trkpt lat="45.71223" lon="6.58405">
        <ele>752.8</ele>
        <time>2021-06-01T10:16:37Z</time>
      </trkpt>
      <trkpt lat="45.71222" lon="6.58409">
        <ele>753</ele>
        <time>2021-06-01T10:16:38Z</time>
      </trkpt>
      <trkpt lat="45.7122" lon="6.58412">
        <ele>753.2</ele>
        <time>2021-06-01T10:16:39Z</time>
      </trkpt>
      <trkpt lat="45.71219" lon="6.58416">
        <ele>753.2</ele>
        <time>2021-06-01T10:16:40Z</time>
      </trkpt>
      <trkpt lat="45.71217" lon="6.5842">
        <ele>753.4</ele>
        <time>2021-06-01T10:16:41Z</time>
      </trkpt>
      <trkpt lat="45.71215" lon="6.58424">
        <ele>753.8</ele>
        <time>2021-06-01T10:16:42Z</time>
      </trkpt>
      <trkpt lat="45.71213" lon="6.58427">
        <ele>754.2</ele>
        <time>2021-06-01T10:16:43Z</time>
      </trkpt>
      <trkpt lat="45.71212" lon="6.58432">
        <ele>754.6</ele>
        <time>2021-06-01T10:16:44Z</time>
      </trkpt>
      <trkpt lat="45.7121" lon="6.58436">
        <ele>754.8</ele>
        <time>2021-06-01T10:16:45Z</time>
      </trkpt>
      <trkpt lat="45.71209" lon="6.58441">
        <ele>755.4</ele>
        <time>2021-06-01T10:16:46Z</time>
      </trkpt>
      <trkpt lat="45.71209" lon="6.58447">
        <ele>756.6</ele>
        <time>2021-06-01T10:16:47Z</time>
      </trkpt>
      <trkpt lat="45.71208" lon="6.58452">
        <ele>757.8</ele>
        <time>2021-06-01T10:16:48Z</time>
      </trkpt>
      <trkpt lat="45.71207" lon="6.58456">
        <ele>758.8</ele>
        <time>2021-06-01T10:16:49Z</time>
      </trkpt>
      <trkpt lat="45.71207" lon="6.58461">
        <ele>760.2</ele>
        <time>2021-06-01T10:16:50Z</time>
      </trkpt>
      <trkpt lat="45.71206" lon="6.58466">
        <ele>761.2</ele>
        <time>2021-06-01T10:16:51Z</time>
      </trkpt>
      <trkpt lat="45.71205" lon="6.58469">
        <ele>762.4</ele>
        <time>2021-06-01T10:16:52Z</time>
      </trkpt>
      <trkpt lat="45.71205" lon="6.58474">
        <ele>763.2</ele>
        <time>2021-06-01T10:16:53Z</time>
      </trkpt>
      <trkpt lat="45.71205" lon="6.58479">
        <ele>764.2</ele>
        <time>2021-06-01T10:16:54Z</time>
      </trkpt>
      <trkpt lat="45.71205" lon="6.58485">
        <ele>765</ele>
        <time>2021-06-01T10:16:55Z</time>
      </trkpt>
      <trkpt lat="45.71205" lon="6.5849">
        <ele>766</ele>
        <time>2021-06-01T10:16:56Z</time>
      </trkpt>
      <trkpt lat="45.71206" lon="6.58495">
        <ele>766.8</ele>
        <time>2021-06-01T10:16:57Z</time>
      </trkpt>
      <trkpt lat="45.71206" lon="6.585">
        <ele>767.6</ele>
        <time>2021-06-01T10:16:58Z</time>
      </trkpt>
      <trkpt lat="45.71206" lon="6.58505">
        <ele>768.2</ele>
        <time>2021-06-01T10:16:59Z</time>
      </trkpt>
      <trkpt lat="45.71206" lon="6.58509">
        <ele>769</ele>
        <time>2021-06-01T10:17:00Z</time>
      </trkpt>
      <trkpt lat="45.71206" lon="6.58513">
        <ele>769.6</ele>
        <time>2021-06-01T10:17:01Z</time>
      </trkpt>
      <trkpt lat="45.71205" lon="6.58517">
        <ele>770.2</ele>
        <time>2021-06-01T10:17:02Z</time>
      </trkpt>
      <trkpt lat="45.71205" lon="6.58522">
        <ele>770.8</ele>
        <time>2021-06-01T10:17:03Z</time>
      </trkpt>
      <trkpt lat="45.71204" lon="6.58526">
        <ele>771.4</ele>
        <time>2021-06-01T10:17:04Z</time>
      </trkpt>
      <trkpt lat="45.71204" lon="6.58531">
        <ele>772</ele>
        <time>2021-06-01T10:17:05Z</time>
      </trkpt>
      <trkpt lat="45.71203" lon="6.58535">
        <ele>772.6</ele>
        <time>2021-06-01T10:17:06Z</time>
      </trkpt>
      <trkpt lat="45.71202" lon="6.58539">
        <ele>773</ele>
        <time>2021-06-01T10:17:07Z</time>
      </trkpt>
      <trkpt lat="45.71201" lon="6.58543">
        <ele>773.6</ele>
        <time>2021-06-01T10:17:08Z</time>
      </trkpt>
      <trkpt lat="45.71201" lon="6.58547">
        <ele>774</ele>
        <time>2021-06-01T10:17:09Z</time>
      </trkpt>
      <trkpt lat="45.71199" lon="6.58551">
        <ele>774.6</ele>
        <time>2021-06-01T10:17:10Z</time>
      </trkpt>
      <trkpt lat="45.71199" lon="6.58556">
        <ele>774.8</ele>
        <time>2021-06-01T10:17:11Z</time>
      </trkpt>
      <trkpt lat="45.71199" lon="6.58562">
        <ele>775.2</ele>
        <time>2021-06-01T10:17:12Z</time>
      </trkpt>
      <trkpt lat="45.71199" lon="6.58568">
        <ele>775.6</ele>
        <time>2021-06-01T10:17:13Z</time>
      </trkpt>
      <trkpt lat="45.712" lon="6.58575">
        <ele>776.2</ele>
        <time>2021-06-01T10:17:14Z</time>
      </trkpt>
      <trkpt lat="45.712" lon="6.5858">
        <ele>776.4</ele>
        <time>2021-06-01T10:17:15Z</time>
      </trkpt>
      <trkpt lat="45.71199" lon="6.58584">
        <ele>777</ele>
        <time>2021-06-01T10:17:16Z</time>
      </trkpt>
      <trkpt lat="45.71198" lon="6.58588">
        <ele>777.4</ele>
        <time>2021-06-01T10:17:17Z</time>
      </trkpt>
      <trkpt lat="45.71197" lon="6.58592">
        <ele>777.8</ele>
        <time>2021-06-01T10:17:18Z</time>
      </trkpt>
      <trkpt lat="45.71196" lon="6.58596">
        <ele>778.4</ele>
        <time>2021-06-01T10:17:19Z</time>
      </trkpt>
      <trkpt lat="45.71195" lon="6.586">
        <ele>778.8</ele>
        <time>2021-06-01T10:17:20Z</time>
      </trkpt>
      <trkpt lat="45.71194" lon="6.58605">
        <ele>779.4</ele>
        <time>2021-06-01T10:17:21Z</time>
      </trkpt>
      <trkpt lat="45.71193" lon="6.58609">
        <ele>779.6</ele>
        <time>2021-06-01T10:17:22Z</time>
      </trkpt>
      <trkpt lat="45.71193" lon="6.58613">
        <ele>780</ele>
        <time>2021-06-01T10:17:23Z</time>
      </trkpt>
      <trkpt lat="45.71193" lon="6.58618">
        <ele>780.2</ele>
        <time>2021-06-01T10:17:24Z</time>
      </trkpt>
      <trkpt lat="45.71192" lon="6.58622">
        <ele>780.2</ele>
        <time>2021-06-01T10:17:25Z</time>
      </trkpt>
      <trkpt lat="45.71191" lon="6.58627">
        <ele>780.4</ele>
        <time>2021-06-01T10:17:26Z</time>
      </trkpt>
      <trkpt lat="45.71189" lon="6.58632">
        <ele>780.4</ele>
        <time>2021-06-01T10:17:27Z</time>
      </trkpt>
      <trkpt lat="45.71188" lon="6.58636">
        <ele>780.2</ele>
        <time>2021-06-01T10:17:28Z</time>
      </trkpt>
      <trkpt lat="45.71188" lon="6.58641">
        <ele>779.8</ele>
        <time>2021-06-01T10:17:29Z</time>
      </trkpt>
      <trkpt lat="45.71188" lon="6.58644">
        <ele>779.8</ele>
        <time>2021-06-01T10:17:30Z</time>
      </trkpt>
      <trkpt lat="45.71187" lon="6.58648">
        <ele>779.6</ele>
        <time>2021-06-01T10:17:31Z</time>
      </trkpt>
      <trkpt lat="45.71186" lon="6.5865">
        <ele>779</ele>
        <time>2021-06-01T10:17:32Z</time>
      </trkpt>
      <trkpt lat="45.71183" lon="6.58654">
        <ele>778</ele>
        <time>2021-06-01T10:17:34Z</time>
      </trkpt>
      <trkpt lat="45.71183" lon="6.58658">
        <ele>777</ele>
        <time>2021-06-01T10:17:36Z</time>
      </trkpt>
      <trkpt lat="45.71182" lon="6.58661">
        <ele>776</ele>
        <time>2021-06-01T10:17:37Z</time>
      </trkpt>
      <trkpt lat="45.71181" lon="6.58664">
        <ele>775.4</ele>
        <time>2021-06-01T10:17:38Z</time>
      </trkpt>
      <trkpt lat="45.71181" lon="6.58667">
        <ele>774.6</ele>
        <time>2021-06-01T10:17:39Z</time>
      </trkpt>
      <trkpt lat="45.7118" lon="6.58671">
        <ele>774</ele>
        <time>2021-06-01T10:17:40Z</time>
      </trkpt>
      <trkpt lat="45.71179" lon="6.58675">
        <ele>774</ele>
        <time>2021-06-01T10:17:41Z</time>
      </trkpt>
      <trkpt lat="45.71178" lon="6.58679">
        <ele>774.2</ele>
        <time>2021-06-01T10:17:42Z</time>
      </trkpt>
      <trkpt lat="45.71175" lon="6.58683">
        <ele>774.4</ele>
        <time>2021-06-01T10:17:43Z</time>
      </trkpt>
      <trkpt lat="45.71173" lon="6.58688">
        <ele>774.8</ele>
        <time>2021-06-01T10:17:44Z</time>
      </trkpt>
      <trkpt lat="45.71172" lon="6.58693">
        <ele>775.2</ele>
        <time>2021-06-01T10:17:45Z</time>
      </trkpt>
      <trkpt lat="45.71171" lon="6.58697">
        <ele>775.4</ele>
        <time>2021-06-01T10:17:46Z</time>
      </trkpt>
      <trkpt lat="45.7117" lon="6.58701">
        <ele>775.6</ele>
        <time>2021-06-01T10:17:47Z</time>
      </trkpt>
      <trkpt lat="45.71169" lon="6.58704">
        <ele>775.6</ele>
        <time>2021-06-01T10:17:48Z</time>
      </trkpt>
      <trkpt lat="45.71167" lon="6.58708">
        <ele>776</ele>
        <time>2021-06-01T10:17:49Z</time>
      </trkpt>
      <trkpt lat="45.71165" lon="6.58712">
        <ele>776.2</ele>
        <time>2021-06-01T10:17:50Z</time>
      </trkpt>
      <trkpt lat="45.71163" lon="6.58716">
        <ele>776.6</ele>
        <time>2021-06-01T10:17:51Z</time>
      </trkpt>
      <trkpt lat="45.71162" lon="6.5872">
        <ele>777.2</ele>
        <time>2021-06-01T10:17:52Z</time>
      </trkpt>
      <trkpt lat="45.71161" lon="6.58725">
        <ele>778</ele>
        <time>2021-06-01T10:17:53Z</time>
      </trkpt>
      <trkpt lat="45.71159" lon="6.5873">
        <ele>778.8</ele>
        <time>2021-06-01T10:17:54Z</time>
      </trkpt>
      <trkpt lat="45.71157" lon="6.58734">
        <ele>779.6</ele>
        <time>2021-06-01T10:17:55Z</time>
      </trkpt>
      <trkpt lat="45.71156" lon="6.58739">
        <ele>780</ele>
        <time>2021-06-01T10:17:56Z</time>
      </trkpt>
      <trkpt lat="45.71155" lon="6.58744">
        <ele>780.4</ele>
        <time>2021-06-01T10:17:57Z</time>
      </trkpt>
      <trkpt lat="45.71154" lon="6.58749">
        <ele>780.6</ele>
        <time>2021-06-01T10:17:58Z</time>
      </trkpt>
      <trkpt lat="45.71152" lon="6.58753">
        <ele>780.8</ele>
        <time>2021-06-01T10:17:59Z</time>
      </trkpt>
      <trkpt lat="45.71151" lon="6.58758">
        <ele>780.8</ele>
        <time>2021-06-01T10:18:00Z</time>
      </trkpt>
      <trkpt lat="45.71149" lon="6.58763">
        <ele>781</ele>
        <time>2021-06-01T10:18:01Z</time>
      </trkpt>
      <trkpt lat="45.71148" lon="6.58768">
        <ele>781.4</ele>
        <time>2021-06-01T10:18:02Z</time>
      </trkpt>
      <trkpt lat="45.71147" lon="6.58772">
        <ele>781.8</ele>
        <time>2021-06-01T10:18:03Z</time>
      </trkpt>
      <trkpt lat="45.71146" lon="6.58778">
        <ele>782.2</ele>
        <time>2021-06-01T10:18:04Z</time>
      </trkpt>
      <trkpt lat="45.71145" lon="6.58783">
        <ele>782.8</ele>
        <time>2021-06-01T10:18:05Z</time>
      </trkpt>
      <trkpt lat="45.71144" lon="6.58789">
        <ele>783.2</ele>
        <time>2021-06-01T10:18:06Z</time>
      </trkpt>
      <trkpt lat="45.71143" lon="6.58795">
        <ele>783.8</ele>
        <time>2021-06-01T10:18:07Z</time>
      </trkpt>
      <trkpt lat="45.71143" lon="6.588">
        <ele>784.4</ele>
        <time>2021-06-01T10:18:08Z</time>
      </trkpt>
      <trkpt lat="45.71141" lon="6.58804">
        <ele>784.8</ele>
        <time>2021-06-01T10:18:09Z</time>
      </trkpt>
      <trkpt lat="45.7114" lon="6.58809">
        <ele>785.6</ele>
        <time>2021-06-01T10:18:10Z</time>
      </trkpt>
      <trkpt lat="45.71139" lon="6.58814">
        <ele>786</ele>
        <time>2021-06-01T10:18:11Z</time>
      </trkpt>
      <trkpt lat="45.71138" lon="6.58819">
        <ele>786.6</ele>
        <time>2021-06-01T10:18:12Z</time>
      </trkpt>
      <trkpt lat="45.71136" lon="6.58824">
        <ele>787.2</ele>
        <time>2021-06-01T10:18:13Z</time>
      </trkpt>
      <trkpt lat="45.71134" lon="6.58829">
        <ele>787.6</ele>
        <time>2021-06-01T10:18:14Z</time>
      </trkpt>
      <trkpt lat="45.71133" lon="6.58834">
        <ele>788.4</ele>
        <time>2021-06-01T10:18:15Z</time>
      </trkpt>
      <trkpt lat="45.7113" lon="6.58838">
        <ele>788.8</ele>
        <time>2021-06-01T10:18:16Z</time>
      </trkpt>
      <trkpt lat="45.71129" lon="6.58843">
        <ele>789.2</ele>
        <time>2021-06-01T10:18:17Z</time>
      </trkpt>
      <trkpt lat="45.71127" lon="6.58847">
        <ele>789.6</ele>
        <time>2021-06-01T10:18:18Z</time>
      </trkpt>
      <trkpt lat="45.71126" lon="6.58851">
        <ele>790</ele>
        <time>2021-06-01T10:18:19Z</time>
      </trkpt>
      <trkpt lat="45.71124" lon="6.58856">
        <ele>790.4</ele>
        <time>2021-06-01T10:18:20Z</time>
      </trkpt>
      <trkpt lat="45.71123" lon="6.58861">
        <ele>790.8</ele>
        <time>2021-06-01T10:18:21Z</time>
      </trkpt>
      <trkpt lat="45.71122" lon="6.58866">
        <ele>791.2</ele>
        <time>2021-06-01T10:18:22Z</time>
      </trkpt>
      <trkpt lat="45.7112" lon="6.58871">
        <ele>791.4</ele>
        <time>2021-06-01T10:18:23Z</time>
      </trkpt>
      <trkpt lat="45.71118" lon="6.58876">
        <ele>792</ele>
        <time>2021-06-01T10:18:24Z</time>
      </trkpt>
      <trkpt lat="45.71117" lon="6.5888">
        <ele>792.4</ele>
        <time>2021-06-01T10:18:25Z</time>
      </trkpt>
      <trkpt lat="45.71115" lon="6.58883">
        <ele>792.8</ele>
        <time>2021-06-01T10:18:26Z</time>
      </trkpt>
      <trkpt lat="45.71113" lon="6.58888">
        <ele>793.4</ele>
        <time>2021-06-01T10:18:27Z</time>
      </trkpt>
      <trkpt lat="45.71112" lon="6.58892">
        <ele>793.6</ele>
        <time>2021-06-01T10:18:28Z</time>
      </trkpt>
      <trkpt lat="45.7111" lon="6.58896">
        <ele>794</ele>
        <time>2021-06-01T10:18:29Z</time>
      </trkpt>
      <trkpt lat="45.71109" lon="6.589">
        <ele>794.2</ele>
        <time>2021-06-01T10:18:30Z</time>
      </trkpt>
      <trkpt lat="45.71108" lon="6.58905">
        <ele>794.6</ele>
        <time>2021-06-01T10:18:31Z</time>
      </trkpt>
      <trkpt lat="45.71107" lon="6.5891">
        <ele>794.8</ele>
        <time>2021-06-01T10:18:32Z</time>
      </trkpt>
      <trkpt lat="45.71106" lon="6.58914">
        <ele>795.2</ele>
        <time>2021-06-01T10:18:33Z</time>
      </trkpt>
      <trkpt lat="45.71104" lon="6.58918">
        <ele>795.4</ele>
        <time>2021-06-01T10:18:34Z</time>
      </trkpt>
      <trkpt lat="45.71102" lon="6.58922">
        <ele>796.2</ele>
        <time>2021-06-01T10:18:35Z</time>
      </trkpt>
      <trkpt lat="45.711" lon="6.58926">
        <ele>796.4</ele>
        <time>2021-06-01T10:18:36Z</time>
      </trkpt>
      <trkpt lat="45.71098" lon="6.5893">
        <ele>796.8</ele>
        <time>2021-06-01T10:18:37Z</time>
      </trkpt>
      <trkpt lat="45.71096" lon="6.58934">
        <ele>797.2</ele>
        <time>2021-06-01T10:18:38Z</time>
      </trkpt>
      <trkpt lat="45.71093" lon="6.58937">
        <ele>797.6</ele>
        <time>2021-06-01T10:18:39Z</time>
      </trkpt>
      <trkpt lat="45.7109" lon="6.58939">
        <ele>798.2</ele>
        <time>2021-06-01T10:18:40Z</time>
      </trkpt>
      <trkpt lat="45.71088" lon="6.58941">
        <ele>798.8</ele>
        <time>2021-06-01T10:18:41Z</time>
      </trkpt>
      <trkpt lat="45.71085" lon="6.58944">
        <ele>799.2</ele>
        <time>2021-06-01T10:18:42Z</time>
      </trkpt>
      <trkpt lat="45.71083" lon="6.58947">
        <ele>799.8</ele>
        <time>2021-06-01T10:18:43Z</time>
      </trkpt>
      <trkpt lat="45.71081" lon="6.5895">
        <ele>799.8</ele>
        <time>2021-06-01T10:18:44Z</time>
      </trkpt>
      <trkpt lat="45.71078" lon="6.58953">
        <ele>800</ele>
        <time>2021-06-01T10:18:45Z</time>
      </trkpt>
      <trkpt lat="45.71076" lon="6.58955">
        <ele>800.2</ele>
        <time>2021-06-01T10:18:46Z</time>
      </trkpt>
      <trkpt lat="45.71074" lon="6.58957">
        <ele>800.6</ele>
        <time>2021-06-01T10:18:47Z</time>
      </trkpt>
      <trkpt lat="45.71071" lon="6.5896">
        <ele>800.6</ele>
        <time>2021-06-01T10:18:48Z</time>
      </trkpt>
      <trkpt lat="45.71068" lon="6.58962">
        <ele>800.2</ele>
        <time>2021-06-01T10:18:49Z</time>
      </trkpt>
      <trkpt lat="45.71066" lon="6.58965">
        <ele>800</ele>
        <time>2021-06-01T10:18:50Z</time>
      </trkpt>
      <trkpt lat="45.71064" lon="6.58968">
        <ele>799.6</ele>
        <time>2021-06-01T10:18:51Z</time>
      </trkpt>
      <trkpt lat="45.71061" lon="6.58971">
        <ele>799.4</ele>
        <time>2021-06-01T10:18:52Z</time>
      </trkpt>
      <trkpt lat="45.71058" lon="6.58973">
        <ele>799</ele>
        <time>2021-06-01T10:18:53Z</time>
      </trkpt>
      <trkpt lat="45.71056" lon="6.58975">
        <ele>798.6</ele>
        <time>2021-06-01T10:18:54Z</time>
      </trkpt>
      <trkpt lat="45.71052" lon="6.58976">
        <ele>798.4</ele>
        <time>2021-06-01T10:18:55Z</time>
      </trkpt>
      <trkpt lat="45.7105" lon="6.58979">
        <ele>798.2</ele>
        <time>2021-06-01T10:18:56Z</time>
      </trkpt>
      <trkpt lat="45.71048" lon="6.58982">
        <ele>797.8</ele>
        <time>2021-06-01T10:18:57Z</time>
      </trkpt>
      <trkpt lat="45.71044" lon="6.58984">
        <ele>797.4</ele>
        <time>2021-06-01T10:18:58Z</time>
      </trkpt>
      <trkpt lat="45.71042" lon="6.58987">
        <ele>797</ele>
        <time>2021-06-01T10:18:59Z</time>
      </trkpt>
      <trkpt lat="45.7104" lon="6.58989">
        <ele>796.8</ele>
        <time>2021-06-01T10:19:00Z</time>
      </trkpt>
      <trkpt lat="45.71037" lon="6.58991">
        <ele>796.8</ele>
        <time>2021-06-01T10:19:01Z</time>
      </trkpt>
      <trkpt lat="45.71034" lon="6.58993">
        <ele>796.8</ele>
        <time>2021-06-01T10:19:02Z</time>
      </trkpt>
      <trkpt lat="45.71031" lon="6.58995">
        <ele>797.2</ele>
        <time>2021-06-01T10:19:03Z</time>
      </trkpt>
      <trkpt lat="45.71028" lon="6.58998">
        <ele>797.6</ele>
        <time>2021-06-01T10:19:04Z</time>
      </trkpt>
      <trkpt lat="45.71026" lon="6.58999">
        <ele>798</ele>
        <time>2021-06-01T10:19:05Z</time>
      </trkpt>
      <trkpt lat="45.71023" lon="6.59001">
        <ele>798.2</ele>
        <time>2021-06-01T10:19:06Z</time>
      </trkpt>
      <trkpt lat="45.7102" lon="6.59003">
        <ele>798.6</ele>
        <time>2021-06-01T10:19:07Z</time>
      </trkpt>
      <trkpt lat="45.71017" lon="6.59004">
        <ele>798.8</ele>
        <time>2021-06-01T10:19:08Z</time>
      </trkpt>
      <trkpt lat="45.71014" lon="6.59006">
        <ele>799.2</ele>
        <time>2021-06-01T10:19:09Z</time>
      </trkpt>
      <trkpt lat="45.71011" lon="6.59008">
        <ele>799.4</ele>
        <time>2021-06-01T10:19:10Z</time>
      </trkpt>
      <trkpt lat="45.71008" lon="6.59011">
        <ele>799.8</ele>
        <time>2021-06-01T10:19:11Z</time>
      </trkpt>
      <trkpt lat="45.71005" lon="6.59012">
        <ele>800</ele>
        <time>2021-06-01T10:19:12Z</time>
      </trkpt>
      <trkpt lat="45.71002" lon="6.59014">
        <ele>800.4</ele>
        <time>2021-06-01T10:19:13Z</time>
      </trkpt>
      <trkpt lat="45.70999" lon="6.59015">
        <ele>800.6</ele>
        <time>2021-06-01T10:19:14Z</time>
      </trkpt>
      <trkpt lat="45.70996" lon="6.59014">
        <ele>801</ele>
        <time>2021-06-01T10:19:15Z</time>
      </trkpt>
      <trkpt lat="45.70993" lon="6.59012">
        <ele>801.2</ele>
        <time>2021-06-01T10:19:16Z</time>
      </trkpt>
      <trkpt lat="45.70991" lon="6.59008">
        <ele>801.6</ele>
        <time>2021-06-01T10:19:17Z</time>
      </trkpt>
      <trkpt lat="45.7099" lon="6.59004">
        <ele>802.2</ele>
        <time>2021-06-01T10:19:18Z</time>
      </trkpt>
      <trkpt lat="45.70991" lon="6.59">
        <ele>802.6</ele>
        <time>2021-06-01T10:19:19Z</time>
      </trkpt>
      <trkpt lat="45.70992" lon="6.58998">
        <ele>803.2</ele>
        <time>2021-06-01T10:19:20Z</time>
      </trkpt>
      <trkpt lat="45.70994" lon="6.58996">
        <ele>803.6</ele>
        <time>2021-06-01T10:19:21Z</time>
      </trkpt>
      <trkpt lat="45.70997" lon="6.58994">
        <ele>803.8</ele>
        <time>2021-06-01T10:19:22Z</time>
      </trkpt>
      <trkpt lat="45.71" lon="6.58992">
        <ele>804.2</ele>
        <time>2021-06-01T10:19:23Z</time>
      </trkpt>
      <trkpt lat="45.71004" lon="6.5899">
        <ele>804.8</ele>
        <time>2021-06-01T10:19:24Z</time>
      </trkpt>
      <trkpt lat="45.71007" lon="6.58988">
        <ele>805.2</ele>
        <time>2021-06-01T10:19:25Z</time>
      </trkpt>
      <trkpt lat="45.7101" lon="6.58986">
        <ele>805.6</ele>
        <time>2021-06-01T10:19:26Z</time>
      </trkpt>
      <trkpt lat="45.71013" lon="6.58983">
        <ele>806</ele>
        <time>2021-06-01T10:19:27Z</time>
      </trkpt>
      <trkpt lat="45.71016" lon="6.58979">
        <ele>806.4</ele>
        <time>2021-06-01T10:19:28Z</time>
      </trkpt>
      <trkpt lat="45.71018" lon="6.58976">
        <ele>806.6</ele>
        <time>2021-06-01T10:19:29Z</time>
      </trkpt>
      <trkpt lat="45.7102" lon="6.58972">
        <ele>806.6</ele>
        <time>2021-06-01T10:19:30Z</time>
      </trkpt>
      <trkpt lat="45.71023" lon="6.58968">
        <ele>806.6</ele>
        <time>2021-06-01T10:19:31Z</time>
      </trkpt>
      <trkpt lat="45.71025" lon="6.58963">
        <ele>806.6</ele>
        <time>2021-06-01T10:19:32Z</time>
      </trkpt>
      <trkpt lat="45.71026" lon="6.58958">
        <ele>806.6</ele>
        <time>2021-06-01T10:19:33Z</time>
      </trkpt>
      <trkpt lat="45.71027" lon="6.58953">
        <ele>806.6</ele>
        <time>2021-06-01T10:19:34Z</time>
      </trkpt>
      <trkpt lat="45.71027" lon="6.58949">
        <ele>806.4</ele>
        <time>2021-06-01T10:19:35Z</time>
      </trkpt>
      <trkpt lat="45.71028" lon="6.58945">
        <ele>806.6</ele>
        <time>2021-06-01T10:19:36Z</time>
      </trkpt>
      <trkpt lat="45.71026" lon="6.5894">
        <ele>807</ele>
        <time>2021-06-01T10:19:37Z</time>
      </trkpt>
      <trkpt lat="45.71025" lon="6.58936">
        <ele>807</ele>
        <time>2021-06-01T10:19:38Z</time>
      </trkpt>
      <trkpt lat="45.71023" lon="6.58933">
        <ele>806.8</ele>
        <time>2021-06-01T10:19:39Z</time>
      </trkpt>
      <trkpt lat="45.7102" lon="6.58932">
        <ele>805.8</ele>
        <time>2021-06-01T10:19:40Z</time>
      </trkpt>
      <trkpt lat="45.71018" lon="6.58932">
        <ele>805.2</ele>
        <time>2021-06-01T10:19:41Z</time>
      </trkpt>
      <trkpt lat="45.71013" lon="6.58935">
        <ele>804.4</ele>
        <time>2021-06-01T10:19:42Z</time>
      </trkpt>
      <trkpt lat="45.7101" lon="6.58939">
        <ele>803.8</ele>
        <time>2021-06-01T10:19:43Z</time>
      </trkpt>
      <trkpt lat="45.71008" lon="6.58942">
        <ele>803.2</ele>
        <time>2021-06-01T10:19:44Z</time>
      </trkpt>
      <trkpt lat="45.71006" lon="6.58946">
        <ele>802.8</ele>
        <time>2021-06-01T10:19:45Z</time>
      </trkpt>
      <trkpt lat="45.71004" lon="6.58949">
        <ele>802.4</ele>
        <time>2021-06-01T10:19:46Z</time>
      </trkpt>
      <trkpt lat="45.71002" lon="6.58951">
        <ele>802.2</ele>
        <time>2021-06-01T10:19:47Z</time>
      </trkpt>
      <trkpt lat="45.71" lon="6.58954">
        <ele>802</ele>
        <time>2021-06-01T10:19:48Z</time>
      </trkpt>
      <trkpt lat="45.70998" lon="6.58956">
        <ele>801.8</ele>
        <time>2021-06-01T10:19:49Z</time>
      </trkpt>
      <trkpt lat="45.70996" lon="6.58959">
        <ele>801.8</ele>
        <time>2021-06-01T10:19:50Z</time>
      </trkpt>
      <trkpt lat="45.70993" lon="6.58961">
        <ele>801.8</ele>
        <time>2021-06-01T10:19:51Z</time>
      </trkpt>
      <trkpt lat="45.70991" lon="6.58963">
        <ele>801.8</ele>
        <time>2021-06-01T10:19:52Z</time>
      </trkpt>
      <trkpt lat="45.70988" lon="6.58965">
        <ele>801.8</ele>
        <time>2021-06-01T10:19:53Z</time>
      </trkpt>
      <trkpt lat="45.70986" lon="6.58968">
        <ele>802</ele>
        <time>2021-06-01T10:19:54Z</time>
      </trkpt>
      <trkpt lat="45.70983" lon="6.5897">
        <ele>802.2</ele>
        <time>2021-06-01T10:19:55Z</time>
      </trkpt>
      <trkpt lat="45.7098" lon="6.58972">
        <ele>802.2</ele>
        <time>2021-06-01T10:19:56Z</time>
      </trkpt>
      <trkpt lat="45.70977" lon="6.58974">
        <ele>802.6</ele>
        <time>2021-06-01T10:19:57Z</time>
      </trkpt>
      <trkpt lat="45.70974" lon="6.58977">
        <ele>802.6</ele>
        <time>2021-06-01T10:19:58Z</time>
      </trkpt>
      <trkpt lat="45.70972" lon="6.58978">
        <ele>802.8</ele>
        <time>2021-06-01T10:19:59Z</time>
      </trkpt>
      <trkpt lat="45.70969" lon="6.5898">
        <ele>802.8</ele>
        <time>2021-06-01T10:20:00Z</time>
      </trkpt>
      <trkpt lat="45.70966" lon="6.58982">
        <ele>803.6</ele>
        <time>2021-06-01T10:20:01Z</time>
      </trkpt>
      <trkpt lat="45.70963" lon="6.58984">
        <ele>804.4</ele>
        <time>2021-06-01T10:20:02Z</time>
      </trkpt>
      <trkpt lat="45.7096" lon="6.58986">
        <ele>805.4</ele>
        <time>2021-06-01T10:20:03Z</time>
      </trkpt>
      <trkpt lat="45.70957" lon="6.58989">
        <ele>806.6</ele>
        <time>2021-06-01T10:20:04Z</time>
      </trkpt>
      <trkpt lat="45.70956" lon="6.58992">
        <ele>808</ele>
        <time>2021-06-01T10:20:05Z</time>
      </trkpt>
      <trkpt lat="45.70953" lon="6.58995">
        <ele>809.4</ele>
        <time>2021-06-01T10:20:06Z</time>
      </trkpt>
      <trkpt lat="45.70951" lon="6.59">
        <ele>810.4</ele>
        <time>2021-06-01T10:20:07Z</time>
      </trkpt>
      <trkpt lat="45.70949" lon="6.59005">
        <ele>811.8</ele>
        <time>2021-06-01T10:20:08Z</time>
      </trkpt>
      <trkpt lat="45.70947" lon="6.59009">
        <ele>812.8</ele>
        <time>2021-06-01T10:20:09Z</time>
      </trkpt>
      <trkpt lat="45.70945" lon="6.59013">
        <ele>813.8</ele>
        <time>2021-06-01T10:20:10Z</time>
      </trkpt>
      <trkpt lat="45.70943" lon="6.59018">
        <ele>814.8</ele>
        <time>2021-06-01T10:20:11Z</time>
      </trkpt>
      <trkpt lat="45.70941" lon="6.59022">
        <ele>815.6</ele>
        <time>2021-06-01T10:20:12Z</time>
      </trkpt>
      <trkpt lat="45.70939" lon="6.59025">
        <ele>816.6</ele>
        <time>2021-06-01T10:20:13Z</time>
      </trkpt>
      <trkpt lat="45.70937" lon="6.59029">
        <ele>816.8</ele>
        <time>2021-06-01T10:20:14Z</time>
      </trkpt>
      <trkpt lat="45.70934" lon="6.59034">
        <ele>817.6</ele>
        <time>2021-06-01T10:20:15Z</time>
      </trkpt>
      <trkpt lat="45.70932" lon="6.59038">
        <ele>818.4</ele>
        <time>2021-06-01T10:20:16Z</time>
      </trkpt>
      <trkpt lat="45.7093" lon="6.59042">
        <ele>819.2</ele>
        <time>2021-06-01T10:20:17Z</time>
      </trkpt>
      <trkpt lat="45.70928" lon="6.59046">
        <ele>819.8</ele>
        <time>2021-06-01T10:20:18Z</time>
      </trkpt>
      <trkpt lat="45.70925" lon="6.5905">
        <ele>820.4</ele>
        <time>2021-06-01T10:20:19Z</time>
      </trkpt>
      <trkpt lat="45.70924" lon="6.59054">
        <ele>821</ele>
        <time>2021-06-01T10:20:20Z</time>
      </trkpt>
      <trkpt lat="45.70921" lon="6.59058">
        <ele>821.4</ele>
        <time>2021-06-01T10:20:21Z</time>
      </trkpt>
      <trkpt lat="45.70919" lon="6.59061">
        <ele>821.8</ele>
        <time>2021-06-01T10:20:22Z</time>
      </trkpt>
      <trkpt lat="45.70917" lon="6.59064">
        <ele>822.4</ele>
        <time>2021-06-01T10:20:23Z</time>
      </trkpt>
      <trkpt lat="45.70915" lon="6.59067">
        <ele>823</ele>
        <time>2021-06-01T10:20:24Z</time>
      </trkpt>
      <trkpt lat="45.70913" lon="6.5907">
        <ele>823.4</ele>
        <time>2021-06-01T10:20:25Z</time>
      </trkpt>
      <trkpt lat="45.70911" lon="6.59073">
        <ele>824</ele>
        <time>2021-06-01T10:20:26Z</time>
      </trkpt>
      <trkpt lat="45.70909" lon="6.59075">
        <ele>824.6</ele>
        <time>2021-06-01T10:20:27Z</time>
      </trkpt>
      <trkpt lat="45.70907" lon="6.59078">
        <ele>824.8</ele>
        <time>2021-06-01T10:20:28Z</time>
      </trkpt>
      <trkpt lat="45.70904" lon="6.59081">
        <ele>825.2</ele>
        <time>2021-06-01T10:20:29Z</time>
      </trkpt>
      <trkpt lat="45.70901" lon="6.59085">
        <ele>825.6</ele>
        <time>2021-06-01T10:20:30Z</time>
      </trkpt>
      <trkpt lat="45.70899" lon="6.59088">
        <ele>825.8</ele>
        <time>2021-06-01T10:20:31Z</time>
      </trkpt>
      <trkpt lat="45.70897" lon="6.59092">
        <ele>826</ele>
        <time>2021-06-01T10:20:32Z</time>
      </trkpt>
      <trkpt lat="45.70894" lon="6.59096">
        <ele>826.6</ele>
        <time>2021-06-01T10:20:33Z</time>
      </trkpt>
      <trkpt lat="45.70891" lon="6.59101">
        <ele>827</ele>
        <time>2021-06-01T10:20:34Z</time>
      </trkpt>
      <trkpt lat="45.70889" lon="6.59105">
        <ele>827.2</ele>
        <time>2021-06-01T10:20:35Z</time>
      </trkpt>
      <trkpt lat="45.70886" lon="6.59109">
        <ele>827.8</ele>
        <time>2021-06-01T10:20:36Z</time>
      </trkpt>
      <trkpt lat="45.70884" lon="6.59114">
        <ele>828.2</ele>
        <time>2021-06-01T10:20:37Z</time>
      </trkpt>
      <trkpt lat="45.70881" lon="6.59118">
        <ele>828.6</ele>
        <time>2021-06-01T10:20:38Z</time>
      </trkpt>
      <trkpt lat="45.70878" lon="6.59121">
        <ele>829.2</ele>
        <time>2021-06-01T10:20:39Z</time>
      </trkpt>
      <trkpt lat="45.70876" lon="6.59125">
        <ele>829.6</ele>
        <time>2021-06-01T10:20:40Z</time>
      </trkpt>
      <trkpt lat="45.70873" lon="6.59129">
        <ele>830</ele>
        <time>2021-06-01T10:20:41Z</time>
      </trkpt>
      <trkpt lat="45.70871" lon="6.59133">
        <ele>830.4</ele>
        <time>2021-06-01T10:20:42Z</time>
      </trkpt>
      <trkpt lat="45.70869" lon="6.59136">
        <ele>830.6</ele>
        <time>2021-06-01T10:20:43Z</time>
      </trkpt>
      <trkpt lat="45.70866" lon="6.59139">
        <ele>831</ele>
        <time>2021-06-01T10:20:44Z</time>
      </trkpt>
      <trkpt lat="45.70863" lon="6.59143">
        <ele>831.4</ele>
        <time>2021-06-01T10:20:45Z</time>
      </trkpt>
      <trkpt lat="45.70861" lon="6.59147">
        <ele>831.8</ele>
        <time>2021-06-01T10:20:46Z</time>
      </trkpt>
      <trkpt lat="45.70859" lon="6.59151">
        <ele>832</ele>
        <time>2021-06-01T10:20:47Z</time>
      </trkpt>
      <trkpt lat="45.70856" lon="6.59154">
        <ele>832.4</ele>
        <time>2021-06-01T10:20:48Z</time>
      </trkpt>
      <trkpt lat="45.70853" lon="6.59158">
        <ele>832.4</ele>
        <time>2021-06-01T10:20:49Z</time>
      </trkpt>
      <trkpt lat="45.70851" lon="6.5916">
        <ele>832.2</ele>
        <time>2021-06-01T10:20:50Z</time>
      </trkpt>
      <trkpt lat="45.70848" lon="6.59162">
        <ele>831.4</ele>
        <time>2021-06-01T10:20:51Z</time>
      </trkpt>
      <trkpt lat="45.70845" lon="6.59163">
        <ele>830.8</ele>
        <time>2021-06-01T10:20:52Z</time>
      </trkpt>
      <trkpt lat="45.70843" lon="6.59164">
        <ele>829.8</ele>
        <time>2021-06-01T10:20:53Z</time>
      </trkpt>
      <trkpt lat="45.70839" lon="6.59164">
        <ele>828.2</ele>
        <time>2021-06-01T10:20:54Z</time>
      </trkpt>
      <trkpt lat="45.70837" lon="6.59164">
        <ele>827.8</ele>
        <time>2021-06-01T10:20:55Z</time>
      </trkpt>
      <trkpt lat="45.70834" lon="6.59164">
        <ele>827.2</ele>
        <time>2021-06-01T10:20:56Z</time>
      </trkpt>
      <trkpt lat="45.70832" lon="6.59164">
        <ele>826.6</ele>
        <time>2021-06-01T10:20:57Z</time>
      </trkpt>
      <trkpt lat="45.70829" lon="6.59165">
        <ele>826.2</ele>
        <time>2021-06-01T10:20:58Z</time>
      </trkpt>
      <trkpt lat="45.70828" lon="6.59166">
        <ele>825.8</ele>
        <time>2021-06-01T10:20:59Z</time>
      </trkpt>
      <trkpt lat="45.70825" lon="6.59167">
        <ele>825.4</ele>
        <time>2021-06-01T10:21:00Z</time>
      </trkpt>
      <trkpt lat="45.70822" lon="6.59169">
        <ele>825</ele>
        <time>2021-06-01T10:21:01Z</time>
      </trkpt>
      <trkpt lat="45.7082" lon="6.59169">
        <ele>824.8</ele>
        <time>2021-06-01T10:21:02Z</time>
      </trkpt>
      <trkpt lat="45.70817" lon="6.59171">
        <ele>823.6</ele>
        <time>2021-06-01T10:21:04Z</time>
      </trkpt>
      <trkpt lat="45.70813" lon="6.59172">
        <ele>823.4</ele>
        <time>2021-06-01T10:21:06Z</time>
      </trkpt>
      <trkpt lat="45.7081" lon="6.59174">
        <ele>824</ele>
        <time>2021-06-01T10:21:07Z</time>
      </trkpt>
      <trkpt lat="45.70806" lon="6.59176">
        <ele>824.4</ele>
        <time>2021-06-01T10:21:08Z</time>
      </trkpt>
      <trkpt lat="45.70803" lon="6.59178">
        <ele>824.6</ele>
        <time>2021-06-01T10:21:09Z</time>
      </trkpt>
      <trkpt lat="45.708" lon="6.59181">
        <ele>824.6</ele>
        <time>2021-06-01T10:21:10Z</time>
      </trkpt>
      <trkpt lat="45.70797" lon="6.59183">
        <ele>824.6</ele>
        <time>2021-06-01T10:21:11Z</time>
      </trkpt>
      <trkpt lat="45.70795" lon="6.59186">
        <ele>824.6</ele>
        <time>2021-06-01T10:21:12Z</time>
      </trkpt>
      <trkpt lat="45.70792" lon="6.59189">
        <ele>824.6</ele>
        <time>2021-06-01T10:21:13Z</time>
      </trkpt>
      <trkpt lat="45.7079" lon="6.59191">
        <ele>824.8</ele>
        <time>2021-06-01T10:21:14Z</time>
      </trkpt>
      <trkpt lat="45.70788" lon="6.59193">
        <ele>824.6</ele>
        <time>2021-06-01T10:21:15Z</time>
      </trkpt>
      <trkpt lat="45.70786" lon="6.59195">
        <ele>824.4</ele>
        <time>2021-06-01T10:21:16Z</time>
      </trkpt>
      <trkpt lat="45.70783" lon="6.59197">
        <ele>824.2</ele>
        <time>2021-06-01T10:21:17Z</time>
      </trkpt>
      <trkpt lat="45.70782" lon="6.592">
        <ele>824.4</ele>
        <time>2021-06-01T10:21:18Z</time>
      </trkpt>
      <trkpt lat="45.7078" lon="6.59203">
        <ele>824.4</ele>
        <time>2021-06-01T10:21:19Z</time>
      </trkpt>
      <trkpt lat="45.7078" lon="6.59205">
        <ele>824.6</ele>
        <time>2021-06-01T10:21:20Z</time>
      </trkpt>
      <trkpt lat="45.70778" lon="6.59208">
        <ele>824.8</ele>
        <time>2021-06-01T10:21:21Z</time>
      </trkpt>
      <trkpt lat="45.70777" lon="6.59211">
        <ele>825.2</ele>
        <time>2021-06-01T10:21:22Z</time>
      </trkpt>
      <trkpt lat="45.70776" lon="6.59214">
        <ele>825.2</ele>
        <time>2021-06-01T10:21:23Z</time>
      </trkpt>
      <trkpt lat="45.70775" lon="6.59219">
        <ele>825.6</ele>
        <time>2021-06-01T10:21:24Z</time>
      </trkpt>
      <trkpt lat="45.70775" lon="6.59223">
        <ele>825.6</ele>
        <time>2021-06-01T10:21:25Z</time>
      </trkpt>
      <trkpt lat="45.70775" lon="6.59227">
        <ele>825.8</ele>
        <time>2021-06-01T10:21:26Z</time>
      </trkpt>
      <trkpt lat="45.70774" lon="6.59231">
        <ele>826</ele>
        <time>2021-06-01T10:21:27Z</time>
      </trkpt>
      <trkpt lat="45.70773" lon="6.59236">
        <ele>826.4</ele>
        <time>2021-06-01T10:21:28Z</time>
      </trkpt>
      <trkpt lat="45.70773" lon="6.5924">
        <ele>827.4</ele>
        <time>2021-06-01T10:21:29Z</time>
      </trkpt>
      <trkpt lat="45.70772" lon="6.59245">
        <ele>828.4</ele>
        <time>2021-06-01T10:21:30Z</time>
      </trkpt>
      <trkpt lat="45.70771" lon="6.59249">
        <ele>829.6</ele>
        <time>2021-06-01T10:21:31Z</time>
      </trkpt>
      <trkpt lat="45.70771" lon="6.59253">
        <ele>830.6</ele>
        <time>2021-06-01T10:21:32Z</time>
      </trkpt>
      <trkpt lat="45.7077" lon="6.59257">
        <ele>831.4</ele>
        <time>2021-06-01T10:21:33Z</time>
      </trkpt>
      <trkpt lat="45.70768" lon="6.59261">
        <ele>832</ele>
        <time>2021-06-01T10:21:34Z</time>
      </trkpt>
      <trkpt lat="45.70768" lon="6.59264">
        <ele>832.4</ele>
        <time>2021-06-01T10:21:35Z</time>
      </trkpt>
      <trkpt lat="45.70768" lon="6.59267">
        <ele>832.6</ele>
        <time>2021-06-01T10:21:36Z</time>
      </trkpt>
      <trkpt lat="45.70767" lon="6.5927">
        <ele>832.4</ele>
        <time>2021-06-01T10:21:38Z</time>
      </trkpt>
      <trkpt lat="45.70767" lon="6.59273">
        <ele>831.2</ele>
        <time>2021-06-01T10:21:44Z</time>
      </trkpt>
      <trkpt lat="45.70766" lon="6.59274">
        <ele>830</ele>
        <time>2021-06-01T10:21:50Z</time>
      </trkpt>
      <trkpt lat="45.70764" lon="6.59276">
        <ele>832</ele>
        <time>2021-06-01T10:22:22Z</time>
      </trkpt>
      <trkpt lat="45.70763" lon="6.59279">
        <ele>832</ele>
        <time>2021-06-01T10:22:24Z</time>
      </trkpt>
      <trkpt lat="45.70762" lon="6.59282">
        <ele>831.8</ele>
        <time>2021-06-01T10:22:26Z</time>
      </trkpt>
      <trkpt lat="45.70762" lon="6.59285">
        <ele>831</ele>
        <time>2021-06-01T10:22:29Z</time>
      </trkpt>
      <trkpt lat="45.70759" lon="6.59286">
        <ele>828.8</ele>
        <time>2021-06-01T10:22:38Z</time>
      </trkpt>
      <trkpt lat="45.70758" lon="6.59289">
        <ele>828.6</ele>
        <time>2021-06-01T10:22:40Z</time>
      </trkpt>
      <trkpt lat="45.70756" lon="6.59291">
        <ele>828.4</ele>
        <time>2021-06-01T10:22:41Z</time>
      </trkpt>
      <trkpt lat="45.70756" lon="6.59294">
        <ele>828.2</ele>
        <time>2021-06-01T10:22:42Z</time>
      </trkpt>
      <trkpt lat="45.70756" lon="6.59297">
        <ele>828.2</ele>
        <time>2021-06-01T10:22:43Z</time>
      </trkpt>
      <trkpt lat="45.70755" lon="6.59301">
        <ele>828</ele>
        <time>2021-06-01T10:22:44Z</time>
      </trkpt>
      <trkpt lat="45.70754" lon="6.59305">
        <ele>828.2</ele>
        <time>2021-06-01T10:22:45Z</time>
      </trkpt>
      <trkpt lat="45.70752" lon="6.5931">
        <ele>828.2</ele>
        <time>2021-06-01T10:22:46Z</time>
      </trkpt>
      <trkpt lat="45.7075" lon="6.59315">
        <ele>828.2</ele>
        <time>2021-06-01T10:22:47Z</time>
      </trkpt>
      <trkpt lat="45.70747" lon="6.5932">
        <ele>828.4</ele>
        <time>2021-06-01T10:22:48Z</time>
      </trkpt>
      <trkpt lat="45.70744" lon="6.59325">
        <ele>829</ele>
        <time>2021-06-01T10:22:49Z</time>
      </trkpt>
      <trkpt lat="45.70742" lon="6.5933">
        <ele>829.4</ele>
        <time>2021-06-01T10:22:50Z</time>
      </trkpt>
      <trkpt lat="45.70739" lon="6.59335">
        <ele>830.4</ele>
        <time>2021-06-01T10:22:51Z</time>
      </trkpt>
      <trkpt lat="45.70737" lon="6.59339">
        <ele>831.8</ele>
        <time>2021-06-01T10:22:52Z</time>
      </trkpt>
      <trkpt lat="45.70734" lon="6.59345">
        <ele>833.2</ele>
        <time>2021-06-01T10:22:53Z</time>
      </trkpt>
      <trkpt lat="45.70731" lon="6.5935">
        <ele>834.4</ele>
        <time>2021-06-01T10:22:54Z</time>
      </trkpt>
      <trkpt lat="45.70728" lon="6.59356">
        <ele>835.6</ele>
        <time>2021-06-01T10:22:55Z</time>
      </trkpt>
      <trkpt lat="45.70725" lon="6.59361">
        <ele>836.6</ele>
        <time>2021-06-01T10:22:56Z</time>
      </trkpt>
      <trkpt lat="45.70723" lon="6.59366">
        <ele>837.8</ele>
        <time>2021-06-01T10:22:57Z</time>
      </trkpt>
      <trkpt lat="45.70721" lon="6.59371">
        <ele>838.8</ele>
        <time>2021-06-01T10:22:58Z</time>
      </trkpt>
      <trkpt lat="45.7072" lon="6.59377">
        <ele>839.8</ele>
        <time>2021-06-01T10:22:59Z</time>
      </trkpt>
      <trkpt lat="45.70718" lon="6.59383">
        <ele>840.6</ele>
        <time>2021-06-01T10:23:00Z</time>
      </trkpt>
      <trkpt lat="45.70717" lon="6.59388">
        <ele>841.8</ele>
        <time>2021-06-01T10:23:01Z</time>
      </trkpt>
      <trkpt lat="45.70715" lon="6.59394">
        <ele>842.6</ele>
        <time>2021-06-01T10:23:02Z</time>
      </trkpt>
      <trkpt lat="45.70714" lon="6.59401">
        <ele>843.4</ele>
        <time>2021-06-01T10:23:03Z</time>
      </trkpt>
      <trkpt lat="45.70714" lon="6.59407">
        <ele>844.2</ele>
        <time>2021-06-01T10:23:04Z</time>
      </trkpt>
      <trkpt lat="45.70713" lon="6.59413">
        <ele>845</ele>
        <time>2021-06-01T10:23:05Z</time>
      </trkpt>
      <trkpt lat="45.70713" lon="6.5942">
        <ele>845.8</ele>
        <time>2021-06-01T10:23:06Z</time>
      </trkpt>
      <trkpt lat="45.70713" lon="6.59426">
        <ele>846.4</ele>
        <time>2021-06-01T10:23:07Z</time>
      </trkpt>
      <trkpt lat="45.70714" lon="6.59433">
        <ele>847.2</ele>
        <time>2021-06-01T10:23:08Z</time>
      </trkpt>
      <trkpt lat="45.70714" lon="6.59439">
        <ele>847.8</ele>
        <time>2021-06-01T10:23:09Z</time>
      </trkpt>
      <trkpt lat="45.70714" lon="6.59444">
        <ele>848.4</ele>
        <time>2021-06-01T10:23:10Z</time>
      </trkpt>
      <trkpt lat="45.70714" lon="6.5945">
        <ele>849</ele>
        <time>2021-06-01T10:23:11Z</time>
      </trkpt>
      <trkpt lat="45.70713" lon="6.59456">
        <ele>849.6</ele>
        <time>2021-06-01T10:23:12Z</time>
      </trkpt>
      <trkpt lat="45.70713" lon="6.59461">
        <ele>850.2</ele>
        <time>2021-06-01T10:23:13Z</time>
      </trkpt>
      <trkpt lat="45.70713" lon="6.59467">
        <ele>850.6</ele>
        <time>2021-06-01T10:23:14Z</time>
      </trkpt>
      <trkpt lat="45.70713" lon="6.59473">
        <ele>851.2</ele>
        <time>2021-06-01T10:23:15Z</time>
      </trkpt>
      <trkpt lat="45.70712" lon="6.59478">
        <ele>851.4</ele>
        <time>2021-06-01T10:23:16Z</time>
      </trkpt>
      <trkpt lat="45.70711" lon="6.59485">
        <ele>852</ele>
        <time>2021-06-01T10:23:17Z</time>
      </trkpt>
      <trkpt lat="45.7071" lon="6.59491">
        <ele>852.4</ele>
        <time>2021-06-01T10:23:18Z</time>
      </trkpt>
      <trkpt lat="45.70709" lon="6.59497">
        <ele>853.2</ele>
        <time>2021-06-01T10:23:19Z</time>
      </trkpt>
      <trkpt lat="45.70709" lon="6.59504">
        <ele>853.6</ele>
        <time>2021-06-01T10:23:20Z</time>
      </trkpt>
      <trkpt lat="45.70708" lon="6.59509">
        <ele>854.2</ele>
        <time>2021-06-01T10:23:21Z</time>
      </trkpt>
      <trkpt lat="45.70707" lon="6.59515">
        <ele>854.6</ele>
        <time>2021-06-01T10:23:22Z</time>
      </trkpt>
      <trkpt lat="45.70707" lon="6.5952">
        <ele>855</ele>
        <time>2021-06-01T10:23:23Z</time>
      </trkpt>
      <trkpt lat="45.70706" lon="6.59526">
        <ele>855.4</ele>
        <time>2021-06-01T10:23:24Z</time>
      </trkpt>
      <trkpt lat="45.70705" lon="6.59531">
        <ele>855.6</ele>
        <time>2021-06-01T10:23:25Z</time>
      </trkpt>
      <trkpt lat="45.70704" lon="6.59537">
        <ele>855.8</ele>
        <time>2021-06-01T10:23:26Z</time>
      </trkpt>
      <trkpt lat="45.70704" lon="6.59543">
        <ele>856</ele>
        <time>2021-06-01T10:23:27Z</time>
      </trkpt>
      <trkpt lat="45.70704" lon="6.59548">
        <ele>856.4</ele>
        <time>2021-06-01T10:23:28Z</time>
      </trkpt>
      <trkpt lat="45.70704" lon="6.59553">
        <ele>857</ele>
        <time>2021-06-01T10:23:29Z</time>
      </trkpt>
      <trkpt lat="45.70704" lon="6.59559">
        <ele>857.6</ele>
        <time>2021-06-01T10:23:30Z</time>
      </trkpt>
      <trkpt lat="45.70704" lon="6.59564">
        <ele>858</ele>
        <time>2021-06-01T10:23:31Z</time>
      </trkpt>
      <trkpt lat="45.70705" lon="6.5957">
        <ele>858.6</ele>
        <time>2021-06-01T10:23:32Z</time>
      </trkpt>
      <trkpt lat="45.70706" lon="6.59576">
        <ele>859</ele>
        <time>2021-06-01T10:23:33Z</time>
      </trkpt>
      <trkpt lat="45.70706" lon="6.59582">
        <ele>859.4</ele>
        <time>2021-06-01T10:23:34Z</time>
      </trkpt>
      <trkpt lat="45.70706" lon="6.59587">
        <ele>860</ele>
        <time>2021-06-01T10:23:35Z</time>
      </trkpt>
      <trkpt lat="45.70706" lon="6.59593">
        <ele>860.4</ele>
        <time>2021-06-01T10:23:36Z</time>
      </trkpt>
      <trkpt lat="45.70706" lon="6.59599">
        <ele>860.8</ele>
        <time>2021-06-01T10:23:37Z</time>
      </trkpt>
      <trkpt lat="45.70706" lon="6.59606">
        <ele>861.4</ele>
        <time>2021-06-01T10:23:38Z</time>
      </trkpt>
      <trkpt lat="45.70707" lon="6.59613">
        <ele>861.8</ele>
        <time>2021-06-01T10:23:39Z</time>
      </trkpt>
      <trkpt lat="45.70707" lon="6.59619">
        <ele>862.2</ele>
        <time>2021-06-01T10:23:40Z</time>
      </trkpt>
      <trkpt lat="45.70707" lon="6.59625">
        <ele>862.6</ele>
        <time>2021-06-01T10:23:41Z</time>
      </trkpt>
      <trkpt lat="45.70706" lon="6.59631">
        <ele>863</ele>
        <time>2021-06-01T10:23:42Z</time>
      </trkpt>
      <trkpt lat="45.70706" lon="6.59637">
        <ele>863.4</ele>
        <time>2021-06-01T10:23:43Z</time>
      </trkpt>
      <trkpt lat="45.70706" lon="6.59642">
        <ele>863.8</ele>
        <time>2021-06-01T10:23:44Z</time>
      </trkpt>
      <trkpt lat="45.70705" lon="6.59648">
        <ele>863.8</ele>
        <time>2021-06-01T10:23:45Z</time>
      </trkpt>
      <trkpt lat="45.70705" lon="6.59654">
        <ele>864.2</ele>
        <time>2021-06-01T10:23:46Z</time>
      </trkpt>
      <trkpt lat="45.70704" lon="6.59659">
        <ele>864.6</ele>
        <time>2021-06-01T10:23:47Z</time>
      </trkpt>
      <trkpt lat="45.70705" lon="6.59665">
        <ele>865</ele>
        <time>2021-06-01T10:23:48Z</time>
      </trkpt>
      <trkpt lat="45.70706" lon="6.59671">
        <ele>865.2</ele>
        <time>2021-06-01T10:23:49Z</time>
      </trkpt>
      <trkpt lat="45.70707" lon="6.59677">
        <ele>865.4</ele>
        <time>2021-06-01T10:23:50Z</time>
      </trkpt>
      <trkpt lat="45.70708" lon="6.59682">
        <ele>865.6</ele>
        <time>2021-06-01T10:23:51Z</time>
      </trkpt>
      <trkpt lat="45.70709" lon="6.59688">
        <ele>866</ele>
        <time>2021-06-01T10:23:52Z</time>
      </trkpt>
      <trkpt lat="45.7071" lon="6.59693">
        <ele>866.2</ele>
        <time>2021-06-01T10:23:53Z</time>
      </trkpt>
      <trkpt lat="45.7071" lon="6.59698">
        <ele>866.4</ele>
        <time>2021-06-01T10:23:54Z</time>
      </trkpt>
      <trkpt lat="45.7071" lon="6.59703">
        <ele>866.8</ele>
        <time>2021-06-01T10:23:55Z</time>
      </trkpt>
      <trkpt lat="45.7071" lon="6.59708">
        <ele>867</ele>
        <time>2021-06-01T10:23:56Z</time>
      </trkpt>
      <trkpt lat="45.70711" lon="6.59713">
        <ele>867.4</ele>
        <time>2021-06-01T10:23:57Z</time>
      </trkpt>
      <trkpt lat="45.7071" lon="6.59717">
        <ele>867.6</ele>
        <time>2021-06-01T10:23:58Z</time>
      </trkpt>
      <trkpt lat="45.7071" lon="6.59721">
        <ele>867.6</ele>
        <time>2021-06-01T10:23:59Z</time>
      </trkpt>
      <trkpt lat="45.7071" lon="6.59726">
        <ele>867.8</ele>
        <time>2021-06-01T10:24:00Z</time>
      </trkpt>
      <trkpt lat="45.7071" lon="6.5973">
        <ele>867.6</ele>
        <time>2021-06-01T10:24:01Z</time>
      </trkpt>
      <trkpt lat="45.7071" lon="6.59735">
        <ele>867.4</ele>
        <time>2021-06-01T10:24:02Z</time>
      </trkpt>
      <trkpt lat="45.7071" lon="6.59739">
        <ele>867</ele>
        <time>2021-06-01T10:24:03Z</time>
      </trkpt>
      <trkpt lat="45.7071" lon="6.59743">
        <ele>866.6</ele>
        <time>2021-06-01T10:24:04Z</time>
      </trkpt>
      <trkpt lat="45.7071" lon="6.59747">
        <ele>866.4</ele>
        <time>2021-06-01T10:24:05Z</time>
      </trkpt>
      <trkpt lat="45.70709" lon="6.5975">
        <ele>866.2</ele>
        <time>2021-06-01T10:24:06Z</time>
      </trkpt>
      <trkpt lat="45.70709" lon="6.59754">
        <ele>866</ele>
        <time>2021-06-01T10:24:07Z</time>
      </trkpt>
      <trkpt lat="45.70708" lon="6.59758">
        <ele>865.8</ele>
        <time>2021-06-01T10:24:08Z</time>
      </trkpt>
      <trkpt lat="45.70706" lon="6.59761">
        <ele>865.6</ele>
        <time>2021-06-01T10:24:09Z</time>
      </trkpt>
      <trkpt lat="45.70705" lon="6.59765">
        <ele>865.6</ele>
        <time>2021-06-01T10:24:10Z</time>
      </trkpt>
      <trkpt lat="45.70704" lon="6.59769">
        <ele>865.2</ele>
        <time>2021-06-01T10:24:11Z</time>
      </trkpt>
      <trkpt lat="45.70703" lon="6.59773">
        <ele>864.8</ele>
        <time>2021-06-01T10:24:12Z</time>
      </trkpt>
      <trkpt lat="45.70703" lon="6.59777">
        <ele>864.6</ele>
        <time>2021-06-01T10:24:13Z</time>
      </trkpt>
      <trkpt lat="45.70702" lon="6.59781">
        <ele>864.8</ele>
        <time>2021-06-01T10:24:14Z</time>
      </trkpt>
      <trkpt lat="45.70701" lon="6.59785">
        <ele>864.6</ele>
        <time>2021-06-01T10:24:15Z</time>
      </trkpt>
      <trkpt lat="45.70701" lon="6.59788">
        <ele>864.4</ele>
        <time>2021-06-01T10:24:16Z</time>
      </trkpt>
      <trkpt lat="45.70701" lon="6.59793">
        <ele>864</ele>
        <time>2021-06-01T10:24:18Z</time>
      </trkpt>
      <trkpt lat="45.70702" lon="6.59795">
        <ele>863.8</ele>
        <time>2021-06-01T10:24:19Z</time>
      </trkpt>
      <trkpt lat="45.70703" lon="6.59797">
        <ele>863.4</ele>
        <time>2021-06-01T10:24:20Z</time>
      </trkpt>
      <trkpt lat="45.70705" lon="6.598">
        <ele>863</ele>
        <time>2021-06-01T10:24:21Z</time>
      </trkpt>
      <trkpt lat="45.70704" lon="6.59803">
        <ele>862.6</ele>
        <time>2021-06-01T10:24:22Z</time>
      </trkpt>
      <trkpt lat="45.70703" lon="6.59805">
        <ele>862.2</ele>
        <time>2021-06-01T10:24:23Z</time>
      </trkpt>
      <trkpt lat="45.70701" lon="6.59809">
        <ele>861.4</ele>
        <time>2021-06-01T10:24:25Z</time>
      </trkpt>
      <trkpt lat="45.707" lon="6.59812">
        <ele>861.4</ele>
        <time>2021-06-01T10:24:26Z</time>
      </trkpt>
      <trkpt lat="45.707" lon="6.59814">
        <ele>861</ele>
        <time>2021-06-01T10:24:27Z</time>
      </trkpt>
      <trkpt lat="45.70698" lon="6.59817">
        <ele>860.6</ele>
        <time>2021-06-01T10:24:28Z</time>
      </trkpt>
      <trkpt lat="45.70697" lon="6.5982">
        <ele>860.4</ele>
        <time>2021-06-01T10:24:29Z</time>
      </trkpt>
      <trkpt lat="45.70697" lon="6.59823">
        <ele>860.2</ele>
        <time>2021-06-01T10:24:30Z</time>
      </trkpt>
      <trkpt lat="45.70695" lon="6.59827">
        <ele>860</ele>
        <time>2021-06-01T10:24:31Z</time>
      </trkpt>
      <trkpt lat="45.70695" lon="6.5983">
        <ele>859.8</ele>
        <time>2021-06-01T10:24:32Z</time>
      </trkpt>
      <trkpt lat="45.70694" lon="6.59834">
        <ele>859.6</ele>
        <time>2021-06-01T10:24:33Z</time>
      </trkpt>
      <trkpt lat="45.70693" lon="6.59838">
        <ele>859.2</ele>
        <time>2021-06-01T10:24:34Z</time>
      </trkpt>
      <trkpt lat="45.70692" lon="6.59841">
        <ele>859</ele>
        <time>2021-06-01T10:24:35Z</time>
      </trkpt>
      <trkpt lat="45.70693" lon="6.59845">
        <ele>859</ele>
        <time>2021-06-01T10:24:36Z</time>
      </trkpt>
      <trkpt lat="45.70693" lon="6.59849">
        <ele>858.8</ele>
        <time>2021-06-01T10:24:37Z</time>
      </trkpt>
      <trkpt lat="45.70692" lon="6.59853">
        <ele>858.8</ele>
        <time>2021-06-01T10:24:38Z</time>
      </trkpt>
      <trkpt lat="45.70691" lon="6.59857">
        <ele>858.6</ele>
        <time>2021-06-01T10:24:39Z</time>
      </trkpt>
      <trkpt lat="45.7069" lon="6.59862">
        <ele>858.6</ele>
        <time>2021-06-01T10:24:40Z</time>
      </trkpt>
      <trkpt lat="45.70689" lon="6.59866">
        <ele>859</ele>
        <time>2021-06-01T10:24:41Z</time>
      </trkpt>
      <trkpt lat="45.70688" lon="6.5987">
        <ele>859</ele>
        <time>2021-06-01T10:24:42Z</time>
      </trkpt>
      <trkpt lat="45.70687" lon="6.59874">
        <ele>859.2</ele>
        <time>2021-06-01T10:24:43Z</time>
      </trkpt>
      <trkpt lat="45.70687" lon="6.59878">
        <ele>859.2</ele>
        <time>2021-06-01T10:24:44Z</time>
      </trkpt>
      <trkpt lat="45.70686" lon="6.59882">
        <ele>859.6</ele>
        <time>2021-06-01T10:24:45Z</time>
      </trkpt>
      <trkpt lat="45.70686" lon="6.59887">
        <ele>859.6</ele>
        <time>2021-06-01T10:24:46Z</time>
      </trkpt>
      <trkpt lat="45.70685" lon="6.5989">
        <ele>859.8</ele>
        <time>2021-06-01T10:24:47Z</time>
      </trkpt>
      <trkpt lat="45.70684" lon="6.59894">
        <ele>860</ele>
        <time>2021-06-01T10:24:48Z</time>
      </trkpt>
      <trkpt lat="45.70684" lon="6.59898">
        <ele>860.4</ele>
        <time>2021-06-01T10:24:49Z</time>
      </trkpt>
      <trkpt lat="45.70682" lon="6.59902">
        <ele>861</ele>
        <time>2021-06-01T10:24:50Z</time>
      </trkpt>
      <trkpt lat="45.7068" lon="6.59905">
        <ele>861.6</ele>
        <time>2021-06-01T10:24:51Z</time>
      </trkpt>
      <trkpt lat="45.70678" lon="6.59909">
        <ele>862.2</ele>
        <time>2021-06-01T10:24:52Z</time>
      </trkpt>
      <trkpt lat="45.70676" lon="6.59913">
        <ele>862.8</ele>
        <time>2021-06-01T10:24:53Z</time>
      </trkpt>
      <trkpt lat="45.70675" lon="6.59917">
        <ele>863.4</ele>
        <time>2021-06-01T10:24:54Z</time>
      </trkpt>
      <trkpt lat="45.70673" lon="6.59921">
        <ele>864.4</ele>
        <time>2021-06-01T10:24:55Z</time>
      </trkpt>
      <trkpt lat="45.70673" lon="6.59925">
        <ele>865</ele>
        <time>2021-06-01T10:24:56Z</time>
      </trkpt>
      <trkpt lat="45.70672" lon="6.59929">
        <ele>865.6</ele>
        <time>2021-06-01T10:24:57Z</time>
      </trkpt>
      <trkpt lat="45.70672" lon="6.59934">
        <ele>866.2</ele>
        <time>2021-06-01T10:24:58Z</time>
      </trkpt>
      <trkpt lat="45.70672" lon="6.59938">
        <ele>866.8</ele>
        <time>2021-06-01T10:24:59Z</time>
      </trkpt>
      <trkpt lat="45.70671" lon="6.59942">
        <ele>867.2</ele>
        <time>2021-06-01T10:25:00Z</time>
      </trkpt>
      <trkpt lat="45.7067" lon="6.59946">
        <ele>867.6</ele>
        <time>2021-06-01T10:25:01Z</time>
      </trkpt>
      <trkpt lat="45.70669" lon="6.59951">
        <ele>868</ele>
        <time>2021-06-01T10:25:02Z</time>
      </trkpt>
      <trkpt lat="45.70667" lon="6.59956">
        <ele>868.6</ele>
        <time>2021-06-01T10:25:03Z</time>
      </trkpt>
      <trkpt lat="45.70666" lon="6.59961">
        <ele>869.2</ele>
        <time>2021-06-01T10:25:04Z</time>
      </trkpt>
      <trkpt lat="45.70665" lon="6.59965">
        <ele>869.8</ele>
        <time>2021-06-01T10:25:05Z</time>
      </trkpt>
      <trkpt lat="45.70663" lon="6.5997">
        <ele>870.4</ele>
        <time>2021-06-01T10:25:06Z</time>
      </trkpt>
      <trkpt lat="45.70663" lon="6.59974">
        <ele>871</ele>
        <time>2021-06-01T10:25:07Z</time>
      </trkpt>
      <trkpt lat="45.70661" lon="6.59978">
        <ele>871.4</ele>
        <time>2021-06-01T10:25:08Z</time>
      </trkpt>
      <trkpt lat="45.7066" lon="6.59983">
        <ele>871.8</ele>
        <time>2021-06-01T10:25:09Z</time>
      </trkpt>
      <trkpt lat="45.7066" lon="6.59987">
        <ele>872</ele>
        <time>2021-06-01T10:25:10Z</time>
      </trkpt>
      <trkpt lat="45.70659" lon="6.59992">
        <ele>872.4</ele>
        <time>2021-06-01T10:25:11Z</time>
      </trkpt>
      <trkpt lat="45.70658" lon="6.59996">
        <ele>872.8</ele>
        <time>2021-06-01T10:25:12Z</time>
      </trkpt>
      <trkpt lat="45.70658" lon="6.6">
        <ele>873.4</ele>
        <time>2021-06-01T10:25:13Z</time>
      </trkpt>
      <trkpt lat="45.70657" lon="6.60004">
        <ele>874</ele>
        <time>2021-06-01T10:25:14Z</time>
      </trkpt>
      <trkpt lat="45.70656" lon="6.60007">
        <ele>874.4</ele>
        <time>2021-06-01T10:25:15Z</time>
      </trkpt>
      <trkpt lat="45.70655" lon="6.60011">
        <ele>874.8</ele>
        <time>2021-06-01T10:25:16Z</time>
      </trkpt>
      <trkpt lat="45.70655" lon="6.60015">
        <ele>875</ele>
        <time>2021-06-01T10:25:17Z</time>
      </trkpt>
      <trkpt lat="45.70655" lon="6.60019">
        <ele>875.6</ele>
        <time>2021-06-01T10:25:18Z</time>
      </trkpt>
      <trkpt lat="45.70654" lon="6.60023">
        <ele>876</ele>
        <time>2021-06-01T10:25:19Z</time>
      </trkpt>
      <trkpt lat="45.70654" lon="6.60026">
        <ele>876.4</ele>
        <time>2021-06-01T10:25:20Z</time>
      </trkpt>
      <trkpt lat="45.70654" lon="6.6003">
        <ele>876.8</ele>
        <time>2021-06-01T10:25:21Z</time>
      </trkpt>
      <trkpt lat="45.70653" lon="6.60033">
        <ele>877.2</ele>
        <time>2021-06-01T10:25:22Z</time>
      </trkpt>
      <trkpt lat="45.70653" lon="6.60036">
        <ele>877.8</ele>
        <time>2021-06-01T10:25:23Z</time>
      </trkpt>
      <trkpt lat="45.70652" lon="6.60039">
        <ele>878</ele>
        <time>2021-06-01T10:25:24Z</time>
      </trkpt>
      <trkpt lat="45.70652" lon="6.60042">
        <ele>878.4</ele>
        <time>2021-06-01T10:25:25Z</time>
      </trkpt>
      <trkpt lat="45.70652" lon="6.60045">
        <ele>878.8</ele>
        <time>2021-06-01T10:25:26Z</time>
      </trkpt>
      <trkpt lat="45.70653" lon="6.60049">
        <ele>879</ele>
        <time>2021-06-01T10:25:27Z</time>
      </trkpt>
      <trkpt lat="45.70653" lon="6.60053">
        <ele>879</ele>
        <time>2021-06-01T10:25:28Z</time>
      </trkpt>
      <trkpt lat="45.70653" lon="6.60057">
        <ele>879</ele>
        <time>2021-06-01T10:25:29Z</time>
      </trkpt>
      <trkpt lat="45.70653" lon="6.6006">
        <ele>878.8</ele>
        <time>2021-06-01T10:25:30Z</time>
      </trkpt>
      <trkpt lat="45.70653" lon="6.60064">
        <ele>879</ele>
        <time>2021-06-01T10:25:31Z</time>
      </trkpt>
      <trkpt lat="45.70653" lon="6.60068">
        <ele>879.4</ele>
        <time>2021-06-01T10:25:32Z</time>
      </trkpt>
      <trkpt lat="45.70653" lon="6.60072">
        <ele>880.2</ele>
        <time>2021-06-01T10:25:33Z</time>
      </trkpt>
      <trkpt lat="45.70654" lon="6.60076">
        <ele>880.8</ele>
        <time>2021-06-01T10:25:34Z</time>
      </trkpt>
      <trkpt lat="45.70655" lon="6.6008">
        <ele>881.6</ele>
        <time>2021-06-01T10:25:35Z</time>
      </trkpt>
      <trkpt lat="45.70655" lon="6.60085">
        <ele>882.4</ele>
        <time>2021-06-01T10:25:36Z</time>
      </trkpt>
      <trkpt lat="45.70656" lon="6.6009">
        <ele>883.2</ele>
        <time>2021-06-01T10:25:37Z</time>
      </trkpt>
      <trkpt lat="45.70656" lon="6.60095">
        <ele>884.2</ele>
        <time>2021-06-01T10:25:38Z</time>
      </trkpt>
      <trkpt lat="45.70657" lon="6.60099">
        <ele>885</ele>
        <time>2021-06-01T10:25:39Z</time>
      </trkpt>
      <trkpt lat="45.70657" lon="6.60103">
        <ele>885.6</ele>
        <time>2021-06-01T10:25:40Z</time>
      </trkpt>
      <trkpt lat="45.70657" lon="6.60107">
        <ele>886.4</ele>
        <time>2021-06-01T10:25:41Z</time>
      </trkpt>
      <trkpt lat="45.70658" lon="6.60111">
        <ele>887.4</ele>
        <time>2021-06-01T10:25:42Z</time>
      </trkpt>
      <trkpt lat="45.70659" lon="6.60115">
        <ele>888.2</ele>
        <time>2021-06-01T10:25:43Z</time>
      </trkpt>
      <trkpt lat="45.70659" lon="6.60119">
        <ele>888.8</ele>
        <time>2021-06-01T10:25:44Z</time>
      </trkpt>
      <trkpt lat="45.7066" lon="6.60123">
        <ele>889.6</ele>
        <time>2021-06-01T10:25:45Z</time>
      </trkpt>
      <trkpt lat="45.70661" lon="6.60126">
        <ele>890.2</ele>
        <time>2021-06-01T10:25:46Z</time>
      </trkpt>
      <trkpt lat="45.70662" lon="6.6013">
        <ele>890.8</ele>
        <time>2021-06-01T10:25:47Z</time>
      </trkpt>
      <trkpt lat="45.70662" lon="6.60134">
        <ele>891.4</ele>
        <time>2021-06-01T10:25:48Z</time>
      </trkpt>
      <trkpt lat="45.70663" lon="6.60139">
        <ele>892</ele>
        <time>2021-06-01T10:25:49Z</time>
      </trkpt>
      <trkpt lat="45.70663" lon="6.60144">
        <ele>892.8</ele>
        <time>2021-06-01T10:25:50Z</time>
      </trkpt>
      <trkpt lat="45.70665" lon="6.60147">
        <ele>893.4</ele>
        <time>2021-06-01T10:25:51Z</time>
      </trkpt>
      <trkpt lat="45.70667" lon="6.60151">
        <ele>894</ele>
        <time>2021-06-01T10:25:52Z</time>
      </trkpt>
      <trkpt lat="45.70669" lon="6.60154">
        <ele>894.6</ele>
        <time>2021-06-01T10:25:53Z</time>
      </trkpt>
      <trkpt lat="45.7067" lon="6.60158">
        <ele>895.2</ele>
        <time>2021-06-01T10:25:54Z</time>
      </trkpt>
      <trkpt lat="45.7067" lon="6.60161">
        <ele>895.8</ele>
        <time>2021-06-01T10:25:55Z</time>
      </trkpt>
      <trkpt lat="45.70672" lon="6.60164">
        <ele>896.2</ele>
        <time>2021-06-01T10:25:56Z</time>
      </trkpt>
      <trkpt lat="45.70673" lon="6.60168">
        <ele>896.6</ele>
        <time>2021-06-01T10:25:57Z</time>
      </trkpt>
      <trkpt lat="45.70674" lon="6.60172">
        <ele>897.2</ele>
        <time>2021-06-01T10:25:58Z</time>
      </trkpt>
      <trkpt lat="45.70675" lon="6.60176">
        <ele>897.8</ele>
        <time>2021-06-01T10:25:59Z</time>
      </trkpt>
      <trkpt lat="45.70675" lon="6.6018">
        <ele>898.4</ele>
        <time>2021-06-01T10:26:00Z</time>
      </trkpt>
      <trkpt lat="45.70676" lon="6.60183">
        <ele>899</ele>
        <time>2021-06-01T10:26:01Z</time>
      </trkpt>
      <trkpt lat="45.70677" lon="6.60186">
        <ele>899.6</ele>
        <time>2021-06-01T10:26:02Z</time>
      </trkpt>
      <trkpt lat="45.70678" lon="6.6019">
        <ele>900</ele>
        <time>2021-06-01T10:26:03Z</time>
      </trkpt>
      <trkpt lat="45.70679" lon="6.60194">
        <ele>900.8</ele>
        <time>2021-06-01T10:26:04Z</time>
      </trkpt>
      <trkpt lat="45.7068" lon="6.60197">
        <ele>901.4</ele>
        <time>2021-06-01T10:26:05Z</time>
      </trkpt>
      <trkpt lat="45.70681" lon="6.602">
        <ele>901.6</ele>
        <time>2021-06-01T10:26:06Z</time>
      </trkpt>
      <trkpt lat="45.70683" lon="6.60204">
        <ele>901.8</ele>
        <time>2021-06-01T10:26:07Z</time>
      </trkpt>
      <trkpt lat="45.70683" lon="6.60207">
        <ele>901.8</ele>
        <time>2021-06-01T10:26:08Z</time>
      </trkpt>
      <trkpt lat="45.70683" lon="6.60211">
        <ele>901.8</ele>
        <time>2021-06-01T10:26:09Z</time>
      </trkpt>
      <trkpt lat="45.70684" lon="6.60214">
        <ele>902</ele>
        <time>2021-06-01T10:26:10Z</time>
      </trkpt>
      <trkpt lat="45.70685" lon="6.60217">
        <ele>902.2</ele>
        <time>2021-06-01T10:26:11Z</time>
      </trkpt>
      <trkpt lat="45.70686" lon="6.6022">
        <ele>902</ele>
        <time>2021-06-01T10:26:12Z</time>
      </trkpt>
      <trkpt lat="45.70687" lon="6.60223">
        <ele>902</ele>
        <time>2021-06-01T10:26:13Z</time>
      </trkpt>
      <trkpt lat="45.70688" lon="6.60227">
        <ele>901.8</ele>
        <time>2021-06-01T10:26:14Z</time>
      </trkpt>
      <trkpt lat="45.70689" lon="6.6023">
        <ele>901.6</ele>
        <time>2021-06-01T10:26:15Z</time>
      </trkpt>
      <trkpt lat="45.70689" lon="6.60234">
        <ele>901.6</ele>
        <time>2021-06-01T10:26:16Z</time>
      </trkpt>
      <trkpt lat="45.7069" lon="6.60237">
        <ele>901.4</ele>
        <time>2021-06-01T10:26:17Z</time>
      </trkpt>
      <trkpt lat="45.70691" lon="6.60239">
        <ele>901</ele>
        <time>2021-06-01T10:26:18Z</time>
      </trkpt>
      <trkpt lat="45.70692" lon="6.60243">
        <ele>900.8</ele>
        <time>2021-06-01T10:26:19Z</time>
      </trkpt>
      <trkpt lat="45.70694" lon="6.60246">
        <ele>900.4</ele>
        <time>2021-06-01T10:26:20Z</time>
      </trkpt>
      <trkpt lat="45.70695" lon="6.60249">
        <ele>900.2</ele>
        <time>2021-06-01T10:26:21Z</time>
      </trkpt>
      <trkpt lat="45.70697" lon="6.60253">
        <ele>900</ele>
        <time>2021-06-01T10:26:22Z</time>
      </trkpt>
      <trkpt lat="45.70699" lon="6.60256">
        <ele>899.8</ele>
        <time>2021-06-01T10:26:23Z</time>
      </trkpt>
      <trkpt lat="45.707" lon="6.60259">
        <ele>899.8</ele>
        <time>2021-06-01T10:26:24Z</time>
      </trkpt>
      <trkpt lat="45.70701" lon="6.60262">
        <ele>899.6</ele>
        <time>2021-06-01T10:26:25Z</time>
      </trkpt>
      <trkpt lat="45.70702" lon="6.60265">
        <ele>899.4</ele>
        <time>2021-06-01T10:26:26Z</time>
      </trkpt>
      <trkpt lat="45.70703" lon="6.60268">
        <ele>899.4</ele>
        <time>2021-06-01T10:26:27Z</time>
      </trkpt>
      <trkpt lat="45.70705" lon="6.60272">
        <ele>899</ele>
        <time>2021-06-01T10:26:28Z</time>
      </trkpt>
      <trkpt lat="45.70707" lon="6.60275">
        <ele>899</ele>
        <time>2021-06-01T10:26:29Z</time>
      </trkpt>
      <trkpt lat="45.7071" lon="6.60277">
        <ele>898.8</ele>
        <time>2021-06-01T10:26:30Z</time>
      </trkpt>
      <trkpt lat="45.70712" lon="6.6028">
        <ele>898.8</ele>
        <time>2021-06-01T10:26:31Z</time>
      </trkpt>
      <trkpt lat="45.70714" lon="6.60283">
        <ele>898.6</ele>
        <time>2021-06-01T10:26:32Z</time>
      </trkpt>
      <trkpt lat="45.70715" lon="6.60286">
        <ele>898.4</ele>
        <time>2021-06-01T10:26:33Z</time>
      </trkpt>
      <trkpt lat="45.70717" lon="6.60289">
        <ele>898.4</ele>
        <time>2021-06-01T10:26:34Z</time>
      </trkpt>
      <trkpt lat="45.70718" lon="6.60292">
        <ele>898.2</ele>
        <time>2021-06-01T10:26:35Z</time>
      </trkpt>
      <trkpt lat="45.70719" lon="6.60295">
        <ele>897.8</ele>
        <time>2021-06-01T10:26:36Z</time>
      </trkpt>
      <trkpt lat="45.70721" lon="6.60298">
        <ele>897.8</ele>
        <time>2021-06-01T10:26:37Z</time>
      </trkpt>
      <trkpt lat="45.70723" lon="6.60301">
        <ele>897.8</ele>
        <time>2021-06-01T10:26:38Z</time>
      </trkpt>
      <trkpt lat="45.70724" lon="6.60304">
        <ele>897.6</ele>
        <time>2021-06-01T10:26:39Z</time>
      </trkpt>
      <trkpt lat="45.70726" lon="6.60308">
        <ele>897.2</ele>
        <time>2021-06-01T10:26:40Z</time>
      </trkpt>
      <trkpt lat="45.70726" lon="6.60312">
        <ele>897.2</ele>
        <time>2021-06-01T10:26:41Z</time>
      </trkpt>
      <trkpt lat="45.70728" lon="6.60316">
        <ele>897.2</ele>
        <time>2021-06-01T10:26:42Z</time>
      </trkpt>
      <trkpt lat="45.70729" lon="6.60321">
        <ele>897</ele>
        <time>2021-06-01T10:26:43Z</time>
      </trkpt>
      <trkpt lat="45.7073" lon="6.60325">
        <ele>897</ele>
        <time>2021-06-01T10:26:44Z</time>
      </trkpt>
      <trkpt lat="45.70731" lon="6.6033">
        <ele>897</ele>
        <time>2021-06-01T10:26:45Z</time>
      </trkpt>
      <trkpt lat="45.70731" lon="6.60335">
        <ele>896.8</ele>
        <time>2021-06-01T10:26:46Z</time>
      </trkpt>
      <trkpt lat="45.70732" lon="6.60339">
        <ele>896.8</ele>
        <time>2021-06-01T10:26:47Z</time>
      </trkpt>
      <trkpt lat="45.70732" lon="6.60344">
        <ele>896.8</ele>
        <time>2021-06-01T10:26:48Z</time>
      </trkpt>
      <trkpt lat="45.70732" lon="6.60349">
        <ele>896.6</ele>
        <time>2021-06-01T10:26:49Z</time>
      </trkpt>
      <trkpt lat="45.70733" lon="6.60354">
        <ele>896.8</ele>
        <time>2021-06-01T10:26:50Z</time>
      </trkpt>
      <trkpt lat="45.70734" lon="6.60359">
        <ele>897.2</ele>
        <time>2021-06-01T10:26:51Z</time>
      </trkpt>
      <trkpt lat="45.70734" lon="6.60363">
        <ele>898</ele>
        <time>2021-06-01T10:26:52Z</time>
      </trkpt>
      <trkpt lat="45.70736" lon="6.60368">
        <ele>898.6</ele>
        <time>2021-06-01T10:26:53Z</time>
      </trkpt>
      <trkpt lat="45.70738" lon="6.60373">
        <ele>899.2</ele>
        <time>2021-06-01T10:26:54Z</time>
      </trkpt>
      <trkpt lat="45.70739" lon="6.60378">
        <ele>900</ele>
        <time>2021-06-01T10:26:55Z</time>
      </trkpt>
      <trkpt lat="45.7074" lon="6.60383">
        <ele>900.6</ele>
        <time>2021-06-01T10:26:56Z</time>
      </trkpt>
      <trkpt lat="45.70741" lon="6.60388">
        <ele>901.2</ele>
        <time>2021-06-01T10:26:57Z</time>
      </trkpt>
      <trkpt lat="45.70742" lon="6.60393">
        <ele>902</ele>
        <time>2021-06-01T10:26:58Z</time>
      </trkpt>
      <trkpt lat="45.70744" lon="6.60398">
        <ele>902.6</ele>
        <time>2021-06-01T10:26:59Z</time>
      </trkpt>
      <trkpt lat="45.70746" lon="6.60403">
        <ele>903.2</ele>
        <time>2021-06-01T10:27:00Z</time>
      </trkpt>
      <trkpt lat="45.70747" lon="6.60408">
        <ele>903.8</ele>
        <time>2021-06-01T10:27:01Z</time>
      </trkpt>
      <trkpt lat="45.70748" lon="6.60413">
        <ele>904.2</ele>
        <time>2021-06-01T10:27:02Z</time>
      </trkpt>
      <trkpt lat="45.70749" lon="6.60418">
        <ele>904.8</ele>
        <time>2021-06-01T10:27:03Z</time>
      </trkpt>
      <trkpt lat="45.7075" lon="6.60423">
        <ele>905.2</ele>
        <time>2021-06-01T10:27:04Z</time>
      </trkpt>
      <trkpt lat="45.7075" lon="6.60428">
        <ele>906</ele>
        <time>2021-06-01T10:27:05Z</time>
      </trkpt>
      <trkpt lat="45.7075" lon="6.60433">
        <ele>906.4</ele>
        <time>2021-06-01T10:27:06Z</time>
      </trkpt>
      <trkpt lat="45.70751" lon="6.60438">
        <ele>907</ele>
        <time>2021-06-01T10:27:07Z</time>
      </trkpt>
      <trkpt lat="45.70752" lon="6.60443">
        <ele>907.6</ele>
        <time>2021-06-01T10:27:08Z</time>
      </trkpt>
      <trkpt lat="45.70753" lon="6.60448">
        <ele>908.2</ele>
        <time>2021-06-01T10:27:09Z</time>
      </trkpt>
      <trkpt lat="45.70753" lon="6.60453">
        <ele>909</ele>
        <time>2021-06-01T10:27:10Z</time>
      </trkpt>
      <trkpt lat="45.70753" lon="6.60458">
        <ele>909.4</ele>
        <time>2021-06-01T10:27:11Z</time>
      </trkpt>
      <trkpt lat="45.70753" lon="6.60463">
        <ele>910</ele>
        <time>2021-06-01T10:27:12Z</time>
      </trkpt>
      <trkpt lat="45.70754" lon="6.60468">
        <ele>910.6</ele>
        <time>2021-06-01T10:27:13Z</time>
      </trkpt>
      <trkpt lat="45.70754" lon="6.60473">
        <ele>911</ele>
        <time>2021-06-01T10:27:14Z</time>
      </trkpt>
      <trkpt lat="45.70754" lon="6.60479">
        <ele>911.4</ele>
        <time>2021-06-01T10:27:15Z</time>
      </trkpt>
      <trkpt lat="45.70754" lon="6.60484">
        <ele>911.6</ele>
        <time>2021-06-01T10:27:16Z</time>
      </trkpt>
      <trkpt lat="45.70754" lon="6.60489">
        <ele>911.8</ele>
        <time>2021-06-01T10:27:17Z</time>
      </trkpt>
      <trkpt lat="45.70756" lon="6.60494">
        <ele>911.8</ele>
        <time>2021-06-01T10:27:18Z</time>
      </trkpt>
      <trkpt lat="45.70755" lon="6.60499">
        <ele>911.8</ele>
        <time>2021-06-01T10:27:19Z</time>
      </trkpt>
      <trkpt lat="45.70755" lon="6.60503">
        <ele>911.8</ele>
        <time>2021-06-01T10:27:20Z</time>
      </trkpt>
      <trkpt lat="45.70753" lon="6.60508">
        <ele>911.8</ele>
        <time>2021-06-01T10:27:21Z</time>
      </trkpt>
      <trkpt lat="45.70752" lon="6.60511">
        <ele>911.6</ele>
        <time>2021-06-01T10:27:22Z</time>
      </trkpt>
      <trkpt lat="45.70749" lon="6.60514">
        <ele>912.2</ele>
        <time>2021-06-01T10:27:23Z</time>
      </trkpt>
      <trkpt lat="45.70748" lon="6.60517">
        <ele>912.8</ele>
        <time>2021-06-01T10:27:24Z</time>
      </trkpt>
      <trkpt lat="45.70746" lon="6.6052">
        <ele>913.4</ele>
        <time>2021-06-01T10:27:25Z</time>
      </trkpt>
      <trkpt lat="45.70745" lon="6.60523">
        <ele>914.2</ele>
        <time>2021-06-01T10:27:26Z</time>
      </trkpt>
      <trkpt lat="45.70744" lon="6.60526">
        <ele>914.8</ele>
        <time>2021-06-01T10:27:27Z</time>
      </trkpt>
      <trkpt lat="45.70744" lon="6.6053">
        <ele>915.2</ele>
        <time>2021-06-01T10:27:28Z</time>
      </trkpt>
      <trkpt lat="45.70744" lon="6.60534">
        <ele>915.8</ele>
        <time>2021-06-01T10:27:29Z</time>
      </trkpt>
      <trkpt lat="45.70746" lon="6.60539">
        <ele>916.2</ele>
        <time>2021-06-01T10:27:30Z</time>
      </trkpt>
      <trkpt lat="45.70746" lon="6.60544">
        <ele>916.8</ele>
        <time>2021-06-01T10:27:31Z</time>
      </trkpt>
      <trkpt lat="45.70747" lon="6.60549">
        <ele>917.4</ele>
        <time>2021-06-01T10:27:32Z</time>
      </trkpt>
      <trkpt lat="45.70747" lon="6.60554">
        <ele>918</ele>
        <time>2021-06-01T10:27:33Z</time>
      </trkpt>
      <trkpt lat="45.70748" lon="6.60559">
        <ele>918.6</ele>
        <time>2021-06-01T10:27:34Z</time>
      </trkpt>
      <trkpt lat="45.70748" lon="6.60564">
        <ele>919.4</ele>
        <time>2021-06-01T10:27:35Z</time>
      </trkpt>
      <trkpt lat="45.7075" lon="6.60569">
        <ele>920</ele>
        <time>2021-06-01T10:27:36Z</time>
      </trkpt>
      <trkpt lat="45.70751" lon="6.60574">
        <ele>920.8</ele>
        <time>2021-06-01T10:27:37Z</time>
      </trkpt>
      <trkpt lat="45.70752" lon="6.60579">
        <ele>921.2</ele>
        <time>2021-06-01T10:27:38Z</time>
      </trkpt>
      <trkpt lat="45.70751" lon="6.60584">
        <ele>921.6</ele>
        <time>2021-06-01T10:27:39Z</time>
      </trkpt>
      <trkpt lat="45.70751" lon="6.60589">
        <ele>921.8</ele>
        <time>2021-06-01T10:27:40Z</time>
      </trkpt>
      <trkpt lat="45.70751" lon="6.60594">
        <ele>922</ele>
        <time>2021-06-01T10:27:41Z</time>
      </trkpt>
      <trkpt lat="45.70751" lon="6.60599">
        <ele>922.2</ele>
        <time>2021-06-01T10:27:42Z</time>
      </trkpt>
      <trkpt lat="45.70751" lon="6.60603">
        <ele>922.2</ele>
        <time>2021-06-01T10:27:43Z</time>
      </trkpt>
      <trkpt lat="45.7075" lon="6.60608">
        <ele>922.2</ele>
        <time>2021-06-01T10:27:44Z</time>
      </trkpt>
      <trkpt lat="45.70747" lon="6.60612">
        <ele>922.2</ele>
        <time>2021-06-01T10:27:45Z</time>
      </trkpt>
      <trkpt lat="45.70744" lon="6.60616">
        <ele>922.4</ele>
        <time>2021-06-01T10:27:46Z</time>
      </trkpt>
      <trkpt lat="45.70741" lon="6.6062">
        <ele>923</ele>
        <time>2021-06-01T10:27:47Z</time>
      </trkpt>
      <trkpt lat="45.70738" lon="6.60624">
        <ele>923.6</ele>
        <time>2021-06-01T10:27:48Z</time>
      </trkpt>
      <trkpt lat="45.70736" lon="6.60628">
        <ele>924</ele>
        <time>2021-06-01T10:27:49Z</time>
      </trkpt>
      <trkpt lat="45.70734" lon="6.60632">
        <ele>924.6</ele>
        <time>2021-06-01T10:27:50Z</time>
      </trkpt>
      <trkpt lat="45.70732" lon="6.60637">
        <ele>925.4</ele>
        <time>2021-06-01T10:27:51Z</time>
      </trkpt>
      <trkpt lat="45.70731" lon="6.60641">
        <ele>926.2</ele>
        <time>2021-06-01T10:27:52Z</time>
      </trkpt>
      <trkpt lat="45.7073" lon="6.60645">
        <ele>926.8</ele>
        <time>2021-06-01T10:27:53Z</time>
      </trkpt>
      <trkpt lat="45.70728" lon="6.60649">
        <ele>927.4</ele>
        <time>2021-06-01T10:27:54Z</time>
      </trkpt>
      <trkpt lat="45.70727" lon="6.60653">
        <ele>928.2</ele>
        <time>2021-06-01T10:27:55Z</time>
      </trkpt>
      <trkpt lat="45.70726" lon="6.60658">
        <ele>928.8</ele>
        <time>2021-06-01T10:27:56Z</time>
      </trkpt>
      <trkpt lat="45.70724" lon="6.60662">
        <ele>929.4</ele>
        <time>2021-06-01T10:27:57Z</time>
      </trkpt>
      <trkpt lat="45.70723" lon="6.60667">
        <ele>930</ele>
        <time>2021-06-01T10:27:58Z</time>
      </trkpt>
      <trkpt lat="45.70722" lon="6.60671">
        <ele>930.6</ele>
        <time>2021-06-01T10:27:59Z</time>
      </trkpt>
      <trkpt lat="45.7072" lon="6.60676">
        <ele>931.2</ele>
        <time>2021-06-01T10:28:00Z</time>
      </trkpt>
      <trkpt lat="45.70718" lon="6.60681">
        <ele>931.8</ele>
        <time>2021-06-01T10:28:01Z</time>
      </trkpt>
      <trkpt lat="45.70717" lon="6.60686">
        <ele>932.4</ele>
        <time>2021-06-01T10:28:02Z</time>
      </trkpt>
      <trkpt lat="45.70716" lon="6.60691">
        <ele>932.8</ele>
        <time>2021-06-01T10:28:03Z</time>
      </trkpt>
      <trkpt lat="45.70715" lon="6.60696">
        <ele>933.4</ele>
        <time>2021-06-01T10:28:04Z</time>
      </trkpt>
      <trkpt lat="45.70713" lon="6.60701">
        <ele>934</ele>
        <time>2021-06-01T10:28:05Z</time>
      </trkpt>
      <trkpt lat="45.70713" lon="6.60706">
        <ele>934.6</ele>
        <time>2021-06-01T10:28:06Z</time>
      </trkpt>
      <trkpt lat="45.70712" lon="6.60709">
        <ele>935.2</ele>
        <time>2021-06-01T10:28:07Z</time>
      </trkpt>
      <trkpt lat="45.70712" lon="6.60713">
        <ele>936</ele>
        <time>2021-06-01T10:28:08Z</time>
      </trkpt>
      <trkpt lat="45.70711" lon="6.60716">
        <ele>936.6</ele>
        <time>2021-06-01T10:28:09Z</time>
      </trkpt>
      <trkpt lat="45.70715" lon="6.60738">
        <ele>939.4</ele>
        <time>2021-06-01T10:28:15Z</time>
      </trkpt>
      <trkpt lat="45.70713" lon="6.60742">
        <ele>939.8</ele>
        <time>2021-06-01T10:28:16Z</time>
      </trkpt>
      <trkpt lat="45.70714" lon="6.60747">
        <ele>940.2</ele>
        <time>2021-06-01T10:28:17Z</time>
      </trkpt>
      <trkpt lat="45.70716" lon="6.60752">
        <ele>940.6</ele>
        <time>2021-06-01T10:28:18Z</time>
      </trkpt>
      <trkpt lat="45.70718" lon="6.60756">
        <ele>941</ele>
        <time>2021-06-01T10:28:19Z</time>
      </trkpt>
      <trkpt lat="45.7072" lon="6.6076">
        <ele>941.6</ele>
        <time>2021-06-01T10:28:20Z</time>
      </trkpt>
      <trkpt lat="45.70722" lon="6.60764">
        <ele>942</ele>
        <time>2021-06-01T10:28:21Z</time>
      </trkpt>
      <trkpt lat="45.70723" lon="6.60769">
        <ele>942.4</ele>
        <time>2021-06-01T10:28:22Z</time>
      </trkpt>
      <trkpt lat="45.70723" lon="6.60773">
        <ele>943</ele>
        <time>2021-06-01T10:28:23Z</time>
      </trkpt>
      <trkpt lat="45.70723" lon="6.60777">
        <ele>943.4</ele>
        <time>2021-06-01T10:28:24Z</time>
      </trkpt>
      <trkpt lat="45.70724" lon="6.60781">
        <ele>943.8</ele>
        <time>2021-06-01T10:28:25Z</time>
      </trkpt>
      <trkpt lat="45.70724" lon="6.60785">
        <ele>944.2</ele>
        <time>2021-06-01T10:28:26Z</time>
      </trkpt>
      <trkpt lat="45.70726" lon="6.60789">
        <ele>944.2</ele>
        <time>2021-06-01T10:28:27Z</time>
      </trkpt>
      <trkpt lat="45.70727" lon="6.60793">
        <ele>944.2</ele>
        <time>2021-06-01T10:28:28Z</time>
      </trkpt>
      <trkpt lat="45.70729" lon="6.60797">
        <ele>944</ele>
        <time>2021-06-01T10:28:29Z</time>
      </trkpt>
      <trkpt lat="45.7073" lon="6.60801">
        <ele>943.8</ele>
        <time>2021-06-01T10:28:30Z</time>
      </trkpt>
      <trkpt lat="45.70731" lon="6.60804">
        <ele>943.8</ele>
        <time>2021-06-01T10:28:31Z</time>
      </trkpt>
      <trkpt lat="45.70734" lon="6.60808">
        <ele>944</ele>
        <time>2021-06-01T10:28:32Z</time>
      </trkpt>
      <trkpt lat="45.70735" lon="6.60812">
        <ele>943.8</ele>
        <time>2021-06-01T10:28:33Z</time>
      </trkpt>
      <trkpt lat="45.70738" lon="6.60816">
        <ele>943.6</ele>
        <time>2021-06-01T10:28:34Z</time>
      </trkpt>
      <trkpt lat="45.70739" lon="6.6082">
        <ele>943.6</ele>
        <time>2021-06-01T10:28:35Z</time>
      </trkpt>
      <trkpt lat="45.70741" lon="6.60824">
        <ele>943.4</ele>
        <time>2021-06-01T10:28:36Z</time>
      </trkpt>
      <trkpt lat="45.70742" lon="6.60828">
        <ele>943.2</ele>
        <time>2021-06-01T10:28:37Z</time>
      </trkpt>
      <trkpt lat="45.70742" lon="6.60832">
        <ele>942.8</ele>
        <time>2021-06-01T10:28:38Z</time>
      </trkpt>
      <trkpt lat="45.70744" lon="6.60836">
        <ele>941.8</ele>
        <time>2021-06-01T10:28:39Z</time>
      </trkpt>
      <trkpt lat="45.70746" lon="6.6084">
        <ele>941.8</ele>
        <time>2021-06-01T10:28:40Z</time>
      </trkpt>
      <trkpt lat="45.70747" lon="6.60844">
        <ele>941.4</ele>
        <time>2021-06-01T10:28:41Z</time>
      </trkpt>
      <trkpt lat="45.70748" lon="6.60849">
        <ele>941.2</ele>
        <time>2021-06-01T10:28:42Z</time>
      </trkpt>
      <trkpt lat="45.70749" lon="6.60853">
        <ele>940.8</ele>
        <time>2021-06-01T10:28:43Z</time>
      </trkpt>
      <trkpt lat="45.7075" lon="6.60857">
        <ele>940.6</ele>
        <time>2021-06-01T10:28:44Z</time>
      </trkpt>
      <trkpt lat="45.70752" lon="6.60862">
        <ele>940.2</ele>
        <time>2021-06-01T10:28:45Z</time>
      </trkpt>
      <trkpt lat="45.70755" lon="6.60868">
        <ele>939.8</ele>
        <time>2021-06-01T10:28:46Z</time>
      </trkpt>
      <trkpt lat="45.70757" lon="6.60873">
        <ele>939.6</ele>
        <time>2021-06-01T10:28:47Z</time>
      </trkpt>
      <trkpt lat="45.70759" lon="6.60878">
        <ele>939</ele>
        <time>2021-06-01T10:28:48Z</time>
      </trkpt>
      <trkpt lat="45.70755" lon="6.60883">
        <ele>938.8</ele>
        <time>2021-06-01T10:28:49Z</time>
      </trkpt>
      <trkpt lat="45.70752" lon="6.60887">
        <ele>938.4</ele>
        <time>2021-06-01T10:28:50Z</time>
      </trkpt>
      <trkpt lat="45.70748" lon="6.60891">
        <ele>938</ele>
        <time>2021-06-01T10:28:51Z</time>
      </trkpt>
      <trkpt lat="45.70746" lon="6.60895">
        <ele>937.8</ele>
        <time>2021-06-01T10:28:52Z</time>
      </trkpt>
      <trkpt lat="45.70744" lon="6.60898">
        <ele>937.6</ele>
        <time>2021-06-01T10:28:53Z</time>
      </trkpt>
      <trkpt lat="45.70742" lon="6.60902">
        <ele>937.4</ele>
        <time>2021-06-01T10:28:54Z</time>
      </trkpt>
      <trkpt lat="45.7074" lon="6.60906">
        <ele>937</ele>
        <time>2021-06-01T10:28:55Z</time>
      </trkpt>
      <trkpt lat="45.70738" lon="6.6091">
        <ele>937</ele>
        <time>2021-06-01T10:28:56Z</time>
      </trkpt>
      <trkpt lat="45.70736" lon="6.60914">
        <ele>937.2</ele>
        <time>2021-06-01T10:28:57Z</time>
      </trkpt>
      <trkpt lat="45.70734" lon="6.60917">
        <ele>937.2</ele>
        <time>2021-06-01T10:28:58Z</time>
      </trkpt>
      <trkpt lat="45.70732" lon="6.6092">
        <ele>937.2</ele>
        <time>2021-06-01T10:28:59Z</time>
      </trkpt>
      <trkpt lat="45.7073" lon="6.60923">
        <ele>937</ele>
        <time>2021-06-01T10:29:00Z</time>
      </trkpt>
      <trkpt lat="45.70728" lon="6.60926">
        <ele>937.2</ele>
        <time>2021-06-01T10:29:01Z</time>
      </trkpt>
      <trkpt lat="45.70726" lon="6.6093">
        <ele>937.4</ele>
        <time>2021-06-01T10:29:02Z</time>
      </trkpt>
      <trkpt lat="45.70723" lon="6.60934">
        <ele>937.8</ele>
        <time>2021-06-01T10:29:03Z</time>
      </trkpt>
      <trkpt lat="45.70721" lon="6.60938">
        <ele>938</ele>
        <time>2021-06-01T10:29:04Z</time>
      </trkpt>
      <trkpt lat="45.70715" lon="6.60942">
        <ele>938.2</ele>
        <time>2021-06-01T10:29:05Z</time>
      </trkpt>
      <trkpt lat="45.70712" lon="6.60946">
        <ele>938.4</ele>
        <time>2021-06-01T10:29:06Z</time>
      </trkpt>
      <trkpt lat="45.7071" lon="6.60949">
        <ele>938.8</ele>
        <time>2021-06-01T10:29:07Z</time>
      </trkpt>
      <trkpt lat="45.70709" lon="6.60953">
        <ele>939.2</ele>
        <time>2021-06-01T10:29:08Z</time>
      </trkpt>
      <trkpt lat="45.70707" lon="6.60957">
        <ele>939.6</ele>
        <time>2021-06-01T10:29:09Z</time>
      </trkpt>
      <trkpt lat="45.70705" lon="6.60961">
        <ele>939.8</ele>
        <time>2021-06-01T10:29:10Z</time>
      </trkpt>
      <trkpt lat="45.70704" lon="6.60965">
        <ele>940.4</ele>
        <time>2021-06-01T10:29:11Z</time>
      </trkpt>
      <trkpt lat="45.70703" lon="6.6097">
        <ele>940.8</ele>
        <time>2021-06-01T10:29:12Z</time>
      </trkpt>
      <trkpt lat="45.70703" lon="6.60975">
        <ele>941.4</ele>
        <time>2021-06-01T10:29:13Z</time>
      </trkpt>
      <trkpt lat="45.70702" lon="6.6098">
        <ele>942</ele>
        <time>2021-06-01T10:29:14Z</time>
      </trkpt>
      <trkpt lat="45.70701" lon="6.60985">
        <ele>942.6</ele>
        <time>2021-06-01T10:29:15Z</time>
      </trkpt>
      <trkpt lat="45.707" lon="6.6099">
        <ele>943.2</ele>
        <time>2021-06-01T10:29:16Z</time>
      </trkpt>
      <trkpt lat="45.70698" lon="6.60995">
        <ele>943.6</ele>
        <time>2021-06-01T10:29:17Z</time>
      </trkpt>
      <trkpt lat="45.70697" lon="6.60999">
        <ele>944.4</ele>
        <time>2021-06-01T10:29:18Z</time>
      </trkpt>
      <trkpt lat="45.70696" lon="6.61003">
        <ele>945</ele>
        <time>2021-06-01T10:29:19Z</time>
      </trkpt>
      <trkpt lat="45.70695" lon="6.61007">
        <ele>945.8</ele>
        <time>2021-06-01T10:29:20Z</time>
      </trkpt>
      <trkpt lat="45.70694" lon="6.61012">
        <ele>946.4</ele>
        <time>2021-06-01T10:29:21Z</time>
      </trkpt>
      <trkpt lat="45.70693" lon="6.61016">
        <ele>947.2</ele>
        <time>2021-06-01T10:29:22Z</time>
      </trkpt>
      <trkpt lat="45.70693" lon="6.6102">
        <ele>948</ele>
        <time>2021-06-01T10:29:23Z</time>
      </trkpt>
      <trkpt lat="45.70692" lon="6.61024">
        <ele>948.8</ele>
        <time>2021-06-01T10:29:24Z</time>
      </trkpt>
      <trkpt lat="45.70691" lon="6.61028">
        <ele>949.4</ele>
        <time>2021-06-01T10:29:25Z</time>
      </trkpt>
      <trkpt lat="45.70689" lon="6.61033">
        <ele>950.2</ele>
        <time>2021-06-01T10:29:26Z</time>
      </trkpt>
      <trkpt lat="45.70688" lon="6.61036">
        <ele>950.8</ele>
        <time>2021-06-01T10:29:27Z</time>
      </trkpt>
      <trkpt lat="45.70687" lon="6.61041">
        <ele>951.4</ele>
        <time>2021-06-01T10:29:28Z</time>
      </trkpt>
      <trkpt lat="45.70687" lon="6.61046">
        <ele>951.6</ele>
        <time>2021-06-01T10:29:29Z</time>
      </trkpt>
      <trkpt lat="45.70687" lon="6.61051">
        <ele>951.4</ele>
        <time>2021-06-01T10:29:30Z</time>
      </trkpt>
      <trkpt lat="45.70688" lon="6.61055">
        <ele>951.4</ele>
        <time>2021-06-01T10:29:31Z</time>
      </trkpt>
      <trkpt lat="45.70687" lon="6.61059">
        <ele>951.2</ele>
        <time>2021-06-01T10:29:32Z</time>
      </trkpt>
      <trkpt lat="45.70687" lon="6.61063">
        <ele>951</ele>
        <time>2021-06-01T10:29:33Z</time>
      </trkpt>
      <trkpt lat="45.70686" lon="6.61067">
        <ele>951</ele>
        <time>2021-06-01T10:29:34Z</time>
      </trkpt>
      <trkpt lat="45.70686" lon="6.61072">
        <ele>951.2</ele>
        <time>2021-06-01T10:29:35Z</time>
      </trkpt>
      <trkpt lat="45.70685" lon="6.61076">
        <ele>951.4</ele>
        <time>2021-06-01T10:29:36Z</time>
      </trkpt>
      <trkpt lat="45.70684" lon="6.61081">
        <ele>952</ele>
        <time>2021-06-01T10:29:37Z</time>
      </trkpt>
      <trkpt lat="45.70684" lon="6.61085">
        <ele>952.4</ele>
        <time>2021-06-01T10:29:38Z</time>
      </trkpt>
      <trkpt lat="45.70683" lon="6.6109">
        <ele>953</ele>
        <time>2021-06-01T10:29:39Z</time>
      </trkpt>
      <trkpt lat="45.70683" lon="6.61094">
        <ele>953.2</ele>
        <time>2021-06-01T10:29:40Z</time>
      </trkpt>
      <trkpt lat="45.70682" lon="6.61098">
        <ele>953.4</ele>
        <time>2021-06-01T10:29:41Z</time>
      </trkpt>
      <trkpt lat="45.70681" lon="6.61102">
        <ele>953.8</ele>
        <time>2021-06-01T10:29:42Z</time>
      </trkpt>
      <trkpt lat="45.7068" lon="6.61106">
        <ele>954.4</ele>
        <time>2021-06-01T10:29:43Z</time>
      </trkpt>
      <trkpt lat="45.70679" lon="6.61111">
        <ele>955</ele>
        <time>2021-06-01T10:29:44Z</time>
      </trkpt>
      <trkpt lat="45.70679" lon="6.61115">
        <ele>955.4</ele>
        <time>2021-06-01T10:29:45Z</time>
      </trkpt>
      <trkpt lat="45.70679" lon="6.61119">
        <ele>955.8</ele>
        <time>2021-06-01T10:29:46Z</time>
      </trkpt>
      <trkpt lat="45.70679" lon="6.61123">
        <ele>956.4</ele>
        <time>2021-06-01T10:29:47Z</time>
      </trkpt>
      <trkpt lat="45.7068" lon="6.61127">
        <ele>956.8</ele>
        <time>2021-06-01T10:29:48Z</time>
      </trkpt>
      <trkpt lat="45.70681" lon="6.6113">
        <ele>957.2</ele>
        <time>2021-06-01T10:29:49Z</time>
      </trkpt>
      <trkpt lat="45.70683" lon="6.61134">
        <ele>957.6</ele>
        <time>2021-06-01T10:29:50Z</time>
      </trkpt>
      <trkpt lat="45.70685" lon="6.61137">
        <ele>958</ele>
        <time>2021-06-01T10:29:51Z</time>
      </trkpt>
      <trkpt lat="45.70686" lon="6.6114">
        <ele>958.4</ele>
        <time>2021-06-01T10:29:52Z</time>
      </trkpt>
      <trkpt lat="45.70689" lon="6.61144">
        <ele>958.8</ele>
        <time>2021-06-01T10:29:53Z</time>
      </trkpt>
      <trkpt lat="45.70691" lon="6.61147">
        <ele>959.4</ele>
        <time>2021-06-01T10:29:54Z</time>
      </trkpt>
      <trkpt lat="45.70693" lon="6.6115">
        <ele>960</ele>
        <time>2021-06-01T10:29:55Z</time>
      </trkpt>
      <trkpt lat="45.70695" lon="6.61153">
        <ele>960.2</ele>
        <time>2021-06-01T10:29:56Z</time>
      </trkpt>
      <trkpt lat="45.70698" lon="6.61155">
        <ele>960.4</ele>
        <time>2021-06-01T10:29:57Z</time>
      </trkpt>
      <trkpt lat="45.70701" lon="6.61158">
        <ele>961</ele>
        <time>2021-06-01T10:29:58Z</time>
      </trkpt>
      <trkpt lat="45.70703" lon="6.61161">
        <ele>961.4</ele>
        <time>2021-06-01T10:29:59Z</time>
      </trkpt>
      <trkpt lat="45.70707" lon="6.61164">
        <ele>961.4</ele>
        <time>2021-06-01T10:30:00Z</time>
      </trkpt>
      <trkpt lat="45.7071" lon="6.61167">
        <ele>962</ele>
        <time>2021-06-01T10:30:01Z</time>
      </trkpt>
      <trkpt lat="45.70712" lon="6.6117">
        <ele>962.4</ele>
        <time>2021-06-01T10:30:02Z</time>
      </trkpt>
      <trkpt lat="45.70714" lon="6.61174">
        <ele>963</ele>
        <time>2021-06-01T10:30:03Z</time>
      </trkpt>
      <trkpt lat="45.70715" lon="6.61178">
        <ele>963.4</ele>
        <time>2021-06-01T10:30:04Z</time>
      </trkpt>
      <trkpt lat="45.70717" lon="6.61181">
        <ele>963.6</ele>
        <time>2021-06-01T10:30:05Z</time>
      </trkpt>
      <trkpt lat="45.70718" lon="6.61185">
        <ele>964</ele>
        <time>2021-06-01T10:30:06Z</time>
      </trkpt>
      <trkpt lat="45.70719" lon="6.6119">
        <ele>964.4</ele>
        <time>2021-06-01T10:30:07Z</time>
      </trkpt>
      <trkpt lat="45.70719" lon="6.61194">
        <ele>965</ele>
        <time>2021-06-01T10:30:08Z</time>
      </trkpt>
      <trkpt lat="45.7072" lon="6.61198">
        <ele>965.4</ele>
        <time>2021-06-01T10:30:09Z</time>
      </trkpt>
      <trkpt lat="45.7072" lon="6.61203">
        <ele>965.6</ele>
        <time>2021-06-01T10:30:10Z</time>
      </trkpt>
      <trkpt lat="45.7072" lon="6.61206">
        <ele>965.6</ele>
        <time>2021-06-01T10:30:11Z</time>
      </trkpt>
      <trkpt lat="45.7072" lon="6.61211">
        <ele>965</ele>
        <time>2021-06-01T10:30:12Z</time>
      </trkpt>
      <trkpt lat="45.70722" lon="6.61215">
        <ele>964.6</ele>
        <time>2021-06-01T10:30:13Z</time>
      </trkpt>
      <trkpt lat="45.70721" lon="6.61219">
        <ele>963.8</ele>
        <time>2021-06-01T10:30:14Z</time>
      </trkpt>
      <trkpt lat="45.7072" lon="6.61223">
        <ele>963.2</ele>
        <time>2021-06-01T10:30:15Z</time>
      </trkpt>
      <trkpt lat="45.70718" lon="6.61227">
        <ele>963</ele>
        <time>2021-06-01T10:30:16Z</time>
      </trkpt>
      <trkpt lat="45.70717" lon="6.61231">
        <ele>962.6</ele>
        <time>2021-06-01T10:30:17Z</time>
      </trkpt>
      <trkpt lat="45.70715" lon="6.61236">
        <ele>962.2</ele>
        <time>2021-06-01T10:30:18Z</time>
      </trkpt>
      <trkpt lat="45.70714" lon="6.61239">
        <ele>961.8</ele>
        <time>2021-06-01T10:30:19Z</time>
      </trkpt>
      <trkpt lat="45.70713" lon="6.61243">
        <ele>961.4</ele>
        <time>2021-06-01T10:30:20Z</time>
      </trkpt>
      <trkpt lat="45.7071" lon="6.61247">
        <ele>961</ele>
        <time>2021-06-01T10:30:21Z</time>
      </trkpt>
      <trkpt lat="45.70709" lon="6.61251">
        <ele>960.8</ele>
        <time>2021-06-01T10:30:22Z</time>
      </trkpt>
      <trkpt lat="45.70708" lon="6.61256">
        <ele>960.8</ele>
        <time>2021-06-01T10:30:23Z</time>
      </trkpt>
      <trkpt lat="45.70708" lon="6.61261">
        <ele>961.2</ele>
        <time>2021-06-01T10:30:24Z</time>
      </trkpt>
      <trkpt lat="45.70709" lon="6.61265">
        <ele>961.8</ele>
        <time>2021-06-01T10:30:25Z</time>
      </trkpt>
      <trkpt lat="45.70709" lon="6.6127">
        <ele>962.4</ele>
        <time>2021-06-01T10:30:26Z</time>
      </trkpt>
      <trkpt lat="45.7071" lon="6.61274">
        <ele>963.2</ele>
        <time>2021-06-01T10:30:27Z</time>
      </trkpt>
      <trkpt lat="45.70711" lon="6.61277">
        <ele>964</ele>
        <time>2021-06-01T10:30:28Z</time>
      </trkpt>
      <trkpt lat="45.70713" lon="6.61281">
        <ele>964.8</ele>
        <time>2021-06-01T10:30:29Z</time>
      </trkpt>
      <trkpt lat="45.70714" lon="6.61285">
        <ele>965.2</ele>
        <time>2021-06-01T10:30:30Z</time>
      </trkpt>
      <trkpt lat="45.70715" lon="6.6129">
        <ele>965.4</ele>
        <time>2021-06-01T10:30:31Z</time>
      </trkpt>
      <trkpt lat="45.70716" lon="6.61294">
        <ele>965.8</ele>
        <time>2021-06-01T10:30:32Z</time>
      </trkpt>
      <trkpt lat="45.70717" lon="6.61299">
        <ele>966.2</ele>
        <time>2021-06-01T10:30:33Z</time>
      </trkpt>
      <trkpt lat="45.70717" lon="6.61303">
        <ele>966.6</ele>
        <time>2021-06-01T10:30:34Z</time>
      </trkpt>
      <trkpt lat="45.70716" lon="6.61308">
        <ele>967</ele>
        <time>2021-06-01T10:30:35Z</time>
      </trkpt>
      <trkpt lat="45.70714" lon="6.61311">
        <ele>967.4</ele>
        <time>2021-06-01T10:30:36Z</time>
      </trkpt>
      <trkpt lat="45.70711" lon="6.61315">
        <ele>967.6</ele>
        <time>2021-06-01T10:30:37Z</time>
      </trkpt>
      <trkpt lat="45.70709" lon="6.61318">
        <ele>967.4</ele>
        <time>2021-06-01T10:30:38Z</time>
      </trkpt>
      <trkpt lat="45.70706" lon="6.61321">
        <ele>967.4</ele>
        <time>2021-06-01T10:30:39Z</time>
      </trkpt>
      <trkpt lat="45.70704" lon="6.61324">
        <ele>967.4</ele>
        <time>2021-06-01T10:30:40Z</time>
      </trkpt>
      <trkpt lat="45.70701" lon="6.61327">
        <ele>967.4</ele>
        <time>2021-06-01T10:30:41Z</time>
      </trkpt>
      <trkpt lat="45.70699" lon="6.61331">
        <ele>967.4</ele>
        <time>2021-06-01T10:30:42Z</time>
      </trkpt>
      <trkpt lat="45.70697" lon="6.61334">
        <ele>967.4</ele>
        <time>2021-06-01T10:30:43Z</time>
      </trkpt>
      <trkpt lat="45.70695" lon="6.61337">
        <ele>967.2</ele>
        <time>2021-06-01T10:30:44Z</time>
      </trkpt>
      <trkpt lat="45.70692" lon="6.61341">
        <ele>967.2</ele>
        <time>2021-06-01T10:30:45Z</time>
      </trkpt>
      <trkpt lat="45.7069" lon="6.61344">
        <ele>967</ele>
        <time>2021-06-01T10:30:46Z</time>
      </trkpt>
      <trkpt lat="45.70687" lon="6.61347">
        <ele>966.8</ele>
        <time>2021-06-01T10:30:47Z</time>
      </trkpt>
      <trkpt lat="45.70685" lon="6.6135">
        <ele>966.8</ele>
        <time>2021-06-01T10:30:48Z</time>
      </trkpt>
      <trkpt lat="45.70683" lon="6.61353">
        <ele>966.8</ele>
        <time>2021-06-01T10:30:49Z</time>
      </trkpt>
      <trkpt lat="45.70681" lon="6.61356">
        <ele>966.8</ele>
        <time>2021-06-01T10:30:50Z</time>
      </trkpt>
      <trkpt lat="45.70679" lon="6.61359">
        <ele>966.6</ele>
        <time>2021-06-01T10:30:51Z</time>
      </trkpt>
      <trkpt lat="45.70677" lon="6.61363">
        <ele>966.4</ele>
        <time>2021-06-01T10:30:52Z</time>
      </trkpt>
      <trkpt lat="45.70675" lon="6.61367">
        <ele>966.2</ele>
        <time>2021-06-01T10:30:53Z</time>
      </trkpt>
      <trkpt lat="45.70673" lon="6.61372">
        <ele>966</ele>
        <time>2021-06-01T10:30:54Z</time>
      </trkpt>
      <trkpt lat="45.70671" lon="6.61377">
        <ele>965.8</ele>
        <time>2021-06-01T10:30:55Z</time>
      </trkpt>
      <trkpt lat="45.70669" lon="6.61382">
        <ele>965.6</ele>
        <time>2021-06-01T10:30:56Z</time>
      </trkpt>
      <trkpt lat="45.70667" lon="6.61387">
        <ele>965.4</ele>
        <time>2021-06-01T10:30:57Z</time>
      </trkpt>
      <trkpt lat="45.70665" lon="6.61392">
        <ele>965.6</ele>
        <time>2021-06-01T10:30:58Z</time>
      </trkpt>
      <trkpt lat="45.70663" lon="6.61398">
        <ele>966</ele>
        <time>2021-06-01T10:30:59Z</time>
      </trkpt>
      <trkpt lat="45.70661" lon="6.61404">
        <ele>966.4</ele>
        <time>2021-06-01T10:31:00Z</time>
      </trkpt>
      <trkpt lat="45.70659" lon="6.61409">
        <ele>967</ele>
        <time>2021-06-01T10:31:01Z</time>
      </trkpt>
      <trkpt lat="45.70656" lon="6.61415">
        <ele>967.8</ele>
        <time>2021-06-01T10:31:02Z</time>
      </trkpt>
      <trkpt lat="45.70653" lon="6.61421">
        <ele>968.6</ele>
        <time>2021-06-01T10:31:03Z</time>
      </trkpt>
      <trkpt lat="45.70651" lon="6.61427">
        <ele>969.8</ele>
        <time>2021-06-01T10:31:04Z</time>
      </trkpt>
      <trkpt lat="45.70649" lon="6.61434">
        <ele>970.6</ele>
        <time>2021-06-01T10:31:05Z</time>
      </trkpt>
      <trkpt lat="45.70647" lon="6.6144">
        <ele>971.6</ele>
        <time>2021-06-01T10:31:06Z</time>
      </trkpt>
      <trkpt lat="45.70645" lon="6.61446">
        <ele>972.4</ele>
        <time>2021-06-01T10:31:07Z</time>
      </trkpt>
      <trkpt lat="45.70643" lon="6.61453">
        <ele>973.4</ele>
        <time>2021-06-01T10:31:08Z</time>
      </trkpt>
      <trkpt lat="45.70641" lon="6.61462">
        <ele>974.2</ele>
        <time>2021-06-01T10:31:09Z</time>
      </trkpt>
      <trkpt lat="45.70639" lon="6.6147">
        <ele>975</ele>
        <time>2021-06-01T10:31:10Z</time>
      </trkpt>
      <trkpt lat="45.70639" lon="6.61478">
        <ele>975.8</ele>
        <time>2021-06-01T10:31:11Z</time>
      </trkpt>
      <trkpt lat="45.70638" lon="6.61486">
        <ele>976.4</ele>
        <time>2021-06-01T10:31:12Z</time>
      </trkpt>
      <trkpt lat="45.70637" lon="6.61495">
        <ele>977.4</ele>
        <time>2021-06-01T10:31:13Z</time>
      </trkpt>
      <trkpt lat="45.70636" lon="6.61503">
        <ele>978.4</ele>
        <time>2021-06-01T10:31:14Z</time>
      </trkpt>
      <trkpt lat="45.70635" lon="6.61511">
        <ele>979.2</ele>
        <time>2021-06-01T10:31:15Z</time>
      </trkpt>
      <trkpt lat="45.70635" lon="6.61519">
        <ele>980</ele>
        <time>2021-06-01T10:31:16Z</time>
      </trkpt>
      <trkpt lat="45.70635" lon="6.61528">
        <ele>980.8</ele>
        <time>2021-06-01T10:31:17Z</time>
      </trkpt>
      <trkpt lat="45.70635" lon="6.61536">
        <ele>981.8</ele>
        <time>2021-06-01T10:31:18Z</time>
      </trkpt>
      <trkpt lat="45.70635" lon="6.61544">
        <ele>982.6</ele>
        <time>2021-06-01T10:31:19Z</time>
      </trkpt>
      <trkpt lat="45.70634" lon="6.61552">
        <ele>983.4</ele>
        <time>2021-06-01T10:31:20Z</time>
      </trkpt>
      <trkpt lat="45.70634" lon="6.6156">
        <ele>983.8</ele>
        <time>2021-06-01T10:31:21Z</time>
      </trkpt>
      <trkpt lat="45.70634" lon="6.61568">
        <ele>983.8</ele>
        <time>2021-06-01T10:31:22Z</time>
      </trkpt>
      <trkpt lat="45.70633" lon="6.61577">
        <ele>984.4</ele>
        <time>2021-06-01T10:31:23Z</time>
      </trkpt>
      <trkpt lat="45.70633" lon="6.61585">
        <ele>984.8</ele>
        <time>2021-06-01T10:31:24Z</time>
      </trkpt>
      <trkpt lat="45.70632" lon="6.61593">
        <ele>985.2</ele>
        <time>2021-06-01T10:31:25Z</time>
      </trkpt>
      <trkpt lat="45.70631" lon="6.61601">
        <ele>985.4</ele>
        <time>2021-06-01T10:31:26Z</time>
      </trkpt>
      <trkpt lat="45.70631" lon="6.61609">
        <ele>986</ele>
        <time>2021-06-01T10:31:27Z</time>
      </trkpt>
      <trkpt lat="45.70631" lon="6.61616">
        <ele>986.2</ele>
        <time>2021-06-01T10:31:28Z</time>
      </trkpt>
      <trkpt lat="45.70631" lon="6.61625">
        <ele>986.4</ele>
        <time>2021-06-01T10:31:29Z</time>
      </trkpt>
      <trkpt lat="45.70631" lon="6.61633">
        <ele>986.8</ele>
        <time>2021-06-01T10:31:30Z</time>
      </trkpt>
      <trkpt lat="45.70631" lon="6.61641">
        <ele>987.2</ele>
        <time>2021-06-01T10:31:31Z</time>
      </trkpt>
      <trkpt lat="45.7063" lon="6.61649">
        <ele>987.6</ele>
        <time>2021-06-01T10:31:32Z</time>
      </trkpt>
      <trkpt lat="45.70629" lon="6.61657">
        <ele>987.8</ele>
        <time>2021-06-01T10:31:33Z</time>
      </trkpt>
      <trkpt lat="45.70628" lon="6.61665">
        <ele>988.2</ele>
        <time>2021-06-01T10:31:34Z</time>
      </trkpt>
      <trkpt lat="45.70627" lon="6.61672">
        <ele>988.2</ele>
        <time>2021-06-01T10:31:35Z</time>
      </trkpt>
      <trkpt lat="45.70625" lon="6.6168">
        <ele>988.4</ele>
        <time>2021-06-01T10:31:36Z</time>
      </trkpt>
      <trkpt lat="45.70624" lon="6.61687">
        <ele>988.6</ele>
        <time>2021-06-01T10:31:37Z</time>
      </trkpt>
      <trkpt lat="45.70623" lon="6.61695">
        <ele>988.8</ele>
        <time>2021-06-01T10:31:38Z</time>
      </trkpt>
      <trkpt lat="45.70624" lon="6.61702">
        <ele>988.8</ele>
        <time>2021-06-01T10:31:39Z</time>
      </trkpt>
      <trkpt lat="45.70624" lon="6.61709">
        <ele>989</ele>
        <time>2021-06-01T10:31:40Z</time>
      </trkpt>
      <trkpt lat="45.70623" lon="6.61717">
        <ele>989</ele>
        <time>2021-06-01T10:31:41Z</time>
      </trkpt>
      <trkpt lat="45.70622" lon="6.61725">
        <ele>989.2</ele>
        <time>2021-06-01T10:31:42Z</time>
      </trkpt>
      <trkpt lat="45.70621" lon="6.61732">
        <ele>989.4</ele>
        <time>2021-06-01T10:31:43Z</time>
      </trkpt>
      <trkpt lat="45.70621" lon="6.6174">
        <ele>989.2</ele>
        <time>2021-06-01T10:31:44Z</time>
      </trkpt>
      <trkpt lat="45.7062" lon="6.61748">
        <ele>989.2</ele>
        <time>2021-06-01T10:31:45Z</time>
      </trkpt>
      <trkpt lat="45.70619" lon="6.61756">
        <ele>989.2</ele>
        <time>2021-06-01T10:31:46Z</time>
      </trkpt>
      <trkpt lat="45.70617" lon="6.61763">
        <ele>989</ele>
        <time>2021-06-01T10:31:47Z</time>
      </trkpt>
      <trkpt lat="45.70615" lon="6.61771">
        <ele>988.6</ele>
        <time>2021-06-01T10:31:48Z</time>
      </trkpt>
      <trkpt lat="45.70614" lon="6.61779">
        <ele>988.4</ele>
        <time>2021-06-01T10:31:49Z</time>
      </trkpt>
      <trkpt lat="45.70614" lon="6.61787">
        <ele>988</ele>
        <time>2021-06-01T10:31:50Z</time>
      </trkpt>
      <trkpt lat="45.70613" lon="6.61795">
        <ele>987.4</ele>
        <time>2021-06-01T10:31:51Z</time>
      </trkpt>
      <trkpt lat="45.70612" lon="6.61803">
        <ele>987</ele>
        <time>2021-06-01T10:31:52Z</time>
      </trkpt>
      <trkpt lat="45.70611" lon="6.6181">
        <ele>986.8</ele>
        <time>2021-06-01T10:31:53Z</time>
      </trkpt>
      <trkpt lat="45.70611" lon="6.61818">
        <ele>987</ele>
        <time>2021-06-01T10:31:54Z</time>
      </trkpt>
      <trkpt lat="45.7061" lon="6.61825">
        <ele>987</ele>
        <time>2021-06-01T10:31:55Z</time>
      </trkpt>
      <trkpt lat="45.70609" lon="6.61832">
        <ele>987</ele>
        <time>2021-06-01T10:31:56Z</time>
      </trkpt>
      <trkpt lat="45.70607" lon="6.61839">
        <ele>987.4</ele>
        <time>2021-06-01T10:31:57Z</time>
      </trkpt>
      <trkpt lat="45.70606" lon="6.61846">
        <ele>987.8</ele>
        <time>2021-06-01T10:31:58Z</time>
      </trkpt>
      <trkpt lat="45.70605" lon="6.61853">
        <ele>988.2</ele>
        <time>2021-06-01T10:31:59Z</time>
      </trkpt>
      <trkpt lat="45.70604" lon="6.6186">
        <ele>988.4</ele>
        <time>2021-06-01T10:32:00Z</time>
      </trkpt>
      <trkpt lat="45.70603" lon="6.61868">
        <ele>988.4</ele>
        <time>2021-06-01T10:32:01Z</time>
      </trkpt>
      <trkpt lat="45.70602" lon="6.61875">
        <ele>988.6</ele>
        <time>2021-06-01T10:32:02Z</time>
      </trkpt>
      <trkpt lat="45.70601" lon="6.61881">
        <ele>988.8</ele>
        <time>2021-06-01T10:32:03Z</time>
      </trkpt>
      <trkpt lat="45.70599" lon="6.61888">
        <ele>989</ele>
        <time>2021-06-01T10:32:04Z</time>
      </trkpt>
      <trkpt lat="45.70598" lon="6.61895">
        <ele>989.4</ele>
        <time>2021-06-01T10:32:05Z</time>
      </trkpt>
      <trkpt lat="45.70597" lon="6.61901">
        <ele>989.8</ele>
        <time>2021-06-01T10:32:06Z</time>
      </trkpt>
      <trkpt lat="45.70596" lon="6.61906">
        <ele>990.2</ele>
        <time>2021-06-01T10:32:07Z</time>
      </trkpt>
      <trkpt lat="45.70595" lon="6.61912">
        <ele>990.6</ele>
        <time>2021-06-01T10:32:08Z</time>
      </trkpt>
      <trkpt lat="45.70593" lon="6.61918">
        <ele>991.2</ele>
        <time>2021-06-01T10:32:09Z</time>
      </trkpt>
      <trkpt lat="45.70591" lon="6.61924">
        <ele>991.4</ele>
        <time>2021-06-01T10:32:10Z</time>
      </trkpt>
      <trkpt lat="45.70588" lon="6.61929">
        <ele>991.6</ele>
        <time>2021-06-01T10:32:11Z</time>
      </trkpt>
      <trkpt lat="45.70585" lon="6.61934">
        <ele>991.6</ele>
        <time>2021-06-01T10:32:12Z</time>
      </trkpt>
      <trkpt lat="45.7058" lon="6.61938">
        <ele>992</ele>
        <time>2021-06-01T10:32:13Z</time>
      </trkpt>
      <trkpt lat="45.70576" lon="6.61942">
        <ele>992.2</ele>
        <time>2021-06-01T10:32:14Z</time>
      </trkpt>
      <trkpt lat="45.70572" lon="6.61945">
        <ele>992.4</ele>
        <time>2021-06-01T10:32:15Z</time>
      </trkpt>
      <trkpt lat="45.70566" lon="6.61949">
        <ele>992.8</ele>
        <time>2021-06-01T10:32:16Z</time>
      </trkpt>
      <trkpt lat="45.70562" lon="6.61953">
        <ele>993.4</ele>
        <time>2021-06-01T10:32:17Z</time>
      </trkpt>
      <trkpt lat="45.70557" lon="6.61958">
        <ele>993.8</ele>
        <time>2021-06-01T10:32:18Z</time>
      </trkpt>
      <trkpt lat="45.70552" lon="6.61963">
        <ele>994</ele>
        <time>2021-06-01T10:32:19Z</time>
      </trkpt>
      <trkpt lat="45.70547" lon="6.61967">
        <ele>994.2</ele>
        <time>2021-06-01T10:32:20Z</time>
      </trkpt>
      <trkpt lat="45.70542" lon="6.61971">
        <ele>994</ele>
        <time>2021-06-01T10:32:21Z</time>
      </trkpt>
      <trkpt lat="45.70537" lon="6.61975">
        <ele>994</ele>
        <time>2021-06-01T10:32:22Z</time>
      </trkpt>
      <trkpt lat="45.70532" lon="6.61979">
        <ele>994.4</ele>
        <time>2021-06-01T10:32:23Z</time>
      </trkpt>
      <trkpt lat="45.70527" lon="6.61982">
        <ele>994.8</ele>
        <time>2021-06-01T10:32:24Z</time>
      </trkpt>
      <trkpt lat="45.70521" lon="6.61985">
        <ele>995.4</ele>
        <time>2021-06-01T10:32:25Z</time>
      </trkpt>
      <trkpt lat="45.70515" lon="6.61988">
        <ele>995.6</ele>
        <time>2021-06-01T10:32:26Z</time>
      </trkpt>
      <trkpt lat="45.70508" lon="6.61991">
        <ele>996.2</ele>
        <time>2021-06-01T10:32:27Z</time>
      </trkpt>
      <trkpt lat="45.70502" lon="6.61994">
        <ele>996.6</ele>
        <time>2021-06-01T10:32:28Z</time>
      </trkpt>
      <trkpt lat="45.70496" lon="6.61995">
        <ele>996.8</ele>
        <time>2021-06-01T10:32:29Z</time>
      </trkpt>
      <trkpt lat="45.7049" lon="6.61997">
        <ele>997.2</ele>
        <time>2021-06-01T10:32:30Z</time>
      </trkpt>
      <trkpt lat="45.70484" lon="6.61998">
        <ele>997.6</ele>
        <time>2021-06-01T10:32:31Z</time>
      </trkpt>
      <trkpt lat="45.70478" lon="6.62001">
        <ele>998.2</ele>
        <time>2021-06-01T10:32:32Z</time>
      </trkpt>
      <trkpt lat="45.70472" lon="6.62003">
        <ele>998.6</ele>
        <time>2021-06-01T10:32:33Z</time>
      </trkpt>
      <trkpt lat="45.70466" lon="6.62006">
        <ele>999</ele>
        <time>2021-06-01T10:32:34Z</time>
      </trkpt>
      <trkpt lat="45.70459" lon="6.62009">
        <ele>999.2</ele>
        <time>2021-06-01T10:32:35Z</time>
      </trkpt>
      <trkpt lat="45.70453" lon="6.62011">
        <ele>999.6</ele>
        <time>2021-06-01T10:32:36Z</time>
      </trkpt>
      <trkpt lat="45.70448" lon="6.62013">
        <ele>1000</ele>
        <time>2021-06-01T10:32:37Z</time>
      </trkpt>
      <trkpt lat="45.70443" lon="6.62014">
        <ele>1000.4</ele>
        <time>2021-06-01T10:32:38Z</time>
      </trkpt>
      <trkpt lat="45.70437" lon="6.62015">
        <ele>1000.6</ele>
        <time>2021-06-01T10:32:39Z</time>
      </trkpt>
      <trkpt lat="45.70432" lon="6.62016">
        <ele>1000.8</ele>
        <time>2021-06-01T10:32:40Z</time>
      </trkpt>
      <trkpt lat="45.70427" lon="6.62017">
        <ele>1001</ele>
        <time>2021-06-01T10:32:41Z</time>
      </trkpt>
      <trkpt lat="45.70422" lon="6.62019">
        <ele>1001.2</ele>
        <time>2021-06-01T10:32:42Z</time>
      </trkpt>
      <trkpt lat="45.70417" lon="6.6202">
        <ele>1001.2</ele>
        <time>2021-06-01T10:32:43Z</time>
      </trkpt>
      <trkpt lat="45.70412" lon="6.6202">
        <ele>1001.4</ele>
        <time>2021-06-01T10:32:44Z</time>
      </trkpt>
      <trkpt lat="45.70407" lon="6.62021">
        <ele>1001.8</ele>
        <time>2021-06-01T10:32:45Z</time>
      </trkpt>
      <trkpt lat="45.70403" lon="6.62022">
        <ele>1001.8</ele>
        <time>2021-06-01T10:32:46Z</time>
      </trkpt>
      <trkpt lat="45.70399" lon="6.62022">
        <ele>1001.8</ele>
        <time>2021-06-01T10:32:47Z</time>
      </trkpt>
      <trkpt lat="45.70394" lon="6.62022">
        <ele>1002</ele>
        <time>2021-06-01T10:32:48Z</time>
      </trkpt>
      <trkpt lat="45.7039" lon="6.62022">
        <ele>1002.4</ele>
        <time>2021-06-01T10:32:49Z</time>
      </trkpt>
      <trkpt lat="45.70387" lon="6.6202">
        <ele>1002.6</ele>
        <time>2021-06-01T10:32:50Z</time>
      </trkpt>
      <trkpt lat="45.70384" lon="6.62017">
        <ele>1002.8</ele>
        <time>2021-06-01T10:32:51Z</time>
      </trkpt>
      <trkpt lat="45.7038" lon="6.62015">
        <ele>1003</ele>
        <time>2021-06-01T10:32:52Z</time>
      </trkpt>
      <trkpt lat="45.70377" lon="6.62014">
        <ele>1003.2</ele>
        <time>2021-06-01T10:32:53Z</time>
      </trkpt>
      <trkpt lat="45.70373" lon="6.62013">
        <ele>1003.4</ele>
        <time>2021-06-01T10:32:54Z</time>
      </trkpt>
      <trkpt lat="45.70371" lon="6.62012">
        <ele>1003.4</ele>
        <time>2021-06-01T10:32:55Z</time>
      </trkpt>
      <trkpt lat="45.70368" lon="6.6201">
        <ele>1003.4</ele>
        <time>2021-06-01T10:32:56Z</time>
      </trkpt>
      <trkpt lat="45.70355" lon="6.62109">
        <ele>1003.6</ele>
        <time>2021-06-01T10:33:18Z</time>
      </trkpt>
      <trkpt lat="45.70354" lon="6.62115">
        <ele>1003.2</ele>
        <time>2021-06-01T10:33:19Z</time>
      </trkpt>
      <trkpt lat="45.70353" lon="6.6212">
        <ele>1002.6</ele>
        <time>2021-06-01T10:33:20Z</time>
      </trkpt>
      <trkpt lat="45.70351" lon="6.62126">
        <ele>1002.2</ele>
        <time>2021-06-01T10:33:21Z</time>
      </trkpt>
      <trkpt lat="45.7035" lon="6.62132">
        <ele>1001.8</ele>
        <time>2021-06-01T10:33:22Z</time>
      </trkpt>
      <trkpt lat="45.70349" lon="6.62138">
        <ele>1001.8</ele>
        <time>2021-06-01T10:33:23Z</time>
      </trkpt>
      <trkpt lat="45.70349" lon="6.62145">
        <ele>1002</ele>
        <time>2021-06-01T10:33:24Z</time>
      </trkpt>
      <trkpt lat="45.70348" lon="6.62154">
        <ele>1002.4</ele>
        <time>2021-06-01T10:33:25Z</time>
      </trkpt>
      <trkpt lat="45.70348" lon="6.62162">
        <ele>1002.6</ele>
        <time>2021-06-01T10:33:26Z</time>
      </trkpt>
      <trkpt lat="45.70347" lon="6.62171">
        <ele>1003</ele>
        <time>2021-06-01T10:33:27Z</time>
      </trkpt>
      <trkpt lat="45.70346" lon="6.62179">
        <ele>1003.4</ele>
        <time>2021-06-01T10:33:28Z</time>
      </trkpt>
      <trkpt lat="45.70346" lon="6.62187">
        <ele>1004.4</ele>
        <time>2021-06-01T10:33:29Z</time>
      </trkpt>
      <trkpt lat="45.70346" lon="6.62196">
        <ele>1005.2</ele>
        <time>2021-06-01T10:33:30Z</time>
      </trkpt>
      <trkpt lat="45.70347" lon="6.62205">
        <ele>1005.8</ele>
        <time>2021-06-01T10:33:31Z</time>
      </trkpt>
      <trkpt lat="45.70348" lon="6.62215">
        <ele>1006.2</ele>
        <time>2021-06-01T10:33:32Z</time>
      </trkpt>
      <trkpt lat="45.70349" lon="6.62223">
        <ele>1006.2</ele>
        <time>2021-06-01T10:33:33Z</time>
      </trkpt>
      <trkpt lat="45.70349" lon="6.6223">
        <ele>1006.4</ele>
        <time>2021-06-01T10:33:34Z</time>
      </trkpt>
      <trkpt lat="45.7035" lon="6.62237">
        <ele>1006.4</ele>
        <time>2021-06-01T10:33:35Z</time>
      </trkpt>
      <trkpt lat="45.70351" lon="6.62244">
        <ele>1006.2</ele>
        <time>2021-06-01T10:33:36Z</time>
      </trkpt>
      <trkpt lat="45.70352" lon="6.6225">
        <ele>1006.2</ele>
        <time>2021-06-01T10:33:37Z</time>
      </trkpt>
      <trkpt lat="45.70353" lon="6.62257">
        <ele>1006.4</ele>
        <time>2021-06-01T10:33:38Z</time>
      </trkpt>
      <trkpt lat="45.70354" lon="6.62263">
        <ele>1006.8</ele>
        <time>2021-06-01T10:33:39Z</time>
      </trkpt>
      <trkpt lat="45.70355" lon="6.6227">
        <ele>1007.6</ele>
        <time>2021-06-01T10:33:40Z</time>
      </trkpt>
      <trkpt lat="45.70356" lon="6.62276">
        <ele>1007.8</ele>
        <time>2021-06-01T10:33:41Z</time>
      </trkpt>
      <trkpt lat="45.70358" lon="6.62282">
        <ele>1008.4</ele>
        <time>2021-06-01T10:33:42Z</time>
      </trkpt>
      <trkpt lat="45.7036" lon="6.62288">
        <ele>1009.2</ele>
        <time>2021-06-01T10:33:43Z</time>
      </trkpt>
      <trkpt lat="45.70362" lon="6.62295">
        <ele>1009.8</ele>
        <time>2021-06-01T10:33:44Z</time>
      </trkpt>
      <trkpt lat="45.70364" lon="6.62301">
        <ele>1010.4</ele>
        <time>2021-06-01T10:33:45Z</time>
      </trkpt>
      <trkpt lat="45.70366" lon="6.62308">
        <ele>1011.2</ele>
        <time>2021-06-01T10:33:46Z</time>
      </trkpt>
      <trkpt lat="45.70368" lon="6.62313">
        <ele>1011.8</ele>
        <time>2021-06-01T10:33:47Z</time>
      </trkpt>
      <trkpt lat="45.70369" lon="6.62319">
        <ele>1012.6</ele>
        <time>2021-06-01T10:33:48Z</time>
      </trkpt>
      <trkpt lat="45.70371" lon="6.62323">
        <ele>1013.2</ele>
        <time>2021-06-01T10:33:49Z</time>
      </trkpt>
      <trkpt lat="45.70373" lon="6.62329">
        <ele>1013.8</ele>
        <time>2021-06-01T10:33:50Z</time>
      </trkpt>
      <trkpt lat="45.70375" lon="6.62334">
        <ele>1014.2</ele>
        <time>2021-06-01T10:33:51Z</time>
      </trkpt>
      <trkpt lat="45.70377" lon="6.6234">
        <ele>1014.6</ele>
        <time>2021-06-01T10:33:52Z</time>
      </trkpt>
      <trkpt lat="45.70379" lon="6.62344">
        <ele>1015</ele>
        <time>2021-06-01T10:33:53Z</time>
      </trkpt>
      <trkpt lat="45.70381" lon="6.62348">
        <ele>1015.6</ele>
        <time>2021-06-01T10:33:54Z</time>
      </trkpt>
      <trkpt lat="45.70382" lon="6.62351">
        <ele>1016.2</ele>
        <time>2021-06-01T10:33:55Z</time>
      </trkpt>
      <trkpt lat="45.70384" lon="6.62354">
        <ele>1016.6</ele>
        <time>2021-06-01T10:33:56Z</time>
      </trkpt>
      <trkpt lat="45.70385" lon="6.62357">
        <ele>1017</ele>
        <time>2021-06-01T10:33:57Z</time>
      </trkpt>
      <trkpt lat="45.70387" lon="6.62361">
        <ele>1017.4</ele>
        <time>2021-06-01T10:33:58Z</time>
      </trkpt>
      <trkpt lat="45.70389" lon="6.62364">
        <ele>1017.6</ele>
        <time>2021-06-01T10:33:59Z</time>
      </trkpt>
      <trkpt lat="45.7039" lon="6.62367">
        <ele>1018</ele>
        <time>2021-06-01T10:34:00Z</time>
      </trkpt>
      <trkpt lat="45.70392" lon="6.62369">
        <ele>1018.4</ele>
        <time>2021-06-01T10:34:01Z</time>
      </trkpt>
      <trkpt lat="45.70395" lon="6.62372">
        <ele>1018.8</ele>
        <time>2021-06-01T10:34:02Z</time>
      </trkpt>
      <trkpt lat="45.70397" lon="6.62376">
        <ele>1019.2</ele>
        <time>2021-06-01T10:34:03Z</time>
      </trkpt>
      <trkpt lat="45.704" lon="6.62379">
        <ele>1019.6</ele>
        <time>2021-06-01T10:34:04Z</time>
      </trkpt>
      <trkpt lat="45.70403" lon="6.62382">
        <ele>1020</ele>
        <time>2021-06-01T10:34:05Z</time>
      </trkpt>
      <trkpt lat="45.70407" lon="6.62385">
        <ele>1020.4</ele>
        <time>2021-06-01T10:34:06Z</time>
      </trkpt>
      <trkpt lat="45.7041" lon="6.62387">
        <ele>1020.6</ele>
        <time>2021-06-01T10:34:07Z</time>
      </trkpt>
      <trkpt lat="45.70413" lon="6.6239">
        <ele>1021</ele>
        <time>2021-06-01T10:34:08Z</time>
      </trkpt>
      <trkpt lat="45.70416" lon="6.62393">
        <ele>1021.6</ele>
        <time>2021-06-01T10:34:09Z</time>
      </trkpt>
      <trkpt lat="45.70419" lon="6.62395">
        <ele>1022</ele>
        <time>2021-06-01T10:34:10Z</time>
      </trkpt>
      <trkpt lat="45.70422" lon="6.62397">
        <ele>1022.4</ele>
        <time>2021-06-01T10:34:11Z</time>
      </trkpt>
      <trkpt lat="45.70425" lon="6.624">
        <ele>1023</ele>
        <time>2021-06-01T10:34:12Z</time>
      </trkpt>
      <trkpt lat="45.70427" lon="6.62402">
        <ele>1023.4</ele>
        <time>2021-06-01T10:34:13Z</time>
      </trkpt>
      <trkpt lat="45.7043" lon="6.62404">
        <ele>1023.6</ele>
        <time>2021-06-01T10:34:14Z</time>
      </trkpt>
      <trkpt lat="45.70433" lon="6.62406">
        <ele>1024</ele>
        <time>2021-06-01T10:34:15Z</time>
      </trkpt>
      <trkpt lat="45.70436" lon="6.62408">
        <ele>1024.4</ele>
        <time>2021-06-01T10:34:16Z</time>
      </trkpt>
      <trkpt lat="45.7044" lon="6.62409">
        <ele>1024.8</ele>
        <time>2021-06-01T10:34:17Z</time>
      </trkpt>
      <trkpt lat="45.70443" lon="6.62411">
        <ele>1025</ele>
        <time>2021-06-01T10:34:18Z</time>
      </trkpt>
      <trkpt lat="45.70446" lon="6.62413">
        <ele>1025.2</ele>
        <time>2021-06-01T10:34:19Z</time>
      </trkpt>
      <trkpt lat="45.70449" lon="6.62415">
        <ele>1025.4</ele>
        <time>2021-06-01T10:34:20Z</time>
      </trkpt>
      <trkpt lat="45.70452" lon="6.62416">
        <ele>1026</ele>
        <time>2021-06-01T10:34:21Z</time>
      </trkpt>
      <trkpt lat="45.70456" lon="6.62419">
        <ele>1026.2</ele>
        <time>2021-06-01T10:34:22Z</time>
      </trkpt>
      <trkpt lat="45.7046" lon="6.62421">
        <ele>1026.4</ele>
        <time>2021-06-01T10:34:23Z</time>
      </trkpt>
      <trkpt lat="45.70464" lon="6.62422">
        <ele>1026.4</ele>
        <time>2021-06-01T10:34:24Z</time>
      </trkpt>
      <trkpt lat="45.70466" lon="6.62423">
        <ele>1026</ele>
        <time>2021-06-01T10:34:25Z</time>
      </trkpt>
      <trkpt lat="45.7047" lon="6.62424">
        <ele>1025.8</ele>
        <time>2021-06-01T10:34:26Z</time>
      </trkpt>
      <trkpt lat="45.70474" lon="6.62424">
        <ele>1025.8</ele>
        <time>2021-06-01T10:34:27Z</time>
      </trkpt>
      <trkpt lat="45.70478" lon="6.62425">
        <ele>1025.6</ele>
        <time>2021-06-01T10:34:28Z</time>
      </trkpt>
      <trkpt lat="45.70482" lon="6.62426">
        <ele>1025.6</ele>
        <time>2021-06-01T10:34:29Z</time>
      </trkpt>
      <trkpt lat="45.70486" lon="6.62426">
        <ele>1025.8</ele>
        <time>2021-06-01T10:34:30Z</time>
      </trkpt>
      <trkpt lat="45.70491" lon="6.62427">
        <ele>1025.8</ele>
        <time>2021-06-01T10:34:31Z</time>
      </trkpt>
      <trkpt lat="45.70495" lon="6.62428">
        <ele>1025.8</ele>
        <time>2021-06-01T10:34:32Z</time>
      </trkpt>
      <trkpt lat="45.705" lon="6.62428">
        <ele>1025.6</ele>
        <time>2021-06-01T10:34:33Z</time>
      </trkpt>
      <trkpt lat="45.70504" lon="6.62428">
        <ele>1025.4</ele>
        <time>2021-06-01T10:34:34Z</time>
      </trkpt>
      <trkpt lat="45.70508" lon="6.62431">
        <ele>1025.2</ele>
        <time>2021-06-01T10:34:35Z</time>
      </trkpt>
      <trkpt lat="45.70512" lon="6.62434">
        <ele>1025.2</ele>
        <time>2021-06-01T10:34:36Z</time>
      </trkpt>
      <trkpt lat="45.70515" lon="6.62437">
        <ele>1025.2</ele>
        <time>2021-06-01T10:34:37Z</time>
      </trkpt>
      <trkpt lat="45.70517" lon="6.62439">
        <ele>1025.2</ele>
        <time>2021-06-01T10:34:38Z</time>
      </trkpt>
      <trkpt lat="45.70515" lon="6.62443">
        <ele>1025.8</ele>
        <time>2021-06-01T10:34:40Z</time>
      </trkpt>
      <trkpt lat="45.70512" lon="6.62444">
        <ele>1026.2</ele>
        <time>2021-06-01T10:34:41Z</time>
      </trkpt>
      <trkpt lat="45.70508" lon="6.62444">
        <ele>1026.8</ele>
        <time>2021-06-01T10:34:42Z</time>
      </trkpt>
      <trkpt lat="45.70506" lon="6.62445">
        <ele>1027.2</ele>
        <time>2021-06-01T10:34:43Z</time>
      </trkpt>
      <trkpt lat="45.70504" lon="6.62446">
        <ele>1027.8</ele>
        <time>2021-06-01T10:34:44Z</time>
      </trkpt>
      <trkpt lat="45.705" lon="6.62445">
        <ele>1028.4</ele>
        <time>2021-06-01T10:34:45Z</time>
      </trkpt>
      <trkpt lat="45.70498" lon="6.62445">
        <ele>1028.8</ele>
        <time>2021-06-01T10:34:46Z</time>
      </trkpt>
      <trkpt lat="45.70495" lon="6.62444">
        <ele>1029.2</ele>
        <time>2021-06-01T10:34:47Z</time>
      </trkpt>
      <trkpt lat="45.70492" lon="6.62443">
        <ele>1029.8</ele>
        <time>2021-06-01T10:34:48Z</time>
      </trkpt>
      <trkpt lat="45.7049" lon="6.62443">
        <ele>1030.2</ele>
        <time>2021-06-01T10:34:49Z</time>
      </trkpt>
      <trkpt lat="45.70488" lon="6.62443">
        <ele>1030.4</ele>
        <time>2021-06-01T10:34:50Z</time>
      </trkpt>
      <trkpt lat="45.70486" lon="6.62444">
        <ele>1030.4</ele>
        <time>2021-06-01T10:34:51Z</time>
      </trkpt>
      <trkpt lat="45.70484" lon="6.62444">
        <ele>1030.2</ele>
        <time>2021-06-01T10:34:52Z</time>
      </trkpt>
      <trkpt lat="45.70482" lon="6.62444">
        <ele>1030.2</ele>
        <time>2021-06-01T10:34:53Z</time>
      </trkpt>
      <trkpt lat="45.70479" lon="6.62444">
        <ele>1030</ele>
        <time>2021-06-01T10:34:54Z</time>
      </trkpt>
      <trkpt lat="45.70476" lon="6.62444">
        <ele>1029.8</ele>
        <time>2021-06-01T10:34:55Z</time>
      </trkpt>
      <trkpt lat="45.70473" lon="6.62444">
        <ele>1029.6</ele>
        <time>2021-06-01T10:34:56Z</time>
      </trkpt>
      <trkpt lat="45.7047" lon="6.62444">
        <ele>1029.4</ele>
        <time>2021-06-01T10:34:57Z</time>
      </trkpt>
      <trkpt lat="45.70467" lon="6.62444">
        <ele>1029.6</ele>
        <time>2021-06-01T10:34:58Z</time>
      </trkpt>
      <trkpt lat="45.70464" lon="6.62444">
        <ele>1029.6</ele>
        <time>2021-06-01T10:34:59Z</time>
      </trkpt>
      <trkpt lat="45.70461" lon="6.62444">
        <ele>1029.4</ele>
        <time>2021-06-01T10:35:00Z</time>
      </trkpt>
      <trkpt lat="45.70458" lon="6.62443">
        <ele>1029.2</ele>
        <time>2021-06-01T10:35:01Z</time>
      </trkpt>
      <trkpt lat="45.70454" lon="6.62443">
        <ele>1029</ele>
        <time>2021-06-01T10:35:02Z</time>
      </trkpt>
      <trkpt lat="45.70452" lon="6.62442">
        <ele>1028.8</ele>
        <time>2021-06-01T10:35:03Z</time>
      </trkpt>
      <trkpt lat="45.70449" lon="6.62442">
        <ele>1028.4</ele>
        <time>2021-06-01T10:35:04Z</time>
      </trkpt>
      <trkpt lat="45.70446" lon="6.62443">
        <ele>1028.2</ele>
        <time>2021-06-01T10:35:05Z</time>
      </trkpt>
      <trkpt lat="45.70443" lon="6.62443">
        <ele>1028</ele>
        <time>2021-06-01T10:35:06Z</time>
      </trkpt>
      <trkpt lat="45.7044" lon="6.62443">
        <ele>1027.8</ele>
        <time>2021-06-01T10:35:07Z</time>
      </trkpt>
      <trkpt lat="45.70438" lon="6.62443">
        <ele>1027.8</ele>
        <time>2021-06-01T10:35:08Z</time>
      </trkpt>
      <trkpt lat="45.70435" lon="6.62443">
        <ele>1027.8</ele>
        <time>2021-06-01T10:35:09Z</time>
      </trkpt>
      <trkpt lat="45.70431" lon="6.62443">
        <ele>1028</ele>
        <time>2021-06-01T10:35:10Z</time>
      </trkpt>
      <trkpt lat="45.70429" lon="6.62442">
        <ele>1027.8</ele>
        <time>2021-06-01T10:35:11Z</time>
      </trkpt>
      <trkpt lat="45.70425" lon="6.62442">
        <ele>1027.8</ele>
        <time>2021-06-01T10:35:12Z</time>
      </trkpt>
      <trkpt lat="45.70423" lon="6.62441">
        <ele>1027.8</ele>
        <time>2021-06-01T10:35:13Z</time>
      </trkpt>
      <trkpt lat="45.7042" lon="6.62441">
        <ele>1027.8</ele>
        <time>2021-06-01T10:35:14Z</time>
      </trkpt>
      <trkpt lat="45.70419" lon="6.62441">
        <ele>1027.6</ele>
        <time>2021-06-01T10:35:15Z</time>
      </trkpt>
      <trkpt lat="45.70416" lon="6.62441">
        <ele>1027.6</ele>
        <time>2021-06-01T10:35:16Z</time>
      </trkpt>
      <trkpt lat="45.70413" lon="6.62441">
        <ele>1027.6</ele>
        <time>2021-06-01T10:35:17Z</time>
      </trkpt>
      <trkpt lat="45.70411" lon="6.6244">
        <ele>1027.4</ele>
        <time>2021-06-01T10:35:18Z</time>
      </trkpt>
      <trkpt lat="45.70408" lon="6.62439">
        <ele>1027.4</ele>
        <time>2021-06-01T10:35:19Z</time>
      </trkpt>
      <trkpt lat="45.70405" lon="6.62438">
        <ele>1027.4</ele>
        <time>2021-06-01T10:35:20Z</time>
      </trkpt>
      <trkpt lat="45.70402" lon="6.62437">
        <ele>1027.2</ele>
        <time>2021-06-01T10:35:21Z</time>
      </trkpt>
      <trkpt lat="45.70398" lon="6.62435">
        <ele>1027.2</ele>
        <time>2021-06-01T10:35:22Z</time>
      </trkpt>
      <trkpt lat="45.70395" lon="6.62433">
        <ele>1027.4</ele>
        <time>2021-06-01T10:35:23Z</time>
      </trkpt>
      <trkpt lat="45.70392" lon="6.62431">
        <ele>1027.2</ele>
        <time>2021-06-01T10:35:24Z</time>
      </trkpt>
      <trkpt lat="45.70389" lon="6.62429">
        <ele>1027.4</ele>
        <time>2021-06-01T10:35:25Z</time>
      </trkpt>
      <trkpt lat="45.70385" lon="6.62428">
        <ele>1027.4</ele>
        <time>2021-06-01T10:35:26Z</time>
      </trkpt>
      <trkpt lat="45.70382" lon="6.62426">
        <ele>1027.4</ele>
        <time>2021-06-01T10:35:27Z</time>
      </trkpt>
      <trkpt lat="45.70379" lon="6.62425">
        <ele>1027.4</ele>
        <time>2021-06-01T10:35:28Z</time>
      </trkpt>
      <trkpt lat="45.70375" lon="6.62424">
        <ele>1027.4</ele>
        <time>2021-06-01T10:35:29Z</time>
      </trkpt>
      <trkpt lat="45.70372" lon="6.62422">
        <ele>1027.2</ele>
        <time>2021-06-01T10:35:30Z</time>
      </trkpt>
      <trkpt lat="45.70368" lon="6.62421">
        <ele>1027.2</ele>
        <time>2021-06-01T10:35:31Z</time>
      </trkpt>
      <trkpt lat="45.70364" lon="6.62419">
        <ele>1027.2</ele>
        <time>2021-06-01T10:35:32Z</time>
      </trkpt>
      <trkpt lat="45.70361" lon="6.62417">
        <ele>1027.4</ele>
        <time>2021-06-01T10:35:33Z</time>
      </trkpt>
      <trkpt lat="45.70358" lon="6.62414">
        <ele>1027.2</ele>
        <time>2021-06-01T10:35:34Z</time>
      </trkpt>
      <trkpt lat="45.70355" lon="6.62411">
        <ele>1027.2</ele>
        <time>2021-06-01T10:35:35Z</time>
      </trkpt>
      <trkpt lat="45.70352" lon="6.62409">
        <ele>1027.2</ele>
        <time>2021-06-01T10:35:36Z</time>
      </trkpt>
      <trkpt lat="45.70348" lon="6.62407">
        <ele>1027.4</ele>
        <time>2021-06-01T10:35:37Z</time>
      </trkpt>
      <trkpt lat="45.70345" lon="6.62404">
        <ele>1027.4</ele>
        <time>2021-06-01T10:35:38Z</time>
      </trkpt>
      <trkpt lat="45.70343" lon="6.62403">
        <ele>1027.6</ele>
        <time>2021-06-01T10:35:39Z</time>
      </trkpt>
      <trkpt lat="45.70339" lon="6.62401">
        <ele>1027.6</ele>
        <time>2021-06-01T10:35:40Z</time>
      </trkpt>
      <trkpt lat="45.70336" lon="6.62399">
        <ele>1027.6</ele>
        <time>2021-06-01T10:35:41Z</time>
      </trkpt>
      <trkpt lat="45.70332" lon="6.62397">
        <ele>1027.8</ele>
        <time>2021-06-01T10:35:42Z</time>
      </trkpt>
      <trkpt lat="45.70329" lon="6.62395">
        <ele>1027.8</ele>
        <time>2021-06-01T10:35:43Z</time>
      </trkpt>
      <trkpt lat="45.70325" lon="6.62393">
        <ele>1028</ele>
        <time>2021-06-01T10:35:44Z</time>
      </trkpt>
      <trkpt lat="45.70322" lon="6.62391">
        <ele>1028.2</ele>
        <time>2021-06-01T10:35:45Z</time>
      </trkpt>
      <trkpt lat="45.70319" lon="6.62389">
        <ele>1028</ele>
        <time>2021-06-01T10:35:46Z</time>
      </trkpt>
      <trkpt lat="45.70315" lon="6.62387">
        <ele>1028.4</ele>
        <time>2021-06-01T10:35:47Z</time>
      </trkpt>
      <trkpt lat="45.70313" lon="6.62385">
        <ele>1029</ele>
        <time>2021-06-01T10:35:48Z</time>
      </trkpt>
      <trkpt lat="45.7031" lon="6.62382">
        <ele>1029.8</ele>
        <time>2021-06-01T10:35:49Z</time>
      </trkpt>
      <trkpt lat="45.70308" lon="6.62379">
        <ele>1030.4</ele>
        <time>2021-06-01T10:35:50Z</time>
      </trkpt>
      <trkpt lat="45.70305" lon="6.62377">
        <ele>1031.2</ele>
        <time>2021-06-01T10:35:51Z</time>
      </trkpt>
      <trkpt lat="45.70302" lon="6.62375">
        <ele>1031.6</ele>
        <time>2021-06-01T10:35:52Z</time>
      </trkpt>
      <trkpt lat="45.70298" lon="6.62374">
        <ele>1032.4</ele>
        <time>2021-06-01T10:35:53Z</time>
      </trkpt>
      <trkpt lat="45.70295" lon="6.62372">
        <ele>1033</ele>
        <time>2021-06-01T10:35:54Z</time>
      </trkpt>
      <trkpt lat="45.70293" lon="6.62371">
        <ele>1033.6</ele>
        <time>2021-06-01T10:35:55Z</time>
      </trkpt>
      <trkpt lat="45.7029" lon="6.62369">
        <ele>1034</ele>
        <time>2021-06-01T10:35:56Z</time>
      </trkpt>
      <trkpt lat="45.70288" lon="6.62368">
        <ele>1034.4</ele>
        <time>2021-06-01T10:35:57Z</time>
      </trkpt>
      <trkpt lat="45.70285" lon="6.62367">
        <ele>1034.8</ele>
        <time>2021-06-01T10:35:58Z</time>
      </trkpt>
      <trkpt lat="45.70282" lon="6.62365">
        <ele>1035.2</ele>
        <time>2021-06-01T10:35:59Z</time>
      </trkpt>
      <trkpt lat="45.70278" lon="6.62363">
        <ele>1035.4</ele>
        <time>2021-06-01T10:36:00Z</time>
      </trkpt>
      <trkpt lat="45.70275" lon="6.62361">
        <ele>1035.6</ele>
        <time>2021-06-01T10:36:01Z</time>
      </trkpt>
      <trkpt lat="45.70272" lon="6.62359">
        <ele>1035.6</ele>
        <time>2021-06-01T10:36:02Z</time>
      </trkpt>
      <trkpt lat="45.70268" lon="6.62357">
        <ele>1035.6</ele>
        <time>2021-06-01T10:36:03Z</time>
      </trkpt>
      <trkpt lat="45.70265" lon="6.62356">
        <ele>1035.8</ele>
        <time>2021-06-01T10:36:04Z</time>
      </trkpt>
      <trkpt lat="45.70261" lon="6.62354">
        <ele>1036</ele>
        <time>2021-06-01T10:36:05Z</time>
      </trkpt>
      <trkpt lat="45.70258" lon="6.62351">
        <ele>1036.6</ele>
        <time>2021-06-01T10:36:06Z</time>
      </trkpt>
      <trkpt lat="45.70254" lon="6.62349">
        <ele>1037.2</ele>
        <time>2021-06-01T10:36:07Z</time>
      </trkpt>
      <trkpt lat="45.70251" lon="6.62347">
        <ele>1037.8</ele>
        <time>2021-06-01T10:36:08Z</time>
      </trkpt>
      <trkpt lat="45.70248" lon="6.62344">
        <ele>1038.2</ele>
        <time>2021-06-01T10:36:09Z</time>
      </trkpt>
      <trkpt lat="45.70244" lon="6.62342">
        <ele>1038.8</ele>
        <time>2021-06-01T10:36:10Z</time>
      </trkpt>
      <trkpt lat="45.70241" lon="6.6234">
        <ele>1039.4</ele>
        <time>2021-06-01T10:36:11Z</time>
      </trkpt>
      <trkpt lat="45.70237" lon="6.62338">
        <ele>1039.8</ele>
        <time>2021-06-01T10:36:12Z</time>
      </trkpt>
      <trkpt lat="45.70235" lon="6.62335">
        <ele>1040.4</ele>
        <time>2021-06-01T10:36:13Z</time>
      </trkpt>
      <trkpt lat="45.70232" lon="6.62333">
        <ele>1041</ele>
        <time>2021-06-01T10:36:14Z</time>
      </trkpt>
      <trkpt lat="45.7023" lon="6.6233">
        <ele>1041.6</ele>
        <time>2021-06-01T10:36:15Z</time>
      </trkpt>
      <trkpt lat="45.70227" lon="6.62327">
        <ele>1042</ele>
        <time>2021-06-01T10:36:16Z</time>
      </trkpt>
      <trkpt lat="45.70224" lon="6.62324">
        <ele>1042.2</ele>
        <time>2021-06-01T10:36:17Z</time>
      </trkpt>
      <trkpt lat="45.70222" lon="6.62321">
        <ele>1042.4</ele>
        <time>2021-06-01T10:36:18Z</time>
      </trkpt>
      <trkpt lat="45.70219" lon="6.62317">
        <ele>1042.8</ele>
        <time>2021-06-01T10:36:19Z</time>
      </trkpt>
      <trkpt lat="45.70217" lon="6.62314">
        <ele>1043</ele>
        <time>2021-06-01T10:36:20Z</time>
      </trkpt>
      <trkpt lat="45.70215" lon="6.6231">
        <ele>1043.2</ele>
        <time>2021-06-01T10:36:21Z</time>
      </trkpt>
      <trkpt lat="45.70212" lon="6.62307">
        <ele>1043.4</ele>
        <time>2021-06-01T10:36:22Z</time>
      </trkpt>
      <trkpt lat="45.70211" lon="6.62303">
        <ele>1044.2</ele>
        <time>2021-06-01T10:36:23Z</time>
      </trkpt>
      <trkpt lat="45.70208" lon="6.623">
        <ele>1044.8</ele>
        <time>2021-06-01T10:36:24Z</time>
      </trkpt>
      <trkpt lat="45.70206" lon="6.62297">
        <ele>1045.6</ele>
        <time>2021-06-01T10:36:25Z</time>
      </trkpt>
      <trkpt lat="45.70204" lon="6.62293">
        <ele>1046.2</ele>
        <time>2021-06-01T10:36:26Z</time>
      </trkpt>
      <trkpt lat="45.70202" lon="6.6229">
        <ele>1046.8</ele>
        <time>2021-06-01T10:36:27Z</time>
      </trkpt>
      <trkpt lat="45.702" lon="6.62286">
        <ele>1047.4</ele>
        <time>2021-06-01T10:36:28Z</time>
      </trkpt>
      <trkpt lat="45.70198" lon="6.62283">
        <ele>1047.8</ele>
        <time>2021-06-01T10:36:29Z</time>
      </trkpt>
      <trkpt lat="45.70196" lon="6.6228">
        <ele>1048.6</ele>
        <time>2021-06-01T10:36:30Z</time>
      </trkpt>
      <trkpt lat="45.70194" lon="6.62276">
        <ele>1049.2</ele>
        <time>2021-06-01T10:36:31Z</time>
      </trkpt>
      <trkpt lat="45.70192" lon="6.62273">
        <ele>1049.8</ele>
        <time>2021-06-01T10:36:32Z</time>
      </trkpt>
      <trkpt lat="45.7019" lon="6.62269">
        <ele>1050.6</ele>
        <time>2021-06-01T10:36:33Z</time>
      </trkpt>
      <trkpt lat="45.70188" lon="6.62266">
        <ele>1051.4</ele>
        <time>2021-06-01T10:36:34Z</time>
      </trkpt>
      <trkpt lat="45.70186" lon="6.62262">
        <ele>1051.8</ele>
        <time>2021-06-01T10:36:35Z</time>
      </trkpt>
      <trkpt lat="45.70184" lon="6.62258">
        <ele>1052.4</ele>
        <time>2021-06-01T10:36:36Z</time>
      </trkpt>
      <trkpt lat="45.70182" lon="6.62255">
        <ele>1052.6</ele>
        <time>2021-06-01T10:36:37Z</time>
      </trkpt>
      <trkpt lat="45.7018" lon="6.62251">
        <ele>1053.2</ele>
        <time>2021-06-01T10:36:38Z</time>
      </trkpt>
      <trkpt lat="45.70178" lon="6.62247">
        <ele>1053.4</ele>
        <time>2021-06-01T10:36:39Z</time>
      </trkpt>
      <trkpt lat="45.70176" lon="6.62244">
        <ele>1053.6</ele>
        <time>2021-06-01T10:36:40Z</time>
      </trkpt>
      <trkpt lat="45.70174" lon="6.6224">
        <ele>1053.8</ele>
        <time>2021-06-01T10:36:41Z</time>
      </trkpt>
      <trkpt lat="45.70172" lon="6.62236">
        <ele>1054</ele>
        <time>2021-06-01T10:36:42Z</time>
      </trkpt>
      <trkpt lat="45.7017" lon="6.62233">
        <ele>1054.2</ele>
        <time>2021-06-01T10:36:43Z</time>
      </trkpt>
      <trkpt lat="45.70169" lon="6.62229">
        <ele>1054.4</ele>
        <time>2021-06-01T10:36:44Z</time>
      </trkpt>
      <trkpt lat="45.70167" lon="6.62226">
        <ele>1054.8</ele>
        <time>2021-06-01T10:36:45Z</time>
      </trkpt>
      <trkpt lat="45.70164" lon="6.62223">
        <ele>1054.8</ele>
        <time>2021-06-01T10:36:46Z</time>
      </trkpt>
      <trkpt lat="45.70163" lon="6.62219">
        <ele>1055.2</ele>
        <time>2021-06-01T10:36:47Z</time>
      </trkpt>
      <trkpt lat="45.70161" lon="6.62216">
        <ele>1055.2</ele>
        <time>2021-06-01T10:36:48Z</time>
      </trkpt>
      <trkpt lat="45.70158" lon="6.62212">
        <ele>1055.2</ele>
        <time>2021-06-01T10:36:49Z</time>
      </trkpt>
      <trkpt lat="45.70156" lon="6.62208">
        <ele>1055.6</ele>
        <time>2021-06-01T10:36:50Z</time>
      </trkpt>
      <trkpt lat="45.70155" lon="6.62205">
        <ele>1056.2</ele>
        <time>2021-06-01T10:36:51Z</time>
      </trkpt>
      <trkpt lat="45.70153" lon="6.62201">
        <ele>1056.8</ele>
        <time>2021-06-01T10:36:52Z</time>
      </trkpt>
      <trkpt lat="45.70151" lon="6.62197">
        <ele>1057.4</ele>
        <time>2021-06-01T10:36:53Z</time>
      </trkpt>
      <trkpt lat="45.70148" lon="6.62194">
        <ele>1058.2</ele>
        <time>2021-06-01T10:36:54Z</time>
      </trkpt>
      <trkpt lat="45.70146" lon="6.6219">
        <ele>1059</ele>
        <time>2021-06-01T10:36:55Z</time>
      </trkpt>
      <trkpt lat="45.70144" lon="6.62187">
        <ele>1059.8</ele>
        <time>2021-06-01T10:36:56Z</time>
      </trkpt>
      <trkpt lat="45.70143" lon="6.62183">
        <ele>1060.8</ele>
        <time>2021-06-01T10:36:57Z</time>
      </trkpt>
      <trkpt lat="45.70141" lon="6.6218">
        <ele>1061.8</ele>
        <time>2021-06-01T10:36:58Z</time>
      </trkpt>
      <trkpt lat="45.70139" lon="6.62176">
        <ele>1062.6</ele>
        <time>2021-06-01T10:36:59Z</time>
      </trkpt>
      <trkpt lat="45.70137" lon="6.62173">
        <ele>1063.6</ele>
        <time>2021-06-01T10:37:00Z</time>
      </trkpt>
      <trkpt lat="45.70135" lon="6.62169">
        <ele>1064.4</ele>
        <time>2021-06-01T10:37:01Z</time>
      </trkpt>
      <trkpt lat="45.70133" lon="6.62165">
        <ele>1065.2</ele>
        <time>2021-06-01T10:37:02Z</time>
      </trkpt>
      <trkpt lat="45.70132" lon="6.62161">
        <ele>1065.6</ele>
        <time>2021-06-01T10:37:03Z</time>
      </trkpt>
      <trkpt lat="45.7013" lon="6.62157">
        <ele>1065.6</ele>
        <time>2021-06-01T10:37:04Z</time>
      </trkpt>
      <trkpt lat="45.70128" lon="6.62153">
        <ele>1065.2</ele>
        <time>2021-06-01T10:37:05Z</time>
      </trkpt>
      <trkpt lat="45.70126" lon="6.62148">
        <ele>1065</ele>
        <time>2021-06-01T10:37:06Z</time>
      </trkpt>
      <trkpt lat="45.70125" lon="6.62144">
        <ele>1064.6</ele>
        <time>2021-06-01T10:37:07Z</time>
      </trkpt>
      <trkpt lat="45.70123" lon="6.6214">
        <ele>1064</ele>
        <time>2021-06-01T10:37:08Z</time>
      </trkpt>
      <trkpt lat="45.70122" lon="6.62137">
        <ele>1063.6</ele>
        <time>2021-06-01T10:37:09Z</time>
      </trkpt>
      <trkpt lat="45.7012" lon="6.62133">
        <ele>1063.4</ele>
        <time>2021-06-01T10:37:10Z</time>
      </trkpt>
      <trkpt lat="45.70119" lon="6.62129">
        <ele>1063.2</ele>
        <time>2021-06-01T10:37:11Z</time>
      </trkpt>
      <trkpt lat="45.70117" lon="6.62125">
        <ele>1062.8</ele>
        <time>2021-06-01T10:37:12Z</time>
      </trkpt>
      <trkpt lat="45.70116" lon="6.62122">
        <ele>1062.4</ele>
        <time>2021-06-01T10:37:13Z</time>
      </trkpt>
      <trkpt lat="45.70115" lon="6.62119">
        <ele>1062</ele>
        <time>2021-06-01T10:37:14Z</time>
      </trkpt>
      <trkpt lat="45.70115" lon="6.62116">
        <ele>1061.6</ele>
        <time>2021-06-01T10:37:15Z</time>
      </trkpt>
      <trkpt lat="45.70113" lon="6.62114">
        <ele>1061.2</ele>
        <time>2021-06-01T10:37:16Z</time>
      </trkpt>
      <trkpt lat="45.70112" lon="6.62111">
        <ele>1061</ele>
        <time>2021-06-01T10:37:17Z</time>
      </trkpt>
      <trkpt lat="45.70112" lon="6.62107">
        <ele>1060.6</ele>
        <time>2021-06-01T10:37:18Z</time>
      </trkpt>
      <trkpt lat="45.70112" lon="6.62104">
        <ele>1060.2</ele>
        <time>2021-06-01T10:37:19Z</time>
      </trkpt>
      <trkpt lat="45.70111" lon="6.621">
        <ele>1059.8</ele>
        <time>2021-06-01T10:37:20Z</time>
      </trkpt>
      <trkpt lat="45.70111" lon="6.62095">
        <ele>1059.2</ele>
        <time>2021-06-01T10:37:22Z</time>
      </trkpt>
      <trkpt lat="45.70111" lon="6.62092">
        <ele>1059</ele>
        <time>2021-06-01T10:37:23Z</time>
      </trkpt>
      <trkpt lat="45.70111" lon="6.62089">
        <ele>1058.8</ele>
        <time>2021-06-01T10:37:24Z</time>
      </trkpt>
      <trkpt lat="45.7011" lon="6.62084">
        <ele>1058.8</ele>
        <time>2021-06-01T10:37:26Z</time>
      </trkpt>
      <trkpt lat="45.70109" lon="6.62081">
        <ele>1058.6</ele>
        <time>2021-06-01T10:37:27Z</time>
      </trkpt>
      <trkpt lat="45.70108" lon="6.62078">
        <ele>1058.6</ele>
        <time>2021-06-01T10:37:28Z</time>
      </trkpt>
      <trkpt lat="45.70107" lon="6.62075">
        <ele>1058.4</ele>
        <time>2021-06-01T10:37:29Z</time>
      </trkpt>
      <trkpt lat="45.70105" lon="6.62072">
        <ele>1058.4</ele>
        <time>2021-06-01T10:37:30Z</time>
      </trkpt>
      <trkpt lat="45.70104" lon="6.62068">
        <ele>1058.6</ele>
        <time>2021-06-01T10:37:31Z</time>
      </trkpt>
      <trkpt lat="45.70102" lon="6.62064">
        <ele>1058.8</ele>
        <time>2021-06-01T10:37:32Z</time>
      </trkpt>
      <trkpt lat="45.701" lon="6.6206">
        <ele>1059.2</ele>
        <time>2021-06-01T10:37:33Z</time>
      </trkpt>
      <trkpt lat="45.70099" lon="6.62055">
        <ele>1059.8</ele>
        <time>2021-06-01T10:37:34Z</time>
      </trkpt>
      <trkpt lat="45.70097" lon="6.6205">
        <ele>1060.4</ele>
        <time>2021-06-01T10:37:35Z</time>
      </trkpt>
      <trkpt lat="45.70095" lon="6.62045">
        <ele>1061.4</ele>
        <time>2021-06-01T10:37:36Z</time>
      </trkpt>
      <trkpt lat="45.70093" lon="6.62041">
        <ele>1062</ele>
        <time>2021-06-01T10:37:37Z</time>
      </trkpt>
      <trkpt lat="45.70092" lon="6.62036">
        <ele>1062.8</ele>
        <time>2021-06-01T10:37:38Z</time>
      </trkpt>
      <trkpt lat="45.70091" lon="6.62031">
        <ele>1063.4</ele>
        <time>2021-06-01T10:37:39Z</time>
      </trkpt>
      <trkpt lat="45.70089" lon="6.62026">
        <ele>1063.8</ele>
        <time>2021-06-01T10:37:40Z</time>
      </trkpt>
      <trkpt lat="45.70088" lon="6.62021">
        <ele>1064.4</ele>
        <time>2021-06-01T10:37:41Z</time>
      </trkpt>
      <trkpt lat="45.70088" lon="6.62016">
        <ele>1065</ele>
        <time>2021-06-01T10:37:42Z</time>
      </trkpt>
      <trkpt lat="45.70088" lon="6.62012">
        <ele>1065.6</ele>
        <time>2021-06-01T10:37:43Z</time>
      </trkpt>
      <trkpt lat="45.70089" lon="6.62008">
        <ele>1066.6</ele>
        <time>2021-06-01T10:37:44Z</time>
      </trkpt>
      <trkpt lat="45.70089" lon="6.62003">
        <ele>1067.4</ele>
        <time>2021-06-01T10:37:45Z</time>
      </trkpt>
      <trkpt lat="45.7009" lon="6.61999">
        <ele>1067.8</ele>
        <time>2021-06-01T10:37:46Z</time>
      </trkpt>
      <trkpt lat="45.70091" lon="6.61995">
        <ele>1068.2</ele>
        <time>2021-06-01T10:37:47Z</time>
      </trkpt>
      <trkpt lat="45.70091" lon="6.61991">
        <ele>1068.6</ele>
        <time>2021-06-01T10:37:48Z</time>
      </trkpt>
      <trkpt lat="45.70091" lon="6.61987">
        <ele>1069</ele>
        <time>2021-06-01T10:37:49Z</time>
      </trkpt>
      <trkpt lat="45.70092" lon="6.61983">
        <ele>1069.2</ele>
        <time>2021-06-01T10:37:50Z</time>
      </trkpt>
      <trkpt lat="45.70092" lon="6.61979">
        <ele>1069.6</ele>
        <time>2021-06-01T10:37:51Z</time>
      </trkpt>
      <trkpt lat="45.70092" lon="6.61975">
        <ele>1070</ele>
        <time>2021-06-01T10:37:52Z</time>
      </trkpt>
      <trkpt lat="45.70091" lon="6.61972">
        <ele>1070.6</ele>
        <time>2021-06-01T10:37:53Z</time>
      </trkpt>
      <trkpt lat="45.7009" lon="6.61968">
        <ele>1071.6</ele>
        <time>2021-06-01T10:37:54Z</time>
      </trkpt>
      <trkpt lat="45.70089" lon="6.61963">
        <ele>1072.4</ele>
        <time>2021-06-01T10:37:55Z</time>
      </trkpt>
      <trkpt lat="45.70089" lon="6.61958">
        <ele>1073.2</ele>
        <time>2021-06-01T10:37:56Z</time>
      </trkpt>
      <trkpt lat="45.70088" lon="6.61952">
        <ele>1073.8</ele>
        <time>2021-06-01T10:37:57Z</time>
      </trkpt>
      <trkpt lat="45.70088" lon="6.61947">
        <ele>1074.6</ele>
        <time>2021-06-01T10:37:58Z</time>
      </trkpt>
      <trkpt lat="45.70087" lon="6.61942">
        <ele>1075.2</ele>
        <time>2021-06-01T10:37:59Z</time>
      </trkpt>
      <trkpt lat="45.70085" lon="6.61939">
        <ele>1075.6</ele>
        <time>2021-06-01T10:38:00Z</time>
      </trkpt>
      <trkpt lat="45.70084" lon="6.61935">
        <ele>1076</ele>
        <time>2021-06-01T10:38:01Z</time>
      </trkpt>
      <trkpt lat="45.70082" lon="6.6193">
        <ele>1076.4</ele>
        <time>2021-06-01T10:38:02Z</time>
      </trkpt>
      <trkpt lat="45.7008" lon="6.61926">
        <ele>1076.6</ele>
        <time>2021-06-01T10:38:03Z</time>
      </trkpt>
      <trkpt lat="45.70079" lon="6.61921">
        <ele>1077.4</ele>
        <time>2021-06-01T10:38:04Z</time>
      </trkpt>
      <trkpt lat="45.70077" lon="6.61916">
        <ele>1078</ele>
        <time>2021-06-01T10:38:05Z</time>
      </trkpt>
      <trkpt lat="45.70075" lon="6.61913">
        <ele>1078.6</ele>
        <time>2021-06-01T10:38:06Z</time>
      </trkpt>
      <trkpt lat="45.70073" lon="6.61909">
        <ele>1079</ele>
        <time>2021-06-01T10:38:07Z</time>
      </trkpt>
      <trkpt lat="45.70071" lon="6.61906">
        <ele>1079.6</ele>
        <time>2021-06-01T10:38:08Z</time>
      </trkpt>
      <trkpt lat="45.70069" lon="6.61905">
        <ele>1080</ele>
        <time>2021-06-01T10:38:09Z</time>
      </trkpt>
      <trkpt lat="45.70067" lon="6.61902">
        <ele>1080.6</ele>
        <time>2021-06-01T10:38:10Z</time>
      </trkpt>
      <trkpt lat="45.70065" lon="6.619">
        <ele>1081</ele>
        <time>2021-06-01T10:38:11Z</time>
      </trkpt>
      <trkpt lat="45.70061" lon="6.61898">
        <ele>1081.4</ele>
        <time>2021-06-01T10:38:12Z</time>
      </trkpt>
      <trkpt lat="45.70059" lon="6.61897">
        <ele>1081.6</ele>
        <time>2021-06-01T10:38:13Z</time>
      </trkpt>
      <trkpt lat="45.70056" lon="6.61896">
        <ele>1081.6</ele>
        <time>2021-06-01T10:38:14Z</time>
      </trkpt>
      <trkpt lat="45.70053" lon="6.61895">
        <ele>1082</ele>
        <time>2021-06-01T10:38:15Z</time>
      </trkpt>
      <trkpt lat="45.7005" lon="6.61894">
        <ele>1082</ele>
        <time>2021-06-01T10:38:16Z</time>
      </trkpt>
      <trkpt lat="45.70047" lon="6.61893">
        <ele>1082</ele>
        <time>2021-06-01T10:38:17Z</time>
      </trkpt>
      <trkpt lat="45.70044" lon="6.61891">
        <ele>1082.2</ele>
        <time>2021-06-01T10:38:18Z</time>
      </trkpt>
      <trkpt lat="45.70041" lon="6.6189">
        <ele>1082.4</ele>
        <time>2021-06-01T10:38:19Z</time>
      </trkpt>
      <trkpt lat="45.70038" lon="6.61888">
        <ele>1082.4</ele>
        <time>2021-06-01T10:38:20Z</time>
      </trkpt>
      <trkpt lat="45.70035" lon="6.61886">
        <ele>1082.4</ele>
        <time>2021-06-01T10:38:21Z</time>
      </trkpt>
      <trkpt lat="45.70032" lon="6.61884">
        <ele>1082.4</ele>
        <time>2021-06-01T10:38:22Z</time>
      </trkpt>
      <trkpt lat="45.70029" lon="6.61882">
        <ele>1082.2</ele>
        <time>2021-06-01T10:38:23Z</time>
      </trkpt>
      <trkpt lat="45.70027" lon="6.61879">
        <ele>1082.2</ele>
        <time>2021-06-01T10:38:24Z</time>
      </trkpt>
      <trkpt lat="45.70025" lon="6.61877">
        <ele>1082</ele>
        <time>2021-06-01T10:38:25Z</time>
      </trkpt>
      <trkpt lat="45.70022" lon="6.61875">
        <ele>1082</ele>
        <time>2021-06-01T10:38:26Z</time>
      </trkpt>
      <trkpt lat="45.7002" lon="6.61873">
        <ele>1081.8</ele>
        <time>2021-06-01T10:38:27Z</time>
      </trkpt>
      <trkpt lat="45.70017" lon="6.6187">
        <ele>1081.6</ele>
        <time>2021-06-01T10:38:28Z</time>
      </trkpt>
      <trkpt lat="45.70013" lon="6.61868">
        <ele>1081.6</ele>
        <time>2021-06-01T10:38:29Z</time>
      </trkpt>
      <trkpt lat="45.7001" lon="6.61866">
        <ele>1081.4</ele>
        <time>2021-06-01T10:38:30Z</time>
      </trkpt>
      <trkpt lat="45.70008" lon="6.61865">
        <ele>1081.4</ele>
        <time>2021-06-01T10:38:31Z</time>
      </trkpt>
      <trkpt lat="45.70005" lon="6.61863">
        <ele>1081.4</ele>
        <time>2021-06-01T10:38:32Z</time>
      </trkpt>
      <trkpt lat="45.70002" lon="6.61861">
        <ele>1081.2</ele>
        <time>2021-06-01T10:38:33Z</time>
      </trkpt>
      <trkpt lat="45.69999" lon="6.61859">
        <ele>1081</ele>
        <time>2021-06-01T10:38:34Z</time>
      </trkpt>
      <trkpt lat="45.69997" lon="6.61857">
        <ele>1080.8</ele>
        <time>2021-06-01T10:38:35Z</time>
      </trkpt>
      <trkpt lat="45.69994" lon="6.61855">
        <ele>1080.8</ele>
        <time>2021-06-01T10:38:36Z</time>
      </trkpt>
      <trkpt lat="45.69991" lon="6.61853">
        <ele>1080.8</ele>
        <time>2021-06-01T10:38:37Z</time>
      </trkpt>
      <trkpt lat="45.69988" lon="6.61852">
        <ele>1080.8</ele>
        <time>2021-06-01T10:38:38Z</time>
      </trkpt>
      <trkpt lat="45.69985" lon="6.6185">
        <ele>1080.8</ele>
        <time>2021-06-01T10:38:39Z</time>
      </trkpt>
      <trkpt lat="45.69982" lon="6.61848">
        <ele>1080.8</ele>
        <time>2021-06-01T10:38:40Z</time>
      </trkpt>
      <trkpt lat="45.6998" lon="6.61846">
        <ele>1080.8</ele>
        <time>2021-06-01T10:38:41Z</time>
      </trkpt>
      <trkpt lat="45.69977" lon="6.61844">
        <ele>1080.8</ele>
        <time>2021-06-01T10:38:42Z</time>
      </trkpt>
      <trkpt lat="45.69974" lon="6.61842">
        <ele>1080.6</ele>
        <time>2021-06-01T10:38:43Z</time>
      </trkpt>
      <trkpt lat="45.69972" lon="6.61839">
        <ele>1080.6</ele>
        <time>2021-06-01T10:38:44Z</time>
      </trkpt>
      <trkpt lat="45.6997" lon="6.61837">
        <ele>1080.6</ele>
        <time>2021-06-01T10:38:45Z</time>
      </trkpt>
      <trkpt lat="45.69967" lon="6.61834">
        <ele>1080.6</ele>
        <time>2021-06-01T10:38:46Z</time>
      </trkpt>
      <trkpt lat="45.69964" lon="6.61831">
        <ele>1080.6</ele>
        <time>2021-06-01T10:38:47Z</time>
      </trkpt>
      <trkpt lat="45.69962" lon="6.61829">
        <ele>1080.6</ele>
        <time>2021-06-01T10:38:48Z</time>
      </trkpt>
      <trkpt lat="45.6996" lon="6.61826">
        <ele>1080.6</ele>
        <time>2021-06-01T10:38:49Z</time>
      </trkpt>
      <trkpt lat="45.69958" lon="6.61823">
        <ele>1080.8</ele>
        <time>2021-06-01T10:38:50Z</time>
      </trkpt>
      <trkpt lat="45.69956" lon="6.61819">
        <ele>1080.8</ele>
        <time>2021-06-01T10:38:51Z</time>
      </trkpt>
      <trkpt lat="45.69953" lon="6.61816">
        <ele>1080.8</ele>
        <time>2021-06-01T10:38:52Z</time>
      </trkpt>
      <trkpt lat="45.69951" lon="6.61813">
        <ele>1080.8</ele>
        <time>2021-06-01T10:38:53Z</time>
      </trkpt>
      <trkpt lat="45.69949" lon="6.61809">
        <ele>1081</ele>
        <time>2021-06-01T10:38:54Z</time>
      </trkpt>
      <trkpt lat="45.69947" lon="6.61806">
        <ele>1081.4</ele>
        <time>2021-06-01T10:38:55Z</time>
      </trkpt>
      <trkpt lat="45.69944" lon="6.61802">
        <ele>1081.8</ele>
        <time>2021-06-01T10:38:56Z</time>
      </trkpt>
      <trkpt lat="45.69942" lon="6.61799">
        <ele>1082.2</ele>
        <time>2021-06-01T10:38:57Z</time>
      </trkpt>
      <trkpt lat="45.69941" lon="6.61796">
        <ele>1082.6</ele>
        <time>2021-06-01T10:38:58Z</time>
      </trkpt>
      <trkpt lat="45.69939" lon="6.61792">
        <ele>1082.8</ele>
        <time>2021-06-01T10:38:59Z</time>
      </trkpt>
      <trkpt lat="45.69937" lon="6.61789">
        <ele>1083</ele>
        <time>2021-06-01T10:39:00Z</time>
      </trkpt>
      <trkpt lat="45.69934" lon="6.61786">
        <ele>1083.2</ele>
        <time>2021-06-01T10:39:01Z</time>
      </trkpt>
      <trkpt lat="45.69932" lon="6.61783">
        <ele>1083.2</ele>
        <time>2021-06-01T10:39:02Z</time>
      </trkpt>
      <trkpt lat="45.6993" lon="6.6178">
        <ele>1083.2</ele>
        <time>2021-06-01T10:39:03Z</time>
      </trkpt>
      <trkpt lat="45.69927" lon="6.61777">
        <ele>1083.4</ele>
        <time>2021-06-01T10:39:04Z</time>
      </trkpt>
      <trkpt lat="45.69924" lon="6.61774">
        <ele>1083.4</ele>
        <time>2021-06-01T10:39:05Z</time>
      </trkpt>
      <trkpt lat="45.6992" lon="6.6177">
        <ele>1083.6</ele>
        <time>2021-06-01T10:39:06Z</time>
      </trkpt>
      <trkpt lat="45.69918" lon="6.61768">
        <ele>1083.6</ele>
        <time>2021-06-01T10:39:07Z</time>
      </trkpt>
      <trkpt lat="45.69916" lon="6.61765">
        <ele>1083.6</ele>
        <time>2021-06-01T10:39:08Z</time>
      </trkpt>
      <trkpt lat="45.69914" lon="6.61763">
        <ele>1083.8</ele>
        <time>2021-06-01T10:39:09Z</time>
      </trkpt>
      <trkpt lat="45.69912" lon="6.61759">
        <ele>1083.8</ele>
        <time>2021-06-01T10:39:10Z</time>
      </trkpt>
      <trkpt lat="45.6991" lon="6.61756">
        <ele>1084</ele>
        <time>2021-06-01T10:39:11Z</time>
      </trkpt>
      <trkpt lat="45.69909" lon="6.61752">
        <ele>1084</ele>
        <time>2021-06-01T10:39:12Z</time>
      </trkpt>
      <trkpt lat="45.69907" lon="6.61749">
        <ele>1084</ele>
        <time>2021-06-01T10:39:13Z</time>
      </trkpt>
      <trkpt lat="45.69906" lon="6.61745">
        <ele>1084.2</ele>
        <time>2021-06-01T10:39:14Z</time>
      </trkpt>
      <trkpt lat="45.69905" lon="6.61741">
        <ele>1084.2</ele>
        <time>2021-06-01T10:39:15Z</time>
      </trkpt>
      <trkpt lat="45.69904" lon="6.61737">
        <ele>1084.4</ele>
        <time>2021-06-01T10:39:16Z</time>
      </trkpt>
      <trkpt lat="45.69903" lon="6.61733">
        <ele>1084.4</ele>
        <time>2021-06-01T10:39:17Z</time>
      </trkpt>
      <trkpt lat="45.69901" lon="6.61729">
        <ele>1084.6</ele>
        <time>2021-06-01T10:39:18Z</time>
      </trkpt>
      <trkpt lat="45.699" lon="6.61726">
        <ele>1084.8</ele>
        <time>2021-06-01T10:39:19Z</time>
      </trkpt>
      <trkpt lat="45.69899" lon="6.61722">
        <ele>1084.8</ele>
        <time>2021-06-01T10:39:20Z</time>
      </trkpt>
      <trkpt lat="45.69898" lon="6.61717">
        <ele>1084.8</ele>
        <time>2021-06-01T10:39:21Z</time>
      </trkpt>
      <trkpt lat="45.69897" lon="6.61713">
        <ele>1085</ele>
        <time>2021-06-01T10:39:22Z</time>
      </trkpt>
      <trkpt lat="45.69895" lon="6.61708">
        <ele>1085.2</ele>
        <time>2021-06-01T10:39:23Z</time>
      </trkpt>
      <trkpt lat="45.69893" lon="6.61703">
        <ele>1085.2</ele>
        <time>2021-06-01T10:39:24Z</time>
      </trkpt>
      <trkpt lat="45.69892" lon="6.61698">
        <ele>1085.4</ele>
        <time>2021-06-01T10:39:25Z</time>
      </trkpt>
      <trkpt lat="45.69891" lon="6.61693">
        <ele>1085.6</ele>
        <time>2021-06-01T10:39:26Z</time>
      </trkpt>
      <trkpt lat="45.6989" lon="6.61689">
        <ele>1085.8</ele>
        <time>2021-06-01T10:39:27Z</time>
      </trkpt>
      <trkpt lat="45.69888" lon="6.61684">
        <ele>1086</ele>
        <time>2021-06-01T10:39:28Z</time>
      </trkpt>
      <trkpt lat="45.69887" lon="6.61679">
        <ele>1086.2</ele>
        <time>2021-06-01T10:39:29Z</time>
      </trkpt>
      <trkpt lat="45.69886" lon="6.61676">
        <ele>1086.4</ele>
        <time>2021-06-01T10:39:30Z</time>
      </trkpt>
      <trkpt lat="45.69886" lon="6.61673">
        <ele>1086.6</ele>
        <time>2021-06-01T10:39:31Z</time>
      </trkpt>
      <trkpt lat="45.69885" lon="6.6167">
        <ele>1086.8</ele>
        <time>2021-06-01T10:39:32Z</time>
      </trkpt>
      <trkpt lat="45.69884" lon="6.61666">
        <ele>1087</ele>
        <time>2021-06-01T10:39:33Z</time>
      </trkpt>
      <trkpt lat="45.69883" lon="6.6166">
        <ele>1087</ele>
        <time>2021-06-01T10:39:34Z</time>
      </trkpt>
      <trkpt lat="45.69881" lon="6.61655">
        <ele>1087.2</ele>
        <time>2021-06-01T10:39:35Z</time>
      </trkpt>
      <trkpt lat="45.6988" lon="6.61651">
        <ele>1087.4</ele>
        <time>2021-06-01T10:39:36Z</time>
      </trkpt>
      <trkpt lat="45.69878" lon="6.61647">
        <ele>1087.8</ele>
        <time>2021-06-01T10:39:37Z</time>
      </trkpt>
      <trkpt lat="45.69878" lon="6.61642">
        <ele>1088.2</ele>
        <time>2021-06-01T10:39:38Z</time>
      </trkpt>
      <trkpt lat="45.69877" lon="6.61637">
        <ele>1088.6</ele>
        <time>2021-06-01T10:39:39Z</time>
      </trkpt>
      <trkpt lat="45.69876" lon="6.61634">
        <ele>1089.4</ele>
        <time>2021-06-01T10:39:40Z</time>
      </trkpt>
      <trkpt lat="45.69875" lon="6.61629">
        <ele>1090.2</ele>
        <time>2021-06-01T10:39:41Z</time>
      </trkpt>
      <trkpt lat="45.69873" lon="6.61625">
        <ele>1091</ele>
        <time>2021-06-01T10:39:42Z</time>
      </trkpt>
      <trkpt lat="45.69872" lon="6.6162">
        <ele>1091.8</ele>
        <time>2021-06-01T10:39:43Z</time>
      </trkpt>
      <trkpt lat="45.69871" lon="6.61614">
        <ele>1092.8</ele>
        <time>2021-06-01T10:39:44Z</time>
      </trkpt>
      <trkpt lat="45.69871" lon="6.61609">
        <ele>1093.4</ele>
        <time>2021-06-01T10:39:45Z</time>
      </trkpt>
      <trkpt lat="45.69871" lon="6.61604">
        <ele>1094</ele>
        <time>2021-06-01T10:39:46Z</time>
      </trkpt>
      <trkpt lat="45.6987" lon="6.616">
        <ele>1094.6</ele>
        <time>2021-06-01T10:39:47Z</time>
      </trkpt>
      <trkpt lat="45.69869" lon="6.61595">
        <ele>1095.2</ele>
        <time>2021-06-01T10:39:48Z</time>
      </trkpt>
      <trkpt lat="45.69868" lon="6.6159">
        <ele>1096.2</ele>
        <time>2021-06-01T10:39:49Z</time>
      </trkpt>
      <trkpt lat="45.69867" lon="6.61586">
        <ele>1097.2</ele>
        <time>2021-06-01T10:39:50Z</time>
      </trkpt>
      <trkpt lat="45.69865" lon="6.61582">
        <ele>1098</ele>
        <time>2021-06-01T10:39:51Z</time>
      </trkpt>
      <trkpt lat="45.69863" lon="6.61576">
        <ele>1099</ele>
        <time>2021-06-01T10:39:52Z</time>
      </trkpt>
      <trkpt lat="45.69861" lon="6.6157">
        <ele>1100</ele>
        <time>2021-06-01T10:39:53Z</time>
      </trkpt>
      <trkpt lat="45.69859" lon="6.61565">
        <ele>1100.8</ele>
        <time>2021-06-01T10:39:54Z</time>
      </trkpt>
      <trkpt lat="45.69857" lon="6.61559">
        <ele>1101.8</ele>
        <time>2021-06-01T10:39:55Z</time>
      </trkpt>
      <trkpt lat="45.69855" lon="6.61553">
        <ele>1102.6</ele>
        <time>2021-06-01T10:39:56Z</time>
      </trkpt>
      <trkpt lat="45.69854" lon="6.61549">
        <ele>1103.6</ele>
        <time>2021-06-01T10:39:57Z</time>
      </trkpt>
      <trkpt lat="45.69852" lon="6.61542">
        <ele>1104.6</ele>
        <time>2021-06-01T10:39:58Z</time>
      </trkpt>
      <trkpt lat="45.69849" lon="6.61536">
        <ele>1105.4</ele>
        <time>2021-06-01T10:39:59Z</time>
      </trkpt>
      <trkpt lat="45.69846" lon="6.61531">
        <ele>1105.4</ele>
        <time>2021-06-01T10:40:00Z</time>
      </trkpt>
      <trkpt lat="45.69845" lon="6.61525">
        <ele>1106.8</ele>
        <time>2021-06-01T10:40:01Z</time>
      </trkpt>
      <trkpt lat="45.69843" lon="6.61518">
        <ele>1107.4</ele>
        <time>2021-06-01T10:40:02Z</time>
      </trkpt>
      <trkpt lat="45.69841" lon="6.61511">
        <ele>1108.2</ele>
        <time>2021-06-01T10:40:03Z</time>
      </trkpt>
      <trkpt lat="45.69838" lon="6.61505">
        <ele>1109</ele>
        <time>2021-06-01T10:40:04Z</time>
      </trkpt>
      <trkpt lat="45.69834" lon="6.615">
        <ele>1110</ele>
        <time>2021-06-01T10:40:05Z</time>
      </trkpt>
      <trkpt lat="45.6983" lon="6.61496">
        <ele>1110.8</ele>
        <time>2021-06-01T10:40:06Z</time>
      </trkpt>
      <trkpt lat="45.69826" lon="6.61492">
        <ele>1111.4</ele>
        <time>2021-06-01T10:40:07Z</time>
      </trkpt>
      <trkpt lat="45.69822" lon="6.61489">
        <ele>1112.2</ele>
        <time>2021-06-01T10:40:08Z</time>
      </trkpt>
      <trkpt lat="45.69817" lon="6.61486">
        <ele>1112.6</ele>
        <time>2021-06-01T10:40:09Z</time>
      </trkpt>
      <trkpt lat="45.69814" lon="6.61483">
        <ele>1113</ele>
        <time>2021-06-01T10:40:10Z</time>
      </trkpt>
      <trkpt lat="45.6981" lon="6.6148">
        <ele>1113.2</ele>
        <time>2021-06-01T10:40:11Z</time>
      </trkpt>
      <trkpt lat="45.69806" lon="6.61478">
        <ele>1113.6</ele>
        <time>2021-06-01T10:40:12Z</time>
      </trkpt>
      <trkpt lat="45.69803" lon="6.61476">
        <ele>1114.2</ele>
        <time>2021-06-01T10:40:13Z</time>
      </trkpt>
      <trkpt lat="45.698" lon="6.61474">
        <ele>1115</ele>
        <time>2021-06-01T10:40:14Z</time>
      </trkpt>
      <trkpt lat="45.69797" lon="6.61472">
        <ele>1115.6</ele>
        <time>2021-06-01T10:40:15Z</time>
      </trkpt>
      <trkpt lat="45.69793" lon="6.61472">
        <ele>1116.4</ele>
        <time>2021-06-01T10:40:16Z</time>
      </trkpt>
      <trkpt lat="45.69789" lon="6.61472">
        <ele>1117.4</ele>
        <time>2021-06-01T10:40:17Z</time>
      </trkpt>
      <trkpt lat="45.69785" lon="6.61471">
        <ele>1118.4</ele>
        <time>2021-06-01T10:40:18Z</time>
      </trkpt>
      <trkpt lat="45.69781" lon="6.6147">
        <ele>1119.4</ele>
        <time>2021-06-01T10:40:19Z</time>
      </trkpt>
      <trkpt lat="45.69777" lon="6.61469">
        <ele>1120</ele>
        <time>2021-06-01T10:40:20Z</time>
      </trkpt>
      <trkpt lat="45.69775" lon="6.61468">
        <ele>1120.6</ele>
        <time>2021-06-01T10:40:21Z</time>
      </trkpt>
      <trkpt lat="45.69771" lon="6.61467">
        <ele>1121</ele>
        <time>2021-06-01T10:40:22Z</time>
      </trkpt>
      <trkpt lat="45.69768" lon="6.61466">
        <ele>1121.6</ele>
        <time>2021-06-01T10:40:23Z</time>
      </trkpt>
      <trkpt lat="45.69765" lon="6.61465">
        <ele>1122.2</ele>
        <time>2021-06-01T10:40:24Z</time>
      </trkpt>
      <trkpt lat="45.69761" lon="6.61464">
        <ele>1122.6</ele>
        <time>2021-06-01T10:40:25Z</time>
      </trkpt>
      <trkpt lat="45.69758" lon="6.61463">
        <ele>1123</ele>
        <time>2021-06-01T10:40:26Z</time>
      </trkpt>
      <trkpt lat="45.69755" lon="6.61462">
        <ele>1123.6</ele>
        <time>2021-06-01T10:40:27Z</time>
      </trkpt>
      <trkpt lat="45.69752" lon="6.61461">
        <ele>1124</ele>
        <time>2021-06-01T10:40:28Z</time>
      </trkpt>
      <trkpt lat="45.69749" lon="6.6146">
        <ele>1124.6</ele>
        <time>2021-06-01T10:40:29Z</time>
      </trkpt>
      <trkpt lat="45.69746" lon="6.6146">
        <ele>1125.2</ele>
        <time>2021-06-01T10:40:30Z</time>
      </trkpt>
      <trkpt lat="45.69743" lon="6.61458">
        <ele>1125.6</ele>
        <time>2021-06-01T10:40:31Z</time>
      </trkpt>
      <trkpt lat="45.6974" lon="6.61456">
        <ele>1126.2</ele>
        <time>2021-06-01T10:40:32Z</time>
      </trkpt>
      <trkpt lat="45.69737" lon="6.61454">
        <ele>1126.8</ele>
        <time>2021-06-01T10:40:33Z</time>
      </trkpt>
      <trkpt lat="45.69734" lon="6.61452">
        <ele>1127.2</ele>
        <time>2021-06-01T10:40:34Z</time>
      </trkpt>
      <trkpt lat="45.69732" lon="6.61449">
        <ele>1127.8</ele>
        <time>2021-06-01T10:40:35Z</time>
      </trkpt>
      <trkpt lat="45.69728" lon="6.61447">
        <ele>1128.2</ele>
        <time>2021-06-01T10:40:36Z</time>
      </trkpt>
      <trkpt lat="45.69725" lon="6.61444">
        <ele>1128.6</ele>
        <time>2021-06-01T10:40:37Z</time>
      </trkpt>
      <trkpt lat="45.69722" lon="6.6144">
        <ele>1129</ele>
        <time>2021-06-01T10:40:38Z</time>
      </trkpt>
      <trkpt lat="45.6972" lon="6.61437">
        <ele>1129.6</ele>
        <time>2021-06-01T10:40:39Z</time>
      </trkpt>
      <trkpt lat="45.69717" lon="6.61434">
        <ele>1130.2</ele>
        <time>2021-06-01T10:40:40Z</time>
      </trkpt>
      <trkpt lat="45.69715" lon="6.6143">
        <ele>1130.6</ele>
        <time>2021-06-01T10:40:41Z</time>
      </trkpt>
      <trkpt lat="45.69712" lon="6.61427">
        <ele>1131</ele>
        <time>2021-06-01T10:40:42Z</time>
      </trkpt>
      <trkpt lat="45.69709" lon="6.61424">
        <ele>1130.8</ele>
        <time>2021-06-01T10:40:43Z</time>
      </trkpt>
      <trkpt lat="45.69705" lon="6.61423">
        <ele>1130.6</ele>
        <time>2021-06-01T10:40:44Z</time>
      </trkpt>
      <trkpt lat="45.69702" lon="6.61421">
        <ele>1130.6</ele>
        <time>2021-06-01T10:40:45Z</time>
      </trkpt>
      <trkpt lat="45.69699" lon="6.61421">
        <ele>1130.2</ele>
        <time>2021-06-01T10:40:46Z</time>
      </trkpt>
      <trkpt lat="45.69697" lon="6.61422">
        <ele>1130.2</ele>
        <time>2021-06-01T10:40:47Z</time>
      </trkpt>
      <trkpt lat="45.69695" lon="6.61425">
        <ele>1130.4</ele>
        <time>2021-06-01T10:40:48Z</time>
      </trkpt>
      <trkpt lat="45.69694" lon="6.61428">
        <ele>1130.6</ele>
        <time>2021-06-01T10:40:49Z</time>
      </trkpt>
      <trkpt lat="45.69693" lon="6.61432">
        <ele>1131.4</ele>
        <time>2021-06-01T10:40:50Z</time>
      </trkpt>
      <trkpt lat="45.69692" lon="6.61436">
        <ele>1132</ele>
        <time>2021-06-01T10:40:51Z</time>
      </trkpt>
      <trkpt lat="45.69692" lon="6.6144">
        <ele>1132.4</ele>
        <time>2021-06-01T10:40:52Z</time>
      </trkpt>
      <trkpt lat="45.69693" lon="6.61444">
        <ele>1132.8</ele>
        <time>2021-06-01T10:40:53Z</time>
      </trkpt>
      <trkpt lat="45.69694" lon="6.61448">
        <ele>1133.2</ele>
        <time>2021-06-01T10:40:54Z</time>
      </trkpt>
      <trkpt lat="45.69697" lon="6.61451">
        <ele>1133.6</ele>
        <time>2021-06-01T10:40:55Z</time>
      </trkpt>
      <trkpt lat="45.69699" lon="6.61454">
        <ele>1134</ele>
        <time>2021-06-01T10:40:56Z</time>
      </trkpt>
      <trkpt lat="45.69701" lon="6.61457">
        <ele>1134.4</ele>
        <time>2021-06-01T10:40:57Z</time>
      </trkpt>
      <trkpt lat="45.69704" lon="6.61459">
        <ele>1134.8</ele>
        <time>2021-06-01T10:40:58Z</time>
      </trkpt>
      <trkpt lat="45.69707" lon="6.61462">
        <ele>1135</ele>
        <time>2021-06-01T10:40:59Z</time>
      </trkpt>
      <trkpt lat="45.69709" lon="6.61464">
        <ele>1135</ele>
        <time>2021-06-01T10:41:00Z</time>
      </trkpt>
      <trkpt lat="45.69712" lon="6.61467">
        <ele>1135.2</ele>
        <time>2021-06-01T10:41:01Z</time>
      </trkpt>
      <trkpt lat="45.69715" lon="6.6147">
        <ele>1135.2</ele>
        <time>2021-06-01T10:41:02Z</time>
      </trkpt>
      <trkpt lat="45.69717" lon="6.61472">
        <ele>1135.6</ele>
        <time>2021-06-01T10:41:03Z</time>
      </trkpt>
      <trkpt lat="45.6972" lon="6.61475">
        <ele>1135.6</ele>
        <time>2021-06-01T10:41:04Z</time>
      </trkpt>
      <trkpt lat="45.69723" lon="6.61477">
        <ele>1135.8</ele>
        <time>2021-06-01T10:41:05Z</time>
      </trkpt>
      <trkpt lat="45.69726" lon="6.6148">
        <ele>1136.2</ele>
        <time>2021-06-01T10:41:06Z</time>
      </trkpt>
      <trkpt lat="45.69729" lon="6.61481">
        <ele>1136.2</ele>
        <time>2021-06-01T10:41:07Z</time>
      </trkpt>
      <trkpt lat="45.69732" lon="6.61484">
        <ele>1136.4</ele>
        <time>2021-06-01T10:41:08Z</time>
      </trkpt>
      <trkpt lat="45.69734" lon="6.61486">
        <ele>1136.8</ele>
        <time>2021-06-01T10:41:09Z</time>
      </trkpt>
      <trkpt lat="45.69737" lon="6.61488">
        <ele>1137</ele>
        <time>2021-06-01T10:41:10Z</time>
      </trkpt>
      <trkpt lat="45.6974" lon="6.61491">
        <ele>1137.2</ele>
        <time>2021-06-01T10:41:11Z</time>
      </trkpt>
      <trkpt lat="45.69743" lon="6.61493">
        <ele>1137.8</ele>
        <time>2021-06-01T10:41:12Z</time>
      </trkpt>
      <trkpt lat="45.69746" lon="6.61496">
        <ele>1138</ele>
        <time>2021-06-01T10:41:13Z</time>
      </trkpt>
      <trkpt lat="45.69748" lon="6.615">
        <ele>1138.8</ele>
        <time>2021-06-01T10:41:14Z</time>
      </trkpt>
      <trkpt lat="45.69751" lon="6.61505">
        <ele>1139.4</ele>
        <time>2021-06-01T10:41:15Z</time>
      </trkpt>
      <trkpt lat="45.69754" lon="6.61509">
        <ele>1139.8</ele>
        <time>2021-06-01T10:41:16Z</time>
      </trkpt>
      <trkpt lat="45.69757" lon="6.61513">
        <ele>1140.2</ele>
        <time>2021-06-01T10:41:17Z</time>
      </trkpt>
      <trkpt lat="45.6976" lon="6.61517">
        <ele>1140.8</ele>
        <time>2021-06-01T10:41:18Z</time>
      </trkpt>
      <trkpt lat="45.69763" lon="6.6152">
        <ele>1141</ele>
        <time>2021-06-01T10:41:19Z</time>
      </trkpt>
      <trkpt lat="45.69765" lon="6.61523">
        <ele>1141</ele>
        <time>2021-06-01T10:41:20Z</time>
      </trkpt>
      <trkpt lat="45.69767" lon="6.61527">
        <ele>1140.6</ele>
        <time>2021-06-01T10:41:21Z</time>
      </trkpt>
      <trkpt lat="45.69769" lon="6.61531">
        <ele>1140</ele>
        <time>2021-06-01T10:41:22Z</time>
      </trkpt>
      <trkpt lat="45.69771" lon="6.61535">
        <ele>1139.4</ele>
        <time>2021-06-01T10:41:23Z</time>
      </trkpt>
      <trkpt lat="45.69773" lon="6.61538">
        <ele>1138.6</ele>
        <time>2021-06-01T10:41:24Z</time>
      </trkpt>
      <trkpt lat="45.69774" lon="6.61542">
        <ele>1137.8</ele>
        <time>2021-06-01T10:41:25Z</time>
      </trkpt>
      <trkpt lat="45.69776" lon="6.61546">
        <ele>1137.2</ele>
        <time>2021-06-01T10:41:26Z</time>
      </trkpt>
      <trkpt lat="45.69777" lon="6.6155">
        <ele>1136.8</ele>
        <time>2021-06-01T10:41:27Z</time>
      </trkpt>
      <trkpt lat="45.69779" lon="6.61553">
        <ele>1136.2</ele>
        <time>2021-06-01T10:41:28Z</time>
      </trkpt>
      <trkpt lat="45.6978" lon="6.61557">
        <ele>1136</ele>
        <time>2021-06-01T10:41:29Z</time>
      </trkpt>
      <trkpt lat="45.69782" lon="6.61561">
        <ele>1136.2</ele>
        <time>2021-06-01T10:41:30Z</time>
      </trkpt>
      <trkpt lat="45.69783" lon="6.61566">
        <ele>1136.8</ele>
        <time>2021-06-01T10:41:31Z</time>
      </trkpt>
      <trkpt lat="45.69785" lon="6.6157">
        <ele>1137.8</ele>
        <time>2021-06-01T10:41:32Z</time>
      </trkpt>
      <trkpt lat="45.69785" lon="6.61574">
        <ele>1138.6</ele>
        <time>2021-06-01T10:41:33Z</time>
      </trkpt>
      <trkpt lat="45.69787" lon="6.61579">
        <ele>1139.6</ele>
        <time>2021-06-01T10:41:34Z</time>
      </trkpt>
      <trkpt lat="45.69788" lon="6.61583">
        <ele>1140.6</ele>
        <time>2021-06-01T10:41:35Z</time>
      </trkpt>
      <trkpt lat="45.69789" lon="6.61587">
        <ele>1141.6</ele>
        <time>2021-06-01T10:41:36Z</time>
      </trkpt>
      <trkpt lat="45.69789" lon="6.61591">
        <ele>1142.4</ele>
        <time>2021-06-01T10:41:37Z</time>
      </trkpt>
      <trkpt lat="45.69789" lon="6.61594">
        <ele>1143</ele>
        <time>2021-06-01T10:41:38Z</time>
      </trkpt>
      <trkpt lat="45.69789" lon="6.61599">
        <ele>1143.8</ele>
        <time>2021-06-01T10:41:39Z</time>
      </trkpt>
      <trkpt lat="45.69789" lon="6.61603">
        <ele>1144.4</ele>
        <time>2021-06-01T10:41:40Z</time>
      </trkpt>
      <trkpt lat="45.69791" lon="6.61607">
        <ele>1145</ele>
        <time>2021-06-01T10:41:41Z</time>
      </trkpt>
      <trkpt lat="45.69792" lon="6.61611">
        <ele>1145.6</ele>
        <time>2021-06-01T10:41:42Z</time>
      </trkpt>
      <trkpt lat="45.69794" lon="6.61616">
        <ele>1146.2</ele>
        <time>2021-06-01T10:41:43Z</time>
      </trkpt>
      <trkpt lat="45.69795" lon="6.61619">
        <ele>1146.6</ele>
        <time>2021-06-01T10:41:44Z</time>
      </trkpt>
      <trkpt lat="45.69795" lon="6.61623">
        <ele>1147.2</ele>
        <time>2021-06-01T10:41:45Z</time>
      </trkpt>
      <trkpt lat="45.69796" lon="6.61628">
        <ele>1147.6</ele>
        <time>2021-06-01T10:41:46Z</time>
      </trkpt>
      <trkpt lat="45.69795" lon="6.61632">
        <ele>1148.2</ele>
        <time>2021-06-01T10:41:47Z</time>
      </trkpt>
      <trkpt lat="45.69795" lon="6.61637">
        <ele>1148.6</ele>
        <time>2021-06-01T10:41:48Z</time>
      </trkpt>
      <trkpt lat="45.69795" lon="6.61641">
        <ele>1149</ele>
        <time>2021-06-01T10:41:49Z</time>
      </trkpt>
      <trkpt lat="45.69795" lon="6.61645">
        <ele>1149.4</ele>
        <time>2021-06-01T10:41:50Z</time>
      </trkpt>
      <trkpt lat="45.69796" lon="6.61649">
        <ele>1149.6</ele>
        <time>2021-06-01T10:41:51Z</time>
      </trkpt>
      <trkpt lat="45.69796" lon="6.61653">
        <ele>1150</ele>
        <time>2021-06-01T10:41:52Z</time>
      </trkpt>
      <trkpt lat="45.69796" lon="6.61658">
        <ele>1150.4</ele>
        <time>2021-06-01T10:41:53Z</time>
      </trkpt>
      <trkpt lat="45.69796" lon="6.61662">
        <ele>1150.8</ele>
        <time>2021-06-01T10:41:54Z</time>
      </trkpt>
      <trkpt lat="45.69795" lon="6.61667">
        <ele>1151</ele>
        <time>2021-06-01T10:41:55Z</time>
      </trkpt>
      <trkpt lat="45.69795" lon="6.61671">
        <ele>1150.8</ele>
        <time>2021-06-01T10:41:56Z</time>
      </trkpt>
      <trkpt lat="45.69796" lon="6.61676">
        <ele>1150.6</ele>
        <time>2021-06-01T10:41:57Z</time>
      </trkpt>
      <trkpt lat="45.69796" lon="6.6168">
        <ele>1150.4</ele>
        <time>2021-06-01T10:41:58Z</time>
      </trkpt>
      <trkpt lat="45.69795" lon="6.61685">
        <ele>1150</ele>
        <time>2021-06-01T10:41:59Z</time>
      </trkpt>
      <trkpt lat="45.69793" lon="6.61688">
        <ele>1149.8</ele>
        <time>2021-06-01T10:42:00Z</time>
      </trkpt>
      <trkpt lat="45.69792" lon="6.61692">
        <ele>1149.4</ele>
        <time>2021-06-01T10:42:01Z</time>
      </trkpt>
      <trkpt lat="45.69792" lon="6.61696">
        <ele>1149.2</ele>
        <time>2021-06-01T10:42:02Z</time>
      </trkpt>
      <trkpt lat="45.69791" lon="6.617">
        <ele>1148.8</ele>
        <time>2021-06-01T10:42:03Z</time>
      </trkpt>
      <trkpt lat="45.6979" lon="6.61705">
        <ele>1148.8</ele>
        <time>2021-06-01T10:42:04Z</time>
      </trkpt>
      <trkpt lat="45.69789" lon="6.6171">
        <ele>1149</ele>
        <time>2021-06-01T10:42:05Z</time>
      </trkpt>
      <trkpt lat="45.69789" lon="6.61714">
        <ele>1149.4</ele>
        <time>2021-06-01T10:42:06Z</time>
      </trkpt>
      <trkpt lat="45.69789" lon="6.61718">
        <ele>1150</ele>
        <time>2021-06-01T10:42:07Z</time>
      </trkpt>
      <trkpt lat="45.69788" lon="6.61723">
        <ele>1150.6</ele>
        <time>2021-06-01T10:42:08Z</time>
      </trkpt>
      <trkpt lat="45.69788" lon="6.61727">
        <ele>1151</ele>
        <time>2021-06-01T10:42:09Z</time>
      </trkpt>
      <trkpt lat="45.69788" lon="6.61732">
        <ele>1151.8</ele>
        <time>2021-06-01T10:42:10Z</time>
      </trkpt>
      <trkpt lat="45.69787" lon="6.61736">
        <ele>1152.4</ele>
        <time>2021-06-01T10:42:11Z</time>
      </trkpt>
      <trkpt lat="45.69787" lon="6.61741">
        <ele>1153.2</ele>
        <time>2021-06-01T10:42:12Z</time>
      </trkpt>
      <trkpt lat="45.69787" lon="6.61746">
        <ele>1153.8</ele>
        <time>2021-06-01T10:42:13Z</time>
      </trkpt>
      <trkpt lat="45.69788" lon="6.61751">
        <ele>1154.4</ele>
        <time>2021-06-01T10:42:14Z</time>
      </trkpt>
      <trkpt lat="45.69788" lon="6.61755">
        <ele>1155.2</ele>
        <time>2021-06-01T10:42:15Z</time>
      </trkpt>
      <trkpt lat="45.69789" lon="6.6176">
        <ele>1155.6</ele>
        <time>2021-06-01T10:42:16Z</time>
      </trkpt>
      <trkpt lat="45.69791" lon="6.61764">
        <ele>1156.2</ele>
        <time>2021-06-01T10:42:17Z</time>
      </trkpt>
      <trkpt lat="45.69791" lon="6.61769">
        <ele>1156.6</ele>
        <time>2021-06-01T10:42:18Z</time>
      </trkpt>
      <trkpt lat="45.69791" lon="6.61773">
        <ele>1157</ele>
        <time>2021-06-01T10:42:19Z</time>
      </trkpt>
      <trkpt lat="45.69792" lon="6.61777">
        <ele>1157.4</ele>
        <time>2021-06-01T10:42:20Z</time>
      </trkpt>
      <trkpt lat="45.69793" lon="6.61782">
        <ele>1157.8</ele>
        <time>2021-06-01T10:42:21Z</time>
      </trkpt>
      <trkpt lat="45.69794" lon="6.61787">
        <ele>1158.2</ele>
        <time>2021-06-01T10:42:22Z</time>
      </trkpt>
      <trkpt lat="45.69795" lon="6.61792">
        <ele>1158.6</ele>
        <time>2021-06-01T10:42:23Z</time>
      </trkpt>
      <trkpt lat="45.69795" lon="6.61797">
        <ele>1159</ele>
        <time>2021-06-01T10:42:24Z</time>
      </trkpt>
      <trkpt lat="45.69796" lon="6.61802">
        <ele>1159.2</ele>
        <time>2021-06-01T10:42:25Z</time>
      </trkpt>
      <trkpt lat="45.69796" lon="6.61807">
        <ele>1159.6</ele>
        <time>2021-06-01T10:42:26Z</time>
      </trkpt>
      <trkpt lat="45.69797" lon="6.61813">
        <ele>1160</ele>
        <time>2021-06-01T10:42:27Z</time>
      </trkpt>
      <trkpt lat="45.69797" lon="6.61819">
        <ele>1160.4</ele>
        <time>2021-06-01T10:42:28Z</time>
      </trkpt>
      <trkpt lat="45.69799" lon="6.61824">
        <ele>1161</ele>
        <time>2021-06-01T10:42:29Z</time>
      </trkpt>
      <trkpt lat="45.698" lon="6.61829">
        <ele>1161.4</ele>
        <time>2021-06-01T10:42:30Z</time>
      </trkpt>
      <trkpt lat="45.69802" lon="6.61834">
        <ele>1161.6</ele>
        <time>2021-06-01T10:42:31Z</time>
      </trkpt>
      <trkpt lat="45.69803" lon="6.6184">
        <ele>1162.2</ele>
        <time>2021-06-01T10:42:32Z</time>
      </trkpt>
      <trkpt lat="45.69803" lon="6.61844">
        <ele>1162.4</ele>
        <time>2021-06-01T10:42:33Z</time>
      </trkpt>
      <trkpt lat="45.69804" lon="6.61849">
        <ele>1162.8</ele>
        <time>2021-06-01T10:42:34Z</time>
      </trkpt>
      <trkpt lat="45.69804" lon="6.61854">
        <ele>1163.2</ele>
        <time>2021-06-01T10:42:35Z</time>
      </trkpt>
      <trkpt lat="45.69804" lon="6.61859">
        <ele>1163.8</ele>
        <time>2021-06-01T10:42:36Z</time>
      </trkpt>
      <trkpt lat="45.69804" lon="6.61862">
        <ele>1164.4</ele>
        <time>2021-06-01T10:42:37Z</time>
      </trkpt>
      <trkpt lat="45.69805" lon="6.61865">
        <ele>1164.6</ele>
        <time>2021-06-01T10:42:38Z</time>
      </trkpt>
      <trkpt lat="45.69805" lon="6.61869">
        <ele>1165</ele>
        <time>2021-06-01T10:42:39Z</time>
      </trkpt>
      <trkpt lat="45.69805" lon="6.61874">
        <ele>1165.4</ele>
        <time>2021-06-01T10:42:40Z</time>
      </trkpt>
      <trkpt lat="45.69806" lon="6.61878">
        <ele>1165.8</ele>
        <time>2021-06-01T10:42:41Z</time>
      </trkpt>
      <trkpt lat="45.69807" lon="6.61883">
        <ele>1165.6</ele>
        <time>2021-06-01T10:42:42Z</time>
      </trkpt>
      <trkpt lat="45.69807" lon="6.61888">
        <ele>1165.6</ele>
        <time>2021-06-01T10:42:43Z</time>
      </trkpt>
      <trkpt lat="45.69808" lon="6.61893">
        <ele>1165.6</ele>
        <time>2021-06-01T10:42:44Z</time>
      </trkpt>
      <trkpt lat="45.69809" lon="6.61897">
        <ele>1165.4</ele>
        <time>2021-06-01T10:42:45Z</time>
      </trkpt>
      <trkpt lat="45.69811" lon="6.61902">
        <ele>1165.2</ele>
        <time>2021-06-01T10:42:46Z</time>
      </trkpt>
      <trkpt lat="45.69813" lon="6.61907">
        <ele>1165</ele>
        <time>2021-06-01T10:42:47Z</time>
      </trkpt>
      <trkpt lat="45.69815" lon="6.6191">
        <ele>1165.2</ele>
        <time>2021-06-01T10:42:48Z</time>
      </trkpt>
      <trkpt lat="45.69817" lon="6.61914">
        <ele>1165</ele>
        <time>2021-06-01T10:42:49Z</time>
      </trkpt>
      <trkpt lat="45.6982" lon="6.61919">
        <ele>1165</ele>
        <time>2021-06-01T10:42:50Z</time>
      </trkpt>
      <trkpt lat="45.69821" lon="6.61923">
        <ele>1165.2</ele>
        <time>2021-06-01T10:42:51Z</time>
      </trkpt>
      <trkpt lat="45.69823" lon="6.61927">
        <ele>1165.4</ele>
        <time>2021-06-01T10:42:52Z</time>
      </trkpt>
      <trkpt lat="45.69824" lon="6.61931">
        <ele>1165.6</ele>
        <time>2021-06-01T10:42:53Z</time>
      </trkpt>
      <trkpt lat="45.69826" lon="6.61935">
        <ele>1165.8</ele>
        <time>2021-06-01T10:42:54Z</time>
      </trkpt>
      <trkpt lat="45.69828" lon="6.61938">
        <ele>1165.6</ele>
        <time>2021-06-01T10:42:55Z</time>
      </trkpt>
      <trkpt lat="45.69829" lon="6.61942">
        <ele>1165.8</ele>
        <time>2021-06-01T10:42:56Z</time>
      </trkpt>
      <trkpt lat="45.69831" lon="6.61946">
        <ele>1165.8</ele>
        <time>2021-06-01T10:42:57Z</time>
      </trkpt>
      <trkpt lat="45.69833" lon="6.6195">
        <ele>1165.8</ele>
        <time>2021-06-01T10:42:58Z</time>
      </trkpt>
      <trkpt lat="45.69835" lon="6.61953">
        <ele>1165.8</ele>
        <time>2021-06-01T10:42:59Z</time>
      </trkpt>
      <trkpt lat="45.69837" lon="6.61957">
        <ele>1166</ele>
        <time>2021-06-01T10:43:00Z</time>
      </trkpt>
      <trkpt lat="45.69839" lon="6.6196">
        <ele>1166.4</ele>
        <time>2021-06-01T10:43:01Z</time>
      </trkpt>
      <trkpt lat="45.69841" lon="6.61963">
        <ele>1166.6</ele>
        <time>2021-06-01T10:43:02Z</time>
      </trkpt>
      <trkpt lat="45.69843" lon="6.61967">
        <ele>1166.8</ele>
        <time>2021-06-01T10:43:03Z</time>
      </trkpt>
      <trkpt lat="45.69845" lon="6.6197">
        <ele>1167</ele>
        <time>2021-06-01T10:43:04Z</time>
      </trkpt>
      <trkpt lat="45.69847" lon="6.61973">
        <ele>1167.4</ele>
        <time>2021-06-01T10:43:05Z</time>
      </trkpt>
      <trkpt lat="45.69849" lon="6.61977">
        <ele>1167.6</ele>
        <time>2021-06-01T10:43:06Z</time>
      </trkpt>
      <trkpt lat="45.69852" lon="6.6198">
        <ele>1167.6</ele>
        <time>2021-06-01T10:43:07Z</time>
      </trkpt>
      <trkpt lat="45.69854" lon="6.61983">
        <ele>1167.8</ele>
        <time>2021-06-01T10:43:08Z</time>
      </trkpt>
      <trkpt lat="45.69856" lon="6.61987">
        <ele>1168.2</ele>
        <time>2021-06-01T10:43:09Z</time>
      </trkpt>
      <trkpt lat="45.69858" lon="6.61991">
        <ele>1168.6</ele>
        <time>2021-06-01T10:43:10Z</time>
      </trkpt>
      <trkpt lat="45.69859" lon="6.61995">
        <ele>1169</ele>
        <time>2021-06-01T10:43:11Z</time>
      </trkpt>
      <trkpt lat="45.69859" lon="6.62">
        <ele>1169.6</ele>
        <time>2021-06-01T10:43:12Z</time>
      </trkpt>
      <trkpt lat="45.69857" lon="6.62004">
        <ele>1169.6</ele>
        <time>2021-06-01T10:43:13Z</time>
      </trkpt>
      <trkpt lat="45.69854" lon="6.62006">
        <ele>1169.6</ele>
        <time>2021-06-01T10:43:14Z</time>
      </trkpt>
      <trkpt lat="45.69852" lon="6.62006">
        <ele>1169.4</ele>
        <time>2021-06-01T10:43:15Z</time>
      </trkpt>
      <trkpt lat="45.69848" lon="6.62003">
        <ele>1169</ele>
        <time>2021-06-01T10:43:17Z</time>
      </trkpt>
      <trkpt lat="45.69845" lon="6.62">
        <ele>1168.8</ele>
        <time>2021-06-01T10:43:18Z</time>
      </trkpt>
      <trkpt lat="45.69843" lon="6.61996">
        <ele>1168.6</ele>
        <time>2021-06-01T10:43:19Z</time>
      </trkpt>
      <trkpt lat="45.69841" lon="6.61992">
        <ele>1168.6</ele>
        <time>2021-06-01T10:43:20Z</time>
      </trkpt>
      <trkpt lat="45.69839" lon="6.61988">
        <ele>1168.8</ele>
        <time>2021-06-01T10:43:21Z</time>
      </trkpt>
      <trkpt lat="45.69837" lon="6.61984">
        <ele>1168.6</ele>
        <time>2021-06-01T10:43:22Z</time>
      </trkpt>
      <trkpt lat="45.69835" lon="6.61979">
        <ele>1168.4</ele>
        <time>2021-06-01T10:43:23Z</time>
      </trkpt>
      <trkpt lat="45.69833" lon="6.61975">
        <ele>1168.4</ele>
        <time>2021-06-01T10:43:24Z</time>
      </trkpt>
      <trkpt lat="45.6983" lon="6.61971">
        <ele>1168.2</ele>
        <time>2021-06-01T10:43:25Z</time>
      </trkpt>
      <trkpt lat="45.69828" lon="6.61966">
        <ele>1168</ele>
        <time>2021-06-01T10:43:26Z</time>
      </trkpt>
      <trkpt lat="45.69825" lon="6.61961">
        <ele>1167.6</ele>
        <time>2021-06-01T10:43:27Z</time>
      </trkpt>
      <trkpt lat="45.69823" lon="6.61957">
        <ele>1167.4</ele>
        <time>2021-06-01T10:43:28Z</time>
      </trkpt>
      <trkpt lat="45.69821" lon="6.61953">
        <ele>1167.2</ele>
        <time>2021-06-01T10:43:29Z</time>
      </trkpt>
      <trkpt lat="45.69819" lon="6.61949">
        <ele>1167.2</ele>
        <time>2021-06-01T10:43:30Z</time>
      </trkpt>
      <trkpt lat="45.69816" lon="6.61945">
        <ele>1167.2</ele>
        <time>2021-06-01T10:43:31Z</time>
      </trkpt>
      <trkpt lat="45.69813" lon="6.61941">
        <ele>1167.2</ele>
        <time>2021-06-01T10:43:32Z</time>
      </trkpt>
      <trkpt lat="45.69811" lon="6.61938">
        <ele>1167.2</ele>
        <time>2021-06-01T10:43:33Z</time>
      </trkpt>
      <trkpt lat="45.69809" lon="6.61934">
        <ele>1167.2</ele>
        <time>2021-06-01T10:43:34Z</time>
      </trkpt>
      <trkpt lat="45.69806" lon="6.6193">
        <ele>1167</ele>
        <time>2021-06-01T10:43:35Z</time>
      </trkpt>
      <trkpt lat="45.69804" lon="6.61926">
        <ele>1167</ele>
        <time>2021-06-01T10:43:36Z</time>
      </trkpt>
      <trkpt lat="45.69801" lon="6.61922">
        <ele>1166.8</ele>
        <time>2021-06-01T10:43:37Z</time>
      </trkpt>
      <trkpt lat="45.69799" lon="6.61918">
        <ele>1166.8</ele>
        <time>2021-06-01T10:43:38Z</time>
      </trkpt>
      <trkpt lat="45.69797" lon="6.61915">
        <ele>1166.8</ele>
        <time>2021-06-01T10:43:39Z</time>
      </trkpt>
      <trkpt lat="45.69795" lon="6.61911">
        <ele>1166.6</ele>
        <time>2021-06-01T10:43:40Z</time>
      </trkpt>
      <trkpt lat="45.69792" lon="6.61908">
        <ele>1166.4</ele>
        <time>2021-06-01T10:43:41Z</time>
      </trkpt>
      <trkpt lat="45.69789" lon="6.61904">
        <ele>1166.6</ele>
        <time>2021-06-01T10:43:42Z</time>
      </trkpt>
      <trkpt lat="45.69787" lon="6.619">
        <ele>1166.6</ele>
        <time>2021-06-01T10:43:43Z</time>
      </trkpt>
      <trkpt lat="45.69784" lon="6.61897">
        <ele>1166.6</ele>
        <time>2021-06-01T10:43:44Z</time>
      </trkpt>
      <trkpt lat="45.69782" lon="6.61893">
        <ele>1166.6</ele>
        <time>2021-06-01T10:43:45Z</time>
      </trkpt>
      <trkpt lat="45.6978" lon="6.61889">
        <ele>1166.6</ele>
        <time>2021-06-01T10:43:46Z</time>
      </trkpt>
      <trkpt lat="45.69779" lon="6.61884">
        <ele>1166.4</ele>
        <time>2021-06-01T10:43:47Z</time>
      </trkpt>
      <trkpt lat="45.69776" lon="6.6188">
        <ele>1166.4</ele>
        <time>2021-06-01T10:43:48Z</time>
      </trkpt>
      <trkpt lat="45.69774" lon="6.61876">
        <ele>1166.4</ele>
        <time>2021-06-01T10:43:49Z</time>
      </trkpt>
      <trkpt lat="45.69772" lon="6.61872">
        <ele>1166.4</ele>
        <time>2021-06-01T10:43:50Z</time>
      </trkpt>
      <trkpt lat="45.69771" lon="6.6187">
        <ele>1166.4</ele>
        <time>2021-06-01T10:43:51Z</time>
      </trkpt>
      <trkpt lat="45.69769" lon="6.61866">
        <ele>1166.6</ele>
        <time>2021-06-01T10:43:52Z</time>
      </trkpt>
      <trkpt lat="45.69769" lon="6.61862">
        <ele>1166.8</ele>
        <time>2021-06-01T10:43:53Z</time>
      </trkpt>
      <trkpt lat="45.69768" lon="6.61858">
        <ele>1167</ele>
        <time>2021-06-01T10:43:54Z</time>
      </trkpt>
      <trkpt lat="45.69767" lon="6.61853">
        <ele>1167.4</ele>
        <time>2021-06-01T10:43:55Z</time>
      </trkpt>
      <trkpt lat="45.69765" lon="6.61848">
        <ele>1167.8</ele>
        <time>2021-06-01T10:43:56Z</time>
      </trkpt>
      <trkpt lat="45.69764" lon="6.61843">
        <ele>1168.2</ele>
        <time>2021-06-01T10:43:57Z</time>
      </trkpt>
      <trkpt lat="45.69763" lon="6.61839">
        <ele>1168.6</ele>
        <time>2021-06-01T10:43:58Z</time>
      </trkpt>
      <trkpt lat="45.69762" lon="6.61835">
        <ele>1168.8</ele>
        <time>2021-06-01T10:43:59Z</time>
      </trkpt>
      <trkpt lat="45.69762" lon="6.61831">
        <ele>1168.6</ele>
        <time>2021-06-01T10:44:00Z</time>
      </trkpt>
      <trkpt lat="45.69761" lon="6.61827">
        <ele>1169</ele>
        <time>2021-06-01T10:44:01Z</time>
      </trkpt>
      <trkpt lat="45.69759" lon="6.61824">
        <ele>1169</ele>
        <time>2021-06-01T10:44:02Z</time>
      </trkpt>
      <trkpt lat="45.69757" lon="6.6182">
        <ele>1169.2</ele>
        <time>2021-06-01T10:44:03Z</time>
      </trkpt>
      <trkpt lat="45.69756" lon="6.61816">
        <ele>1169</ele>
        <time>2021-06-01T10:44:04Z</time>
      </trkpt>
      <trkpt lat="45.69755" lon="6.61813">
        <ele>1168.8</ele>
        <time>2021-06-01T10:44:05Z</time>
      </trkpt>
      <trkpt lat="45.69754" lon="6.61809">
        <ele>1168.6</ele>
        <time>2021-06-01T10:44:06Z</time>
      </trkpt>
      <trkpt lat="45.69752" lon="6.61805">
        <ele>1168.6</ele>
        <time>2021-06-01T10:44:07Z</time>
      </trkpt>
      <trkpt lat="45.6975" lon="6.618">
        <ele>1168.6</ele>
        <time>2021-06-01T10:44:08Z</time>
      </trkpt>
      <trkpt lat="45.69749" lon="6.61795">
        <ele>1168.4</ele>
        <time>2021-06-01T10:44:09Z</time>
      </trkpt>
      <trkpt lat="45.69746" lon="6.6179">
        <ele>1168.4</ele>
        <time>2021-06-01T10:44:10Z</time>
      </trkpt>
      <trkpt lat="45.69744" lon="6.61785">
        <ele>1168.4</ele>
        <time>2021-06-01T10:44:11Z</time>
      </trkpt>
      <trkpt lat="45.69741" lon="6.61781">
        <ele>1168.2</ele>
        <time>2021-06-01T10:44:12Z</time>
      </trkpt>
      <trkpt lat="45.69739" lon="6.61777">
        <ele>1168.4</ele>
        <time>2021-06-01T10:44:13Z</time>
      </trkpt>
      <trkpt lat="45.69737" lon="6.61773">
        <ele>1168.4</ele>
        <time>2021-06-01T10:44:14Z</time>
      </trkpt>
      <trkpt lat="45.69734" lon="6.61768">
        <ele>1168.4</ele>
        <time>2021-06-01T10:44:15Z</time>
      </trkpt>
      <trkpt lat="45.69732" lon="6.61764">
        <ele>1168.4</ele>
        <time>2021-06-01T10:44:16Z</time>
      </trkpt>
      <trkpt lat="45.69729" lon="6.6176">
        <ele>1168.6</ele>
        <time>2021-06-01T10:44:17Z</time>
      </trkpt>
      <trkpt lat="45.69726" lon="6.61755">
        <ele>1168.8</ele>
        <time>2021-06-01T10:44:18Z</time>
      </trkpt>
      <trkpt lat="45.69724" lon="6.6175">
        <ele>1168.8</ele>
        <time>2021-06-01T10:44:19Z</time>
      </trkpt>
      <trkpt lat="45.69721" lon="6.61745">
        <ele>1168.8</ele>
        <time>2021-06-01T10:44:20Z</time>
      </trkpt>
      <trkpt lat="45.69717" lon="6.61741">
        <ele>1169</ele>
        <time>2021-06-01T10:44:21Z</time>
      </trkpt>
      <trkpt lat="45.69714" lon="6.61736">
        <ele>1169.2</ele>
        <time>2021-06-01T10:44:22Z</time>
      </trkpt>
      <trkpt lat="45.69712" lon="6.6173">
        <ele>1169.2</ele>
        <time>2021-06-01T10:44:23Z</time>
      </trkpt>
      <trkpt lat="45.6971" lon="6.61724">
        <ele>1169.2</ele>
        <time>2021-06-01T10:44:24Z</time>
      </trkpt>
      <trkpt lat="45.69708" lon="6.61719">
        <ele>1169.2</ele>
        <time>2021-06-01T10:44:25Z</time>
      </trkpt>
      <trkpt lat="45.69706" lon="6.61714">
        <ele>1169.4</ele>
        <time>2021-06-01T10:44:26Z</time>
      </trkpt>
      <trkpt lat="45.69705" lon="6.61709">
        <ele>1169.4</ele>
        <time>2021-06-01T10:44:27Z</time>
      </trkpt>
      <trkpt lat="45.69704" lon="6.61704">
        <ele>1169.6</ele>
        <time>2021-06-01T10:44:28Z</time>
      </trkpt>
      <trkpt lat="45.69702" lon="6.61699">
        <ele>1169.4</ele>
        <time>2021-06-01T10:44:29Z</time>
      </trkpt>
      <trkpt lat="45.697" lon="6.61694">
        <ele>1169.4</ele>
        <time>2021-06-01T10:44:30Z</time>
      </trkpt>
      <trkpt lat="45.69698" lon="6.6169">
        <ele>1169.4</ele>
        <time>2021-06-01T10:44:31Z</time>
      </trkpt>
      <trkpt lat="45.69696" lon="6.61685">
        <ele>1169.4</ele>
        <time>2021-06-01T10:44:32Z</time>
      </trkpt>
      <trkpt lat="45.69694" lon="6.61681">
        <ele>1169.2</ele>
        <time>2021-06-01T10:44:33Z</time>
      </trkpt>
      <trkpt lat="45.69692" lon="6.61678">
        <ele>1169.2</ele>
        <time>2021-06-01T10:44:34Z</time>
      </trkpt>
      <trkpt lat="45.69688" lon="6.61676">
        <ele>1169.6</ele>
        <time>2021-06-01T10:44:35Z</time>
      </trkpt>
      <trkpt lat="45.69685" lon="6.61676">
        <ele>1170.2</ele>
        <time>2021-06-01T10:44:36Z</time>
      </trkpt>
      <trkpt lat="45.69682" lon="6.61676">
        <ele>1171.2</ele>
        <time>2021-06-01T10:44:37Z</time>
      </trkpt>
      <trkpt lat="45.6968" lon="6.6168">
        <ele>1173.6</ele>
        <time>2021-06-01T10:44:39Z</time>
      </trkpt>
      <trkpt lat="45.69679" lon="6.61684">
        <ele>1174.4</ele>
        <time>2021-06-01T10:44:40Z</time>
      </trkpt>
      <trkpt lat="45.69679" lon="6.61688">
        <ele>1175.2</ele>
        <time>2021-06-01T10:44:41Z</time>
      </trkpt>
      <trkpt lat="45.69678" lon="6.61693">
        <ele>1175.6</ele>
        <time>2021-06-01T10:44:42Z</time>
      </trkpt>
      <trkpt lat="45.69679" lon="6.61697">
        <ele>1176.2</ele>
        <time>2021-06-01T10:44:43Z</time>
      </trkpt>
      <trkpt lat="45.69678" lon="6.61701">
        <ele>1176.6</ele>
        <time>2021-06-01T10:44:44Z</time>
      </trkpt>
      <trkpt lat="45.69678" lon="6.61706">
        <ele>1177</ele>
        <time>2021-06-01T10:44:45Z</time>
      </trkpt>
      <trkpt lat="45.69678" lon="6.6171">
        <ele>1177.2</ele>
        <time>2021-06-01T10:44:46Z</time>
      </trkpt>
      <trkpt lat="45.69678" lon="6.61715">
        <ele>1177.4</ele>
        <time>2021-06-01T10:44:47Z</time>
      </trkpt>
      <trkpt lat="45.69678" lon="6.61719">
        <ele>1177.8</ele>
        <time>2021-06-01T10:44:48Z</time>
      </trkpt>
      <trkpt lat="45.69678" lon="6.61723">
        <ele>1178</ele>
        <time>2021-06-01T10:44:49Z</time>
      </trkpt>
      <trkpt lat="45.69678" lon="6.61727">
        <ele>1178</ele>
        <time>2021-06-01T10:44:50Z</time>
      </trkpt>
      <trkpt lat="45.69678" lon="6.61731">
        <ele>1178.2</ele>
        <time>2021-06-01T10:44:51Z</time>
      </trkpt>
      <trkpt lat="45.6968" lon="6.61735">
        <ele>1178</ele>
        <time>2021-06-01T10:44:52Z</time>
      </trkpt>
      <trkpt lat="45.69681" lon="6.61739">
        <ele>1177.8</ele>
        <time>2021-06-01T10:44:53Z</time>
      </trkpt>
      <trkpt lat="45.69682" lon="6.61743">
        <ele>1177.6</ele>
        <time>2021-06-01T10:44:54Z</time>
      </trkpt>
      <trkpt lat="45.69684" lon="6.61748">
        <ele>1177.4</ele>
        <time>2021-06-01T10:44:55Z</time>
      </trkpt>
      <trkpt lat="45.69685" lon="6.61752">
        <ele>1177.4</ele>
        <time>2021-06-01T10:44:56Z</time>
      </trkpt>
      <trkpt lat="45.69686" lon="6.61757">
        <ele>1177.4</ele>
        <time>2021-06-01T10:44:57Z</time>
      </trkpt>
      <trkpt lat="45.69688" lon="6.61762">
        <ele>1177.8</ele>
        <time>2021-06-01T10:44:58Z</time>
      </trkpt>
      <trkpt lat="45.6969" lon="6.61766">
        <ele>1177.8</ele>
        <time>2021-06-01T10:44:59Z</time>
      </trkpt>
      <trkpt lat="45.69692" lon="6.61771">
        <ele>1178</ele>
        <time>2021-06-01T10:45:00Z</time>
      </trkpt>
      <trkpt lat="45.69693" lon="6.61776">
        <ele>1178</ele>
        <time>2021-06-01T10:45:01Z</time>
      </trkpt>
      <trkpt lat="45.69695" lon="6.6178">
        <ele>1178</ele>
        <time>2021-06-01T10:45:02Z</time>
      </trkpt>
      <trkpt lat="45.69696" lon="6.61785">
        <ele>1178.2</ele>
        <time>2021-06-01T10:45:03Z</time>
      </trkpt>
      <trkpt lat="45.69698" lon="6.61789">
        <ele>1178.4</ele>
        <time>2021-06-01T10:45:04Z</time>
      </trkpt>
      <trkpt lat="45.697" lon="6.61793">
        <ele>1178.6</ele>
        <time>2021-06-01T10:45:05Z</time>
      </trkpt>
      <trkpt lat="45.69702" lon="6.61797">
        <ele>1178.8</ele>
        <time>2021-06-01T10:45:06Z</time>
      </trkpt>
      <trkpt lat="45.69704" lon="6.61801">
        <ele>1179</ele>
        <time>2021-06-01T10:45:07Z</time>
      </trkpt>
      <trkpt lat="45.69706" lon="6.61805">
        <ele>1179.2</ele>
        <time>2021-06-01T10:45:08Z</time>
      </trkpt>
      <trkpt lat="45.69707" lon="6.6181">
        <ele>1179.4</ele>
        <time>2021-06-01T10:45:09Z</time>
      </trkpt>
      <trkpt lat="45.69709" lon="6.61814">
        <ele>1179.4</ele>
        <time>2021-06-01T10:45:10Z</time>
      </trkpt>
      <trkpt lat="45.69711" lon="6.61818">
        <ele>1179.8</ele>
        <time>2021-06-01T10:45:11Z</time>
      </trkpt>
      <trkpt lat="45.69713" lon="6.61823">
        <ele>1180.2</ele>
        <time>2021-06-01T10:45:12Z</time>
      </trkpt>
      <trkpt lat="45.69715" lon="6.61826">
        <ele>1180.8</ele>
        <time>2021-06-01T10:45:13Z</time>
      </trkpt>
      <trkpt lat="45.69717" lon="6.61831">
        <ele>1181.6</ele>
        <time>2021-06-01T10:45:14Z</time>
      </trkpt>
      <trkpt lat="45.69718" lon="6.61835">
        <ele>1182.4</ele>
        <time>2021-06-01T10:45:15Z</time>
      </trkpt>
      <trkpt lat="45.6972" lon="6.61839">
        <ele>1183.2</ele>
        <time>2021-06-01T10:45:16Z</time>
      </trkpt>
      <trkpt lat="45.69722" lon="6.61844">
        <ele>1184.4</ele>
        <time>2021-06-01T10:45:17Z</time>
      </trkpt>
      <trkpt lat="45.69722" lon="6.61849">
        <ele>1185.6</ele>
        <time>2021-06-01T10:45:18Z</time>
      </trkpt>
      <trkpt lat="45.69722" lon="6.61855">
        <ele>1187</ele>
        <time>2021-06-01T10:45:19Z</time>
      </trkpt>
      <trkpt lat="45.69723" lon="6.61861">
        <ele>1188.4</ele>
        <time>2021-06-01T10:45:20Z</time>
      </trkpt>
      <trkpt lat="45.69724" lon="6.61866">
        <ele>1189.8</ele>
        <time>2021-06-01T10:45:21Z</time>
      </trkpt>
      <trkpt lat="45.69724" lon="6.61871">
        <ele>1191.2</ele>
        <time>2021-06-01T10:45:22Z</time>
      </trkpt>
      <trkpt lat="45.69725" lon="6.61876">
        <ele>1192.6</ele>
        <time>2021-06-01T10:45:23Z</time>
      </trkpt>
      <trkpt lat="45.69726" lon="6.61881">
        <ele>1194</ele>
        <time>2021-06-01T10:45:24Z</time>
      </trkpt>
      <trkpt lat="45.69727" lon="6.61886">
        <ele>1195.2</ele>
        <time>2021-06-01T10:45:25Z</time>
      </trkpt>
      <trkpt lat="45.69728" lon="6.6189">
        <ele>1196.6</ele>
        <time>2021-06-01T10:45:26Z</time>
      </trkpt>
      <trkpt lat="45.6973" lon="6.61895">
        <ele>1197.6</ele>
        <time>2021-06-01T10:45:27Z</time>
      </trkpt>
      <trkpt lat="45.69731" lon="6.61899">
        <ele>1198.8</ele>
        <time>2021-06-01T10:45:28Z</time>
      </trkpt>
      <trkpt lat="45.69733" lon="6.61903">
        <ele>1199.6</ele>
        <time>2021-06-01T10:45:29Z</time>
      </trkpt>
      <trkpt lat="45.69735" lon="6.61907">
        <ele>1200.6</ele>
        <time>2021-06-01T10:45:30Z</time>
      </trkpt>
      <trkpt lat="45.69737" lon="6.61911">
        <ele>1201.8</ele>
        <time>2021-06-01T10:45:31Z</time>
      </trkpt>
      <trkpt lat="45.69738" lon="6.61915">
        <ele>1202.6</ele>
        <time>2021-06-01T10:45:32Z</time>
      </trkpt>
      <trkpt lat="45.6974" lon="6.61918">
        <ele>1203.4</ele>
        <time>2021-06-01T10:45:33Z</time>
      </trkpt>
      <trkpt lat="45.69742" lon="6.61922">
        <ele>1204.2</ele>
        <time>2021-06-01T10:45:34Z</time>
      </trkpt>
      <trkpt lat="45.69744" lon="6.61926">
        <ele>1205</ele>
        <time>2021-06-01T10:45:35Z</time>
      </trkpt>
      <trkpt lat="45.69746" lon="6.6193">
        <ele>1206</ele>
        <time>2021-06-01T10:45:36Z</time>
      </trkpt>
      <trkpt lat="45.69747" lon="6.61934">
        <ele>1206.6</ele>
        <time>2021-06-01T10:45:37Z</time>
      </trkpt>
      <trkpt lat="45.69748" lon="6.61937">
        <ele>1207.4</ele>
        <time>2021-06-01T10:45:38Z</time>
      </trkpt>
      <trkpt lat="45.6975" lon="6.61941">
        <ele>1208</ele>
        <time>2021-06-01T10:45:39Z</time>
      </trkpt>
      <trkpt lat="45.69752" lon="6.61944">
        <ele>1208.6</ele>
        <time>2021-06-01T10:45:40Z</time>
      </trkpt>
      <trkpt lat="45.69753" lon="6.61947">
        <ele>1209.4</ele>
        <time>2021-06-01T10:45:41Z</time>
      </trkpt>
      <trkpt lat="45.69755" lon="6.61951">
        <ele>1210.2</ele>
        <time>2021-06-01T10:45:42Z</time>
      </trkpt>
      <trkpt lat="45.69756" lon="6.61955">
        <ele>1211</ele>
        <time>2021-06-01T10:45:43Z</time>
      </trkpt>
      <trkpt lat="45.69758" lon="6.61959">
        <ele>1211.8</ele>
        <time>2021-06-01T10:45:44Z</time>
      </trkpt>
      <trkpt lat="45.69759" lon="6.61963">
        <ele>1212.8</ele>
        <time>2021-06-01T10:45:45Z</time>
      </trkpt>
      <trkpt lat="45.69761" lon="6.61966">
        <ele>1213.6</ele>
        <time>2021-06-01T10:45:46Z</time>
      </trkpt>
      <trkpt lat="45.69761" lon="6.6197">
        <ele>1214.4</ele>
        <time>2021-06-01T10:45:47Z</time>
      </trkpt>
      <trkpt lat="45.69761" lon="6.61974">
        <ele>1214.8</ele>
        <time>2021-06-01T10:45:48Z</time>
      </trkpt>
      <trkpt lat="45.69761" lon="6.61977">
        <ele>1215.4</ele>
        <time>2021-06-01T10:45:49Z</time>
      </trkpt>
      <trkpt lat="45.69762" lon="6.61981">
        <ele>1216</ele>
        <time>2021-06-01T10:45:50Z</time>
      </trkpt>
      <trkpt lat="45.69763" lon="6.61985">
        <ele>1216.8</ele>
        <time>2021-06-01T10:45:51Z</time>
      </trkpt>
      <trkpt lat="45.69764" lon="6.6199">
        <ele>1217.4</ele>
        <time>2021-06-01T10:45:52Z</time>
      </trkpt>
      <trkpt lat="45.69767" lon="6.61994">
        <ele>1218</ele>
        <time>2021-06-01T10:45:53Z</time>
      </trkpt>
      <trkpt lat="45.69769" lon="6.61998">
        <ele>1218.6</ele>
        <time>2021-06-01T10:45:54Z</time>
      </trkpt>
      <trkpt lat="45.69771" lon="6.62002">
        <ele>1219.2</ele>
        <time>2021-06-01T10:45:55Z</time>
      </trkpt>
      <trkpt lat="45.69772" lon="6.62007">
        <ele>1219.8</ele>
        <time>2021-06-01T10:45:56Z</time>
      </trkpt>
      <trkpt lat="45.69773" lon="6.62012">
        <ele>1220</ele>
        <time>2021-06-01T10:45:57Z</time>
      </trkpt>
      <trkpt lat="45.69775" lon="6.62016">
        <ele>1220.2</ele>
        <time>2021-06-01T10:45:58Z</time>
      </trkpt>
      <trkpt lat="45.69777" lon="6.62019">
        <ele>1220.6</ele>
        <time>2021-06-01T10:45:59Z</time>
      </trkpt>
      <trkpt lat="45.69779" lon="6.62023">
        <ele>1221</ele>
        <time>2021-06-01T10:46:00Z</time>
      </trkpt>
      <trkpt lat="45.69781" lon="6.62028">
        <ele>1221</ele>
        <time>2021-06-01T10:46:01Z</time>
      </trkpt>
      <trkpt lat="45.69783" lon="6.62032">
        <ele>1221.2</ele>
        <time>2021-06-01T10:46:02Z</time>
      </trkpt>
      <trkpt lat="45.69784" lon="6.62036">
        <ele>1221.2</ele>
        <time>2021-06-01T10:46:03Z</time>
      </trkpt>
      <trkpt lat="45.69787" lon="6.6204">
        <ele>1221.4</ele>
        <time>2021-06-01T10:46:04Z</time>
      </trkpt>
      <trkpt lat="45.69789" lon="6.62044">
        <ele>1221.6</ele>
        <time>2021-06-01T10:46:05Z</time>
      </trkpt>
      <trkpt lat="45.69791" lon="6.62048">
        <ele>1222</ele>
        <time>2021-06-01T10:46:06Z</time>
      </trkpt>
      <trkpt lat="45.69793" lon="6.62051">
        <ele>1222.6</ele>
        <time>2021-06-01T10:46:07Z</time>
      </trkpt>
      <trkpt lat="45.69795" lon="6.62054">
        <ele>1223.2</ele>
        <time>2021-06-01T10:46:08Z</time>
      </trkpt>
      <trkpt lat="45.69797" lon="6.62057">
        <ele>1223.8</ele>
        <time>2021-06-01T10:46:09Z</time>
      </trkpt>
      <trkpt lat="45.69801" lon="6.6206">
        <ele>1224.4</ele>
        <time>2021-06-01T10:46:10Z</time>
      </trkpt>
      <trkpt lat="45.69803" lon="6.62064">
        <ele>1224.8</ele>
        <time>2021-06-01T10:46:11Z</time>
      </trkpt>
      <trkpt lat="45.69806" lon="6.62068">
        <ele>1225.4</ele>
        <time>2021-06-01T10:46:12Z</time>
      </trkpt>
      <trkpt lat="45.69809" lon="6.62071">
        <ele>1226</ele>
        <time>2021-06-01T10:46:13Z</time>
      </trkpt>
      <trkpt lat="45.69812" lon="6.62073">
        <ele>1226.6</ele>
        <time>2021-06-01T10:46:14Z</time>
      </trkpt>
      <trkpt lat="45.69814" lon="6.62075">
        <ele>1227</ele>
        <time>2021-06-01T10:46:15Z</time>
      </trkpt>
      <trkpt lat="45.69816" lon="6.62078">
        <ele>1227.4</ele>
        <time>2021-06-01T10:46:16Z</time>
      </trkpt>
      <trkpt lat="45.69819" lon="6.6208">
        <ele>1228</ele>
        <time>2021-06-01T10:46:17Z</time>
      </trkpt>
      <trkpt lat="45.69822" lon="6.62083">
        <ele>1228.2</ele>
        <time>2021-06-01T10:46:18Z</time>
      </trkpt>
      <trkpt lat="45.69825" lon="6.62086">
        <ele>1228.6</ele>
        <time>2021-06-01T10:46:19Z</time>
      </trkpt>
      <trkpt lat="45.69828" lon="6.62089">
        <ele>1229</ele>
        <time>2021-06-01T10:46:20Z</time>
      </trkpt>
      <trkpt lat="45.69832" lon="6.62092">
        <ele>1229.4</ele>
        <time>2021-06-01T10:46:21Z</time>
      </trkpt>
      <trkpt lat="45.69835" lon="6.62095">
        <ele>1230</ele>
        <time>2021-06-01T10:46:22Z</time>
      </trkpt>
      <trkpt lat="45.69837" lon="6.621">
        <ele>1230.6</ele>
        <time>2021-06-01T10:46:23Z</time>
      </trkpt>
      <trkpt lat="45.6984" lon="6.62104">
        <ele>1231</ele>
        <time>2021-06-01T10:46:24Z</time>
      </trkpt>
      <trkpt lat="45.69841" lon="6.62109">
        <ele>1231.4</ele>
        <time>2021-06-01T10:46:25Z</time>
      </trkpt>
      <trkpt lat="45.69843" lon="6.62113">
        <ele>1231.8</ele>
        <time>2021-06-01T10:46:26Z</time>
      </trkpt>
      <trkpt lat="45.69843" lon="6.62118">
        <ele>1232.2</ele>
        <time>2021-06-01T10:46:27Z</time>
      </trkpt>
      <trkpt lat="45.69843" lon="6.62124">
        <ele>1232.6</ele>
        <time>2021-06-01T10:46:28Z</time>
      </trkpt>
      <trkpt lat="45.69842" lon="6.6213">
        <ele>1233</ele>
        <time>2021-06-01T10:46:29Z</time>
      </trkpt>
      <trkpt lat="45.69841" lon="6.62136">
        <ele>1233.2</ele>
        <time>2021-06-01T10:46:30Z</time>
      </trkpt>
      <trkpt lat="45.6984" lon="6.62142">
        <ele>1233.4</ele>
        <time>2021-06-01T10:46:31Z</time>
      </trkpt>
      <trkpt lat="45.69839" lon="6.62148">
        <ele>1233.8</ele>
        <time>2021-06-01T10:46:32Z</time>
      </trkpt>
      <trkpt lat="45.69839" lon="6.62154">
        <ele>1234.4</ele>
        <time>2021-06-01T10:46:33Z</time>
      </trkpt>
      <trkpt lat="45.69839" lon="6.62159">
        <ele>1234.6</ele>
        <time>2021-06-01T10:46:34Z</time>
      </trkpt>
      <trkpt lat="45.69839" lon="6.62165">
        <ele>1234.8</ele>
        <time>2021-06-01T10:46:35Z</time>
      </trkpt>
      <trkpt lat="45.69839" lon="6.62171">
        <ele>1234.4</ele>
        <time>2021-06-01T10:46:36Z</time>
      </trkpt>
      <trkpt lat="45.69841" lon="6.62176">
        <ele>1234</ele>
        <time>2021-06-01T10:46:37Z</time>
      </trkpt>
      <trkpt lat="45.69841" lon="6.62182">
        <ele>1234</ele>
        <time>2021-06-01T10:46:38Z</time>
      </trkpt>
      <trkpt lat="45.69841" lon="6.62187">
        <ele>1234</ele>
        <time>2021-06-01T10:46:39Z</time>
      </trkpt>
      <trkpt lat="45.69843" lon="6.62192">
        <ele>1234</ele>
        <time>2021-06-01T10:46:40Z</time>
      </trkpt>
      <trkpt lat="45.69844" lon="6.62198">
        <ele>1234.2</ele>
        <time>2021-06-01T10:46:41Z</time>
      </trkpt>
      <trkpt lat="45.69846" lon="6.62203">
        <ele>1234.4</ele>
        <time>2021-06-01T10:46:42Z</time>
      </trkpt>
      <trkpt lat="45.69848" lon="6.62208">
        <ele>1234.6</ele>
        <time>2021-06-01T10:46:43Z</time>
      </trkpt>
      <trkpt lat="45.6985" lon="6.62213">
        <ele>1235</ele>
        <time>2021-06-01T10:46:44Z</time>
      </trkpt>
      <trkpt lat="45.69851" lon="6.62218">
        <ele>1235</ele>
        <time>2021-06-01T10:46:45Z</time>
      </trkpt>
      <trkpt lat="45.69853" lon="6.62222">
        <ele>1235.2</ele>
        <time>2021-06-01T10:46:46Z</time>
      </trkpt>
      <trkpt lat="45.69855" lon="6.62227">
        <ele>1235.2</ele>
        <time>2021-06-01T10:46:47Z</time>
      </trkpt>
      <trkpt lat="45.69859" lon="6.62232">
        <ele>1235.4</ele>
        <time>2021-06-01T10:46:48Z</time>
      </trkpt>
      <trkpt lat="45.69863" lon="6.62236">
        <ele>1235.2</ele>
        <time>2021-06-01T10:46:49Z</time>
      </trkpt>
      <trkpt lat="45.69865" lon="6.62241">
        <ele>1234.6</ele>
        <time>2021-06-01T10:46:50Z</time>
      </trkpt>
      <trkpt lat="45.69867" lon="6.62246">
        <ele>1234.4</ele>
        <time>2021-06-01T10:46:51Z</time>
      </trkpt>
      <trkpt lat="45.69868" lon="6.62251">
        <ele>1234.2</ele>
        <time>2021-06-01T10:46:52Z</time>
      </trkpt>
      <trkpt lat="45.69869" lon="6.62256">
        <ele>1233.8</ele>
        <time>2021-06-01T10:46:53Z</time>
      </trkpt>
      <trkpt lat="45.6987" lon="6.6226">
        <ele>1233.6</ele>
        <time>2021-06-01T10:46:54Z</time>
      </trkpt>
      <trkpt lat="45.69872" lon="6.62265">
        <ele>1233.2</ele>
        <time>2021-06-01T10:46:55Z</time>
      </trkpt>
      <trkpt lat="45.69872" lon="6.6227">
        <ele>1232.8</ele>
        <time>2021-06-01T10:46:56Z</time>
      </trkpt>
      <trkpt lat="45.69873" lon="6.62275">
        <ele>1232.6</ele>
        <time>2021-06-01T10:46:57Z</time>
      </trkpt>
      <trkpt lat="45.69875" lon="6.6228">
        <ele>1232.6</ele>
        <time>2021-06-01T10:46:58Z</time>
      </trkpt>
      <trkpt lat="45.69877" lon="6.62285">
        <ele>1232.4</ele>
        <time>2021-06-01T10:46:59Z</time>
      </trkpt>
      <trkpt lat="45.69879" lon="6.62289">
        <ele>1232.4</ele>
        <time>2021-06-01T10:47:00Z</time>
      </trkpt>
      <trkpt lat="45.69882" lon="6.62294">
        <ele>1232.4</ele>
        <time>2021-06-01T10:47:01Z</time>
      </trkpt>
      <trkpt lat="45.69884" lon="6.62299">
        <ele>1232.2</ele>
        <time>2021-06-01T10:47:02Z</time>
      </trkpt>
      <trkpt lat="45.69887" lon="6.62304">
        <ele>1232.2</ele>
        <time>2021-06-01T10:47:03Z</time>
      </trkpt>
      <trkpt lat="45.69889" lon="6.6231">
        <ele>1232.2</ele>
        <time>2021-06-01T10:47:04Z</time>
      </trkpt>
      <trkpt lat="45.6989" lon="6.62315">
        <ele>1232.2</ele>
        <time>2021-06-01T10:47:05Z</time>
      </trkpt>
      <trkpt lat="45.69891" lon="6.62319">
        <ele>1232.4</ele>
        <time>2021-06-01T10:47:06Z</time>
      </trkpt>
      <trkpt lat="45.69893" lon="6.62324">
        <ele>1232.2</ele>
        <time>2021-06-01T10:47:07Z</time>
      </trkpt>
      <trkpt lat="45.69896" lon="6.62329">
        <ele>1232.2</ele>
        <time>2021-06-01T10:47:08Z</time>
      </trkpt>
      <trkpt lat="45.69898" lon="6.62335">
        <ele>1232</ele>
        <time>2021-06-01T10:47:09Z</time>
      </trkpt>
      <trkpt lat="45.699" lon="6.6234">
        <ele>1231.8</ele>
        <time>2021-06-01T10:47:10Z</time>
      </trkpt>
      <trkpt lat="45.69902" lon="6.62345">
        <ele>1231.6</ele>
        <time>2021-06-01T10:47:11Z</time>
      </trkpt>
      <trkpt lat="45.69903" lon="6.62351">
        <ele>1231.6</ele>
        <time>2021-06-01T10:47:12Z</time>
      </trkpt>
      <trkpt lat="45.69904" lon="6.62356">
        <ele>1231.6</ele>
        <time>2021-06-01T10:47:13Z</time>
      </trkpt>
      <trkpt lat="45.69904" lon="6.62362">
        <ele>1231.8</ele>
        <time>2021-06-01T10:47:14Z</time>
      </trkpt>
      <trkpt lat="45.69905" lon="6.62368">
        <ele>1232</ele>
        <time>2021-06-01T10:47:15Z</time>
      </trkpt>
      <trkpt lat="45.69905" lon="6.62373">
        <ele>1232.6</ele>
        <time>2021-06-01T10:47:16Z</time>
      </trkpt>
      <trkpt lat="45.69906" lon="6.62379">
        <ele>1233</ele>
        <time>2021-06-01T10:47:17Z</time>
      </trkpt>
      <trkpt lat="45.69906" lon="6.62384">
        <ele>1233.6</ele>
        <time>2021-06-01T10:47:18Z</time>
      </trkpt>
      <trkpt lat="45.69905" lon="6.62389">
        <ele>1234</ele>
        <time>2021-06-01T10:47:19Z</time>
      </trkpt>
      <trkpt lat="45.69905" lon="6.62394">
        <ele>1234.4</ele>
        <time>2021-06-01T10:47:20Z</time>
      </trkpt>
      <trkpt lat="45.69905" lon="6.624">
        <ele>1234.8</ele>
        <time>2021-06-01T10:47:21Z</time>
      </trkpt>
      <trkpt lat="45.69905" lon="6.62405">
        <ele>1235</ele>
        <time>2021-06-01T10:47:22Z</time>
      </trkpt>
      <trkpt lat="45.69906" lon="6.62411">
        <ele>1235.2</ele>
        <time>2021-06-01T10:47:23Z</time>
      </trkpt>
      <trkpt lat="45.69908" lon="6.62416">
        <ele>1235.2</ele>
        <time>2021-06-01T10:47:24Z</time>
      </trkpt>
      <trkpt lat="45.69909" lon="6.62422">
        <ele>1235.2</ele>
        <time>2021-06-01T10:47:25Z</time>
      </trkpt>
      <trkpt lat="45.6991" lon="6.62428">
        <ele>1235.4</ele>
        <time>2021-06-01T10:47:26Z</time>
      </trkpt>
      <trkpt lat="45.6991" lon="6.62433">
        <ele>1235.8</ele>
        <time>2021-06-01T10:47:27Z</time>
      </trkpt>
      <trkpt lat="45.6991" lon="6.62438">
        <ele>1236.2</ele>
        <time>2021-06-01T10:47:28Z</time>
      </trkpt>
      <trkpt lat="45.69912" lon="6.62444">
        <ele>1236.6</ele>
        <time>2021-06-01T10:47:29Z</time>
      </trkpt>
      <trkpt lat="45.69915" lon="6.62449">
        <ele>1237</ele>
        <time>2021-06-01T10:47:30Z</time>
      </trkpt>
      <trkpt lat="45.69917" lon="6.62454">
        <ele>1237.6</ele>
        <time>2021-06-01T10:47:31Z</time>
      </trkpt>
      <trkpt lat="45.69919" lon="6.62459">
        <ele>1238.2</ele>
        <time>2021-06-01T10:47:32Z</time>
      </trkpt>
      <trkpt lat="45.69921" lon="6.62465">
        <ele>1238.8</ele>
        <time>2021-06-01T10:47:33Z</time>
      </trkpt>
      <trkpt lat="45.69921" lon="6.6247">
        <ele>1239.4</ele>
        <time>2021-06-01T10:47:34Z</time>
      </trkpt>
      <trkpt lat="45.69922" lon="6.62475">
        <ele>1239.6</ele>
        <time>2021-06-01T10:47:35Z</time>
      </trkpt>
      <trkpt lat="45.69923" lon="6.6248">
        <ele>1240</ele>
        <time>2021-06-01T10:47:36Z</time>
      </trkpt>
      <trkpt lat="45.69925" lon="6.62485">
        <ele>1240.4</ele>
        <time>2021-06-01T10:47:37Z</time>
      </trkpt>
      <trkpt lat="45.69926" lon="6.6249">
        <ele>1240.8</ele>
        <time>2021-06-01T10:47:38Z</time>
      </trkpt>
      <trkpt lat="45.69928" lon="6.62496">
        <ele>1241.2</ele>
        <time>2021-06-01T10:47:39Z</time>
      </trkpt>
      <trkpt lat="45.69928" lon="6.62501">
        <ele>1241.6</ele>
        <time>2021-06-01T10:47:40Z</time>
      </trkpt>
      <trkpt lat="45.69929" lon="6.62506">
        <ele>1242</ele>
        <time>2021-06-01T10:47:41Z</time>
      </trkpt>
      <trkpt lat="45.69931" lon="6.62512">
        <ele>1242.4</ele>
        <time>2021-06-01T10:47:42Z</time>
      </trkpt>
      <trkpt lat="45.69932" lon="6.62517">
        <ele>1242.8</ele>
        <time>2021-06-01T10:47:43Z</time>
      </trkpt>
      <trkpt lat="45.69933" lon="6.62522">
        <ele>1242.8</ele>
        <time>2021-06-01T10:47:44Z</time>
      </trkpt>
      <trkpt lat="45.69935" lon="6.62527">
        <ele>1243</ele>
        <time>2021-06-01T10:47:45Z</time>
      </trkpt>
      <trkpt lat="45.69936" lon="6.62532">
        <ele>1243.2</ele>
        <time>2021-06-01T10:47:46Z</time>
      </trkpt>
      <trkpt lat="45.69937" lon="6.62537">
        <ele>1243.4</ele>
        <time>2021-06-01T10:47:47Z</time>
      </trkpt>
      <trkpt lat="45.69939" lon="6.62542">
        <ele>1243.6</ele>
        <time>2021-06-01T10:47:48Z</time>
      </trkpt>
      <trkpt lat="45.6994" lon="6.62547">
        <ele>1244</ele>
        <time>2021-06-01T10:47:49Z</time>
      </trkpt>
      <trkpt lat="45.6994" lon="6.62553">
        <ele>1244.6</ele>
        <time>2021-06-01T10:47:50Z</time>
      </trkpt>
      <trkpt lat="45.6994" lon="6.62558">
        <ele>1244.8</ele>
        <time>2021-06-01T10:47:51Z</time>
      </trkpt>
      <trkpt lat="45.6994" lon="6.62564">
        <ele>1245.2</ele>
        <time>2021-06-01T10:47:52Z</time>
      </trkpt>
      <trkpt lat="45.69941" lon="6.62569">
        <ele>1245.4</ele>
        <time>2021-06-01T10:47:53Z</time>
      </trkpt>
      <trkpt lat="45.69941" lon="6.62574">
        <ele>1245.4</ele>
        <time>2021-06-01T10:47:54Z</time>
      </trkpt>
      <trkpt lat="45.69942" lon="6.62579">
        <ele>1245.4</ele>
        <time>2021-06-01T10:47:55Z</time>
      </trkpt>
      <trkpt lat="45.69942" lon="6.62584">
        <ele>1245.6</ele>
        <time>2021-06-01T10:47:56Z</time>
      </trkpt>
      <trkpt lat="45.69942" lon="6.6259">
        <ele>1245.4</ele>
        <time>2021-06-01T10:47:57Z</time>
      </trkpt>
      <trkpt lat="45.69942" lon="6.62595">
        <ele>1245.6</ele>
        <time>2021-06-01T10:47:58Z</time>
      </trkpt>
      <trkpt lat="45.69944" lon="6.62599">
        <ele>1245.6</ele>
        <time>2021-06-01T10:47:59Z</time>
      </trkpt>
      <trkpt lat="45.69944" lon="6.62604">
        <ele>1245.6</ele>
        <time>2021-06-01T10:48:00Z</time>
      </trkpt>
      <trkpt lat="45.69945" lon="6.62609">
        <ele>1245.4</ele>
        <time>2021-06-01T10:48:01Z</time>
      </trkpt>
      <trkpt lat="45.69947" lon="6.62614">
        <ele>1245.6</ele>
        <time>2021-06-01T10:48:02Z</time>
      </trkpt>
      <trkpt lat="45.69948" lon="6.62619">
        <ele>1245.8</ele>
        <time>2021-06-01T10:48:03Z</time>
      </trkpt>
      <trkpt lat="45.6995" lon="6.62623">
        <ele>1246.2</ele>
        <time>2021-06-01T10:48:04Z</time>
      </trkpt>
      <trkpt lat="45.69951" lon="6.62627">
        <ele>1246.8</ele>
        <time>2021-06-01T10:48:05Z</time>
      </trkpt>
      <trkpt lat="45.69952" lon="6.62631">
        <ele>1247.4</ele>
        <time>2021-06-01T10:48:06Z</time>
      </trkpt>
      <trkpt lat="45.69953" lon="6.62634">
        <ele>1248.2</ele>
        <time>2021-06-01T10:48:07Z</time>
      </trkpt>
      <trkpt lat="45.69956" lon="6.62638">
        <ele>1249</ele>
        <time>2021-06-01T10:48:09Z</time>
      </trkpt>
      <trkpt lat="45.69957" lon="6.6264">
        <ele>1249</ele>
        <time>2021-06-01T10:48:10Z</time>
      </trkpt>
      <trkpt lat="45.69958" lon="6.62642">
        <ele>1249.2</ele>
        <time>2021-06-01T10:48:11Z</time>
      </trkpt>
      <trkpt lat="45.6996" lon="6.62645">
        <ele>1249.2</ele>
        <time>2021-06-01T10:48:12Z</time>
      </trkpt>
      <trkpt lat="45.69962" lon="6.62647">
        <ele>1249.2</ele>
        <time>2021-06-01T10:48:13Z</time>
      </trkpt>
      <trkpt lat="45.69964" lon="6.62651">
        <ele>1249.2</ele>
        <time>2021-06-01T10:48:14Z</time>
      </trkpt>
      <trkpt lat="45.69968" lon="6.62654">
        <ele>1249</ele>
        <time>2021-06-01T10:48:15Z</time>
      </trkpt>
      <trkpt lat="45.69971" lon="6.62658">
        <ele>1249</ele>
        <time>2021-06-01T10:48:16Z</time>
      </trkpt>
      <trkpt lat="45.69974" lon="6.62661">
        <ele>1249.2</ele>
        <time>2021-06-01T10:48:17Z</time>
      </trkpt>
      <trkpt lat="45.69978" lon="6.62665">
        <ele>1249</ele>
        <time>2021-06-01T10:48:18Z</time>
      </trkpt>
      <trkpt lat="45.6998" lon="6.62668">
        <ele>1249.2</ele>
        <time>2021-06-01T10:48:19Z</time>
      </trkpt>
      <trkpt lat="45.69984" lon="6.62671">
        <ele>1249.8</ele>
        <time>2021-06-01T10:48:20Z</time>
      </trkpt>
      <trkpt lat="45.69987" lon="6.62674">
        <ele>1250.4</ele>
        <time>2021-06-01T10:48:21Z</time>
      </trkpt>
      <trkpt lat="45.6999" lon="6.62678">
        <ele>1251</ele>
        <time>2021-06-01T10:48:22Z</time>
      </trkpt>
      <trkpt lat="45.69993" lon="6.62681">
        <ele>1251.8</ele>
        <time>2021-06-01T10:48:23Z</time>
      </trkpt>
      <trkpt lat="45.69997" lon="6.62684">
        <ele>1252.4</ele>
        <time>2021-06-01T10:48:24Z</time>
      </trkpt>
      <trkpt lat="45.7" lon="6.62687">
        <ele>1253.2</ele>
        <time>2021-06-01T10:48:25Z</time>
      </trkpt>
      <trkpt lat="45.70003" lon="6.6269">
        <ele>1253.8</ele>
        <time>2021-06-01T10:48:26Z</time>
      </trkpt>
      <trkpt lat="45.70006" lon="6.62693">
        <ele>1254.6</ele>
        <time>2021-06-01T10:48:27Z</time>
      </trkpt>
      <trkpt lat="45.70009" lon="6.62696">
        <ele>1255.6</ele>
        <time>2021-06-01T10:48:28Z</time>
      </trkpt>
      <trkpt lat="45.70013" lon="6.62698">
        <ele>1256.2</ele>
        <time>2021-06-01T10:48:29Z</time>
      </trkpt>
      <trkpt lat="45.70015" lon="6.62699">
        <ele>1257</ele>
        <time>2021-06-01T10:48:30Z</time>
      </trkpt>
      <trkpt lat="45.70018" lon="6.62701">
        <ele>1257.6</ele>
        <time>2021-06-01T10:48:31Z</time>
      </trkpt>
      <trkpt lat="45.70021" lon="6.62703">
        <ele>1258</ele>
        <time>2021-06-01T10:48:32Z</time>
      </trkpt>
      <trkpt lat="45.70025" lon="6.62704">
        <ele>1258.6</ele>
        <time>2021-06-01T10:48:33Z</time>
      </trkpt>
      <trkpt lat="45.70028" lon="6.62706">
        <ele>1259.2</ele>
        <time>2021-06-01T10:48:34Z</time>
      </trkpt>
      <trkpt lat="45.70031" lon="6.62709">
        <ele>1259.8</ele>
        <time>2021-06-01T10:48:35Z</time>
      </trkpt>
      <trkpt lat="45.70034" lon="6.62711">
        <ele>1260.4</ele>
        <time>2021-06-01T10:48:36Z</time>
      </trkpt>
      <trkpt lat="45.70037" lon="6.62714">
        <ele>1261</ele>
        <time>2021-06-01T10:48:37Z</time>
      </trkpt>
      <trkpt lat="45.70041" lon="6.62716">
        <ele>1261.6</ele>
        <time>2021-06-01T10:48:38Z</time>
      </trkpt>
      <trkpt lat="45.70043" lon="6.62719">
        <ele>1261.8</ele>
        <time>2021-06-01T10:48:39Z</time>
      </trkpt>
      <trkpt lat="45.70046" lon="6.62722">
        <ele>1261.4</ele>
        <time>2021-06-01T10:48:40Z</time>
      </trkpt>
      <trkpt lat="45.70049" lon="6.62726">
        <ele>1260.8</ele>
        <time>2021-06-01T10:48:41Z</time>
      </trkpt>
      <trkpt lat="45.70051" lon="6.62731">
        <ele>1260.4</ele>
        <time>2021-06-01T10:48:42Z</time>
      </trkpt>
      <trkpt lat="45.70054" lon="6.62735">
        <ele>1259.6</ele>
        <time>2021-06-01T10:48:43Z</time>
      </trkpt>
      <trkpt lat="45.70057" lon="6.62739">
        <ele>1259.2</ele>
        <time>2021-06-01T10:48:44Z</time>
      </trkpt>
      <trkpt lat="45.7006" lon="6.62743">
        <ele>1258.6</ele>
        <time>2021-06-01T10:48:45Z</time>
      </trkpt>
      <trkpt lat="45.70062" lon="6.62747">
        <ele>1258.2</ele>
        <time>2021-06-01T10:48:46Z</time>
      </trkpt>
      <trkpt lat="45.70065" lon="6.62752">
        <ele>1257.8</ele>
        <time>2021-06-01T10:48:47Z</time>
      </trkpt>
      <trkpt lat="45.70068" lon="6.62757">
        <ele>1257.8</ele>
        <time>2021-06-01T10:48:48Z</time>
      </trkpt>
      <trkpt lat="45.7007" lon="6.62763">
        <ele>1257.8</ele>
        <time>2021-06-01T10:48:49Z</time>
      </trkpt>
      <trkpt lat="45.70073" lon="6.62769">
        <ele>1257.6</ele>
        <time>2021-06-01T10:48:50Z</time>
      </trkpt>
      <trkpt lat="45.70075" lon="6.62775">
        <ele>1257.6</ele>
        <time>2021-06-01T10:48:51Z</time>
      </trkpt>
      <trkpt lat="45.70077" lon="6.6278">
        <ele>1257.8</ele>
        <time>2021-06-01T10:48:52Z</time>
      </trkpt>
      <trkpt lat="45.7008" lon="6.62785">
        <ele>1257.8</ele>
        <time>2021-06-01T10:48:53Z</time>
      </trkpt>
      <trkpt lat="45.70082" lon="6.6279">
        <ele>1257.8</ele>
        <time>2021-06-01T10:48:54Z</time>
      </trkpt>
      <trkpt lat="45.70085" lon="6.62795">
        <ele>1257.8</ele>
        <time>2021-06-01T10:48:55Z</time>
      </trkpt>
      <trkpt lat="45.70087" lon="6.628">
        <ele>1257.8</ele>
        <time>2021-06-01T10:48:56Z</time>
      </trkpt>
      <trkpt lat="45.70089" lon="6.62805">
        <ele>1257.6</ele>
        <time>2021-06-01T10:48:57Z</time>
      </trkpt>
      <trkpt lat="45.70092" lon="6.62808">
        <ele>1257.4</ele>
        <time>2021-06-01T10:48:58Z</time>
      </trkpt>
      <trkpt lat="45.70095" lon="6.62812">
        <ele>1257.4</ele>
        <time>2021-06-01T10:48:59Z</time>
      </trkpt>
      <trkpt lat="45.70097" lon="6.62816">
        <ele>1257.4</ele>
        <time>2021-06-01T10:49:00Z</time>
      </trkpt>
      <trkpt lat="45.701" lon="6.62819">
        <ele>1257.4</ele>
        <time>2021-06-01T10:49:01Z</time>
      </trkpt>
      <trkpt lat="45.70102" lon="6.62822">
        <ele>1257.2</ele>
        <time>2021-06-01T10:49:02Z</time>
      </trkpt>
      <trkpt lat="45.70105" lon="6.62825">
        <ele>1257</ele>
        <time>2021-06-01T10:49:03Z</time>
      </trkpt>
      <trkpt lat="45.70109" lon="6.62827">
        <ele>1256.8</ele>
        <time>2021-06-01T10:49:04Z</time>
      </trkpt>
      <trkpt lat="45.70112" lon="6.62829">
        <ele>1256.8</ele>
        <time>2021-06-01T10:49:05Z</time>
      </trkpt>
      <trkpt lat="45.70116" lon="6.62831">
        <ele>1257</ele>
        <time>2021-06-01T10:49:06Z</time>
      </trkpt>
      <trkpt lat="45.7012" lon="6.62832">
        <ele>1256.8</ele>
        <time>2021-06-01T10:49:07Z</time>
      </trkpt>
      <trkpt lat="45.70124" lon="6.62834">
        <ele>1257</ele>
        <time>2021-06-01T10:49:08Z</time>
      </trkpt>
      <trkpt lat="45.70127" lon="6.62835">
        <ele>1257.4</ele>
        <time>2021-06-01T10:49:09Z</time>
      </trkpt>
      <trkpt lat="45.7013" lon="6.62836">
        <ele>1257.8</ele>
        <time>2021-06-01T10:49:10Z</time>
      </trkpt>
      <trkpt lat="45.70134" lon="6.62837">
        <ele>1258</ele>
        <time>2021-06-01T10:49:11Z</time>
      </trkpt>
      <trkpt lat="45.70137" lon="6.62838">
        <ele>1258.2</ele>
        <time>2021-06-01T10:49:12Z</time>
      </trkpt>
      <trkpt lat="45.70141" lon="6.62838">
        <ele>1258.6</ele>
        <time>2021-06-01T10:49:13Z</time>
      </trkpt>
      <trkpt lat="45.70144" lon="6.62838">
        <ele>1259</ele>
        <time>2021-06-01T10:49:14Z</time>
      </trkpt>
      <trkpt lat="45.70147" lon="6.62838">
        <ele>1259.2</ele>
        <time>2021-06-01T10:49:15Z</time>
      </trkpt>
      <trkpt lat="45.7015" lon="6.62839">
        <ele>1259.6</ele>
        <time>2021-06-01T10:49:16Z</time>
      </trkpt>
      <trkpt lat="45.70154" lon="6.6284">
        <ele>1259.6</ele>
        <time>2021-06-01T10:49:17Z</time>
      </trkpt>
      <trkpt lat="45.70156" lon="6.62843">
        <ele>1259.6</ele>
        <time>2021-06-01T10:49:18Z</time>
      </trkpt>
      <trkpt lat="45.70159" lon="6.62846">
        <ele>1259.6</ele>
        <time>2021-06-01T10:49:19Z</time>
      </trkpt>
      <trkpt lat="45.70162" lon="6.62848">
        <ele>1259.6</ele>
        <time>2021-06-01T10:49:20Z</time>
      </trkpt>
      <trkpt lat="45.70164" lon="6.6285">
        <ele>1259.8</ele>
        <time>2021-06-01T10:49:21Z</time>
      </trkpt>
      <trkpt lat="45.70168" lon="6.62852">
        <ele>1259.8</ele>
        <time>2021-06-01T10:49:22Z</time>
      </trkpt>
      <trkpt lat="45.70171" lon="6.62854">
        <ele>1259.8</ele>
        <time>2021-06-01T10:49:23Z</time>
      </trkpt>
      <trkpt lat="45.70173" lon="6.62857">
        <ele>1259.8</ele>
        <time>2021-06-01T10:49:24Z</time>
      </trkpt>
      <trkpt lat="45.70175" lon="6.62859">
        <ele>1260</ele>
        <time>2021-06-01T10:49:25Z</time>
      </trkpt>
      <trkpt lat="45.70178" lon="6.62862">
        <ele>1260.2</ele>
        <time>2021-06-01T10:49:26Z</time>
      </trkpt>
      <trkpt lat="45.7018" lon="6.62864">
        <ele>1260.4</ele>
        <time>2021-06-01T10:49:27Z</time>
      </trkpt>
      <trkpt lat="45.70183" lon="6.62866">
        <ele>1260.8</ele>
        <time>2021-06-01T10:49:28Z</time>
      </trkpt>
      <trkpt lat="45.70186" lon="6.62868">
        <ele>1261</ele>
        <time>2021-06-01T10:49:29Z</time>
      </trkpt>
      <trkpt lat="45.70189" lon="6.6287">
        <ele>1261.2</ele>
        <time>2021-06-01T10:49:30Z</time>
      </trkpt>
      <trkpt lat="45.70193" lon="6.62873">
        <ele>1261.6</ele>
        <time>2021-06-01T10:49:31Z</time>
      </trkpt>
      <trkpt lat="45.70197" lon="6.62875">
        <ele>1262.6</ele>
        <time>2021-06-01T10:49:32Z</time>
      </trkpt>
      <trkpt lat="45.702" lon="6.62877">
        <ele>1263.6</ele>
        <time>2021-06-01T10:49:33Z</time>
      </trkpt>
      <trkpt lat="45.70204" lon="6.62879">
        <ele>1264.8</ele>
        <time>2021-06-01T10:49:34Z</time>
      </trkpt>
      <trkpt lat="45.70207" lon="6.62881">
        <ele>1265.6</ele>
        <time>2021-06-01T10:49:35Z</time>
      </trkpt>
      <trkpt lat="45.70211" lon="6.62883">
        <ele>1266.2</ele>
        <time>2021-06-01T10:49:36Z</time>
      </trkpt>
      <trkpt lat="45.70214" lon="6.62886">
        <ele>1266.8</ele>
        <time>2021-06-01T10:49:37Z</time>
      </trkpt>
      <trkpt lat="45.70218" lon="6.62888">
        <ele>1267</ele>
        <time>2021-06-01T10:49:38Z</time>
      </trkpt>
      <trkpt lat="45.70221" lon="6.62891">
        <ele>1267.2</ele>
        <time>2021-06-01T10:49:39Z</time>
      </trkpt>
      <trkpt lat="45.70224" lon="6.62893">
        <ele>1267.6</ele>
        <time>2021-06-01T10:49:40Z</time>
      </trkpt>
      <trkpt lat="45.70228" lon="6.62895">
        <ele>1268</ele>
        <time>2021-06-01T10:49:41Z</time>
      </trkpt>
      <trkpt lat="45.70231" lon="6.62897">
        <ele>1268.8</ele>
        <time>2021-06-01T10:49:42Z</time>
      </trkpt>
      <trkpt lat="45.70234" lon="6.629">
        <ele>1269.4</ele>
        <time>2021-06-01T10:49:43Z</time>
      </trkpt>
      <trkpt lat="45.70237" lon="6.62902">
        <ele>1270</ele>
        <time>2021-06-01T10:49:44Z</time>
      </trkpt>
      <trkpt lat="45.70241" lon="6.62906">
        <ele>1270.8</ele>
        <time>2021-06-01T10:49:45Z</time>
      </trkpt>
      <trkpt lat="45.70244" lon="6.62908">
        <ele>1271.6</ele>
        <time>2021-06-01T10:49:46Z</time>
      </trkpt>
      <trkpt lat="45.70248" lon="6.6291">
        <ele>1272.4</ele>
        <time>2021-06-01T10:49:47Z</time>
      </trkpt>
      <trkpt lat="45.7025" lon="6.62913">
        <ele>1273</ele>
        <time>2021-06-01T10:49:48Z</time>
      </trkpt>
      <trkpt lat="45.70254" lon="6.62915">
        <ele>1273.8</ele>
        <time>2021-06-01T10:49:49Z</time>
      </trkpt>
      <trkpt lat="45.70257" lon="6.62917">
        <ele>1274.4</ele>
        <time>2021-06-01T10:49:50Z</time>
      </trkpt>
      <trkpt lat="45.7026" lon="6.6292">
        <ele>1275</ele>
        <time>2021-06-01T10:49:51Z</time>
      </trkpt>
      <trkpt lat="45.70263" lon="6.62923">
        <ele>1275.6</ele>
        <time>2021-06-01T10:49:52Z</time>
      </trkpt>
      <trkpt lat="45.70266" lon="6.62925">
        <ele>1276.4</ele>
        <time>2021-06-01T10:49:53Z</time>
      </trkpt>
      <trkpt lat="45.7027" lon="6.62927">
        <ele>1277</ele>
        <time>2021-06-01T10:49:54Z</time>
      </trkpt>
      <trkpt lat="45.70273" lon="6.62929">
        <ele>1278</ele>
        <time>2021-06-01T10:49:55Z</time>
      </trkpt>
      <trkpt lat="45.70276" lon="6.62931">
        <ele>1279</ele>
        <time>2021-06-01T10:49:56Z</time>
      </trkpt>
      <trkpt lat="45.70279" lon="6.62933">
        <ele>1279.8</ele>
        <time>2021-06-01T10:49:57Z</time>
      </trkpt>
      <trkpt lat="45.70283" lon="6.62935">
        <ele>1280.6</ele>
        <time>2021-06-01T10:49:58Z</time>
      </trkpt>
      <trkpt lat="45.70287" lon="6.62936">
        <ele>1281.6</ele>
        <time>2021-06-01T10:49:59Z</time>
      </trkpt>
      <trkpt lat="45.7029" lon="6.62938">
        <ele>1281.6</ele>
        <time>2021-06-01T10:50:00Z</time>
      </trkpt>
      <trkpt lat="45.70293" lon="6.62939">
        <ele>1283</ele>
        <time>2021-06-01T10:50:01Z</time>
      </trkpt>
      <trkpt lat="45.70297" lon="6.6294">
        <ele>1283.4</ele>
        <time>2021-06-01T10:50:02Z</time>
      </trkpt>
      <trkpt lat="45.70301" lon="6.6294">
        <ele>1283.8</ele>
        <time>2021-06-01T10:50:03Z</time>
      </trkpt>
      <trkpt lat="45.70304" lon="6.6294">
        <ele>1284</ele>
        <time>2021-06-01T10:50:04Z</time>
      </trkpt>
      <trkpt lat="45.70307" lon="6.62941">
        <ele>1284.2</ele>
        <time>2021-06-01T10:50:05Z</time>
      </trkpt>
      <trkpt lat="45.70311" lon="6.62941">
        <ele>1284.4</ele>
        <time>2021-06-01T10:50:06Z</time>
      </trkpt>
      <trkpt lat="45.70314" lon="6.62942">
        <ele>1284.6</ele>
        <time>2021-06-01T10:50:07Z</time>
      </trkpt>
      <trkpt lat="45.70318" lon="6.62942">
        <ele>1284.8</ele>
        <time>2021-06-01T10:50:08Z</time>
      </trkpt>
      <trkpt lat="45.70321" lon="6.62943">
        <ele>1285.2</ele>
        <time>2021-06-01T10:50:09Z</time>
      </trkpt>
      <trkpt lat="45.70324" lon="6.62942">
        <ele>1285.4</ele>
        <time>2021-06-01T10:50:10Z</time>
      </trkpt>
      <trkpt lat="45.70329" lon="6.62943">
        <ele>1285.8</ele>
        <time>2021-06-01T10:50:11Z</time>
      </trkpt>
      <trkpt lat="45.70332" lon="6.62943">
        <ele>1286.2</ele>
        <time>2021-06-01T10:50:12Z</time>
      </trkpt>
      <trkpt lat="45.70336" lon="6.62943">
        <ele>1286.4</ele>
        <time>2021-06-01T10:50:13Z</time>
      </trkpt>
      <trkpt lat="45.70339" lon="6.62944">
        <ele>1286.4</ele>
        <time>2021-06-01T10:50:14Z</time>
      </trkpt>
      <trkpt lat="45.70343" lon="6.62944">
        <ele>1286.6</ele>
        <time>2021-06-01T10:50:15Z</time>
      </trkpt>
      <trkpt lat="45.70346" lon="6.62943">
        <ele>1286.8</ele>
        <time>2021-06-01T10:50:16Z</time>
      </trkpt>
      <trkpt lat="45.70349" lon="6.62944">
        <ele>1287.2</ele>
        <time>2021-06-01T10:50:17Z</time>
      </trkpt>
      <trkpt lat="45.70353" lon="6.62944">
        <ele>1287.4</ele>
        <time>2021-06-01T10:50:18Z</time>
      </trkpt>
      <trkpt lat="45.70356" lon="6.62945">
        <ele>1287.4</ele>
        <time>2021-06-01T10:50:19Z</time>
      </trkpt>
      <trkpt lat="45.7036" lon="6.62945">
        <ele>1287.4</ele>
        <time>2021-06-01T10:50:20Z</time>
      </trkpt>
      <trkpt lat="45.70364" lon="6.62945">
        <ele>1287.4</ele>
        <time>2021-06-01T10:50:21Z</time>
      </trkpt>
      <trkpt lat="45.70368" lon="6.62944">
        <ele>1287.4</ele>
        <time>2021-06-01T10:50:22Z</time>
      </trkpt>
      <trkpt lat="45.70372" lon="6.62944">
        <ele>1287.2</ele>
        <time>2021-06-01T10:50:23Z</time>
      </trkpt>
      <trkpt lat="45.70375" lon="6.62944">
        <ele>1287</ele>
        <time>2021-06-01T10:50:24Z</time>
      </trkpt>
      <trkpt lat="45.70379" lon="6.62943">
        <ele>1287</ele>
        <time>2021-06-01T10:50:25Z</time>
      </trkpt>
      <trkpt lat="45.70382" lon="6.62943">
        <ele>1286.8</ele>
        <time>2021-06-01T10:50:26Z</time>
      </trkpt>
      <trkpt lat="45.70385" lon="6.62942">
        <ele>1286.8</ele>
        <time>2021-06-01T10:50:27Z</time>
      </trkpt>
      <trkpt lat="45.70388" lon="6.62942">
        <ele>1286.8</ele>
        <time>2021-06-01T10:50:28Z</time>
      </trkpt>
      <trkpt lat="45.70391" lon="6.62942">
        <ele>1286.8</ele>
        <time>2021-06-01T10:50:29Z</time>
      </trkpt>
      <trkpt lat="45.70395" lon="6.62941">
        <ele>1286.6</ele>
        <time>2021-06-01T10:50:30Z</time>
      </trkpt>
      <trkpt lat="45.70398" lon="6.62941">
        <ele>1286.8</ele>
        <time>2021-06-01T10:50:31Z</time>
      </trkpt>
      <trkpt lat="45.70402" lon="6.6294">
        <ele>1286.8</ele>
        <time>2021-06-01T10:50:32Z</time>
      </trkpt>
      <trkpt lat="45.70406" lon="6.62939">
        <ele>1286.8</ele>
        <time>2021-06-01T10:50:33Z</time>
      </trkpt>
      <trkpt lat="45.70409" lon="6.62938">
        <ele>1287</ele>
        <time>2021-06-01T10:50:34Z</time>
      </trkpt>
      <trkpt lat="45.70413" lon="6.62938">
        <ele>1287.4</ele>
        <time>2021-06-01T10:50:35Z</time>
      </trkpt>
      <trkpt lat="45.70415" lon="6.62937">
        <ele>1287.6</ele>
        <time>2021-06-01T10:50:36Z</time>
      </trkpt>
      <trkpt lat="45.70419" lon="6.62938">
        <ele>1287.8</ele>
        <time>2021-06-01T10:50:37Z</time>
      </trkpt>
      <trkpt lat="45.70423" lon="6.62938">
        <ele>1287.8</ele>
        <time>2021-06-01T10:50:38Z</time>
      </trkpt>
      <trkpt lat="45.70427" lon="6.62938">
        <ele>1288</ele>
        <time>2021-06-01T10:50:39Z</time>
      </trkpt>
      <trkpt lat="45.70431" lon="6.62939">
        <ele>1288</ele>
        <time>2021-06-01T10:50:40Z</time>
      </trkpt>
      <trkpt lat="45.70435" lon="6.62939">
        <ele>1288</ele>
        <time>2021-06-01T10:50:41Z</time>
      </trkpt>
      <trkpt lat="45.70438" lon="6.6294">
        <ele>1288.4</ele>
        <time>2021-06-01T10:50:42Z</time>
      </trkpt>
      <trkpt lat="45.70442" lon="6.6294">
        <ele>1288.8</ele>
        <time>2021-06-01T10:50:43Z</time>
      </trkpt>
      <trkpt lat="45.70446" lon="6.62941">
        <ele>1289</ele>
        <time>2021-06-01T10:50:44Z</time>
      </trkpt>
      <trkpt lat="45.7045" lon="6.62941">
        <ele>1289.2</ele>
        <time>2021-06-01T10:50:45Z</time>
      </trkpt>
      <trkpt lat="45.70454" lon="6.62942">
        <ele>1289.6</ele>
        <time>2021-06-01T10:50:46Z</time>
      </trkpt>
      <trkpt lat="45.70457" lon="6.62943">
        <ele>1290</ele>
        <time>2021-06-01T10:50:47Z</time>
      </trkpt>
      <trkpt lat="45.70461" lon="6.62943">
        <ele>1290.2</ele>
        <time>2021-06-01T10:50:48Z</time>
      </trkpt>
      <trkpt lat="45.70464" lon="6.62944">
        <ele>1290.2</ele>
        <time>2021-06-01T10:50:49Z</time>
      </trkpt>
      <trkpt lat="45.70468" lon="6.62945">
        <ele>1290.6</ele>
        <time>2021-06-01T10:50:50Z</time>
      </trkpt>
      <trkpt lat="45.70472" lon="6.62945">
        <ele>1291</ele>
        <time>2021-06-01T10:50:51Z</time>
      </trkpt>
      <trkpt lat="45.70476" lon="6.62946">
        <ele>1291.4</ele>
        <time>2021-06-01T10:50:52Z</time>
      </trkpt>
      <trkpt lat="45.7048" lon="6.62946">
        <ele>1292.2</ele>
        <time>2021-06-01T10:50:53Z</time>
      </trkpt>
      <trkpt lat="45.70484" lon="6.62947">
        <ele>1292.6</ele>
        <time>2021-06-01T10:50:54Z</time>
      </trkpt>
      <trkpt lat="45.70487" lon="6.62948">
        <ele>1293.4</ele>
        <time>2021-06-01T10:50:55Z</time>
      </trkpt>
      <trkpt lat="45.70491" lon="6.62948">
        <ele>1294.2</ele>
        <time>2021-06-01T10:50:56Z</time>
      </trkpt>
      <trkpt lat="45.70494" lon="6.62949">
        <ele>1294.6</ele>
        <time>2021-06-01T10:50:57Z</time>
      </trkpt>
      <trkpt lat="45.70498" lon="6.6295">
        <ele>1295.2</ele>
        <time>2021-06-01T10:50:58Z</time>
      </trkpt>
      <trkpt lat="45.70501" lon="6.6295">
        <ele>1295.6</ele>
        <time>2021-06-01T10:50:59Z</time>
      </trkpt>
      <trkpt lat="45.70505" lon="6.62952">
        <ele>1296</ele>
        <time>2021-06-01T10:51:00Z</time>
      </trkpt>
      <trkpt lat="45.70508" lon="6.62954">
        <ele>1296.4</ele>
        <time>2021-06-01T10:51:01Z</time>
      </trkpt>
      <trkpt lat="45.70512" lon="6.62956">
        <ele>1297</ele>
        <time>2021-06-01T10:51:02Z</time>
      </trkpt>
      <trkpt lat="45.70515" lon="6.62958">
        <ele>1297.8</ele>
        <time>2021-06-01T10:51:03Z</time>
      </trkpt>
      <trkpt lat="45.70518" lon="6.6296">
        <ele>1298.4</ele>
        <time>2021-06-01T10:51:04Z</time>
      </trkpt>
      <trkpt lat="45.70521" lon="6.62964">
        <ele>1299</ele>
        <time>2021-06-01T10:51:05Z</time>
      </trkpt>
      <trkpt lat="45.70524" lon="6.62967">
        <ele>1299.4</ele>
        <time>2021-06-01T10:51:06Z</time>
      </trkpt>
      <trkpt lat="45.70526" lon="6.62971">
        <ele>1300.2</ele>
        <time>2021-06-01T10:51:07Z</time>
      </trkpt>
      <trkpt lat="45.70528" lon="6.62975">
        <ele>1300.6</ele>
        <time>2021-06-01T10:51:08Z</time>
      </trkpt>
      <trkpt lat="45.70531" lon="6.62979">
        <ele>1301.2</ele>
        <time>2021-06-01T10:51:09Z</time>
      </trkpt>
      <trkpt lat="45.70533" lon="6.62982">
        <ele>1301.8</ele>
        <time>2021-06-01T10:51:10Z</time>
      </trkpt>
      <trkpt lat="45.70536" lon="6.62985">
        <ele>1302.4</ele>
        <time>2021-06-01T10:51:11Z</time>
      </trkpt>
      <trkpt lat="45.70539" lon="6.62988">
        <ele>1303</ele>
        <time>2021-06-01T10:51:12Z</time>
      </trkpt>
      <trkpt lat="45.70542" lon="6.62991">
        <ele>1303.2</ele>
        <time>2021-06-01T10:51:13Z</time>
      </trkpt>
      <trkpt lat="45.70545" lon="6.62994">
        <ele>1303.2</ele>
        <time>2021-06-01T10:51:14Z</time>
      </trkpt>
      <trkpt lat="45.70548" lon="6.62996">
        <ele>1303.2</ele>
        <time>2021-06-01T10:51:15Z</time>
      </trkpt>
      <trkpt lat="45.7055" lon="6.62998">
        <ele>1303.6</ele>
        <time>2021-06-01T10:51:16Z</time>
      </trkpt>
      <trkpt lat="45.70554" lon="6.63">
        <ele>1303.8</ele>
        <time>2021-06-01T10:51:17Z</time>
      </trkpt>
      <trkpt lat="45.70557" lon="6.63002">
        <ele>1304.2</ele>
        <time>2021-06-01T10:51:18Z</time>
      </trkpt>
      <trkpt lat="45.7056" lon="6.63003">
        <ele>1304.6</ele>
        <time>2021-06-01T10:51:19Z</time>
      </trkpt>
      <trkpt lat="45.70563" lon="6.63005">
        <ele>1305</ele>
        <time>2021-06-01T10:51:20Z</time>
      </trkpt>
      <trkpt lat="45.70566" lon="6.63007">
        <ele>1305.2</ele>
        <time>2021-06-01T10:51:21Z</time>
      </trkpt>
      <trkpt lat="45.7057" lon="6.63009">
        <ele>1305.4</ele>
        <time>2021-06-01T10:51:22Z</time>
      </trkpt>
      <trkpt lat="45.70573" lon="6.63011">
        <ele>1306</ele>
        <time>2021-06-01T10:51:23Z</time>
      </trkpt>
      <trkpt lat="45.70576" lon="6.63013">
        <ele>1306.2</ele>
        <time>2021-06-01T10:51:24Z</time>
      </trkpt>
      <trkpt lat="45.70579" lon="6.63014">
        <ele>1306.4</ele>
        <time>2021-06-01T10:51:25Z</time>
      </trkpt>
      <trkpt lat="45.70582" lon="6.63016">
        <ele>1306.8</ele>
        <time>2021-06-01T10:51:26Z</time>
      </trkpt>
      <trkpt lat="45.70586" lon="6.63017">
        <ele>1307</ele>
        <time>2021-06-01T10:51:27Z</time>
      </trkpt>
      <trkpt lat="45.70589" lon="6.63019">
        <ele>1307.4</ele>
        <time>2021-06-01T10:51:28Z</time>
      </trkpt>
      <trkpt lat="45.70592" lon="6.63021">
        <ele>1308</ele>
        <time>2021-06-01T10:51:29Z</time>
      </trkpt>
      <trkpt lat="45.70595" lon="6.63023">
        <ele>1308.2</ele>
        <time>2021-06-01T10:51:30Z</time>
      </trkpt>
      <trkpt lat="45.70598" lon="6.63025">
        <ele>1308.6</ele>
        <time>2021-06-01T10:51:31Z</time>
      </trkpt>
      <trkpt lat="45.70601" lon="6.63028">
        <ele>1309</ele>
        <time>2021-06-01T10:51:32Z</time>
      </trkpt>
      <trkpt lat="45.70603" lon="6.6303">
        <ele>1309.2</ele>
        <time>2021-06-01T10:51:33Z</time>
      </trkpt>
      <trkpt lat="45.70606" lon="6.63032">
        <ele>1309.6</ele>
        <time>2021-06-01T10:51:34Z</time>
      </trkpt>
      <trkpt lat="45.7061" lon="6.63033">
        <ele>1310.2</ele>
        <time>2021-06-01T10:51:35Z</time>
      </trkpt>
      <trkpt lat="45.70613" lon="6.63035">
        <ele>1310.6</ele>
        <time>2021-06-01T10:51:36Z</time>
      </trkpt>
      <trkpt lat="45.70619" lon="6.63037">
        <ele>1311</ele>
        <time>2021-06-01T10:51:37Z</time>
      </trkpt>
      <trkpt lat="45.70623" lon="6.63039">
        <ele>1311.6</ele>
        <time>2021-06-01T10:51:38Z</time>
      </trkpt>
      <trkpt lat="45.70627" lon="6.63042">
        <ele>1311.8</ele>
        <time>2021-06-01T10:51:39Z</time>
      </trkpt>
      <trkpt lat="45.70631" lon="6.63044">
        <ele>1312.2</ele>
        <time>2021-06-01T10:51:40Z</time>
      </trkpt>
      <trkpt lat="45.70635" lon="6.63046">
        <ele>1313</ele>
        <time>2021-06-01T10:51:41Z</time>
      </trkpt>
      <trkpt lat="45.70637" lon="6.63049">
        <ele>1313.6</ele>
        <time>2021-06-01T10:51:42Z</time>
      </trkpt>
      <trkpt lat="45.70641" lon="6.63052">
        <ele>1314.2</ele>
        <time>2021-06-01T10:51:43Z</time>
      </trkpt>
      <trkpt lat="45.70645" lon="6.63053">
        <ele>1314.8</ele>
        <time>2021-06-01T10:51:44Z</time>
      </trkpt>
      <trkpt lat="45.70648" lon="6.63055">
        <ele>1315.4</ele>
        <time>2021-06-01T10:51:45Z</time>
      </trkpt>
      <trkpt lat="45.70651" lon="6.63057">
        <ele>1316</ele>
        <time>2021-06-01T10:51:46Z</time>
      </trkpt>
      <trkpt lat="45.70655" lon="6.63059">
        <ele>1316.6</ele>
        <time>2021-06-01T10:51:47Z</time>
      </trkpt>
      <trkpt lat="45.70659" lon="6.63061">
        <ele>1317</ele>
        <time>2021-06-01T10:51:48Z</time>
      </trkpt>
      <trkpt lat="45.70662" lon="6.63064">
        <ele>1317.4</ele>
        <time>2021-06-01T10:51:49Z</time>
      </trkpt>
      <trkpt lat="45.70666" lon="6.63065">
        <ele>1317.6</ele>
        <time>2021-06-01T10:51:50Z</time>
      </trkpt>
      <trkpt lat="45.70669" lon="6.63067">
        <ele>1317.6</ele>
        <time>2021-06-01T10:51:51Z</time>
      </trkpt>
      <trkpt lat="45.70674" lon="6.63069">
        <ele>1317.2</ele>
        <time>2021-06-01T10:51:52Z</time>
      </trkpt>
      <trkpt lat="45.70677" lon="6.63071">
        <ele>1316.8</ele>
        <time>2021-06-01T10:51:53Z</time>
      </trkpt>
      <trkpt lat="45.70681" lon="6.63073">
        <ele>1316.4</ele>
        <time>2021-06-01T10:51:54Z</time>
      </trkpt>
      <trkpt lat="45.70685" lon="6.63074">
        <ele>1316</ele>
        <time>2021-06-01T10:51:55Z</time>
      </trkpt>
      <trkpt lat="45.70688" lon="6.63076">
        <ele>1315.6</ele>
        <time>2021-06-01T10:51:56Z</time>
      </trkpt>
      <trkpt lat="45.70692" lon="6.63078">
        <ele>1315.6</ele>
        <time>2021-06-01T10:51:57Z</time>
      </trkpt>
      <trkpt lat="45.70695" lon="6.63079">
        <ele>1315.8</ele>
        <time>2021-06-01T10:51:58Z</time>
      </trkpt>
      <trkpt lat="45.70699" lon="6.63081">
        <ele>1315.8</ele>
        <time>2021-06-01T10:51:59Z</time>
      </trkpt>
      <trkpt lat="45.70701" lon="6.63083">
        <ele>1316.2</ele>
        <time>2021-06-01T10:52:00Z</time>
      </trkpt>
      <trkpt lat="45.70705" lon="6.63084">
        <ele>1316.2</ele>
        <time>2021-06-01T10:52:01Z</time>
      </trkpt>
      <trkpt lat="45.70709" lon="6.63084">
        <ele>1316.4</ele>
        <time>2021-06-01T10:52:02Z</time>
      </trkpt>
      <trkpt lat="45.70712" lon="6.63085">
        <ele>1316.2</ele>
        <time>2021-06-01T10:52:03Z</time>
      </trkpt>
      <trkpt lat="45.70715" lon="6.63086">
        <ele>1316.2</ele>
        <time>2021-06-01T10:52:04Z</time>
      </trkpt>
      <trkpt lat="45.70718" lon="6.63086">
        <ele>1316.2</ele>
        <time>2021-06-01T10:52:05Z</time>
      </trkpt>
      <trkpt lat="45.70722" lon="6.63087">
        <ele>1316.2</ele>
        <time>2021-06-01T10:52:06Z</time>
      </trkpt>
      <trkpt lat="45.70725" lon="6.63087">
        <ele>1316.8</ele>
        <time>2021-06-01T10:52:07Z</time>
      </trkpt>
      <trkpt lat="45.70728" lon="6.63086">
        <ele>1317.2</ele>
        <time>2021-06-01T10:52:08Z</time>
      </trkpt>
      <trkpt lat="45.70731" lon="6.63086">
        <ele>1317.8</ele>
        <time>2021-06-01T10:52:09Z</time>
      </trkpt>
      <trkpt lat="45.70734" lon="6.63086">
        <ele>1318.2</ele>
        <time>2021-06-01T10:52:10Z</time>
      </trkpt>
      <trkpt lat="45.70738" lon="6.63087">
        <ele>1318.8</ele>
        <time>2021-06-01T10:52:11Z</time>
      </trkpt>
      <trkpt lat="45.70742" lon="6.63088">
        <ele>1319.6</ele>
        <time>2021-06-01T10:52:12Z</time>
      </trkpt>
      <trkpt lat="45.70744" lon="6.63092">
        <ele>1320</ele>
        <time>2021-06-01T10:52:13Z</time>
      </trkpt>
      <trkpt lat="45.70746" lon="6.63096">
        <ele>1320.6</ele>
        <time>2021-06-01T10:52:14Z</time>
      </trkpt>
      <trkpt lat="45.70747" lon="6.63101">
        <ele>1321.2</ele>
        <time>2021-06-01T10:52:15Z</time>
      </trkpt>
      <trkpt lat="45.70747" lon="6.63105">
        <ele>1321.8</ele>
        <time>2021-06-01T10:52:16Z</time>
      </trkpt>
      <trkpt lat="45.70745" lon="6.6311">
        <ele>1322</ele>
        <time>2021-06-01T10:52:17Z</time>
      </trkpt>
      <trkpt lat="45.70743" lon="6.63112">
        <ele>1322.2</ele>
        <time>2021-06-01T10:52:18Z</time>
      </trkpt>
      <trkpt lat="45.7074" lon="6.63113">
        <ele>1322.2</ele>
        <time>2021-06-01T10:52:19Z</time>
      </trkpt>
      <trkpt lat="45.70736" lon="6.63113">
        <ele>1322.4</ele>
        <time>2021-06-01T10:52:20Z</time>
      </trkpt>
      <trkpt lat="45.70732" lon="6.63113">
        <ele>1323</ele>
        <time>2021-06-01T10:52:21Z</time>
      </trkpt>
      <trkpt lat="45.7073" lon="6.63113">
        <ele>1323.8</ele>
        <time>2021-06-01T10:52:22Z</time>
      </trkpt>
      <trkpt lat="45.70726" lon="6.63113">
        <ele>1324.6</ele>
        <time>2021-06-01T10:52:23Z</time>
      </trkpt>
      <trkpt lat="45.70723" lon="6.63112">
        <ele>1325.4</ele>
        <time>2021-06-01T10:52:24Z</time>
      </trkpt>
      <trkpt lat="45.7072" lon="6.63112">
        <ele>1326.2</ele>
        <time>2021-06-01T10:52:25Z</time>
      </trkpt>
      <trkpt lat="45.70716" lon="6.63111">
        <ele>1327</ele>
        <time>2021-06-01T10:52:26Z</time>
      </trkpt>
      <trkpt lat="45.70713" lon="6.6311">
        <ele>1327.8</ele>
        <time>2021-06-01T10:52:27Z</time>
      </trkpt>
      <trkpt lat="45.7071" lon="6.6311">
        <ele>1328.6</ele>
        <time>2021-06-01T10:52:28Z</time>
      </trkpt>
      <trkpt lat="45.70707" lon="6.63109">
        <ele>1329.6</ele>
        <time>2021-06-01T10:52:29Z</time>
      </trkpt>
      <trkpt lat="45.70703" lon="6.63109">
        <ele>1330.4</ele>
        <time>2021-06-01T10:52:30Z</time>
      </trkpt>
      <trkpt lat="45.707" lon="6.63108">
        <ele>1331.4</ele>
        <time>2021-06-01T10:52:31Z</time>
      </trkpt>
      <trkpt lat="45.70697" lon="6.63108">
        <ele>1332.2</ele>
        <time>2021-06-01T10:52:32Z</time>
      </trkpt>
      <trkpt lat="45.70693" lon="6.63107">
        <ele>1333</ele>
        <time>2021-06-01T10:52:33Z</time>
      </trkpt>
      <trkpt lat="45.7069" lon="6.63106">
        <ele>1333.6</ele>
        <time>2021-06-01T10:52:34Z</time>
      </trkpt>
      <trkpt lat="45.70686" lon="6.63105">
        <ele>1334.4</ele>
        <time>2021-06-01T10:52:35Z</time>
      </trkpt>
      <trkpt lat="45.70683" lon="6.63103">
        <ele>1335</ele>
        <time>2021-06-01T10:52:36Z</time>
      </trkpt>
      <trkpt lat="45.70679" lon="6.63102">
        <ele>1335.4</ele>
        <time>2021-06-01T10:52:37Z</time>
      </trkpt>
      <trkpt lat="45.70676" lon="6.63102">
        <ele>1336</ele>
        <time>2021-06-01T10:52:38Z</time>
      </trkpt>
      <trkpt lat="45.70673" lon="6.63101">
        <ele>1336</ele>
        <time>2021-06-01T10:52:39Z</time>
      </trkpt>
      <trkpt lat="45.70669" lon="6.631">
        <ele>1336.2</ele>
        <time>2021-06-01T10:52:40Z</time>
      </trkpt>
      <trkpt lat="45.70666" lon="6.63099">
        <ele>1336.4</ele>
        <time>2021-06-01T10:52:41Z</time>
      </trkpt>
      <trkpt lat="45.70662" lon="6.63097">
        <ele>1336.4</ele>
        <time>2021-06-01T10:52:42Z</time>
      </trkpt>
      <trkpt lat="45.70659" lon="6.63096">
        <ele>1336.6</ele>
        <time>2021-06-01T10:52:43Z</time>
      </trkpt>
      <trkpt lat="45.70655" lon="6.63095">
        <ele>1336.4</ele>
        <time>2021-06-01T10:52:44Z</time>
      </trkpt>
      <trkpt lat="45.70652" lon="6.63094">
        <ele>1336.2</ele>
        <time>2021-06-01T10:52:45Z</time>
      </trkpt>
      <trkpt lat="45.70648" lon="6.63094">
        <ele>1336</ele>
        <time>2021-06-01T10:52:46Z</time>
      </trkpt>
      <trkpt lat="45.70644" lon="6.63094">
        <ele>1335.6</ele>
        <time>2021-06-01T10:52:47Z</time>
      </trkpt>
      <trkpt lat="45.70641" lon="6.63093">
        <ele>1335.8</ele>
        <time>2021-06-01T10:52:48Z</time>
      </trkpt>
      <trkpt lat="45.70637" lon="6.63093">
        <ele>1336</ele>
        <time>2021-06-01T10:52:49Z</time>
      </trkpt>
      <trkpt lat="45.70633" lon="6.63092">
        <ele>1336.2</ele>
        <time>2021-06-01T10:52:50Z</time>
      </trkpt>
      <trkpt lat="45.7063" lon="6.63091">
        <ele>1336</ele>
        <time>2021-06-01T10:52:51Z</time>
      </trkpt>
      <trkpt lat="45.70626" lon="6.63091">
        <ele>1336</ele>
        <time>2021-06-01T10:52:52Z</time>
      </trkpt>
      <trkpt lat="45.70622" lon="6.63091">
        <ele>1335.8</ele>
        <time>2021-06-01T10:52:53Z</time>
      </trkpt>
      <trkpt lat="45.70619" lon="6.6309">
        <ele>1335.6</ele>
        <time>2021-06-01T10:52:54Z</time>
      </trkpt>
      <trkpt lat="45.70615" lon="6.63089">
        <ele>1335.6</ele>
        <time>2021-06-01T10:52:55Z</time>
      </trkpt>
      <trkpt lat="45.70611" lon="6.63088">
        <ele>1335.8</ele>
        <time>2021-06-01T10:52:56Z</time>
      </trkpt>
      <trkpt lat="45.70607" lon="6.63088">
        <ele>1336</ele>
        <time>2021-06-01T10:52:57Z</time>
      </trkpt>
      <trkpt lat="45.70603" lon="6.63087">
        <ele>1336.4</ele>
        <time>2021-06-01T10:52:58Z</time>
      </trkpt>
      <trkpt lat="45.70601" lon="6.63087">
        <ele>1337</ele>
        <time>2021-06-01T10:52:59Z</time>
      </trkpt>
      <trkpt lat="45.70598" lon="6.63087">
        <ele>1337.6</ele>
        <time>2021-06-01T10:53:00Z</time>
      </trkpt>
      <trkpt lat="45.70596" lon="6.63087">
        <ele>1338.2</ele>
        <time>2021-06-01T10:53:01Z</time>
      </trkpt>
      <trkpt lat="45.70591" lon="6.63089">
        <ele>1338.6</ele>
        <time>2021-06-01T10:53:03Z</time>
      </trkpt>
      <trkpt lat="45.70589" lon="6.63091">
        <ele>1338.8</ele>
        <time>2021-06-01T10:53:04Z</time>
      </trkpt>
      <trkpt lat="45.70588" lon="6.63092">
        <ele>1339.2</ele>
        <time>2021-06-01T10:53:05Z</time>
      </trkpt>
      <trkpt lat="45.70586" lon="6.63093">
        <ele>1339.4</ele>
        <time>2021-06-01T10:53:06Z</time>
      </trkpt>
      <trkpt lat="45.70584" lon="6.63094">
        <ele>1339.4</ele>
        <time>2021-06-01T10:53:07Z</time>
      </trkpt>
      <trkpt lat="45.70582" lon="6.63095">
        <ele>1339.2</ele>
        <time>2021-06-01T10:53:08Z</time>
      </trkpt>
      <trkpt lat="45.70579" lon="6.63095">
        <ele>1339.4</ele>
        <time>2021-06-01T10:53:09Z</time>
      </trkpt>
      <trkpt lat="45.70576" lon="6.63095">
        <ele>1339.4</ele>
        <time>2021-06-01T10:53:10Z</time>
      </trkpt>
      <trkpt lat="45.70574" lon="6.63095">
        <ele>1339.8</ele>
        <time>2021-06-01T10:53:11Z</time>
      </trkpt>
      <trkpt lat="45.7057" lon="6.63094">
        <ele>1340.6</ele>
        <time>2021-06-01T10:53:12Z</time>
      </trkpt>
      <trkpt lat="45.70567" lon="6.63093">
        <ele>1341.6</ele>
        <time>2021-06-01T10:53:13Z</time>
      </trkpt>
      <trkpt lat="45.70564" lon="6.63093">
        <ele>1342.6</ele>
        <time>2021-06-01T10:53:14Z</time>
      </trkpt>
      <trkpt lat="45.7056" lon="6.63093">
        <ele>1343.4</ele>
        <time>2021-06-01T10:53:15Z</time>
      </trkpt>
      <trkpt lat="45.70556" lon="6.63092">
        <ele>1344.2</ele>
        <time>2021-06-01T10:53:16Z</time>
      </trkpt>
      <trkpt lat="45.70551" lon="6.63091">
        <ele>1345</ele>
        <time>2021-06-01T10:53:17Z</time>
      </trkpt>
      <trkpt lat="45.70547" lon="6.6309">
        <ele>1345.8</ele>
        <time>2021-06-01T10:53:18Z</time>
      </trkpt>
      <trkpt lat="45.70543" lon="6.63088">
        <ele>1346.4</ele>
        <time>2021-06-01T10:53:19Z</time>
      </trkpt>
      <trkpt lat="45.7054" lon="6.63084">
        <ele>1347</ele>
        <time>2021-06-01T10:53:20Z</time>
      </trkpt>
      <trkpt lat="45.70536" lon="6.63082">
        <ele>1347.4</ele>
        <time>2021-06-01T10:53:21Z</time>
      </trkpt>
      <trkpt lat="45.70532" lon="6.63079">
        <ele>1347.8</ele>
        <time>2021-06-01T10:53:22Z</time>
      </trkpt>
      <trkpt lat="45.70529" lon="6.63077">
        <ele>1347.4</ele>
        <time>2021-06-01T10:53:23Z</time>
      </trkpt>
      <trkpt lat="45.70526" lon="6.63075">
        <ele>1346.6</ele>
        <time>2021-06-01T10:53:24Z</time>
      </trkpt>
      <trkpt lat="45.70522" lon="6.63073">
        <ele>1345.8</ele>
        <time>2021-06-01T10:53:25Z</time>
      </trkpt>
      <trkpt lat="45.70519" lon="6.63072">
        <ele>1345</ele>
        <time>2021-06-01T10:53:26Z</time>
      </trkpt>
      <trkpt lat="45.70516" lon="6.63071">
        <ele>1344</ele>
        <time>2021-06-01T10:53:27Z</time>
      </trkpt>
      <trkpt lat="45.70512" lon="6.63072">
        <ele>1343</ele>
        <time>2021-06-01T10:53:28Z</time>
      </trkpt>
      <trkpt lat="45.70508" lon="6.63072">
        <ele>1342.2</ele>
        <time>2021-06-01T10:53:29Z</time>
      </trkpt>
      <trkpt lat="45.70505" lon="6.63071">
        <ele>1341.2</ele>
        <time>2021-06-01T10:53:30Z</time>
      </trkpt>
      <trkpt lat="45.70501" lon="6.63072">
        <ele>1341</ele>
        <time>2021-06-01T10:53:31Z</time>
      </trkpt>
      <trkpt lat="45.70498" lon="6.63072">
        <ele>1341.4</ele>
        <time>2021-06-01T10:53:32Z</time>
      </trkpt>
      <trkpt lat="45.70494" lon="6.63073">
        <ele>1342.4</ele>
        <time>2021-06-01T10:53:33Z</time>
      </trkpt>
      <trkpt lat="45.70491" lon="6.63075">
        <ele>1343.2</ele>
        <time>2021-06-01T10:53:34Z</time>
      </trkpt>
      <trkpt lat="45.70488" lon="6.63076">
        <ele>1344.2</ele>
        <time>2021-06-01T10:53:35Z</time>
      </trkpt>
      <trkpt lat="45.70486" lon="6.63077">
        <ele>1345</ele>
        <time>2021-06-01T10:53:36Z</time>
      </trkpt>
      <trkpt lat="45.70483" lon="6.63078">
        <ele>1345.8</ele>
        <time>2021-06-01T10:53:37Z</time>
      </trkpt>
      <trkpt lat="45.7048" lon="6.6308">
        <ele>1346.8</ele>
        <time>2021-06-01T10:53:38Z</time>
      </trkpt>
      <trkpt lat="45.70476" lon="6.63082">
        <ele>1347.8</ele>
        <time>2021-06-01T10:53:39Z</time>
      </trkpt>
      <trkpt lat="45.70474" lon="6.63083">
        <ele>1348</ele>
        <time>2021-06-01T10:53:40Z</time>
      </trkpt>
      <trkpt lat="45.70471" lon="6.63084">
        <ele>1348.2</ele>
        <time>2021-06-01T10:53:41Z</time>
      </trkpt>
      <trkpt lat="45.70468" lon="6.63085">
        <ele>1348.2</ele>
        <time>2021-06-01T10:53:42Z</time>
      </trkpt>
      <trkpt lat="45.70466" lon="6.63085">
        <ele>1348.6</ele>
        <time>2021-06-01T10:53:43Z</time>
      </trkpt>
      <trkpt lat="45.70463" lon="6.63084">
        <ele>1348.6</ele>
        <time>2021-06-01T10:53:44Z</time>
      </trkpt>
      <trkpt lat="45.7046" lon="6.63083">
        <ele>1349</ele>
        <time>2021-06-01T10:53:45Z</time>
      </trkpt>
      <trkpt lat="45.70458" lon="6.63083">
        <ele>1349.4</ele>
        <time>2021-06-01T10:53:46Z</time>
      </trkpt>
      <trkpt lat="45.70455" lon="6.63083">
        <ele>1349.8</ele>
        <time>2021-06-01T10:53:47Z</time>
      </trkpt>
      <trkpt lat="45.70453" lon="6.63083">
        <ele>1350.2</ele>
        <time>2021-06-01T10:53:48Z</time>
      </trkpt>
      <trkpt lat="45.7045" lon="6.63083">
        <ele>1350.8</ele>
        <time>2021-06-01T10:53:49Z</time>
      </trkpt>
      <trkpt lat="45.70448" lon="6.63084">
        <ele>1351.2</ele>
        <time>2021-06-01T10:53:50Z</time>
      </trkpt>
      <trkpt lat="45.70444" lon="6.63085">
        <ele>1351.4</ele>
        <time>2021-06-01T10:53:51Z</time>
      </trkpt>
      <trkpt lat="45.70441" lon="6.63085">
        <ele>1351.6</ele>
        <time>2021-06-01T10:53:52Z</time>
      </trkpt>
      <trkpt lat="45.70438" lon="6.63086">
        <ele>1352</ele>
        <time>2021-06-01T10:53:53Z</time>
      </trkpt>
      <trkpt lat="45.70435" lon="6.63087">
        <ele>1352.4</ele>
        <time>2021-06-01T10:53:54Z</time>
      </trkpt>
      <trkpt lat="45.70431" lon="6.63087">
        <ele>1352.8</ele>
        <time>2021-06-01T10:53:55Z</time>
      </trkpt>
      <trkpt lat="45.70427" lon="6.63088">
        <ele>1353.2</ele>
        <time>2021-06-01T10:53:56Z</time>
      </trkpt>
      <trkpt lat="45.70424" lon="6.63089">
        <ele>1353.6</ele>
        <time>2021-06-01T10:53:57Z</time>
      </trkpt>
      <trkpt lat="45.70421" lon="6.63089">
        <ele>1354</ele>
        <time>2021-06-01T10:53:58Z</time>
      </trkpt>
      <trkpt lat="45.70418" lon="6.6309">
        <ele>1354.2</ele>
        <time>2021-06-01T10:53:59Z</time>
      </trkpt>
      <trkpt lat="45.70414" lon="6.63091">
        <ele>1354.6</ele>
        <time>2021-06-01T10:54:00Z</time>
      </trkpt>
      <trkpt lat="45.70412" lon="6.63092">
        <ele>1355</ele>
        <time>2021-06-01T10:54:01Z</time>
      </trkpt>
      <trkpt lat="45.70409" lon="6.63093">
        <ele>1355.2</ele>
        <time>2021-06-01T10:54:02Z</time>
      </trkpt>
      <trkpt lat="45.70407" lon="6.63094">
        <ele>1355.6</ele>
        <time>2021-06-01T10:54:03Z</time>
      </trkpt>
      <trkpt lat="45.70405" lon="6.63095">
        <ele>1356</ele>
        <time>2021-06-01T10:54:04Z</time>
      </trkpt>
      <trkpt lat="45.70403" lon="6.63096">
        <ele>1356.4</ele>
        <time>2021-06-01T10:54:05Z</time>
      </trkpt>
      <trkpt lat="45.704" lon="6.63097">
        <ele>1356.8</ele>
        <time>2021-06-01T10:54:06Z</time>
      </trkpt>
      <trkpt lat="45.70397" lon="6.63098">
        <ele>1357</ele>
        <time>2021-06-01T10:54:07Z</time>
      </trkpt>
      <trkpt lat="45.70395" lon="6.63099">
        <ele>1357</ele>
        <time>2021-06-01T10:54:08Z</time>
      </trkpt>
      <trkpt lat="45.70392" lon="6.631">
        <ele>1357</ele>
        <time>2021-06-01T10:54:09Z</time>
      </trkpt>
      <trkpt lat="45.70389" lon="6.63101">
        <ele>1356.8</ele>
        <time>2021-06-01T10:54:10Z</time>
      </trkpt>
      <trkpt lat="45.70387" lon="6.63101">
        <ele>1356.4</ele>
        <time>2021-06-01T10:54:11Z</time>
      </trkpt>
      <trkpt lat="45.70385" lon="6.63102">
        <ele>1356</ele>
        <time>2021-06-01T10:54:12Z</time>
      </trkpt>
      <trkpt lat="45.70383" lon="6.63103">
        <ele>1355.4</ele>
        <time>2021-06-01T10:54:13Z</time>
      </trkpt>
      <trkpt lat="45.7038" lon="6.63104">
        <ele>1355.2</ele>
        <time>2021-06-01T10:54:14Z</time>
      </trkpt>
      <trkpt lat="45.70377" lon="6.63105">
        <ele>1354.8</ele>
        <time>2021-06-01T10:54:15Z</time>
      </trkpt>
      <trkpt lat="45.70374" lon="6.63106">
        <ele>1354.6</ele>
        <time>2021-06-01T10:54:16Z</time>
      </trkpt>
      <trkpt lat="45.70371" lon="6.63108">
        <ele>1354.4</ele>
        <time>2021-06-01T10:54:17Z</time>
      </trkpt>
      <trkpt lat="45.70368" lon="6.63109">
        <ele>1354.8</ele>
        <time>2021-06-01T10:54:18Z</time>
      </trkpt>
      <trkpt lat="45.70365" lon="6.63111">
        <ele>1355.2</ele>
        <time>2021-06-01T10:54:19Z</time>
      </trkpt>
      <trkpt lat="45.70363" lon="6.63113">
        <ele>1355.8</ele>
        <time>2021-06-01T10:54:20Z</time>
      </trkpt>
      <trkpt lat="45.70361" lon="6.63114">
        <ele>1356.6</ele>
        <time>2021-06-01T10:54:21Z</time>
      </trkpt>
      <trkpt lat="45.70358" lon="6.63116">
        <ele>1357.4</ele>
        <time>2021-06-01T10:54:22Z</time>
      </trkpt>
      <trkpt lat="45.70355" lon="6.63117">
        <ele>1358.2</ele>
        <time>2021-06-01T10:54:23Z</time>
      </trkpt>
      <trkpt lat="45.70352" lon="6.63118">
        <ele>1358.6</ele>
        <time>2021-06-01T10:54:24Z</time>
      </trkpt>
      <trkpt lat="45.70349" lon="6.63119">
        <ele>1358.8</ele>
        <time>2021-06-01T10:54:25Z</time>
      </trkpt>
      <trkpt lat="45.70347" lon="6.63119">
        <ele>1359.2</ele>
        <time>2021-06-01T10:54:26Z</time>
      </trkpt>
      <trkpt lat="45.70344" lon="6.63121">
        <ele>1359.4</ele>
        <time>2021-06-01T10:54:27Z</time>
      </trkpt>
      <trkpt lat="45.70342" lon="6.63122">
        <ele>1359.8</ele>
        <time>2021-06-01T10:54:28Z</time>
      </trkpt>
      <trkpt lat="45.7034" lon="6.63123">
        <ele>1360.2</ele>
        <time>2021-06-01T10:54:29Z</time>
      </trkpt>
      <trkpt lat="45.70338" lon="6.63125">
        <ele>1360.6</ele>
        <time>2021-06-01T10:54:30Z</time>
      </trkpt>
      <trkpt lat="45.70335" lon="6.63127">
        <ele>1361</ele>
        <time>2021-06-01T10:54:31Z</time>
      </trkpt>
      <trkpt lat="45.70332" lon="6.63128">
        <ele>1361.4</ele>
        <time>2021-06-01T10:54:32Z</time>
      </trkpt>
      <trkpt lat="45.70329" lon="6.6313">
        <ele>1361.8</ele>
        <time>2021-06-01T10:54:33Z</time>
      </trkpt>
      <trkpt lat="45.70327" lon="6.63131">
        <ele>1362</ele>
        <time>2021-06-01T10:54:34Z</time>
      </trkpt>
      <trkpt lat="45.70324" lon="6.63133">
        <ele>1362.6</ele>
        <time>2021-06-01T10:54:35Z</time>
      </trkpt>
      <trkpt lat="45.70321" lon="6.63134">
        <ele>1363</ele>
        <time>2021-06-01T10:54:36Z</time>
      </trkpt>
      <trkpt lat="45.70319" lon="6.63136">
        <ele>1363</ele>
        <time>2021-06-01T10:54:37Z</time>
      </trkpt>
      <trkpt lat="45.70317" lon="6.63136">
        <ele>1362.8</ele>
        <time>2021-06-01T10:54:38Z</time>
      </trkpt>
      <trkpt lat="45.70315" lon="6.63136">
        <ele>1362.2</ele>
        <time>2021-06-01T10:54:39Z</time>
      </trkpt>
      <trkpt lat="45.70311" lon="6.63135">
        <ele>1362</ele>
        <time>2021-06-01T10:54:40Z</time>
      </trkpt>
      <trkpt lat="45.70309" lon="6.63135">
        <ele>1362</ele>
        <time>2021-06-01T10:54:41Z</time>
      </trkpt>
      <trkpt lat="45.70305" lon="6.63135">
        <ele>1362</ele>
        <time>2021-06-01T10:54:42Z</time>
      </trkpt>
      <trkpt lat="45.70302" lon="6.63135">
        <ele>1362.4</ele>
        <time>2021-06-01T10:54:43Z</time>
      </trkpt>
      <trkpt lat="45.70299" lon="6.63135">
        <ele>1363</ele>
        <time>2021-06-01T10:54:44Z</time>
      </trkpt>
      <trkpt lat="45.70295" lon="6.63136">
        <ele>1363.8</ele>
        <time>2021-06-01T10:54:45Z</time>
      </trkpt>
      <trkpt lat="45.70292" lon="6.63136">
        <ele>1364.4</ele>
        <time>2021-06-01T10:54:46Z</time>
      </trkpt>
      <trkpt lat="45.70289" lon="6.63137">
        <ele>1364.8</ele>
        <time>2021-06-01T10:54:47Z</time>
      </trkpt>
      <trkpt lat="45.70285" lon="6.63138">
        <ele>1364.8</ele>
        <time>2021-06-01T10:54:48Z</time>
      </trkpt>
      <trkpt lat="45.70282" lon="6.63138">
        <ele>1364.8</ele>
        <time>2021-06-01T10:54:49Z</time>
      </trkpt>
      <trkpt lat="45.70278" lon="6.63138">
        <ele>1364.6</ele>
        <time>2021-06-01T10:54:50Z</time>
      </trkpt>
      <trkpt lat="45.70274" lon="6.63138">
        <ele>1364</ele>
        <time>2021-06-01T10:54:51Z</time>
      </trkpt>
      <trkpt lat="45.7027" lon="6.63139">
        <ele>1363.6</ele>
        <time>2021-06-01T10:54:52Z</time>
      </trkpt>
      <trkpt lat="45.70266" lon="6.63138">
        <ele>1363.8</ele>
        <time>2021-06-01T10:54:53Z</time>
      </trkpt>
      <trkpt lat="45.70263" lon="6.63139">
        <ele>1363.6</ele>
        <time>2021-06-01T10:54:54Z</time>
      </trkpt>
      <trkpt lat="45.7026" lon="6.6314">
        <ele>1363.6</ele>
        <time>2021-06-01T10:54:55Z</time>
      </trkpt>
      <trkpt lat="45.70257" lon="6.63141">
        <ele>1363.8</ele>
        <time>2021-06-01T10:54:56Z</time>
      </trkpt>
      <trkpt lat="45.70254" lon="6.63142">
        <ele>1364.2</ele>
        <time>2021-06-01T10:54:57Z</time>
      </trkpt>
      <trkpt lat="45.7025" lon="6.63143">
        <ele>1364</ele>
        <time>2021-06-01T10:54:58Z</time>
      </trkpt>
      <trkpt lat="45.70246" lon="6.63144">
        <ele>1363.6</ele>
        <time>2021-06-01T10:54:59Z</time>
      </trkpt>
      <trkpt lat="45.70244" lon="6.63146">
        <ele>1363</ele>
        <time>2021-06-01T10:55:00Z</time>
      </trkpt>
      <trkpt lat="45.70239" lon="6.63149">
        <ele>1362.4</ele>
        <time>2021-06-01T10:55:01Z</time>
      </trkpt>
      <trkpt lat="45.70235" lon="6.63151">
        <ele>1362</ele>
        <time>2021-06-01T10:55:02Z</time>
      </trkpt>
      <trkpt lat="45.7023" lon="6.63153">
        <ele>1361.6</ele>
        <time>2021-06-01T10:55:03Z</time>
      </trkpt>
      <trkpt lat="45.70226" lon="6.63154">
        <ele>1361</ele>
        <time>2021-06-01T10:55:04Z</time>
      </trkpt>
      <trkpt lat="45.70221" lon="6.63154">
        <ele>1360.8</ele>
        <time>2021-06-01T10:55:05Z</time>
      </trkpt>
      <trkpt lat="45.70217" lon="6.63155">
        <ele>1360.6</ele>
        <time>2021-06-01T10:55:06Z</time>
      </trkpt>
      <trkpt lat="45.70213" lon="6.63156">
        <ele>1360.8</ele>
        <time>2021-06-01T10:55:07Z</time>
      </trkpt>
      <trkpt lat="45.70209" lon="6.63155">
        <ele>1361</ele>
        <time>2021-06-01T10:55:08Z</time>
      </trkpt>
      <trkpt lat="45.70205" lon="6.63154">
        <ele>1361.2</ele>
        <time>2021-06-01T10:55:09Z</time>
      </trkpt>
      <trkpt lat="45.70201" lon="6.63154">
        <ele>1361.6</ele>
        <time>2021-06-01T10:55:10Z</time>
      </trkpt>
      <trkpt lat="45.70196" lon="6.63153">
        <ele>1361.8</ele>
        <time>2021-06-01T10:55:11Z</time>
      </trkpt>
      <trkpt lat="45.70192" lon="6.63152">
        <ele>1362.2</ele>
        <time>2021-06-01T10:55:12Z</time>
      </trkpt>
      <trkpt lat="45.70188" lon="6.6315">
        <ele>1362.4</ele>
        <time>2021-06-01T10:55:13Z</time>
      </trkpt>
      <trkpt lat="45.70183" lon="6.63147">
        <ele>1362.6</ele>
        <time>2021-06-01T10:55:14Z</time>
      </trkpt>
      <trkpt lat="45.70179" lon="6.63145">
        <ele>1362.8</ele>
        <time>2021-06-01T10:55:15Z</time>
      </trkpt>
      <trkpt lat="45.70175" lon="6.63142">
        <ele>1362.8</ele>
        <time>2021-06-01T10:55:16Z</time>
      </trkpt>
      <trkpt lat="45.70171" lon="6.63141">
        <ele>1363.2</ele>
        <time>2021-06-01T10:55:17Z</time>
      </trkpt>
      <trkpt lat="45.70167" lon="6.63138">
        <ele>1363.4</ele>
        <time>2021-06-01T10:55:18Z</time>
      </trkpt>
      <trkpt lat="45.70164" lon="6.63137">
        <ele>1363.6</ele>
        <time>2021-06-01T10:55:19Z</time>
      </trkpt>
      <trkpt lat="45.7016" lon="6.63136">
        <ele>1363.8</ele>
        <time>2021-06-01T10:55:20Z</time>
      </trkpt>
      <trkpt lat="45.70157" lon="6.63134">
        <ele>1364</ele>
        <time>2021-06-01T10:55:21Z</time>
      </trkpt>
      <trkpt lat="45.70153" lon="6.63132">
        <ele>1364</ele>
        <time>2021-06-01T10:55:22Z</time>
      </trkpt>
      <trkpt lat="45.7015" lon="6.6313">
        <ele>1364</ele>
        <time>2021-06-01T10:55:23Z</time>
      </trkpt>
      <trkpt lat="45.70147" lon="6.63129">
        <ele>1364</ele>
        <time>2021-06-01T10:55:24Z</time>
      </trkpt>
      <trkpt lat="45.70143" lon="6.63128">
        <ele>1364.2</ele>
        <time>2021-06-01T10:55:25Z</time>
      </trkpt>
      <trkpt lat="45.7014" lon="6.63126">
        <ele>1364</ele>
        <time>2021-06-01T10:55:26Z</time>
      </trkpt>
      <trkpt lat="45.70137" lon="6.63124">
        <ele>1364.2</ele>
        <time>2021-06-01T10:55:27Z</time>
      </trkpt>
      <trkpt lat="45.70133" lon="6.63123">
        <ele>1364.2</ele>
        <time>2021-06-01T10:55:28Z</time>
      </trkpt>
      <trkpt lat="45.7013" lon="6.63122">
        <ele>1364.2</ele>
        <time>2021-06-01T10:55:29Z</time>
      </trkpt>
      <trkpt lat="45.70126" lon="6.63121">
        <ele>1364.6</ele>
        <time>2021-06-01T10:55:30Z</time>
      </trkpt>
      <trkpt lat="45.70123" lon="6.6312">
        <ele>1364.8</ele>
        <time>2021-06-01T10:55:31Z</time>
      </trkpt>
      <trkpt lat="45.7012" lon="6.63118">
        <ele>1365</ele>
        <time>2021-06-01T10:55:32Z</time>
      </trkpt>
      <trkpt lat="45.70117" lon="6.63117">
        <ele>1365.2</ele>
        <time>2021-06-01T10:55:33Z</time>
      </trkpt>
      <trkpt lat="45.70114" lon="6.63116">
        <ele>1365.4</ele>
        <time>2021-06-01T10:55:34Z</time>
      </trkpt>
      <trkpt lat="45.7011" lon="6.63115">
        <ele>1365.8</ele>
        <time>2021-06-01T10:55:35Z</time>
      </trkpt>
      <trkpt lat="45.70107" lon="6.63113">
        <ele>1365.8</ele>
        <time>2021-06-01T10:55:36Z</time>
      </trkpt>
      <trkpt lat="45.70104" lon="6.63112">
        <ele>1365.8</ele>
        <time>2021-06-01T10:55:37Z</time>
      </trkpt>
      <trkpt lat="45.701" lon="6.63111">
        <ele>1365.8</ele>
        <time>2021-06-01T10:55:38Z</time>
      </trkpt>
      <trkpt lat="45.70097" lon="6.6311">
        <ele>1366</ele>
        <time>2021-06-01T10:55:39Z</time>
      </trkpt>
      <trkpt lat="45.70094" lon="6.63108">
        <ele>1366.2</ele>
        <time>2021-06-01T10:55:40Z</time>
      </trkpt>
      <trkpt lat="45.70091" lon="6.63108">
        <ele>1366.2</ele>
        <time>2021-06-01T10:55:41Z</time>
      </trkpt>
      <trkpt lat="45.70088" lon="6.63107">
        <ele>1366.4</ele>
        <time>2021-06-01T10:55:42Z</time>
      </trkpt>
      <trkpt lat="45.70084" lon="6.63106">
        <ele>1366.4</ele>
        <time>2021-06-01T10:55:43Z</time>
      </trkpt>
      <trkpt lat="45.70081" lon="6.63105">
        <ele>1366.4</ele>
        <time>2021-06-01T10:55:44Z</time>
      </trkpt>
      <trkpt lat="45.70078" lon="6.63104">
        <ele>1366.6</ele>
        <time>2021-06-01T10:55:45Z</time>
      </trkpt>
      <trkpt lat="45.70075" lon="6.63102">
        <ele>1366.6</ele>
        <time>2021-06-01T10:55:46Z</time>
      </trkpt>
      <trkpt lat="45.70071" lon="6.63101">
        <ele>1366.8</ele>
        <time>2021-06-01T10:55:47Z</time>
      </trkpt>
      <trkpt lat="45.70068" lon="6.631">
        <ele>1366.8</ele>
        <time>2021-06-01T10:55:48Z</time>
      </trkpt>
      <trkpt lat="45.70064" lon="6.63098">
        <ele>1366.8</ele>
        <time>2021-06-01T10:55:49Z</time>
      </trkpt>
      <trkpt lat="45.70061" lon="6.63096">
        <ele>1366.8</ele>
        <time>2021-06-01T10:55:50Z</time>
      </trkpt>
      <trkpt lat="45.70057" lon="6.63094">
        <ele>1366.8</ele>
        <time>2021-06-01T10:55:51Z</time>
      </trkpt>
      <trkpt lat="45.70053" lon="6.63092">
        <ele>1367</ele>
        <time>2021-06-01T10:55:52Z</time>
      </trkpt>
      <trkpt lat="45.7005" lon="6.6309">
        <ele>1367.2</ele>
        <time>2021-06-01T10:55:53Z</time>
      </trkpt>
      <trkpt lat="45.70047" lon="6.63088">
        <ele>1367.2</ele>
        <time>2021-06-01T10:55:54Z</time>
      </trkpt>
      <trkpt lat="45.70043" lon="6.63086">
        <ele>1367.4</ele>
        <time>2021-06-01T10:55:55Z</time>
      </trkpt>
      <trkpt lat="45.7004" lon="6.63084">
        <ele>1367.4</ele>
        <time>2021-06-01T10:55:56Z</time>
      </trkpt>
      <trkpt lat="45.70037" lon="6.63082">
        <ele>1367.8</ele>
        <time>2021-06-01T10:55:57Z</time>
      </trkpt>
      <trkpt lat="45.70034" lon="6.6308">
        <ele>1368</ele>
        <time>2021-06-01T10:55:58Z</time>
      </trkpt>
      <trkpt lat="45.70031" lon="6.63079">
        <ele>1368.2</ele>
        <time>2021-06-01T10:55:59Z</time>
      </trkpt>
      <trkpt lat="45.70027" lon="6.63078">
        <ele>1368.4</ele>
        <time>2021-06-01T10:56:00Z</time>
      </trkpt>
      <trkpt lat="45.70024" lon="6.63078">
        <ele>1368.8</ele>
        <time>2021-06-01T10:56:01Z</time>
      </trkpt>
      <trkpt lat="45.70021" lon="6.6308">
        <ele>1369.4</ele>
        <time>2021-06-01T10:56:02Z</time>
      </trkpt>
      <trkpt lat="45.7002" lon="6.63083">
        <ele>1370</ele>
        <time>2021-06-01T10:56:03Z</time>
      </trkpt>
      <trkpt lat="45.7002" lon="6.63087">
        <ele>1370.8</ele>
        <time>2021-06-01T10:56:04Z</time>
      </trkpt>
      <trkpt lat="45.70021" lon="6.63091">
        <ele>1371.6</ele>
        <time>2021-06-01T10:56:05Z</time>
      </trkpt>
      <trkpt lat="45.70023" lon="6.63094">
        <ele>1372.4</ele>
        <time>2021-06-01T10:56:06Z</time>
      </trkpt>
      <trkpt lat="45.70026" lon="6.63097">
        <ele>1373.2</ele>
        <time>2021-06-01T10:56:07Z</time>
      </trkpt>
      <trkpt lat="45.70028" lon="6.631">
        <ele>1374.2</ele>
        <time>2021-06-01T10:56:08Z</time>
      </trkpt>
      <trkpt lat="45.7003" lon="6.63104">
        <ele>1374.8</ele>
        <time>2021-06-01T10:56:09Z</time>
      </trkpt>
      <trkpt lat="45.70033" lon="6.63107">
        <ele>1375.2</ele>
        <time>2021-06-01T10:56:10Z</time>
      </trkpt>
      <trkpt lat="45.70035" lon="6.63111">
        <ele>1375.8</ele>
        <time>2021-06-01T10:56:11Z</time>
      </trkpt>
      <trkpt lat="45.70037" lon="6.63113">
        <ele>1376.2</ele>
        <time>2021-06-01T10:56:12Z</time>
      </trkpt>
      <trkpt lat="45.70039" lon="6.63116">
        <ele>1376.8</ele>
        <time>2021-06-01T10:56:13Z</time>
      </trkpt>
      <trkpt lat="45.70042" lon="6.63119">
        <ele>1377.4</ele>
        <time>2021-06-01T10:56:14Z</time>
      </trkpt>
      <trkpt lat="45.70044" lon="6.63122">
        <ele>1378</ele>
        <time>2021-06-01T10:56:15Z</time>
      </trkpt>
      <trkpt lat="45.70046" lon="6.63123">
        <ele>1378.6</ele>
        <time>2021-06-01T10:56:16Z</time>
      </trkpt>
      <trkpt lat="45.70049" lon="6.63125">
        <ele>1379.2</ele>
        <time>2021-06-01T10:56:17Z</time>
      </trkpt>
      <trkpt lat="45.70052" lon="6.63128">
        <ele>1379.8</ele>
        <time>2021-06-01T10:56:18Z</time>
      </trkpt>
      <trkpt lat="45.70055" lon="6.6313">
        <ele>1380.2</ele>
        <time>2021-06-01T10:56:19Z</time>
      </trkpt>
      <trkpt lat="45.70057" lon="6.63132">
        <ele>1381</ele>
        <time>2021-06-01T10:56:20Z</time>
      </trkpt>
      <trkpt lat="45.7006" lon="6.63133">
        <ele>1381.4</ele>
        <time>2021-06-01T10:56:21Z</time>
      </trkpt>
      <trkpt lat="45.70062" lon="6.63135">
        <ele>1382</ele>
        <time>2021-06-01T10:56:22Z</time>
      </trkpt>
      <trkpt lat="45.70064" lon="6.63137">
        <ele>1382.4</ele>
        <time>2021-06-01T10:56:23Z</time>
      </trkpt>
      <trkpt lat="45.70066" lon="6.6314">
        <ele>1383</ele>
        <time>2021-06-01T10:56:24Z</time>
      </trkpt>
      <trkpt lat="45.70068" lon="6.63144">
        <ele>1383.6</ele>
        <time>2021-06-01T10:56:25Z</time>
      </trkpt>
      <trkpt lat="45.7007" lon="6.63147">
        <ele>1384</ele>
        <time>2021-06-01T10:56:26Z</time>
      </trkpt>
      <trkpt lat="45.70073" lon="6.6315">
        <ele>1384</ele>
        <time>2021-06-01T10:56:27Z</time>
      </trkpt>
      <trkpt lat="45.70075" lon="6.63153">
        <ele>1384.2</ele>
        <time>2021-06-01T10:56:28Z</time>
      </trkpt>
      <trkpt lat="45.70076" lon="6.63155">
        <ele>1384.6</ele>
        <time>2021-06-01T10:56:29Z</time>
      </trkpt>
      <trkpt lat="45.70079" lon="6.63157">
        <ele>1385.2</ele>
        <time>2021-06-01T10:56:30Z</time>
      </trkpt>
      <trkpt lat="45.7008" lon="6.63159">
        <ele>1386</ele>
        <time>2021-06-01T10:56:31Z</time>
      </trkpt>
      <trkpt lat="45.70082" lon="6.6316">
        <ele>1387</ele>
        <time>2021-06-01T10:56:32Z</time>
      </trkpt>
      <trkpt lat="45.70084" lon="6.63161">
        <ele>1388</ele>
        <time>2021-06-01T10:56:33Z</time>
      </trkpt>
      <trkpt lat="45.70086" lon="6.63164">
        <ele>1389.2</ele>
        <time>2021-06-01T10:56:34Z</time>
      </trkpt>
      <trkpt lat="45.70089" lon="6.63166">
        <ele>1390.2</ele>
        <time>2021-06-01T10:56:35Z</time>
      </trkpt>
      <trkpt lat="45.70092" lon="6.63169">
        <ele>1391.2</ele>
        <time>2021-06-01T10:56:36Z</time>
      </trkpt>
      <trkpt lat="45.70095" lon="6.63171">
        <ele>1392.2</ele>
        <time>2021-06-01T10:56:37Z</time>
      </trkpt>
      <trkpt lat="45.70097" lon="6.63173">
        <ele>1393.2</ele>
        <time>2021-06-01T10:56:38Z</time>
      </trkpt>
      <trkpt lat="45.701" lon="6.63174">
        <ele>1394.2</ele>
        <time>2021-06-01T10:56:39Z</time>
      </trkpt>
      <trkpt lat="45.70102" lon="6.63175">
        <ele>1395</ele>
        <time>2021-06-01T10:56:40Z</time>
      </trkpt>
      <trkpt lat="45.70105" lon="6.63177">
        <ele>1395.8</ele>
        <time>2021-06-01T10:56:41Z</time>
      </trkpt>
      <trkpt lat="45.70107" lon="6.63179">
        <ele>1396.4</ele>
        <time>2021-06-01T10:56:42Z</time>
      </trkpt>
      <trkpt lat="45.7011" lon="6.6318">
        <ele>1397.2</ele>
        <time>2021-06-01T10:56:43Z</time>
      </trkpt>
      <trkpt lat="45.70113" lon="6.63179">
        <ele>1399</ele>
        <time>2021-06-01T10:56:45Z</time>
      </trkpt>
      <trkpt lat="45.70116" lon="6.63179">
        <ele>1399.8</ele>
        <time>2021-06-01T10:56:46Z</time>
      </trkpt>
      <trkpt lat="45.70118" lon="6.6318">
        <ele>1400.4</ele>
        <time>2021-06-01T10:56:47Z</time>
      </trkpt>
      <trkpt lat="45.70121" lon="6.63181">
        <ele>1401.2</ele>
        <time>2021-06-01T10:56:48Z</time>
      </trkpt>
      <trkpt lat="45.70124" lon="6.63183">
        <ele>1401.8</ele>
        <time>2021-06-01T10:56:49Z</time>
      </trkpt>
      <trkpt lat="45.70127" lon="6.63184">
        <ele>1402.6</ele>
        <time>2021-06-01T10:56:50Z</time>
      </trkpt>
      <trkpt lat="45.7013" lon="6.63186">
        <ele>1403</ele>
        <time>2021-06-01T10:56:51Z</time>
      </trkpt>
      <trkpt lat="45.70134" lon="6.63189">
        <ele>1403.6</ele>
        <time>2021-06-01T10:56:52Z</time>
      </trkpt>
      <trkpt lat="45.70137" lon="6.63191">
        <ele>1404</ele>
        <time>2021-06-01T10:56:53Z</time>
      </trkpt>
      <trkpt lat="45.7014" lon="6.63193">
        <ele>1404.6</ele>
        <time>2021-06-01T10:56:54Z</time>
      </trkpt>
      <trkpt lat="45.70143" lon="6.63196">
        <ele>1405.4</ele>
        <time>2021-06-01T10:56:55Z</time>
      </trkpt>
      <trkpt lat="45.70147" lon="6.63198">
        <ele>1405.2</ele>
        <time>2021-06-01T10:56:56Z</time>
      </trkpt>
      <trkpt lat="45.7015" lon="6.632">
        <ele>1405.2</ele>
        <time>2021-06-01T10:56:57Z</time>
      </trkpt>
      <trkpt lat="45.70153" lon="6.632">
        <ele>1405</ele>
        <time>2021-06-01T10:56:58Z</time>
      </trkpt>
      <trkpt lat="45.70156" lon="6.63202">
        <ele>1404.4</ele>
        <time>2021-06-01T10:56:59Z</time>
      </trkpt>
      <trkpt lat="45.70159" lon="6.63203">
        <ele>1403.8</ele>
        <time>2021-06-01T10:57:00Z</time>
      </trkpt>
      <trkpt lat="45.70163" lon="6.63204">
        <ele>1402.6</ele>
        <time>2021-06-01T10:57:01Z</time>
      </trkpt>
      <trkpt lat="45.70166" lon="6.63204">
        <ele>1401.6</ele>
        <time>2021-06-01T10:57:02Z</time>
      </trkpt>
      <trkpt lat="45.7017" lon="6.63204">
        <ele>1400.2</ele>
        <time>2021-06-01T10:57:03Z</time>
      </trkpt>
      <trkpt lat="45.70173" lon="6.63203">
        <ele>1399.2</ele>
        <time>2021-06-01T10:57:04Z</time>
      </trkpt>
      <trkpt lat="45.70177" lon="6.63203">
        <ele>1398</ele>
        <time>2021-06-01T10:57:05Z</time>
      </trkpt>
      <trkpt lat="45.7018" lon="6.63203">
        <ele>1397</ele>
        <time>2021-06-01T10:57:06Z</time>
      </trkpt>
      <trkpt lat="45.70184" lon="6.63203">
        <ele>1396.2</ele>
        <time>2021-06-01T10:57:07Z</time>
      </trkpt>
      <trkpt lat="45.70187" lon="6.63203">
        <ele>1395.6</ele>
        <time>2021-06-01T10:57:08Z</time>
      </trkpt>
      <trkpt lat="45.70191" lon="6.63203">
        <ele>1394.8</ele>
        <time>2021-06-01T10:57:09Z</time>
      </trkpt>
      <trkpt lat="45.70195" lon="6.63203">
        <ele>1394.2</ele>
        <time>2021-06-01T10:57:10Z</time>
      </trkpt>
      <trkpt lat="45.70198" lon="6.63203">
        <ele>1393.6</ele>
        <time>2021-06-01T10:57:11Z</time>
      </trkpt>
      <trkpt lat="45.70202" lon="6.63203">
        <ele>1393.2</ele>
        <time>2021-06-01T10:57:12Z</time>
      </trkpt>
      <trkpt lat="45.70205" lon="6.63204">
        <ele>1393</ele>
        <time>2021-06-01T10:57:13Z</time>
      </trkpt>
      <trkpt lat="45.70209" lon="6.63204">
        <ele>1392.8</ele>
        <time>2021-06-01T10:57:14Z</time>
      </trkpt>
      <trkpt lat="45.70212" lon="6.63205">
        <ele>1393</ele>
        <time>2021-06-01T10:57:15Z</time>
      </trkpt>
      <trkpt lat="45.70216" lon="6.63208">
        <ele>1393.2</ele>
        <time>2021-06-01T10:57:16Z</time>
      </trkpt>
      <trkpt lat="45.7022" lon="6.63209">
        <ele>1393.4</ele>
        <time>2021-06-01T10:57:17Z</time>
      </trkpt>
      <trkpt lat="45.70223" lon="6.6321">
        <ele>1393.8</ele>
        <time>2021-06-01T10:57:18Z</time>
      </trkpt>
      <trkpt lat="45.70227" lon="6.63212">
        <ele>1393.8</ele>
        <time>2021-06-01T10:57:19Z</time>
      </trkpt>
      <trkpt lat="45.7023" lon="6.63213">
        <ele>1394</ele>
        <time>2021-06-01T10:57:20Z</time>
      </trkpt>
      <trkpt lat="45.70233" lon="6.63213">
        <ele>1394.2</ele>
        <time>2021-06-01T10:57:21Z</time>
      </trkpt>
      <trkpt lat="45.70236" lon="6.63215">
        <ele>1394.6</ele>
        <time>2021-06-01T10:57:22Z</time>
      </trkpt>
      <trkpt lat="45.70238" lon="6.63216">
        <ele>1395</ele>
        <time>2021-06-01T10:57:23Z</time>
      </trkpt>
      <trkpt lat="45.70242" lon="6.63218">
        <ele>1395.4</ele>
        <time>2021-06-01T10:57:24Z</time>
      </trkpt>
      <trkpt lat="45.70244" lon="6.63219">
        <ele>1395.8</ele>
        <time>2021-06-01T10:57:25Z</time>
      </trkpt>
      <trkpt lat="45.70247" lon="6.63219">
        <ele>1396.2</ele>
        <time>2021-06-01T10:57:26Z</time>
      </trkpt>
      <trkpt lat="45.7025" lon="6.63219">
        <ele>1396.4</ele>
        <time>2021-06-01T10:57:27Z</time>
      </trkpt>
      <trkpt lat="45.70252" lon="6.6322">
        <ele>1396.6</ele>
        <time>2021-06-01T10:57:28Z</time>
      </trkpt>
      <trkpt lat="45.70255" lon="6.63219">
        <ele>1396.8</ele>
        <time>2021-06-01T10:57:29Z</time>
      </trkpt>
      <trkpt lat="45.70259" lon="6.63221">
        <ele>1397</ele>
        <time>2021-06-01T10:57:30Z</time>
      </trkpt>
      <trkpt lat="45.70262" lon="6.63222">
        <ele>1397.2</ele>
        <time>2021-06-01T10:57:31Z</time>
      </trkpt>
      <trkpt lat="45.70266" lon="6.63223">
        <ele>1397.6</ele>
        <time>2021-06-01T10:57:32Z</time>
      </trkpt>
      <trkpt lat="45.7027" lon="6.63224">
        <ele>1398.2</ele>
        <time>2021-06-01T10:57:33Z</time>
      </trkpt>
      <trkpt lat="45.70275" lon="6.63225">
        <ele>1398.8</ele>
        <time>2021-06-01T10:57:34Z</time>
      </trkpt>
      <trkpt lat="45.70279" lon="6.63226">
        <ele>1399.6</ele>
        <time>2021-06-01T10:57:35Z</time>
      </trkpt>
      <trkpt lat="45.70284" lon="6.63226">
        <ele>1399.8</ele>
        <time>2021-06-01T10:57:36Z</time>
      </trkpt>
      <trkpt lat="45.70287" lon="6.63227">
        <ele>1400.4</ele>
        <time>2021-06-01T10:57:37Z</time>
      </trkpt>
      <trkpt lat="45.70292" lon="6.63226">
        <ele>1400.6</ele>
        <time>2021-06-01T10:57:38Z</time>
      </trkpt>
      <trkpt lat="45.70296" lon="6.63226">
        <ele>1401.2</ele>
        <time>2021-06-01T10:57:39Z</time>
      </trkpt>
      <trkpt lat="45.703" lon="6.63226">
        <ele>1401.4</ele>
        <time>2021-06-01T10:57:40Z</time>
      </trkpt>
      <trkpt lat="45.70304" lon="6.63225">
        <ele>1401.8</ele>
        <time>2021-06-01T10:57:41Z</time>
      </trkpt>
      <trkpt lat="45.70308" lon="6.63225">
        <ele>1402</ele>
        <time>2021-06-01T10:57:42Z</time>
      </trkpt>
      <trkpt lat="45.70312" lon="6.63225">
        <ele>1402</ele>
        <time>2021-06-01T10:57:43Z</time>
      </trkpt>
      <trkpt lat="45.70316" lon="6.63224">
        <ele>1401.8</ele>
        <time>2021-06-01T10:57:44Z</time>
      </trkpt>
      <trkpt lat="45.7032" lon="6.63223">
        <ele>1402</ele>
        <time>2021-06-01T10:57:45Z</time>
      </trkpt>
      <trkpt lat="45.70324" lon="6.63222">
        <ele>1402.6</ele>
        <time>2021-06-01T10:57:46Z</time>
      </trkpt>
      <trkpt lat="45.70328" lon="6.63221">
        <ele>1403.6</ele>
        <time>2021-06-01T10:57:47Z</time>
      </trkpt>
      <trkpt lat="45.70332" lon="6.63221">
        <ele>1404.4</ele>
        <time>2021-06-01T10:57:48Z</time>
      </trkpt>
      <trkpt lat="45.70336" lon="6.6322">
        <ele>1405.6</ele>
        <time>2021-06-01T10:57:49Z</time>
      </trkpt>
      <trkpt lat="45.7034" lon="6.63219">
        <ele>1407</ele>
        <time>2021-06-01T10:57:50Z</time>
      </trkpt>
      <trkpt lat="45.70343" lon="6.63218">
        <ele>1408.2</ele>
        <time>2021-06-01T10:57:51Z</time>
      </trkpt>
      <trkpt lat="45.70347" lon="6.63217">
        <ele>1409.4</ele>
        <time>2021-06-01T10:57:52Z</time>
      </trkpt>
      <trkpt lat="45.7035" lon="6.63216">
        <ele>1410.2</ele>
        <time>2021-06-01T10:57:53Z</time>
      </trkpt>
      <trkpt lat="45.70354" lon="6.63216">
        <ele>1410.8</ele>
        <time>2021-06-01T10:57:54Z</time>
      </trkpt>
      <trkpt lat="45.70357" lon="6.63215">
        <ele>1411.2</ele>
        <time>2021-06-01T10:57:55Z</time>
      </trkpt>
      <trkpt lat="45.70361" lon="6.63214">
        <ele>1411.6</ele>
        <time>2021-06-01T10:57:56Z</time>
      </trkpt>
      <trkpt lat="45.70364" lon="6.63214">
        <ele>1411.8</ele>
        <time>2021-06-01T10:57:57Z</time>
      </trkpt>
      <trkpt lat="45.70367" lon="6.63214">
        <ele>1412</ele>
        <time>2021-06-01T10:57:58Z</time>
      </trkpt>
      <trkpt lat="45.70371" lon="6.63215">
        <ele>1412</ele>
        <time>2021-06-01T10:57:59Z</time>
      </trkpt>
      <trkpt lat="45.70373" lon="6.63216">
        <ele>1412.2</ele>
        <time>2021-06-01T10:58:00Z</time>
      </trkpt>
      <trkpt lat="45.70377" lon="6.63216">
        <ele>1412.2</ele>
        <time>2021-06-01T10:58:01Z</time>
      </trkpt>
      <trkpt lat="45.7038" lon="6.63217">
        <ele>1412.2</ele>
        <time>2021-06-01T10:58:02Z</time>
      </trkpt>
      <trkpt lat="45.70384" lon="6.63219">
        <ele>1412.6</ele>
        <time>2021-06-01T10:58:03Z</time>
      </trkpt>
      <trkpt lat="45.70387" lon="6.6322">
        <ele>1413</ele>
        <time>2021-06-01T10:58:04Z</time>
      </trkpt>
      <trkpt lat="45.7039" lon="6.63223">
        <ele>1413.6</ele>
        <time>2021-06-01T10:58:05Z</time>
      </trkpt>
      <trkpt lat="45.70393" lon="6.63226">
        <ele>1414.2</ele>
        <time>2021-06-01T10:58:06Z</time>
      </trkpt>
      <trkpt lat="45.70396" lon="6.63228">
        <ele>1415</ele>
        <time>2021-06-01T10:58:07Z</time>
      </trkpt>
      <trkpt lat="45.70398" lon="6.63231">
        <ele>1415.8</ele>
        <time>2021-06-01T10:58:08Z</time>
      </trkpt>
      <trkpt lat="45.70402" lon="6.63232">
        <ele>1416.4</ele>
        <time>2021-06-01T10:58:09Z</time>
      </trkpt>
      <trkpt lat="45.70405" lon="6.63234">
        <ele>1417</ele>
        <time>2021-06-01T10:58:10Z</time>
      </trkpt>
      <trkpt lat="45.70408" lon="6.63235">
        <ele>1417.8</ele>
        <time>2021-06-01T10:58:11Z</time>
      </trkpt>
      <trkpt lat="45.70412" lon="6.63235">
        <ele>1418.6</ele>
        <time>2021-06-01T10:58:12Z</time>
      </trkpt>
      <trkpt lat="45.70415" lon="6.63235">
        <ele>1419.2</ele>
        <time>2021-06-01T10:58:13Z</time>
      </trkpt>
      <trkpt lat="45.70418" lon="6.63235">
        <ele>1419.8</ele>
        <time>2021-06-01T10:58:14Z</time>
      </trkpt>
      <trkpt lat="45.70422" lon="6.63236">
        <ele>1419.6</ele>
        <time>2021-06-01T10:58:15Z</time>
      </trkpt>
      <trkpt lat="45.70425" lon="6.63236">
        <ele>1419.4</ele>
        <time>2021-06-01T10:58:16Z</time>
      </trkpt>
      <trkpt lat="45.70427" lon="6.63235">
        <ele>1419</ele>
        <time>2021-06-01T10:58:17Z</time>
      </trkpt>
      <trkpt lat="45.7043" lon="6.63235">
        <ele>1418.6</ele>
        <time>2021-06-01T10:58:18Z</time>
      </trkpt>
      <trkpt lat="45.70433" lon="6.63235">
        <ele>1418</ele>
        <time>2021-06-01T10:58:19Z</time>
      </trkpt>
      <trkpt lat="45.70436" lon="6.63235">
        <ele>1417.4</ele>
        <time>2021-06-01T10:58:20Z</time>
      </trkpt>
      <trkpt lat="45.7044" lon="6.63236">
        <ele>1417</ele>
        <time>2021-06-01T10:58:21Z</time>
      </trkpt>
      <trkpt lat="45.70443" lon="6.63236">
        <ele>1416.6</ele>
        <time>2021-06-01T10:58:22Z</time>
      </trkpt>
      <trkpt lat="45.70446" lon="6.63237">
        <ele>1416.2</ele>
        <time>2021-06-01T10:58:23Z</time>
      </trkpt>
      <trkpt lat="45.7045" lon="6.63238">
        <ele>1416</ele>
        <time>2021-06-01T10:58:24Z</time>
      </trkpt>
      <trkpt lat="45.70453" lon="6.63239">
        <ele>1415.8</ele>
        <time>2021-06-01T10:58:25Z</time>
      </trkpt>
      <trkpt lat="45.70456" lon="6.6324">
        <ele>1415.4</ele>
        <time>2021-06-01T10:58:26Z</time>
      </trkpt>
      <trkpt lat="45.70459" lon="6.63242">
        <ele>1415.4</ele>
        <time>2021-06-01T10:58:27Z</time>
      </trkpt>
      <trkpt lat="45.70461" lon="6.63243">
        <ele>1415.4</ele>
        <time>2021-06-01T10:58:28Z</time>
      </trkpt>
      <trkpt lat="45.70464" lon="6.63246">
        <ele>1415.2</ele>
        <time>2021-06-01T10:58:29Z</time>
      </trkpt>
      <trkpt lat="45.70467" lon="6.63249">
        <ele>1415</ele>
        <time>2021-06-01T10:58:30Z</time>
      </trkpt>
      <trkpt lat="45.7047" lon="6.63252">
        <ele>1415</ele>
        <time>2021-06-01T10:58:31Z</time>
      </trkpt>
      <trkpt lat="45.70472" lon="6.63255">
        <ele>1414.8</ele>
        <time>2021-06-01T10:58:32Z</time>
      </trkpt>
      <trkpt lat="45.70475" lon="6.63259">
        <ele>1415</ele>
        <time>2021-06-01T10:58:33Z</time>
      </trkpt>
      <trkpt lat="45.70478" lon="6.63262">
        <ele>1414.8</ele>
        <time>2021-06-01T10:58:34Z</time>
      </trkpt>
      <trkpt lat="45.7048" lon="6.63265">
        <ele>1415</ele>
        <time>2021-06-01T10:58:35Z</time>
      </trkpt>
      <trkpt lat="45.70483" lon="6.63268">
        <ele>1415</ele>
        <time>2021-06-01T10:58:36Z</time>
      </trkpt>
      <trkpt lat="45.70486" lon="6.63271">
        <ele>1415.2</ele>
        <time>2021-06-01T10:58:37Z</time>
      </trkpt>
      <trkpt lat="45.70488" lon="6.63274">
        <ele>1415.4</ele>
        <time>2021-06-01T10:58:38Z</time>
      </trkpt>
      <trkpt lat="45.70491" lon="6.63277">
        <ele>1415.6</ele>
        <time>2021-06-01T10:58:39Z</time>
      </trkpt>
      <trkpt lat="45.70493" lon="6.6328">
        <ele>1416</ele>
        <time>2021-06-01T10:58:40Z</time>
      </trkpt>
      <trkpt lat="45.70497" lon="6.63283">
        <ele>1416.2</ele>
        <time>2021-06-01T10:58:41Z</time>
      </trkpt>
      <trkpt lat="45.705" lon="6.63285">
        <ele>1416.4</ele>
        <time>2021-06-01T10:58:42Z</time>
      </trkpt>
      <trkpt lat="45.70504" lon="6.63288">
        <ele>1416.4</ele>
        <time>2021-06-01T10:58:43Z</time>
      </trkpt>
      <trkpt lat="45.70508" lon="6.63289">
        <ele>1416.8</ele>
        <time>2021-06-01T10:58:44Z</time>
      </trkpt>
      <trkpt lat="45.70512" lon="6.63292">
        <ele>1417.2</ele>
        <time>2021-06-01T10:58:45Z</time>
      </trkpt>
      <trkpt lat="45.70516" lon="6.63294">
        <ele>1417.4</ele>
        <time>2021-06-01T10:58:46Z</time>
      </trkpt>
      <trkpt lat="45.7052" lon="6.63296">
        <ele>1417.8</ele>
        <time>2021-06-01T10:58:47Z</time>
      </trkpt>
      <trkpt lat="45.70524" lon="6.63298">
        <ele>1418</ele>
        <time>2021-06-01T10:58:48Z</time>
      </trkpt>
      <trkpt lat="45.70527" lon="6.633">
        <ele>1418.2</ele>
        <time>2021-06-01T10:58:49Z</time>
      </trkpt>
      <trkpt lat="45.7053" lon="6.63302">
        <ele>1419</ele>
        <time>2021-06-01T10:58:50Z</time>
      </trkpt>
      <trkpt lat="45.70534" lon="6.63303">
        <ele>1420.6</ele>
        <time>2021-06-01T10:58:51Z</time>
      </trkpt>
      <trkpt lat="45.70536" lon="6.63305">
        <ele>1422.2</ele>
        <time>2021-06-01T10:58:52Z</time>
      </trkpt>
      <trkpt lat="45.7054" lon="6.63307">
        <ele>1423.8</ele>
        <time>2021-06-01T10:58:53Z</time>
      </trkpt>
      <trkpt lat="45.70543" lon="6.63307">
        <ele>1425.6</ele>
        <time>2021-06-01T10:58:54Z</time>
      </trkpt>
      <trkpt lat="45.70547" lon="6.63307">
        <ele>1427.6</ele>
        <time>2021-06-01T10:58:55Z</time>
      </trkpt>
      <trkpt lat="45.7055" lon="6.63308">
        <ele>1429.2</ele>
        <time>2021-06-01T10:58:56Z</time>
      </trkpt>
      <trkpt lat="45.70554" lon="6.63308">
        <ele>1430.6</ele>
        <time>2021-06-01T10:58:57Z</time>
      </trkpt>
      <trkpt lat="45.70557" lon="6.63307">
        <ele>1432</ele>
        <time>2021-06-01T10:58:58Z</time>
      </trkpt>
      <trkpt lat="45.7056" lon="6.63307">
        <ele>1433.4</ele>
        <time>2021-06-01T10:58:59Z</time>
      </trkpt>
      <trkpt lat="45.70563" lon="6.63306">
        <ele>1434.6</ele>
        <time>2021-06-01T10:59:00Z</time>
      </trkpt>
      <trkpt lat="45.70566" lon="6.63306">
        <ele>1435.8</ele>
        <time>2021-06-01T10:59:01Z</time>
      </trkpt>
      <trkpt lat="45.7057" lon="6.63307">
        <ele>1436.8</ele>
        <time>2021-06-01T10:59:02Z</time>
      </trkpt>
      <trkpt lat="45.70574" lon="6.63307">
        <ele>1437.8</ele>
        <time>2021-06-01T10:59:03Z</time>
      </trkpt>
      <trkpt lat="45.70578" lon="6.63306">
        <ele>1438.8</ele>
        <time>2021-06-01T10:59:04Z</time>
      </trkpt>
      <trkpt lat="45.70581" lon="6.63305">
        <ele>1439.6</ele>
        <time>2021-06-01T10:59:05Z</time>
      </trkpt>
      <trkpt lat="45.70585" lon="6.63305">
        <ele>1440.6</ele>
        <time>2021-06-01T10:59:06Z</time>
      </trkpt>
      <trkpt lat="45.70588" lon="6.63305">
        <ele>1441.4</ele>
        <time>2021-06-01T10:59:07Z</time>
      </trkpt>
      <trkpt lat="45.70591" lon="6.63305">
        <ele>1442</ele>
        <time>2021-06-01T10:59:08Z</time>
      </trkpt>
      <trkpt lat="45.70595" lon="6.63305">
        <ele>1442.8</ele>
        <time>2021-06-01T10:59:09Z</time>
      </trkpt>
      <trkpt lat="45.70598" lon="6.63306">
        <ele>1443.6</ele>
        <time>2021-06-01T10:59:10Z</time>
      </trkpt>
      <trkpt lat="45.70602" lon="6.63307">
        <ele>1444.2</ele>
        <time>2021-06-01T10:59:11Z</time>
      </trkpt>
      <trkpt lat="45.70605" lon="6.63308">
        <ele>1445</ele>
        <time>2021-06-01T10:59:12Z</time>
      </trkpt>
      <trkpt lat="45.70608" lon="6.63309">
        <ele>1445.8</ele>
        <time>2021-06-01T10:59:13Z</time>
      </trkpt>
      <trkpt lat="45.70612" lon="6.63309">
        <ele>1446.6</ele>
        <time>2021-06-01T10:59:14Z</time>
      </trkpt>
      <trkpt lat="45.70615" lon="6.6331">
        <ele>1447.4</ele>
        <time>2021-06-01T10:59:15Z</time>
      </trkpt>
      <trkpt lat="45.70619" lon="6.6331">
        <ele>1448.4</ele>
        <time>2021-06-01T10:59:16Z</time>
      </trkpt>
      <trkpt lat="45.70623" lon="6.6331">
        <ele>1449</ele>
        <time>2021-06-01T10:59:17Z</time>
      </trkpt>
      <trkpt lat="45.70626" lon="6.6331">
        <ele>1449.6</ele>
        <time>2021-06-01T10:59:18Z</time>
      </trkpt>
      <trkpt lat="45.70629" lon="6.6331">
        <ele>1450.2</ele>
        <time>2021-06-01T10:59:19Z</time>
      </trkpt>
      <trkpt lat="45.70633" lon="6.63309">
        <ele>1450.6</ele>
        <time>2021-06-01T10:59:20Z</time>
      </trkpt>
      <trkpt lat="45.70636" lon="6.63309">
        <ele>1451</ele>
        <time>2021-06-01T10:59:21Z</time>
      </trkpt>
      <trkpt lat="45.70639" lon="6.63309">
        <ele>1451.6</ele>
        <time>2021-06-01T10:59:22Z</time>
      </trkpt>
      <trkpt lat="45.70643" lon="6.63308">
        <ele>1452</ele>
        <time>2021-06-01T10:59:23Z</time>
      </trkpt>
      <trkpt lat="45.70646" lon="6.63307">
        <ele>1452.4</ele>
        <time>2021-06-01T10:59:24Z</time>
      </trkpt>
      <trkpt lat="45.70649" lon="6.63305">
        <ele>1452.6</ele>
        <time>2021-06-01T10:59:25Z</time>
      </trkpt>
      <trkpt lat="45.70653" lon="6.63303">
        <ele>1452.6</ele>
        <time>2021-06-01T10:59:26Z</time>
      </trkpt>
      <trkpt lat="45.70656" lon="6.63302">
        <ele>1452.8</ele>
        <time>2021-06-01T10:59:27Z</time>
      </trkpt>
      <trkpt lat="45.7066" lon="6.633">
        <ele>1453</ele>
        <time>2021-06-01T10:59:28Z</time>
      </trkpt>
      <trkpt lat="45.70664" lon="6.63298">
        <ele>1453.2</ele>
        <time>2021-06-01T10:59:29Z</time>
      </trkpt>
      <trkpt lat="45.70667" lon="6.63296">
        <ele>1453.4</ele>
        <time>2021-06-01T10:59:30Z</time>
      </trkpt>
      <trkpt lat="45.70671" lon="6.63295">
        <ele>1453.6</ele>
        <time>2021-06-01T10:59:31Z</time>
      </trkpt>
      <trkpt lat="45.70674" lon="6.63294">
        <ele>1453.8</ele>
        <time>2021-06-01T10:59:32Z</time>
      </trkpt>
      <trkpt lat="45.70678" lon="6.63293">
        <ele>1453.8</ele>
        <time>2021-06-01T10:59:33Z</time>
      </trkpt>
      <trkpt lat="45.70681" lon="6.63292">
        <ele>1454</ele>
        <time>2021-06-01T10:59:34Z</time>
      </trkpt>
      <trkpt lat="45.70686" lon="6.63291">
        <ele>1454</ele>
        <time>2021-06-01T10:59:35Z</time>
      </trkpt>
      <trkpt lat="45.70689" lon="6.63291">
        <ele>1454.4</ele>
        <time>2021-06-01T10:59:36Z</time>
      </trkpt>
      <trkpt lat="45.70693" lon="6.63292">
        <ele>1454.8</ele>
        <time>2021-06-01T10:59:37Z</time>
      </trkpt>
      <trkpt lat="45.70696" lon="6.63294">
        <ele>1455</ele>
        <time>2021-06-01T10:59:38Z</time>
      </trkpt>
      <trkpt lat="45.70698" lon="6.63298">
        <ele>1455.4</ele>
        <time>2021-06-01T10:59:39Z</time>
      </trkpt>
      <trkpt lat="45.70697" lon="6.63303">
        <ele>1455.8</ele>
        <time>2021-06-01T10:59:40Z</time>
      </trkpt>
      <trkpt lat="45.70697" lon="6.63307">
        <ele>1456.2</ele>
        <time>2021-06-01T10:59:41Z</time>
      </trkpt>
      <trkpt lat="45.70695" lon="6.6331">
        <ele>1456.8</ele>
        <time>2021-06-01T10:59:42Z</time>
      </trkpt>
      <trkpt lat="45.70692" lon="6.63312">
        <ele>1457</ele>
        <time>2021-06-01T10:59:43Z</time>
      </trkpt>
      <trkpt lat="45.70689" lon="6.63313">
        <ele>1457.4</ele>
        <time>2021-06-01T10:59:44Z</time>
      </trkpt>
      <trkpt lat="45.70685" lon="6.63314">
        <ele>1457.6</ele>
        <time>2021-06-01T10:59:45Z</time>
      </trkpt>
      <trkpt lat="45.70682" lon="6.63316">
        <ele>1457.8</ele>
        <time>2021-06-01T10:59:46Z</time>
      </trkpt>
      <trkpt lat="45.70678" lon="6.63316">
        <ele>1457.8</ele>
        <time>2021-06-01T10:59:47Z</time>
      </trkpt>
      <trkpt lat="45.70674" lon="6.63318">
        <ele>1457.8</ele>
        <time>2021-06-01T10:59:48Z</time>
      </trkpt>
      <trkpt lat="45.7067" lon="6.63319">
        <ele>1457.8</ele>
        <time>2021-06-01T10:59:49Z</time>
      </trkpt>
      <trkpt lat="45.70667" lon="6.63319">
        <ele>1457.8</ele>
        <time>2021-06-01T10:59:50Z</time>
      </trkpt>
      <trkpt lat="45.70663" lon="6.6332">
        <ele>1458</ele>
        <time>2021-06-01T10:59:51Z</time>
      </trkpt>
      <trkpt lat="45.7066" lon="6.63321">
        <ele>1458</ele>
        <time>2021-06-01T10:59:52Z</time>
      </trkpt>
      <trkpt lat="45.70657" lon="6.63322">
        <ele>1457.8</ele>
        <time>2021-06-01T10:59:53Z</time>
      </trkpt>
      <trkpt lat="45.70653" lon="6.63323">
        <ele>1457.8</ele>
        <time>2021-06-01T10:59:54Z</time>
      </trkpt>
      <trkpt lat="45.7065" lon="6.63325">
        <ele>1457.4</ele>
        <time>2021-06-01T10:59:55Z</time>
      </trkpt>
      <trkpt lat="45.70647" lon="6.63328">
        <ele>1457.4</ele>
        <time>2021-06-01T10:59:56Z</time>
      </trkpt>
      <trkpt lat="45.70644" lon="6.6333">
        <ele>1457.4</ele>
        <time>2021-06-01T10:59:57Z</time>
      </trkpt>
      <trkpt lat="45.70641" lon="6.63333">
        <ele>1457.6</ele>
        <time>2021-06-01T10:59:58Z</time>
      </trkpt>
      <trkpt lat="45.70637" lon="6.63334">
        <ele>1457.6</ele>
        <time>2021-06-01T10:59:59Z</time>
      </trkpt>
      <trkpt lat="45.70635" lon="6.63336">
        <ele>1457.6</ele>
        <time>2021-06-01T11:00:00Z</time>
      </trkpt>
      <trkpt lat="45.70631" lon="6.63338">
        <ele>1457.6</ele>
        <time>2021-06-01T11:00:01Z</time>
      </trkpt>
      <trkpt lat="45.70628" lon="6.63339">
        <ele>1457.8</ele>
        <time>2021-06-01T11:00:02Z</time>
      </trkpt>
      <trkpt lat="45.70625" lon="6.6334">
        <ele>1458</ele>
        <time>2021-06-01T11:00:03Z</time>
      </trkpt>
      <trkpt lat="45.70621" lon="6.63341">
        <ele>1458.4</ele>
        <time>2021-06-01T11:00:04Z</time>
      </trkpt>
      <trkpt lat="45.70618" lon="6.63342">
        <ele>1458.8</ele>
        <time>2021-06-01T11:00:05Z</time>
      </trkpt>
      <trkpt lat="45.70615" lon="6.63342">
        <ele>1458.8</ele>
        <time>2021-06-01T11:00:06Z</time>
      </trkpt>
      <trkpt lat="45.70612" lon="6.63343">
        <ele>1458.6</ele>
        <time>2021-06-01T11:00:07Z</time>
      </trkpt>
      <trkpt lat="45.70609" lon="6.63343">
        <ele>1458.4</ele>
        <time>2021-06-01T11:00:08Z</time>
      </trkpt>
      <trkpt lat="45.70606" lon="6.63344">
        <ele>1458</ele>
        <time>2021-06-01T11:00:09Z</time>
      </trkpt>
      <trkpt lat="45.70603" lon="6.63344">
        <ele>1457.6</ele>
        <time>2021-06-01T11:00:10Z</time>
      </trkpt>
      <trkpt lat="45.706" lon="6.63345">
        <ele>1457.8</ele>
        <time>2021-06-01T11:00:11Z</time>
      </trkpt>
      <trkpt lat="45.70597" lon="6.63345">
        <ele>1457.8</ele>
        <time>2021-06-01T11:00:12Z</time>
      </trkpt>
      <trkpt lat="45.70594" lon="6.63346">
        <ele>1457.4</ele>
        <time>2021-06-01T11:00:13Z</time>
      </trkpt>
      <trkpt lat="45.7059" lon="6.63346">
        <ele>1457</ele>
        <time>2021-06-01T11:00:14Z</time>
      </trkpt>
      <trkpt lat="45.70587" lon="6.63347">
        <ele>1457</ele>
        <time>2021-06-01T11:00:15Z</time>
      </trkpt>
      <trkpt lat="45.70583" lon="6.63347">
        <ele>1456.4</ele>
        <time>2021-06-01T11:00:16Z</time>
      </trkpt>
      <trkpt lat="45.7058" lon="6.63347">
        <ele>1456.2</ele>
        <time>2021-06-01T11:00:17Z</time>
      </trkpt>
      <trkpt lat="45.70577" lon="6.63348">
        <ele>1456.2</ele>
        <time>2021-06-01T11:00:18Z</time>
      </trkpt>
      <trkpt lat="45.70573" lon="6.63349">
        <ele>1456</ele>
        <time>2021-06-01T11:00:19Z</time>
      </trkpt>
      <trkpt lat="45.70569" lon="6.63351">
        <ele>1455.8</ele>
        <time>2021-06-01T11:00:20Z</time>
      </trkpt>
      <trkpt lat="45.70565" lon="6.63352">
        <ele>1455.6</ele>
        <time>2021-06-01T11:00:21Z</time>
      </trkpt>
      <trkpt lat="45.70562" lon="6.63353">
        <ele>1455.6</ele>
        <time>2021-06-01T11:00:22Z</time>
      </trkpt>
      <trkpt lat="45.70558" lon="6.63355">
        <ele>1455.6</ele>
        <time>2021-06-01T11:00:23Z</time>
      </trkpt>
      <trkpt lat="45.70554" lon="6.63356">
        <ele>1455.6</ele>
        <time>2021-06-01T11:00:24Z</time>
      </trkpt>
      <trkpt lat="45.70551" lon="6.63357">
        <ele>1455.6</ele>
        <time>2021-06-01T11:00:25Z</time>
      </trkpt>
      <trkpt lat="45.70548" lon="6.63358">
        <ele>1455.6</ele>
        <time>2021-06-01T11:00:26Z</time>
      </trkpt>
      <trkpt lat="45.70545" lon="6.63359">
        <ele>1455.8</ele>
        <time>2021-06-01T11:00:27Z</time>
      </trkpt>
      <trkpt lat="45.70541" lon="6.6336">
        <ele>1455.8</ele>
        <time>2021-06-01T11:00:28Z</time>
      </trkpt>
      <trkpt lat="45.70538" lon="6.63361">
        <ele>1455.8</ele>
        <time>2021-06-01T11:00:29Z</time>
      </trkpt>
      <trkpt lat="45.70534" lon="6.63362">
        <ele>1455.6</ele>
        <time>2021-06-01T11:00:30Z</time>
      </trkpt>
      <trkpt lat="45.70531" lon="6.63363">
        <ele>1455.6</ele>
        <time>2021-06-01T11:00:31Z</time>
      </trkpt>
      <trkpt lat="45.70528" lon="6.63364">
        <ele>1455.4</ele>
        <time>2021-06-01T11:00:32Z</time>
      </trkpt>
      <trkpt lat="45.70524" lon="6.63364">
        <ele>1455.6</ele>
        <time>2021-06-01T11:00:33Z</time>
      </trkpt>
      <trkpt lat="45.70521" lon="6.63364">
        <ele>1455.6</ele>
        <time>2021-06-01T11:00:34Z</time>
      </trkpt>
      <trkpt lat="45.70518" lon="6.63365">
        <ele>1455.6</ele>
        <time>2021-06-01T11:00:35Z</time>
      </trkpt>
      <trkpt lat="45.70515" lon="6.63365">
        <ele>1455.6</ele>
        <time>2021-06-01T11:00:36Z</time>
      </trkpt>
      <trkpt lat="45.70511" lon="6.63365">
        <ele>1456</ele>
        <time>2021-06-01T11:00:37Z</time>
      </trkpt>
      <trkpt lat="45.70508" lon="6.63364">
        <ele>1456</ele>
        <time>2021-06-01T11:00:38Z</time>
      </trkpt>
      <trkpt lat="45.70504" lon="6.63364">
        <ele>1456</ele>
        <time>2021-06-01T11:00:39Z</time>
      </trkpt>
      <trkpt lat="45.70501" lon="6.63364">
        <ele>1456.4</ele>
        <time>2021-06-01T11:00:40Z</time>
      </trkpt>
      <trkpt lat="45.70498" lon="6.63364">
        <ele>1456.6</ele>
        <time>2021-06-01T11:00:41Z</time>
      </trkpt>
      <trkpt lat="45.70494" lon="6.63364">
        <ele>1456.8</ele>
        <time>2021-06-01T11:00:42Z</time>
      </trkpt>
      <trkpt lat="45.70491" lon="6.63365">
        <ele>1457.2</ele>
        <time>2021-06-01T11:00:43Z</time>
      </trkpt>
      <trkpt lat="45.70488" lon="6.63365">
        <ele>1457.2</ele>
        <time>2021-06-01T11:00:44Z</time>
      </trkpt>
      <trkpt lat="45.70485" lon="6.63365">
        <ele>1457.2</ele>
        <time>2021-06-01T11:00:45Z</time>
      </trkpt>
      <trkpt lat="45.70482" lon="6.63364">
        <ele>1457</ele>
        <time>2021-06-01T11:00:46Z</time>
      </trkpt>
      <trkpt lat="45.70478" lon="6.63363">
        <ele>1457</ele>
        <time>2021-06-01T11:00:47Z</time>
      </trkpt>
      <trkpt lat="45.70475" lon="6.63363">
        <ele>1456.6</ele>
        <time>2021-06-01T11:00:48Z</time>
      </trkpt>
      <trkpt lat="45.70471" lon="6.63362">
        <ele>1456.4</ele>
        <time>2021-06-01T11:00:49Z</time>
      </trkpt>
      <trkpt lat="45.70468" lon="6.63361">
        <ele>1456.2</ele>
        <time>2021-06-01T11:00:50Z</time>
      </trkpt>
      <trkpt lat="45.70464" lon="6.63361">
        <ele>1456</ele>
        <time>2021-06-01T11:00:51Z</time>
      </trkpt>
      <trkpt lat="45.7046" lon="6.63361">
        <ele>1456.2</ele>
        <time>2021-06-01T11:00:52Z</time>
      </trkpt>
      <trkpt lat="45.70457" lon="6.63359">
        <ele>1456.8</ele>
        <time>2021-06-01T11:00:53Z</time>
      </trkpt>
      <trkpt lat="45.70454" lon="6.63358">
        <ele>1457.4</ele>
        <time>2021-06-01T11:00:54Z</time>
      </trkpt>
      <trkpt lat="45.7045" lon="6.63357">
        <ele>1458.2</ele>
        <time>2021-06-01T11:00:55Z</time>
      </trkpt>
      <trkpt lat="45.70447" lon="6.63356">
        <ele>1458.8</ele>
        <time>2021-06-01T11:00:56Z</time>
      </trkpt>
      <trkpt lat="45.70443" lon="6.63355">
        <ele>1459.4</ele>
        <time>2021-06-01T11:00:57Z</time>
      </trkpt>
      <trkpt lat="45.7044" lon="6.63354">
        <ele>1460</ele>
        <time>2021-06-01T11:00:58Z</time>
      </trkpt>
      <trkpt lat="45.70436" lon="6.63353">
        <ele>1460.8</ele>
        <time>2021-06-01T11:00:59Z</time>
      </trkpt>
      <trkpt lat="45.70432" lon="6.63352">
        <ele>1461.2</ele>
        <time>2021-06-01T11:01:00Z</time>
      </trkpt>
      <trkpt lat="45.70428" lon="6.63352">
        <ele>1461.6</ele>
        <time>2021-06-01T11:01:01Z</time>
      </trkpt>
      <trkpt lat="45.70424" lon="6.63352">
        <ele>1462</ele>
        <time>2021-06-01T11:01:02Z</time>
      </trkpt>
      <trkpt lat="45.7042" lon="6.63352">
        <ele>1462.2</ele>
        <time>2021-06-01T11:01:03Z</time>
      </trkpt>
      <trkpt lat="45.70417" lon="6.63352">
        <ele>1462.8</ele>
        <time>2021-06-01T11:01:04Z</time>
      </trkpt>
      <trkpt lat="45.70412" lon="6.63353">
        <ele>1463</ele>
        <time>2021-06-01T11:01:05Z</time>
      </trkpt>
      <trkpt lat="45.70407" lon="6.63354">
        <ele>1463.6</ele>
        <time>2021-06-01T11:01:06Z</time>
      </trkpt>
      <trkpt lat="45.70405" lon="6.63354">
        <ele>1464</ele>
        <time>2021-06-01T11:01:07Z</time>
      </trkpt>
      <trkpt lat="45.70402" lon="6.63355">
        <ele>1464.2</ele>
        <time>2021-06-01T11:01:08Z</time>
      </trkpt>
      <trkpt lat="45.70399" lon="6.63355">
        <ele>1464.6</ele>
        <time>2021-06-01T11:01:09Z</time>
      </trkpt>
      <trkpt lat="45.70396" lon="6.63357">
        <ele>1466</ele>
        <time>2021-06-01T11:01:11Z</time>
      </trkpt>
      <trkpt lat="45.70393" lon="6.63357">
        <ele>1466.2</ele>
        <time>2021-06-01T11:01:12Z</time>
      </trkpt>
      <trkpt lat="45.70391" lon="6.63358">
        <ele>1466.6</ele>
        <time>2021-06-01T11:01:13Z</time>
      </trkpt>
      <trkpt lat="45.70388" lon="6.63358">
        <ele>1466.8</ele>
        <time>2021-06-01T11:01:14Z</time>
      </trkpt>
      <trkpt lat="45.70384" lon="6.63359">
        <ele>1467.4</ele>
        <time>2021-06-01T11:01:15Z</time>
      </trkpt>
      <trkpt lat="45.7038" lon="6.63359">
        <ele>1467.8</ele>
        <time>2021-06-01T11:01:16Z</time>
      </trkpt>
      <trkpt lat="45.70377" lon="6.63359">
        <ele>1468.2</ele>
        <time>2021-06-01T11:01:17Z</time>
      </trkpt>
      <trkpt lat="45.70373" lon="6.63359">
        <ele>1468.8</ele>
        <time>2021-06-01T11:01:18Z</time>
      </trkpt>
      <trkpt lat="45.7037" lon="6.63358">
        <ele>1469.4</ele>
        <time>2021-06-01T11:01:19Z</time>
      </trkpt>
      <trkpt lat="45.70366" lon="6.63357">
        <ele>1470.2</ele>
        <time>2021-06-01T11:01:20Z</time>
      </trkpt>
      <trkpt lat="45.70363" lon="6.63356">
        <ele>1470.4</ele>
        <time>2021-06-01T11:01:21Z</time>
      </trkpt>
      <trkpt lat="45.7036" lon="6.63355">
        <ele>1471.2</ele>
        <time>2021-06-01T11:01:22Z</time>
      </trkpt>
      <trkpt lat="45.70357" lon="6.63354">
        <ele>1471.6</ele>
        <time>2021-06-01T11:01:23Z</time>
      </trkpt>
      <trkpt lat="45.70353" lon="6.63353">
        <ele>1472.2</ele>
        <time>2021-06-01T11:01:24Z</time>
      </trkpt>
      <trkpt lat="45.7035" lon="6.63352">
        <ele>1472.6</ele>
        <time>2021-06-01T11:01:25Z</time>
      </trkpt>
      <trkpt lat="45.70347" lon="6.63351">
        <ele>1473.2</ele>
        <time>2021-06-01T11:01:26Z</time>
      </trkpt>
      <trkpt lat="45.70343" lon="6.6335">
        <ele>1473.8</ele>
        <time>2021-06-01T11:01:27Z</time>
      </trkpt>
      <trkpt lat="45.70339" lon="6.63349">
        <ele>1474.4</ele>
        <time>2021-06-01T11:01:28Z</time>
      </trkpt>
      <trkpt lat="45.70335" lon="6.63348">
        <ele>1475.2</ele>
        <time>2021-06-01T11:01:29Z</time>
      </trkpt>
      <trkpt lat="45.70332" lon="6.63346">
        <ele>1476.2</ele>
        <time>2021-06-01T11:01:30Z</time>
      </trkpt>
      <trkpt lat="45.70328" lon="6.63345">
        <ele>1477</ele>
        <time>2021-06-01T11:01:31Z</time>
      </trkpt>
      <trkpt lat="45.70325" lon="6.63345">
        <ele>1477.8</ele>
        <time>2021-06-01T11:01:32Z</time>
      </trkpt>
      <trkpt lat="45.70322" lon="6.63345">
        <ele>1478.6</ele>
        <time>2021-06-01T11:01:33Z</time>
      </trkpt>
      <trkpt lat="45.70319" lon="6.63344">
        <ele>1479.4</ele>
        <time>2021-06-01T11:01:34Z</time>
      </trkpt>
      <trkpt lat="45.70317" lon="6.63344">
        <ele>1480.6</ele>
        <time>2021-06-01T11:01:35Z</time>
      </trkpt>
      <trkpt lat="45.70314" lon="6.63344">
        <ele>1481.2</ele>
        <time>2021-06-01T11:01:36Z</time>
      </trkpt>
      <trkpt lat="45.70311" lon="6.63344">
        <ele>1481.8</ele>
        <time>2021-06-01T11:01:37Z</time>
      </trkpt>
      <trkpt lat="45.70308" lon="6.63344">
        <ele>1482.6</ele>
        <time>2021-06-01T11:01:38Z</time>
      </trkpt>
      <trkpt lat="45.70305" lon="6.63345">
        <ele>1483.2</ele>
        <time>2021-06-01T11:01:39Z</time>
      </trkpt>
      <trkpt lat="45.70302" lon="6.63346">
        <ele>1483.8</ele>
        <time>2021-06-01T11:01:40Z</time>
      </trkpt>
      <trkpt lat="45.70299" lon="6.63346">
        <ele>1484</ele>
        <time>2021-06-01T11:01:41Z</time>
      </trkpt>
      <trkpt lat="45.70296" lon="6.63347">
        <ele>1484</ele>
        <time>2021-06-01T11:01:42Z</time>
      </trkpt>
      <trkpt lat="45.70292" lon="6.63349">
        <ele>1484.2</ele>
        <time>2021-06-01T11:01:43Z</time>
      </trkpt>
      <trkpt lat="45.70288" lon="6.6335">
        <ele>1483.8</ele>
        <time>2021-06-01T11:01:44Z</time>
      </trkpt>
      <trkpt lat="45.70284" lon="6.63352">
        <ele>1483.4</ele>
        <time>2021-06-01T11:01:45Z</time>
      </trkpt>
      <trkpt lat="45.7028" lon="6.63354">
        <ele>1482.8</ele>
        <time>2021-06-01T11:01:46Z</time>
      </trkpt>
      <trkpt lat="45.70276" lon="6.63355">
        <ele>1482.4</ele>
        <time>2021-06-01T11:01:47Z</time>
      </trkpt>
      <trkpt lat="45.70272" lon="6.63357">
        <ele>1482</ele>
        <time>2021-06-01T11:01:48Z</time>
      </trkpt>
      <trkpt lat="45.70268" lon="6.63357">
        <ele>1481.6</ele>
        <time>2021-06-01T11:01:49Z</time>
      </trkpt>
      <trkpt lat="45.70265" lon="6.63359">
        <ele>1481.2</ele>
        <time>2021-06-01T11:01:50Z</time>
      </trkpt>
      <trkpt lat="45.70261" lon="6.6336">
        <ele>1480.8</ele>
        <time>2021-06-01T11:01:51Z</time>
      </trkpt>
      <trkpt lat="45.70258" lon="6.63361">
        <ele>1480.4</ele>
        <time>2021-06-01T11:01:52Z</time>
      </trkpt>
      <trkpt lat="45.70254" lon="6.63362">
        <ele>1479.8</ele>
        <time>2021-06-01T11:01:53Z</time>
      </trkpt>
      <trkpt lat="45.70251" lon="6.63362">
        <ele>1479.4</ele>
        <time>2021-06-01T11:01:54Z</time>
      </trkpt>
      <trkpt lat="45.70247" lon="6.63363">
        <ele>1479.4</ele>
        <time>2021-06-01T11:01:55Z</time>
      </trkpt>
      <trkpt lat="45.70244" lon="6.63364">
        <ele>1479.4</ele>
        <time>2021-06-01T11:01:56Z</time>
      </trkpt>
      <trkpt lat="45.7024" lon="6.63365">
        <ele>1479.6</ele>
        <time>2021-06-01T11:01:57Z</time>
      </trkpt>
      <trkpt lat="45.70236" lon="6.63365">
        <ele>1479.8</ele>
        <time>2021-06-01T11:01:58Z</time>
      </trkpt>
      <trkpt lat="45.70233" lon="6.63367">
        <ele>1480</ele>
        <time>2021-06-01T11:01:59Z</time>
      </trkpt>
      <trkpt lat="45.70229" lon="6.63367">
        <ele>1480.4</ele>
        <time>2021-06-01T11:02:00Z</time>
      </trkpt>
      <trkpt lat="45.70226" lon="6.63367">
        <ele>1480.6</ele>
        <time>2021-06-01T11:02:01Z</time>
      </trkpt>
      <trkpt lat="45.70223" lon="6.63368">
        <ele>1480.4</ele>
        <time>2021-06-01T11:02:02Z</time>
      </trkpt>
      <trkpt lat="45.7022" lon="6.63368">
        <ele>1480.6</ele>
        <time>2021-06-01T11:02:03Z</time>
      </trkpt>
      <trkpt lat="45.70216" lon="6.63369">
        <ele>1480.6</ele>
        <time>2021-06-01T11:02:04Z</time>
      </trkpt>
      <trkpt lat="45.70213" lon="6.6337">
        <ele>1480.6</ele>
        <time>2021-06-01T11:02:05Z</time>
      </trkpt>
      <trkpt lat="45.7021" lon="6.6337">
        <ele>1480.6</ele>
        <time>2021-06-01T11:02:06Z</time>
      </trkpt>
      <trkpt lat="45.70207" lon="6.63371">
        <ele>1480.4</ele>
        <time>2021-06-01T11:02:07Z</time>
      </trkpt>
      <trkpt lat="45.70204" lon="6.63372">
        <ele>1480.6</ele>
        <time>2021-06-01T11:02:08Z</time>
      </trkpt>
      <trkpt lat="45.702" lon="6.63373">
        <ele>1480.8</ele>
        <time>2021-06-01T11:02:09Z</time>
      </trkpt>
      <trkpt lat="45.70197" lon="6.63373">
        <ele>1481.2</ele>
        <time>2021-06-01T11:02:10Z</time>
      </trkpt>
      <trkpt lat="45.70194" lon="6.63374">
        <ele>1481.6</ele>
        <time>2021-06-01T11:02:11Z</time>
      </trkpt>
      <trkpt lat="45.7019" lon="6.63373">
        <ele>1481.8</ele>
        <time>2021-06-01T11:02:12Z</time>
      </trkpt>
      <trkpt lat="45.70187" lon="6.63374">
        <ele>1482.2</ele>
        <time>2021-06-01T11:02:13Z</time>
      </trkpt>
      <trkpt lat="45.70183" lon="6.63375">
        <ele>1482.6</ele>
        <time>2021-06-01T11:02:14Z</time>
      </trkpt>
      <trkpt lat="45.7018" lon="6.63376">
        <ele>1483</ele>
        <time>2021-06-01T11:02:15Z</time>
      </trkpt>
      <trkpt lat="45.70176" lon="6.63376">
        <ele>1483.2</ele>
        <time>2021-06-01T11:02:16Z</time>
      </trkpt>
      <trkpt lat="45.70172" lon="6.63377">
        <ele>1483.4</ele>
        <time>2021-06-01T11:02:17Z</time>
      </trkpt>
      <trkpt lat="45.7017" lon="6.63377">
        <ele>1483.4</ele>
        <time>2021-06-01T11:02:18Z</time>
      </trkpt>
      <trkpt lat="45.70166" lon="6.63377">
        <ele>1483.4</ele>
        <time>2021-06-01T11:02:19Z</time>
      </trkpt>
      <trkpt lat="45.70162" lon="6.63377">
        <ele>1483.4</ele>
        <time>2021-06-01T11:02:20Z</time>
      </trkpt>
      <trkpt lat="45.70159" lon="6.63378">
        <ele>1483.2</ele>
        <time>2021-06-01T11:02:21Z</time>
      </trkpt>
      <trkpt lat="45.70156" lon="6.63379">
        <ele>1483.2</ele>
        <time>2021-06-01T11:02:22Z</time>
      </trkpt>
      <trkpt lat="45.70153" lon="6.63379">
        <ele>1483.2</ele>
        <time>2021-06-01T11:02:23Z</time>
      </trkpt>
      <trkpt lat="45.7015" lon="6.63379">
        <ele>1483.2</ele>
        <time>2021-06-01T11:02:24Z</time>
      </trkpt>
      <trkpt lat="45.70147" lon="6.6338">
        <ele>1483.2</ele>
        <time>2021-06-01T11:02:25Z</time>
      </trkpt>
      <trkpt lat="45.70143" lon="6.6338">
        <ele>1482.8</ele>
        <time>2021-06-01T11:02:26Z</time>
      </trkpt>
      <trkpt lat="45.7014" lon="6.63381">
        <ele>1482.6</ele>
        <time>2021-06-01T11:02:27Z</time>
      </trkpt>
      <trkpt lat="45.70137" lon="6.63381">
        <ele>1482.4</ele>
        <time>2021-06-01T11:02:28Z</time>
      </trkpt>
      <trkpt lat="45.70134" lon="6.63382">
        <ele>1482.4</ele>
        <time>2021-06-01T11:02:29Z</time>
      </trkpt>
      <trkpt lat="45.7013" lon="6.63383">
        <ele>1482.4</ele>
        <time>2021-06-01T11:02:30Z</time>
      </trkpt>
      <trkpt lat="45.70127" lon="6.63383">
        <ele>1482.2</ele>
        <time>2021-06-01T11:02:31Z</time>
      </trkpt>
      <trkpt lat="45.70123" lon="6.63384">
        <ele>1482</ele>
        <time>2021-06-01T11:02:32Z</time>
      </trkpt>
      <trkpt lat="45.7012" lon="6.63384">
        <ele>1482</ele>
        <time>2021-06-01T11:02:33Z</time>
      </trkpt>
      <trkpt lat="45.70116" lon="6.63384">
        <ele>1481.8</ele>
        <time>2021-06-01T11:02:34Z</time>
      </trkpt>
      <trkpt lat="45.70113" lon="6.63385">
        <ele>1481.8</ele>
        <time>2021-06-01T11:02:35Z</time>
      </trkpt>
      <trkpt lat="45.70109" lon="6.63386">
        <ele>1481.8</ele>
        <time>2021-06-01T11:02:36Z</time>
      </trkpt>
      <trkpt lat="45.70107" lon="6.63386">
        <ele>1482</ele>
        <time>2021-06-01T11:02:37Z</time>
      </trkpt>
      <trkpt lat="45.70103" lon="6.63386">
        <ele>1482</ele>
        <time>2021-06-01T11:02:38Z</time>
      </trkpt>
      <trkpt lat="45.701" lon="6.63386">
        <ele>1482.4</ele>
        <time>2021-06-01T11:02:39Z</time>
      </trkpt>
      <trkpt lat="45.70097" lon="6.63386">
        <ele>1482.4</ele>
        <time>2021-06-01T11:02:40Z</time>
      </trkpt>
      <trkpt lat="45.70093" lon="6.63386">
        <ele>1482.4</ele>
        <time>2021-06-01T11:02:41Z</time>
      </trkpt>
      <trkpt lat="45.70089" lon="6.63387">
        <ele>1482.2</ele>
        <time>2021-06-01T11:02:42Z</time>
      </trkpt>
      <trkpt lat="45.70085" lon="6.63387">
        <ele>1482.2</ele>
        <time>2021-06-01T11:02:43Z</time>
      </trkpt>
      <trkpt lat="45.70082" lon="6.63387">
        <ele>1482</ele>
        <time>2021-06-01T11:02:44Z</time>
      </trkpt>
      <trkpt lat="45.70079" lon="6.63388">
        <ele>1482</ele>
        <time>2021-06-01T11:02:45Z</time>
      </trkpt>
      <trkpt lat="45.70076" lon="6.63388">
        <ele>1482</ele>
        <time>2021-06-01T11:02:46Z</time>
      </trkpt>
      <trkpt lat="45.70073" lon="6.63389">
        <ele>1482</ele>
        <time>2021-06-01T11:02:47Z</time>
      </trkpt>
      <trkpt lat="45.70071" lon="6.6339">
        <ele>1481.8</ele>
        <time>2021-06-01T11:02:48Z</time>
      </trkpt>
      <trkpt lat="45.70068" lon="6.6339">
        <ele>1481.8</ele>
        <time>2021-06-01T11:02:49Z</time>
      </trkpt>
      <trkpt lat="45.70065" lon="6.63389">
        <ele>1482</ele>
        <time>2021-06-01T11:02:50Z</time>
      </trkpt>
      <trkpt lat="45.70062" lon="6.63389">
        <ele>1482</ele>
        <time>2021-06-01T11:02:51Z</time>
      </trkpt>
      <trkpt lat="45.7006" lon="6.63389">
        <ele>1481.8</ele>
        <time>2021-06-01T11:02:52Z</time>
      </trkpt>
      <trkpt lat="45.70057" lon="6.63389">
        <ele>1481.8</ele>
        <time>2021-06-01T11:02:53Z</time>
      </trkpt>
      <trkpt lat="45.70054" lon="6.6339">
        <ele>1481.8</ele>
        <time>2021-06-01T11:02:54Z</time>
      </trkpt>
      <trkpt lat="45.70051" lon="6.6339">
        <ele>1481.8</ele>
        <time>2021-06-01T11:02:55Z</time>
      </trkpt>
      <trkpt lat="45.70049" lon="6.6339">
        <ele>1481.8</ele>
        <time>2021-06-01T11:02:56Z</time>
      </trkpt>
      <trkpt lat="45.70045" lon="6.6339">
        <ele>1481.8</ele>
        <time>2021-06-01T11:02:57Z</time>
      </trkpt>
      <trkpt lat="45.70043" lon="6.6339">
        <ele>1482</ele>
        <time>2021-06-01T11:02:58Z</time>
      </trkpt>
      <trkpt lat="45.70041" lon="6.6339">
        <ele>1482.4</ele>
        <time>2021-06-01T11:02:59Z</time>
      </trkpt>
      <trkpt lat="45.70038" lon="6.63389">
        <ele>1483</ele>
        <time>2021-06-01T11:03:00Z</time>
      </trkpt>
      <trkpt lat="45.70036" lon="6.63389">
        <ele>1483.6</ele>
        <time>2021-06-01T11:03:01Z</time>
      </trkpt>
      <trkpt lat="45.70033" lon="6.63389">
        <ele>1483.6</ele>
        <time>2021-06-01T11:03:02Z</time>
      </trkpt>
      <trkpt lat="45.7003" lon="6.63389">
        <ele>1484.2</ele>
        <time>2021-06-01T11:03:03Z</time>
      </trkpt>
      <trkpt lat="45.70027" lon="6.6339">
        <ele>1484.4</ele>
        <time>2021-06-01T11:03:04Z</time>
      </trkpt>
      <trkpt lat="45.70024" lon="6.63391">
        <ele>1484.8</ele>
        <time>2021-06-01T11:03:05Z</time>
      </trkpt>
      <trkpt lat="45.70021" lon="6.63391">
        <ele>1485</ele>
        <time>2021-06-01T11:03:06Z</time>
      </trkpt>
      <trkpt lat="45.70018" lon="6.63391">
        <ele>1485.6</ele>
        <time>2021-06-01T11:03:07Z</time>
      </trkpt>
      <trkpt lat="45.70015" lon="6.63392">
        <ele>1485.8</ele>
        <time>2021-06-01T11:03:08Z</time>
      </trkpt>
      <trkpt lat="45.70012" lon="6.63392">
        <ele>1485.8</ele>
        <time>2021-06-01T11:03:09Z</time>
      </trkpt>
      <trkpt lat="45.70009" lon="6.63392">
        <ele>1486</ele>
        <time>2021-06-01T11:03:10Z</time>
      </trkpt>
      <trkpt lat="45.70006" lon="6.63392">
        <ele>1486.6</ele>
        <time>2021-06-01T11:03:11Z</time>
      </trkpt>
      <trkpt lat="45.70004" lon="6.63392">
        <ele>1487.4</ele>
        <time>2021-06-01T11:03:12Z</time>
      </trkpt>
      <trkpt lat="45.7" lon="6.63392">
        <ele>1488</ele>
        <time>2021-06-01T11:03:13Z</time>
      </trkpt>
      <trkpt lat="45.69997" lon="6.63392">
        <ele>1488.4</ele>
        <time>2021-06-01T11:03:14Z</time>
      </trkpt>
      <trkpt lat="45.69994" lon="6.63391">
        <ele>1489.2</ele>
        <time>2021-06-01T11:03:15Z</time>
      </trkpt>
      <trkpt lat="45.6999" lon="6.63391">
        <ele>1489.8</ele>
        <time>2021-06-01T11:03:16Z</time>
      </trkpt>
      <trkpt lat="45.69986" lon="6.63389">
        <ele>1490</ele>
        <time>2021-06-01T11:03:17Z</time>
      </trkpt>
      <trkpt lat="45.69982" lon="6.63389">
        <ele>1490.2</ele>
        <time>2021-06-01T11:03:18Z</time>
      </trkpt>
      <trkpt lat="45.69978" lon="6.63389">
        <ele>1490.4</ele>
        <time>2021-06-01T11:03:19Z</time>
      </trkpt>
      <trkpt lat="45.69974" lon="6.63389">
        <ele>1490.6</ele>
        <time>2021-06-01T11:03:20Z</time>
      </trkpt>
      <trkpt lat="45.69971" lon="6.63388">
        <ele>1490.8</ele>
        <time>2021-06-01T11:03:21Z</time>
      </trkpt>
      <trkpt lat="45.69967" lon="6.63388">
        <ele>1490.6</ele>
        <time>2021-06-01T11:03:22Z</time>
      </trkpt>
      <trkpt lat="45.69962" lon="6.63389">
        <ele>1490.6</ele>
        <time>2021-06-01T11:03:23Z</time>
      </trkpt>
      <trkpt lat="45.69958" lon="6.6339">
        <ele>1490.8</ele>
        <time>2021-06-01T11:03:24Z</time>
      </trkpt>
      <trkpt lat="45.69955" lon="6.63391">
        <ele>1490.4</ele>
        <time>2021-06-01T11:03:25Z</time>
      </trkpt>
      <trkpt lat="45.69951" lon="6.63393">
        <ele>1490.4</ele>
        <time>2021-06-01T11:03:26Z</time>
      </trkpt>
      <trkpt lat="45.69948" lon="6.63395">
        <ele>1490.4</ele>
        <time>2021-06-01T11:03:27Z</time>
      </trkpt>
      <trkpt lat="45.69944" lon="6.63397">
        <ele>1490.6</ele>
        <time>2021-06-01T11:03:28Z</time>
      </trkpt>
      <trkpt lat="45.6994" lon="6.63399">
        <ele>1490.6</ele>
        <time>2021-06-01T11:03:29Z</time>
      </trkpt>
      <trkpt lat="45.69937" lon="6.63401">
        <ele>1490.8</ele>
        <time>2021-06-01T11:03:30Z</time>
      </trkpt>
      <trkpt lat="45.69933" lon="6.63403">
        <ele>1491</ele>
        <time>2021-06-01T11:03:31Z</time>
      </trkpt>
      <trkpt lat="45.6993" lon="6.63406">
        <ele>1491</ele>
        <time>2021-06-01T11:03:32Z</time>
      </trkpt>
      <trkpt lat="45.69926" lon="6.63408">
        <ele>1491.2</ele>
        <time>2021-06-01T11:03:33Z</time>
      </trkpt>
      <trkpt lat="45.69922" lon="6.6341">
        <ele>1491.6</ele>
        <time>2021-06-01T11:03:34Z</time>
      </trkpt>
      <trkpt lat="45.69919" lon="6.63412">
        <ele>1491.8</ele>
        <time>2021-06-01T11:03:35Z</time>
      </trkpt>
      <trkpt lat="45.69915" lon="6.63414">
        <ele>1492.2</ele>
        <time>2021-06-01T11:03:36Z</time>
      </trkpt>
      <trkpt lat="45.69911" lon="6.63415">
        <ele>1492.4</ele>
        <time>2021-06-01T11:03:37Z</time>
      </trkpt>
      <trkpt lat="45.69907" lon="6.63416">
        <ele>1492.8</ele>
        <time>2021-06-01T11:03:38Z</time>
      </trkpt>
      <trkpt lat="45.69903" lon="6.63417">
        <ele>1493.2</ele>
        <time>2021-06-01T11:03:39Z</time>
      </trkpt>
      <trkpt lat="45.69899" lon="6.63418">
        <ele>1493.8</ele>
        <time>2021-06-01T11:03:40Z</time>
      </trkpt>
      <trkpt lat="45.69896" lon="6.63419">
        <ele>1494.2</ele>
        <time>2021-06-01T11:03:41Z</time>
      </trkpt>
      <trkpt lat="45.69892" lon="6.63419">
        <ele>1494.8</ele>
        <time>2021-06-01T11:03:42Z</time>
      </trkpt>
      <trkpt lat="45.69888" lon="6.63419">
        <ele>1495.6</ele>
        <time>2021-06-01T11:03:43Z</time>
      </trkpt>
      <trkpt lat="45.69885" lon="6.63419">
        <ele>1496</ele>
        <time>2021-06-01T11:03:44Z</time>
      </trkpt>
      <trkpt lat="45.69881" lon="6.63419">
        <ele>1496.6</ele>
        <time>2021-06-01T11:03:45Z</time>
      </trkpt>
      <trkpt lat="45.69878" lon="6.6342">
        <ele>1497.6</ele>
        <time>2021-06-01T11:03:46Z</time>
      </trkpt>
      <trkpt lat="45.69874" lon="6.6342">
        <ele>1498.8</ele>
        <time>2021-06-01T11:03:47Z</time>
      </trkpt>
      <trkpt lat="45.6987" lon="6.6342">
        <ele>1499.6</ele>
        <time>2021-06-01T11:03:48Z</time>
      </trkpt>
      <trkpt lat="45.69867" lon="6.63421">
        <ele>1500.8</ele>
        <time>2021-06-01T11:03:49Z</time>
      </trkpt>
      <trkpt lat="45.69863" lon="6.63421">
        <ele>1501.8</ele>
        <time>2021-06-01T11:03:50Z</time>
      </trkpt>
      <trkpt lat="45.69859" lon="6.63421">
        <ele>1502.8</ele>
        <time>2021-06-01T11:03:51Z</time>
      </trkpt>
      <trkpt lat="45.69855" lon="6.63422">
        <ele>1503.8</ele>
        <time>2021-06-01T11:03:52Z</time>
      </trkpt>
      <trkpt lat="45.69852" lon="6.63422">
        <ele>1504.6</ele>
        <time>2021-06-01T11:03:53Z</time>
      </trkpt>
      <trkpt lat="45.69848" lon="6.63422">
        <ele>1506</ele>
        <time>2021-06-01T11:03:54Z</time>
      </trkpt>
      <trkpt lat="45.69844" lon="6.63421">
        <ele>1507</ele>
        <time>2021-06-01T11:03:55Z</time>
      </trkpt>
      <trkpt lat="45.69841" lon="6.63419">
        <ele>1508.4</ele>
        <time>2021-06-01T11:03:56Z</time>
      </trkpt>
      <trkpt lat="45.69837" lon="6.63418">
        <ele>1509.4</ele>
        <time>2021-06-01T11:03:57Z</time>
      </trkpt>
      <trkpt lat="45.69833" lon="6.63416">
        <ele>1510.6</ele>
        <time>2021-06-01T11:03:58Z</time>
      </trkpt>
      <trkpt lat="45.69829" lon="6.63413">
        <ele>1512</ele>
        <time>2021-06-01T11:03:59Z</time>
      </trkpt>
      <trkpt lat="45.69826" lon="6.63411">
        <ele>1513.6</ele>
        <time>2021-06-01T11:04:00Z</time>
      </trkpt>
      <trkpt lat="45.69823" lon="6.63408">
        <ele>1515.2</ele>
        <time>2021-06-01T11:04:01Z</time>
      </trkpt>
      <trkpt lat="45.6982" lon="6.63405">
        <ele>1516.4</ele>
        <time>2021-06-01T11:04:02Z</time>
      </trkpt>
      <trkpt lat="45.69817" lon="6.63403">
        <ele>1517.4</ele>
        <time>2021-06-01T11:04:03Z</time>
      </trkpt>
      <trkpt lat="45.69813" lon="6.63399">
        <ele>1518.4</ele>
        <time>2021-06-01T11:04:04Z</time>
      </trkpt>
      <trkpt lat="45.6981" lon="6.63397">
        <ele>1519.4</ele>
        <time>2021-06-01T11:04:05Z</time>
      </trkpt>
      <trkpt lat="45.69807" lon="6.63394">
        <ele>1520.2</ele>
        <time>2021-06-01T11:04:06Z</time>
      </trkpt>
      <trkpt lat="45.69804" lon="6.63391">
        <ele>1521</ele>
        <time>2021-06-01T11:04:07Z</time>
      </trkpt>
      <trkpt lat="45.69801" lon="6.63389">
        <ele>1521.4</ele>
        <time>2021-06-01T11:04:08Z</time>
      </trkpt>
      <trkpt lat="45.69798" lon="6.63387">
        <ele>1521.8</ele>
        <time>2021-06-01T11:04:09Z</time>
      </trkpt>
      <trkpt lat="45.69795" lon="6.63385">
        <ele>1521.8</ele>
        <time>2021-06-01T11:04:10Z</time>
      </trkpt>
      <trkpt lat="45.69791" lon="6.63385">
        <ele>1521.8</ele>
        <time>2021-06-01T11:04:11Z</time>
      </trkpt>
      <trkpt lat="45.69787" lon="6.63384">
        <ele>1521.8</ele>
        <time>2021-06-01T11:04:12Z</time>
      </trkpt>
      <trkpt lat="45.69783" lon="6.63384">
        <ele>1521.4</ele>
        <time>2021-06-01T11:04:13Z</time>
      </trkpt>
      <trkpt lat="45.6978" lon="6.63383">
        <ele>1520.8</ele>
        <time>2021-06-01T11:04:14Z</time>
      </trkpt>
      <trkpt lat="45.69776" lon="6.63383">
        <ele>1520.4</ele>
        <time>2021-06-01T11:04:15Z</time>
      </trkpt>
      <trkpt lat="45.69772" lon="6.63383">
        <ele>1520.2</ele>
        <time>2021-06-01T11:04:16Z</time>
      </trkpt>
      <trkpt lat="45.69768" lon="6.63384">
        <ele>1520</ele>
        <time>2021-06-01T11:04:17Z</time>
      </trkpt>
      <trkpt lat="45.69764" lon="6.63385">
        <ele>1519.6</ele>
        <time>2021-06-01T11:04:18Z</time>
      </trkpt>
      <trkpt lat="45.6976" lon="6.63386">
        <ele>1518.8</ele>
        <time>2021-06-01T11:04:19Z</time>
      </trkpt>
      <trkpt lat="45.69756" lon="6.63387">
        <ele>1518.6</ele>
        <time>2021-06-01T11:04:20Z</time>
      </trkpt>
      <trkpt lat="45.69752" lon="6.63388">
        <ele>1518.4</ele>
        <time>2021-06-01T11:04:21Z</time>
      </trkpt>
      <trkpt lat="45.69748" lon="6.63388">
        <ele>1518.2</ele>
        <time>2021-06-01T11:04:22Z</time>
      </trkpt>
      <trkpt lat="45.69745" lon="6.63387">
        <ele>1517.8</ele>
        <time>2021-06-01T11:04:23Z</time>
      </trkpt>
      <trkpt lat="45.69742" lon="6.63387">
        <ele>1518.2</ele>
        <time>2021-06-01T11:04:24Z</time>
      </trkpt>
      <trkpt lat="45.69738" lon="6.63386">
        <ele>1519</ele>
        <time>2021-06-01T11:04:25Z</time>
      </trkpt>
      <trkpt lat="45.69734" lon="6.63386">
        <ele>1520</ele>
        <time>2021-06-01T11:04:26Z</time>
      </trkpt>
      <trkpt lat="45.6973" lon="6.63385">
        <ele>1521.4</ele>
        <time>2021-06-01T11:04:27Z</time>
      </trkpt>
      <trkpt lat="45.69725" lon="6.63384">
        <ele>1522.8</ele>
        <time>2021-06-01T11:04:28Z</time>
      </trkpt>
      <trkpt lat="45.69721" lon="6.63383">
        <ele>1524.4</ele>
        <time>2021-06-01T11:04:29Z</time>
      </trkpt>
      <trkpt lat="45.69717" lon="6.63382">
        <ele>1525.6</ele>
        <time>2021-06-01T11:04:30Z</time>
      </trkpt>
      <trkpt lat="45.69714" lon="6.6338">
        <ele>1526.6</ele>
        <time>2021-06-01T11:04:31Z</time>
      </trkpt>
      <trkpt lat="45.6971" lon="6.63379">
        <ele>1527.6</ele>
        <time>2021-06-01T11:04:32Z</time>
      </trkpt>
      <trkpt lat="45.69706" lon="6.63379">
        <ele>1528.6</ele>
        <time>2021-06-01T11:04:33Z</time>
      </trkpt>
      <trkpt lat="45.69703" lon="6.63378">
        <ele>1529.6</ele>
        <time>2021-06-01T11:04:34Z</time>
      </trkpt>
      <trkpt lat="45.69699" lon="6.63377">
        <ele>1530.2</ele>
        <time>2021-06-01T11:04:35Z</time>
      </trkpt>
      <trkpt lat="45.69695" lon="6.63376">
        <ele>1531</ele>
        <time>2021-06-01T11:04:36Z</time>
      </trkpt>
      <trkpt lat="45.69691" lon="6.63375">
        <ele>1531.8</ele>
        <time>2021-06-01T11:04:37Z</time>
      </trkpt>
      <trkpt lat="45.69686" lon="6.63374">
        <ele>1532.4</ele>
        <time>2021-06-01T11:04:38Z</time>
      </trkpt>
      <trkpt lat="45.69684" lon="6.63373">
        <ele>1533.6</ele>
        <time>2021-06-01T11:04:39Z</time>
      </trkpt>
      <trkpt lat="45.69679" lon="6.63371">
        <ele>1534</ele>
        <time>2021-06-01T11:04:40Z</time>
      </trkpt>
      <trkpt lat="45.69676" lon="6.6337">
        <ele>1535</ele>
        <time>2021-06-01T11:04:41Z</time>
      </trkpt>
      <trkpt lat="45.69672" lon="6.63368">
        <ele>1535.8</ele>
        <time>2021-06-01T11:04:42Z</time>
      </trkpt>
      <trkpt lat="45.69668" lon="6.63366">
        <ele>1536.2</ele>
        <time>2021-06-01T11:04:43Z</time>
      </trkpt>
      <trkpt lat="45.69665" lon="6.63364">
        <ele>1536.2</ele>
        <time>2021-06-01T11:04:44Z</time>
      </trkpt>
      <trkpt lat="45.69662" lon="6.63362">
        <ele>1536.4</ele>
        <time>2021-06-01T11:04:45Z</time>
      </trkpt>
      <trkpt lat="45.69659" lon="6.63359">
        <ele>1536</ele>
        <time>2021-06-01T11:04:46Z</time>
      </trkpt>
      <trkpt lat="45.69655" lon="6.63357">
        <ele>1535.8</ele>
        <time>2021-06-01T11:04:47Z</time>
      </trkpt>
      <trkpt lat="45.69652" lon="6.63356">
        <ele>1535.8</ele>
        <time>2021-06-01T11:04:48Z</time>
      </trkpt>
      <trkpt lat="45.69648" lon="6.63355">
        <ele>1536.2</ele>
        <time>2021-06-01T11:04:49Z</time>
      </trkpt>
      <trkpt lat="45.69645" lon="6.63354">
        <ele>1536.2</ele>
        <time>2021-06-01T11:04:50Z</time>
      </trkpt>
      <trkpt lat="45.69641" lon="6.63353">
        <ele>1536.2</ele>
        <time>2021-06-01T11:04:51Z</time>
      </trkpt>
      <trkpt lat="45.69637" lon="6.63352">
        <ele>1536.4</ele>
        <time>2021-06-01T11:04:52Z</time>
      </trkpt>
      <trkpt lat="45.69633" lon="6.63351">
        <ele>1537</ele>
        <time>2021-06-01T11:04:53Z</time>
      </trkpt>
      <trkpt lat="45.69628" lon="6.6335">
        <ele>1537.2</ele>
        <time>2021-06-01T11:04:54Z</time>
      </trkpt>
      <trkpt lat="45.69625" lon="6.63349">
        <ele>1537.4</ele>
        <time>2021-06-01T11:04:55Z</time>
      </trkpt>
      <trkpt lat="45.69621" lon="6.63347">
        <ele>1537.8</ele>
        <time>2021-06-01T11:04:56Z</time>
      </trkpt>
      <trkpt lat="45.69618" lon="6.63345">
        <ele>1538.4</ele>
        <time>2021-06-01T11:04:57Z</time>
      </trkpt>
      <trkpt lat="45.69614" lon="6.63343">
        <ele>1538.8</ele>
        <time>2021-06-01T11:04:58Z</time>
      </trkpt>
      <trkpt lat="45.6961" lon="6.63342">
        <ele>1539</ele>
        <time>2021-06-01T11:04:59Z</time>
      </trkpt>
      <trkpt lat="45.69606" lon="6.6334">
        <ele>1539.2</ele>
        <time>2021-06-01T11:05:00Z</time>
      </trkpt>
      <trkpt lat="45.69602" lon="6.63338">
        <ele>1539.2</ele>
        <time>2021-06-01T11:05:01Z</time>
      </trkpt>
      <trkpt lat="45.69598" lon="6.63335">
        <ele>1539.4</ele>
        <time>2021-06-01T11:05:02Z</time>
      </trkpt>
      <trkpt lat="45.69594" lon="6.63332">
        <ele>1539.8</ele>
        <time>2021-06-01T11:05:03Z</time>
      </trkpt>
      <trkpt lat="45.6959" lon="6.6333">
        <ele>1540.6</ele>
        <time>2021-06-01T11:05:04Z</time>
      </trkpt>
      <trkpt lat="45.69586" lon="6.63327">
        <ele>1541.2</ele>
        <time>2021-06-01T11:05:05Z</time>
      </trkpt>
      <trkpt lat="45.69582" lon="6.63325">
        <ele>1542</ele>
        <time>2021-06-01T11:05:06Z</time>
      </trkpt>
      <trkpt lat="45.69579" lon="6.63322">
        <ele>1542.6</ele>
        <time>2021-06-01T11:05:07Z</time>
      </trkpt>
      <trkpt lat="45.69576" lon="6.63321">
        <ele>1543</ele>
        <time>2021-06-01T11:05:08Z</time>
      </trkpt>
      <trkpt lat="45.69573" lon="6.63318">
        <ele>1543.8</ele>
        <time>2021-06-01T11:05:09Z</time>
      </trkpt>
      <trkpt lat="45.69569" lon="6.63316">
        <ele>1544</ele>
        <time>2021-06-01T11:05:10Z</time>
      </trkpt>
      <trkpt lat="45.69566" lon="6.63314">
        <ele>1544</ele>
        <time>2021-06-01T11:05:11Z</time>
      </trkpt>
      <trkpt lat="45.69562" lon="6.63312">
        <ele>1544.2</ele>
        <time>2021-06-01T11:05:12Z</time>
      </trkpt>
      <trkpt lat="45.69558" lon="6.63311">
        <ele>1544.6</ele>
        <time>2021-06-01T11:05:13Z</time>
      </trkpt>
      <trkpt lat="45.69554" lon="6.6331">
        <ele>1544.8</ele>
        <time>2021-06-01T11:05:14Z</time>
      </trkpt>
      <trkpt lat="45.6955" lon="6.63309">
        <ele>1545.4</ele>
        <time>2021-06-01T11:05:15Z</time>
      </trkpt>
      <trkpt lat="45.69545" lon="6.63308">
        <ele>1546</ele>
        <time>2021-06-01T11:05:16Z</time>
      </trkpt>
      <trkpt lat="45.69541" lon="6.63308">
        <ele>1546.4</ele>
        <time>2021-06-01T11:05:17Z</time>
      </trkpt>
      <trkpt lat="45.69536" lon="6.63307">
        <ele>1546.8</ele>
        <time>2021-06-01T11:05:18Z</time>
      </trkpt>
      <trkpt lat="45.69532" lon="6.63308">
        <ele>1547.6</ele>
        <time>2021-06-01T11:05:19Z</time>
      </trkpt>
      <trkpt lat="45.69527" lon="6.63309">
        <ele>1547.8</ele>
        <time>2021-06-01T11:05:20Z</time>
      </trkpt>
      <trkpt lat="45.69523" lon="6.6331">
        <ele>1548.4</ele>
        <time>2021-06-01T11:05:21Z</time>
      </trkpt>
      <trkpt lat="45.6952" lon="6.63311">
        <ele>1549</ele>
        <time>2021-06-01T11:05:22Z</time>
      </trkpt>
      <trkpt lat="45.69516" lon="6.63312">
        <ele>1549.6</ele>
        <time>2021-06-01T11:05:23Z</time>
      </trkpt>
      <trkpt lat="45.69513" lon="6.63313">
        <ele>1550.2</ele>
        <time>2021-06-01T11:05:24Z</time>
      </trkpt>
      <trkpt lat="45.6951" lon="6.63315">
        <ele>1550.4</ele>
        <time>2021-06-01T11:05:25Z</time>
      </trkpt>
      <trkpt lat="45.69508" lon="6.63318">
        <ele>1550.6</ele>
        <time>2021-06-01T11:05:26Z</time>
      </trkpt>
      <trkpt lat="45.69506" lon="6.63321">
        <ele>1550.6</ele>
        <time>2021-06-01T11:05:27Z</time>
      </trkpt>
      <trkpt lat="45.69504" lon="6.63323">
        <ele>1550.6</ele>
        <time>2021-06-01T11:05:28Z</time>
      </trkpt>
      <trkpt lat="45.69502" lon="6.63327">
        <ele>1550.4</ele>
        <time>2021-06-01T11:05:29Z</time>
      </trkpt>
      <trkpt lat="45.695" lon="6.6333">
        <ele>1549.8</ele>
        <time>2021-06-01T11:05:30Z</time>
      </trkpt>
      <trkpt lat="45.69498" lon="6.63333">
        <ele>1549.2</ele>
        <time>2021-06-01T11:05:31Z</time>
      </trkpt>
      <trkpt lat="45.69496" lon="6.63336">
        <ele>1548.2</ele>
        <time>2021-06-01T11:05:32Z</time>
      </trkpt>
      <trkpt lat="45.69494" lon="6.63339">
        <ele>1547</ele>
        <time>2021-06-01T11:05:33Z</time>
      </trkpt>
      <trkpt lat="45.69492" lon="6.63342">
        <ele>1545.8</ele>
        <time>2021-06-01T11:05:34Z</time>
      </trkpt>
      <trkpt lat="45.69491" lon="6.63344">
        <ele>1544.6</ele>
        <time>2021-06-01T11:05:35Z</time>
      </trkpt>
      <trkpt lat="45.69489" lon="6.63346">
        <ele>1543.4</ele>
        <time>2021-06-01T11:05:36Z</time>
      </trkpt>
      <trkpt lat="45.69488" lon="6.63348">
        <ele>1542.4</ele>
        <time>2021-06-01T11:05:37Z</time>
      </trkpt>
      <trkpt lat="45.69487" lon="6.63351">
        <ele>1541.2</ele>
        <time>2021-06-01T11:05:38Z</time>
      </trkpt>
      <trkpt lat="45.69487" lon="6.63354">
        <ele>1540.4</ele>
        <time>2021-06-01T11:05:39Z</time>
      </trkpt>
      <trkpt lat="45.69486" lon="6.63357">
        <ele>1539.2</ele>
        <time>2021-06-01T11:05:40Z</time>
      </trkpt>
      <trkpt lat="45.69487" lon="6.63361">
        <ele>1538.4</ele>
        <time>2021-06-01T11:05:41Z</time>
      </trkpt>
      <trkpt lat="45.69487" lon="6.63365">
        <ele>1537.8</ele>
        <time>2021-06-01T11:05:42Z</time>
      </trkpt>
      <trkpt lat="45.69487" lon="6.63368">
        <ele>1537.6</ele>
        <time>2021-06-01T11:05:43Z</time>
      </trkpt>
      <trkpt lat="45.69489" lon="6.63371">
        <ele>1537.6</ele>
        <time>2021-06-01T11:05:44Z</time>
      </trkpt>
      <trkpt lat="45.69489" lon="6.63373">
        <ele>1537.6</ele>
        <time>2021-06-01T11:05:45Z</time>
      </trkpt>
      <trkpt lat="45.69491" lon="6.63378">
        <ele>1537.2</ele>
        <time>2021-06-01T11:05:47Z</time>
      </trkpt>
      <trkpt lat="45.69491" lon="6.63383">
        <ele>1536.6</ele>
        <time>2021-06-01T11:05:49Z</time>
      </trkpt>
      <trkpt lat="45.69493" lon="6.63386">
        <ele>1535.8</ele>
        <time>2021-06-01T11:05:51Z</time>
      </trkpt>
      <trkpt lat="45.69493" lon="6.63383">
        <ele>1541.2</ele>
        <time>2021-06-01T11:06:30Z</time>
      </trkpt>
      <trkpt lat="45.69493" lon="6.6338">
        <ele>1541.6</ele>
        <time>2021-06-01T11:06:31Z</time>
      </trkpt>
      <trkpt lat="45.69493" lon="6.63376">
        <ele>1542.8</ele>
        <time>2021-06-01T11:06:32Z</time>
      </trkpt>
      <trkpt lat="45.69493" lon="6.63371">
        <ele>1543.8</ele>
        <time>2021-06-01T11:06:33Z</time>
      </trkpt>
      <trkpt lat="45.69494" lon="6.63366">
        <ele>1544.8</ele>
        <time>2021-06-01T11:06:34Z</time>
      </trkpt>
      <trkpt lat="45.69495" lon="6.63361">
        <ele>1545.8</ele>
        <time>2021-06-01T11:06:35Z</time>
      </trkpt>
      <trkpt lat="45.69495" lon="6.63356">
        <ele>1546.6</ele>
        <time>2021-06-01T11:06:36Z</time>
      </trkpt>
      <trkpt lat="45.69496" lon="6.63349">
        <ele>1546.8</ele>
        <time>2021-06-01T11:06:37Z</time>
      </trkpt>
      <trkpt lat="45.69497" lon="6.63342">
        <ele>1547.4</ele>
        <time>2021-06-01T11:06:38Z</time>
      </trkpt>
      <trkpt lat="45.69498" lon="6.63335">
        <ele>1547.8</ele>
        <time>2021-06-01T11:06:39Z</time>
      </trkpt>
      <trkpt lat="45.695" lon="6.6333">
        <ele>1548.2</ele>
        <time>2021-06-01T11:06:40Z</time>
      </trkpt>
      <trkpt lat="45.69502" lon="6.63325">
        <ele>1548.4</ele>
        <time>2021-06-01T11:06:41Z</time>
      </trkpt>
      <trkpt lat="45.69505" lon="6.6332">
        <ele>1548.8</ele>
        <time>2021-06-01T11:06:42Z</time>
      </trkpt>
      <trkpt lat="45.69508" lon="6.63316">
        <ele>1549.2</ele>
        <time>2021-06-01T11:06:43Z</time>
      </trkpt>
      <trkpt lat="45.69512" lon="6.63311">
        <ele>1549.6</ele>
        <time>2021-06-01T11:06:44Z</time>
      </trkpt>
      <trkpt lat="45.69516" lon="6.63307">
        <ele>1550</ele>
        <time>2021-06-01T11:06:45Z</time>
      </trkpt>
      <trkpt lat="45.69521" lon="6.63303">
        <ele>1549.8</ele>
        <time>2021-06-01T11:06:46Z</time>
      </trkpt>
      <trkpt lat="45.69527" lon="6.63301">
        <ele>1550</ele>
        <time>2021-06-01T11:06:47Z</time>
      </trkpt>
      <trkpt lat="45.69533" lon="6.633">
        <ele>1550</ele>
        <time>2021-06-01T11:06:48Z</time>
      </trkpt>
      <trkpt lat="45.69539" lon="6.63301">
        <ele>1550.2</ele>
        <time>2021-06-01T11:06:49Z</time>
      </trkpt>
      <trkpt lat="45.69546" lon="6.63302">
        <ele>1551.4</ele>
        <time>2021-06-01T11:06:50Z</time>
      </trkpt>
      <trkpt lat="45.69553" lon="6.63304">
        <ele>1551.6</ele>
        <time>2021-06-01T11:06:51Z</time>
      </trkpt>
      <trkpt lat="45.69559" lon="6.63306">
        <ele>1551.8</ele>
        <time>2021-06-01T11:06:52Z</time>
      </trkpt>
      <trkpt lat="45.69565" lon="6.63309">
        <ele>1552</ele>
        <time>2021-06-01T11:06:53Z</time>
      </trkpt>
      <trkpt lat="45.69571" lon="6.63312">
        <ele>1552</ele>
        <time>2021-06-01T11:06:54Z</time>
      </trkpt>
      <trkpt lat="45.69577" lon="6.63315">
        <ele>1552</ele>
        <time>2021-06-01T11:06:55Z</time>
      </trkpt>
      <trkpt lat="45.69583" lon="6.63318">
        <ele>1552</ele>
        <time>2021-06-01T11:06:56Z</time>
      </trkpt>
      <trkpt lat="45.6959" lon="6.63321">
        <ele>1552</ele>
        <time>2021-06-01T11:06:57Z</time>
      </trkpt>
      <trkpt lat="45.69598" lon="6.63324">
        <ele>1552</ele>
        <time>2021-06-01T11:06:58Z</time>
      </trkpt>
      <trkpt lat="45.69605" lon="6.63327">
        <ele>1552.4</ele>
        <time>2021-06-01T11:06:59Z</time>
      </trkpt>
      <trkpt lat="45.69614" lon="6.6333">
        <ele>1551.8</ele>
        <time>2021-06-01T11:07:00Z</time>
      </trkpt>
      <trkpt lat="45.69622" lon="6.63332">
        <ele>1551.4</ele>
        <time>2021-06-01T11:07:01Z</time>
      </trkpt>
      <trkpt lat="45.69632" lon="6.63334">
        <ele>1550.4</ele>
        <time>2021-06-01T11:07:02Z</time>
      </trkpt>
      <trkpt lat="45.69641" lon="6.63336">
        <ele>1548</ele>
        <time>2021-06-01T11:07:03Z</time>
      </trkpt>
      <trkpt lat="45.6965" lon="6.63339">
        <ele>1546.2</ele>
        <time>2021-06-01T11:07:04Z</time>
      </trkpt>
      <trkpt lat="45.69659" lon="6.63343">
        <ele>1544.8</ele>
        <time>2021-06-01T11:07:05Z</time>
      </trkpt>
      <trkpt lat="45.69668" lon="6.63348">
        <ele>1543.8</ele>
        <time>2021-06-01T11:07:06Z</time>
      </trkpt>
      <trkpt lat="45.69677" lon="6.63353">
        <ele>1543.2</ele>
        <time>2021-06-01T11:07:07Z</time>
      </trkpt>
      <trkpt lat="45.69687" lon="6.63358">
        <ele>1543.4</ele>
        <time>2021-06-01T11:07:08Z</time>
      </trkpt>
      <trkpt lat="45.69697" lon="6.63362">
        <ele>1543.2</ele>
        <time>2021-06-01T11:07:09Z</time>
      </trkpt>
      <trkpt lat="45.69707" lon="6.63366">
        <ele>1542.8</ele>
        <time>2021-06-01T11:07:10Z</time>
      </trkpt>
      <trkpt lat="45.69717" lon="6.6337">
        <ele>1542.8</ele>
        <time>2021-06-01T11:07:11Z</time>
      </trkpt>
      <trkpt lat="45.69728" lon="6.63372">
        <ele>1543.4</ele>
        <time>2021-06-01T11:07:12Z</time>
      </trkpt>
      <trkpt lat="45.69739" lon="6.63372">
        <ele>1543.4</ele>
        <time>2021-06-01T11:07:13Z</time>
      </trkpt>
      <trkpt lat="45.6975" lon="6.63372">
        <ele>1543.4</ele>
        <time>2021-06-01T11:07:14Z</time>
      </trkpt>
      <trkpt lat="45.69761" lon="6.63371">
        <ele>1543.2</ele>
        <time>2021-06-01T11:07:15Z</time>
      </trkpt>
      <trkpt lat="45.69772" lon="6.6337">
        <ele>1544</ele>
        <time>2021-06-01T11:07:16Z</time>
      </trkpt>
      <trkpt lat="45.69783" lon="6.63371">
        <ele>1544.6</ele>
        <time>2021-06-01T11:07:17Z</time>
      </trkpt>
      <trkpt lat="45.69794" lon="6.63375">
        <ele>1544</ele>
        <time>2021-06-01T11:07:18Z</time>
      </trkpt>
      <trkpt lat="45.69804" lon="6.63379">
        <ele>1544</ele>
        <time>2021-06-01T11:07:19Z</time>
      </trkpt>
      <trkpt lat="45.69815" lon="6.63386">
        <ele>1543.6</ele>
        <time>2021-06-01T11:07:20Z</time>
      </trkpt>
      <trkpt lat="45.69827" lon="6.63395">
        <ele>1543.2</ele>
        <time>2021-06-01T11:07:21Z</time>
      </trkpt>
      <trkpt lat="45.69838" lon="6.634">
        <ele>1541.2</ele>
        <time>2021-06-01T11:07:22Z</time>
      </trkpt>
      <trkpt lat="45.69851" lon="6.63404">
        <ele>1539.6</ele>
        <time>2021-06-01T11:07:23Z</time>
      </trkpt>
      <trkpt lat="45.69863" lon="6.63407">
        <ele>1538.4</ele>
        <time>2021-06-01T11:07:24Z</time>
      </trkpt>
      <trkpt lat="45.69876" lon="6.63408">
        <ele>1537.8</ele>
        <time>2021-06-01T11:07:25Z</time>
      </trkpt>
      <trkpt lat="45.6989" lon="6.63409">
        <ele>1536.8</ele>
        <time>2021-06-01T11:07:26Z</time>
      </trkpt>
      <trkpt lat="45.69903" lon="6.63408">
        <ele>1535.6</ele>
        <time>2021-06-01T11:07:27Z</time>
      </trkpt>
      <trkpt lat="45.69916" lon="6.63405">
        <ele>1534.8</ele>
        <time>2021-06-01T11:07:28Z</time>
      </trkpt>
      <trkpt lat="45.69928" lon="6.63394">
        <ele>1534</ele>
        <time>2021-06-01T11:07:29Z</time>
      </trkpt>
      <trkpt lat="45.6994" lon="6.63387">
        <ele>1533</ele>
        <time>2021-06-01T11:07:30Z</time>
      </trkpt>
      <trkpt lat="45.69952" lon="6.63381">
        <ele>1532.2</ele>
        <time>2021-06-01T11:07:31Z</time>
      </trkpt>
      <trkpt lat="45.69964" lon="6.63376">
        <ele>1531.2</ele>
        <time>2021-06-01T11:07:32Z</time>
      </trkpt>
      <trkpt lat="45.69976" lon="6.63374">
        <ele>1530.2</ele>
        <time>2021-06-01T11:07:33Z</time>
      </trkpt>
      <trkpt lat="45.69989" lon="6.63374">
        <ele>1529.2</ele>
        <time>2021-06-01T11:07:34Z</time>
      </trkpt>
      <trkpt lat="45.70003" lon="6.63374">
        <ele>1527.8</ele>
        <time>2021-06-01T11:07:35Z</time>
      </trkpt>
      <trkpt lat="45.70017" lon="6.63374">
        <ele>1527.2</ele>
        <time>2021-06-01T11:07:36Z</time>
      </trkpt>
      <trkpt lat="45.70031" lon="6.63374">
        <ele>1526.4</ele>
        <time>2021-06-01T11:07:37Z</time>
      </trkpt>
      <trkpt lat="45.70045" lon="6.63373">
        <ele>1525.2</ele>
        <time>2021-06-01T11:07:38Z</time>
      </trkpt>
      <trkpt lat="45.7006" lon="6.63375">
        <ele>1524.2</ele>
        <time>2021-06-01T11:07:39Z</time>
      </trkpt>
      <trkpt lat="45.70075" lon="6.63374">
        <ele>1523</ele>
        <time>2021-06-01T11:07:40Z</time>
      </trkpt>
      <trkpt lat="45.70089" lon="6.63373">
        <ele>1522</ele>
        <time>2021-06-01T11:07:41Z</time>
      </trkpt>
      <trkpt lat="45.70104" lon="6.63371">
        <ele>1521</ele>
        <time>2021-06-01T11:07:42Z</time>
      </trkpt>
      <trkpt lat="45.70119" lon="6.63368">
        <ele>1520.2</ele>
        <time>2021-06-01T11:07:43Z</time>
      </trkpt>
      <trkpt lat="45.70133" lon="6.63367">
        <ele>1519</ele>
        <time>2021-06-01T11:07:44Z</time>
      </trkpt>
      <trkpt lat="45.70148" lon="6.63366">
        <ele>1518</ele>
        <time>2021-06-01T11:07:45Z</time>
      </trkpt>
      <trkpt lat="45.70163" lon="6.63365">
        <ele>1516.6</ele>
        <time>2021-06-01T11:07:46Z</time>
      </trkpt>
      <trkpt lat="45.70179" lon="6.63363">
        <ele>1516</ele>
        <time>2021-06-01T11:07:47Z</time>
      </trkpt>
      <trkpt lat="45.70195" lon="6.6336">
        <ele>1515</ele>
        <time>2021-06-01T11:07:48Z</time>
      </trkpt>
      <trkpt lat="45.7021" lon="6.63358">
        <ele>1514.4</ele>
        <time>2021-06-01T11:07:49Z</time>
      </trkpt>
      <trkpt lat="45.70226" lon="6.63355">
        <ele>1513.4</ele>
        <time>2021-06-01T11:07:50Z</time>
      </trkpt>
      <trkpt lat="45.70241" lon="6.63351">
        <ele>1512.4</ele>
        <time>2021-06-01T11:07:51Z</time>
      </trkpt>
      <trkpt lat="45.70256" lon="6.63348">
        <ele>1511.4</ele>
        <time>2021-06-01T11:07:52Z</time>
      </trkpt>
      <trkpt lat="45.7027" lon="6.63344">
        <ele>1509.4</ele>
        <time>2021-06-01T11:07:53Z</time>
      </trkpt>
      <trkpt lat="45.70285" lon="6.6334">
        <ele>1508.4</ele>
        <time>2021-06-01T11:07:54Z</time>
      </trkpt>
      <trkpt lat="45.70299" lon="6.63337">
        <ele>1507.4</ele>
        <time>2021-06-01T11:07:55Z</time>
      </trkpt>
      <trkpt lat="45.70313" lon="6.63336">
        <ele>1506.4</ele>
        <time>2021-06-01T11:07:56Z</time>
      </trkpt>
      <trkpt lat="45.70327" lon="6.63336">
        <ele>1505.2</ele>
        <time>2021-06-01T11:07:57Z</time>
      </trkpt>
      <trkpt lat="45.70341" lon="6.63339">
        <ele>1503.6</ele>
        <time>2021-06-01T11:07:58Z</time>
      </trkpt>
      <trkpt lat="45.70355" lon="6.63342">
        <ele>1502.2</ele>
        <time>2021-06-01T11:07:59Z</time>
      </trkpt>
      <trkpt lat="45.70369" lon="6.63344">
        <ele>1501</ele>
        <time>2021-06-01T11:08:00Z</time>
      </trkpt>
      <trkpt lat="45.70383" lon="6.63342">
        <ele>1499.8</ele>
        <time>2021-06-01T11:08:01Z</time>
      </trkpt>
      <trkpt lat="45.70396" lon="6.63339">
        <ele>1498.8</ele>
        <time>2021-06-01T11:08:02Z</time>
      </trkpt>
      <trkpt lat="45.70409" lon="6.63336">
        <ele>1498.6</ele>
        <time>2021-06-01T11:08:03Z</time>
      </trkpt>
      <trkpt lat="45.70421" lon="6.63334">
        <ele>1496.6</ele>
        <time>2021-06-01T11:08:04Z</time>
      </trkpt>
      <trkpt lat="45.70434" lon="6.63337">
        <ele>1495</ele>
        <time>2021-06-01T11:08:05Z</time>
      </trkpt>
      <trkpt lat="45.70447" lon="6.63341">
        <ele>1494.2</ele>
        <time>2021-06-01T11:08:06Z</time>
      </trkpt>
      <trkpt lat="45.7046" lon="6.63346">
        <ele>1493.6</ele>
        <time>2021-06-01T11:08:07Z</time>
      </trkpt>
      <trkpt lat="45.70473" lon="6.63349">
        <ele>1493</ele>
        <time>2021-06-01T11:08:08Z</time>
      </trkpt>
      <trkpt lat="45.70486" lon="6.6335">
        <ele>1491.8</ele>
        <time>2021-06-01T11:08:09Z</time>
      </trkpt>
      <trkpt lat="45.70499" lon="6.63349">
        <ele>1490.6</ele>
        <time>2021-06-01T11:08:10Z</time>
      </trkpt>
      <trkpt lat="45.70512" lon="6.63348">
        <ele>1489.6</ele>
        <time>2021-06-01T11:08:11Z</time>
      </trkpt>
      <trkpt lat="45.70526" lon="6.63347">
        <ele>1489</ele>
        <time>2021-06-01T11:08:12Z</time>
      </trkpt>
      <trkpt lat="45.7054" lon="6.63346">
        <ele>1488</ele>
        <time>2021-06-01T11:08:13Z</time>
      </trkpt>
      <trkpt lat="45.70553" lon="6.63343">
        <ele>1486.4</ele>
        <time>2021-06-01T11:08:14Z</time>
      </trkpt>
      <trkpt lat="45.70567" lon="6.6334">
        <ele>1485.2</ele>
        <time>2021-06-01T11:08:15Z</time>
      </trkpt>
      <trkpt lat="45.70581" lon="6.63336">
        <ele>1484.8</ele>
        <time>2021-06-01T11:08:16Z</time>
      </trkpt>
      <trkpt lat="45.70594" lon="6.63333">
        <ele>1483.6</ele>
        <time>2021-06-01T11:08:17Z</time>
      </trkpt>
      <trkpt lat="45.70607" lon="6.6333">
        <ele>1482.8</ele>
        <time>2021-06-01T11:08:18Z</time>
      </trkpt>
      <trkpt lat="45.70619" lon="6.63327">
        <ele>1481</ele>
        <time>2021-06-01T11:08:19Z</time>
      </trkpt>
      <trkpt lat="45.70632" lon="6.63323">
        <ele>1479.4</ele>
        <time>2021-06-01T11:08:20Z</time>
      </trkpt>
      <trkpt lat="45.70643" lon="6.63319">
        <ele>1478.2</ele>
        <time>2021-06-01T11:08:21Z</time>
      </trkpt>
      <trkpt lat="45.70655" lon="6.63315">
        <ele>1477</ele>
        <time>2021-06-01T11:08:22Z</time>
      </trkpt>
      <trkpt lat="45.70666" lon="6.63312">
        <ele>1476</ele>
        <time>2021-06-01T11:08:23Z</time>
      </trkpt>
      <trkpt lat="45.70677" lon="6.63311">
        <ele>1475</ele>
        <time>2021-06-01T11:08:24Z</time>
      </trkpt>
      <trkpt lat="45.70687" lon="6.6331">
        <ele>1473.8</ele>
        <time>2021-06-01T11:08:25Z</time>
      </trkpt>
      <trkpt lat="45.70696" lon="6.63308">
        <ele>1473.2</ele>
        <time>2021-06-01T11:08:26Z</time>
      </trkpt>
      <trkpt lat="45.70702" lon="6.63303">
        <ele>1472.2</ele>
        <time>2021-06-01T11:08:27Z</time>
      </trkpt>
      <trkpt lat="45.70705" lon="6.63295">
        <ele>1471.2</ele>
        <time>2021-06-01T11:08:28Z</time>
      </trkpt>
      <trkpt lat="45.70706" lon="6.63287">
        <ele>1470</ele>
        <time>2021-06-01T11:08:29Z</time>
      </trkpt>
      <trkpt lat="45.70705" lon="6.63284">
        <ele>1469.4</ele>
        <time>2021-06-01T11:08:30Z</time>
      </trkpt>
      <trkpt lat="45.70699" lon="6.63282">
        <ele>1469</ele>
        <time>2021-06-01T11:08:31Z</time>
      </trkpt>
      <trkpt lat="45.70692" lon="6.63283">
        <ele>1468.6</ele>
        <time>2021-06-01T11:08:32Z</time>
      </trkpt>
      <trkpt lat="45.70684" lon="6.63286">
        <ele>1468.2</ele>
        <time>2021-06-01T11:08:33Z</time>
      </trkpt>
      <trkpt lat="45.70676" lon="6.63289">
        <ele>1468</ele>
        <time>2021-06-01T11:08:34Z</time>
      </trkpt>
      <trkpt lat="45.70668" lon="6.63291">
        <ele>1467.8</ele>
        <time>2021-06-01T11:08:35Z</time>
      </trkpt>
      <trkpt lat="45.70659" lon="6.63295">
        <ele>1467.4</ele>
        <time>2021-06-01T11:08:36Z</time>
      </trkpt>
      <trkpt lat="45.7065" lon="6.63298">
        <ele>1467.2</ele>
        <time>2021-06-01T11:08:37Z</time>
      </trkpt>
      <trkpt lat="45.7064" lon="6.63301">
        <ele>1467</ele>
        <time>2021-06-01T11:08:38Z</time>
      </trkpt>
      <trkpt lat="45.7063" lon="6.63303">
        <ele>1466.8</ele>
        <time>2021-06-01T11:08:39Z</time>
      </trkpt>
      <trkpt lat="45.7062" lon="6.63302">
        <ele>1466.2</ele>
        <time>2021-06-01T11:08:40Z</time>
      </trkpt>
      <trkpt lat="45.70609" lon="6.63302">
        <ele>1465.2</ele>
        <time>2021-06-01T11:08:41Z</time>
      </trkpt>
      <trkpt lat="45.70598" lon="6.63302">
        <ele>1464.6</ele>
        <time>2021-06-01T11:08:42Z</time>
      </trkpt>
      <trkpt lat="45.70587" lon="6.63298">
        <ele>1464</ele>
        <time>2021-06-01T11:08:43Z</time>
      </trkpt>
      <trkpt lat="45.70576" lon="6.63295">
        <ele>1462.4</ele>
        <time>2021-06-01T11:08:44Z</time>
      </trkpt>
      <trkpt lat="45.70564" lon="6.63293">
        <ele>1461.2</ele>
        <time>2021-06-01T11:08:45Z</time>
      </trkpt>
      <trkpt lat="45.70552" lon="6.6329">
        <ele>1459.8</ele>
        <time>2021-06-01T11:08:46Z</time>
      </trkpt>
      <trkpt lat="45.70538" lon="6.63287">
        <ele>1458.6</ele>
        <time>2021-06-01T11:08:47Z</time>
      </trkpt>
      <trkpt lat="45.70525" lon="6.63282">
        <ele>1457.8</ele>
        <time>2021-06-01T11:08:48Z</time>
      </trkpt>
      <trkpt lat="45.70512" lon="6.63275">
        <ele>1456.8</ele>
        <time>2021-06-01T11:08:49Z</time>
      </trkpt>
      <trkpt lat="45.70499" lon="6.63266">
        <ele>1456.4</ele>
        <time>2021-06-01T11:08:50Z</time>
      </trkpt>
      <trkpt lat="45.70486" lon="6.63257">
        <ele>1454.8</ele>
        <time>2021-06-01T11:08:51Z</time>
      </trkpt>
      <trkpt lat="45.70474" lon="6.63248">
        <ele>1453.6</ele>
        <time>2021-06-01T11:08:52Z</time>
      </trkpt>
      <trkpt lat="45.70462" lon="6.63241">
        <ele>1452.4</ele>
        <time>2021-06-01T11:08:53Z</time>
      </trkpt>
      <trkpt lat="45.70448" lon="6.63237">
        <ele>1451.2</ele>
        <time>2021-06-01T11:08:54Z</time>
      </trkpt>
      <trkpt lat="45.70435" lon="6.63234">
        <ele>1450</ele>
        <time>2021-06-01T11:08:55Z</time>
      </trkpt>
      <trkpt lat="45.7042" lon="6.63229">
        <ele>1448.6</ele>
        <time>2021-06-01T11:08:56Z</time>
      </trkpt>
      <trkpt lat="45.70407" lon="6.63222">
        <ele>1447.2</ele>
        <time>2021-06-01T11:08:57Z</time>
      </trkpt>
      <trkpt lat="45.70394" lon="6.63214">
        <ele>1446</ele>
        <time>2021-06-01T11:08:58Z</time>
      </trkpt>
      <trkpt lat="45.70383" lon="6.63207">
        <ele>1444.2</ele>
        <time>2021-06-01T11:08:59Z</time>
      </trkpt>
      <trkpt lat="45.70371" lon="6.63202">
        <ele>1443.2</ele>
        <time>2021-06-01T11:09:00Z</time>
      </trkpt>
      <trkpt lat="45.70359" lon="6.63199">
        <ele>1442.2</ele>
        <time>2021-06-01T11:09:01Z</time>
      </trkpt>
      <trkpt lat="45.70348" lon="6.63197">
        <ele>1440.8</ele>
        <time>2021-06-01T11:09:02Z</time>
      </trkpt>
      <trkpt lat="45.70335" lon="6.63197">
        <ele>1440</ele>
        <time>2021-06-01T11:09:03Z</time>
      </trkpt>
      <trkpt lat="45.70322" lon="6.63201">
        <ele>1438.8</ele>
        <time>2021-06-01T11:09:04Z</time>
      </trkpt>
      <trkpt lat="45.70308" lon="6.63203">
        <ele>1438</ele>
        <time>2021-06-01T11:09:05Z</time>
      </trkpt>
      <trkpt lat="45.70295" lon="6.63204">
        <ele>1437.2</ele>
        <time>2021-06-01T11:09:06Z</time>
      </trkpt>
      <trkpt lat="45.70282" lon="6.63204">
        <ele>1435.8</ele>
        <time>2021-06-01T11:09:07Z</time>
      </trkpt>
      <trkpt lat="45.70268" lon="6.63202">
        <ele>1434.6</ele>
        <time>2021-06-01T11:09:08Z</time>
      </trkpt>
      <trkpt lat="45.70254" lon="6.632">
        <ele>1433.6</ele>
        <time>2021-06-01T11:09:09Z</time>
      </trkpt>
      <trkpt lat="45.7024" lon="6.63197">
        <ele>1432.6</ele>
        <time>2021-06-01T11:09:10Z</time>
      </trkpt>
      <trkpt lat="45.70228" lon="6.63195">
        <ele>1431.8</ele>
        <time>2021-06-01T11:09:11Z</time>
      </trkpt>
      <trkpt lat="45.70214" lon="6.63193">
        <ele>1430.8</ele>
        <time>2021-06-01T11:09:12Z</time>
      </trkpt>
      <trkpt lat="45.702" lon="6.63191">
        <ele>1429.8</ele>
        <time>2021-06-01T11:09:13Z</time>
      </trkpt>
      <trkpt lat="45.70187" lon="6.63189">
        <ele>1428.6</ele>
        <time>2021-06-01T11:09:14Z</time>
      </trkpt>
      <trkpt lat="45.70173" lon="6.63186">
        <ele>1427.6</ele>
        <time>2021-06-01T11:09:15Z</time>
      </trkpt>
      <trkpt lat="45.7016" lon="6.63182">
        <ele>1426.2</ele>
        <time>2021-06-01T11:09:16Z</time>
      </trkpt>
      <trkpt lat="45.70147" lon="6.63177">
        <ele>1425.2</ele>
        <time>2021-06-01T11:09:17Z</time>
      </trkpt>
      <trkpt lat="45.70134" lon="6.63171">
        <ele>1424.2</ele>
        <time>2021-06-01T11:09:18Z</time>
      </trkpt>
      <trkpt lat="45.70121" lon="6.63165">
        <ele>1423</ele>
        <time>2021-06-01T11:09:19Z</time>
      </trkpt>
      <trkpt lat="45.70108" lon="6.63159">
        <ele>1421.8</ele>
        <time>2021-06-01T11:09:20Z</time>
      </trkpt>
      <trkpt lat="45.70096" lon="6.63152">
        <ele>1420.2</ele>
        <time>2021-06-01T11:09:21Z</time>
      </trkpt>
      <trkpt lat="45.70084" lon="6.63143">
        <ele>1418.8</ele>
        <time>2021-06-01T11:09:22Z</time>
      </trkpt>
      <trkpt lat="45.70072" lon="6.63133">
        <ele>1417.6</ele>
        <time>2021-06-01T11:09:23Z</time>
      </trkpt>
      <trkpt lat="45.70061" lon="6.63124">
        <ele>1416.6</ele>
        <time>2021-06-01T11:09:24Z</time>
      </trkpt>
      <trkpt lat="45.70051" lon="6.63114">
        <ele>1415.4</ele>
        <time>2021-06-01T11:09:25Z</time>
      </trkpt>
      <trkpt lat="45.70041" lon="6.63105">
        <ele>1414.2</ele>
        <time>2021-06-01T11:09:26Z</time>
      </trkpt>
      <trkpt lat="45.70031" lon="6.63098">
        <ele>1412.8</ele>
        <time>2021-06-01T11:09:27Z</time>
      </trkpt>
      <trkpt lat="45.70023" lon="6.6309">
        <ele>1411.6</ele>
        <time>2021-06-01T11:09:28Z</time>
      </trkpt>
      <trkpt lat="45.70015" lon="6.63083">
        <ele>1410.6</ele>
        <time>2021-06-01T11:09:29Z</time>
      </trkpt>
      <trkpt lat="45.70011" lon="6.63075">
        <ele>1409.2</ele>
        <time>2021-06-01T11:09:30Z</time>
      </trkpt>
      <trkpt lat="45.70007" lon="6.63067">
        <ele>1408.2</ele>
        <time>2021-06-01T11:09:31Z</time>
      </trkpt>
      <trkpt lat="45.70005" lon="6.6306">
        <ele>1407.2</ele>
        <time>2021-06-01T11:09:32Z</time>
      </trkpt>
      <trkpt lat="45.70007" lon="6.63057">
        <ele>1406.4</ele>
        <time>2021-06-01T11:09:33Z</time>
      </trkpt>
      <trkpt lat="45.70007" lon="6.63053">
        <ele>1405.8</ele>
        <time>2021-06-01T11:09:34Z</time>
      </trkpt>
      <trkpt lat="45.70009" lon="6.63054">
        <ele>1405.4</ele>
        <time>2021-06-01T11:09:35Z</time>
      </trkpt>
      <trkpt lat="45.70015" lon="6.63058">
        <ele>1405</ele>
        <time>2021-06-01T11:09:36Z</time>
      </trkpt>
      <trkpt lat="45.70021" lon="6.63063">
        <ele>1404.8</ele>
        <time>2021-06-01T11:09:37Z</time>
      </trkpt>
      <trkpt lat="45.70028" lon="6.63068">
        <ele>1404</ele>
        <time>2021-06-01T11:09:38Z</time>
      </trkpt>
      <trkpt lat="45.70036" lon="6.63072">
        <ele>1403.8</ele>
        <time>2021-06-01T11:09:39Z</time>
      </trkpt>
      <trkpt lat="45.70043" lon="6.63075">
        <ele>1403.4</ele>
        <time>2021-06-01T11:09:40Z</time>
      </trkpt>
      <trkpt lat="45.70052" lon="6.63079">
        <ele>1403.2</ele>
        <time>2021-06-01T11:09:41Z</time>
      </trkpt>
      <trkpt lat="45.7006" lon="6.63082">
        <ele>1402.8</ele>
        <time>2021-06-01T11:09:42Z</time>
      </trkpt>
      <trkpt lat="45.70069" lon="6.63086">
        <ele>1402.2</ele>
        <time>2021-06-01T11:09:43Z</time>
      </trkpt>
      <trkpt lat="45.70078" lon="6.6309">
        <ele>1401.6</ele>
        <time>2021-06-01T11:09:44Z</time>
      </trkpt>
      <trkpt lat="45.70087" lon="6.63093">
        <ele>1401</ele>
        <time>2021-06-01T11:09:45Z</time>
      </trkpt>
      <trkpt lat="45.70096" lon="6.63097">
        <ele>1400.8</ele>
        <time>2021-06-01T11:09:46Z</time>
      </trkpt>
      <trkpt lat="45.70106" lon="6.63101">
        <ele>1400.4</ele>
        <time>2021-06-01T11:09:47Z</time>
      </trkpt>
      <trkpt lat="45.70116" lon="6.63106">
        <ele>1400</ele>
        <time>2021-06-01T11:09:48Z</time>
      </trkpt>
      <trkpt lat="45.70126" lon="6.6311">
        <ele>1399.2</ele>
        <time>2021-06-01T11:09:49Z</time>
      </trkpt>
      <trkpt lat="45.70135" lon="6.63116">
        <ele>1398.2</ele>
        <time>2021-06-01T11:09:50Z</time>
      </trkpt>
      <trkpt lat="45.70144" lon="6.63121">
        <ele>1397.2</ele>
        <time>2021-06-01T11:09:51Z</time>
      </trkpt>
      <trkpt lat="45.70151" lon="6.63124">
        <ele>1396.6</ele>
        <time>2021-06-01T11:09:52Z</time>
      </trkpt>
      <trkpt lat="45.70156" lon="6.63127">
        <ele>1395.8</ele>
        <time>2021-06-01T11:09:53Z</time>
      </trkpt>
      <trkpt lat="45.70161" lon="6.63128">
        <ele>1395.2</ele>
        <time>2021-06-01T11:09:54Z</time>
      </trkpt>
      <trkpt lat="45.70164" lon="6.63129">
        <ele>1394.6</ele>
        <time>2021-06-01T11:09:55Z</time>
      </trkpt>
      <trkpt lat="45.70167" lon="6.6313">
        <ele>1394</ele>
        <time>2021-06-01T11:09:56Z</time>
      </trkpt>
      <trkpt lat="45.70169" lon="6.6313">
        <ele>1393.4</ele>
        <time>2021-06-01T11:09:57Z</time>
      </trkpt>
      <trkpt lat="45.70171" lon="6.63127">
        <ele>1392.4</ele>
        <time>2021-06-01T11:09:59Z</time>
      </trkpt>
      <trkpt lat="45.70169" lon="6.63129">
        <ele>1390.8</ele>
        <time>2021-06-01T11:10:04Z</time>
      </trkpt>
      <trkpt lat="45.70166" lon="6.63128">
        <ele>1390.6</ele>
        <time>2021-06-01T11:10:06Z</time>
      </trkpt>
      <trkpt lat="45.70164" lon="6.63127">
        <ele>1390.6</ele>
        <time>2021-06-01T11:10:07Z</time>
      </trkpt>
      <trkpt lat="45.70162" lon="6.63126">
        <ele>1390.2</ele>
        <time>2021-06-01T11:10:08Z</time>
      </trkpt>
      <trkpt lat="45.7016" lon="6.63126">
        <ele>1390</ele>
        <time>2021-06-01T11:10:09Z</time>
      </trkpt>
      <trkpt lat="45.70158" lon="6.63126">
        <ele>1389.8</ele>
        <time>2021-06-01T11:10:10Z</time>
      </trkpt>
      <trkpt lat="45.70156" lon="6.63125">
        <ele>1389.6</ele>
        <time>2021-06-01T11:10:11Z</time>
      </trkpt>
      <trkpt lat="45.70153" lon="6.63124">
        <ele>1389.4</ele>
        <time>2021-06-01T11:10:12Z</time>
      </trkpt>
      <trkpt lat="45.70151" lon="6.63123">
        <ele>1389.6</ele>
        <time>2021-06-01T11:10:13Z</time>
      </trkpt>
      <trkpt lat="45.70147" lon="6.63121">
        <ele>1389.6</ele>
        <time>2021-06-01T11:10:15Z</time>
      </trkpt>
      <trkpt lat="45.70145" lon="6.63121">
        <ele>1389.6</ele>
        <time>2021-06-01T11:10:16Z</time>
      </trkpt>
      <trkpt lat="45.70142" lon="6.6312">
        <ele>1389.8</ele>
        <time>2021-06-01T11:10:17Z</time>
      </trkpt>
      <trkpt lat="45.7014" lon="6.6312">
        <ele>1389.8</ele>
        <time>2021-06-01T11:10:18Z</time>
      </trkpt>
      <trkpt lat="45.70137" lon="6.63119">
        <ele>1389.4</ele>
        <time>2021-06-01T11:10:19Z</time>
      </trkpt>
      <trkpt lat="45.70135" lon="6.63119">
        <ele>1389.4</ele>
        <time>2021-06-01T11:10:20Z</time>
      </trkpt>
      <trkpt lat="45.70133" lon="6.63118">
        <ele>1389.2</ele>
        <time>2021-06-01T11:10:21Z</time>
      </trkpt>
      <trkpt lat="45.70131" lon="6.63117">
        <ele>1389</ele>
        <time>2021-06-01T11:10:22Z</time>
      </trkpt>
      <trkpt lat="45.70128" lon="6.63117">
        <ele>1389</ele>
        <time>2021-06-01T11:10:23Z</time>
      </trkpt>
      <trkpt lat="45.70125" lon="6.63117">
        <ele>1389</ele>
        <time>2021-06-01T11:10:24Z</time>
      </trkpt>
      <trkpt lat="45.70123" lon="6.63115">
        <ele>1389</ele>
        <time>2021-06-01T11:10:25Z</time>
      </trkpt>
      <trkpt lat="45.70121" lon="6.63113">
        <ele>1389</ele>
        <time>2021-06-01T11:10:26Z</time>
      </trkpt>
      <trkpt lat="45.70119" lon="6.63112">
        <ele>1388.8</ele>
        <time>2021-06-01T11:10:27Z</time>
      </trkpt>
      <trkpt lat="45.70117" lon="6.63111">
        <ele>1388.6</ele>
        <time>2021-06-01T11:10:28Z</time>
      </trkpt>
      <trkpt lat="45.70116" lon="6.6311">
        <ele>1388.6</ele>
        <time>2021-06-01T11:10:29Z</time>
      </trkpt>
      <trkpt lat="45.70113" lon="6.63109">
        <ele>1388.4</ele>
        <time>2021-06-01T11:10:30Z</time>
      </trkpt>
      <trkpt lat="45.70111" lon="6.63108">
        <ele>1388.4</ele>
        <time>2021-06-01T11:10:31Z</time>
      </trkpt>
      <trkpt lat="45.70109" lon="6.63107">
        <ele>1388.2</ele>
        <time>2021-06-01T11:10:32Z</time>
      </trkpt>
      <trkpt lat="45.70107" lon="6.63107">
        <ele>1388.2</ele>
        <time>2021-06-01T11:10:33Z</time>
      </trkpt>
      <trkpt lat="45.70104" lon="6.63106">
        <ele>1387.8</ele>
        <time>2021-06-01T11:10:34Z</time>
      </trkpt>
      <trkpt lat="45.70102" lon="6.63106">
        <ele>1387.8</ele>
        <time>2021-06-01T11:10:35Z</time>
      </trkpt>
      <trkpt lat="45.701" lon="6.63105">
        <ele>1387.8</ele>
        <time>2021-06-01T11:10:36Z</time>
      </trkpt>
      <trkpt lat="45.70098" lon="6.63104">
        <ele>1387.8</ele>
        <time>2021-06-01T11:10:37Z</time>
      </trkpt>
      <trkpt lat="45.70095" lon="6.63103">
        <ele>1387.8</ele>
        <time>2021-06-01T11:10:38Z</time>
      </trkpt>
      <trkpt lat="45.70093" lon="6.63102">
        <ele>1387.8</ele>
        <time>2021-06-01T11:10:39Z</time>
      </trkpt>
      <trkpt lat="45.70091" lon="6.63102">
        <ele>1387.6</ele>
        <time>2021-06-01T11:10:40Z</time>
      </trkpt>
      <trkpt lat="45.70088" lon="6.63101">
        <ele>1387.6</ele>
        <time>2021-06-01T11:10:41Z</time>
      </trkpt>
      <trkpt lat="45.70086" lon="6.63101">
        <ele>1387.4</ele>
        <time>2021-06-01T11:10:42Z</time>
      </trkpt>
      <trkpt lat="45.70083" lon="6.63101">
        <ele>1387.4</ele>
        <time>2021-06-01T11:10:43Z</time>
      </trkpt>
      <trkpt lat="45.70081" lon="6.631">
        <ele>1387.2</ele>
        <time>2021-06-01T11:10:44Z</time>
      </trkpt>
      <trkpt lat="45.70078" lon="6.631">
        <ele>1387.2</ele>
        <time>2021-06-01T11:10:45Z</time>
      </trkpt>
      <trkpt lat="45.70076" lon="6.631">
        <ele>1387</ele>
        <time>2021-06-01T11:10:46Z</time>
      </trkpt>
      <trkpt lat="45.70074" lon="6.63099">
        <ele>1387</ele>
        <time>2021-06-01T11:10:47Z</time>
      </trkpt>
      <trkpt lat="45.70071" lon="6.63099">
        <ele>1386.8</ele>
        <time>2021-06-01T11:10:48Z</time>
      </trkpt>
      <trkpt lat="45.70069" lon="6.63098">
        <ele>1386.8</ele>
        <time>2021-06-01T11:10:49Z</time>
      </trkpt>
      <trkpt lat="45.70067" lon="6.63098">
        <ele>1386.6</ele>
        <time>2021-06-01T11:10:50Z</time>
      </trkpt>
      <trkpt lat="45.70064" lon="6.63097">
        <ele>1386.4</ele>
        <time>2021-06-01T11:10:51Z</time>
      </trkpt>
      <trkpt lat="45.70061" lon="6.63096">
        <ele>1386.2</ele>
        <time>2021-06-01T11:10:52Z</time>
      </trkpt>
      <trkpt lat="45.70059" lon="6.63094">
        <ele>1386.2</ele>
        <time>2021-06-01T11:10:53Z</time>
      </trkpt>
      <trkpt lat="45.70056" lon="6.63093">
        <ele>1386.2</ele>
        <time>2021-06-01T11:10:54Z</time>
      </trkpt>
      <trkpt lat="45.70053" lon="6.63091">
        <ele>1386.2</ele>
        <time>2021-06-01T11:10:55Z</time>
      </trkpt>
      <trkpt lat="45.70051" lon="6.63089">
        <ele>1386.2</ele>
        <time>2021-06-01T11:10:56Z</time>
      </trkpt>
      <trkpt lat="45.70049" lon="6.63088">
        <ele>1386.2</ele>
        <time>2021-06-01T11:10:57Z</time>
      </trkpt>
      <trkpt lat="45.70047" lon="6.63086">
        <ele>1386.2</ele>
        <time>2021-06-01T11:10:58Z</time>
      </trkpt>
      <trkpt lat="45.70044" lon="6.63083">
        <ele>1386.2</ele>
        <time>2021-06-01T11:10:59Z</time>
      </trkpt>
      <trkpt lat="45.70042" lon="6.63081">
        <ele>1386</ele>
        <time>2021-06-01T11:11:00Z</time>
      </trkpt>
      <trkpt lat="45.70039" lon="6.63079">
        <ele>1386</ele>
        <time>2021-06-01T11:11:01Z</time>
      </trkpt>
      <trkpt lat="45.70037" lon="6.63077">
        <ele>1385.8</ele>
        <time>2021-06-01T11:11:02Z</time>
      </trkpt>
      <trkpt lat="45.70036" lon="6.63076">
        <ele>1385.8</ele>
        <time>2021-06-01T11:11:03Z</time>
      </trkpt>
      <trkpt lat="45.70033" lon="6.63074">
        <ele>1385.8</ele>
        <time>2021-06-01T11:11:04Z</time>
      </trkpt>
      <trkpt lat="45.70031" lon="6.63071">
        <ele>1385.6</ele>
        <time>2021-06-01T11:11:05Z</time>
      </trkpt>
      <trkpt lat="45.70029" lon="6.63069">
        <ele>1385.4</ele>
        <time>2021-06-01T11:11:06Z</time>
      </trkpt>
      <trkpt lat="45.70027" lon="6.63068">
        <ele>1385.4</ele>
        <time>2021-06-01T11:11:07Z</time>
      </trkpt>
      <trkpt lat="45.70025" lon="6.63066">
        <ele>1385.6</ele>
        <time>2021-06-01T11:11:08Z</time>
      </trkpt>
      <trkpt lat="45.70023" lon="6.63065">
        <ele>1385.2</ele>
        <time>2021-06-01T11:11:09Z</time>
      </trkpt>
      <trkpt lat="45.7002" lon="6.63065">
        <ele>1385.2</ele>
        <time>2021-06-01T11:11:10Z</time>
      </trkpt>
      <trkpt lat="45.70018" lon="6.63066">
        <ele>1385</ele>
        <time>2021-06-01T11:11:11Z</time>
      </trkpt>
      <trkpt lat="45.70016" lon="6.63069">
        <ele>1384.8</ele>
        <time>2021-06-01T11:11:12Z</time>
      </trkpt>
      <trkpt lat="45.70015" lon="6.63072">
        <ele>1384.8</ele>
        <time>2021-06-01T11:11:13Z</time>
      </trkpt>
      <trkpt lat="45.70015" lon="6.63076">
        <ele>1384.8</ele>
        <time>2021-06-01T11:11:14Z</time>
      </trkpt>
      <trkpt lat="45.70015" lon="6.6308">
        <ele>1384.6</ele>
        <time>2021-06-01T11:11:15Z</time>
      </trkpt>
      <trkpt lat="45.70015" lon="6.63084">
        <ele>1384.4</ele>
        <time>2021-06-01T11:11:16Z</time>
      </trkpt>
      <trkpt lat="45.70016" lon="6.63088">
        <ele>1384.6</ele>
        <time>2021-06-01T11:11:17Z</time>
      </trkpt>
      <trkpt lat="45.70018" lon="6.63091">
        <ele>1384.6</ele>
        <time>2021-06-01T11:11:18Z</time>
      </trkpt>
      <trkpt lat="45.70019" lon="6.63094">
        <ele>1384.8</ele>
        <time>2021-06-01T11:11:19Z</time>
      </trkpt>
      <trkpt lat="45.70021" lon="6.63096">
        <ele>1384.8</ele>
        <time>2021-06-01T11:11:20Z</time>
      </trkpt>
      <trkpt lat="45.70023" lon="6.63099">
        <ele>1384.8</ele>
        <time>2021-06-01T11:11:21Z</time>
      </trkpt>
      <trkpt lat="45.70025" lon="6.63101">
        <ele>1384.8</ele>
        <time>2021-06-01T11:11:22Z</time>
      </trkpt>
      <trkpt lat="45.70027" lon="6.63104">
        <ele>1384.8</ele>
        <time>2021-06-01T11:11:23Z</time>
      </trkpt>
      <trkpt lat="45.70029" lon="6.63105">
        <ele>1385</ele>
        <time>2021-06-01T11:11:24Z</time>
      </trkpt>
      <trkpt lat="45.70031" lon="6.63106">
        <ele>1385.2</ele>
        <time>2021-06-01T11:11:25Z</time>
      </trkpt>
      <trkpt lat="45.70033" lon="6.63107">
        <ele>1385</ele>
        <time>2021-06-01T11:11:26Z</time>
      </trkpt>
      <trkpt lat="45.70036" lon="6.63111">
        <ele>1384.6</ele>
        <time>2021-06-01T11:11:28Z</time>
      </trkpt>
      <trkpt lat="45.70037" lon="6.63112">
        <ele>1384.4</ele>
        <time>2021-06-01T11:11:29Z</time>
      </trkpt>
      <trkpt lat="45.7004" lon="6.63114">
        <ele>1384.2</ele>
        <time>2021-06-01T11:11:31Z</time>
      </trkpt>
      <trkpt lat="45.70043" lon="6.63115">
        <ele>1384</ele>
        <time>2021-06-01T11:11:33Z</time>
      </trkpt>
      <trkpt lat="45.70044" lon="6.63117">
        <ele>1383.8</ele>
        <time>2021-06-01T11:11:34Z</time>
      </trkpt>
      <trkpt lat="45.70047" lon="6.63119">
        <ele>1383.8</ele>
        <time>2021-06-01T11:11:35Z</time>
      </trkpt>
      <trkpt lat="45.70049" lon="6.6312">
        <ele>1383.8</ele>
        <time>2021-06-01T11:11:36Z</time>
      </trkpt>
      <trkpt lat="45.70051" lon="6.63123">
        <ele>1384</ele>
        <time>2021-06-01T11:11:38Z</time>
      </trkpt>
      <trkpt lat="45.70053" lon="6.63124">
        <ele>1384.4</ele>
        <time>2021-06-01T11:11:39Z</time>
      </trkpt>
      <trkpt lat="45.70057" lon="6.63126">
        <ele>1384.8</ele>
        <time>2021-06-01T11:11:41Z</time>
      </trkpt>
      <trkpt lat="45.70059" lon="6.63127">
        <ele>1385.2</ele>
        <time>2021-06-01T11:11:42Z</time>
      </trkpt>
      <trkpt lat="45.70061" lon="6.63129">
        <ele>1385.8</ele>
        <time>2021-06-01T11:11:44Z</time>
      </trkpt>
      <trkpt lat="45.70063" lon="6.63131">
        <ele>1386</ele>
        <time>2021-06-01T11:11:45Z</time>
      </trkpt>
      <trkpt lat="45.70065" lon="6.63132">
        <ele>1386.2</ele>
        <time>2021-06-01T11:11:46Z</time>
      </trkpt>
      <trkpt lat="45.70067" lon="6.63134">
        <ele>1386.4</ele>
        <time>2021-06-01T11:11:47Z</time>
      </trkpt>
      <trkpt lat="45.70069" lon="6.63136">
        <ele>1386.8</ele>
        <time>2021-06-01T11:11:49Z</time>
      </trkpt>
      <trkpt lat="45.70073" lon="6.63138">
        <ele>1387.2</ele>
        <time>2021-06-01T11:11:51Z</time>
      </trkpt>
      <trkpt lat="45.70075" lon="6.63139">
        <ele>1387.4</ele>
        <time>2021-06-01T11:11:52Z</time>
      </trkpt>
      <trkpt lat="45.70076" lon="6.6314">
        <ele>1387.6</ele>
        <time>2021-06-01T11:11:53Z</time>
      </trkpt>
      <trkpt lat="45.70078" lon="6.63141">
        <ele>1387.8</ele>
        <time>2021-06-01T11:11:54Z</time>
      </trkpt>
      <trkpt lat="45.7008" lon="6.63142">
        <ele>1388.2</ele>
        <time>2021-06-01T11:11:55Z</time>
      </trkpt>
      <trkpt lat="45.70082" lon="6.63144">
        <ele>1388.4</ele>
        <time>2021-06-01T11:11:56Z</time>
      </trkpt>
      <trkpt lat="45.70084" lon="6.63147">
        <ele>1388.8</ele>
        <time>2021-06-01T11:11:57Z</time>
      </trkpt>
      <trkpt lat="45.70085" lon="6.63149">
        <ele>1389</ele>
        <time>2021-06-01T11:11:58Z</time>
      </trkpt>
      <trkpt lat="45.70088" lon="6.6315">
        <ele>1389.2</ele>
        <time>2021-06-01T11:11:59Z</time>
      </trkpt>
      <trkpt lat="45.7009" lon="6.6315">
        <ele>1389.6</ele>
        <time>2021-06-01T11:12:00Z</time>
      </trkpt>
      <trkpt lat="45.70092" lon="6.63151">
        <ele>1390</ele>
        <time>2021-06-01T11:12:01Z</time>
      </trkpt>
      <trkpt lat="45.70094" lon="6.63153">
        <ele>1390.4</ele>
        <time>2021-06-01T11:12:02Z</time>
      </trkpt>
      <trkpt lat="45.70096" lon="6.63154">
        <ele>1390.6</ele>
        <time>2021-06-01T11:12:03Z</time>
      </trkpt>
      <trkpt lat="45.70099" lon="6.63156">
        <ele>1391</ele>
        <time>2021-06-01T11:12:04Z</time>
      </trkpt>
      <trkpt lat="45.70101" lon="6.63158">
        <ele>1391.4</ele>
        <time>2021-06-01T11:12:05Z</time>
      </trkpt>
      <trkpt lat="45.70103" lon="6.6316">
        <ele>1392.2</ele>
        <time>2021-06-01T11:12:06Z</time>
      </trkpt>
      <trkpt lat="45.70105" lon="6.63162">
        <ele>1392.6</ele>
        <time>2021-06-01T11:12:07Z</time>
      </trkpt>
      <trkpt lat="45.70107" lon="6.63164">
        <ele>1392.6</ele>
        <time>2021-06-01T11:12:08Z</time>
      </trkpt>
      <trkpt lat="45.7011" lon="6.63165">
        <ele>1392.8</ele>
        <time>2021-06-01T11:12:10Z</time>
      </trkpt>
      <trkpt lat="45.70112" lon="6.63166">
        <ele>1393.2</ele>
        <time>2021-06-01T11:12:11Z</time>
      </trkpt>
      <trkpt lat="45.70115" lon="6.63167">
        <ele>1393.2</ele>
        <time>2021-06-01T11:12:12Z</time>
      </trkpt>
      <trkpt lat="45.70116" lon="6.63168">
        <ele>1393.4</ele>
        <time>2021-06-01T11:12:13Z</time>
      </trkpt>
      <trkpt lat="45.70119" lon="6.63169">
        <ele>1393.4</ele>
        <time>2021-06-01T11:12:14Z</time>
      </trkpt>
      <trkpt lat="45.70121" lon="6.6317">
        <ele>1393.4</ele>
        <time>2021-06-01T11:12:15Z</time>
      </trkpt>
      <trkpt lat="45.70124" lon="6.63173">
        <ele>1393.2</ele>
        <time>2021-06-01T11:12:16Z</time>
      </trkpt>
      <trkpt lat="45.70126" lon="6.63175">
        <ele>1393.4</ele>
        <time>2021-06-01T11:12:17Z</time>
      </trkpt>
      <trkpt lat="45.70128" lon="6.63177">
        <ele>1393.4</ele>
        <time>2021-06-01T11:12:18Z</time>
      </trkpt>
      <trkpt lat="45.70131" lon="6.63178">
        <ele>1393.6</ele>
        <time>2021-06-01T11:12:19Z</time>
      </trkpt>
      <trkpt lat="45.70133" lon="6.6318">
        <ele>1394</ele>
        <time>2021-06-01T11:12:20Z</time>
      </trkpt>
      <trkpt lat="45.70135" lon="6.63181">
        <ele>1394.4</ele>
        <time>2021-06-01T11:12:21Z</time>
      </trkpt>
      <trkpt lat="45.70138" lon="6.63183">
        <ele>1394.6</ele>
        <time>2021-06-01T11:12:22Z</time>
      </trkpt>
      <trkpt lat="45.70141" lon="6.63185">
        <ele>1394.8</ele>
        <time>2021-06-01T11:12:23Z</time>
      </trkpt>
      <trkpt lat="45.70143" lon="6.63187">
        <ele>1395</ele>
        <time>2021-06-01T11:12:24Z</time>
      </trkpt>
      <trkpt lat="45.70145" lon="6.63188">
        <ele>1395.2</ele>
        <time>2021-06-01T11:12:25Z</time>
      </trkpt>
      <trkpt lat="45.70148" lon="6.63189">
        <ele>1395.6</ele>
        <time>2021-06-01T11:12:26Z</time>
      </trkpt>
      <trkpt lat="45.7015" lon="6.63189">
        <ele>1395.8</ele>
        <time>2021-06-01T11:12:27Z</time>
      </trkpt>
      <trkpt lat="45.70152" lon="6.6319">
        <ele>1396.2</ele>
        <time>2021-06-01T11:12:28Z</time>
      </trkpt>
      <trkpt lat="45.70154" lon="6.63191">
        <ele>1396.4</ele>
        <time>2021-06-01T11:12:29Z</time>
      </trkpt>
      <trkpt lat="45.70157" lon="6.63191">
        <ele>1396.2</ele>
        <time>2021-06-01T11:12:31Z</time>
      </trkpt>
      <trkpt lat="45.70159" lon="6.63191">
        <ele>1396.2</ele>
        <time>2021-06-01T11:12:32Z</time>
      </trkpt>
      <trkpt lat="45.70161" lon="6.6319">
        <ele>1396.2</ele>
        <time>2021-06-01T11:12:33Z</time>
      </trkpt>
      <trkpt lat="45.70163" lon="6.63191">
        <ele>1396</ele>
        <time>2021-06-01T11:12:34Z</time>
      </trkpt>
      <trkpt lat="45.70165" lon="6.63192">
        <ele>1396</ele>
        <time>2021-06-01T11:12:35Z</time>
      </trkpt>
      <trkpt lat="45.70167" lon="6.63192">
        <ele>1396</ele>
        <time>2021-06-01T11:12:36Z</time>
      </trkpt>
      <trkpt lat="45.7017" lon="6.63194">
        <ele>1396</ele>
        <time>2021-06-01T11:12:37Z</time>
      </trkpt>
      <trkpt lat="45.70174" lon="6.63195">
        <ele>1396</ele>
        <time>2021-06-01T11:12:39Z</time>
      </trkpt>
      <trkpt lat="45.70176" lon="6.63196">
        <ele>1396</ele>
        <time>2021-06-01T11:12:40Z</time>
      </trkpt>
      <trkpt lat="45.70178" lon="6.63197">
        <ele>1396</ele>
        <time>2021-06-01T11:12:41Z</time>
      </trkpt>
      <trkpt lat="45.70181" lon="6.63198">
        <ele>1396.2</ele>
        <time>2021-06-01T11:12:43Z</time>
      </trkpt>
      <trkpt lat="45.70183" lon="6.63198">
        <ele>1396.2</ele>
        <time>2021-06-01T11:12:44Z</time>
      </trkpt>
      <trkpt lat="45.70186" lon="6.63199">
        <ele>1396.4</ele>
        <time>2021-06-01T11:12:45Z</time>
      </trkpt>
      <trkpt lat="45.70188" lon="6.63199">
        <ele>1396.6</ele>
        <time>2021-06-01T11:12:46Z</time>
      </trkpt>
      <trkpt lat="45.7019" lon="6.632">
        <ele>1396.6</ele>
        <time>2021-06-01T11:12:47Z</time>
      </trkpt>
      <trkpt lat="45.70192" lon="6.63201">
        <ele>1397</ele>
        <time>2021-06-01T11:12:48Z</time>
      </trkpt>
      <trkpt lat="45.70194" lon="6.63203">
        <ele>1397</ele>
        <time>2021-06-01T11:12:49Z</time>
      </trkpt>
      <trkpt lat="45.70196" lon="6.63204">
        <ele>1397.2</ele>
        <time>2021-06-01T11:12:50Z</time>
      </trkpt>
      <trkpt lat="45.70199" lon="6.63206">
        <ele>1397.4</ele>
        <time>2021-06-01T11:12:51Z</time>
      </trkpt>
      <trkpt lat="45.70202" lon="6.63208">
        <ele>1397.4</ele>
        <time>2021-06-01T11:12:52Z</time>
      </trkpt>
      <trkpt lat="45.70204" lon="6.63208">
        <ele>1397.6</ele>
        <time>2021-06-01T11:12:53Z</time>
      </trkpt>
      <trkpt lat="45.70206" lon="6.63208">
        <ele>1397.6</ele>
        <time>2021-06-01T11:12:54Z</time>
      </trkpt>
      <trkpt lat="45.70208" lon="6.63208">
        <ele>1397.6</ele>
        <time>2021-06-01T11:12:55Z</time>
      </trkpt>
      <trkpt lat="45.70211" lon="6.63208">
        <ele>1397.8</ele>
        <time>2021-06-01T11:12:56Z</time>
      </trkpt>
      <trkpt lat="45.70213" lon="6.63209">
        <ele>1398.2</ele>
        <time>2021-06-01T11:12:57Z</time>
      </trkpt>
      <trkpt lat="45.70218" lon="6.6321">
        <ele>1398.2</ele>
        <time>2021-06-01T11:12:59Z</time>
      </trkpt>
      <trkpt lat="45.7022" lon="6.6321">
        <ele>1398.2</ele>
        <time>2021-06-01T11:13:00Z</time>
      </trkpt>
      <trkpt lat="45.70222" lon="6.6321">
        <ele>1398.6</ele>
        <time>2021-06-01T11:13:01Z</time>
      </trkpt>
      <trkpt lat="45.70224" lon="6.63209">
        <ele>1398.8</ele>
        <time>2021-06-01T11:13:02Z</time>
      </trkpt>
      <trkpt lat="45.70226" lon="6.6321">
        <ele>1399.2</ele>
        <time>2021-06-01T11:13:03Z</time>
      </trkpt>
      <trkpt lat="45.70228" lon="6.6321">
        <ele>1399.6</ele>
        <time>2021-06-01T11:13:04Z</time>
      </trkpt>
      <trkpt lat="45.7023" lon="6.6321">
        <ele>1399.8</ele>
        <time>2021-06-01T11:13:05Z</time>
      </trkpt>
      <trkpt lat="45.70232" lon="6.63211">
        <ele>1400.4</ele>
        <time>2021-06-01T11:13:06Z</time>
      </trkpt>
      <trkpt lat="45.70235" lon="6.63212">
        <ele>1400.6</ele>
        <time>2021-06-01T11:13:07Z</time>
      </trkpt>
      <trkpt lat="45.70236" lon="6.63211">
        <ele>1401</ele>
        <time>2021-06-01T11:13:08Z</time>
      </trkpt>
      <trkpt lat="45.70238" lon="6.63211">
        <ele>1401.2</ele>
        <time>2021-06-01T11:13:09Z</time>
      </trkpt>
      <trkpt lat="45.7024" lon="6.63211">
        <ele>1401.4</ele>
        <time>2021-06-01T11:13:10Z</time>
      </trkpt>
      <trkpt lat="45.70242" lon="6.63212">
        <ele>1401.8</ele>
        <time>2021-06-01T11:13:11Z</time>
      </trkpt>
      <trkpt lat="45.70244" lon="6.63213">
        <ele>1402.2</ele>
        <time>2021-06-01T11:13:12Z</time>
      </trkpt>
      <trkpt lat="45.70246" lon="6.63214">
        <ele>1402.6</ele>
        <time>2021-06-01T11:13:13Z</time>
      </trkpt>
      <trkpt lat="45.70248" lon="6.63215">
        <ele>1402.8</ele>
        <time>2021-06-01T11:13:14Z</time>
      </trkpt>
      <trkpt lat="45.7025" lon="6.63217">
        <ele>1403</ele>
        <time>2021-06-01T11:13:15Z</time>
      </trkpt>
      <trkpt lat="45.70252" lon="6.63218">
        <ele>1403.4</ele>
        <time>2021-06-01T11:13:16Z</time>
      </trkpt>
      <trkpt lat="45.70254" lon="6.63218">
        <ele>1403.8</ele>
        <time>2021-06-01T11:13:17Z</time>
      </trkpt>
      <trkpt lat="45.70256" lon="6.63219">
        <ele>1404.2</ele>
        <time>2021-06-01T11:13:18Z</time>
      </trkpt>
      <trkpt lat="45.70258" lon="6.63221">
        <ele>1405</ele>
        <time>2021-06-01T11:13:19Z</time>
      </trkpt>
      <trkpt lat="45.7026" lon="6.63222">
        <ele>1405.6</ele>
        <time>2021-06-01T11:13:20Z</time>
      </trkpt>
      <trkpt lat="45.70263" lon="6.63224">
        <ele>1406</ele>
        <time>2021-06-01T11:13:21Z</time>
      </trkpt>
      <trkpt lat="45.70266" lon="6.63225">
        <ele>1406.6</ele>
        <time>2021-06-01T11:13:22Z</time>
      </trkpt>
      <trkpt lat="45.70268" lon="6.63226">
        <ele>1407</ele>
        <time>2021-06-01T11:13:23Z</time>
      </trkpt>
      <trkpt lat="45.7027" lon="6.63227">
        <ele>1407.4</ele>
        <time>2021-06-01T11:13:24Z</time>
      </trkpt>
      <trkpt lat="45.70272" lon="6.63228">
        <ele>1408</ele>
        <time>2021-06-01T11:13:25Z</time>
      </trkpt>
      <trkpt lat="45.70274" lon="6.63228">
        <ele>1408.4</ele>
        <time>2021-06-01T11:13:26Z</time>
      </trkpt>
      <trkpt lat="45.70276" lon="6.63228">
        <ele>1409</ele>
        <time>2021-06-01T11:13:27Z</time>
      </trkpt>
      <trkpt lat="45.70278" lon="6.63229">
        <ele>1409.2</ele>
        <time>2021-06-01T11:13:28Z</time>
      </trkpt>
      <trkpt lat="45.70281" lon="6.6323">
        <ele>1409.6</ele>
        <time>2021-06-01T11:13:29Z</time>
      </trkpt>
      <trkpt lat="45.70283" lon="6.63231">
        <ele>1410</ele>
        <time>2021-06-01T11:13:30Z</time>
      </trkpt>
      <trkpt lat="45.70285" lon="6.6323">
        <ele>1410.2</ele>
        <time>2021-06-01T11:13:31Z</time>
      </trkpt>
      <trkpt lat="45.70288" lon="6.63231">
        <ele>1410.6</ele>
        <time>2021-06-01T11:13:32Z</time>
      </trkpt>
      <trkpt lat="45.7029" lon="6.6323">
        <ele>1410.6</ele>
        <time>2021-06-01T11:13:33Z</time>
      </trkpt>
      <trkpt lat="45.70292" lon="6.63231">
        <ele>1410.6</ele>
        <time>2021-06-01T11:13:34Z</time>
      </trkpt>
      <trkpt lat="45.70294" lon="6.6323">
        <ele>1410.6</ele>
        <time>2021-06-01T11:13:35Z</time>
      </trkpt>
      <trkpt lat="45.70296" lon="6.6323">
        <ele>1410.6</ele>
        <time>2021-06-01T11:13:36Z</time>
      </trkpt>
      <trkpt lat="45.70298" lon="6.63231">
        <ele>1410.4</ele>
        <time>2021-06-01T11:13:37Z</time>
      </trkpt>
      <trkpt lat="45.70301" lon="6.63231">
        <ele>1410.4</ele>
        <time>2021-06-01T11:13:38Z</time>
      </trkpt>
      <trkpt lat="45.70303" lon="6.6323">
        <ele>1410.2</ele>
        <time>2021-06-01T11:13:39Z</time>
      </trkpt>
      <trkpt lat="45.70305" lon="6.6323">
        <ele>1410</ele>
        <time>2021-06-01T11:13:40Z</time>
      </trkpt>
      <trkpt lat="45.70307" lon="6.63229">
        <ele>1409.8</ele>
        <time>2021-06-01T11:13:41Z</time>
      </trkpt>
      <trkpt lat="45.70309" lon="6.63228">
        <ele>1409.6</ele>
        <time>2021-06-01T11:13:42Z</time>
      </trkpt>
      <trkpt lat="45.70311" lon="6.63227">
        <ele>1409.4</ele>
        <time>2021-06-01T11:13:43Z</time>
      </trkpt>
      <trkpt lat="45.70315" lon="6.63226">
        <ele>1409</ele>
        <time>2021-06-01T11:13:45Z</time>
      </trkpt>
      <trkpt lat="45.70317" lon="6.63224">
        <ele>1408.2</ele>
        <time>2021-06-01T11:13:47Z</time>
      </trkpt>
      <trkpt lat="45.70319" lon="6.63223">
        <ele>1408</ele>
        <time>2021-06-01T11:13:48Z</time>
      </trkpt>
      <trkpt lat="45.70321" lon="6.63222">
        <ele>1408</ele>
        <time>2021-06-01T11:13:49Z</time>
      </trkpt>
      <trkpt lat="45.70323" lon="6.6322">
        <ele>1407.6</ele>
        <time>2021-06-01T11:13:51Z</time>
      </trkpt>
      <trkpt lat="45.70326" lon="6.63219">
        <ele>1407.2</ele>
        <time>2021-06-01T11:13:53Z</time>
      </trkpt>
      <trkpt lat="45.70328" lon="6.63218">
        <ele>1406.6</ele>
        <time>2021-06-01T11:13:55Z</time>
      </trkpt>
      <trkpt lat="45.70331" lon="6.63218">
        <ele>1406.4</ele>
        <time>2021-06-01T11:13:57Z</time>
      </trkpt>
      <trkpt lat="45.70333" lon="6.63218">
        <ele>1406.2</ele>
        <time>2021-06-01T11:13:58Z</time>
      </trkpt>
      <trkpt lat="45.70335" lon="6.63218">
        <ele>1406</ele>
        <time>2021-06-01T11:13:59Z</time>
      </trkpt>
      <trkpt lat="45.70337" lon="6.63217">
        <ele>1405.6</ele>
        <time>2021-06-01T11:14:00Z</time>
      </trkpt>
      <trkpt lat="45.7034" lon="6.63217">
        <ele>1405.6</ele>
        <time>2021-06-01T11:14:01Z</time>
      </trkpt>
      <trkpt lat="45.70342" lon="6.63217">
        <ele>1405.6</ele>
        <time>2021-06-01T11:14:02Z</time>
      </trkpt>
      <trkpt lat="45.70345" lon="6.63216">
        <ele>1405.6</ele>
        <time>2021-06-01T11:14:03Z</time>
      </trkpt>
      <trkpt lat="45.70347" lon="6.63216">
        <ele>1405.6</ele>
        <time>2021-06-01T11:14:04Z</time>
      </trkpt>
      <trkpt lat="45.70349" lon="6.63215">
        <ele>1405.6</ele>
        <time>2021-06-01T11:14:05Z</time>
      </trkpt>
      <trkpt lat="45.70351" lon="6.63214">
        <ele>1405.8</ele>
        <time>2021-06-01T11:14:06Z</time>
      </trkpt>
      <trkpt lat="45.70354" lon="6.63214">
        <ele>1405.8</ele>
        <time>2021-06-01T11:14:07Z</time>
      </trkpt>
      <trkpt lat="45.70356" lon="6.63214">
        <ele>1405.8</ele>
        <time>2021-06-01T11:14:08Z</time>
      </trkpt>
      <trkpt lat="45.70359" lon="6.63214">
        <ele>1405.8</ele>
        <time>2021-06-01T11:14:09Z</time>
      </trkpt>
      <trkpt lat="45.70361" lon="6.63214">
        <ele>1405.8</ele>
        <time>2021-06-01T11:14:10Z</time>
      </trkpt>
      <trkpt lat="45.70364" lon="6.63215">
        <ele>1405.8</ele>
        <time>2021-06-01T11:14:11Z</time>
      </trkpt>
      <trkpt lat="45.70366" lon="6.63215">
        <ele>1406</ele>
        <time>2021-06-01T11:14:12Z</time>
      </trkpt>
      <trkpt lat="45.70369" lon="6.63215">
        <ele>1406.2</ele>
        <time>2021-06-01T11:14:13Z</time>
      </trkpt>
      <trkpt lat="45.70371" lon="6.63216">
        <ele>1406.4</ele>
        <time>2021-06-01T11:14:14Z</time>
      </trkpt>
      <trkpt lat="45.70373" lon="6.63217">
        <ele>1406.4</ele>
        <time>2021-06-01T11:14:15Z</time>
      </trkpt>
      <trkpt lat="45.70376" lon="6.63218">
        <ele>1406.6</ele>
        <time>2021-06-01T11:14:16Z</time>
      </trkpt>
      <trkpt lat="45.70378" lon="6.63219">
        <ele>1406.6</ele>
        <time>2021-06-01T11:14:17Z</time>
      </trkpt>
      <trkpt lat="45.70381" lon="6.63221">
        <ele>1406.6</ele>
        <time>2021-06-01T11:14:18Z</time>
      </trkpt>
      <trkpt lat="45.70383" lon="6.63222">
        <ele>1406.6</ele>
        <time>2021-06-01T11:14:19Z</time>
      </trkpt>
      <trkpt lat="45.70385" lon="6.63224">
        <ele>1406.8</ele>
        <time>2021-06-01T11:14:20Z</time>
      </trkpt>
      <trkpt lat="45.70387" lon="6.63225">
        <ele>1406.8</ele>
        <time>2021-06-01T11:14:21Z</time>
      </trkpt>
      <trkpt lat="45.7039" lon="6.63227">
        <ele>1407</ele>
        <time>2021-06-01T11:14:22Z</time>
      </trkpt>
      <trkpt lat="45.70392" lon="6.63229">
        <ele>1407</ele>
        <time>2021-06-01T11:14:23Z</time>
      </trkpt>
      <trkpt lat="45.70394" lon="6.63231">
        <ele>1407</ele>
        <time>2021-06-01T11:14:24Z</time>
      </trkpt>
      <trkpt lat="45.70396" lon="6.63233">
        <ele>1407.2</ele>
        <time>2021-06-01T11:14:25Z</time>
      </trkpt>
      <trkpt lat="45.70397" lon="6.63234">
        <ele>1407.2</ele>
        <time>2021-06-01T11:14:26Z</time>
      </trkpt>
      <trkpt lat="45.70399" lon="6.63236">
        <ele>1407</ele>
        <time>2021-06-01T11:14:27Z</time>
      </trkpt>
      <trkpt lat="45.70402" lon="6.63238">
        <ele>1407.2</ele>
        <time>2021-06-01T11:14:28Z</time>
      </trkpt>
      <trkpt lat="45.70404" lon="6.6324">
        <ele>1407.4</ele>
        <time>2021-06-01T11:14:29Z</time>
      </trkpt>
      <trkpt lat="45.70406" lon="6.63242">
        <ele>1407.4</ele>
        <time>2021-06-01T11:14:30Z</time>
      </trkpt>
      <trkpt lat="45.70408" lon="6.63244">
        <ele>1407.4</ele>
        <time>2021-06-01T11:14:31Z</time>
      </trkpt>
      <trkpt lat="45.7041" lon="6.63245">
        <ele>1407.4</ele>
        <time>2021-06-01T11:14:32Z</time>
      </trkpt>
      <trkpt lat="45.70413" lon="6.63245">
        <ele>1407.6</ele>
        <time>2021-06-01T11:14:33Z</time>
      </trkpt>
      <trkpt lat="45.70415" lon="6.63247">
        <ele>1407.8</ele>
        <time>2021-06-01T11:14:34Z</time>
      </trkpt>
      <trkpt lat="45.70417" lon="6.63247">
        <ele>1407.8</ele>
        <time>2021-06-01T11:14:35Z</time>
      </trkpt>
      <trkpt lat="45.7042" lon="6.63248">
        <ele>1407.6</ele>
        <time>2021-06-01T11:14:36Z</time>
      </trkpt>
      <trkpt lat="45.70422" lon="6.63248">
        <ele>1407.6</ele>
        <time>2021-06-01T11:14:37Z</time>
      </trkpt>
      <trkpt lat="45.70424" lon="6.63248">
        <ele>1407.6</ele>
        <time>2021-06-01T11:14:38Z</time>
      </trkpt>
      <trkpt lat="45.70426" lon="6.63248">
        <ele>1407.6</ele>
        <time>2021-06-01T11:14:39Z</time>
      </trkpt>
      <trkpt lat="45.70428" lon="6.63249">
        <ele>1408</ele>
        <time>2021-06-01T11:14:40Z</time>
      </trkpt>
      <trkpt lat="45.7043" lon="6.63249">
        <ele>1408.2</ele>
        <time>2021-06-01T11:14:41Z</time>
      </trkpt>
      <trkpt lat="45.70433" lon="6.63249">
        <ele>1408.4</ele>
        <time>2021-06-01T11:14:42Z</time>
      </trkpt>
      <trkpt lat="45.70435" lon="6.63249">
        <ele>1408.6</ele>
        <time>2021-06-01T11:14:43Z</time>
      </trkpt>
      <trkpt lat="45.70437" lon="6.6325">
        <ele>1408.8</ele>
        <time>2021-06-01T11:14:44Z</time>
      </trkpt>
      <trkpt lat="45.7044" lon="6.6325">
        <ele>1409.2</ele>
        <time>2021-06-01T11:14:45Z</time>
      </trkpt>
      <trkpt lat="45.70443" lon="6.63249">
        <ele>1409.8</ele>
        <time>2021-06-01T11:14:47Z</time>
      </trkpt>
      <trkpt lat="45.70445" lon="6.63249">
        <ele>1410</ele>
        <time>2021-06-01T11:14:48Z</time>
      </trkpt>
      <trkpt lat="45.70448" lon="6.63248">
        <ele>1410.2</ele>
        <time>2021-06-01T11:14:49Z</time>
      </trkpt>
      <trkpt lat="45.7045" lon="6.63247">
        <ele>1410.4</ele>
        <time>2021-06-01T11:14:50Z</time>
      </trkpt>
      <trkpt lat="45.70452" lon="6.63246">
        <ele>1410.6</ele>
        <time>2021-06-01T11:14:51Z</time>
      </trkpt>
      <trkpt lat="45.70454" lon="6.63246">
        <ele>1410.8</ele>
        <time>2021-06-01T11:14:52Z</time>
      </trkpt>
      <trkpt lat="45.70456" lon="6.63246">
        <ele>1411</ele>
        <time>2021-06-01T11:14:53Z</time>
      </trkpt>
      <trkpt lat="45.70458" lon="6.63246">
        <ele>1411.4</ele>
        <time>2021-06-01T11:14:54Z</time>
      </trkpt>
      <trkpt lat="45.7046" lon="6.63248">
        <ele>1411.6</ele>
        <time>2021-06-01T11:14:56Z</time>
      </trkpt>
      <trkpt lat="45.70463" lon="6.63251">
        <ele>1411.6</ele>
        <time>2021-06-01T11:14:58Z</time>
      </trkpt>
      <trkpt lat="45.70467" lon="6.63253">
        <ele>1411.8</ele>
        <time>2021-06-01T11:15:00Z</time>
      </trkpt>
      <trkpt lat="45.70468" lon="6.63256">
        <ele>1412.2</ele>
        <time>2021-06-01T11:15:01Z</time>
      </trkpt>
      <trkpt lat="45.7047" lon="6.63259">
        <ele>1412.4</ele>
        <time>2021-06-01T11:15:02Z</time>
      </trkpt>
      <trkpt lat="45.70471" lon="6.63261">
        <ele>1412.4</ele>
        <time>2021-06-01T11:15:03Z</time>
      </trkpt>
      <trkpt lat="45.70472" lon="6.63264">
        <ele>1412.6</ele>
        <time>2021-06-01T11:15:04Z</time>
      </trkpt>
      <trkpt lat="45.70474" lon="6.63266">
        <ele>1412.8</ele>
        <time>2021-06-01T11:15:05Z</time>
      </trkpt>
      <trkpt lat="45.70475" lon="6.63269">
        <ele>1413</ele>
        <time>2021-06-01T11:15:06Z</time>
      </trkpt>
      <trkpt lat="45.70476" lon="6.63271">
        <ele>1413.2</ele>
        <time>2021-06-01T11:15:07Z</time>
      </trkpt>
      <trkpt lat="45.70479" lon="6.63275">
        <ele>1413.2</ele>
        <time>2021-06-01T11:15:09Z</time>
      </trkpt>
      <trkpt lat="45.70481" lon="6.63277">
        <ele>1413.4</ele>
        <time>2021-06-01T11:15:10Z</time>
      </trkpt>
      <trkpt lat="45.70483" lon="6.63279">
        <ele>1413.6</ele>
        <time>2021-06-01T11:15:11Z</time>
      </trkpt>
      <trkpt lat="45.70485" lon="6.63281">
        <ele>1413.6</ele>
        <time>2021-06-01T11:15:12Z</time>
      </trkpt>
      <trkpt lat="45.70487" lon="6.63283">
        <ele>1413.8</ele>
        <time>2021-06-01T11:15:13Z</time>
      </trkpt>
      <trkpt lat="45.70489" lon="6.63285">
        <ele>1414</ele>
        <time>2021-06-01T11:15:14Z</time>
      </trkpt>
      <trkpt lat="45.70491" lon="6.63286">
        <ele>1414.2</ele>
        <time>2021-06-01T11:15:15Z</time>
      </trkpt>
      <trkpt lat="45.70493" lon="6.63288">
        <ele>1414.6</ele>
        <time>2021-06-01T11:15:16Z</time>
      </trkpt>
      <trkpt lat="45.70496" lon="6.6329">
        <ele>1414.6</ele>
        <time>2021-06-01T11:15:17Z</time>
      </trkpt>
      <trkpt lat="45.70498" lon="6.63292">
        <ele>1415</ele>
        <time>2021-06-01T11:15:18Z</time>
      </trkpt>
      <trkpt lat="45.70501" lon="6.63294">
        <ele>1415.4</ele>
        <time>2021-06-01T11:15:19Z</time>
      </trkpt>
      <trkpt lat="45.70504" lon="6.63296">
        <ele>1416</ele>
        <time>2021-06-01T11:15:20Z</time>
      </trkpt>
      <trkpt lat="45.70506" lon="6.63297">
        <ele>1416.4</ele>
        <time>2021-06-01T11:15:21Z</time>
      </trkpt>
      <trkpt lat="45.70509" lon="6.63299">
        <ele>1416.8</ele>
        <time>2021-06-01T11:15:22Z</time>
      </trkpt>
      <trkpt lat="45.70512" lon="6.63301">
        <ele>1417.4</ele>
        <time>2021-06-01T11:15:23Z</time>
      </trkpt>
      <trkpt lat="45.70515" lon="6.63303">
        <ele>1418</ele>
        <time>2021-06-01T11:15:24Z</time>
      </trkpt>
      <trkpt lat="45.70518" lon="6.63305">
        <ele>1418.6</ele>
        <time>2021-06-01T11:15:25Z</time>
      </trkpt>
      <trkpt lat="45.70521" lon="6.63307">
        <ele>1419.4</ele>
        <time>2021-06-01T11:15:26Z</time>
      </trkpt>
      <trkpt lat="45.70524" lon="6.63309">
        <ele>1420</ele>
        <time>2021-06-01T11:15:27Z</time>
      </trkpt>
      <trkpt lat="45.70526" lon="6.63309">
        <ele>1420.4</ele>
        <time>2021-06-01T11:15:28Z</time>
      </trkpt>
      <trkpt lat="45.70529" lon="6.63311">
        <ele>1421</ele>
        <time>2021-06-01T11:15:29Z</time>
      </trkpt>
      <trkpt lat="45.70531" lon="6.63313">
        <ele>1421.6</ele>
        <time>2021-06-01T11:15:30Z</time>
      </trkpt>
      <trkpt lat="45.70533" lon="6.63314">
        <ele>1422.4</ele>
        <time>2021-06-01T11:15:31Z</time>
      </trkpt>
      <trkpt lat="45.70536" lon="6.63316">
        <ele>1423.2</ele>
        <time>2021-06-01T11:15:32Z</time>
      </trkpt>
      <trkpt lat="45.70538" lon="6.63316">
        <ele>1424.2</ele>
        <time>2021-06-01T11:15:33Z</time>
      </trkpt>
      <trkpt lat="45.70541" lon="6.63316">
        <ele>1425</ele>
        <time>2021-06-01T11:15:34Z</time>
      </trkpt>
      <trkpt lat="45.70544" lon="6.63317">
        <ele>1425.6</ele>
        <time>2021-06-01T11:15:35Z</time>
      </trkpt>
      <trkpt lat="45.70546" lon="6.63317">
        <ele>1426.4</ele>
        <time>2021-06-01T11:15:36Z</time>
      </trkpt>
      <trkpt lat="45.70548" lon="6.63317">
        <ele>1427</ele>
        <time>2021-06-01T11:15:37Z</time>
      </trkpt>
      <trkpt lat="45.7055" lon="6.63317">
        <ele>1427.6</ele>
        <time>2021-06-01T11:15:38Z</time>
      </trkpt>
      <trkpt lat="45.70553" lon="6.63318">
        <ele>1428.2</ele>
        <time>2021-06-01T11:15:39Z</time>
      </trkpt>
      <trkpt lat="45.70556" lon="6.63318">
        <ele>1429</ele>
        <time>2021-06-01T11:15:40Z</time>
      </trkpt>
      <trkpt lat="45.70557" lon="6.63318">
        <ele>1429.6</ele>
        <time>2021-06-01T11:15:41Z</time>
      </trkpt>
      <trkpt lat="45.7056" lon="6.63317">
        <ele>1429.8</ele>
        <time>2021-06-01T11:15:42Z</time>
      </trkpt>
      <trkpt lat="45.70562" lon="6.63316">
        <ele>1430</ele>
        <time>2021-06-01T11:15:43Z</time>
      </trkpt>
      <trkpt lat="45.70566" lon="6.63315">
        <ele>1429.8</ele>
        <time>2021-06-01T11:15:45Z</time>
      </trkpt>
      <trkpt lat="45.70568" lon="6.63314">
        <ele>1429.8</ele>
        <time>2021-06-01T11:15:46Z</time>
      </trkpt>
      <trkpt lat="45.7057" lon="6.63315">
        <ele>1429.6</ele>
        <time>2021-06-01T11:15:47Z</time>
      </trkpt>
      <trkpt lat="45.70572" lon="6.63315">
        <ele>1429.6</ele>
        <time>2021-06-01T11:15:48Z</time>
      </trkpt>
      <trkpt lat="45.70574" lon="6.63316">
        <ele>1429.4</ele>
        <time>2021-06-01T11:15:49Z</time>
      </trkpt>
      <trkpt lat="45.70576" lon="6.63316">
        <ele>1429</ele>
        <time>2021-06-01T11:15:50Z</time>
      </trkpt>
      <trkpt lat="45.70578" lon="6.63316">
        <ele>1428.8</ele>
        <time>2021-06-01T11:15:51Z</time>
      </trkpt>
      <trkpt lat="45.7058" lon="6.63316">
        <ele>1428.6</ele>
        <time>2021-06-01T11:15:52Z</time>
      </trkpt>
      <trkpt lat="45.70582" lon="6.63315">
        <ele>1427.4</ele>
        <time>2021-06-01T11:15:56Z</time>
      </trkpt>
      <trkpt lat="45.70583" lon="6.63313">
        <ele>1426.4</ele>
        <time>2021-06-01T11:16:00Z</time>
      </trkpt>
      <trkpt lat="45.70586" lon="6.63315">
        <ele>1426</ele>
        <time>2021-06-01T11:16:02Z</time>
      </trkpt>
      <trkpt lat="45.7059" lon="6.63316">
        <ele>1425.8</ele>
        <time>2021-06-01T11:16:04Z</time>
      </trkpt>
      <trkpt lat="45.70592" lon="6.63316">
        <ele>1425.6</ele>
        <time>2021-06-01T11:16:05Z</time>
      </trkpt>
      <trkpt lat="45.70594" lon="6.63316">
        <ele>1425.4</ele>
        <time>2021-06-01T11:16:06Z</time>
      </trkpt>
      <trkpt lat="45.70596" lon="6.63316">
        <ele>1425.4</ele>
        <time>2021-06-01T11:16:07Z</time>
      </trkpt>
      <trkpt lat="45.70599" lon="6.63316">
        <ele>1425.2</ele>
        <time>2021-06-01T11:16:08Z</time>
      </trkpt>
      <trkpt lat="45.70601" lon="6.63317">
        <ele>1425</ele>
        <time>2021-06-01T11:16:09Z</time>
      </trkpt>
      <trkpt lat="45.70603" lon="6.63318">
        <ele>1425.2</ele>
        <time>2021-06-01T11:16:10Z</time>
      </trkpt>
      <trkpt lat="45.70606" lon="6.63318">
        <ele>1425.2</ele>
        <time>2021-06-01T11:16:11Z</time>
      </trkpt>
      <trkpt lat="45.70611" lon="6.63317">
        <ele>1425.4</ele>
        <time>2021-06-01T11:16:13Z</time>
      </trkpt>
      <trkpt lat="45.70613" lon="6.63317">
        <ele>1425.4</ele>
        <time>2021-06-01T11:16:14Z</time>
      </trkpt>
      <trkpt lat="45.70615" lon="6.63316">
        <ele>1425.8</ele>
        <time>2021-06-01T11:16:15Z</time>
      </trkpt>
      <trkpt lat="45.70617" lon="6.63316">
        <ele>1426</ele>
        <time>2021-06-01T11:16:16Z</time>
      </trkpt>
      <trkpt lat="45.7062" lon="6.63315">
        <ele>1426.2</ele>
        <time>2021-06-01T11:16:17Z</time>
      </trkpt>
      <trkpt lat="45.70621" lon="6.63315">
        <ele>1426.4</ele>
        <time>2021-06-01T11:16:18Z</time>
      </trkpt>
      <trkpt lat="45.70624" lon="6.63316">
        <ele>1426.6</ele>
        <time>2021-06-01T11:16:19Z</time>
      </trkpt>
      <trkpt lat="45.70627" lon="6.63317">
        <ele>1426.8</ele>
        <time>2021-06-01T11:16:20Z</time>
      </trkpt>
      <trkpt lat="45.70629" lon="6.63318">
        <ele>1427</ele>
        <time>2021-06-01T11:16:21Z</time>
      </trkpt>
      <trkpt lat="45.70632" lon="6.63317">
        <ele>1427.2</ele>
        <time>2021-06-01T11:16:22Z</time>
      </trkpt>
      <trkpt lat="45.70635" lon="6.63316">
        <ele>1427.4</ele>
        <time>2021-06-01T11:16:23Z</time>
      </trkpt>
      <trkpt lat="45.70637" lon="6.63316">
        <ele>1427.4</ele>
        <time>2021-06-01T11:16:24Z</time>
      </trkpt>
      <trkpt lat="45.70639" lon="6.63316">
        <ele>1427.6</ele>
        <time>2021-06-01T11:16:25Z</time>
      </trkpt>
      <trkpt lat="45.70642" lon="6.63316">
        <ele>1428</ele>
        <time>2021-06-01T11:16:26Z</time>
      </trkpt>
      <trkpt lat="45.70644" lon="6.63315">
        <ele>1428.2</ele>
        <time>2021-06-01T11:16:27Z</time>
      </trkpt>
      <trkpt lat="45.70646" lon="6.63314">
        <ele>1428.2</ele>
        <time>2021-06-01T11:16:28Z</time>
      </trkpt>
      <trkpt lat="45.70648" lon="6.63313">
        <ele>1428.4</ele>
        <time>2021-06-01T11:16:29Z</time>
      </trkpt>
      <trkpt lat="45.70651" lon="6.63313">
        <ele>1428.4</ele>
        <time>2021-06-01T11:16:30Z</time>
      </trkpt>
      <trkpt lat="45.70653" lon="6.63313">
        <ele>1428.4</ele>
        <time>2021-06-01T11:16:31Z</time>
      </trkpt>
      <trkpt lat="45.70655" lon="6.63312">
        <ele>1428.6</ele>
        <time>2021-06-01T11:16:32Z</time>
      </trkpt>
      <trkpt lat="45.70658" lon="6.63312">
        <ele>1428.8</ele>
        <time>2021-06-01T11:16:33Z</time>
      </trkpt>
      <trkpt lat="45.7066" lon="6.63312">
        <ele>1429.2</ele>
        <time>2021-06-01T11:16:34Z</time>
      </trkpt>
      <trkpt lat="45.70663" lon="6.63311">
        <ele>1429.4</ele>
        <time>2021-06-01T11:16:35Z</time>
      </trkpt>
      <trkpt lat="45.70666" lon="6.63311">
        <ele>1429.4</ele>
        <time>2021-06-01T11:16:36Z</time>
      </trkpt>
      <trkpt lat="45.70668" lon="6.6331">
        <ele>1429.8</ele>
        <time>2021-06-01T11:16:37Z</time>
      </trkpt>
      <trkpt lat="45.7067" lon="6.6331">
        <ele>1430</ele>
        <time>2021-06-01T11:16:38Z</time>
      </trkpt>
      <trkpt lat="45.70674" lon="6.63308">
        <ele>1430.2</ele>
        <time>2021-06-01T11:16:40Z</time>
      </trkpt>
      <trkpt lat="45.70676" lon="6.63307">
        <ele>1430.6</ele>
        <time>2021-06-01T11:16:41Z</time>
      </trkpt>
      <trkpt lat="45.70678" lon="6.63305">
        <ele>1431</ele>
        <time>2021-06-01T11:16:42Z</time>
      </trkpt>
      <trkpt lat="45.70681" lon="6.63304">
        <ele>1431.6</ele>
        <time>2021-06-01T11:16:43Z</time>
      </trkpt>
      <trkpt lat="45.70683" lon="6.63304">
        <ele>1432.4</ele>
        <time>2021-06-01T11:16:44Z</time>
      </trkpt>
      <trkpt lat="45.70686" lon="6.63303">
        <ele>1433</ele>
        <time>2021-06-01T11:16:45Z</time>
      </trkpt>
      <trkpt lat="45.70689" lon="6.63302">
        <ele>1433.8</ele>
        <time>2021-06-01T11:16:46Z</time>
      </trkpt>
      <trkpt lat="45.70692" lon="6.63302">
        <ele>1434.4</ele>
        <time>2021-06-01T11:16:47Z</time>
      </trkpt>
      <trkpt lat="45.70694" lon="6.63302">
        <ele>1435.2</ele>
        <time>2021-06-01T11:16:48Z</time>
      </trkpt>
      <trkpt lat="45.70696" lon="6.63305">
        <ele>1436</ele>
        <time>2021-06-01T11:16:49Z</time>
      </trkpt>
      <trkpt lat="45.70698" lon="6.63308">
        <ele>1436.2</ele>
        <time>2021-06-01T11:16:50Z</time>
      </trkpt>
      <trkpt lat="45.70698" lon="6.6331">
        <ele>1436.6</ele>
        <time>2021-06-01T11:16:51Z</time>
      </trkpt>
      <trkpt lat="45.70698" lon="6.63314">
        <ele>1436.4</ele>
        <time>2021-06-01T11:16:52Z</time>
      </trkpt>
      <trkpt lat="45.70697" lon="6.63316">
        <ele>1436.4</ele>
        <time>2021-06-01T11:16:53Z</time>
      </trkpt>
      <trkpt lat="45.70695" lon="6.63318">
        <ele>1436.4</ele>
        <time>2021-06-01T11:16:54Z</time>
      </trkpt>
      <trkpt lat="45.70693" lon="6.63319">
        <ele>1436.6</ele>
        <time>2021-06-01T11:16:55Z</time>
      </trkpt>
      <trkpt lat="45.7069" lon="6.63321">
        <ele>1438.2</ele>
        <time>2021-06-01T11:16:57Z</time>
      </trkpt>
      <trkpt lat="45.70687" lon="6.63321">
        <ele>1439.4</ele>
        <time>2021-06-01T11:16:58Z</time>
      </trkpt>
      <trkpt lat="45.70685" lon="6.63322">
        <ele>1441</ele>
        <time>2021-06-01T11:16:59Z</time>
      </trkpt>
      <trkpt lat="45.70682" lon="6.63322">
        <ele>1442.4</ele>
        <time>2021-06-01T11:17:00Z</time>
      </trkpt>
      <trkpt lat="45.70679" lon="6.63322">
        <ele>1443.6</ele>
        <time>2021-06-01T11:17:01Z</time>
      </trkpt>
      <trkpt lat="45.70677" lon="6.63323">
        <ele>1444.8</ele>
        <time>2021-06-01T11:17:02Z</time>
      </trkpt>
      <trkpt lat="45.70675" lon="6.63323">
        <ele>1446</ele>
        <time>2021-06-01T11:17:03Z</time>
      </trkpt>
      <trkpt lat="45.70672" lon="6.63323">
        <ele>1447</ele>
        <time>2021-06-01T11:17:04Z</time>
      </trkpt>
      <trkpt lat="45.70669" lon="6.63323">
        <ele>1448</ele>
        <time>2021-06-01T11:17:05Z</time>
      </trkpt>
      <trkpt lat="45.70667" lon="6.63324">
        <ele>1449.2</ele>
        <time>2021-06-01T11:17:06Z</time>
      </trkpt>
      <trkpt lat="45.70665" lon="6.63325">
        <ele>1449.8</ele>
        <time>2021-06-01T11:17:07Z</time>
      </trkpt>
      <trkpt lat="45.70662" lon="6.63327">
        <ele>1450.4</ele>
        <time>2021-06-01T11:17:08Z</time>
      </trkpt>
      <trkpt lat="45.70659" lon="6.63327">
        <ele>1451</ele>
        <time>2021-06-01T11:17:09Z</time>
      </trkpt>
      <trkpt lat="45.70657" lon="6.6333">
        <ele>1451.6</ele>
        <time>2021-06-01T11:17:10Z</time>
      </trkpt>
      <trkpt lat="45.70655" lon="6.63331">
        <ele>1452.2</ele>
        <time>2021-06-01T11:17:11Z</time>
      </trkpt>
      <trkpt lat="45.70652" lon="6.63332">
        <ele>1452.6</ele>
        <time>2021-06-01T11:17:13Z</time>
      </trkpt>
      <trkpt lat="45.7065" lon="6.63332">
        <ele>1451.8</ele>
        <time>2021-06-01T11:17:16Z</time>
      </trkpt>
      <trkpt lat="45.70648" lon="6.63334">
        <ele>1449</ele>
        <time>2021-06-01T11:17:20Z</time>
      </trkpt>
      <trkpt lat="45.70646" lon="6.63336">
        <ele>1448.2</ele>
        <time>2021-06-01T11:17:22Z</time>
      </trkpt>
      <trkpt lat="45.70643" lon="6.63338">
        <ele>1448.4</ele>
        <time>2021-06-01T11:17:24Z</time>
      </trkpt>
      <trkpt lat="45.70641" lon="6.63338">
        <ele>1448.6</ele>
        <time>2021-06-01T11:17:25Z</time>
      </trkpt>
      <trkpt lat="45.70636" lon="6.6334">
        <ele>1448.6</ele>
        <time>2021-06-01T11:17:27Z</time>
      </trkpt>
      <trkpt lat="45.70634" lon="6.6334">
        <ele>1448.4</ele>
        <time>2021-06-01T11:17:28Z</time>
      </trkpt>
      <trkpt lat="45.70629" lon="6.63341">
        <ele>1448.2</ele>
        <time>2021-06-01T11:17:30Z</time>
      </trkpt>
      <trkpt lat="45.70628" lon="6.63343">
        <ele>1448.2</ele>
        <time>2021-06-01T11:17:31Z</time>
      </trkpt>
      <trkpt lat="45.70626" lon="6.63344">
        <ele>1448</ele>
        <time>2021-06-01T11:17:32Z</time>
      </trkpt>
      <trkpt lat="45.70623" lon="6.63346">
        <ele>1447.8</ele>
        <time>2021-06-01T11:17:33Z</time>
      </trkpt>
      <trkpt lat="45.70621" lon="6.63348">
        <ele>1447.8</ele>
        <time>2021-06-01T11:17:34Z</time>
      </trkpt>
      <trkpt lat="45.70619" lon="6.63348">
        <ele>1447.6</ele>
        <time>2021-06-01T11:17:35Z</time>
      </trkpt>
      <trkpt lat="45.70616" lon="6.63348">
        <ele>1447.4</ele>
        <time>2021-06-01T11:17:37Z</time>
      </trkpt>
      <trkpt lat="45.70613" lon="6.63349">
        <ele>1447.4</ele>
        <time>2021-06-01T11:17:39Z</time>
      </trkpt>
      <trkpt lat="45.70611" lon="6.6335">
        <ele>1448.2</ele>
        <time>2021-06-01T11:17:41Z</time>
      </trkpt>
      <trkpt lat="45.70609" lon="6.6335">
        <ele>1448.8</ele>
        <time>2021-06-01T11:17:42Z</time>
      </trkpt>
      <trkpt lat="45.70606" lon="6.63349">
        <ele>1449.4</ele>
        <time>2021-06-01T11:17:43Z</time>
      </trkpt>
      <trkpt lat="45.70603" lon="6.63348">
        <ele>1451.2</ele>
        <time>2021-06-01T11:17:45Z</time>
      </trkpt>
      <trkpt lat="45.70599" lon="6.63349">
        <ele>1452.6</ele>
        <time>2021-06-01T11:17:47Z</time>
      </trkpt>
      <trkpt lat="45.70596" lon="6.63351">
        <ele>1453.8</ele>
        <time>2021-06-01T11:17:49Z</time>
      </trkpt>
      <trkpt lat="45.70593" lon="6.63352">
        <ele>1454.4</ele>
        <time>2021-06-01T11:17:51Z</time>
      </trkpt>
      <trkpt lat="45.70591" lon="6.63353">
        <ele>1454.8</ele>
        <time>2021-06-01T11:17:52Z</time>
      </trkpt>
      <trkpt lat="45.70587" lon="6.63354">
        <ele>1455.4</ele>
        <time>2021-06-01T11:17:54Z</time>
      </trkpt>
      <trkpt lat="45.70585" lon="6.63355">
        <ele>1455.8</ele>
        <time>2021-06-01T11:17:55Z</time>
      </trkpt>
      <trkpt lat="45.70583" lon="6.63357">
        <ele>1455.8</ele>
        <time>2021-06-01T11:17:56Z</time>
      </trkpt>
      <trkpt lat="45.70581" lon="6.63358">
        <ele>1455.6</ele>
        <time>2021-06-01T11:17:57Z</time>
      </trkpt>
      <trkpt lat="45.70579" lon="6.63359">
        <ele>1455.4</ele>
        <time>2021-06-01T11:17:58Z</time>
      </trkpt>
      <trkpt lat="45.70577" lon="6.63361">
        <ele>1455</ele>
        <time>2021-06-01T11:17:59Z</time>
      </trkpt>
      <trkpt lat="45.70575" lon="6.63361">
        <ele>1454.8</ele>
        <time>2021-06-01T11:18:00Z</time>
      </trkpt>
      <trkpt lat="45.70573" lon="6.63362">
        <ele>1454.4</ele>
        <time>2021-06-01T11:18:01Z</time>
      </trkpt>
      <trkpt lat="45.7057" lon="6.63363">
        <ele>1454.4</ele>
        <time>2021-06-01T11:18:02Z</time>
      </trkpt>
      <trkpt lat="45.70568" lon="6.63363">
        <ele>1454.4</ele>
        <time>2021-06-01T11:18:03Z</time>
      </trkpt>
      <trkpt lat="45.70566" lon="6.63364">
        <ele>1454.8</ele>
        <time>2021-06-01T11:18:04Z</time>
      </trkpt>
      <trkpt lat="45.70563" lon="6.63364">
        <ele>1455</ele>
        <time>2021-06-01T11:18:05Z</time>
      </trkpt>
      <trkpt lat="45.70561" lon="6.63364">
        <ele>1455.4</ele>
        <time>2021-06-01T11:18:06Z</time>
      </trkpt>
      <trkpt lat="45.70558" lon="6.63364">
        <ele>1455.4</ele>
        <time>2021-06-01T11:18:07Z</time>
      </trkpt>
      <trkpt lat="45.70556" lon="6.63364">
        <ele>1455.8</ele>
        <time>2021-06-01T11:18:08Z</time>
      </trkpt>
      <trkpt lat="45.70553" lon="6.63364">
        <ele>1455.8</ele>
        <time>2021-06-01T11:18:09Z</time>
      </trkpt>
      <trkpt lat="45.7055" lon="6.63364">
        <ele>1455.8</ele>
        <time>2021-06-01T11:18:10Z</time>
      </trkpt>
      <trkpt lat="45.70548" lon="6.63364">
        <ele>1455.8</ele>
        <time>2021-06-01T11:18:11Z</time>
      </trkpt>
      <trkpt lat="45.70545" lon="6.63365">
        <ele>1455.8</ele>
        <time>2021-06-01T11:18:12Z</time>
      </trkpt>
      <trkpt lat="45.70542" lon="6.63365">
        <ele>1455.8</ele>
        <time>2021-06-01T11:18:13Z</time>
      </trkpt>
      <trkpt lat="45.7054" lon="6.63365">
        <ele>1455.8</ele>
        <time>2021-06-01T11:18:14Z</time>
      </trkpt>
      <trkpt lat="45.70537" lon="6.63365">
        <ele>1456</ele>
        <time>2021-06-01T11:18:15Z</time>
      </trkpt>
      <trkpt lat="45.70534" lon="6.63365">
        <ele>1456</ele>
        <time>2021-06-01T11:18:16Z</time>
      </trkpt>
      <trkpt lat="45.70532" lon="6.63364">
        <ele>1456</ele>
        <time>2021-06-01T11:18:17Z</time>
      </trkpt>
      <trkpt lat="45.7053" lon="6.63364">
        <ele>1456</ele>
        <time>2021-06-01T11:18:18Z</time>
      </trkpt>
      <trkpt lat="45.70527" lon="6.63364">
        <ele>1455.8</ele>
        <time>2021-06-01T11:18:19Z</time>
      </trkpt>
      <trkpt lat="45.70524" lon="6.63364">
        <ele>1455.8</ele>
        <time>2021-06-01T11:18:20Z</time>
      </trkpt>
      <trkpt lat="45.70522" lon="6.63365">
        <ele>1455.8</ele>
        <time>2021-06-01T11:18:21Z</time>
      </trkpt>
      <trkpt lat="45.7052" lon="6.63365">
        <ele>1455.8</ele>
        <time>2021-06-01T11:18:22Z</time>
      </trkpt>
      <trkpt lat="45.70517" lon="6.63364">
        <ele>1456.2</ele>
        <time>2021-06-01T11:18:23Z</time>
      </trkpt>
      <trkpt lat="45.70515" lon="6.63364">
        <ele>1456.4</ele>
        <time>2021-06-01T11:18:24Z</time>
      </trkpt>
      <trkpt lat="45.70513" lon="6.63363">
        <ele>1456.2</ele>
        <time>2021-06-01T11:18:25Z</time>
      </trkpt>
      <trkpt lat="45.7051" lon="6.63362">
        <ele>1455.8</ele>
        <time>2021-06-01T11:18:26Z</time>
      </trkpt>
      <trkpt lat="45.70508" lon="6.63362">
        <ele>1455.6</ele>
        <time>2021-06-01T11:18:27Z</time>
      </trkpt>
      <trkpt lat="45.70506" lon="6.63362">
        <ele>1455.4</ele>
        <time>2021-06-01T11:18:28Z</time>
      </trkpt>
      <trkpt lat="45.70503" lon="6.63362">
        <ele>1455.2</ele>
        <time>2021-06-01T11:18:29Z</time>
      </trkpt>
      <trkpt lat="45.70501" lon="6.63361">
        <ele>1455.4</ele>
        <time>2021-06-01T11:18:30Z</time>
      </trkpt>
      <trkpt lat="45.70498" lon="6.63361">
        <ele>1455.4</ele>
        <time>2021-06-01T11:18:31Z</time>
      </trkpt>
      <trkpt lat="45.70495" lon="6.6336">
        <ele>1455.6</ele>
        <time>2021-06-01T11:18:32Z</time>
      </trkpt>
      <trkpt lat="45.70492" lon="6.63359">
        <ele>1455.6</ele>
        <time>2021-06-01T11:18:33Z</time>
      </trkpt>
      <trkpt lat="45.7049" lon="6.6336">
        <ele>1455.8</ele>
        <time>2021-06-01T11:18:34Z</time>
      </trkpt>
      <trkpt lat="45.70488" lon="6.63361">
        <ele>1455.8</ele>
        <time>2021-06-01T11:18:35Z</time>
      </trkpt>
      <trkpt lat="45.70485" lon="6.63359">
        <ele>1455.6</ele>
        <time>2021-06-01T11:18:36Z</time>
      </trkpt>
      <trkpt lat="45.70483" lon="6.63359">
        <ele>1455.6</ele>
        <time>2021-06-01T11:18:37Z</time>
      </trkpt>
      <trkpt lat="45.7048" lon="6.63359">
        <ele>1455.6</ele>
        <time>2021-06-01T11:18:38Z</time>
      </trkpt>
      <trkpt lat="45.70478" lon="6.63359">
        <ele>1455.4</ele>
        <time>2021-06-01T11:18:39Z</time>
      </trkpt>
      <trkpt lat="45.70476" lon="6.63359">
        <ele>1455.4</ele>
        <time>2021-06-01T11:18:40Z</time>
      </trkpt>
      <trkpt lat="45.70474" lon="6.6336">
        <ele>1455.2</ele>
        <time>2021-06-01T11:18:41Z</time>
      </trkpt>
      <trkpt lat="45.70472" lon="6.63361">
        <ele>1455.4</ele>
        <time>2021-06-01T11:18:42Z</time>
      </trkpt>
      <trkpt lat="45.7047" lon="6.63362">
        <ele>1455.2</ele>
        <time>2021-06-01T11:18:43Z</time>
      </trkpt>
      <trkpt lat="45.70467" lon="6.63363">
        <ele>1454.8</ele>
        <time>2021-06-01T11:18:45Z</time>
      </trkpt>
      <trkpt lat="45.70465" lon="6.63363">
        <ele>1454.8</ele>
        <time>2021-06-01T11:18:46Z</time>
      </trkpt>
      <trkpt lat="45.70463" lon="6.63362">
        <ele>1454.4</ele>
        <time>2021-06-01T11:18:47Z</time>
      </trkpt>
      <trkpt lat="45.7046" lon="6.63361">
        <ele>1454.4</ele>
        <time>2021-06-01T11:18:48Z</time>
      </trkpt>
      <trkpt lat="45.70458" lon="6.63361">
        <ele>1454.2</ele>
        <time>2021-06-01T11:18:49Z</time>
      </trkpt>
      <trkpt lat="45.70454" lon="6.63361">
        <ele>1454</ele>
        <time>2021-06-01T11:18:50Z</time>
      </trkpt>
      <trkpt lat="45.70452" lon="6.63362">
        <ele>1453.8</ele>
        <time>2021-06-01T11:18:51Z</time>
      </trkpt>
      <trkpt lat="45.70449" lon="6.63362">
        <ele>1453.6</ele>
        <time>2021-06-01T11:18:52Z</time>
      </trkpt>
      <trkpt lat="45.70446" lon="6.63362">
        <ele>1453.6</ele>
        <time>2021-06-01T11:18:53Z</time>
      </trkpt>
      <trkpt lat="45.70444" lon="6.63361">
        <ele>1453.4</ele>
        <time>2021-06-01T11:18:54Z</time>
      </trkpt>
      <trkpt lat="45.70442" lon="6.6336">
        <ele>1453.4</ele>
        <time>2021-06-01T11:18:55Z</time>
      </trkpt>
      <trkpt lat="45.70439" lon="6.63359">
        <ele>1453.2</ele>
        <time>2021-06-01T11:18:56Z</time>
      </trkpt>
      <trkpt lat="45.70437" lon="6.63359">
        <ele>1453.2</ele>
        <time>2021-06-01T11:18:57Z</time>
      </trkpt>
      <trkpt lat="45.70435" lon="6.63358">
        <ele>1453.2</ele>
        <time>2021-06-01T11:18:58Z</time>
      </trkpt>
      <trkpt lat="45.70433" lon="6.63356">
        <ele>1453.4</ele>
        <time>2021-06-01T11:18:59Z</time>
      </trkpt>
      <trkpt lat="45.70431" lon="6.63355">
        <ele>1453.4</ele>
        <time>2021-06-01T11:19:00Z</time>
      </trkpt>
      <trkpt lat="45.70429" lon="6.63354">
        <ele>1454</ele>
        <time>2021-06-01T11:19:01Z</time>
      </trkpt>
      <trkpt lat="45.70426" lon="6.63353">
        <ele>1454.4</ele>
        <time>2021-06-01T11:19:02Z</time>
      </trkpt>
      <trkpt lat="45.70424" lon="6.63353">
        <ele>1454.8</ele>
        <time>2021-06-01T11:19:03Z</time>
      </trkpt>
      <trkpt lat="45.70422" lon="6.63352">
        <ele>1455</ele>
        <time>2021-06-01T11:19:04Z</time>
      </trkpt>
      <trkpt lat="45.70419" lon="6.63351">
        <ele>1455.2</ele>
        <time>2021-06-01T11:19:05Z</time>
      </trkpt>
      <trkpt lat="45.70417" lon="6.6335">
        <ele>1455.4</ele>
        <time>2021-06-01T11:19:06Z</time>
      </trkpt>
      <trkpt lat="45.70415" lon="6.63349">
        <ele>1455.4</ele>
        <time>2021-06-01T11:19:07Z</time>
      </trkpt>
      <trkpt lat="45.70413" lon="6.63349">
        <ele>1455.6</ele>
        <time>2021-06-01T11:19:08Z</time>
      </trkpt>
      <trkpt lat="45.7041" lon="6.63349">
        <ele>1455.8</ele>
        <time>2021-06-01T11:19:09Z</time>
      </trkpt>
      <trkpt lat="45.70407" lon="6.63349">
        <ele>1456</ele>
        <time>2021-06-01T11:19:10Z</time>
      </trkpt>
      <trkpt lat="45.70405" lon="6.6335">
        <ele>1456.2</ele>
        <time>2021-06-01T11:19:11Z</time>
      </trkpt>
      <trkpt lat="45.70403" lon="6.63351">
        <ele>1456.4</ele>
        <time>2021-06-01T11:19:12Z</time>
      </trkpt>
      <trkpt lat="45.70401" lon="6.63351">
        <ele>1456.4</ele>
        <time>2021-06-01T11:19:13Z</time>
      </trkpt>
      <trkpt lat="45.70399" lon="6.63353">
        <ele>1456.6</ele>
        <time>2021-06-01T11:19:14Z</time>
      </trkpt>
      <trkpt lat="45.70397" lon="6.63354">
        <ele>1457</ele>
        <time>2021-06-01T11:19:15Z</time>
      </trkpt>
      <trkpt lat="45.70395" lon="6.63355">
        <ele>1457.2</ele>
        <time>2021-06-01T11:19:16Z</time>
      </trkpt>
      <trkpt lat="45.70393" lon="6.63356">
        <ele>1457.4</ele>
        <time>2021-06-01T11:19:17Z</time>
      </trkpt>
      <trkpt lat="45.7039" lon="6.63358">
        <ele>1457.4</ele>
        <time>2021-06-01T11:19:19Z</time>
      </trkpt>
      <trkpt lat="45.70388" lon="6.63358">
        <ele>1457.4</ele>
        <time>2021-06-01T11:19:20Z</time>
      </trkpt>
      <trkpt lat="45.70385" lon="6.63359">
        <ele>1457.4</ele>
        <time>2021-06-01T11:19:21Z</time>
      </trkpt>
      <trkpt lat="45.70383" lon="6.6336">
        <ele>1457.4</ele>
        <time>2021-06-01T11:19:22Z</time>
      </trkpt>
      <trkpt lat="45.7038" lon="6.63361">
        <ele>1457.6</ele>
        <time>2021-06-01T11:19:23Z</time>
      </trkpt>
      <trkpt lat="45.70377" lon="6.63362">
        <ele>1458</ele>
        <time>2021-06-01T11:19:24Z</time>
      </trkpt>
      <trkpt lat="45.70374" lon="6.63363">
        <ele>1458.6</ele>
        <time>2021-06-01T11:19:25Z</time>
      </trkpt>
      <trkpt lat="45.70372" lon="6.63364">
        <ele>1459.4</ele>
        <time>2021-06-01T11:19:26Z</time>
      </trkpt>
      <trkpt lat="45.70369" lon="6.63364">
        <ele>1460.2</ele>
        <time>2021-06-01T11:19:27Z</time>
      </trkpt>
      <trkpt lat="45.70367" lon="6.63364">
        <ele>1460.8</ele>
        <time>2021-06-01T11:19:28Z</time>
      </trkpt>
      <trkpt lat="45.70364" lon="6.63364">
        <ele>1461.4</ele>
        <time>2021-06-01T11:19:29Z</time>
      </trkpt>
      <trkpt lat="45.70362" lon="6.63363">
        <ele>1462.4</ele>
        <time>2021-06-01T11:19:30Z</time>
      </trkpt>
      <trkpt lat="45.70359" lon="6.63363">
        <ele>1463</ele>
        <time>2021-06-01T11:19:31Z</time>
      </trkpt>
      <trkpt lat="45.70357" lon="6.63362">
        <ele>1463.6</ele>
        <time>2021-06-01T11:19:32Z</time>
      </trkpt>
      <trkpt lat="45.70354" lon="6.63361">
        <ele>1463.8</ele>
        <time>2021-06-01T11:19:33Z</time>
      </trkpt>
      <trkpt lat="45.70352" lon="6.6336">
        <ele>1464.2</ele>
        <time>2021-06-01T11:19:34Z</time>
      </trkpt>
      <trkpt lat="45.70349" lon="6.63358">
        <ele>1464.4</ele>
        <time>2021-06-01T11:19:35Z</time>
      </trkpt>
      <trkpt lat="45.70347" lon="6.63358">
        <ele>1464.8</ele>
        <time>2021-06-01T11:19:36Z</time>
      </trkpt>
      <trkpt lat="45.70345" lon="6.63357">
        <ele>1465</ele>
        <time>2021-06-01T11:19:37Z</time>
      </trkpt>
      <trkpt lat="45.70342" lon="6.63357">
        <ele>1465.4</ele>
        <time>2021-06-01T11:19:38Z</time>
      </trkpt>
      <trkpt lat="45.7034" lon="6.63356">
        <ele>1465.6</ele>
        <time>2021-06-01T11:19:39Z</time>
      </trkpt>
      <trkpt lat="45.70338" lon="6.63355">
        <ele>1466</ele>
        <time>2021-06-01T11:19:40Z</time>
      </trkpt>
      <trkpt lat="45.70336" lon="6.63354">
        <ele>1466.4</ele>
        <time>2021-06-01T11:19:41Z</time>
      </trkpt>
      <trkpt lat="45.70333" lon="6.63354">
        <ele>1466.8</ele>
        <time>2021-06-01T11:19:42Z</time>
      </trkpt>
      <trkpt lat="45.70332" lon="6.63353">
        <ele>1467.4</ele>
        <time>2021-06-01T11:19:43Z</time>
      </trkpt>
      <trkpt lat="45.7033" lon="6.63354">
        <ele>1468.6</ele>
        <time>2021-06-01T11:19:45Z</time>
      </trkpt>
      <trkpt lat="45.70326" lon="6.63354">
        <ele>1469.4</ele>
        <time>2021-06-01T11:19:47Z</time>
      </trkpt>
      <trkpt lat="45.70323" lon="6.63352">
        <ele>1470.2</ele>
        <time>2021-06-01T11:19:49Z</time>
      </trkpt>
      <trkpt lat="45.70321" lon="6.63351">
        <ele>1470.6</ele>
        <time>2021-06-01T11:19:50Z</time>
      </trkpt>
      <trkpt lat="45.70317" lon="6.63349">
        <ele>1471.2</ele>
        <time>2021-06-01T11:19:53Z</time>
      </trkpt>
      <trkpt lat="45.70315" lon="6.63349">
        <ele>1471.2</ele>
        <time>2021-06-01T11:19:54Z</time>
      </trkpt>
      <trkpt lat="45.70312" lon="6.63349">
        <ele>1471</ele>
        <time>2021-06-01T11:19:56Z</time>
      </trkpt>
      <trkpt lat="45.7031" lon="6.63349">
        <ele>1471</ele>
        <time>2021-06-01T11:19:57Z</time>
      </trkpt>
      <trkpt lat="45.70308" lon="6.63349">
        <ele>1471.2</ele>
        <time>2021-06-01T11:19:58Z</time>
      </trkpt>
      <trkpt lat="45.70305" lon="6.63348">
        <ele>1471.2</ele>
        <time>2021-06-01T11:20:00Z</time>
      </trkpt>
      <trkpt lat="45.70303" lon="6.63349">
        <ele>1472.2</ele>
        <time>2021-06-01T11:20:01Z</time>
      </trkpt>
      <trkpt lat="45.703" lon="6.63349">
        <ele>1472.6</ele>
        <time>2021-06-01T11:20:02Z</time>
      </trkpt>
      <trkpt lat="45.70298" lon="6.63349">
        <ele>1473.4</ele>
        <time>2021-06-01T11:20:03Z</time>
      </trkpt>
      <trkpt lat="45.70296" lon="6.6335">
        <ele>1473.8</ele>
        <time>2021-06-01T11:20:04Z</time>
      </trkpt>
      <trkpt lat="45.70294" lon="6.63351">
        <ele>1474.4</ele>
        <time>2021-06-01T11:20:05Z</time>
      </trkpt>
      <trkpt lat="45.7029" lon="6.63353">
        <ele>1475.6</ele>
        <time>2021-06-01T11:20:07Z</time>
      </trkpt>
      <trkpt lat="45.70288" lon="6.63355">
        <ele>1476.6</ele>
        <time>2021-06-01T11:20:09Z</time>
      </trkpt>
      <trkpt lat="45.70286" lon="6.63356">
        <ele>1476.8</ele>
        <time>2021-06-01T11:20:11Z</time>
      </trkpt>
      <trkpt lat="45.70284" lon="6.63358">
        <ele>1477.6</ele>
        <time>2021-06-01T11:20:13Z</time>
      </trkpt>
      <trkpt lat="45.70282" lon="6.63359">
        <ele>1478.2</ele>
        <time>2021-06-01T11:20:15Z</time>
      </trkpt>
      <trkpt lat="45.7028" lon="6.6336">
        <ele>1478.8</ele>
        <time>2021-06-01T11:20:17Z</time>
      </trkpt>
      <trkpt lat="45.70277" lon="6.63361">
        <ele>1478.6</ele>
        <time>2021-06-01T11:20:21Z</time>
      </trkpt>
      <trkpt lat="45.70276" lon="6.63362">
        <ele>1477.8</ele>
        <time>2021-06-01T11:20:23Z</time>
      </trkpt>
      <trkpt lat="45.70274" lon="6.63364">
        <ele>1477.2</ele>
        <time>2021-06-01T11:20:25Z</time>
      </trkpt>
      <trkpt lat="45.70272" lon="6.63365">
        <ele>1476.2</ele>
        <time>2021-06-01T11:20:27Z</time>
      </trkpt>
      <trkpt lat="45.70269" lon="6.63366">
        <ele>1476.2</ele>
        <time>2021-06-01T11:20:30Z</time>
      </trkpt>
      <trkpt lat="45.70266" lon="6.63367">
        <ele>1473.4</ele>
        <time>2021-06-01T11:20:33Z</time>
      </trkpt>
      <trkpt lat="45.70264" lon="6.63369">
        <ele>1472.6</ele>
        <time>2021-06-01T11:20:35Z</time>
      </trkpt>
      <trkpt lat="45.70262" lon="6.6337">
        <ele>1472.4</ele>
        <time>2021-06-01T11:20:36Z</time>
      </trkpt>
      <trkpt lat="45.7026" lon="6.6337">
        <ele>1471.8</ele>
        <time>2021-06-01T11:20:38Z</time>
      </trkpt>
      <trkpt lat="45.70257" lon="6.6337">
        <ele>1471.6</ele>
        <time>2021-06-01T11:20:39Z</time>
      </trkpt>
      <trkpt lat="45.70255" lon="6.63371">
        <ele>1471.6</ele>
        <time>2021-06-01T11:20:40Z</time>
      </trkpt>
      <trkpt lat="45.70252" lon="6.63371">
        <ele>1471.4</ele>
        <time>2021-06-01T11:20:42Z</time>
      </trkpt>
      <trkpt lat="45.7025" lon="6.63372">
        <ele>1471.2</ele>
        <time>2021-06-01T11:20:43Z</time>
      </trkpt>
      <trkpt lat="45.70248" lon="6.63372">
        <ele>1471.2</ele>
        <time>2021-06-01T11:20:44Z</time>
      </trkpt>
      <trkpt lat="45.70245" lon="6.63373">
        <ele>1471.2</ele>
        <time>2021-06-01T11:20:45Z</time>
      </trkpt>
      <trkpt lat="45.70243" lon="6.63373">
        <ele>1471.2</ele>
        <time>2021-06-01T11:20:46Z</time>
      </trkpt>
      <trkpt lat="45.7024" lon="6.63373">
        <ele>1471.2</ele>
        <time>2021-06-01T11:20:47Z</time>
      </trkpt>
      <trkpt lat="45.70238" lon="6.63373">
        <ele>1471.4</ele>
        <time>2021-06-01T11:20:48Z</time>
      </trkpt>
      <trkpt lat="45.70236" lon="6.63373">
        <ele>1471.6</ele>
        <time>2021-06-01T11:20:49Z</time>
      </trkpt>
      <trkpt lat="45.70232" lon="6.63374">
        <ele>1471.6</ele>
        <time>2021-06-01T11:20:50Z</time>
      </trkpt>
      <trkpt lat="45.70229" lon="6.63374">
        <ele>1471.8</ele>
        <time>2021-06-01T11:20:51Z</time>
      </trkpt>
      <trkpt lat="45.70227" lon="6.63374">
        <ele>1471.8</ele>
        <time>2021-06-01T11:20:52Z</time>
      </trkpt>
      <trkpt lat="45.70224" lon="6.63374">
        <ele>1471.8</ele>
        <time>2021-06-01T11:20:53Z</time>
      </trkpt>
      <trkpt lat="45.70222" lon="6.63374">
        <ele>1472</ele>
        <time>2021-06-01T11:20:54Z</time>
      </trkpt>
      <trkpt lat="45.7022" lon="6.63375">
        <ele>1472.4</ele>
        <time>2021-06-01T11:20:55Z</time>
      </trkpt>
      <trkpt lat="45.70217" lon="6.63375">
        <ele>1473</ele>
        <time>2021-06-01T11:20:56Z</time>
      </trkpt>
      <trkpt lat="45.70214" lon="6.63375">
        <ele>1473.6</ele>
        <time>2021-06-01T11:20:57Z</time>
      </trkpt>
      <trkpt lat="45.70211" lon="6.63375">
        <ele>1474</ele>
        <time>2021-06-01T11:20:58Z</time>
      </trkpt>
      <trkpt lat="45.70208" lon="6.63375">
        <ele>1474.4</ele>
        <time>2021-06-01T11:20:59Z</time>
      </trkpt>
      <trkpt lat="45.70206" lon="6.63376">
        <ele>1474.6</ele>
        <time>2021-06-01T11:21:00Z</time>
      </trkpt>
      <trkpt lat="45.70203" lon="6.63377">
        <ele>1475</ele>
        <time>2021-06-01T11:21:02Z</time>
      </trkpt>
      <trkpt lat="45.702" lon="6.63378">
        <ele>1475</ele>
        <time>2021-06-01T11:21:03Z</time>
      </trkpt>
      <trkpt lat="45.70198" lon="6.63379">
        <ele>1475</ele>
        <time>2021-06-01T11:21:04Z</time>
      </trkpt>
      <trkpt lat="45.70195" lon="6.63379">
        <ele>1475.2</ele>
        <time>2021-06-01T11:21:05Z</time>
      </trkpt>
      <trkpt lat="45.70192" lon="6.63379">
        <ele>1475.6</ele>
        <time>2021-06-01T11:21:06Z</time>
      </trkpt>
      <trkpt lat="45.70187" lon="6.63379">
        <ele>1476.2</ele>
        <time>2021-06-01T11:21:08Z</time>
      </trkpt>
      <trkpt lat="45.70184" lon="6.63379">
        <ele>1476.6</ele>
        <time>2021-06-01T11:21:09Z</time>
      </trkpt>
      <trkpt lat="45.70181" lon="6.63379">
        <ele>1477</ele>
        <time>2021-06-01T11:21:10Z</time>
      </trkpt>
      <trkpt lat="45.70179" lon="6.63379">
        <ele>1477.4</ele>
        <time>2021-06-01T11:21:11Z</time>
      </trkpt>
      <trkpt lat="45.70176" lon="6.63379">
        <ele>1477.8</ele>
        <time>2021-06-01T11:21:12Z</time>
      </trkpt>
      <trkpt lat="45.70174" lon="6.63379">
        <ele>1478.2</ele>
        <time>2021-06-01T11:21:13Z</time>
      </trkpt>
      <trkpt lat="45.70171" lon="6.63379">
        <ele>1478.6</ele>
        <time>2021-06-01T11:21:14Z</time>
      </trkpt>
      <trkpt lat="45.70169" lon="6.6338">
        <ele>1478.8</ele>
        <time>2021-06-01T11:21:15Z</time>
      </trkpt>
      <trkpt lat="45.70166" lon="6.6338">
        <ele>1479.2</ele>
        <time>2021-06-01T11:21:16Z</time>
      </trkpt>
      <trkpt lat="45.70163" lon="6.6338">
        <ele>1479.8</ele>
        <time>2021-06-01T11:21:17Z</time>
      </trkpt>
      <trkpt lat="45.7016" lon="6.6338">
        <ele>1480.2</ele>
        <time>2021-06-01T11:21:18Z</time>
      </trkpt>
      <trkpt lat="45.70158" lon="6.63381">
        <ele>1480.6</ele>
        <time>2021-06-01T11:21:19Z</time>
      </trkpt>
      <trkpt lat="45.70155" lon="6.6338">
        <ele>1481</ele>
        <time>2021-06-01T11:21:20Z</time>
      </trkpt>
      <trkpt lat="45.70152" lon="6.63381">
        <ele>1481.2</ele>
        <time>2021-06-01T11:21:21Z</time>
      </trkpt>
      <trkpt lat="45.7015" lon="6.63381">
        <ele>1481.4</ele>
        <time>2021-06-01T11:21:22Z</time>
      </trkpt>
      <trkpt lat="45.70148" lon="6.63382">
        <ele>1481.4</ele>
        <time>2021-06-01T11:21:23Z</time>
      </trkpt>
      <trkpt lat="45.70145" lon="6.63382">
        <ele>1481.4</ele>
        <time>2021-06-01T11:21:24Z</time>
      </trkpt>
      <trkpt lat="45.70142" lon="6.63382">
        <ele>1481.2</ele>
        <time>2021-06-01T11:21:25Z</time>
      </trkpt>
      <trkpt lat="45.7014" lon="6.63382">
        <ele>1481.2</ele>
        <time>2021-06-01T11:21:26Z</time>
      </trkpt>
      <trkpt lat="45.70138" lon="6.63383">
        <ele>1481.2</ele>
        <time>2021-06-01T11:21:27Z</time>
      </trkpt>
      <trkpt lat="45.70136" lon="6.63384">
        <ele>1481.4</ele>
        <time>2021-06-01T11:21:28Z</time>
      </trkpt>
      <trkpt lat="45.70133" lon="6.63384">
        <ele>1481.6</ele>
        <time>2021-06-01T11:21:29Z</time>
      </trkpt>
      <trkpt lat="45.70131" lon="6.63384">
        <ele>1482</ele>
        <time>2021-06-01T11:21:30Z</time>
      </trkpt>
      <trkpt lat="45.70128" lon="6.63384">
        <ele>1482.2</ele>
        <time>2021-06-01T11:21:31Z</time>
      </trkpt>
      <trkpt lat="45.70125" lon="6.63384">
        <ele>1482.6</ele>
        <time>2021-06-01T11:21:32Z</time>
      </trkpt>
      <trkpt lat="45.70121" lon="6.63384">
        <ele>1482.6</ele>
        <time>2021-06-01T11:21:33Z</time>
      </trkpt>
      <trkpt lat="45.70118" lon="6.63385">
        <ele>1483</ele>
        <time>2021-06-01T11:21:34Z</time>
      </trkpt>
      <trkpt lat="45.70115" lon="6.63386">
        <ele>1483.2</ele>
        <time>2021-06-01T11:21:35Z</time>
      </trkpt>
      <trkpt lat="45.70112" lon="6.63386">
        <ele>1483.6</ele>
        <time>2021-06-01T11:21:36Z</time>
      </trkpt>
      <trkpt lat="45.70108" lon="6.63386">
        <ele>1483.8</ele>
        <time>2021-06-01T11:21:37Z</time>
      </trkpt>
      <trkpt lat="45.70106" lon="6.63386">
        <ele>1484.6</ele>
        <time>2021-06-01T11:21:38Z</time>
      </trkpt>
      <trkpt lat="45.70103" lon="6.63387">
        <ele>1485.2</ele>
        <time>2021-06-01T11:21:39Z</time>
      </trkpt>
      <trkpt lat="45.701" lon="6.63387">
        <ele>1485.8</ele>
        <time>2021-06-01T11:21:40Z</time>
      </trkpt>
      <trkpt lat="45.70097" lon="6.63387">
        <ele>1486.6</ele>
        <time>2021-06-01T11:21:41Z</time>
      </trkpt>
      <trkpt lat="45.70094" lon="6.63387">
        <ele>1487.2</ele>
        <time>2021-06-01T11:21:42Z</time>
      </trkpt>
      <trkpt lat="45.70092" lon="6.63387">
        <ele>1487.8</ele>
        <time>2021-06-01T11:21:43Z</time>
      </trkpt>
      <trkpt lat="45.70089" lon="6.63388">
        <ele>1488.4</ele>
        <time>2021-06-01T11:21:44Z</time>
      </trkpt>
      <trkpt lat="45.70086" lon="6.63388">
        <ele>1489</ele>
        <time>2021-06-01T11:21:45Z</time>
      </trkpt>
      <trkpt lat="45.70083" lon="6.63388">
        <ele>1489.8</ele>
        <time>2021-06-01T11:21:46Z</time>
      </trkpt>
      <trkpt lat="45.7008" lon="6.63388">
        <ele>1490.2</ele>
        <time>2021-06-01T11:21:47Z</time>
      </trkpt>
      <trkpt lat="45.70077" lon="6.63388">
        <ele>1490.8</ele>
        <time>2021-06-01T11:21:48Z</time>
      </trkpt>
      <trkpt lat="45.70074" lon="6.63388">
        <ele>1491.2</ele>
        <time>2021-06-01T11:21:49Z</time>
      </trkpt>
      <trkpt lat="45.70071" lon="6.63388">
        <ele>1491.8</ele>
        <time>2021-06-01T11:21:50Z</time>
      </trkpt>
      <trkpt lat="45.70068" lon="6.63387">
        <ele>1492.2</ele>
        <time>2021-06-01T11:21:51Z</time>
      </trkpt>
      <trkpt lat="45.70065" lon="6.63387">
        <ele>1492.6</ele>
        <time>2021-06-01T11:21:52Z</time>
      </trkpt>
      <trkpt lat="45.70063" lon="6.63387">
        <ele>1493</ele>
        <time>2021-06-01T11:21:53Z</time>
      </trkpt>
      <trkpt lat="45.7006" lon="6.63387">
        <ele>1493.4</ele>
        <time>2021-06-01T11:21:54Z</time>
      </trkpt>
      <trkpt lat="45.70057" lon="6.63387">
        <ele>1494</ele>
        <time>2021-06-01T11:21:55Z</time>
      </trkpt>
      <trkpt lat="45.70051" lon="6.63387">
        <ele>1495.2</ele>
        <time>2021-06-01T11:21:57Z</time>
      </trkpt>
      <trkpt lat="45.70048" lon="6.63387">
        <ele>1496</ele>
        <time>2021-06-01T11:21:58Z</time>
      </trkpt>
      <trkpt lat="45.70045" lon="6.63387">
        <ele>1496.6</ele>
        <time>2021-06-01T11:21:59Z</time>
      </trkpt>
      <trkpt lat="45.70042" lon="6.63387">
        <ele>1497.2</ele>
        <time>2021-06-01T11:22:00Z</time>
      </trkpt>
      <trkpt lat="45.70039" lon="6.63387">
        <ele>1497.4</ele>
        <time>2021-06-01T11:22:01Z</time>
      </trkpt>
      <trkpt lat="45.70037" lon="6.63387">
        <ele>1497.6</ele>
        <time>2021-06-01T11:22:02Z</time>
      </trkpt>
      <trkpt lat="45.70034" lon="6.63387">
        <ele>1497.6</ele>
        <time>2021-06-01T11:22:03Z</time>
      </trkpt>
      <trkpt lat="45.70031" lon="6.63388">
        <ele>1497.8</ele>
        <time>2021-06-01T11:22:04Z</time>
      </trkpt>
      <trkpt lat="45.70029" lon="6.63388">
        <ele>1497.8</ele>
        <time>2021-06-01T11:22:05Z</time>
      </trkpt>
      <trkpt lat="45.70026" lon="6.63388">
        <ele>1497.6</ele>
        <time>2021-06-01T11:22:06Z</time>
      </trkpt>
      <trkpt lat="45.70023" lon="6.63388">
        <ele>1497.4</ele>
        <time>2021-06-01T11:22:07Z</time>
      </trkpt>
      <trkpt lat="45.7002" lon="6.63388">
        <ele>1497.2</ele>
        <time>2021-06-01T11:22:08Z</time>
      </trkpt>
      <trkpt lat="45.70017" lon="6.63388">
        <ele>1497</ele>
        <time>2021-06-01T11:22:09Z</time>
      </trkpt>
      <trkpt lat="45.70014" lon="6.63387">
        <ele>1496.8</ele>
        <time>2021-06-01T11:22:10Z</time>
      </trkpt>
      <trkpt lat="45.70012" lon="6.63388">
        <ele>1496.8</ele>
        <time>2021-06-01T11:22:11Z</time>
      </trkpt>
      <trkpt lat="45.70008" lon="6.63388">
        <ele>1496.6</ele>
        <time>2021-06-01T11:22:12Z</time>
      </trkpt>
      <trkpt lat="45.70006" lon="6.63388">
        <ele>1496.6</ele>
        <time>2021-06-01T11:22:13Z</time>
      </trkpt>
      <trkpt lat="45.7" lon="6.63387">
        <ele>1496.4</ele>
        <time>2021-06-01T11:22:15Z</time>
      </trkpt>
      <trkpt lat="45.69997" lon="6.63387">
        <ele>1496.4</ele>
        <time>2021-06-01T11:22:16Z</time>
      </trkpt>
      <trkpt lat="45.69995" lon="6.63387">
        <ele>1496.4</ele>
        <time>2021-06-01T11:22:17Z</time>
      </trkpt>
      <trkpt lat="45.69992" lon="6.63387">
        <ele>1496.4</ele>
        <time>2021-06-01T11:22:18Z</time>
      </trkpt>
      <trkpt lat="45.69989" lon="6.63387">
        <ele>1496.4</ele>
        <time>2021-06-01T11:22:19Z</time>
      </trkpt>
      <trkpt lat="45.69986" lon="6.63387">
        <ele>1496.6</ele>
        <time>2021-06-01T11:22:20Z</time>
      </trkpt>
      <trkpt lat="45.69984" lon="6.63386">
        <ele>1496.4</ele>
        <time>2021-06-01T11:22:21Z</time>
      </trkpt>
      <trkpt lat="45.69981" lon="6.63386">
        <ele>1496.6</ele>
        <time>2021-06-01T11:22:22Z</time>
      </trkpt>
      <trkpt lat="45.69976" lon="6.63385">
        <ele>1496.6</ele>
        <time>2021-06-01T11:22:24Z</time>
      </trkpt>
      <trkpt lat="45.69971" lon="6.63384">
        <ele>1496.8</ele>
        <time>2021-06-01T11:22:26Z</time>
      </trkpt>
      <trkpt lat="45.69966" lon="6.63384">
        <ele>1497</ele>
        <time>2021-06-01T11:22:28Z</time>
      </trkpt>
      <trkpt lat="45.69964" lon="6.63385">
        <ele>1497</ele>
        <time>2021-06-01T11:22:29Z</time>
      </trkpt>
      <trkpt lat="45.69961" lon="6.63385">
        <ele>1497</ele>
        <time>2021-06-01T11:22:30Z</time>
      </trkpt>
      <trkpt lat="45.69959" lon="6.63385">
        <ele>1497</ele>
        <time>2021-06-01T11:22:31Z</time>
      </trkpt>
      <trkpt lat="45.69956" lon="6.63388">
        <ele>1496.8</ele>
        <time>2021-06-01T11:22:33Z</time>
      </trkpt>
      <trkpt lat="45.69954" lon="6.6339">
        <ele>1496.6</ele>
        <time>2021-06-01T11:22:34Z</time>
      </trkpt>
      <trkpt lat="45.69952" lon="6.63392">
        <ele>1496.6</ele>
        <time>2021-06-01T11:22:35Z</time>
      </trkpt>
      <trkpt lat="45.69949" lon="6.63394">
        <ele>1496.2</ele>
        <time>2021-06-01T11:22:36Z</time>
      </trkpt>
      <trkpt lat="45.69948" lon="6.63396">
        <ele>1496.2</ele>
        <time>2021-06-01T11:22:37Z</time>
      </trkpt>
      <trkpt lat="45.69946" lon="6.63398">
        <ele>1496.2</ele>
        <time>2021-06-01T11:22:38Z</time>
      </trkpt>
      <trkpt lat="45.69943" lon="6.634">
        <ele>1496</ele>
        <time>2021-06-01T11:22:39Z</time>
      </trkpt>
      <trkpt lat="45.6994" lon="6.63402">
        <ele>1496</ele>
        <time>2021-06-01T11:22:40Z</time>
      </trkpt>
      <trkpt lat="45.69938" lon="6.63404">
        <ele>1496</ele>
        <time>2021-06-01T11:22:41Z</time>
      </trkpt>
      <trkpt lat="45.69934" lon="6.63405">
        <ele>1496</ele>
        <time>2021-06-01T11:22:42Z</time>
      </trkpt>
      <trkpt lat="45.69931" lon="6.63407">
        <ele>1496</ele>
        <time>2021-06-01T11:22:43Z</time>
      </trkpt>
      <trkpt lat="45.69924" lon="6.6341">
        <ele>1496.4</ele>
        <time>2021-06-01T11:22:45Z</time>
      </trkpt>
      <trkpt lat="45.69922" lon="6.63411">
        <ele>1496.6</ele>
        <time>2021-06-01T11:22:46Z</time>
      </trkpt>
      <trkpt lat="45.69919" lon="6.63412">
        <ele>1496.8</ele>
        <time>2021-06-01T11:22:47Z</time>
      </trkpt>
      <trkpt lat="45.69916" lon="6.63414">
        <ele>1497</ele>
        <time>2021-06-01T11:22:48Z</time>
      </trkpt>
      <trkpt lat="45.69913" lon="6.63415">
        <ele>1497.2</ele>
        <time>2021-06-01T11:22:49Z</time>
      </trkpt>
      <trkpt lat="45.6991" lon="6.63416">
        <ele>1497.4</ele>
        <time>2021-06-01T11:22:50Z</time>
      </trkpt>
      <trkpt lat="45.69907" lon="6.63417">
        <ele>1497.4</ele>
        <time>2021-06-01T11:22:51Z</time>
      </trkpt>
      <trkpt lat="45.69904" lon="6.63417">
        <ele>1497.6</ele>
        <time>2021-06-01T11:22:52Z</time>
      </trkpt>
      <trkpt lat="45.69901" lon="6.63418">
        <ele>1498.2</ele>
        <time>2021-06-01T11:22:53Z</time>
      </trkpt>
      <trkpt lat="45.69899" lon="6.63419">
        <ele>1498.8</ele>
        <time>2021-06-01T11:22:54Z</time>
      </trkpt>
      <trkpt lat="45.69896" lon="6.63419">
        <ele>1499.4</ele>
        <time>2021-06-01T11:22:55Z</time>
      </trkpt>
      <trkpt lat="45.69892" lon="6.63419">
        <ele>1500.2</ele>
        <time>2021-06-01T11:22:56Z</time>
      </trkpt>
      <trkpt lat="45.6989" lon="6.6342">
        <ele>1501</ele>
        <time>2021-06-01T11:22:57Z</time>
      </trkpt>
      <trkpt lat="45.69887" lon="6.6342">
        <ele>1501.6</ele>
        <time>2021-06-01T11:22:58Z</time>
      </trkpt>
      <trkpt lat="45.69884" lon="6.63421">
        <ele>1502.4</ele>
        <time>2021-06-01T11:22:59Z</time>
      </trkpt>
      <trkpt lat="45.69881" lon="6.63421">
        <ele>1502.8</ele>
        <time>2021-06-01T11:23:00Z</time>
      </trkpt>
      <trkpt lat="45.69878" lon="6.63422">
        <ele>1503.4</ele>
        <time>2021-06-01T11:23:01Z</time>
      </trkpt>
      <trkpt lat="45.69875" lon="6.63421">
        <ele>1503.8</ele>
        <time>2021-06-01T11:23:02Z</time>
      </trkpt>
      <trkpt lat="45.69873" lon="6.63421">
        <ele>1504</ele>
        <time>2021-06-01T11:23:03Z</time>
      </trkpt>
      <trkpt lat="45.6987" lon="6.63421">
        <ele>1504.4</ele>
        <time>2021-06-01T11:23:04Z</time>
      </trkpt>
      <trkpt lat="45.69867" lon="6.63421">
        <ele>1504.8</ele>
        <time>2021-06-01T11:23:05Z</time>
      </trkpt>
      <trkpt lat="45.69864" lon="6.63421">
        <ele>1505.2</ele>
        <time>2021-06-01T11:23:06Z</time>
      </trkpt>
      <trkpt lat="45.69861" lon="6.63422">
        <ele>1505.4</ele>
        <time>2021-06-01T11:23:07Z</time>
      </trkpt>
      <trkpt lat="45.69858" lon="6.63422">
        <ele>1505.6</ele>
        <time>2021-06-01T11:23:08Z</time>
      </trkpt>
      <trkpt lat="45.69855" lon="6.63421">
        <ele>1505.6</ele>
        <time>2021-06-01T11:23:09Z</time>
      </trkpt>
      <trkpt lat="45.69852" lon="6.63421">
        <ele>1505.6</ele>
        <time>2021-06-01T11:23:10Z</time>
      </trkpt>
      <trkpt lat="45.6985" lon="6.63421">
        <ele>1505.6</ele>
        <time>2021-06-01T11:23:11Z</time>
      </trkpt>
      <trkpt lat="45.69847" lon="6.6342">
        <ele>1505.4</ele>
        <time>2021-06-01T11:23:12Z</time>
      </trkpt>
      <trkpt lat="45.69844" lon="6.6342">
        <ele>1505.2</ele>
        <time>2021-06-01T11:23:13Z</time>
      </trkpt>
      <trkpt lat="45.69841" lon="6.6342">
        <ele>1505.2</ele>
        <time>2021-06-01T11:23:14Z</time>
      </trkpt>
      <trkpt lat="45.69838" lon="6.63419">
        <ele>1505</ele>
        <time>2021-06-01T11:23:15Z</time>
      </trkpt>
      <trkpt lat="45.69836" lon="6.63419">
        <ele>1504.8</ele>
        <time>2021-06-01T11:23:16Z</time>
      </trkpt>
      <trkpt lat="45.69833" lon="6.63418">
        <ele>1504.6</ele>
        <time>2021-06-01T11:23:17Z</time>
      </trkpt>
      <trkpt lat="45.6983" lon="6.63416">
        <ele>1504.6</ele>
        <time>2021-06-01T11:23:18Z</time>
      </trkpt>
      <trkpt lat="45.69828" lon="6.63415">
        <ele>1504.6</ele>
        <time>2021-06-01T11:23:19Z</time>
      </trkpt>
      <trkpt lat="45.69826" lon="6.63414">
        <ele>1504.8</ele>
        <time>2021-06-01T11:23:20Z</time>
      </trkpt>
      <trkpt lat="45.69824" lon="6.63412">
        <ele>1505.2</ele>
        <time>2021-06-01T11:23:21Z</time>
      </trkpt>
      <trkpt lat="45.69822" lon="6.6341">
        <ele>1505.8</ele>
        <time>2021-06-01T11:23:22Z</time>
      </trkpt>
      <trkpt lat="45.6982" lon="6.63408">
        <ele>1506.2</ele>
        <time>2021-06-01T11:23:23Z</time>
      </trkpt>
      <trkpt lat="45.69819" lon="6.63406">
        <ele>1506.8</ele>
        <time>2021-06-01T11:23:24Z</time>
      </trkpt>
      <trkpt lat="45.69816" lon="6.63404">
        <ele>1507.2</ele>
        <time>2021-06-01T11:23:25Z</time>
      </trkpt>
      <trkpt lat="45.69814" lon="6.63402">
        <ele>1507.4</ele>
        <time>2021-06-01T11:23:26Z</time>
      </trkpt>
      <trkpt lat="45.69812" lon="6.634">
        <ele>1507.6</ele>
        <time>2021-06-01T11:23:27Z</time>
      </trkpt>
      <trkpt lat="45.69811" lon="6.63398">
        <ele>1507.2</ele>
        <time>2021-06-01T11:23:28Z</time>
      </trkpt>
      <trkpt lat="45.69809" lon="6.63395">
        <ele>1507.2</ele>
        <time>2021-06-01T11:23:29Z</time>
      </trkpt>
      <trkpt lat="45.69807" lon="6.63393">
        <ele>1507</ele>
        <time>2021-06-01T11:23:30Z</time>
      </trkpt>
      <trkpt lat="45.69805" lon="6.63391">
        <ele>1506.8</ele>
        <time>2021-06-01T11:23:31Z</time>
      </trkpt>
      <trkpt lat="45.69803" lon="6.6339">
        <ele>1506.6</ele>
        <time>2021-06-01T11:23:32Z</time>
      </trkpt>
      <trkpt lat="45.69801" lon="6.63388">
        <ele>1506.6</ele>
        <time>2021-06-01T11:23:33Z</time>
      </trkpt>
      <trkpt lat="45.69798" lon="6.63387">
        <ele>1506.4</ele>
        <time>2021-06-01T11:23:34Z</time>
      </trkpt>
      <trkpt lat="45.69796" lon="6.63386">
        <ele>1506.4</ele>
        <time>2021-06-01T11:23:35Z</time>
      </trkpt>
      <trkpt lat="45.69794" lon="6.63385">
        <ele>1506.4</ele>
        <time>2021-06-01T11:23:36Z</time>
      </trkpt>
      <trkpt lat="45.69791" lon="6.63384">
        <ele>1506.4</ele>
        <time>2021-06-01T11:23:37Z</time>
      </trkpt>
      <trkpt lat="45.69789" lon="6.63384">
        <ele>1506.2</ele>
        <time>2021-06-01T11:23:38Z</time>
      </trkpt>
      <trkpt lat="45.69786" lon="6.63384">
        <ele>1506.2</ele>
        <time>2021-06-01T11:23:39Z</time>
      </trkpt>
      <trkpt lat="45.69783" lon="6.63384">
        <ele>1506.2</ele>
        <time>2021-06-01T11:23:40Z</time>
      </trkpt>
      <trkpt lat="45.6978" lon="6.63384">
        <ele>1506.2</ele>
        <time>2021-06-01T11:23:41Z</time>
      </trkpt>
      <trkpt lat="45.69777" lon="6.63384">
        <ele>1506.2</ele>
        <time>2021-06-01T11:23:42Z</time>
      </trkpt>
      <trkpt lat="45.69775" lon="6.63384">
        <ele>1506.2</ele>
        <time>2021-06-01T11:23:43Z</time>
      </trkpt>
      <trkpt lat="45.69772" lon="6.63385">
        <ele>1506.2</ele>
        <time>2021-06-01T11:23:44Z</time>
      </trkpt>
      <trkpt lat="45.69769" lon="6.63385">
        <ele>1506.4</ele>
        <time>2021-06-01T11:23:45Z</time>
      </trkpt>
      <trkpt lat="45.69765" lon="6.63386">
        <ele>1506.2</ele>
        <time>2021-06-01T11:23:46Z</time>
      </trkpt>
      <trkpt lat="45.69763" lon="6.63387">
        <ele>1506.2</ele>
        <time>2021-06-01T11:23:47Z</time>
      </trkpt>
      <trkpt lat="45.69756" lon="6.63388">
        <ele>1506.4</ele>
        <time>2021-06-01T11:23:49Z</time>
      </trkpt>
      <trkpt lat="45.69753" lon="6.63389">
        <ele>1506.4</ele>
        <time>2021-06-01T11:23:50Z</time>
      </trkpt>
      <trkpt lat="45.6975" lon="6.6339">
        <ele>1506.6</ele>
        <time>2021-06-01T11:23:51Z</time>
      </trkpt>
      <trkpt lat="45.69747" lon="6.6339">
        <ele>1507</ele>
        <time>2021-06-01T11:23:52Z</time>
      </trkpt>
      <trkpt lat="45.69744" lon="6.63391">
        <ele>1507.6</ele>
        <time>2021-06-01T11:23:53Z</time>
      </trkpt>
      <trkpt lat="45.69741" lon="6.63391">
        <ele>1508.4</ele>
        <time>2021-06-01T11:23:54Z</time>
      </trkpt>
      <trkpt lat="45.69738" lon="6.63391">
        <ele>1509.2</ele>
        <time>2021-06-01T11:23:55Z</time>
      </trkpt>
      <trkpt lat="45.69735" lon="6.63391">
        <ele>1510</ele>
        <time>2021-06-01T11:23:56Z</time>
      </trkpt>
      <trkpt lat="45.69732" lon="6.63391">
        <ele>1511</ele>
        <time>2021-06-01T11:23:57Z</time>
      </trkpt>
      <trkpt lat="45.69729" lon="6.63391">
        <ele>1511.8</ele>
        <time>2021-06-01T11:23:58Z</time>
      </trkpt>
      <trkpt lat="45.69726" lon="6.6339">
        <ele>1512.6</ele>
        <time>2021-06-01T11:23:59Z</time>
      </trkpt>
      <trkpt lat="45.69723" lon="6.6339">
        <ele>1513.2</ele>
        <time>2021-06-01T11:24:00Z</time>
      </trkpt>
      <trkpt lat="45.6972" lon="6.6339">
        <ele>1513.8</ele>
        <time>2021-06-01T11:24:01Z</time>
      </trkpt>
      <trkpt lat="45.69717" lon="6.63389">
        <ele>1514.2</ele>
        <time>2021-06-01T11:24:02Z</time>
      </trkpt>
      <trkpt lat="45.69714" lon="6.63388">
        <ele>1514.6</ele>
        <time>2021-06-01T11:24:03Z</time>
      </trkpt>
      <trkpt lat="45.69711" lon="6.63387">
        <ele>1514.8</ele>
        <time>2021-06-01T11:24:04Z</time>
      </trkpt>
      <trkpt lat="45.69708" lon="6.63387">
        <ele>1515.2</ele>
        <time>2021-06-01T11:24:05Z</time>
      </trkpt>
      <trkpt lat="45.69705" lon="6.63385">
        <ele>1515</ele>
        <time>2021-06-01T11:24:06Z</time>
      </trkpt>
      <trkpt lat="45.69702" lon="6.63385">
        <ele>1515.2</ele>
        <time>2021-06-01T11:24:07Z</time>
      </trkpt>
      <trkpt lat="45.697" lon="6.63384">
        <ele>1515</ele>
        <time>2021-06-01T11:24:08Z</time>
      </trkpt>
      <trkpt lat="45.69696" lon="6.63382">
        <ele>1515.4</ele>
        <time>2021-06-01T11:24:09Z</time>
      </trkpt>
      <trkpt lat="45.69693" lon="6.63381">
        <ele>1516</ele>
        <time>2021-06-01T11:24:10Z</time>
      </trkpt>
      <trkpt lat="45.6969" lon="6.63379">
        <ele>1516.6</ele>
        <time>2021-06-01T11:24:11Z</time>
      </trkpt>
      <trkpt lat="45.69687" lon="6.63378">
        <ele>1517</ele>
        <time>2021-06-01T11:24:12Z</time>
      </trkpt>
      <trkpt lat="45.69684" lon="6.63377">
        <ele>1517.6</ele>
        <time>2021-06-01T11:24:13Z</time>
      </trkpt>
      <trkpt lat="45.69681" lon="6.63375">
        <ele>1518</ele>
        <time>2021-06-01T11:24:14Z</time>
      </trkpt>
      <trkpt lat="45.69678" lon="6.63373">
        <ele>1518.6</ele>
        <time>2021-06-01T11:24:15Z</time>
      </trkpt>
      <trkpt lat="45.69676" lon="6.63371">
        <ele>1519.2</ele>
        <time>2021-06-01T11:24:16Z</time>
      </trkpt>
      <trkpt lat="45.69673" lon="6.6337">
        <ele>1519.8</ele>
        <time>2021-06-01T11:24:17Z</time>
      </trkpt>
      <trkpt lat="45.69671" lon="6.63368">
        <ele>1520.4</ele>
        <time>2021-06-01T11:24:18Z</time>
      </trkpt>
      <trkpt lat="45.69668" lon="6.63367">
        <ele>1521</ele>
        <time>2021-06-01T11:24:19Z</time>
      </trkpt>
      <trkpt lat="45.69665" lon="6.63365">
        <ele>1521.6</ele>
        <time>2021-06-01T11:24:20Z</time>
      </trkpt>
      <trkpt lat="45.69662" lon="6.63364">
        <ele>1521.8</ele>
        <time>2021-06-01T11:24:21Z</time>
      </trkpt>
      <trkpt lat="45.6966" lon="6.63362">
        <ele>1522</ele>
        <time>2021-06-01T11:24:22Z</time>
      </trkpt>
      <trkpt lat="45.69657" lon="6.6336">
        <ele>1521.8</ele>
        <time>2021-06-01T11:24:23Z</time>
      </trkpt>
      <trkpt lat="45.69654" lon="6.63359">
        <ele>1521.8</ele>
        <time>2021-06-01T11:24:24Z</time>
      </trkpt>
      <trkpt lat="45.69652" lon="6.63357">
        <ele>1521.6</ele>
        <time>2021-06-01T11:24:25Z</time>
      </trkpt>
      <trkpt lat="45.69649" lon="6.63356">
        <ele>1521.4</ele>
        <time>2021-06-01T11:24:26Z</time>
      </trkpt>
      <trkpt lat="45.69646" lon="6.63355">
        <ele>1521</ele>
        <time>2021-06-01T11:24:27Z</time>
      </trkpt>
      <trkpt lat="45.69643" lon="6.63354">
        <ele>1520.4</ele>
        <time>2021-06-01T11:24:28Z</time>
      </trkpt>
      <trkpt lat="45.6964" lon="6.63353">
        <ele>1520.2</ele>
        <time>2021-06-01T11:24:29Z</time>
      </trkpt>
      <trkpt lat="45.69638" lon="6.63352">
        <ele>1520</ele>
        <time>2021-06-01T11:24:30Z</time>
      </trkpt>
      <trkpt lat="45.69635" lon="6.63352">
        <ele>1519.8</ele>
        <time>2021-06-01T11:24:31Z</time>
      </trkpt>
      <trkpt lat="45.69632" lon="6.6335">
        <ele>1519.6</ele>
        <time>2021-06-01T11:24:32Z</time>
      </trkpt>
      <trkpt lat="45.69628" lon="6.6335">
        <ele>1519.4</ele>
        <time>2021-06-01T11:24:33Z</time>
      </trkpt>
      <trkpt lat="45.69626" lon="6.63349">
        <ele>1519.4</ele>
        <time>2021-06-01T11:24:34Z</time>
      </trkpt>
      <trkpt lat="45.69623" lon="6.63348">
        <ele>1519.2</ele>
        <time>2021-06-01T11:24:35Z</time>
      </trkpt>
      <trkpt lat="45.6962" lon="6.63348">
        <ele>1519</ele>
        <time>2021-06-01T11:24:36Z</time>
      </trkpt>
      <trkpt lat="45.69617" lon="6.63347">
        <ele>1518.8</ele>
        <time>2021-06-01T11:24:37Z</time>
      </trkpt>
      <trkpt lat="45.69614" lon="6.63346">
        <ele>1518.2</ele>
        <time>2021-06-01T11:24:38Z</time>
      </trkpt>
      <trkpt lat="45.69612" lon="6.63345">
        <ele>1518.2</ele>
        <time>2021-06-01T11:24:39Z</time>
      </trkpt>
      <trkpt lat="45.69609" lon="6.63344">
        <ele>1518</ele>
        <time>2021-06-01T11:24:40Z</time>
      </trkpt>
      <trkpt lat="45.69606" lon="6.63343">
        <ele>1517.6</ele>
        <time>2021-06-01T11:24:41Z</time>
      </trkpt>
      <trkpt lat="45.69603" lon="6.63342">
        <ele>1517.6</ele>
        <time>2021-06-01T11:24:42Z</time>
      </trkpt>
      <trkpt lat="45.69601" lon="6.6334">
        <ele>1517.6</ele>
        <time>2021-06-01T11:24:43Z</time>
      </trkpt>
      <trkpt lat="45.69598" lon="6.63338">
        <ele>1517.4</ele>
        <time>2021-06-01T11:24:44Z</time>
      </trkpt>
      <trkpt lat="45.69595" lon="6.63336">
        <ele>1517.4</ele>
        <time>2021-06-01T11:24:45Z</time>
      </trkpt>
      <trkpt lat="45.69592" lon="6.63335">
        <ele>1517.4</ele>
        <time>2021-06-01T11:24:46Z</time>
      </trkpt>
      <trkpt lat="45.6959" lon="6.63334">
        <ele>1517.4</ele>
        <time>2021-06-01T11:24:47Z</time>
      </trkpt>
      <trkpt lat="45.69587" lon="6.63332">
        <ele>1517.6</ele>
        <time>2021-06-01T11:24:48Z</time>
      </trkpt>
      <trkpt lat="45.69585" lon="6.63332">
        <ele>1517.8</ele>
        <time>2021-06-01T11:24:49Z</time>
      </trkpt>
      <trkpt lat="45.69583" lon="6.63331">
        <ele>1518</ele>
        <time>2021-06-01T11:24:50Z</time>
      </trkpt>
      <trkpt lat="45.6958" lon="6.63329">
        <ele>1518.2</ele>
        <time>2021-06-01T11:24:51Z</time>
      </trkpt>
      <trkpt lat="45.69578" lon="6.63327">
        <ele>1518.2</ele>
        <time>2021-06-01T11:24:52Z</time>
      </trkpt>
      <trkpt lat="45.69573" lon="6.63323">
        <ele>1518.4</ele>
        <time>2021-06-01T11:24:54Z</time>
      </trkpt>
      <trkpt lat="45.69571" lon="6.63321">
        <ele>1518.4</ele>
        <time>2021-06-01T11:24:55Z</time>
      </trkpt>
      <trkpt lat="45.69568" lon="6.63319">
        <ele>1518.4</ele>
        <time>2021-06-01T11:24:56Z</time>
      </trkpt>
      <trkpt lat="45.69565" lon="6.63315">
        <ele>1518.4</ele>
        <time>2021-06-01T11:24:57Z</time>
      </trkpt>
      <trkpt lat="45.69562" lon="6.6331">
        <ele>1518.4</ele>
        <time>2021-06-01T11:24:58Z</time>
      </trkpt>
      <trkpt lat="45.69559" lon="6.63308">
        <ele>1518.4</ele>
        <time>2021-06-01T11:24:59Z</time>
      </trkpt>
      <trkpt lat="45.69556" lon="6.63306">
        <ele>1518.4</ele>
        <time>2021-06-01T11:25:00Z</time>
      </trkpt>
      <trkpt lat="45.69553" lon="6.63302">
        <ele>1518.4</ele>
        <time>2021-06-01T11:25:01Z</time>
      </trkpt>
      <trkpt lat="45.69549" lon="6.63299">
        <ele>1518.2</ele>
        <time>2021-06-01T11:25:02Z</time>
      </trkpt>
      <trkpt lat="45.69546" lon="6.63297">
        <ele>1518.4</ele>
        <time>2021-06-01T11:25:03Z</time>
      </trkpt>
      <trkpt lat="45.69542" lon="6.63295">
        <ele>1518.4</ele>
        <time>2021-06-01T11:25:04Z</time>
      </trkpt>
      <trkpt lat="45.69538" lon="6.63294">
        <ele>1518.2</ele>
        <time>2021-06-01T11:25:06Z</time>
      </trkpt>
      <trkpt lat="45.69533" lon="6.63293">
        <ele>1518.2</ele>
        <time>2021-06-01T11:25:07Z</time>
      </trkpt>
      <trkpt lat="45.69531" lon="6.63294">
        <ele>1518.2</ele>
        <time>2021-06-01T11:25:08Z</time>
      </trkpt>
      <trkpt lat="45.69527" lon="6.63294">
        <ele>1518.2</ele>
        <time>2021-06-01T11:25:09Z</time>
      </trkpt>
      <trkpt lat="45.69524" lon="6.63294">
        <ele>1518</ele>
        <time>2021-06-01T11:25:10Z</time>
      </trkpt>
      <trkpt lat="45.69521" lon="6.63295">
        <ele>1518</ele>
        <time>2021-06-01T11:25:11Z</time>
      </trkpt>
      <trkpt lat="45.69519" lon="6.63297">
        <ele>1518</ele>
        <time>2021-06-01T11:25:12Z</time>
      </trkpt>
      <trkpt lat="45.69516" lon="6.633">
        <ele>1517.8</ele>
        <time>2021-06-01T11:25:13Z</time>
      </trkpt>
      <trkpt lat="45.69513" lon="6.63302">
        <ele>1517.8</ele>
        <time>2021-06-01T11:25:14Z</time>
      </trkpt>
      <trkpt lat="45.69511" lon="6.63305">
        <ele>1518</ele>
        <time>2021-06-01T11:25:15Z</time>
      </trkpt>
      <trkpt lat="45.69508" lon="6.63307">
        <ele>1518.2</ele>
        <time>2021-06-01T11:25:16Z</time>
      </trkpt>
      <trkpt lat="45.69506" lon="6.6331">
        <ele>1518.2</ele>
        <time>2021-06-01T11:25:17Z</time>
      </trkpt>
      <trkpt lat="45.69503" lon="6.63312">
        <ele>1518.4</ele>
        <time>2021-06-01T11:25:18Z</time>
      </trkpt>
      <trkpt lat="45.695" lon="6.63314">
        <ele>1518.6</ele>
        <time>2021-06-01T11:25:19Z</time>
      </trkpt>
      <trkpt lat="45.69498" lon="6.63317">
        <ele>1518.6</ele>
        <time>2021-06-01T11:25:20Z</time>
      </trkpt>
      <trkpt lat="45.69495" lon="6.63321">
        <ele>1518.6</ele>
        <time>2021-06-01T11:25:21Z</time>
      </trkpt>
      <trkpt lat="45.69493" lon="6.63326">
        <ele>1518.8</ele>
        <time>2021-06-01T11:25:22Z</time>
      </trkpt>
      <trkpt lat="45.69492" lon="6.63331">
        <ele>1518.8</ele>
        <time>2021-06-01T11:25:23Z</time>
      </trkpt>
      <trkpt lat="45.69491" lon="6.63336">
        <ele>1519.2</ele>
        <time>2021-06-01T11:25:24Z</time>
      </trkpt>
      <trkpt lat="45.6949" lon="6.6334">
        <ele>1519.4</ele>
        <time>2021-06-01T11:25:25Z</time>
      </trkpt>
      <trkpt lat="45.6949" lon="6.63344">
        <ele>1519.8</ele>
        <time>2021-06-01T11:25:26Z</time>
      </trkpt>
      <trkpt lat="45.69489" lon="6.63348">
        <ele>1520.2</ele>
        <time>2021-06-01T11:25:27Z</time>
      </trkpt>
      <trkpt lat="45.69489" lon="6.63351">
        <ele>1520.6</ele>
        <time>2021-06-01T11:25:28Z</time>
      </trkpt>
      <trkpt lat="45.69489" lon="6.63355">
        <ele>1521.2</ele>
        <time>2021-06-01T11:25:29Z</time>
      </trkpt>
      <trkpt lat="45.69488" lon="6.63359">
        <ele>1521.8</ele>
        <time>2021-06-01T11:25:30Z</time>
      </trkpt>
      <trkpt lat="45.69487" lon="6.63362">
        <ele>1522.4</ele>
        <time>2021-06-01T11:25:31Z</time>
      </trkpt>
      <trkpt lat="45.69487" lon="6.63368">
        <ele>1522.8</ele>
        <time>2021-06-01T11:25:32Z</time>
      </trkpt>
      <trkpt lat="45.69487" lon="6.63372">
        <ele>1523</ele>
        <time>2021-06-01T11:25:33Z</time>
      </trkpt>
      <trkpt lat="45.69487" lon="6.63376">
        <ele>1523.6</ele>
        <time>2021-06-01T11:25:34Z</time>
      </trkpt>
      <trkpt lat="45.69488" lon="6.6338">
        <ele>1524</ele>
        <time>2021-06-01T11:25:35Z</time>
      </trkpt>
      <trkpt lat="45.69489" lon="6.63384">
        <ele>1524.8</ele>
        <time>2021-06-01T11:25:36Z</time>
      </trkpt>
      <trkpt lat="45.69489" lon="6.63388">
        <ele>1525.6</ele>
        <time>2021-06-01T11:25:37Z</time>
      </trkpt>
      <trkpt lat="45.6949" lon="6.63392">
        <ele>1526.4</ele>
        <time>2021-06-01T11:25:38Z</time>
      </trkpt>
      <trkpt lat="45.69491" lon="6.63397">
        <ele>1527.2</ele>
        <time>2021-06-01T11:25:39Z</time>
      </trkpt>
      <trkpt lat="45.69491" lon="6.63401">
        <ele>1527.6</ele>
        <time>2021-06-01T11:25:40Z</time>
      </trkpt>
      <trkpt lat="45.69492" lon="6.63405">
        <ele>1528</ele>
        <time>2021-06-01T11:25:41Z</time>
      </trkpt>
      <trkpt lat="45.69493" lon="6.63409">
        <ele>1528.4</ele>
        <time>2021-06-01T11:25:42Z</time>
      </trkpt>
      <trkpt lat="45.69493" lon="6.63414">
        <ele>1528.6</ele>
        <time>2021-06-01T11:25:43Z</time>
      </trkpt>
      <trkpt lat="45.69493" lon="6.63418">
        <ele>1528.6</ele>
        <time>2021-06-01T11:25:44Z</time>
      </trkpt>
      <trkpt lat="45.69494" lon="6.63422">
        <ele>1528.6</ele>
        <time>2021-06-01T11:25:45Z</time>
      </trkpt>
      <trkpt lat="45.69495" lon="6.63426">
        <ele>1528.4</ele>
        <time>2021-06-01T11:25:46Z</time>
      </trkpt>
      <trkpt lat="45.69495" lon="6.63431">
        <ele>1528.2</ele>
        <time>2021-06-01T11:25:47Z</time>
      </trkpt>
      <trkpt lat="45.69496" lon="6.63435">
        <ele>1528</ele>
        <time>2021-06-01T11:25:48Z</time>
      </trkpt>
      <trkpt lat="45.69497" lon="6.63439">
        <ele>1527.8</ele>
        <time>2021-06-01T11:25:49Z</time>
      </trkpt>
      <trkpt lat="45.69498" lon="6.63443">
        <ele>1527.6</ele>
        <time>2021-06-01T11:25:50Z</time>
      </trkpt>
      <trkpt lat="45.69499" lon="6.63447">
        <ele>1527.6</ele>
        <time>2021-06-01T11:25:51Z</time>
      </trkpt>
      <trkpt lat="45.69499" lon="6.6345">
        <ele>1527.2</ele>
        <time>2021-06-01T11:25:52Z</time>
      </trkpt>
      <trkpt lat="45.695" lon="6.63453">
        <ele>1526.8</ele>
        <time>2021-06-01T11:25:53Z</time>
      </trkpt>
      <trkpt lat="45.69501" lon="6.63457">
        <ele>1526.6</ele>
        <time>2021-06-01T11:25:54Z</time>
      </trkpt>
      <trkpt lat="45.69501" lon="6.63461">
        <ele>1526.4</ele>
        <time>2021-06-01T11:25:55Z</time>
      </trkpt>
      <trkpt lat="45.69503" lon="6.63464">
        <ele>1526</ele>
        <time>2021-06-01T11:25:56Z</time>
      </trkpt>
      <trkpt lat="45.69505" lon="6.63468">
        <ele>1526</ele>
        <time>2021-06-01T11:25:57Z</time>
      </trkpt>
      <trkpt lat="45.69505" lon="6.63471">
        <ele>1526</ele>
        <time>2021-06-01T11:25:58Z</time>
      </trkpt>
      <trkpt lat="45.69506" lon="6.63475">
        <ele>1525.8</ele>
        <time>2021-06-01T11:25:59Z</time>
      </trkpt>
      <trkpt lat="45.69507" lon="6.63479">
        <ele>1525.4</ele>
        <time>2021-06-01T11:26:00Z</time>
      </trkpt>
      <trkpt lat="45.69508" lon="6.63483">
        <ele>1525.4</ele>
        <time>2021-06-01T11:26:01Z</time>
      </trkpt>
      <trkpt lat="45.6951" lon="6.63488">
        <ele>1525.2</ele>
        <time>2021-06-01T11:26:02Z</time>
      </trkpt>
      <trkpt lat="45.69512" lon="6.63492">
        <ele>1525.2</ele>
        <time>2021-06-01T11:26:03Z</time>
      </trkpt>
      <trkpt lat="45.69515" lon="6.63497">
        <ele>1525.6</ele>
        <time>2021-06-01T11:26:04Z</time>
      </trkpt>
      <trkpt lat="45.69516" lon="6.63503">
        <ele>1525.6</ele>
        <time>2021-06-01T11:26:05Z</time>
      </trkpt>
      <trkpt lat="45.69519" lon="6.63509">
        <ele>1525.8</ele>
        <time>2021-06-01T11:26:06Z</time>
      </trkpt>
      <trkpt lat="45.69521" lon="6.63515">
        <ele>1526</ele>
        <time>2021-06-01T11:26:07Z</time>
      </trkpt>
      <trkpt lat="45.69526" lon="6.63522">
        <ele>1526.8</ele>
        <time>2021-06-01T11:26:08Z</time>
      </trkpt>
      <trkpt lat="45.6953" lon="6.63528">
        <ele>1527.2</ele>
        <time>2021-06-01T11:26:09Z</time>
      </trkpt>
      <trkpt lat="45.69534" lon="6.63536">
        <ele>1527.8</ele>
        <time>2021-06-01T11:26:10Z</time>
      </trkpt>
      <trkpt lat="45.69539" lon="6.63544">
        <ele>1528.4</ele>
        <time>2021-06-01T11:26:11Z</time>
      </trkpt>
      <trkpt lat="45.69542" lon="6.63552">
        <ele>1528.6</ele>
        <time>2021-06-01T11:26:12Z</time>
      </trkpt>
      <trkpt lat="45.69547" lon="6.63561">
        <ele>1529</ele>
        <time>2021-06-01T11:26:13Z</time>
      </trkpt>
      <trkpt lat="45.69552" lon="6.6357">
        <ele>1530</ele>
        <time>2021-06-01T11:26:14Z</time>
      </trkpt>
      <trkpt lat="45.69558" lon="6.63579">
        <ele>1530.8</ele>
        <time>2021-06-01T11:26:15Z</time>
      </trkpt>
      <trkpt lat="45.69564" lon="6.63588">
        <ele>1532.4</ele>
        <time>2021-06-01T11:26:16Z</time>
      </trkpt>
      <trkpt lat="45.69569" lon="6.63597">
        <ele>1534</ele>
        <time>2021-06-01T11:26:17Z</time>
      </trkpt>
      <trkpt lat="45.69575" lon="6.63605">
        <ele>1535.6</ele>
        <time>2021-06-01T11:26:18Z</time>
      </trkpt>
      <trkpt lat="45.69582" lon="6.63613">
        <ele>1537.2</ele>
        <time>2021-06-01T11:26:19Z</time>
      </trkpt>
      <trkpt lat="45.69588" lon="6.6362">
        <ele>1538.2</ele>
        <time>2021-06-01T11:26:20Z</time>
      </trkpt>
      <trkpt lat="45.69594" lon="6.63627">
        <ele>1539.2</ele>
        <time>2021-06-01T11:26:21Z</time>
      </trkpt>
      <trkpt lat="45.69601" lon="6.63633">
        <ele>1540.6</ele>
        <time>2021-06-01T11:26:22Z</time>
      </trkpt>
      <trkpt lat="45.69607" lon="6.63639">
        <ele>1541.4</ele>
        <time>2021-06-01T11:26:23Z</time>
      </trkpt>
      <trkpt lat="45.69614" lon="6.63644">
        <ele>1542</ele>
        <time>2021-06-01T11:26:24Z</time>
      </trkpt>
      <trkpt lat="45.6962" lon="6.6365">
        <ele>1542.6</ele>
        <time>2021-06-01T11:26:25Z</time>
      </trkpt>
      <trkpt lat="45.69626" lon="6.63656">
        <ele>1543.4</ele>
        <time>2021-06-01T11:26:26Z</time>
      </trkpt>
      <trkpt lat="45.69631" lon="6.63662">
        <ele>1544</ele>
        <time>2021-06-01T11:26:27Z</time>
      </trkpt>
      <trkpt lat="45.69636" lon="6.63668">
        <ele>1544.8</ele>
        <time>2021-06-01T11:26:28Z</time>
      </trkpt>
      <trkpt lat="45.69641" lon="6.63673">
        <ele>1545.6</ele>
        <time>2021-06-01T11:26:29Z</time>
      </trkpt>
      <trkpt lat="45.69645" lon="6.63679">
        <ele>1546.2</ele>
        <time>2021-06-01T11:26:30Z</time>
      </trkpt>
      <trkpt lat="45.69649" lon="6.63685">
        <ele>1547</ele>
        <time>2021-06-01T11:26:31Z</time>
      </trkpt>
      <trkpt lat="45.69653" lon="6.63691">
        <ele>1547.6</ele>
        <time>2021-06-01T11:26:32Z</time>
      </trkpt>
      <trkpt lat="45.69656" lon="6.63697">
        <ele>1548.2</ele>
        <time>2021-06-01T11:26:33Z</time>
      </trkpt>
      <trkpt lat="45.69659" lon="6.63703">
        <ele>1548.6</ele>
        <time>2021-06-01T11:26:34Z</time>
      </trkpt>
      <trkpt lat="45.69661" lon="6.6371">
        <ele>1549.2</ele>
        <time>2021-06-01T11:26:35Z</time>
      </trkpt>
      <trkpt lat="45.69664" lon="6.63718">
        <ele>1549.6</ele>
        <time>2021-06-01T11:26:36Z</time>
      </trkpt>
      <trkpt lat="45.69668" lon="6.63726">
        <ele>1549</ele>
        <time>2021-06-01T11:26:37Z</time>
      </trkpt>
      <trkpt lat="45.6967" lon="6.63734">
        <ele>1549.2</ele>
        <time>2021-06-01T11:26:38Z</time>
      </trkpt>
      <trkpt lat="45.69674" lon="6.63741">
        <ele>1549.2</ele>
        <time>2021-06-01T11:26:39Z</time>
      </trkpt>
      <trkpt lat="45.69677" lon="6.63747">
        <ele>1549.4</ele>
        <time>2021-06-01T11:26:40Z</time>
      </trkpt>
      <trkpt lat="45.69681" lon="6.63754">
        <ele>1549.6</ele>
        <time>2021-06-01T11:26:41Z</time>
      </trkpt>
      <trkpt lat="45.69684" lon="6.6376">
        <ele>1550</ele>
        <time>2021-06-01T11:26:42Z</time>
      </trkpt>
      <trkpt lat="45.69688" lon="6.63765">
        <ele>1550.4</ele>
        <time>2021-06-01T11:26:43Z</time>
      </trkpt>
      <trkpt lat="45.69692" lon="6.63771">
        <ele>1551</ele>
        <time>2021-06-01T11:26:44Z</time>
      </trkpt>
      <trkpt lat="45.69697" lon="6.63776">
        <ele>1551.2</ele>
        <time>2021-06-01T11:26:45Z</time>
      </trkpt>
      <trkpt lat="45.69701" lon="6.63781">
        <ele>1551.2</ele>
        <time>2021-06-01T11:26:46Z</time>
      </trkpt>
      <trkpt lat="45.69706" lon="6.63786">
        <ele>1551.4</ele>
        <time>2021-06-01T11:26:47Z</time>
      </trkpt>
      <trkpt lat="45.69711" lon="6.63791">
        <ele>1551.8</ele>
        <time>2021-06-01T11:26:48Z</time>
      </trkpt>
      <trkpt lat="45.69716" lon="6.63795">
        <ele>1552</ele>
        <time>2021-06-01T11:26:49Z</time>
      </trkpt>
      <trkpt lat="45.69721" lon="6.63799">
        <ele>1552.2</ele>
        <time>2021-06-01T11:26:50Z</time>
      </trkpt>
      <trkpt lat="45.69726" lon="6.63803">
        <ele>1552.6</ele>
        <time>2021-06-01T11:26:51Z</time>
      </trkpt>
      <trkpt lat="45.69732" lon="6.63806">
        <ele>1552.8</ele>
        <time>2021-06-01T11:26:52Z</time>
      </trkpt>
      <trkpt lat="45.69737" lon="6.63809">
        <ele>1553.2</ele>
        <time>2021-06-01T11:26:53Z</time>
      </trkpt>
      <trkpt lat="45.69742" lon="6.63813">
        <ele>1553.6</ele>
        <time>2021-06-01T11:26:54Z</time>
      </trkpt>
      <trkpt lat="45.69748" lon="6.63816">
        <ele>1554</ele>
        <time>2021-06-01T11:26:55Z</time>
      </trkpt>
      <trkpt lat="45.69753" lon="6.63819">
        <ele>1554.4</ele>
        <time>2021-06-01T11:26:56Z</time>
      </trkpt>
      <trkpt lat="45.69758" lon="6.63822">
        <ele>1554.6</ele>
        <time>2021-06-01T11:26:57Z</time>
      </trkpt>
      <trkpt lat="45.69764" lon="6.63826">
        <ele>1555</ele>
        <time>2021-06-01T11:26:58Z</time>
      </trkpt>
      <trkpt lat="45.69769" lon="6.6383">
        <ele>1555.4</ele>
        <time>2021-06-01T11:26:59Z</time>
      </trkpt>
      <trkpt lat="45.69775" lon="6.63833">
        <ele>1555.8</ele>
        <time>2021-06-01T11:27:00Z</time>
      </trkpt>
      <trkpt lat="45.6978" lon="6.63836">
        <ele>1556</ele>
        <time>2021-06-01T11:27:01Z</time>
      </trkpt>
      <trkpt lat="45.69786" lon="6.6384">
        <ele>1556.2</ele>
        <time>2021-06-01T11:27:02Z</time>
      </trkpt>
      <trkpt lat="45.69791" lon="6.63843">
        <ele>1556.4</ele>
        <time>2021-06-01T11:27:03Z</time>
      </trkpt>
      <trkpt lat="45.69796" lon="6.63847">
        <ele>1556.8</ele>
        <time>2021-06-01T11:27:04Z</time>
      </trkpt>
      <trkpt lat="45.69801" lon="6.63852">
        <ele>1557.2</ele>
        <time>2021-06-01T11:27:05Z</time>
      </trkpt>
      <trkpt lat="45.69805" lon="6.63856">
        <ele>1557.4</ele>
        <time>2021-06-01T11:27:06Z</time>
      </trkpt>
      <trkpt lat="45.69809" lon="6.63862">
        <ele>1558</ele>
        <time>2021-06-01T11:27:07Z</time>
      </trkpt>
      <trkpt lat="45.69813" lon="6.63867">
        <ele>1558.4</ele>
        <time>2021-06-01T11:27:08Z</time>
      </trkpt>
      <trkpt lat="45.69817" lon="6.63872">
        <ele>1558.6</ele>
        <time>2021-06-01T11:27:09Z</time>
      </trkpt>
      <trkpt lat="45.6982" lon="6.63877">
        <ele>1558.8</ele>
        <time>2021-06-01T11:27:10Z</time>
      </trkpt>
      <trkpt lat="45.69824" lon="6.63882">
        <ele>1559</ele>
        <time>2021-06-01T11:27:11Z</time>
      </trkpt>
      <trkpt lat="45.69828" lon="6.63887">
        <ele>1559.2</ele>
        <time>2021-06-01T11:27:12Z</time>
      </trkpt>
      <trkpt lat="45.69832" lon="6.63893">
        <ele>1559.4</ele>
        <time>2021-06-01T11:27:13Z</time>
      </trkpt>
      <trkpt lat="45.69836" lon="6.63898">
        <ele>1559.4</ele>
        <time>2021-06-01T11:27:14Z</time>
      </trkpt>
      <trkpt lat="45.69839" lon="6.63902">
        <ele>1559.8</ele>
        <time>2021-06-01T11:27:15Z</time>
      </trkpt>
      <trkpt lat="45.69844" lon="6.63908">
        <ele>1560</ele>
        <time>2021-06-01T11:27:16Z</time>
      </trkpt>
      <trkpt lat="45.69848" lon="6.63913">
        <ele>1560</ele>
        <time>2021-06-01T11:27:17Z</time>
      </trkpt>
      <trkpt lat="45.69852" lon="6.63918">
        <ele>1560.2</ele>
        <time>2021-06-01T11:27:18Z</time>
      </trkpt>
      <trkpt lat="45.69856" lon="6.63924">
        <ele>1560.4</ele>
        <time>2021-06-01T11:27:19Z</time>
      </trkpt>
      <trkpt lat="45.69861" lon="6.63929">
        <ele>1560.4</ele>
        <time>2021-06-01T11:27:20Z</time>
      </trkpt>
      <trkpt lat="45.69865" lon="6.63934">
        <ele>1560.8</ele>
        <time>2021-06-01T11:27:21Z</time>
      </trkpt>
      <trkpt lat="45.69869" lon="6.63939">
        <ele>1561</ele>
        <time>2021-06-01T11:27:22Z</time>
      </trkpt>
      <trkpt lat="45.69873" lon="6.63944">
        <ele>1561.6</ele>
        <time>2021-06-01T11:27:23Z</time>
      </trkpt>
      <trkpt lat="45.69877" lon="6.63949">
        <ele>1561.8</ele>
        <time>2021-06-01T11:27:24Z</time>
      </trkpt>
      <trkpt lat="45.69881" lon="6.63954">
        <ele>1561.6</ele>
        <time>2021-06-01T11:27:25Z</time>
      </trkpt>
      <trkpt lat="45.69885" lon="6.63959">
        <ele>1562.2</ele>
        <time>2021-06-01T11:27:26Z</time>
      </trkpt>
      <trkpt lat="45.6989" lon="6.63964">
        <ele>1562.4</ele>
        <time>2021-06-01T11:27:27Z</time>
      </trkpt>
      <trkpt lat="45.69893" lon="6.63969">
        <ele>1562.2</ele>
        <time>2021-06-01T11:27:28Z</time>
      </trkpt>
      <trkpt lat="45.69897" lon="6.63975">
        <ele>1562</ele>
        <time>2021-06-01T11:27:29Z</time>
      </trkpt>
      <trkpt lat="45.69901" lon="6.6398">
        <ele>1561.8</ele>
        <time>2021-06-01T11:27:30Z</time>
      </trkpt>
      <trkpt lat="45.69906" lon="6.63986">
        <ele>1561.4</ele>
        <time>2021-06-01T11:27:31Z</time>
      </trkpt>
      <trkpt lat="45.69909" lon="6.63992">
        <ele>1561.2</ele>
        <time>2021-06-01T11:27:32Z</time>
      </trkpt>
      <trkpt lat="45.69914" lon="6.63998">
        <ele>1560.6</ele>
        <time>2021-06-01T11:27:33Z</time>
      </trkpt>
      <trkpt lat="45.69918" lon="6.64003">
        <ele>1559.8</ele>
        <time>2021-06-01T11:27:34Z</time>
      </trkpt>
      <trkpt lat="45.69922" lon="6.64008">
        <ele>1559.4</ele>
        <time>2021-06-01T11:27:35Z</time>
      </trkpt>
      <trkpt lat="45.69926" lon="6.64014">
        <ele>1559.6</ele>
        <time>2021-06-01T11:27:36Z</time>
      </trkpt>
      <trkpt lat="45.6993" lon="6.64019">
        <ele>1559.2</ele>
        <time>2021-06-01T11:27:37Z</time>
      </trkpt>
      <trkpt lat="45.69933" lon="6.64025">
        <ele>1559.2</ele>
        <time>2021-06-01T11:27:38Z</time>
      </trkpt>
      <trkpt lat="45.69937" lon="6.64031">
        <ele>1559.4</ele>
        <time>2021-06-01T11:27:39Z</time>
      </trkpt>
      <trkpt lat="45.6994" lon="6.64036">
        <ele>1559.6</ele>
        <time>2021-06-01T11:27:40Z</time>
      </trkpt>
      <trkpt lat="45.69944" lon="6.64043">
        <ele>1560.2</ele>
        <time>2021-06-01T11:27:41Z</time>
      </trkpt>
      <trkpt lat="45.69947" lon="6.64049">
        <ele>1560.6</ele>
        <time>2021-06-01T11:27:42Z</time>
      </trkpt>
      <trkpt lat="45.6995" lon="6.64056">
        <ele>1561.2</ele>
        <time>2021-06-01T11:27:43Z</time>
      </trkpt>
      <trkpt lat="45.69954" lon="6.64062">
        <ele>1561.8</ele>
        <time>2021-06-01T11:27:44Z</time>
      </trkpt>
      <trkpt lat="45.69958" lon="6.64069">
        <ele>1562.4</ele>
        <time>2021-06-01T11:27:45Z</time>
      </trkpt>
      <trkpt lat="45.69962" lon="6.64076">
        <ele>1562.8</ele>
        <time>2021-06-01T11:27:46Z</time>
      </trkpt>
      <trkpt lat="45.69965" lon="6.64082">
        <ele>1562.8</ele>
        <time>2021-06-01T11:27:47Z</time>
      </trkpt>
      <trkpt lat="45.6997" lon="6.64089">
        <ele>1563</ele>
        <time>2021-06-01T11:27:48Z</time>
      </trkpt>
      <trkpt lat="45.69973" lon="6.64096">
        <ele>1563.2</ele>
        <time>2021-06-01T11:27:49Z</time>
      </trkpt>
      <trkpt lat="45.69977" lon="6.64103">
        <ele>1563.4</ele>
        <time>2021-06-01T11:27:50Z</time>
      </trkpt>
      <trkpt lat="45.6998" lon="6.6411">
        <ele>1563.8</ele>
        <time>2021-06-01T11:27:51Z</time>
      </trkpt>
      <trkpt lat="45.69983" lon="6.64117">
        <ele>1563.6</ele>
        <time>2021-06-01T11:27:52Z</time>
      </trkpt>
      <trkpt lat="45.69986" lon="6.64125">
        <ele>1564</ele>
        <time>2021-06-01T11:27:53Z</time>
      </trkpt>
      <trkpt lat="45.69989" lon="6.64132">
        <ele>1564.4</ele>
        <time>2021-06-01T11:27:54Z</time>
      </trkpt>
      <trkpt lat="45.69992" lon="6.6414">
        <ele>1564.8</ele>
        <time>2021-06-01T11:27:55Z</time>
      </trkpt>
      <trkpt lat="45.69995" lon="6.64147">
        <ele>1565</ele>
        <time>2021-06-01T11:27:56Z</time>
      </trkpt>
      <trkpt lat="45.69998" lon="6.64154">
        <ele>1565.4</ele>
        <time>2021-06-01T11:27:57Z</time>
      </trkpt>
      <trkpt lat="45.7" lon="6.64161">
        <ele>1565.8</ele>
        <time>2021-06-01T11:27:58Z</time>
      </trkpt>
      <trkpt lat="45.70003" lon="6.64167">
        <ele>1566</ele>
        <time>2021-06-01T11:27:59Z</time>
      </trkpt>
      <trkpt lat="45.70005" lon="6.64174">
        <ele>1566.4</ele>
        <time>2021-06-01T11:28:00Z</time>
      </trkpt>
      <trkpt lat="45.70008" lon="6.64181">
        <ele>1566.6</ele>
        <time>2021-06-01T11:28:01Z</time>
      </trkpt>
      <trkpt lat="45.7001" lon="6.64187">
        <ele>1566.6</ele>
        <time>2021-06-01T11:28:02Z</time>
      </trkpt>
      <trkpt lat="45.70013" lon="6.64194">
        <ele>1566.8</ele>
        <time>2021-06-01T11:28:03Z</time>
      </trkpt>
      <trkpt lat="45.70016" lon="6.64201">
        <ele>1566.8</ele>
        <time>2021-06-01T11:28:04Z</time>
      </trkpt>
      <trkpt lat="45.70019" lon="6.64208">
        <ele>1566.4</ele>
        <time>2021-06-01T11:28:05Z</time>
      </trkpt>
      <trkpt lat="45.70022" lon="6.64215">
        <ele>1566.2</ele>
        <time>2021-06-01T11:28:06Z</time>
      </trkpt>
      <trkpt lat="45.70024" lon="6.64221">
        <ele>1566.2</ele>
        <time>2021-06-01T11:28:07Z</time>
      </trkpt>
      <trkpt lat="45.70027" lon="6.64229">
        <ele>1565.4</ele>
        <time>2021-06-01T11:28:08Z</time>
      </trkpt>
      <trkpt lat="45.7003" lon="6.64236">
        <ele>1565</ele>
        <time>2021-06-01T11:28:09Z</time>
      </trkpt>
      <trkpt lat="45.70032" lon="6.64244">
        <ele>1564.6</ele>
        <time>2021-06-01T11:28:10Z</time>
      </trkpt>
      <trkpt lat="45.70034" lon="6.64252">
        <ele>1564.2</ele>
        <time>2021-06-01T11:28:11Z</time>
      </trkpt>
      <trkpt lat="45.70036" lon="6.6426">
        <ele>1563.2</ele>
        <time>2021-06-01T11:28:12Z</time>
      </trkpt>
      <trkpt lat="45.70037" lon="6.64268">
        <ele>1563</ele>
        <time>2021-06-01T11:28:13Z</time>
      </trkpt>
      <trkpt lat="45.70039" lon="6.64277">
        <ele>1562.6</ele>
        <time>2021-06-01T11:28:14Z</time>
      </trkpt>
      <trkpt lat="45.7004" lon="6.64285">
        <ele>1562.4</ele>
        <time>2021-06-01T11:28:15Z</time>
      </trkpt>
      <trkpt lat="45.70041" lon="6.64294">
        <ele>1562.4</ele>
        <time>2021-06-01T11:28:16Z</time>
      </trkpt>
      <trkpt lat="45.70042" lon="6.64302">
        <ele>1562</ele>
        <time>2021-06-01T11:28:17Z</time>
      </trkpt>
      <trkpt lat="45.70043" lon="6.64311">
        <ele>1561.8</ele>
        <time>2021-06-01T11:28:18Z</time>
      </trkpt>
      <trkpt lat="45.70045" lon="6.64319">
        <ele>1562</ele>
        <time>2021-06-01T11:28:19Z</time>
      </trkpt>
      <trkpt lat="45.70047" lon="6.64327">
        <ele>1561.8</ele>
        <time>2021-06-01T11:28:20Z</time>
      </trkpt>
      <trkpt lat="45.70049" lon="6.64335">
        <ele>1562</ele>
        <time>2021-06-01T11:28:21Z</time>
      </trkpt>
      <trkpt lat="45.70052" lon="6.64342">
        <ele>1562.4</ele>
        <time>2021-06-01T11:28:22Z</time>
      </trkpt>
      <trkpt lat="45.70055" lon="6.64349">
        <ele>1562.8</ele>
        <time>2021-06-01T11:28:23Z</time>
      </trkpt>
      <trkpt lat="45.70058" lon="6.64355">
        <ele>1563.2</ele>
        <time>2021-06-01T11:28:24Z</time>
      </trkpt>
      <trkpt lat="45.70061" lon="6.64361">
        <ele>1563.8</ele>
        <time>2021-06-01T11:28:25Z</time>
      </trkpt>
      <trkpt lat="45.70064" lon="6.64368">
        <ele>1563.8</ele>
        <time>2021-06-01T11:28:26Z</time>
      </trkpt>
      <trkpt lat="45.70069" lon="6.64382">
        <ele>1564.2</ele>
        <time>2021-06-01T11:28:28Z</time>
      </trkpt>
      <trkpt lat="45.70072" lon="6.6439">
        <ele>1564.6</ele>
        <time>2021-06-01T11:28:29Z</time>
      </trkpt>
      <trkpt lat="45.70075" lon="6.64398">
        <ele>1564.6</ele>
        <time>2021-06-01T11:28:30Z</time>
      </trkpt>
      <trkpt lat="45.70076" lon="6.64408">
        <ele>1564.6</ele>
        <time>2021-06-01T11:28:31Z</time>
      </trkpt>
      <trkpt lat="45.70077" lon="6.64417">
        <ele>1564.6</ele>
        <time>2021-06-01T11:28:32Z</time>
      </trkpt>
      <trkpt lat="45.70077" lon="6.64426">
        <ele>1564.8</ele>
        <time>2021-06-01T11:28:33Z</time>
      </trkpt>
      <trkpt lat="45.70077" lon="6.64436">
        <ele>1565</ele>
        <time>2021-06-01T11:28:34Z</time>
      </trkpt>
      <trkpt lat="45.70076" lon="6.64445">
        <ele>1565</ele>
        <time>2021-06-01T11:28:35Z</time>
      </trkpt>
      <trkpt lat="45.70075" lon="6.64454">
        <ele>1565</ele>
        <time>2021-06-01T11:28:36Z</time>
      </trkpt>
      <trkpt lat="45.70073" lon="6.64462">
        <ele>1565.2</ele>
        <time>2021-06-01T11:28:37Z</time>
      </trkpt>
      <trkpt lat="45.70071" lon="6.64468">
        <ele>1565.2</ele>
        <time>2021-06-01T11:28:38Z</time>
      </trkpt>
      <trkpt lat="45.70069" lon="6.64475">
        <ele>1565.4</ele>
        <time>2021-06-01T11:28:39Z</time>
      </trkpt>
      <trkpt lat="45.70067" lon="6.64479">
        <ele>1565.4</ele>
        <time>2021-06-01T11:28:40Z</time>
      </trkpt>
      <trkpt lat="45.70064" lon="6.64484">
        <ele>1565.2</ele>
        <time>2021-06-01T11:28:41Z</time>
      </trkpt>
      <trkpt lat="45.70061" lon="6.64488">
        <ele>1565</ele>
        <time>2021-06-01T11:28:42Z</time>
      </trkpt>
      <trkpt lat="45.7006" lon="6.64491">
        <ele>1564.6</ele>
        <time>2021-06-01T11:28:43Z</time>
      </trkpt>
      <trkpt lat="45.70058" lon="6.64495">
        <ele>1564.4</ele>
        <time>2021-06-01T11:28:44Z</time>
      </trkpt>
      <trkpt lat="45.70057" lon="6.64497">
        <ele>1564.2</ele>
        <time>2021-06-01T11:28:45Z</time>
      </trkpt>
      <trkpt lat="45.70055" lon="6.645">
        <ele>1564.2</ele>
        <time>2021-06-01T11:28:46Z</time>
      </trkpt>
      <trkpt lat="45.70054" lon="6.64502">
        <ele>1564.2</ele>
        <time>2021-06-01T11:28:47Z</time>
      </trkpt>
      <trkpt lat="45.70052" lon="6.64504">
        <ele>1563.8</ele>
        <time>2021-06-01T11:28:48Z</time>
      </trkpt>
      <trkpt lat="45.70051" lon="6.64508">
        <ele>1563.2</ele>
        <time>2021-06-01T11:28:50Z</time>
      </trkpt>
      <trkpt lat="45.70052" lon="6.64511">
        <ele>1561.4</ele>
        <time>2021-06-01T11:28:55Z</time>
      </trkpt>
      <trkpt lat="45.70047" lon="6.64506">
        <ele>1561.4</ele>
        <time>2021-06-01T11:43:00Z</time>
      </trkpt>
      <trkpt lat="45.70045" lon="6.64506">
        <ele>1561.4</ele>
        <time>2021-06-01T11:43:01Z</time>
      </trkpt>
      <trkpt lat="45.70043" lon="6.64507">
        <ele>1540.6</ele>
        <time>2021-06-01T11:43:02Z</time>
      </trkpt>
      <trkpt lat="45.70041" lon="6.64507">
        <ele>1540.6</ele>
        <time>2021-06-01T11:43:03Z</time>
      </trkpt>
      <trkpt lat="45.70039" lon="6.64508">
        <ele>1540.8</ele>
        <time>2021-06-01T11:43:04Z</time>
      </trkpt>
      <trkpt lat="45.70036" lon="6.64509">
        <ele>1541</ele>
        <time>2021-06-01T11:43:05Z</time>
      </trkpt>
      <trkpt lat="45.70034" lon="6.64509">
        <ele>1541</ele>
        <time>2021-06-01T11:43:06Z</time>
      </trkpt>
      <trkpt lat="45.70031" lon="6.6451">
        <ele>1541.2</ele>
        <time>2021-06-01T11:43:07Z</time>
      </trkpt>
      <trkpt lat="45.70028" lon="6.64511">
        <ele>1541.4</ele>
        <time>2021-06-01T11:43:08Z</time>
      </trkpt>
      <trkpt lat="45.70026" lon="6.64513">
        <ele>1541.6</ele>
        <time>2021-06-01T11:43:09Z</time>
      </trkpt>
      <trkpt lat="45.70024" lon="6.64515">
        <ele>1541.6</ele>
        <time>2021-06-01T11:43:10Z</time>
      </trkpt>
      <trkpt lat="45.70021" lon="6.64516">
        <ele>1541.8</ele>
        <time>2021-06-01T11:43:11Z</time>
      </trkpt>
      <trkpt lat="45.70019" lon="6.64518">
        <ele>1541.8</ele>
        <time>2021-06-01T11:43:12Z</time>
      </trkpt>
      <trkpt lat="45.70017" lon="6.64519">
        <ele>1542</ele>
        <time>2021-06-01T11:43:13Z</time>
      </trkpt>
      <trkpt lat="45.70015" lon="6.64521">
        <ele>1542</ele>
        <time>2021-06-01T11:43:14Z</time>
      </trkpt>
      <trkpt lat="45.70012" lon="6.64522">
        <ele>1542</ele>
        <time>2021-06-01T11:43:15Z</time>
      </trkpt>
      <trkpt lat="45.7001" lon="6.64524">
        <ele>1542.4</ele>
        <time>2021-06-01T11:43:16Z</time>
      </trkpt>
      <trkpt lat="45.70008" lon="6.64526">
        <ele>1542.6</ele>
        <time>2021-06-01T11:43:17Z</time>
      </trkpt>
      <trkpt lat="45.70005" lon="6.64528">
        <ele>1542.8</ele>
        <time>2021-06-01T11:43:18Z</time>
      </trkpt>
      <trkpt lat="45.70003" lon="6.6453">
        <ele>1543</ele>
        <time>2021-06-01T11:43:19Z</time>
      </trkpt>
      <trkpt lat="45.7" lon="6.64532">
        <ele>1543.2</ele>
        <time>2021-06-01T11:43:20Z</time>
      </trkpt>
      <trkpt lat="45.69997" lon="6.64534">
        <ele>1543.4</ele>
        <time>2021-06-01T11:43:21Z</time>
      </trkpt>
      <trkpt lat="45.69995" lon="6.64536">
        <ele>1543.6</ele>
        <time>2021-06-01T11:43:22Z</time>
      </trkpt>
      <trkpt lat="45.69992" lon="6.64539">
        <ele>1543.8</ele>
        <time>2021-06-01T11:43:23Z</time>
      </trkpt>
      <trkpt lat="45.69988" lon="6.64543">
        <ele>1544</ele>
        <time>2021-06-01T11:43:24Z</time>
      </trkpt>
      <trkpt lat="45.69985" lon="6.64547">
        <ele>1544.2</ele>
        <time>2021-06-01T11:43:25Z</time>
      </trkpt>
      <trkpt lat="45.69982" lon="6.64552">
        <ele>1544.4</ele>
        <time>2021-06-01T11:43:26Z</time>
      </trkpt>
      <trkpt lat="45.6998" lon="6.64559">
        <ele>1544.4</ele>
        <time>2021-06-01T11:43:27Z</time>
      </trkpt>
      <trkpt lat="45.69978" lon="6.64566">
        <ele>1544.4</ele>
        <time>2021-06-01T11:43:28Z</time>
      </trkpt>
      <trkpt lat="45.69976" lon="6.64573">
        <ele>1544.4</ele>
        <time>2021-06-01T11:43:29Z</time>
      </trkpt>
      <trkpt lat="45.69976" lon="6.64581">
        <ele>1544.4</ele>
        <time>2021-06-01T11:43:30Z</time>
      </trkpt>
      <trkpt lat="45.69976" lon="6.64588">
        <ele>1544.4</ele>
        <time>2021-06-01T11:43:31Z</time>
      </trkpt>
      <trkpt lat="45.69976" lon="6.64597">
        <ele>1544.2</ele>
        <time>2021-06-01T11:43:32Z</time>
      </trkpt>
      <trkpt lat="45.69978" lon="6.64604">
        <ele>1543.8</ele>
        <time>2021-06-01T11:43:33Z</time>
      </trkpt>
      <trkpt lat="45.6998" lon="6.64612">
        <ele>1543.6</ele>
        <time>2021-06-01T11:43:34Z</time>
      </trkpt>
      <trkpt lat="45.69983" lon="6.6462">
        <ele>1543.8</ele>
        <time>2021-06-01T11:43:35Z</time>
      </trkpt>
      <trkpt lat="45.69986" lon="6.64628">
        <ele>1543.6</ele>
        <time>2021-06-01T11:43:36Z</time>
      </trkpt>
      <trkpt lat="45.69989" lon="6.64635">
        <ele>1543.6</ele>
        <time>2021-06-01T11:43:37Z</time>
      </trkpt>
      <trkpt lat="45.69992" lon="6.64643">
        <ele>1543.6</ele>
        <time>2021-06-01T11:43:38Z</time>
      </trkpt>
      <trkpt lat="45.69996" lon="6.64651">
        <ele>1543.6</ele>
        <time>2021-06-01T11:43:39Z</time>
      </trkpt>
      <trkpt lat="45.69999" lon="6.6466">
        <ele>1543.4</ele>
        <time>2021-06-01T11:43:40Z</time>
      </trkpt>
      <trkpt lat="45.70003" lon="6.64668">
        <ele>1543.6</ele>
        <time>2021-06-01T11:43:41Z</time>
      </trkpt>
      <trkpt lat="45.70006" lon="6.64676">
        <ele>1543.6</ele>
        <time>2021-06-01T11:43:42Z</time>
      </trkpt>
      <trkpt lat="45.70009" lon="6.64684">
        <ele>1543.2</ele>
        <time>2021-06-01T11:43:43Z</time>
      </trkpt>
      <trkpt lat="45.70013" lon="6.64693">
        <ele>1543.2</ele>
        <time>2021-06-01T11:43:44Z</time>
      </trkpt>
      <trkpt lat="45.70016" lon="6.64702">
        <ele>1542.8</ele>
        <time>2021-06-01T11:43:45Z</time>
      </trkpt>
      <trkpt lat="45.7002" lon="6.64711">
        <ele>1542.6</ele>
        <time>2021-06-01T11:43:46Z</time>
      </trkpt>
      <trkpt lat="45.70024" lon="6.64719">
        <ele>1542.2</ele>
        <time>2021-06-01T11:43:47Z</time>
      </trkpt>
      <trkpt lat="45.70027" lon="6.64729">
        <ele>1542.2</ele>
        <time>2021-06-01T11:43:48Z</time>
      </trkpt>
      <trkpt lat="45.70031" lon="6.64738">
        <ele>1542.2</ele>
        <time>2021-06-01T11:43:49Z</time>
      </trkpt>
      <trkpt lat="45.70035" lon="6.64748">
        <ele>1542.2</ele>
        <time>2021-06-01T11:43:50Z</time>
      </trkpt>
      <trkpt lat="45.70039" lon="6.64757">
        <ele>1542.2</ele>
        <time>2021-06-01T11:43:51Z</time>
      </trkpt>
      <trkpt lat="45.70043" lon="6.64766">
        <ele>1542.4</ele>
        <time>2021-06-01T11:43:52Z</time>
      </trkpt>
      <trkpt lat="45.70049" lon="6.64775">
        <ele>1542.4</ele>
        <time>2021-06-01T11:43:53Z</time>
      </trkpt>
      <trkpt lat="45.70055" lon="6.64783">
        <ele>1542.8</ele>
        <time>2021-06-01T11:43:54Z</time>
      </trkpt>
      <trkpt lat="45.70061" lon="6.64792">
        <ele>1542.6</ele>
        <time>2021-06-01T11:43:55Z</time>
      </trkpt>
      <trkpt lat="45.70068" lon="6.648">
        <ele>1542.8</ele>
        <time>2021-06-01T11:43:56Z</time>
      </trkpt>
      <trkpt lat="45.70074" lon="6.64809">
        <ele>1542.8</ele>
        <time>2021-06-01T11:43:57Z</time>
      </trkpt>
      <trkpt lat="45.7008" lon="6.64818">
        <ele>1542.6</ele>
        <time>2021-06-01T11:43:58Z</time>
      </trkpt>
      <trkpt lat="45.70087" lon="6.64827">
        <ele>1542.8</ele>
        <time>2021-06-01T11:43:59Z</time>
      </trkpt>
      <trkpt lat="45.70093" lon="6.64837">
        <ele>1542.6</ele>
        <time>2021-06-01T11:44:00Z</time>
      </trkpt>
      <trkpt lat="45.70098" lon="6.64848">
        <ele>1542.8</ele>
        <time>2021-06-01T11:44:01Z</time>
      </trkpt>
      <trkpt lat="45.70102" lon="6.6486">
        <ele>1542.6</ele>
        <time>2021-06-01T11:44:02Z</time>
      </trkpt>
      <trkpt lat="45.70105" lon="6.64873">
        <ele>1542.4</ele>
        <time>2021-06-01T11:44:03Z</time>
      </trkpt>
      <trkpt lat="45.70107" lon="6.64886">
        <ele>1542.2</ele>
        <time>2021-06-01T11:44:04Z</time>
      </trkpt>
      <trkpt lat="45.70107" lon="6.64899">
        <ele>1542.2</ele>
        <time>2021-06-01T11:44:05Z</time>
      </trkpt>
      <trkpt lat="45.70107" lon="6.64912">
        <ele>1542.2</ele>
        <time>2021-06-01T11:44:06Z</time>
      </trkpt>
      <trkpt lat="45.70105" lon="6.64925">
        <ele>1542.2</ele>
        <time>2021-06-01T11:44:07Z</time>
      </trkpt>
      <trkpt lat="45.70101" lon="6.64938">
        <ele>1542.2</ele>
        <time>2021-06-01T11:44:08Z</time>
      </trkpt>
      <trkpt lat="45.70097" lon="6.64951">
        <ele>1542.2</ele>
        <time>2021-06-01T11:44:09Z</time>
      </trkpt>
      <trkpt lat="45.70092" lon="6.64963">
        <ele>1542.4</ele>
        <time>2021-06-01T11:44:10Z</time>
      </trkpt>
      <trkpt lat="45.70085" lon="6.64973">
        <ele>1542.4</ele>
        <time>2021-06-01T11:44:11Z</time>
      </trkpt>
      <trkpt lat="45.70078" lon="6.64982">
        <ele>1542.4</ele>
        <time>2021-06-01T11:44:12Z</time>
      </trkpt>
      <trkpt lat="45.70069" lon="6.64989">
        <ele>1542.6</ele>
        <time>2021-06-01T11:44:13Z</time>
      </trkpt>
      <trkpt lat="45.70061" lon="6.64995">
        <ele>1542.8</ele>
        <time>2021-06-01T11:44:14Z</time>
      </trkpt>
      <trkpt lat="45.70052" lon="6.65001">
        <ele>1542.8</ele>
        <time>2021-06-01T11:44:15Z</time>
      </trkpt>
      <trkpt lat="45.70045" lon="6.65007">
        <ele>1542.8</ele>
        <time>2021-06-01T11:44:16Z</time>
      </trkpt>
      <trkpt lat="45.70037" lon="6.65015">
        <ele>1542.8</ele>
        <time>2021-06-01T11:44:17Z</time>
      </trkpt>
      <trkpt lat="45.70031" lon="6.65025">
        <ele>1543.2</ele>
        <time>2021-06-01T11:44:18Z</time>
      </trkpt>
      <trkpt lat="45.70026" lon="6.65036">
        <ele>1543</ele>
        <time>2021-06-01T11:44:19Z</time>
      </trkpt>
      <trkpt lat="45.70022" lon="6.65048">
        <ele>1543.2</ele>
        <time>2021-06-01T11:44:20Z</time>
      </trkpt>
      <trkpt lat="45.70019" lon="6.65061">
        <ele>1543</ele>
        <time>2021-06-01T11:44:21Z</time>
      </trkpt>
      <trkpt lat="45.70019" lon="6.65074">
        <ele>1542.8</ele>
        <time>2021-06-01T11:44:22Z</time>
      </trkpt>
      <trkpt lat="45.7002" lon="6.65089">
        <ele>1542.4</ele>
        <time>2021-06-01T11:44:23Z</time>
      </trkpt>
      <trkpt lat="45.70022" lon="6.65104">
        <ele>1541.8</ele>
        <time>2021-06-01T11:44:24Z</time>
      </trkpt>
      <trkpt lat="45.70024" lon="6.6512">
        <ele>1541.4</ele>
        <time>2021-06-01T11:44:25Z</time>
      </trkpt>
      <trkpt lat="45.70025" lon="6.65136">
        <ele>1540.8</ele>
        <time>2021-06-01T11:44:26Z</time>
      </trkpt>
      <trkpt lat="45.70026" lon="6.65153">
        <ele>1540</ele>
        <time>2021-06-01T11:44:27Z</time>
      </trkpt>
      <trkpt lat="45.70025" lon="6.6517">
        <ele>1539.2</ele>
        <time>2021-06-01T11:44:28Z</time>
      </trkpt>
      <trkpt lat="45.70025" lon="6.65187">
        <ele>1538.8</ele>
        <time>2021-06-01T11:44:29Z</time>
      </trkpt>
      <trkpt lat="45.70025" lon="6.65205">
        <ele>1538.4</ele>
        <time>2021-06-01T11:44:30Z</time>
      </trkpt>
      <trkpt lat="45.70026" lon="6.65221">
        <ele>1538.2</ele>
        <time>2021-06-01T11:44:31Z</time>
      </trkpt>
      <trkpt lat="45.70028" lon="6.65238">
        <ele>1538.2</ele>
        <time>2021-06-01T11:44:32Z</time>
      </trkpt>
      <trkpt lat="45.7003" lon="6.65254">
        <ele>1538.2</ele>
        <time>2021-06-01T11:44:33Z</time>
      </trkpt>
      <trkpt lat="45.70032" lon="6.6527">
        <ele>1538</ele>
        <time>2021-06-01T11:44:34Z</time>
      </trkpt>
      <trkpt lat="45.70033" lon="6.65286">
        <ele>1538</ele>
        <time>2021-06-01T11:44:35Z</time>
      </trkpt>
      <trkpt lat="45.70033" lon="6.65302">
        <ele>1537.8</ele>
        <time>2021-06-01T11:44:36Z</time>
      </trkpt>
      <trkpt lat="45.70031" lon="6.65317">
        <ele>1537.8</ele>
        <time>2021-06-01T11:44:37Z</time>
      </trkpt>
      <trkpt lat="45.70027" lon="6.65331">
        <ele>1537.8</ele>
        <time>2021-06-01T11:44:38Z</time>
      </trkpt>
      <trkpt lat="45.70021" lon="6.65344">
        <ele>1537.8</ele>
        <time>2021-06-01T11:44:39Z</time>
      </trkpt>
      <trkpt lat="45.70015" lon="6.65355">
        <ele>1537.8</ele>
        <time>2021-06-01T11:44:40Z</time>
      </trkpt>
      <trkpt lat="45.70008" lon="6.65366">
        <ele>1538</ele>
        <time>2021-06-01T11:44:41Z</time>
      </trkpt>
      <trkpt lat="45.70002" lon="6.65376">
        <ele>1537.8</ele>
        <time>2021-06-01T11:44:42Z</time>
      </trkpt>
      <trkpt lat="45.69997" lon="6.65387">
        <ele>1538</ele>
        <time>2021-06-01T11:44:43Z</time>
      </trkpt>
      <trkpt lat="45.69991" lon="6.65398">
        <ele>1538</ele>
        <time>2021-06-01T11:44:44Z</time>
      </trkpt>
      <trkpt lat="45.69986" lon="6.65408">
        <ele>1538.2</ele>
        <time>2021-06-01T11:44:45Z</time>
      </trkpt>
      <trkpt lat="45.69982" lon="6.65419">
        <ele>1538.4</ele>
        <time>2021-06-01T11:44:46Z</time>
      </trkpt>
      <trkpt lat="45.69978" lon="6.6543">
        <ele>1538.4</ele>
        <time>2021-06-01T11:44:47Z</time>
      </trkpt>
      <trkpt lat="45.69975" lon="6.65442">
        <ele>1538.6</ele>
        <time>2021-06-01T11:44:48Z</time>
      </trkpt>
      <trkpt lat="45.69972" lon="6.65453">
        <ele>1538.6</ele>
        <time>2021-06-01T11:44:49Z</time>
      </trkpt>
      <trkpt lat="45.69969" lon="6.65465">
        <ele>1538.8</ele>
        <time>2021-06-01T11:44:50Z</time>
      </trkpt>
      <trkpt lat="45.69966" lon="6.65476">
        <ele>1539</ele>
        <time>2021-06-01T11:44:51Z</time>
      </trkpt>
      <trkpt lat="45.69964" lon="6.65487">
        <ele>1539</ele>
        <time>2021-06-01T11:44:52Z</time>
      </trkpt>
      <trkpt lat="45.6996" lon="6.65498">
        <ele>1539.6</ele>
        <time>2021-06-01T11:44:53Z</time>
      </trkpt>
      <trkpt lat="45.69955" lon="6.65508">
        <ele>1540</ele>
        <time>2021-06-01T11:44:54Z</time>
      </trkpt>
      <trkpt lat="45.6995" lon="6.65516">
        <ele>1540</ele>
        <time>2021-06-01T11:44:55Z</time>
      </trkpt>
      <trkpt lat="45.69944" lon="6.65522">
        <ele>1540</ele>
        <time>2021-06-01T11:44:56Z</time>
      </trkpt>
      <trkpt lat="45.69936" lon="6.65526">
        <ele>1540.2</ele>
        <time>2021-06-01T11:44:57Z</time>
      </trkpt>
      <trkpt lat="45.69929" lon="6.65528">
        <ele>1540.4</ele>
        <time>2021-06-01T11:44:58Z</time>
      </trkpt>
      <trkpt lat="45.69921" lon="6.6553">
        <ele>1540.4</ele>
        <time>2021-06-01T11:44:59Z</time>
      </trkpt>
      <trkpt lat="45.69914" lon="6.65531">
        <ele>1540.4</ele>
        <time>2021-06-01T11:45:00Z</time>
      </trkpt>
      <trkpt lat="45.69906" lon="6.65532">
        <ele>1540.6</ele>
        <time>2021-06-01T11:45:01Z</time>
      </trkpt>
      <trkpt lat="45.699" lon="6.65533">
        <ele>1540.8</ele>
        <time>2021-06-01T11:45:02Z</time>
      </trkpt>
      <trkpt lat="45.69893" lon="6.65535">
        <ele>1541</ele>
        <time>2021-06-01T11:45:03Z</time>
      </trkpt>
      <trkpt lat="45.69887" lon="6.65538">
        <ele>1541.2</ele>
        <time>2021-06-01T11:45:04Z</time>
      </trkpt>
      <trkpt lat="45.69881" lon="6.65542">
        <ele>1541.4</ele>
        <time>2021-06-01T11:45:05Z</time>
      </trkpt>
      <trkpt lat="45.69876" lon="6.65546">
        <ele>1541.8</ele>
        <time>2021-06-01T11:45:06Z</time>
      </trkpt>
      <trkpt lat="45.69872" lon="6.6555">
        <ele>1542.2</ele>
        <time>2021-06-01T11:45:07Z</time>
      </trkpt>
      <trkpt lat="45.69867" lon="6.65554">
        <ele>1542.4</ele>
        <time>2021-06-01T11:45:08Z</time>
      </trkpt>
      <trkpt lat="45.69863" lon="6.65558">
        <ele>1542.4</ele>
        <time>2021-06-01T11:45:09Z</time>
      </trkpt>
      <trkpt lat="45.69859" lon="6.65563">
        <ele>1542.6</ele>
        <time>2021-06-01T11:45:10Z</time>
      </trkpt>
      <trkpt lat="45.69855" lon="6.65568">
        <ele>1542.8</ele>
        <time>2021-06-01T11:45:11Z</time>
      </trkpt>
      <trkpt lat="45.69852" lon="6.65572">
        <ele>1543</ele>
        <time>2021-06-01T11:45:12Z</time>
      </trkpt>
      <trkpt lat="45.69849" lon="6.65577">
        <ele>1543.4</ele>
        <time>2021-06-01T11:45:13Z</time>
      </trkpt>
      <trkpt lat="45.69845" lon="6.65581">
        <ele>1543.8</ele>
        <time>2021-06-01T11:45:14Z</time>
      </trkpt>
      <trkpt lat="45.69842" lon="6.65585">
        <ele>1544</ele>
        <time>2021-06-01T11:45:15Z</time>
      </trkpt>
      <trkpt lat="45.69839" lon="6.65589">
        <ele>1544.6</ele>
        <time>2021-06-01T11:45:16Z</time>
      </trkpt>
      <trkpt lat="45.69836" lon="6.65594">
        <ele>1545</ele>
        <time>2021-06-01T11:45:17Z</time>
      </trkpt>
      <trkpt lat="45.69833" lon="6.65598">
        <ele>1545.2</ele>
        <time>2021-06-01T11:45:18Z</time>
      </trkpt>
      <trkpt lat="45.69829" lon="6.65602">
        <ele>1545.6</ele>
        <time>2021-06-01T11:45:19Z</time>
      </trkpt>
      <trkpt lat="45.69826" lon="6.65607">
        <ele>1546</ele>
        <time>2021-06-01T11:45:20Z</time>
      </trkpt>
      <trkpt lat="45.69822" lon="6.65611">
        <ele>1546.4</ele>
        <time>2021-06-01T11:45:21Z</time>
      </trkpt>
      <trkpt lat="45.69819" lon="6.65614">
        <ele>1546.6</ele>
        <time>2021-06-01T11:45:22Z</time>
      </trkpt>
      <trkpt lat="45.69815" lon="6.65616">
        <ele>1546.8</ele>
        <time>2021-06-01T11:45:23Z</time>
      </trkpt>
      <trkpt lat="45.69812" lon="6.65619">
        <ele>1547.2</ele>
        <time>2021-06-01T11:45:24Z</time>
      </trkpt>
      <trkpt lat="45.69809" lon="6.65622">
        <ele>1547.6</ele>
        <time>2021-06-01T11:45:25Z</time>
      </trkpt>
      <trkpt lat="45.69806" lon="6.65624">
        <ele>1548</ele>
        <time>2021-06-01T11:45:26Z</time>
      </trkpt>
      <trkpt lat="45.69803" lon="6.65626">
        <ele>1548.4</ele>
        <time>2021-06-01T11:45:27Z</time>
      </trkpt>
      <trkpt lat="45.698" lon="6.65628">
        <ele>1549</ele>
        <time>2021-06-01T11:45:28Z</time>
      </trkpt>
      <trkpt lat="45.69797" lon="6.6563">
        <ele>1549.4</ele>
        <time>2021-06-01T11:45:29Z</time>
      </trkpt>
      <trkpt lat="45.69794" lon="6.65632">
        <ele>1549.8</ele>
        <time>2021-06-01T11:45:30Z</time>
      </trkpt>
      <trkpt lat="45.69791" lon="6.65633">
        <ele>1550</ele>
        <time>2021-06-01T11:45:31Z</time>
      </trkpt>
      <trkpt lat="45.69788" lon="6.65635">
        <ele>1550.4</ele>
        <time>2021-06-01T11:45:32Z</time>
      </trkpt>
      <trkpt lat="45.69785" lon="6.65636">
        <ele>1550.6</ele>
        <time>2021-06-01T11:45:33Z</time>
      </trkpt>
      <trkpt lat="45.69782" lon="6.65636">
        <ele>1550.8</ele>
        <time>2021-06-01T11:45:34Z</time>
      </trkpt>
      <trkpt lat="45.69779" lon="6.65637">
        <ele>1551</ele>
        <time>2021-06-01T11:45:35Z</time>
      </trkpt>
      <trkpt lat="45.69776" lon="6.65638">
        <ele>1551.2</ele>
        <time>2021-06-01T11:45:36Z</time>
      </trkpt>
      <trkpt lat="45.69773" lon="6.65639">
        <ele>1551.6</ele>
        <time>2021-06-01T11:45:37Z</time>
      </trkpt>
      <trkpt lat="45.6977" lon="6.65639">
        <ele>1551.8</ele>
        <time>2021-06-01T11:45:38Z</time>
      </trkpt>
      <trkpt lat="45.69767" lon="6.6564">
        <ele>1552</ele>
        <time>2021-06-01T11:45:39Z</time>
      </trkpt>
      <trkpt lat="45.69764" lon="6.6564">
        <ele>1552.4</ele>
        <time>2021-06-01T11:45:40Z</time>
      </trkpt>
      <trkpt lat="45.69761" lon="6.6564">
        <ele>1552.6</ele>
        <time>2021-06-01T11:45:41Z</time>
      </trkpt>
      <trkpt lat="45.69758" lon="6.6564">
        <ele>1553</ele>
        <time>2021-06-01T11:45:42Z</time>
      </trkpt>
      <trkpt lat="45.69755" lon="6.6564">
        <ele>1553.2</ele>
        <time>2021-06-01T11:45:43Z</time>
      </trkpt>
      <trkpt lat="45.69752" lon="6.6564">
        <ele>1553.4</ele>
        <time>2021-06-01T11:45:44Z</time>
      </trkpt>
      <trkpt lat="45.69749" lon="6.6564">
        <ele>1553.8</ele>
        <time>2021-06-01T11:45:45Z</time>
      </trkpt>
      <trkpt lat="45.69746" lon="6.6564">
        <ele>1553.8</ele>
        <time>2021-06-01T11:45:46Z</time>
      </trkpt>
      <trkpt lat="45.69743" lon="6.65639">
        <ele>1554.2</ele>
        <time>2021-06-01T11:45:47Z</time>
      </trkpt>
      <trkpt lat="45.6974" lon="6.65639">
        <ele>1554.4</ele>
        <time>2021-06-01T11:45:48Z</time>
      </trkpt>
      <trkpt lat="45.69737" lon="6.65638">
        <ele>1554.6</ele>
        <time>2021-06-01T11:45:49Z</time>
      </trkpt>
      <trkpt lat="45.69734" lon="6.65638">
        <ele>1554.6</ele>
        <time>2021-06-01T11:45:50Z</time>
      </trkpt>
      <trkpt lat="45.69731" lon="6.65637">
        <ele>1554.8</ele>
        <time>2021-06-01T11:45:51Z</time>
      </trkpt>
      <trkpt lat="45.69728" lon="6.65636">
        <ele>1555</ele>
        <time>2021-06-01T11:45:52Z</time>
      </trkpt>
      <trkpt lat="45.69725" lon="6.65635">
        <ele>1555</ele>
        <time>2021-06-01T11:45:53Z</time>
      </trkpt>
      <trkpt lat="45.69723" lon="6.65634">
        <ele>1555.2</ele>
        <time>2021-06-01T11:45:54Z</time>
      </trkpt>
      <trkpt lat="45.6972" lon="6.65633">
        <ele>1555.4</ele>
        <time>2021-06-01T11:45:55Z</time>
      </trkpt>
      <trkpt lat="45.69717" lon="6.65632">
        <ele>1555.6</ele>
        <time>2021-06-01T11:45:56Z</time>
      </trkpt>
      <trkpt lat="45.69714" lon="6.6563">
        <ele>1555.8</ele>
        <time>2021-06-01T11:45:57Z</time>
      </trkpt>
      <trkpt lat="45.69711" lon="6.65629">
        <ele>1556</ele>
        <time>2021-06-01T11:45:58Z</time>
      </trkpt>
      <trkpt lat="45.69708" lon="6.65628">
        <ele>1556.2</ele>
        <time>2021-06-01T11:45:59Z</time>
      </trkpt>
      <trkpt lat="45.69706" lon="6.65627">
        <ele>1556.4</ele>
        <time>2021-06-01T11:46:00Z</time>
      </trkpt>
      <trkpt lat="45.69703" lon="6.65626">
        <ele>1556.6</ele>
        <time>2021-06-01T11:46:01Z</time>
      </trkpt>
      <trkpt lat="45.697" lon="6.65624">
        <ele>1556.8</ele>
        <time>2021-06-01T11:46:02Z</time>
      </trkpt>
      <trkpt lat="45.69697" lon="6.65623">
        <ele>1557</ele>
        <time>2021-06-01T11:46:03Z</time>
      </trkpt>
      <trkpt lat="45.69694" lon="6.65622">
        <ele>1557.4</ele>
        <time>2021-06-01T11:46:04Z</time>
      </trkpt>
      <trkpt lat="45.69692" lon="6.6562">
        <ele>1557.4</ele>
        <time>2021-06-01T11:46:05Z</time>
      </trkpt>
      <trkpt lat="45.69689" lon="6.65619">
        <ele>1557.6</ele>
        <time>2021-06-01T11:46:06Z</time>
      </trkpt>
      <trkpt lat="45.69686" lon="6.65618">
        <ele>1557.6</ele>
        <time>2021-06-01T11:46:07Z</time>
      </trkpt>
      <trkpt lat="45.69684" lon="6.65617">
        <ele>1557.8</ele>
        <time>2021-06-01T11:46:08Z</time>
      </trkpt>
      <trkpt lat="45.69681" lon="6.65616">
        <ele>1558</ele>
        <time>2021-06-01T11:46:09Z</time>
      </trkpt>
      <trkpt lat="45.69678" lon="6.65614">
        <ele>1558.2</ele>
        <time>2021-06-01T11:46:10Z</time>
      </trkpt>
      <trkpt lat="45.69676" lon="6.65613">
        <ele>1558.4</ele>
        <time>2021-06-01T11:46:11Z</time>
      </trkpt>
      <trkpt lat="45.69673" lon="6.65612">
        <ele>1558.6</ele>
        <time>2021-06-01T11:46:12Z</time>
      </trkpt>
      <trkpt lat="45.6967" lon="6.65611">
        <ele>1558.6</ele>
        <time>2021-06-01T11:46:13Z</time>
      </trkpt>
      <trkpt lat="45.69667" lon="6.65609">
        <ele>1558.8</ele>
        <time>2021-06-01T11:46:14Z</time>
      </trkpt>
      <trkpt lat="45.69664" lon="6.65608">
        <ele>1559</ele>
        <time>2021-06-01T11:46:15Z</time>
      </trkpt>
      <trkpt lat="45.69662" lon="6.65607">
        <ele>1559.2</ele>
        <time>2021-06-01T11:46:16Z</time>
      </trkpt>
      <trkpt lat="45.6966" lon="6.65605">
        <ele>1559.4</ele>
        <time>2021-06-01T11:46:17Z</time>
      </trkpt>
      <trkpt lat="45.69656" lon="6.65605">
        <ele>1559.6</ele>
        <time>2021-06-01T11:46:18Z</time>
      </trkpt>
      <trkpt lat="45.69654" lon="6.65603">
        <ele>1559.8</ele>
        <time>2021-06-01T11:46:19Z</time>
      </trkpt>
      <trkpt lat="45.69651" lon="6.65602">
        <ele>1560</ele>
        <time>2021-06-01T11:46:20Z</time>
      </trkpt>
      <trkpt lat="45.69648" lon="6.65601">
        <ele>1560.2</ele>
        <time>2021-06-01T11:46:21Z</time>
      </trkpt>
      <trkpt lat="45.69646" lon="6.656">
        <ele>1560.4</ele>
        <time>2021-06-01T11:46:22Z</time>
      </trkpt>
      <trkpt lat="45.69643" lon="6.65598">
        <ele>1560.6</ele>
        <time>2021-06-01T11:46:23Z</time>
      </trkpt>
      <trkpt lat="45.6964" lon="6.65597">
        <ele>1560.8</ele>
        <time>2021-06-01T11:46:24Z</time>
      </trkpt>
      <trkpt lat="45.69638" lon="6.65595">
        <ele>1561</ele>
        <time>2021-06-01T11:46:25Z</time>
      </trkpt>
      <trkpt lat="45.69636" lon="6.65594">
        <ele>1561.2</ele>
        <time>2021-06-01T11:46:26Z</time>
      </trkpt>
      <trkpt lat="45.69632" lon="6.65593">
        <ele>1561.4</ele>
        <time>2021-06-01T11:46:27Z</time>
      </trkpt>
      <trkpt lat="45.6963" lon="6.65592">
        <ele>1561.8</ele>
        <time>2021-06-01T11:46:28Z</time>
      </trkpt>
      <trkpt lat="45.69627" lon="6.65591">
        <ele>1562</ele>
        <time>2021-06-01T11:46:29Z</time>
      </trkpt>
      <trkpt lat="45.69625" lon="6.6559">
        <ele>1562.2</ele>
        <time>2021-06-01T11:46:30Z</time>
      </trkpt>
      <trkpt lat="45.69622" lon="6.65588">
        <ele>1562.6</ele>
        <time>2021-06-01T11:46:31Z</time>
      </trkpt>
      <trkpt lat="45.69619" lon="6.65587">
        <ele>1562.8</ele>
        <time>2021-06-01T11:46:32Z</time>
      </trkpt>
      <trkpt lat="45.69617" lon="6.65586">
        <ele>1563</ele>
        <time>2021-06-01T11:46:33Z</time>
      </trkpt>
      <trkpt lat="45.69614" lon="6.65585">
        <ele>1563</ele>
        <time>2021-06-01T11:46:34Z</time>
      </trkpt>
      <trkpt lat="45.69612" lon="6.65584">
        <ele>1563.4</ele>
        <time>2021-06-01T11:46:35Z</time>
      </trkpt>
      <trkpt lat="45.6961" lon="6.65583">
        <ele>1563.6</ele>
        <time>2021-06-01T11:46:36Z</time>
      </trkpt>
      <trkpt lat="45.69606" lon="6.65581">
        <ele>1563.6</ele>
        <time>2021-06-01T11:46:37Z</time>
      </trkpt>
      <trkpt lat="45.69604" lon="6.65581">
        <ele>1563.8</ele>
        <time>2021-06-01T11:46:38Z</time>
      </trkpt>
      <trkpt lat="45.69602" lon="6.6558">
        <ele>1564</ele>
        <time>2021-06-01T11:46:39Z</time>
      </trkpt>
      <trkpt lat="45.69599" lon="6.65578">
        <ele>1564.2</ele>
        <time>2021-06-01T11:46:40Z</time>
      </trkpt>
      <trkpt lat="45.69596" lon="6.65577">
        <ele>1564.2</ele>
        <time>2021-06-01T11:46:41Z</time>
      </trkpt>
      <trkpt lat="45.69593" lon="6.65576">
        <ele>1564.4</ele>
        <time>2021-06-01T11:46:42Z</time>
      </trkpt>
      <trkpt lat="45.69591" lon="6.65575">
        <ele>1564.4</ele>
        <time>2021-06-01T11:46:43Z</time>
      </trkpt>
      <trkpt lat="45.69588" lon="6.65574">
        <ele>1564.6</ele>
        <time>2021-06-01T11:46:44Z</time>
      </trkpt>
      <trkpt lat="45.69585" lon="6.65572">
        <ele>1564.8</ele>
        <time>2021-06-01T11:46:45Z</time>
      </trkpt>
      <trkpt lat="45.69582" lon="6.65571">
        <ele>1565</ele>
        <time>2021-06-01T11:46:46Z</time>
      </trkpt>
      <trkpt lat="45.69579" lon="6.6557">
        <ele>1565</ele>
        <time>2021-06-01T11:46:47Z</time>
      </trkpt>
      <trkpt lat="45.69577" lon="6.65569">
        <ele>1565</ele>
        <time>2021-06-01T11:46:48Z</time>
      </trkpt>
      <trkpt lat="45.69574" lon="6.65568">
        <ele>1565.2</ele>
        <time>2021-06-01T11:46:49Z</time>
      </trkpt>
      <trkpt lat="45.69572" lon="6.65567">
        <ele>1565.4</ele>
        <time>2021-06-01T11:46:50Z</time>
      </trkpt>
      <trkpt lat="45.69568" lon="6.65566">
        <ele>1565.6</ele>
        <time>2021-06-01T11:46:51Z</time>
      </trkpt>
      <trkpt lat="45.69566" lon="6.65565">
        <ele>1565.6</ele>
        <time>2021-06-01T11:46:52Z</time>
      </trkpt>
      <trkpt lat="45.69563" lon="6.65564">
        <ele>1565.8</ele>
        <time>2021-06-01T11:46:53Z</time>
      </trkpt>
      <trkpt lat="45.69559" lon="6.65563">
        <ele>1566</ele>
        <time>2021-06-01T11:46:54Z</time>
      </trkpt>
      <trkpt lat="45.69557" lon="6.65561">
        <ele>1566.4</ele>
        <time>2021-06-01T11:46:55Z</time>
      </trkpt>
      <trkpt lat="45.69555" lon="6.6556">
        <ele>1566.8</ele>
        <time>2021-06-01T11:46:56Z</time>
      </trkpt>
      <trkpt lat="45.69552" lon="6.65559">
        <ele>1567</ele>
        <time>2021-06-01T11:46:57Z</time>
      </trkpt>
      <trkpt lat="45.69548" lon="6.65558">
        <ele>1567.2</ele>
        <time>2021-06-01T11:46:58Z</time>
      </trkpt>
      <trkpt lat="45.69545" lon="6.65557">
        <ele>1567.4</ele>
        <time>2021-06-01T11:46:59Z</time>
      </trkpt>
      <trkpt lat="45.69542" lon="6.65556">
        <ele>1567.8</ele>
        <time>2021-06-01T11:47:00Z</time>
      </trkpt>
      <trkpt lat="45.6954" lon="6.65555">
        <ele>1568</ele>
        <time>2021-06-01T11:47:01Z</time>
      </trkpt>
      <trkpt lat="45.69537" lon="6.65554">
        <ele>1568.4</ele>
        <time>2021-06-01T11:47:02Z</time>
      </trkpt>
      <trkpt lat="45.69533" lon="6.65553">
        <ele>1568.6</ele>
        <time>2021-06-01T11:47:03Z</time>
      </trkpt>
      <trkpt lat="45.69531" lon="6.65552">
        <ele>1569</ele>
        <time>2021-06-01T11:47:04Z</time>
      </trkpt>
      <trkpt lat="45.69529" lon="6.65551">
        <ele>1569</ele>
        <time>2021-06-01T11:47:05Z</time>
      </trkpt>
      <trkpt lat="45.69525" lon="6.6555">
        <ele>1569</ele>
        <time>2021-06-01T11:47:06Z</time>
      </trkpt>
      <trkpt lat="45.69523" lon="6.65549">
        <ele>1569.4</ele>
        <time>2021-06-01T11:47:07Z</time>
      </trkpt>
      <trkpt lat="45.69519" lon="6.65548">
        <ele>1569.6</ele>
        <time>2021-06-01T11:47:08Z</time>
      </trkpt>
      <trkpt lat="45.69516" lon="6.65547">
        <ele>1569.8</ele>
        <time>2021-06-01T11:47:09Z</time>
      </trkpt>
      <trkpt lat="45.69513" lon="6.65545">
        <ele>1570</ele>
        <time>2021-06-01T11:47:10Z</time>
      </trkpt>
      <trkpt lat="45.6951" lon="6.65544">
        <ele>1570.2</ele>
        <time>2021-06-01T11:47:11Z</time>
      </trkpt>
      <trkpt lat="45.69507" lon="6.65543">
        <ele>1570.6</ele>
        <time>2021-06-01T11:47:12Z</time>
      </trkpt>
      <trkpt lat="45.69505" lon="6.65542">
        <ele>1570.8</ele>
        <time>2021-06-01T11:47:13Z</time>
      </trkpt>
      <trkpt lat="45.69501" lon="6.65541">
        <ele>1571.2</ele>
        <time>2021-06-01T11:47:14Z</time>
      </trkpt>
      <trkpt lat="45.69499" lon="6.6554">
        <ele>1571.4</ele>
        <time>2021-06-01T11:47:15Z</time>
      </trkpt>
      <trkpt lat="45.69496" lon="6.65539">
        <ele>1571.6</ele>
        <time>2021-06-01T11:47:16Z</time>
      </trkpt>
      <trkpt lat="45.69493" lon="6.65539">
        <ele>1572</ele>
        <time>2021-06-01T11:47:17Z</time>
      </trkpt>
      <trkpt lat="45.6949" lon="6.65538">
        <ele>1572.4</ele>
        <time>2021-06-01T11:47:18Z</time>
      </trkpt>
      <trkpt lat="45.69487" lon="6.65538">
        <ele>1572.8</ele>
        <time>2021-06-01T11:47:19Z</time>
      </trkpt>
      <trkpt lat="45.69484" lon="6.65539">
        <ele>1573</ele>
        <time>2021-06-01T11:47:20Z</time>
      </trkpt>
      <trkpt lat="45.69481" lon="6.65539">
        <ele>1573.4</ele>
        <time>2021-06-01T11:47:21Z</time>
      </trkpt>
      <trkpt lat="45.69477" lon="6.6554">
        <ele>1573.6</ele>
        <time>2021-06-01T11:47:22Z</time>
      </trkpt>
      <trkpt lat="45.69474" lon="6.65541">
        <ele>1573.8</ele>
        <time>2021-06-01T11:47:23Z</time>
      </trkpt>
      <trkpt lat="45.69471" lon="6.65542">
        <ele>1574.2</ele>
        <time>2021-06-01T11:47:24Z</time>
      </trkpt>
      <trkpt lat="45.69468" lon="6.65544">
        <ele>1574.2</ele>
        <time>2021-06-01T11:47:25Z</time>
      </trkpt>
      <trkpt lat="45.69465" lon="6.65546">
        <ele>1574.6</ele>
        <time>2021-06-01T11:47:26Z</time>
      </trkpt>
      <trkpt lat="45.69462" lon="6.65548">
        <ele>1575</ele>
        <time>2021-06-01T11:47:27Z</time>
      </trkpt>
      <trkpt lat="45.6946" lon="6.6555">
        <ele>1575.4</ele>
        <time>2021-06-01T11:47:28Z</time>
      </trkpt>
      <trkpt lat="45.69457" lon="6.65553">
        <ele>1575.4</ele>
        <time>2021-06-01T11:47:29Z</time>
      </trkpt>
      <trkpt lat="45.69455" lon="6.65555">
        <ele>1575.6</ele>
        <time>2021-06-01T11:47:30Z</time>
      </trkpt>
      <trkpt lat="45.69453" lon="6.65559">
        <ele>1576</ele>
        <time>2021-06-01T11:47:31Z</time>
      </trkpt>
      <trkpt lat="45.69451" lon="6.65562">
        <ele>1576.2</ele>
        <time>2021-06-01T11:47:32Z</time>
      </trkpt>
      <trkpt lat="45.69449" lon="6.65566">
        <ele>1576.4</ele>
        <time>2021-06-01T11:47:33Z</time>
      </trkpt>
      <trkpt lat="45.69448" lon="6.65569">
        <ele>1576.4</ele>
        <time>2021-06-01T11:47:34Z</time>
      </trkpt>
      <trkpt lat="45.69446" lon="6.65573">
        <ele>1576.6</ele>
        <time>2021-06-01T11:47:35Z</time>
      </trkpt>
      <trkpt lat="45.69445" lon="6.65577">
        <ele>1577</ele>
        <time>2021-06-01T11:47:36Z</time>
      </trkpt>
      <trkpt lat="45.69444" lon="6.65582">
        <ele>1577.2</ele>
        <time>2021-06-01T11:47:37Z</time>
      </trkpt>
      <trkpt lat="45.69442" lon="6.65586">
        <ele>1577.2</ele>
        <time>2021-06-01T11:47:38Z</time>
      </trkpt>
      <trkpt lat="45.69441" lon="6.6559">
        <ele>1577.4</ele>
        <time>2021-06-01T11:47:39Z</time>
      </trkpt>
      <trkpt lat="45.69441" lon="6.65594">
        <ele>1577.6</ele>
        <time>2021-06-01T11:47:40Z</time>
      </trkpt>
      <trkpt lat="45.6944" lon="6.65599">
        <ele>1578</ele>
        <time>2021-06-01T11:47:41Z</time>
      </trkpt>
      <trkpt lat="45.6944" lon="6.65603">
        <ele>1578.4</ele>
        <time>2021-06-01T11:47:42Z</time>
      </trkpt>
      <trkpt lat="45.6944" lon="6.65608">
        <ele>1578.6</ele>
        <time>2021-06-01T11:47:43Z</time>
      </trkpt>
      <trkpt lat="45.6944" lon="6.65612">
        <ele>1578.8</ele>
        <time>2021-06-01T11:47:44Z</time>
      </trkpt>
      <trkpt lat="45.6944" lon="6.65616">
        <ele>1579</ele>
        <time>2021-06-01T11:47:45Z</time>
      </trkpt>
      <trkpt lat="45.6944" lon="6.6562">
        <ele>1579.2</ele>
        <time>2021-06-01T11:47:46Z</time>
      </trkpt>
      <trkpt lat="45.69441" lon="6.65624">
        <ele>1579.6</ele>
        <time>2021-06-01T11:47:47Z</time>
      </trkpt>
      <trkpt lat="45.69442" lon="6.65629">
        <ele>1579.8</ele>
        <time>2021-06-01T11:47:48Z</time>
      </trkpt>
      <trkpt lat="45.69442" lon="6.65633">
        <ele>1580</ele>
        <time>2021-06-01T11:47:49Z</time>
      </trkpt>
      <trkpt lat="45.69444" lon="6.65637">
        <ele>1580.2</ele>
        <time>2021-06-01T11:47:50Z</time>
      </trkpt>
      <trkpt lat="45.69445" lon="6.65641">
        <ele>1580.4</ele>
        <time>2021-06-01T11:47:51Z</time>
      </trkpt>
      <trkpt lat="45.69447" lon="6.65646">
        <ele>1580.8</ele>
        <time>2021-06-01T11:47:52Z</time>
      </trkpt>
      <trkpt lat="45.69448" lon="6.6565">
        <ele>1581</ele>
        <time>2021-06-01T11:47:53Z</time>
      </trkpt>
      <trkpt lat="45.6945" lon="6.65654">
        <ele>1581</ele>
        <time>2021-06-01T11:47:54Z</time>
      </trkpt>
      <trkpt lat="45.69452" lon="6.65658">
        <ele>1581.2</ele>
        <time>2021-06-01T11:47:55Z</time>
      </trkpt>
      <trkpt lat="45.69453" lon="6.65661">
        <ele>1581.4</ele>
        <time>2021-06-01T11:47:56Z</time>
      </trkpt>
      <trkpt lat="45.69456" lon="6.65664">
        <ele>1581.4</ele>
        <time>2021-06-01T11:47:57Z</time>
      </trkpt>
      <trkpt lat="45.69458" lon="6.65667">
        <ele>1581.6</ele>
        <time>2021-06-01T11:47:58Z</time>
      </trkpt>
      <trkpt lat="45.69461" lon="6.6567">
        <ele>1581.8</ele>
        <time>2021-06-01T11:47:59Z</time>
      </trkpt>
      <trkpt lat="45.69464" lon="6.65673">
        <ele>1582</ele>
        <time>2021-06-01T11:48:00Z</time>
      </trkpt>
      <trkpt lat="45.69467" lon="6.65675">
        <ele>1582.4</ele>
        <time>2021-06-01T11:48:01Z</time>
      </trkpt>
      <trkpt lat="45.6947" lon="6.65677">
        <ele>1582.6</ele>
        <time>2021-06-01T11:48:02Z</time>
      </trkpt>
      <trkpt lat="45.69473" lon="6.6568">
        <ele>1582.8</ele>
        <time>2021-06-01T11:48:03Z</time>
      </trkpt>
      <trkpt lat="45.69476" lon="6.65681">
        <ele>1583</ele>
        <time>2021-06-01T11:48:04Z</time>
      </trkpt>
      <trkpt lat="45.69479" lon="6.65683">
        <ele>1583.2</ele>
        <time>2021-06-01T11:48:05Z</time>
      </trkpt>
      <trkpt lat="45.69483" lon="6.65684">
        <ele>1583.4</ele>
        <time>2021-06-01T11:48:06Z</time>
      </trkpt>
      <trkpt lat="45.69485" lon="6.65685">
        <ele>1583.8</ele>
        <time>2021-06-01T11:48:07Z</time>
      </trkpt>
      <trkpt lat="45.69489" lon="6.65686">
        <ele>1583.8</ele>
        <time>2021-06-01T11:48:08Z</time>
      </trkpt>
      <trkpt lat="45.69492" lon="6.65686">
        <ele>1584.2</ele>
        <time>2021-06-01T11:48:09Z</time>
      </trkpt>
      <trkpt lat="45.69495" lon="6.65686">
        <ele>1584.6</ele>
        <time>2021-06-01T11:48:10Z</time>
      </trkpt>
      <trkpt lat="45.69499" lon="6.65686">
        <ele>1584.8</ele>
        <time>2021-06-01T11:48:11Z</time>
      </trkpt>
      <trkpt lat="45.69502" lon="6.65686">
        <ele>1585.2</ele>
        <time>2021-06-01T11:48:12Z</time>
      </trkpt>
      <trkpt lat="45.69505" lon="6.65686">
        <ele>1585.4</ele>
        <time>2021-06-01T11:48:13Z</time>
      </trkpt>
      <trkpt lat="45.69508" lon="6.65685">
        <ele>1585.8</ele>
        <time>2021-06-01T11:48:14Z</time>
      </trkpt>
      <trkpt lat="45.69512" lon="6.65685">
        <ele>1586.2</ele>
        <time>2021-06-01T11:48:15Z</time>
      </trkpt>
      <trkpt lat="45.69515" lon="6.65684">
        <ele>1586.6</ele>
        <time>2021-06-01T11:48:16Z</time>
      </trkpt>
      <trkpt lat="45.69518" lon="6.65684">
        <ele>1587</ele>
        <time>2021-06-01T11:48:17Z</time>
      </trkpt>
      <trkpt lat="45.69521" lon="6.65683">
        <ele>1587.2</ele>
        <time>2021-06-01T11:48:18Z</time>
      </trkpt>
      <trkpt lat="45.69524" lon="6.65682">
        <ele>1587.4</ele>
        <time>2021-06-01T11:48:19Z</time>
      </trkpt>
      <trkpt lat="45.69527" lon="6.65681">
        <ele>1587.4</ele>
        <time>2021-06-01T11:48:20Z</time>
      </trkpt>
      <trkpt lat="45.69531" lon="6.6568">
        <ele>1587.6</ele>
        <time>2021-06-01T11:48:21Z</time>
      </trkpt>
      <trkpt lat="45.69533" lon="6.65679">
        <ele>1587.6</ele>
        <time>2021-06-01T11:48:22Z</time>
      </trkpt>
      <trkpt lat="45.69537" lon="6.65679">
        <ele>1587.8</ele>
        <time>2021-06-01T11:48:23Z</time>
      </trkpt>
      <trkpt lat="45.6954" lon="6.65678">
        <ele>1588</ele>
        <time>2021-06-01T11:48:24Z</time>
      </trkpt>
      <trkpt lat="45.69543" lon="6.65678">
        <ele>1588.2</ele>
        <time>2021-06-01T11:48:25Z</time>
      </trkpt>
      <trkpt lat="45.69547" lon="6.65678">
        <ele>1588.4</ele>
        <time>2021-06-01T11:48:26Z</time>
      </trkpt>
      <trkpt lat="45.69549" lon="6.65678">
        <ele>1588.6</ele>
        <time>2021-06-01T11:48:27Z</time>
      </trkpt>
      <trkpt lat="45.69553" lon="6.65678">
        <ele>1588.8</ele>
        <time>2021-06-01T11:48:28Z</time>
      </trkpt>
      <trkpt lat="45.69556" lon="6.65678">
        <ele>1589</ele>
        <time>2021-06-01T11:48:29Z</time>
      </trkpt>
      <trkpt lat="45.69559" lon="6.65678">
        <ele>1589.2</ele>
        <time>2021-06-01T11:48:30Z</time>
      </trkpt>
      <trkpt lat="45.69562" lon="6.65678">
        <ele>1589.6</ele>
        <time>2021-06-01T11:48:31Z</time>
      </trkpt>
      <trkpt lat="45.69565" lon="6.65679">
        <ele>1589.6</ele>
        <time>2021-06-01T11:48:32Z</time>
      </trkpt>
      <trkpt lat="45.69568" lon="6.6568">
        <ele>1589.8</ele>
        <time>2021-06-01T11:48:33Z</time>
      </trkpt>
      <trkpt lat="45.69571" lon="6.65681">
        <ele>1589.8</ele>
        <time>2021-06-01T11:48:34Z</time>
      </trkpt>
      <trkpt lat="45.69574" lon="6.65682">
        <ele>1590.2</ele>
        <time>2021-06-01T11:48:35Z</time>
      </trkpt>
      <trkpt lat="45.69577" lon="6.65684">
        <ele>1590.4</ele>
        <time>2021-06-01T11:48:36Z</time>
      </trkpt>
      <trkpt lat="45.6958" lon="6.65686">
        <ele>1590.6</ele>
        <time>2021-06-01T11:48:37Z</time>
      </trkpt>
      <trkpt lat="45.69583" lon="6.65689">
        <ele>1591.2</ele>
        <time>2021-06-01T11:48:38Z</time>
      </trkpt>
      <trkpt lat="45.69585" lon="6.65692">
        <ele>1591.4</ele>
        <time>2021-06-01T11:48:39Z</time>
      </trkpt>
      <trkpt lat="45.69587" lon="6.65695">
        <ele>1591.8</ele>
        <time>2021-06-01T11:48:40Z</time>
      </trkpt>
      <trkpt lat="45.69589" lon="6.65698">
        <ele>1592.2</ele>
        <time>2021-06-01T11:48:41Z</time>
      </trkpt>
      <trkpt lat="45.69591" lon="6.65701">
        <ele>1592.6</ele>
        <time>2021-06-01T11:48:42Z</time>
      </trkpt>
      <trkpt lat="45.69593" lon="6.65705">
        <ele>1592.8</ele>
        <time>2021-06-01T11:48:43Z</time>
      </trkpt>
      <trkpt lat="45.69594" lon="6.65708">
        <ele>1593</ele>
        <time>2021-06-01T11:48:44Z</time>
      </trkpt>
      <trkpt lat="45.69595" lon="6.65712">
        <ele>1593.4</ele>
        <time>2021-06-01T11:48:45Z</time>
      </trkpt>
      <trkpt lat="45.69596" lon="6.65717">
        <ele>1593.8</ele>
        <time>2021-06-01T11:48:46Z</time>
      </trkpt>
      <trkpt lat="45.69597" lon="6.65721">
        <ele>1594.2</ele>
        <time>2021-06-01T11:48:47Z</time>
      </trkpt>
      <trkpt lat="45.69598" lon="6.65725">
        <ele>1594.6</ele>
        <time>2021-06-01T11:48:48Z</time>
      </trkpt>
      <trkpt lat="45.69598" lon="6.65729">
        <ele>1594.8</ele>
        <time>2021-06-01T11:48:49Z</time>
      </trkpt>
      <trkpt lat="45.69598" lon="6.65733">
        <ele>1595</ele>
        <time>2021-06-01T11:48:50Z</time>
      </trkpt>
      <trkpt lat="45.69598" lon="6.65738">
        <ele>1595.4</ele>
        <time>2021-06-01T11:48:51Z</time>
      </trkpt>
      <trkpt lat="45.69598" lon="6.65742">
        <ele>1595.6</ele>
        <time>2021-06-01T11:48:52Z</time>
      </trkpt>
      <trkpt lat="45.69597" lon="6.65746">
        <ele>1596</ele>
        <time>2021-06-01T11:48:53Z</time>
      </trkpt>
      <trkpt lat="45.69596" lon="6.6575">
        <ele>1596.2</ele>
        <time>2021-06-01T11:48:54Z</time>
      </trkpt>
      <trkpt lat="45.69595" lon="6.65754">
        <ele>1596.6</ele>
        <time>2021-06-01T11:48:55Z</time>
      </trkpt>
      <trkpt lat="45.69594" lon="6.65758">
        <ele>1596.8</ele>
        <time>2021-06-01T11:48:56Z</time>
      </trkpt>
      <trkpt lat="45.69593" lon="6.65762">
        <ele>1597.2</ele>
        <time>2021-06-01T11:48:57Z</time>
      </trkpt>
      <trkpt lat="45.69592" lon="6.65765">
        <ele>1597.4</ele>
        <time>2021-06-01T11:48:58Z</time>
      </trkpt>
      <trkpt lat="45.6959" lon="6.65769">
        <ele>1597.6</ele>
        <time>2021-06-01T11:48:59Z</time>
      </trkpt>
      <trkpt lat="45.69588" lon="6.65773">
        <ele>1598</ele>
        <time>2021-06-01T11:49:00Z</time>
      </trkpt>
      <trkpt lat="45.69587" lon="6.65776">
        <ele>1598.2</ele>
        <time>2021-06-01T11:49:01Z</time>
      </trkpt>
      <trkpt lat="45.69585" lon="6.6578">
        <ele>1598.4</ele>
        <time>2021-06-01T11:49:02Z</time>
      </trkpt>
      <trkpt lat="45.69582" lon="6.65784">
        <ele>1598.8</ele>
        <time>2021-06-01T11:49:03Z</time>
      </trkpt>
      <trkpt lat="45.6958" lon="6.65787">
        <ele>1599.2</ele>
        <time>2021-06-01T11:49:04Z</time>
      </trkpt>
      <trkpt lat="45.69577" lon="6.6579">
        <ele>1599.4</ele>
        <time>2021-06-01T11:49:05Z</time>
      </trkpt>
      <trkpt lat="45.69575" lon="6.65792">
        <ele>1599.6</ele>
        <time>2021-06-01T11:49:06Z</time>
      </trkpt>
      <trkpt lat="45.69572" lon="6.65794">
        <ele>1599.8</ele>
        <time>2021-06-01T11:49:07Z</time>
      </trkpt>
      <trkpt lat="45.69569" lon="6.65795">
        <ele>1600.2</ele>
        <time>2021-06-01T11:49:08Z</time>
      </trkpt>
      <trkpt lat="45.69566" lon="6.65796">
        <ele>1600.4</ele>
        <time>2021-06-01T11:49:09Z</time>
      </trkpt>
      <trkpt lat="45.69563" lon="6.65797">
        <ele>1600.6</ele>
        <time>2021-06-01T11:49:10Z</time>
      </trkpt>
      <trkpt lat="45.6956" lon="6.65797">
        <ele>1600.8</ele>
        <time>2021-06-01T11:49:11Z</time>
      </trkpt>
      <trkpt lat="45.69557" lon="6.65797">
        <ele>1601.2</ele>
        <time>2021-06-01T11:49:12Z</time>
      </trkpt>
      <trkpt lat="45.69555" lon="6.65797">
        <ele>1601.6</ele>
        <time>2021-06-01T11:49:13Z</time>
      </trkpt>
      <trkpt lat="45.69551" lon="6.65797">
        <ele>1601.8</ele>
        <time>2021-06-01T11:49:14Z</time>
      </trkpt>
      <trkpt lat="45.69548" lon="6.65796">
        <ele>1602.2</ele>
        <time>2021-06-01T11:49:15Z</time>
      </trkpt>
      <trkpt lat="45.69546" lon="6.65796">
        <ele>1602.4</ele>
        <time>2021-06-01T11:49:16Z</time>
      </trkpt>
      <trkpt lat="45.69543" lon="6.65795">
        <ele>1602.8</ele>
        <time>2021-06-01T11:49:17Z</time>
      </trkpt>
      <trkpt lat="45.6954" lon="6.65794">
        <ele>1603.2</ele>
        <time>2021-06-01T11:49:18Z</time>
      </trkpt>
      <trkpt lat="45.69537" lon="6.65793">
        <ele>1603.4</ele>
        <time>2021-06-01T11:49:19Z</time>
      </trkpt>
      <trkpt lat="45.69534" lon="6.65793">
        <ele>1603.8</ele>
        <time>2021-06-01T11:49:20Z</time>
      </trkpt>
      <trkpt lat="45.69531" lon="6.65792">
        <ele>1604</ele>
        <time>2021-06-01T11:49:21Z</time>
      </trkpt>
      <trkpt lat="45.69528" lon="6.65792">
        <ele>1604.2</ele>
        <time>2021-06-01T11:49:22Z</time>
      </trkpt>
      <trkpt lat="45.69525" lon="6.65791">
        <ele>1604.4</ele>
        <time>2021-06-01T11:49:23Z</time>
      </trkpt>
      <trkpt lat="45.69523" lon="6.6579">
        <ele>1604.6</ele>
        <time>2021-06-01T11:49:24Z</time>
      </trkpt>
      <trkpt lat="45.69519" lon="6.6579">
        <ele>1604.8</ele>
        <time>2021-06-01T11:49:25Z</time>
      </trkpt>
      <trkpt lat="45.69516" lon="6.65789">
        <ele>1605</ele>
        <time>2021-06-01T11:49:26Z</time>
      </trkpt>
      <trkpt lat="45.69514" lon="6.65789">
        <ele>1605.2</ele>
        <time>2021-06-01T11:49:27Z</time>
      </trkpt>
      <trkpt lat="45.69511" lon="6.65788">
        <ele>1605.6</ele>
        <time>2021-06-01T11:49:28Z</time>
      </trkpt>
      <trkpt lat="45.69509" lon="6.65787">
        <ele>1605.8</ele>
        <time>2021-06-01T11:49:29Z</time>
      </trkpt>
      <trkpt lat="45.69507" lon="6.65786">
        <ele>1605.8</ele>
        <time>2021-06-01T11:49:30Z</time>
      </trkpt>
      <trkpt lat="45.69505" lon="6.65786">
        <ele>1606</ele>
        <time>2021-06-01T11:49:31Z</time>
      </trkpt>
      <trkpt lat="45.69502" lon="6.65785">
        <ele>1606.4</ele>
        <time>2021-06-01T11:49:32Z</time>
      </trkpt>
      <trkpt lat="45.69499" lon="6.65785">
        <ele>1606.8</ele>
        <time>2021-06-01T11:49:33Z</time>
      </trkpt>
      <trkpt lat="45.69497" lon="6.65784">
        <ele>1607</ele>
        <time>2021-06-01T11:49:34Z</time>
      </trkpt>
      <trkpt lat="45.69494" lon="6.65784">
        <ele>1607.2</ele>
        <time>2021-06-01T11:49:35Z</time>
      </trkpt>
      <trkpt lat="45.69492" lon="6.65783">
        <ele>1607.4</ele>
        <time>2021-06-01T11:49:36Z</time>
      </trkpt>
      <trkpt lat="45.69489" lon="6.65782">
        <ele>1607.8</ele>
        <time>2021-06-01T11:49:37Z</time>
      </trkpt>
      <trkpt lat="45.69487" lon="6.65782">
        <ele>1608</ele>
        <time>2021-06-01T11:49:38Z</time>
      </trkpt>
      <trkpt lat="45.69485" lon="6.65781">
        <ele>1608.2</ele>
        <time>2021-06-01T11:49:39Z</time>
      </trkpt>
      <trkpt lat="45.69483" lon="6.65781">
        <ele>1608.4</ele>
        <time>2021-06-01T11:49:40Z</time>
      </trkpt>
      <trkpt lat="45.6948" lon="6.6578">
        <ele>1608.8</ele>
        <time>2021-06-01T11:49:41Z</time>
      </trkpt>
      <trkpt lat="45.69477" lon="6.6578">
        <ele>1609</ele>
        <time>2021-06-01T11:49:42Z</time>
      </trkpt>
      <trkpt lat="45.69474" lon="6.6578">
        <ele>1609.2</ele>
        <time>2021-06-01T11:49:43Z</time>
      </trkpt>
      <trkpt lat="45.69471" lon="6.65779">
        <ele>1609.6</ele>
        <time>2021-06-01T11:49:44Z</time>
      </trkpt>
      <trkpt lat="45.69469" lon="6.65779">
        <ele>1609.8</ele>
        <time>2021-06-01T11:49:45Z</time>
      </trkpt>
      <trkpt lat="45.69467" lon="6.65778">
        <ele>1610</ele>
        <time>2021-06-01T11:49:46Z</time>
      </trkpt>
      <trkpt lat="45.69464" lon="6.65777">
        <ele>1610.2</ele>
        <time>2021-06-01T11:49:47Z</time>
      </trkpt>
      <trkpt lat="45.69461" lon="6.65776">
        <ele>1610.4</ele>
        <time>2021-06-01T11:49:48Z</time>
      </trkpt>
      <trkpt lat="45.69458" lon="6.65776">
        <ele>1610.6</ele>
        <time>2021-06-01T11:49:49Z</time>
      </trkpt>
      <trkpt lat="45.69455" lon="6.65775">
        <ele>1610.8</ele>
        <time>2021-06-01T11:49:50Z</time>
      </trkpt>
      <trkpt lat="45.69453" lon="6.65774">
        <ele>1611</ele>
        <time>2021-06-01T11:49:51Z</time>
      </trkpt>
      <trkpt lat="45.6945" lon="6.65773">
        <ele>1611.4</ele>
        <time>2021-06-01T11:49:52Z</time>
      </trkpt>
      <trkpt lat="45.69447" lon="6.65772">
        <ele>1611.6</ele>
        <time>2021-06-01T11:49:53Z</time>
      </trkpt>
      <trkpt lat="45.69445" lon="6.6577">
        <ele>1612</ele>
        <time>2021-06-01T11:49:54Z</time>
      </trkpt>
      <trkpt lat="45.69442" lon="6.65769">
        <ele>1612.2</ele>
        <time>2021-06-01T11:49:55Z</time>
      </trkpt>
      <trkpt lat="45.69439" lon="6.65768">
        <ele>1612.4</ele>
        <time>2021-06-01T11:49:56Z</time>
      </trkpt>
      <trkpt lat="45.69437" lon="6.65767">
        <ele>1612.8</ele>
        <time>2021-06-01T11:49:57Z</time>
      </trkpt>
      <trkpt lat="45.69434" lon="6.65766">
        <ele>1613</ele>
        <time>2021-06-01T11:49:58Z</time>
      </trkpt>
      <trkpt lat="45.69431" lon="6.65765">
        <ele>1613.4</ele>
        <time>2021-06-01T11:49:59Z</time>
      </trkpt>
      <trkpt lat="45.69428" lon="6.65764">
        <ele>1613.4</ele>
        <time>2021-06-01T11:50:00Z</time>
      </trkpt>
      <trkpt lat="45.69426" lon="6.65763">
        <ele>1614</ele>
        <time>2021-06-01T11:50:01Z</time>
      </trkpt>
      <trkpt lat="45.69423" lon="6.65761">
        <ele>1614.4</ele>
        <time>2021-06-01T11:50:02Z</time>
      </trkpt>
      <trkpt lat="45.6942" lon="6.65759">
        <ele>1614.8</ele>
        <time>2021-06-01T11:50:03Z</time>
      </trkpt>
      <trkpt lat="45.69418" lon="6.65756">
        <ele>1615</ele>
        <time>2021-06-01T11:50:04Z</time>
      </trkpt>
      <trkpt lat="45.69416" lon="6.65753">
        <ele>1615.2</ele>
        <time>2021-06-01T11:50:05Z</time>
      </trkpt>
      <trkpt lat="45.69414" lon="6.65749">
        <ele>1615.4</ele>
        <time>2021-06-01T11:50:06Z</time>
      </trkpt>
      <trkpt lat="45.69412" lon="6.65745">
        <ele>1615.4</ele>
        <time>2021-06-01T11:50:07Z</time>
      </trkpt>
      <trkpt lat="45.69411" lon="6.65741">
        <ele>1615.6</ele>
        <time>2021-06-01T11:50:08Z</time>
      </trkpt>
      <trkpt lat="45.6941" lon="6.65737">
        <ele>1615.8</ele>
        <time>2021-06-01T11:50:09Z</time>
      </trkpt>
      <trkpt lat="45.69408" lon="6.65733">
        <ele>1616</ele>
        <time>2021-06-01T11:50:10Z</time>
      </trkpt>
      <trkpt lat="45.69407" lon="6.65729">
        <ele>1616</ele>
        <time>2021-06-01T11:50:11Z</time>
      </trkpt>
      <trkpt lat="45.69406" lon="6.65725">
        <ele>1616.4</ele>
        <time>2021-06-01T11:50:12Z</time>
      </trkpt>
      <trkpt lat="45.69404" lon="6.65721">
        <ele>1616.6</ele>
        <time>2021-06-01T11:50:13Z</time>
      </trkpt>
      <trkpt lat="45.69404" lon="6.65717">
        <ele>1616.8</ele>
        <time>2021-06-01T11:50:14Z</time>
      </trkpt>
      <trkpt lat="45.69402" lon="6.65713">
        <ele>1617</ele>
        <time>2021-06-01T11:50:15Z</time>
      </trkpt>
      <trkpt lat="45.694" lon="6.65709">
        <ele>1617.2</ele>
        <time>2021-06-01T11:50:16Z</time>
      </trkpt>
      <trkpt lat="45.69399" lon="6.65706">
        <ele>1617.6</ele>
        <time>2021-06-01T11:50:17Z</time>
      </trkpt>
      <trkpt lat="45.69397" lon="6.65702">
        <ele>1617.8</ele>
        <time>2021-06-01T11:50:18Z</time>
      </trkpt>
      <trkpt lat="45.69396" lon="6.65699">
        <ele>1618.2</ele>
        <time>2021-06-01T11:50:19Z</time>
      </trkpt>
      <trkpt lat="45.69394" lon="6.65696">
        <ele>1618.4</ele>
        <time>2021-06-01T11:50:20Z</time>
      </trkpt>
      <trkpt lat="45.69392" lon="6.65693">
        <ele>1618.8</ele>
        <time>2021-06-01T11:50:21Z</time>
      </trkpt>
      <trkpt lat="45.6939" lon="6.6569">
        <ele>1619</ele>
        <time>2021-06-01T11:50:22Z</time>
      </trkpt>
      <trkpt lat="45.69388" lon="6.65687">
        <ele>1619.2</ele>
        <time>2021-06-01T11:50:23Z</time>
      </trkpt>
      <trkpt lat="45.69386" lon="6.65684">
        <ele>1619.6</ele>
        <time>2021-06-01T11:50:24Z</time>
      </trkpt>
      <trkpt lat="45.69384" lon="6.65681">
        <ele>1620</ele>
        <time>2021-06-01T11:50:25Z</time>
      </trkpt>
      <trkpt lat="45.69382" lon="6.65679">
        <ele>1620</ele>
        <time>2021-06-01T11:50:26Z</time>
      </trkpt>
      <trkpt lat="45.6938" lon="6.65676">
        <ele>1620.4</ele>
        <time>2021-06-01T11:50:27Z</time>
      </trkpt>
      <trkpt lat="45.69378" lon="6.65674">
        <ele>1620.6</ele>
        <time>2021-06-01T11:50:28Z</time>
      </trkpt>
      <trkpt lat="45.69376" lon="6.65672">
        <ele>1620.8</ele>
        <time>2021-06-01T11:50:29Z</time>
      </trkpt>
      <trkpt lat="45.69374" lon="6.6567">
        <ele>1621</ele>
        <time>2021-06-01T11:50:30Z</time>
      </trkpt>
      <trkpt lat="45.69372" lon="6.65667">
        <ele>1621.2</ele>
        <time>2021-06-01T11:50:31Z</time>
      </trkpt>
      <trkpt lat="45.6937" lon="6.65665">
        <ele>1621.4</ele>
        <time>2021-06-01T11:50:32Z</time>
      </trkpt>
      <trkpt lat="45.69367" lon="6.65663">
        <ele>1621.6</ele>
        <time>2021-06-01T11:50:33Z</time>
      </trkpt>
      <trkpt lat="45.69365" lon="6.65662">
        <ele>1621.6</ele>
        <time>2021-06-01T11:50:34Z</time>
      </trkpt>
      <trkpt lat="45.69363" lon="6.65659">
        <ele>1621.8</ele>
        <time>2021-06-01T11:50:35Z</time>
      </trkpt>
      <trkpt lat="45.6936" lon="6.65657">
        <ele>1622</ele>
        <time>2021-06-01T11:50:36Z</time>
      </trkpt>
      <trkpt lat="45.69358" lon="6.65655">
        <ele>1622.2</ele>
        <time>2021-06-01T11:50:37Z</time>
      </trkpt>
      <trkpt lat="45.69356" lon="6.65652">
        <ele>1622.4</ele>
        <time>2021-06-01T11:50:38Z</time>
      </trkpt>
      <trkpt lat="45.69355" lon="6.6565">
        <ele>1622.8</ele>
        <time>2021-06-01T11:50:39Z</time>
      </trkpt>
      <trkpt lat="45.69353" lon="6.65647">
        <ele>1623.2</ele>
        <time>2021-06-01T11:50:40Z</time>
      </trkpt>
      <trkpt lat="45.69351" lon="6.65645">
        <ele>1623.4</ele>
        <time>2021-06-01T11:50:41Z</time>
      </trkpt>
      <trkpt lat="45.69348" lon="6.65642">
        <ele>1623.6</ele>
        <time>2021-06-01T11:50:42Z</time>
      </trkpt>
      <trkpt lat="45.69347" lon="6.65639">
        <ele>1623.8</ele>
        <time>2021-06-01T11:50:43Z</time>
      </trkpt>
      <trkpt lat="45.69344" lon="6.65636">
        <ele>1624.2</ele>
        <time>2021-06-01T11:50:44Z</time>
      </trkpt>
      <trkpt lat="45.69342" lon="6.65633">
        <ele>1624.4</ele>
        <time>2021-06-01T11:50:45Z</time>
      </trkpt>
      <trkpt lat="45.6934" lon="6.65629">
        <ele>1624.6</ele>
        <time>2021-06-01T11:50:46Z</time>
      </trkpt>
      <trkpt lat="45.69338" lon="6.65626">
        <ele>1625</ele>
        <time>2021-06-01T11:50:47Z</time>
      </trkpt>
      <trkpt lat="45.69336" lon="6.65623">
        <ele>1625.2</ele>
        <time>2021-06-01T11:50:48Z</time>
      </trkpt>
      <trkpt lat="45.69334" lon="6.6562">
        <ele>1625.4</ele>
        <time>2021-06-01T11:50:49Z</time>
      </trkpt>
      <trkpt lat="45.69331" lon="6.65617">
        <ele>1625.6</ele>
        <time>2021-06-01T11:50:50Z</time>
      </trkpt>
      <trkpt lat="45.69329" lon="6.65615">
        <ele>1625.8</ele>
        <time>2021-06-01T11:50:51Z</time>
      </trkpt>
      <trkpt lat="45.69327" lon="6.65612">
        <ele>1626</ele>
        <time>2021-06-01T11:50:52Z</time>
      </trkpt>
      <trkpt lat="45.69324" lon="6.6561">
        <ele>1626.2</ele>
        <time>2021-06-01T11:50:53Z</time>
      </trkpt>
      <trkpt lat="45.69322" lon="6.65608">
        <ele>1626.2</ele>
        <time>2021-06-01T11:50:54Z</time>
      </trkpt>
      <trkpt lat="45.6932" lon="6.65605">
        <ele>1626.4</ele>
        <time>2021-06-01T11:50:55Z</time>
      </trkpt>
      <trkpt lat="45.69316" lon="6.65603">
        <ele>1626.6</ele>
        <time>2021-06-01T11:50:56Z</time>
      </trkpt>
      <trkpt lat="45.69314" lon="6.65601">
        <ele>1626.8</ele>
        <time>2021-06-01T11:50:57Z</time>
      </trkpt>
      <trkpt lat="45.69312" lon="6.65599">
        <ele>1627</ele>
        <time>2021-06-01T11:50:58Z</time>
      </trkpt>
      <trkpt lat="45.69309" lon="6.65597">
        <ele>1627.2</ele>
        <time>2021-06-01T11:50:59Z</time>
      </trkpt>
      <trkpt lat="45.69307" lon="6.65595">
        <ele>1627.4</ele>
        <time>2021-06-01T11:51:00Z</time>
      </trkpt>
      <trkpt lat="45.69304" lon="6.65593">
        <ele>1627.4</ele>
        <time>2021-06-01T11:51:01Z</time>
      </trkpt>
      <trkpt lat="45.69302" lon="6.65592">
        <ele>1627.6</ele>
        <time>2021-06-01T11:51:02Z</time>
      </trkpt>
      <trkpt lat="45.69299" lon="6.65591">
        <ele>1627.6</ele>
        <time>2021-06-01T11:51:03Z</time>
      </trkpt>
      <trkpt lat="45.69297" lon="6.65589">
        <ele>1627.8</ele>
        <time>2021-06-01T11:51:04Z</time>
      </trkpt>
      <trkpt lat="45.69295" lon="6.65587">
        <ele>1628</ele>
        <time>2021-06-01T11:51:05Z</time>
      </trkpt>
      <trkpt lat="45.69293" lon="6.65585">
        <ele>1628.2</ele>
        <time>2021-06-01T11:51:06Z</time>
      </trkpt>
      <trkpt lat="45.69291" lon="6.65583">
        <ele>1628.4</ele>
        <time>2021-06-01T11:51:07Z</time>
      </trkpt>
      <trkpt lat="45.69288" lon="6.65581">
        <ele>1628.6</ele>
        <time>2021-06-01T11:51:08Z</time>
      </trkpt>
      <trkpt lat="45.69286" lon="6.65579">
        <ele>1628.6</ele>
        <time>2021-06-01T11:51:09Z</time>
      </trkpt>
      <trkpt lat="45.69284" lon="6.65577">
        <ele>1628.8</ele>
        <time>2021-06-01T11:51:10Z</time>
      </trkpt>
      <trkpt lat="45.69281" lon="6.65574">
        <ele>1629</ele>
        <time>2021-06-01T11:51:11Z</time>
      </trkpt>
      <trkpt lat="45.69279" lon="6.65572">
        <ele>1629.2</ele>
        <time>2021-06-01T11:51:12Z</time>
      </trkpt>
      <trkpt lat="45.69277" lon="6.6557">
        <ele>1629.6</ele>
        <time>2021-06-01T11:51:13Z</time>
      </trkpt>
      <trkpt lat="45.69275" lon="6.65568">
        <ele>1630</ele>
        <time>2021-06-01T11:51:14Z</time>
      </trkpt>
      <trkpt lat="45.69272" lon="6.65566">
        <ele>1630.2</ele>
        <time>2021-06-01T11:51:15Z</time>
      </trkpt>
      <trkpt lat="45.6927" lon="6.65564">
        <ele>1630.4</ele>
        <time>2021-06-01T11:51:16Z</time>
      </trkpt>
      <trkpt lat="45.69268" lon="6.65562">
        <ele>1630.6</ele>
        <time>2021-06-01T11:51:17Z</time>
      </trkpt>
      <trkpt lat="45.69266" lon="6.6556">
        <ele>1630.8</ele>
        <time>2021-06-01T11:51:18Z</time>
      </trkpt>
      <trkpt lat="45.69263" lon="6.65557">
        <ele>1631.2</ele>
        <time>2021-06-01T11:51:19Z</time>
      </trkpt>
      <trkpt lat="45.69261" lon="6.65555">
        <ele>1631.4</ele>
        <time>2021-06-01T11:51:20Z</time>
      </trkpt>
      <trkpt lat="45.6926" lon="6.65552">
        <ele>1631.6</ele>
        <time>2021-06-01T11:51:21Z</time>
      </trkpt>
      <trkpt lat="45.69257" lon="6.6555">
        <ele>1631.8</ele>
        <time>2021-06-01T11:51:22Z</time>
      </trkpt>
      <trkpt lat="45.69255" lon="6.65547">
        <ele>1632.2</ele>
        <time>2021-06-01T11:51:23Z</time>
      </trkpt>
      <trkpt lat="45.69253" lon="6.65544">
        <ele>1632.4</ele>
        <time>2021-06-01T11:51:24Z</time>
      </trkpt>
      <trkpt lat="45.69251" lon="6.65541">
        <ele>1632.8</ele>
        <time>2021-06-01T11:51:25Z</time>
      </trkpt>
      <trkpt lat="45.6925" lon="6.65538">
        <ele>1633</ele>
        <time>2021-06-01T11:51:26Z</time>
      </trkpt>
      <trkpt lat="45.69248" lon="6.65535">
        <ele>1633.4</ele>
        <time>2021-06-01T11:51:27Z</time>
      </trkpt>
      <trkpt lat="45.69246" lon="6.65533">
        <ele>1633.6</ele>
        <time>2021-06-01T11:51:28Z</time>
      </trkpt>
      <trkpt lat="45.69244" lon="6.6553">
        <ele>1634</ele>
        <time>2021-06-01T11:51:29Z</time>
      </trkpt>
      <trkpt lat="45.69243" lon="6.65527">
        <ele>1634.4</ele>
        <time>2021-06-01T11:51:30Z</time>
      </trkpt>
      <trkpt lat="45.6924" lon="6.65524">
        <ele>1634.8</ele>
        <time>2021-06-01T11:51:31Z</time>
      </trkpt>
      <trkpt lat="45.69239" lon="6.65521">
        <ele>1635</ele>
        <time>2021-06-01T11:51:32Z</time>
      </trkpt>
      <trkpt lat="45.69237" lon="6.65518">
        <ele>1635.4</ele>
        <time>2021-06-01T11:51:33Z</time>
      </trkpt>
      <trkpt lat="45.69235" lon="6.65515">
        <ele>1635.6</ele>
        <time>2021-06-01T11:51:34Z</time>
      </trkpt>
      <trkpt lat="45.69233" lon="6.65512">
        <ele>1635.8</ele>
        <time>2021-06-01T11:51:35Z</time>
      </trkpt>
      <trkpt lat="45.69231" lon="6.65508">
        <ele>1636</ele>
        <time>2021-06-01T11:51:36Z</time>
      </trkpt>
      <trkpt lat="45.69229" lon="6.65505">
        <ele>1636.2</ele>
        <time>2021-06-01T11:51:37Z</time>
      </trkpt>
      <trkpt lat="45.69228" lon="6.65502">
        <ele>1636.4</ele>
        <time>2021-06-01T11:51:38Z</time>
      </trkpt>
      <trkpt lat="45.69226" lon="6.65499">
        <ele>1636.6</ele>
        <time>2021-06-01T11:51:39Z</time>
      </trkpt>
      <trkpt lat="45.69224" lon="6.65495">
        <ele>1637</ele>
        <time>2021-06-01T11:51:40Z</time>
      </trkpt>
      <trkpt lat="45.69223" lon="6.65491">
        <ele>1637</ele>
        <time>2021-06-01T11:51:41Z</time>
      </trkpt>
      <trkpt lat="45.69221" lon="6.65488">
        <ele>1637.4</ele>
        <time>2021-06-01T11:51:42Z</time>
      </trkpt>
      <trkpt lat="45.69219" lon="6.65485">
        <ele>1637.6</ele>
        <time>2021-06-01T11:51:43Z</time>
      </trkpt>
      <trkpt lat="45.69217" lon="6.65482">
        <ele>1637.6</ele>
        <time>2021-06-01T11:51:44Z</time>
      </trkpt>
      <trkpt lat="45.69215" lon="6.65479">
        <ele>1638</ele>
        <time>2021-06-01T11:51:45Z</time>
      </trkpt>
      <trkpt lat="45.69213" lon="6.65476">
        <ele>1638.4</ele>
        <time>2021-06-01T11:51:46Z</time>
      </trkpt>
      <trkpt lat="45.69211" lon="6.65474">
        <ele>1638.6</ele>
        <time>2021-06-01T11:51:47Z</time>
      </trkpt>
      <trkpt lat="45.69209" lon="6.65471">
        <ele>1638.8</ele>
        <time>2021-06-01T11:51:48Z</time>
      </trkpt>
      <trkpt lat="45.69207" lon="6.65467">
        <ele>1639.2</ele>
        <time>2021-06-01T11:51:49Z</time>
      </trkpt>
      <trkpt lat="45.69205" lon="6.65463">
        <ele>1639.2</ele>
        <time>2021-06-01T11:51:50Z</time>
      </trkpt>
      <trkpt lat="45.69203" lon="6.6546">
        <ele>1639.4</ele>
        <time>2021-06-01T11:51:51Z</time>
      </trkpt>
      <trkpt lat="45.69199" lon="6.65458">
        <ele>1639.8</ele>
        <time>2021-06-01T11:51:52Z</time>
      </trkpt>
      <trkpt lat="45.69196" lon="6.65456">
        <ele>1640</ele>
        <time>2021-06-01T11:51:53Z</time>
      </trkpt>
      <trkpt lat="45.69195" lon="6.65454">
        <ele>1640.2</ele>
        <time>2021-06-01T11:51:54Z</time>
      </trkpt>
      <trkpt lat="45.69192" lon="6.65451">
        <ele>1640.6</ele>
        <time>2021-06-01T11:51:55Z</time>
      </trkpt>
      <trkpt lat="45.6919" lon="6.65448">
        <ele>1640.6</ele>
        <time>2021-06-01T11:51:56Z</time>
      </trkpt>
      <trkpt lat="45.69188" lon="6.65446">
        <ele>1640.8</ele>
        <time>2021-06-01T11:51:57Z</time>
      </trkpt>
      <trkpt lat="45.69186" lon="6.65444">
        <ele>1641</ele>
        <time>2021-06-01T11:51:58Z</time>
      </trkpt>
      <trkpt lat="45.69184" lon="6.65441">
        <ele>1641.2</ele>
        <time>2021-06-01T11:51:59Z</time>
      </trkpt>
      <trkpt lat="45.69181" lon="6.65438">
        <ele>1641.4</ele>
        <time>2021-06-01T11:52:00Z</time>
      </trkpt>
      <trkpt lat="45.69179" lon="6.65435">
        <ele>1641.4</ele>
        <time>2021-06-01T11:52:01Z</time>
      </trkpt>
      <trkpt lat="45.69177" lon="6.65432">
        <ele>1641.6</ele>
        <time>2021-06-01T11:52:02Z</time>
      </trkpt>
      <trkpt lat="45.69175" lon="6.65429">
        <ele>1641.8</ele>
        <time>2021-06-01T11:52:03Z</time>
      </trkpt>
      <trkpt lat="45.69172" lon="6.65426">
        <ele>1642</ele>
        <time>2021-06-01T11:52:04Z</time>
      </trkpt>
      <trkpt lat="45.69169" lon="6.65423">
        <ele>1642.2</ele>
        <time>2021-06-01T11:52:05Z</time>
      </trkpt>
      <trkpt lat="45.69167" lon="6.6542">
        <ele>1642.2</ele>
        <time>2021-06-01T11:52:06Z</time>
      </trkpt>
      <trkpt lat="45.69164" lon="6.65417">
        <ele>1642.4</ele>
        <time>2021-06-01T11:52:07Z</time>
      </trkpt>
      <trkpt lat="45.69162" lon="6.65414">
        <ele>1642.4</ele>
        <time>2021-06-01T11:52:08Z</time>
      </trkpt>
      <trkpt lat="45.69158" lon="6.65411">
        <ele>1642.6</ele>
        <time>2021-06-01T11:52:09Z</time>
      </trkpt>
      <trkpt lat="45.69156" lon="6.65408">
        <ele>1642.6</ele>
        <time>2021-06-01T11:52:10Z</time>
      </trkpt>
      <trkpt lat="45.69154" lon="6.65405">
        <ele>1642.8</ele>
        <time>2021-06-01T11:52:11Z</time>
      </trkpt>
      <trkpt lat="45.69151" lon="6.65402">
        <ele>1643</ele>
        <time>2021-06-01T11:52:12Z</time>
      </trkpt>
      <trkpt lat="45.69148" lon="6.654">
        <ele>1643</ele>
        <time>2021-06-01T11:52:13Z</time>
      </trkpt>
      <trkpt lat="45.69146" lon="6.65396">
        <ele>1643.2</ele>
        <time>2021-06-01T11:52:14Z</time>
      </trkpt>
      <trkpt lat="45.69142" lon="6.65393">
        <ele>1643.4</ele>
        <time>2021-06-01T11:52:15Z</time>
      </trkpt>
      <trkpt lat="45.6914" lon="6.6539">
        <ele>1643.4</ele>
        <time>2021-06-01T11:52:16Z</time>
      </trkpt>
      <trkpt lat="45.69138" lon="6.65387">
        <ele>1643.6</ele>
        <time>2021-06-01T11:52:17Z</time>
      </trkpt>
      <trkpt lat="45.69136" lon="6.65384">
        <ele>1643.6</ele>
        <time>2021-06-01T11:52:18Z</time>
      </trkpt>
      <trkpt lat="45.69133" lon="6.6538">
        <ele>1643.8</ele>
        <time>2021-06-01T11:52:19Z</time>
      </trkpt>
      <trkpt lat="45.69131" lon="6.65377">
        <ele>1643.8</ele>
        <time>2021-06-01T11:52:20Z</time>
      </trkpt>
      <trkpt lat="45.69129" lon="6.65374">
        <ele>1644</ele>
        <time>2021-06-01T11:52:21Z</time>
      </trkpt>
      <trkpt lat="45.69127" lon="6.6537">
        <ele>1644.2</ele>
        <time>2021-06-01T11:52:22Z</time>
      </trkpt>
      <trkpt lat="45.69125" lon="6.65367">
        <ele>1644.4</ele>
        <time>2021-06-01T11:52:23Z</time>
      </trkpt>
      <trkpt lat="45.69123" lon="6.65364">
        <ele>1644.6</ele>
        <time>2021-06-01T11:52:24Z</time>
      </trkpt>
      <trkpt lat="45.6912" lon="6.65362">
        <ele>1644.8</ele>
        <time>2021-06-01T11:52:25Z</time>
      </trkpt>
      <trkpt lat="45.69117" lon="6.6536">
        <ele>1645</ele>
        <time>2021-06-01T11:52:26Z</time>
      </trkpt>
      <trkpt lat="45.69114" lon="6.6536">
        <ele>1645.2</ele>
        <time>2021-06-01T11:52:27Z</time>
      </trkpt>
      <trkpt lat="45.69112" lon="6.65361">
        <ele>1645.4</ele>
        <time>2021-06-01T11:52:28Z</time>
      </trkpt>
      <trkpt lat="45.69109" lon="6.65363">
        <ele>1645.6</ele>
        <time>2021-06-01T11:52:29Z</time>
      </trkpt>
      <trkpt lat="45.69108" lon="6.65366">
        <ele>1645.6</ele>
        <time>2021-06-01T11:52:30Z</time>
      </trkpt>
      <trkpt lat="45.69107" lon="6.65371">
        <ele>1646</ele>
        <time>2021-06-01T11:52:31Z</time>
      </trkpt>
      <trkpt lat="45.69108" lon="6.65375">
        <ele>1646</ele>
        <time>2021-06-01T11:52:32Z</time>
      </trkpt>
      <trkpt lat="45.69109" lon="6.65378">
        <ele>1646.2</ele>
        <time>2021-06-01T11:52:33Z</time>
      </trkpt>
      <trkpt lat="45.69112" lon="6.65382">
        <ele>1646.2</ele>
        <time>2021-06-01T11:52:34Z</time>
      </trkpt>
      <trkpt lat="45.69114" lon="6.65385">
        <ele>1646.4</ele>
        <time>2021-06-01T11:52:35Z</time>
      </trkpt>
      <trkpt lat="45.69117" lon="6.65387">
        <ele>1646.8</ele>
        <time>2021-06-01T11:52:36Z</time>
      </trkpt>
      <trkpt lat="45.69119" lon="6.6539">
        <ele>1647</ele>
        <time>2021-06-01T11:52:37Z</time>
      </trkpt>
      <trkpt lat="45.69122" lon="6.65392">
        <ele>1647.2</ele>
        <time>2021-06-01T11:52:38Z</time>
      </trkpt>
      <trkpt lat="45.69124" lon="6.65395">
        <ele>1647.4</ele>
        <time>2021-06-01T11:52:39Z</time>
      </trkpt>
      <trkpt lat="45.69126" lon="6.65398">
        <ele>1647.8</ele>
        <time>2021-06-01T11:52:40Z</time>
      </trkpt>
      <trkpt lat="45.69128" lon="6.65401">
        <ele>1648.2</ele>
        <time>2021-06-01T11:52:41Z</time>
      </trkpt>
      <trkpt lat="45.6913" lon="6.65404">
        <ele>1648.4</ele>
        <time>2021-06-01T11:52:42Z</time>
      </trkpt>
      <trkpt lat="45.69132" lon="6.65407">
        <ele>1648.6</ele>
        <time>2021-06-01T11:52:43Z</time>
      </trkpt>
      <trkpt lat="45.69134" lon="6.6541">
        <ele>1648.8</ele>
        <time>2021-06-01T11:52:44Z</time>
      </trkpt>
      <trkpt lat="45.69136" lon="6.65413">
        <ele>1649.2</ele>
        <time>2021-06-01T11:52:45Z</time>
      </trkpt>
      <trkpt lat="45.69138" lon="6.65415">
        <ele>1649.4</ele>
        <time>2021-06-01T11:52:46Z</time>
      </trkpt>
      <trkpt lat="45.6914" lon="6.65418">
        <ele>1649.8</ele>
        <time>2021-06-01T11:52:47Z</time>
      </trkpt>
      <trkpt lat="45.69141" lon="6.65421">
        <ele>1650.2</ele>
        <time>2021-06-01T11:52:48Z</time>
      </trkpt>
      <trkpt lat="45.69142" lon="6.65424">
        <ele>1650.6</ele>
        <time>2021-06-01T11:52:49Z</time>
      </trkpt>
      <trkpt lat="45.69144" lon="6.65427">
        <ele>1650.8</ele>
        <time>2021-06-01T11:52:50Z</time>
      </trkpt>
      <trkpt lat="45.69146" lon="6.65429">
        <ele>1651.2</ele>
        <time>2021-06-01T11:52:51Z</time>
      </trkpt>
      <trkpt lat="45.69148" lon="6.65432">
        <ele>1651.6</ele>
        <time>2021-06-01T11:52:52Z</time>
      </trkpt>
      <trkpt lat="45.6915" lon="6.65435">
        <ele>1652</ele>
        <time>2021-06-01T11:52:53Z</time>
      </trkpt>
      <trkpt lat="45.69151" lon="6.65438">
        <ele>1652.2</ele>
        <time>2021-06-01T11:52:54Z</time>
      </trkpt>
      <trkpt lat="45.69153" lon="6.6544">
        <ele>1652.4</ele>
        <time>2021-06-01T11:52:55Z</time>
      </trkpt>
      <trkpt lat="45.69155" lon="6.65443">
        <ele>1652.6</ele>
        <time>2021-06-01T11:52:56Z</time>
      </trkpt>
      <trkpt lat="45.69156" lon="6.65445">
        <ele>1653</ele>
        <time>2021-06-01T11:52:57Z</time>
      </trkpt>
      <trkpt lat="45.69158" lon="6.65448">
        <ele>1653.4</ele>
        <time>2021-06-01T11:52:58Z</time>
      </trkpt>
      <trkpt lat="45.69159" lon="6.6545">
        <ele>1653.8</ele>
        <time>2021-06-01T11:52:59Z</time>
      </trkpt>
      <trkpt lat="45.69161" lon="6.65453">
        <ele>1654.2</ele>
        <time>2021-06-01T11:53:00Z</time>
      </trkpt>
      <trkpt lat="45.69162" lon="6.65456">
        <ele>1654.4</ele>
        <time>2021-06-01T11:53:01Z</time>
      </trkpt>
      <trkpt lat="45.69164" lon="6.65459">
        <ele>1654.8</ele>
        <time>2021-06-01T11:53:02Z</time>
      </trkpt>
      <trkpt lat="45.69165" lon="6.65461">
        <ele>1655</ele>
        <time>2021-06-01T11:53:03Z</time>
      </trkpt>
      <trkpt lat="45.69166" lon="6.65464">
        <ele>1655.2</ele>
        <time>2021-06-01T11:53:04Z</time>
      </trkpt>
      <trkpt lat="45.69167" lon="6.65467">
        <ele>1655.6</ele>
        <time>2021-06-01T11:53:05Z</time>
      </trkpt>
      <trkpt lat="45.69168" lon="6.65469">
        <ele>1656</ele>
        <time>2021-06-01T11:53:06Z</time>
      </trkpt>
      <trkpt lat="45.6917" lon="6.65472">
        <ele>1656.4</ele>
        <time>2021-06-01T11:53:07Z</time>
      </trkpt>
      <trkpt lat="45.69171" lon="6.65475">
        <ele>1656.6</ele>
        <time>2021-06-01T11:53:08Z</time>
      </trkpt>
      <trkpt lat="45.69173" lon="6.65477">
        <ele>1657</ele>
        <time>2021-06-01T11:53:09Z</time>
      </trkpt>
      <trkpt lat="45.69174" lon="6.6548">
        <ele>1657.2</ele>
        <time>2021-06-01T11:53:10Z</time>
      </trkpt>
      <trkpt lat="45.69176" lon="6.65483">
        <ele>1657.6</ele>
        <time>2021-06-01T11:53:11Z</time>
      </trkpt>
      <trkpt lat="45.69177" lon="6.65486">
        <ele>1657.8</ele>
        <time>2021-06-01T11:53:12Z</time>
      </trkpt>
      <trkpt lat="45.69178" lon="6.65489">
        <ele>1658.2</ele>
        <time>2021-06-01T11:53:13Z</time>
      </trkpt>
      <trkpt lat="45.6918" lon="6.65492">
        <ele>1658.4</ele>
        <time>2021-06-01T11:53:14Z</time>
      </trkpt>
      <trkpt lat="45.69181" lon="6.65495">
        <ele>1658.6</ele>
        <time>2021-06-01T11:53:15Z</time>
      </trkpt>
      <trkpt lat="45.69183" lon="6.65498">
        <ele>1659</ele>
        <time>2021-06-01T11:53:16Z</time>
      </trkpt>
      <trkpt lat="45.69183" lon="6.65501">
        <ele>1659.2</ele>
        <time>2021-06-01T11:53:17Z</time>
      </trkpt>
      <trkpt lat="45.69185" lon="6.65505">
        <ele>1659.6</ele>
        <time>2021-06-01T11:53:18Z</time>
      </trkpt>
      <trkpt lat="45.69186" lon="6.65508">
        <ele>1660</ele>
        <time>2021-06-01T11:53:19Z</time>
      </trkpt>
      <trkpt lat="45.69187" lon="6.65511">
        <ele>1660.2</ele>
        <time>2021-06-01T11:53:20Z</time>
      </trkpt>
      <trkpt lat="45.69189" lon="6.65514">
        <ele>1660.4</ele>
        <time>2021-06-01T11:53:21Z</time>
      </trkpt>
      <trkpt lat="45.69191" lon="6.65517">
        <ele>1660.8</ele>
        <time>2021-06-01T11:53:22Z</time>
      </trkpt>
      <trkpt lat="45.69193" lon="6.6552">
        <ele>1661.2</ele>
        <time>2021-06-01T11:53:23Z</time>
      </trkpt>
      <trkpt lat="45.69194" lon="6.65524">
        <ele>1661.6</ele>
        <time>2021-06-01T11:53:24Z</time>
      </trkpt>
      <trkpt lat="45.69196" lon="6.65528">
        <ele>1661.8</ele>
        <time>2021-06-01T11:53:25Z</time>
      </trkpt>
      <trkpt lat="45.69197" lon="6.65532">
        <ele>1662.2</ele>
        <time>2021-06-01T11:53:26Z</time>
      </trkpt>
      <trkpt lat="45.69198" lon="6.65536">
        <ele>1662.6</ele>
        <time>2021-06-01T11:53:27Z</time>
      </trkpt>
      <trkpt lat="45.692" lon="6.65541">
        <ele>1662.8</ele>
        <time>2021-06-01T11:53:28Z</time>
      </trkpt>
      <trkpt lat="45.69201" lon="6.65545">
        <ele>1663</ele>
        <time>2021-06-01T11:53:29Z</time>
      </trkpt>
      <trkpt lat="45.69203" lon="6.65549">
        <ele>1663.2</ele>
        <time>2021-06-01T11:53:30Z</time>
      </trkpt>
      <trkpt lat="45.69204" lon="6.65553">
        <ele>1663.6</ele>
        <time>2021-06-01T11:53:31Z</time>
      </trkpt>
      <trkpt lat="45.69204" lon="6.65557">
        <ele>1664</ele>
        <time>2021-06-01T11:53:32Z</time>
      </trkpt>
      <trkpt lat="45.69205" lon="6.6556">
        <ele>1664.2</ele>
        <time>2021-06-01T11:53:33Z</time>
      </trkpt>
      <trkpt lat="45.69207" lon="6.65565">
        <ele>1664.4</ele>
        <time>2021-06-01T11:53:34Z</time>
      </trkpt>
      <trkpt lat="45.69208" lon="6.65568">
        <ele>1664.8</ele>
        <time>2021-06-01T11:53:35Z</time>
      </trkpt>
      <trkpt lat="45.6921" lon="6.65572">
        <ele>1665</ele>
        <time>2021-06-01T11:53:36Z</time>
      </trkpt>
      <trkpt lat="45.69211" lon="6.65575">
        <ele>1665.2</ele>
        <time>2021-06-01T11:53:37Z</time>
      </trkpt>
      <trkpt lat="45.69213" lon="6.65579">
        <ele>1665.6</ele>
        <time>2021-06-01T11:53:38Z</time>
      </trkpt>
      <trkpt lat="45.69214" lon="6.65582">
        <ele>1665.8</ele>
        <time>2021-06-01T11:53:39Z</time>
      </trkpt>
      <trkpt lat="45.69216" lon="6.65586">
        <ele>1666</ele>
        <time>2021-06-01T11:53:40Z</time>
      </trkpt>
      <trkpt lat="45.69217" lon="6.65589">
        <ele>1666.4</ele>
        <time>2021-06-01T11:53:41Z</time>
      </trkpt>
      <trkpt lat="45.69219" lon="6.65593">
        <ele>1666.6</ele>
        <time>2021-06-01T11:53:42Z</time>
      </trkpt>
      <trkpt lat="45.6922" lon="6.65596">
        <ele>1667</ele>
        <time>2021-06-01T11:53:43Z</time>
      </trkpt>
      <trkpt lat="45.69221" lon="6.656">
        <ele>1667.2</ele>
        <time>2021-06-01T11:53:44Z</time>
      </trkpt>
      <trkpt lat="45.69223" lon="6.65603">
        <ele>1667.6</ele>
        <time>2021-06-01T11:53:45Z</time>
      </trkpt>
      <trkpt lat="45.69225" lon="6.65606">
        <ele>1668</ele>
        <time>2021-06-01T11:53:46Z</time>
      </trkpt>
      <trkpt lat="45.69227" lon="6.6561">
        <ele>1668.2</ele>
        <time>2021-06-01T11:53:47Z</time>
      </trkpt>
      <trkpt lat="45.69228" lon="6.65613">
        <ele>1668.8</ele>
        <time>2021-06-01T11:53:48Z</time>
      </trkpt>
      <trkpt lat="45.6923" lon="6.65616">
        <ele>1669</ele>
        <time>2021-06-01T11:53:49Z</time>
      </trkpt>
      <trkpt lat="45.69232" lon="6.6562">
        <ele>1669.2</ele>
        <time>2021-06-01T11:53:50Z</time>
      </trkpt>
      <trkpt lat="45.69233" lon="6.65623">
        <ele>1669.6</ele>
        <time>2021-06-01T11:53:51Z</time>
      </trkpt>
      <trkpt lat="45.69235" lon="6.65626">
        <ele>1669.8</ele>
        <time>2021-06-01T11:53:52Z</time>
      </trkpt>
      <trkpt lat="45.69236" lon="6.65629">
        <ele>1670.2</ele>
        <time>2021-06-01T11:53:53Z</time>
      </trkpt>
      <trkpt lat="45.69238" lon="6.65633">
        <ele>1670.4</ele>
        <time>2021-06-01T11:53:54Z</time>
      </trkpt>
      <trkpt lat="45.6924" lon="6.65636">
        <ele>1670.8</ele>
        <time>2021-06-01T11:53:55Z</time>
      </trkpt>
      <trkpt lat="45.69242" lon="6.65639">
        <ele>1671</ele>
        <time>2021-06-01T11:53:56Z</time>
      </trkpt>
      <trkpt lat="45.69244" lon="6.65642">
        <ele>1671.4</ele>
        <time>2021-06-01T11:53:57Z</time>
      </trkpt>
      <trkpt lat="45.69245" lon="6.65645">
        <ele>1671.6</ele>
        <time>2021-06-01T11:53:58Z</time>
      </trkpt>
      <trkpt lat="45.69247" lon="6.65648">
        <ele>1672</ele>
        <time>2021-06-01T11:53:59Z</time>
      </trkpt>
      <trkpt lat="45.69249" lon="6.65651">
        <ele>1672.4</ele>
        <time>2021-06-01T11:54:00Z</time>
      </trkpt>
      <trkpt lat="45.69251" lon="6.65654">
        <ele>1672.8</ele>
        <time>2021-06-01T11:54:01Z</time>
      </trkpt>
      <trkpt lat="45.69253" lon="6.65657">
        <ele>1673.2</ele>
        <time>2021-06-01T11:54:02Z</time>
      </trkpt>
      <trkpt lat="45.69255" lon="6.65659">
        <ele>1673.4</ele>
        <time>2021-06-01T11:54:03Z</time>
      </trkpt>
      <trkpt lat="45.69257" lon="6.65662">
        <ele>1673.6</ele>
        <time>2021-06-01T11:54:04Z</time>
      </trkpt>
      <trkpt lat="45.69259" lon="6.65665">
        <ele>1674</ele>
        <time>2021-06-01T11:54:05Z</time>
      </trkpt>
      <trkpt lat="45.69261" lon="6.65668">
        <ele>1674.2</ele>
        <time>2021-06-01T11:54:06Z</time>
      </trkpt>
      <trkpt lat="45.69263" lon="6.65671">
        <ele>1674.6</ele>
        <time>2021-06-01T11:54:07Z</time>
      </trkpt>
      <trkpt lat="45.69265" lon="6.65674">
        <ele>1675</ele>
        <time>2021-06-01T11:54:08Z</time>
      </trkpt>
      <trkpt lat="45.69266" lon="6.65677">
        <ele>1675.4</ele>
        <time>2021-06-01T11:54:09Z</time>
      </trkpt>
      <trkpt lat="45.69268" lon="6.65681">
        <ele>1675.6</ele>
        <time>2021-06-01T11:54:10Z</time>
      </trkpt>
      <trkpt lat="45.69269" lon="6.65684">
        <ele>1675.8</ele>
        <time>2021-06-01T11:54:11Z</time>
      </trkpt>
      <trkpt lat="45.69271" lon="6.65687">
        <ele>1676.2</ele>
        <time>2021-06-01T11:54:12Z</time>
      </trkpt>
      <trkpt lat="45.69273" lon="6.65691">
        <ele>1676.4</ele>
        <time>2021-06-01T11:54:13Z</time>
      </trkpt>
      <trkpt lat="45.69275" lon="6.65694">
        <ele>1676.8</ele>
        <time>2021-06-01T11:54:14Z</time>
      </trkpt>
      <trkpt lat="45.69276" lon="6.65697">
        <ele>1677</ele>
        <time>2021-06-01T11:54:15Z</time>
      </trkpt>
      <trkpt lat="45.69278" lon="6.657">
        <ele>1677.4</ele>
        <time>2021-06-01T11:54:16Z</time>
      </trkpt>
      <trkpt lat="45.6928" lon="6.65704">
        <ele>1677.6</ele>
        <time>2021-06-01T11:54:17Z</time>
      </trkpt>
      <trkpt lat="45.69282" lon="6.65707">
        <ele>1678</ele>
        <time>2021-06-01T11:54:18Z</time>
      </trkpt>
      <trkpt lat="45.69283" lon="6.6571">
        <ele>1678.2</ele>
        <time>2021-06-01T11:54:19Z</time>
      </trkpt>
      <trkpt lat="45.69285" lon="6.65713">
        <ele>1678.4</ele>
        <time>2021-06-01T11:54:20Z</time>
      </trkpt>
      <trkpt lat="45.69287" lon="6.65716">
        <ele>1678.8</ele>
        <time>2021-06-01T11:54:21Z</time>
      </trkpt>
      <trkpt lat="45.69289" lon="6.6572">
        <ele>1679</ele>
        <time>2021-06-01T11:54:22Z</time>
      </trkpt>
      <trkpt lat="45.69291" lon="6.65723">
        <ele>1679.2</ele>
        <time>2021-06-01T11:54:23Z</time>
      </trkpt>
      <trkpt lat="45.69292" lon="6.65725">
        <ele>1679.2</ele>
        <time>2021-06-01T11:54:24Z</time>
      </trkpt>
      <trkpt lat="45.69295" lon="6.65728">
        <ele>1679.6</ele>
        <time>2021-06-01T11:54:25Z</time>
      </trkpt>
      <trkpt lat="45.69297" lon="6.65731">
        <ele>1679.8</ele>
        <time>2021-06-01T11:54:26Z</time>
      </trkpt>
      <trkpt lat="45.69299" lon="6.65734">
        <ele>1680</ele>
        <time>2021-06-01T11:54:27Z</time>
      </trkpt>
      <trkpt lat="45.69301" lon="6.65737">
        <ele>1680.4</ele>
        <time>2021-06-01T11:54:28Z</time>
      </trkpt>
      <trkpt lat="45.69303" lon="6.6574">
        <ele>1680.4</ele>
        <time>2021-06-01T11:54:29Z</time>
      </trkpt>
      <trkpt lat="45.69304" lon="6.65743">
        <ele>1680.6</ele>
        <time>2021-06-01T11:54:30Z</time>
      </trkpt>
      <trkpt lat="45.69306" lon="6.65747">
        <ele>1681</ele>
        <time>2021-06-01T11:54:31Z</time>
      </trkpt>
      <trkpt lat="45.69307" lon="6.6575">
        <ele>1681</ele>
        <time>2021-06-01T11:54:32Z</time>
      </trkpt>
      <trkpt lat="45.69308" lon="6.65754">
        <ele>1681.4</ele>
        <time>2021-06-01T11:54:33Z</time>
      </trkpt>
      <trkpt lat="45.69309" lon="6.65757">
        <ele>1681.6</ele>
        <time>2021-06-01T11:54:34Z</time>
      </trkpt>
      <trkpt lat="45.69311" lon="6.6576">
        <ele>1681.8</ele>
        <time>2021-06-01T11:54:35Z</time>
      </trkpt>
      <trkpt lat="45.69312" lon="6.65763">
        <ele>1682</ele>
        <time>2021-06-01T11:54:36Z</time>
      </trkpt>
      <trkpt lat="45.69313" lon="6.65766">
        <ele>1682.4</ele>
        <time>2021-06-01T11:54:37Z</time>
      </trkpt>
      <trkpt lat="45.69314" lon="6.65769">
        <ele>1682.6</ele>
        <time>2021-06-01T11:54:38Z</time>
      </trkpt>
      <trkpt lat="45.69315" lon="6.65772">
        <ele>1683</ele>
        <time>2021-06-01T11:54:39Z</time>
      </trkpt>
      <trkpt lat="45.69316" lon="6.65775">
        <ele>1683.2</ele>
        <time>2021-06-01T11:54:40Z</time>
      </trkpt>
      <trkpt lat="45.69318" lon="6.65777">
        <ele>1683.4</ele>
        <time>2021-06-01T11:54:41Z</time>
      </trkpt>
      <trkpt lat="45.69319" lon="6.6578">
        <ele>1683.6</ele>
        <time>2021-06-01T11:54:42Z</time>
      </trkpt>
      <trkpt lat="45.6932" lon="6.65783">
        <ele>1684</ele>
        <time>2021-06-01T11:54:43Z</time>
      </trkpt>
      <trkpt lat="45.69322" lon="6.65786">
        <ele>1684.2</ele>
        <time>2021-06-01T11:54:44Z</time>
      </trkpt>
      <trkpt lat="45.69323" lon="6.65789">
        <ele>1684.6</ele>
        <time>2021-06-01T11:54:45Z</time>
      </trkpt>
      <trkpt lat="45.69324" lon="6.65791">
        <ele>1685.2</ele>
        <time>2021-06-01T11:54:46Z</time>
      </trkpt>
      <trkpt lat="45.69326" lon="6.65794">
        <ele>1685.4</ele>
        <time>2021-06-01T11:54:47Z</time>
      </trkpt>
      <trkpt lat="45.69328" lon="6.65796">
        <ele>1685.6</ele>
        <time>2021-06-01T11:54:48Z</time>
      </trkpt>
      <trkpt lat="45.6933" lon="6.65798">
        <ele>1686</ele>
        <time>2021-06-01T11:54:49Z</time>
      </trkpt>
      <trkpt lat="45.69332" lon="6.658">
        <ele>1686.2</ele>
        <time>2021-06-01T11:54:50Z</time>
      </trkpt>
      <trkpt lat="45.69335" lon="6.65803">
        <ele>1686.6</ele>
        <time>2021-06-01T11:54:51Z</time>
      </trkpt>
      <trkpt lat="45.69338" lon="6.65805">
        <ele>1687</ele>
        <time>2021-06-01T11:54:52Z</time>
      </trkpt>
      <trkpt lat="45.6934" lon="6.65807">
        <ele>1687.4</ele>
        <time>2021-06-01T11:54:53Z</time>
      </trkpt>
      <trkpt lat="45.69342" lon="6.6581">
        <ele>1687.6</ele>
        <time>2021-06-01T11:54:54Z</time>
      </trkpt>
      <trkpt lat="45.69345" lon="6.65813">
        <ele>1688</ele>
        <time>2021-06-01T11:54:55Z</time>
      </trkpt>
      <trkpt lat="45.69347" lon="6.65816">
        <ele>1688.2</ele>
        <time>2021-06-01T11:54:56Z</time>
      </trkpt>
      <trkpt lat="45.69349" lon="6.65819">
        <ele>1688.6</ele>
        <time>2021-06-01T11:54:57Z</time>
      </trkpt>
      <trkpt lat="45.69351" lon="6.65822">
        <ele>1688.8</ele>
        <time>2021-06-01T11:54:58Z</time>
      </trkpt>
      <trkpt lat="45.69353" lon="6.65826">
        <ele>1689</ele>
        <time>2021-06-01T11:54:59Z</time>
      </trkpt>
      <trkpt lat="45.69355" lon="6.65829">
        <ele>1689.2</ele>
        <time>2021-06-01T11:55:00Z</time>
      </trkpt>
      <trkpt lat="45.69357" lon="6.65832">
        <ele>1689.8</ele>
        <time>2021-06-01T11:55:01Z</time>
      </trkpt>
      <trkpt lat="45.69359" lon="6.65835">
        <ele>1690</ele>
        <time>2021-06-01T11:55:02Z</time>
      </trkpt>
      <trkpt lat="45.69361" lon="6.65838">
        <ele>1690.2</ele>
        <time>2021-06-01T11:55:03Z</time>
      </trkpt>
      <trkpt lat="45.69363" lon="6.65841">
        <ele>1690.6</ele>
        <time>2021-06-01T11:55:04Z</time>
      </trkpt>
      <trkpt lat="45.69365" lon="6.65845">
        <ele>1690.8</ele>
        <time>2021-06-01T11:55:05Z</time>
      </trkpt>
      <trkpt lat="45.69367" lon="6.65848">
        <ele>1691.2</ele>
        <time>2021-06-01T11:55:06Z</time>
      </trkpt>
      <trkpt lat="45.6937" lon="6.65851">
        <ele>1691.4</ele>
        <time>2021-06-01T11:55:07Z</time>
      </trkpt>
      <trkpt lat="45.69372" lon="6.65854">
        <ele>1691.8</ele>
        <time>2021-06-01T11:55:08Z</time>
      </trkpt>
      <trkpt lat="45.69373" lon="6.65858">
        <ele>1692.2</ele>
        <time>2021-06-01T11:55:09Z</time>
      </trkpt>
      <trkpt lat="45.69375" lon="6.65861">
        <ele>1692.6</ele>
        <time>2021-06-01T11:55:10Z</time>
      </trkpt>
      <trkpt lat="45.69377" lon="6.65865">
        <ele>1693</ele>
        <time>2021-06-01T11:55:11Z</time>
      </trkpt>
      <trkpt lat="45.69379" lon="6.65868">
        <ele>1693.2</ele>
        <time>2021-06-01T11:55:12Z</time>
      </trkpt>
      <trkpt lat="45.69381" lon="6.65871">
        <ele>1693.6</ele>
        <time>2021-06-01T11:55:13Z</time>
      </trkpt>
      <trkpt lat="45.69384" lon="6.65874">
        <ele>1693.8</ele>
        <time>2021-06-01T11:55:14Z</time>
      </trkpt>
      <trkpt lat="45.69386" lon="6.65877">
        <ele>1694</ele>
        <time>2021-06-01T11:55:15Z</time>
      </trkpt>
      <trkpt lat="45.69388" lon="6.6588">
        <ele>1694.4</ele>
        <time>2021-06-01T11:55:16Z</time>
      </trkpt>
      <trkpt lat="45.6939" lon="6.65883">
        <ele>1694.8</ele>
        <time>2021-06-01T11:55:17Z</time>
      </trkpt>
      <trkpt lat="45.69392" lon="6.65887">
        <ele>1695</ele>
        <time>2021-06-01T11:55:18Z</time>
      </trkpt>
      <trkpt lat="45.69395" lon="6.6589">
        <ele>1695.4</ele>
        <time>2021-06-01T11:55:19Z</time>
      </trkpt>
      <trkpt lat="45.69397" lon="6.65893">
        <ele>1695.6</ele>
        <time>2021-06-01T11:55:20Z</time>
      </trkpt>
      <trkpt lat="45.69399" lon="6.65896">
        <ele>1696</ele>
        <time>2021-06-01T11:55:21Z</time>
      </trkpt>
      <trkpt lat="45.69401" lon="6.65899">
        <ele>1696.2</ele>
        <time>2021-06-01T11:55:22Z</time>
      </trkpt>
      <trkpt lat="45.69404" lon="6.65902">
        <ele>1696.6</ele>
        <time>2021-06-01T11:55:23Z</time>
      </trkpt>
      <trkpt lat="45.69405" lon="6.65904">
        <ele>1697</ele>
        <time>2021-06-01T11:55:24Z</time>
      </trkpt>
      <trkpt lat="45.69408" lon="6.65907">
        <ele>1697.2</ele>
        <time>2021-06-01T11:55:25Z</time>
      </trkpt>
      <trkpt lat="45.6941" lon="6.6591">
        <ele>1697.6</ele>
        <time>2021-06-01T11:55:26Z</time>
      </trkpt>
      <trkpt lat="45.69412" lon="6.65913">
        <ele>1697.8</ele>
        <time>2021-06-01T11:55:27Z</time>
      </trkpt>
      <trkpt lat="45.69414" lon="6.65916">
        <ele>1698.2</ele>
        <time>2021-06-01T11:55:28Z</time>
      </trkpt>
      <trkpt lat="45.69416" lon="6.65919">
        <ele>1698.8</ele>
        <time>2021-06-01T11:55:29Z</time>
      </trkpt>
      <trkpt lat="45.69418" lon="6.65922">
        <ele>1699</ele>
        <time>2021-06-01T11:55:30Z</time>
      </trkpt>
      <trkpt lat="45.6942" lon="6.65925">
        <ele>1699.4</ele>
        <time>2021-06-01T11:55:31Z</time>
      </trkpt>
      <trkpt lat="45.69421" lon="6.65928">
        <ele>1699.6</ele>
        <time>2021-06-01T11:55:32Z</time>
      </trkpt>
      <trkpt lat="45.69424" lon="6.6593">
        <ele>1700</ele>
        <time>2021-06-01T11:55:33Z</time>
      </trkpt>
      <trkpt lat="45.69426" lon="6.65933">
        <ele>1700.4</ele>
        <time>2021-06-01T11:55:34Z</time>
      </trkpt>
      <trkpt lat="45.69428" lon="6.65935">
        <ele>1700.6</ele>
        <time>2021-06-01T11:55:35Z</time>
      </trkpt>
      <trkpt lat="45.69429" lon="6.65938">
        <ele>1701</ele>
        <time>2021-06-01T11:55:36Z</time>
      </trkpt>
      <trkpt lat="45.69431" lon="6.65941">
        <ele>1701.4</ele>
        <time>2021-06-01T11:55:37Z</time>
      </trkpt>
      <trkpt lat="45.69433" lon="6.65943">
        <ele>1701.8</ele>
        <time>2021-06-01T11:55:38Z</time>
      </trkpt>
      <trkpt lat="45.69435" lon="6.65946">
        <ele>1702</ele>
        <time>2021-06-01T11:55:39Z</time>
      </trkpt>
      <trkpt lat="45.69437" lon="6.65949">
        <ele>1702.4</ele>
        <time>2021-06-01T11:55:40Z</time>
      </trkpt>
      <trkpt lat="45.69438" lon="6.65951">
        <ele>1702.8</ele>
        <time>2021-06-01T11:55:41Z</time>
      </trkpt>
      <trkpt lat="45.6944" lon="6.65954">
        <ele>1703</ele>
        <time>2021-06-01T11:55:42Z</time>
      </trkpt>
      <trkpt lat="45.69442" lon="6.65956">
        <ele>1703.4</ele>
        <time>2021-06-01T11:55:43Z</time>
      </trkpt>
      <trkpt lat="45.69445" lon="6.65959">
        <ele>1703.8</ele>
        <time>2021-06-01T11:55:44Z</time>
      </trkpt>
      <trkpt lat="45.69447" lon="6.65961">
        <ele>1704.2</ele>
        <time>2021-06-01T11:55:45Z</time>
      </trkpt>
      <trkpt lat="45.69449" lon="6.65963">
        <ele>1704.6</ele>
        <time>2021-06-01T11:55:46Z</time>
      </trkpt>
      <trkpt lat="45.69451" lon="6.65966">
        <ele>1705</ele>
        <time>2021-06-01T11:55:47Z</time>
      </trkpt>
      <trkpt lat="45.69454" lon="6.65968">
        <ele>1705.4</ele>
        <time>2021-06-01T11:55:48Z</time>
      </trkpt>
      <trkpt lat="45.69456" lon="6.6597">
        <ele>1705.8</ele>
        <time>2021-06-01T11:55:49Z</time>
      </trkpt>
      <trkpt lat="45.69459" lon="6.65973">
        <ele>1706.4</ele>
        <time>2021-06-01T11:55:50Z</time>
      </trkpt>
      <trkpt lat="45.69461" lon="6.65975">
        <ele>1706.6</ele>
        <time>2021-06-01T11:55:51Z</time>
      </trkpt>
      <trkpt lat="45.69464" lon="6.65977">
        <ele>1707.2</ele>
        <time>2021-06-01T11:55:52Z</time>
      </trkpt>
      <trkpt lat="45.69467" lon="6.6598">
        <ele>1707.6</ele>
        <time>2021-06-01T11:55:53Z</time>
      </trkpt>
      <trkpt lat="45.69469" lon="6.65982">
        <ele>1707.8</ele>
        <time>2021-06-01T11:55:54Z</time>
      </trkpt>
      <trkpt lat="45.69471" lon="6.65984">
        <ele>1708</ele>
        <time>2021-06-01T11:55:55Z</time>
      </trkpt>
      <trkpt lat="45.69474" lon="6.65986">
        <ele>1708.4</ele>
        <time>2021-06-01T11:55:56Z</time>
      </trkpt>
      <trkpt lat="45.69476" lon="6.65988">
        <ele>1708.6</ele>
        <time>2021-06-01T11:55:57Z</time>
      </trkpt>
      <trkpt lat="45.69479" lon="6.6599">
        <ele>1709.2</ele>
        <time>2021-06-01T11:55:58Z</time>
      </trkpt>
      <trkpt lat="45.69482" lon="6.65992">
        <ele>1709.6</ele>
        <time>2021-06-01T11:55:59Z</time>
      </trkpt>
      <trkpt lat="45.69484" lon="6.65994">
        <ele>1710</ele>
        <time>2021-06-01T11:56:00Z</time>
      </trkpt>
      <trkpt lat="45.69487" lon="6.65997">
        <ele>1710.4</ele>
        <time>2021-06-01T11:56:01Z</time>
      </trkpt>
      <trkpt lat="45.69489" lon="6.65999">
        <ele>1710.6</ele>
        <time>2021-06-01T11:56:02Z</time>
      </trkpt>
      <trkpt lat="45.69491" lon="6.66001">
        <ele>1711</ele>
        <time>2021-06-01T11:56:03Z</time>
      </trkpt>
      <trkpt lat="45.69494" lon="6.66003">
        <ele>1711.4</ele>
        <time>2021-06-01T11:56:04Z</time>
      </trkpt>
      <trkpt lat="45.69497" lon="6.66005">
        <ele>1711.8</ele>
        <time>2021-06-01T11:56:05Z</time>
      </trkpt>
      <trkpt lat="45.69499" lon="6.66006">
        <ele>1712.2</ele>
        <time>2021-06-01T11:56:06Z</time>
      </trkpt>
      <trkpt lat="45.69501" lon="6.66008">
        <ele>1712.6</ele>
        <time>2021-06-01T11:56:07Z</time>
      </trkpt>
      <trkpt lat="45.69504" lon="6.6601">
        <ele>1713</ele>
        <time>2021-06-01T11:56:08Z</time>
      </trkpt>
      <trkpt lat="45.69507" lon="6.66012">
        <ele>1713.4</ele>
        <time>2021-06-01T11:56:09Z</time>
      </trkpt>
      <trkpt lat="45.69509" lon="6.66014">
        <ele>1713.6</ele>
        <time>2021-06-01T11:56:10Z</time>
      </trkpt>
      <trkpt lat="45.69511" lon="6.66016">
        <ele>1714</ele>
        <time>2021-06-01T11:56:11Z</time>
      </trkpt>
      <trkpt lat="45.69514" lon="6.66018">
        <ele>1714.4</ele>
        <time>2021-06-01T11:56:12Z</time>
      </trkpt>
      <trkpt lat="45.69516" lon="6.6602">
        <ele>1714.8</ele>
        <time>2021-06-01T11:56:13Z</time>
      </trkpt>
      <trkpt lat="45.69519" lon="6.66022">
        <ele>1715.2</ele>
        <time>2021-06-01T11:56:14Z</time>
      </trkpt>
      <trkpt lat="45.69521" lon="6.66024">
        <ele>1715.6</ele>
        <time>2021-06-01T11:56:15Z</time>
      </trkpt>
      <trkpt lat="45.69523" lon="6.66027">
        <ele>1715.8</ele>
        <time>2021-06-01T11:56:16Z</time>
      </trkpt>
      <trkpt lat="45.69525" lon="6.66029">
        <ele>1716.2</ele>
        <time>2021-06-01T11:56:17Z</time>
      </trkpt>
      <trkpt lat="45.69527" lon="6.66032">
        <ele>1716.6</ele>
        <time>2021-06-01T11:56:18Z</time>
      </trkpt>
      <trkpt lat="45.69529" lon="6.66035">
        <ele>1717</ele>
        <time>2021-06-01T11:56:19Z</time>
      </trkpt>
      <trkpt lat="45.69531" lon="6.66038">
        <ele>1717.2</ele>
        <time>2021-06-01T11:56:20Z</time>
      </trkpt>
      <trkpt lat="45.69533" lon="6.66041">
        <ele>1717.6</ele>
        <time>2021-06-01T11:56:21Z</time>
      </trkpt>
      <trkpt lat="45.69535" lon="6.66043">
        <ele>1717.8</ele>
        <time>2021-06-01T11:56:22Z</time>
      </trkpt>
      <trkpt lat="45.69537" lon="6.66046">
        <ele>1718.2</ele>
        <time>2021-06-01T11:56:23Z</time>
      </trkpt>
      <trkpt lat="45.69539" lon="6.66049">
        <ele>1718.6</ele>
        <time>2021-06-01T11:56:24Z</time>
      </trkpt>
      <trkpt lat="45.69541" lon="6.66052">
        <ele>1718.8</ele>
        <time>2021-06-01T11:56:25Z</time>
      </trkpt>
      <trkpt lat="45.69543" lon="6.66056">
        <ele>1719</ele>
        <time>2021-06-01T11:56:26Z</time>
      </trkpt>
      <trkpt lat="45.69545" lon="6.66059">
        <ele>1719.4</ele>
        <time>2021-06-01T11:56:27Z</time>
      </trkpt>
      <trkpt lat="45.69547" lon="6.66063">
        <ele>1719.6</ele>
        <time>2021-06-01T11:56:28Z</time>
      </trkpt>
      <trkpt lat="45.69548" lon="6.66066">
        <ele>1719.8</ele>
        <time>2021-06-01T11:56:29Z</time>
      </trkpt>
      <trkpt lat="45.6955" lon="6.6607">
        <ele>1720</ele>
        <time>2021-06-01T11:56:30Z</time>
      </trkpt>
      <trkpt lat="45.69552" lon="6.66074">
        <ele>1720.4</ele>
        <time>2021-06-01T11:56:31Z</time>
      </trkpt>
      <trkpt lat="45.69554" lon="6.66078">
        <ele>1720.6</ele>
        <time>2021-06-01T11:56:32Z</time>
      </trkpt>
      <trkpt lat="45.69556" lon="6.66082">
        <ele>1721</ele>
        <time>2021-06-01T11:56:33Z</time>
      </trkpt>
      <trkpt lat="45.69557" lon="6.66085">
        <ele>1721.2</ele>
        <time>2021-06-01T11:56:34Z</time>
      </trkpt>
      <trkpt lat="45.69559" lon="6.66089">
        <ele>1721.6</ele>
        <time>2021-06-01T11:56:35Z</time>
      </trkpt>
      <trkpt lat="45.69561" lon="6.66093">
        <ele>1721.8</ele>
        <time>2021-06-01T11:56:36Z</time>
      </trkpt>
      <trkpt lat="45.69562" lon="6.66097">
        <ele>1722.2</ele>
        <time>2021-06-01T11:56:37Z</time>
      </trkpt>
      <trkpt lat="45.69564" lon="6.66101">
        <ele>1722.4</ele>
        <time>2021-06-01T11:56:38Z</time>
      </trkpt>
      <trkpt lat="45.69565" lon="6.66104">
        <ele>1722.8</ele>
        <time>2021-06-01T11:56:39Z</time>
      </trkpt>
      <trkpt lat="45.69567" lon="6.66108">
        <ele>1723.2</ele>
        <time>2021-06-01T11:56:40Z</time>
      </trkpt>
      <trkpt lat="45.69568" lon="6.66111">
        <ele>1723.4</ele>
        <time>2021-06-01T11:56:41Z</time>
      </trkpt>
      <trkpt lat="45.6957" lon="6.66115">
        <ele>1723.6</ele>
        <time>2021-06-01T11:56:42Z</time>
      </trkpt>
      <trkpt lat="45.69572" lon="6.66118">
        <ele>1724</ele>
        <time>2021-06-01T11:56:43Z</time>
      </trkpt>
      <trkpt lat="45.69573" lon="6.66122">
        <ele>1724.2</ele>
        <time>2021-06-01T11:56:44Z</time>
      </trkpt>
      <trkpt lat="45.69574" lon="6.66125">
        <ele>1724.6</ele>
        <time>2021-06-01T11:56:45Z</time>
      </trkpt>
      <trkpt lat="45.69575" lon="6.66129">
        <ele>1724.8</ele>
        <time>2021-06-01T11:56:46Z</time>
      </trkpt>
      <trkpt lat="45.69577" lon="6.66132">
        <ele>1725</ele>
        <time>2021-06-01T11:56:47Z</time>
      </trkpt>
      <trkpt lat="45.69579" lon="6.66136">
        <ele>1725.2</ele>
        <time>2021-06-01T11:56:48Z</time>
      </trkpt>
      <trkpt lat="45.6958" lon="6.66139">
        <ele>1725.6</ele>
        <time>2021-06-01T11:56:49Z</time>
      </trkpt>
      <trkpt lat="45.69582" lon="6.66142">
        <ele>1725.8</ele>
        <time>2021-06-01T11:56:50Z</time>
      </trkpt>
      <trkpt lat="45.69584" lon="6.66145">
        <ele>1725.8</ele>
        <time>2021-06-01T11:56:51Z</time>
      </trkpt>
      <trkpt lat="45.69585" lon="6.66149">
        <ele>1726</ele>
        <time>2021-06-01T11:56:52Z</time>
      </trkpt>
      <trkpt lat="45.69587" lon="6.66152">
        <ele>1726.4</ele>
        <time>2021-06-01T11:56:53Z</time>
      </trkpt>
      <trkpt lat="45.69589" lon="6.66155">
        <ele>1726.8</ele>
        <time>2021-06-01T11:56:54Z</time>
      </trkpt>
      <trkpt lat="45.6959" lon="6.66159">
        <ele>1727</ele>
        <time>2021-06-01T11:56:55Z</time>
      </trkpt>
      <trkpt lat="45.69592" lon="6.66163">
        <ele>1727.2</ele>
        <time>2021-06-01T11:56:56Z</time>
      </trkpt>
      <trkpt lat="45.69593" lon="6.66166">
        <ele>1727.4</ele>
        <time>2021-06-01T11:56:57Z</time>
      </trkpt>
      <trkpt lat="45.69595" lon="6.6617">
        <ele>1727.8</ele>
        <time>2021-06-01T11:56:58Z</time>
      </trkpt>
      <trkpt lat="45.69596" lon="6.66173">
        <ele>1728</ele>
        <time>2021-06-01T11:56:59Z</time>
      </trkpt>
      <trkpt lat="45.69597" lon="6.66177">
        <ele>1728.4</ele>
        <time>2021-06-01T11:57:00Z</time>
      </trkpt>
      <trkpt lat="45.69598" lon="6.66181">
        <ele>1728.8</ele>
        <time>2021-06-01T11:57:01Z</time>
      </trkpt>
      <trkpt lat="45.696" lon="6.66184">
        <ele>1729.2</ele>
        <time>2021-06-01T11:57:02Z</time>
      </trkpt>
      <trkpt lat="45.69601" lon="6.66188">
        <ele>1729.6</ele>
        <time>2021-06-01T11:57:03Z</time>
      </trkpt>
      <trkpt lat="45.69602" lon="6.66191">
        <ele>1730</ele>
        <time>2021-06-01T11:57:04Z</time>
      </trkpt>
      <trkpt lat="45.69604" lon="6.66195">
        <ele>1730.2</ele>
        <time>2021-06-01T11:57:05Z</time>
      </trkpt>
      <trkpt lat="45.69604" lon="6.66198">
        <ele>1730.6</ele>
        <time>2021-06-01T11:57:06Z</time>
      </trkpt>
      <trkpt lat="45.69606" lon="6.66202">
        <ele>1730.8</ele>
        <time>2021-06-01T11:57:07Z</time>
      </trkpt>
      <trkpt lat="45.69607" lon="6.66205">
        <ele>1731</ele>
        <time>2021-06-01T11:57:08Z</time>
      </trkpt>
      <trkpt lat="45.69608" lon="6.66209">
        <ele>1731.2</ele>
        <time>2021-06-01T11:57:09Z</time>
      </trkpt>
      <trkpt lat="45.6961" lon="6.66212">
        <ele>1731.6</ele>
        <time>2021-06-01T11:57:10Z</time>
      </trkpt>
      <trkpt lat="45.69611" lon="6.66216">
        <ele>1731.8</ele>
        <time>2021-06-01T11:57:11Z</time>
      </trkpt>
      <trkpt lat="45.69611" lon="6.6622">
        <ele>1732</ele>
        <time>2021-06-01T11:57:12Z</time>
      </trkpt>
      <trkpt lat="45.69612" lon="6.66224">
        <ele>1732.2</ele>
        <time>2021-06-01T11:57:13Z</time>
      </trkpt>
      <trkpt lat="45.69612" lon="6.66227">
        <ele>1732.6</ele>
        <time>2021-06-01T11:57:14Z</time>
      </trkpt>
      <trkpt lat="45.69613" lon="6.66231">
        <ele>1733</ele>
        <time>2021-06-01T11:57:15Z</time>
      </trkpt>
      <trkpt lat="45.69614" lon="6.66235">
        <ele>1733.2</ele>
        <time>2021-06-01T11:57:16Z</time>
      </trkpt>
      <trkpt lat="45.69614" lon="6.66239">
        <ele>1733.6</ele>
        <time>2021-06-01T11:57:17Z</time>
      </trkpt>
      <trkpt lat="45.69615" lon="6.66244">
        <ele>1733.8</ele>
        <time>2021-06-01T11:57:18Z</time>
      </trkpt>
      <trkpt lat="45.69616" lon="6.66248">
        <ele>1734</ele>
        <time>2021-06-01T11:57:19Z</time>
      </trkpt>
      <trkpt lat="45.69617" lon="6.66252">
        <ele>1734</ele>
        <time>2021-06-01T11:57:20Z</time>
      </trkpt>
      <trkpt lat="45.69617" lon="6.66256">
        <ele>1734.4</ele>
        <time>2021-06-01T11:57:21Z</time>
      </trkpt>
      <trkpt lat="45.69618" lon="6.6626">
        <ele>1734.6</ele>
        <time>2021-06-01T11:57:22Z</time>
      </trkpt>
      <trkpt lat="45.69619" lon="6.66265">
        <ele>1734.8</ele>
        <time>2021-06-01T11:57:23Z</time>
      </trkpt>
      <trkpt lat="45.6962" lon="6.66269">
        <ele>1735</ele>
        <time>2021-06-01T11:57:24Z</time>
      </trkpt>
      <trkpt lat="45.69621" lon="6.66273">
        <ele>1735.2</ele>
        <time>2021-06-01T11:57:25Z</time>
      </trkpt>
      <trkpt lat="45.69622" lon="6.66278">
        <ele>1735.4</ele>
        <time>2021-06-01T11:57:26Z</time>
      </trkpt>
      <trkpt lat="45.69624" lon="6.66282">
        <ele>1735.6</ele>
        <time>2021-06-01T11:57:27Z</time>
      </trkpt>
      <trkpt lat="45.69625" lon="6.66287">
        <ele>1735.8</ele>
        <time>2021-06-01T11:57:28Z</time>
      </trkpt>
      <trkpt lat="45.69626" lon="6.66292">
        <ele>1736</ele>
        <time>2021-06-01T11:57:29Z</time>
      </trkpt>
      <trkpt lat="45.69626" lon="6.66298">
        <ele>1736.2</ele>
        <time>2021-06-01T11:57:30Z</time>
      </trkpt>
      <trkpt lat="45.69626" lon="6.66303">
        <ele>1736.4</ele>
        <time>2021-06-01T11:57:31Z</time>
      </trkpt>
      <trkpt lat="45.69626" lon="6.66308">
        <ele>1736.6</ele>
        <time>2021-06-01T11:57:32Z</time>
      </trkpt>
      <trkpt lat="45.69626" lon="6.66314">
        <ele>1736.8</ele>
        <time>2021-06-01T11:57:33Z</time>
      </trkpt>
      <trkpt lat="45.69626" lon="6.66319">
        <ele>1737</ele>
        <time>2021-06-01T11:57:34Z</time>
      </trkpt>
      <trkpt lat="45.69626" lon="6.66324">
        <ele>1737.2</ele>
        <time>2021-06-01T11:57:35Z</time>
      </trkpt>
      <trkpt lat="45.69626" lon="6.66329">
        <ele>1737.4</ele>
        <time>2021-06-01T11:57:36Z</time>
      </trkpt>
      <trkpt lat="45.69626" lon="6.66334">
        <ele>1737.6</ele>
        <time>2021-06-01T11:57:37Z</time>
      </trkpt>
      <trkpt lat="45.69626" lon="6.66339">
        <ele>1737.8</ele>
        <time>2021-06-01T11:57:38Z</time>
      </trkpt>
      <trkpt lat="45.69626" lon="6.66345">
        <ele>1738</ele>
        <time>2021-06-01T11:57:39Z</time>
      </trkpt>
      <trkpt lat="45.69627" lon="6.6635">
        <ele>1738</ele>
        <time>2021-06-01T11:57:40Z</time>
      </trkpt>
      <trkpt lat="45.69627" lon="6.66355">
        <ele>1738.2</ele>
        <time>2021-06-01T11:57:41Z</time>
      </trkpt>
      <trkpt lat="45.69628" lon="6.66359">
        <ele>1738.4</ele>
        <time>2021-06-01T11:57:42Z</time>
      </trkpt>
      <trkpt lat="45.69628" lon="6.66364">
        <ele>1738.6</ele>
        <time>2021-06-01T11:57:43Z</time>
      </trkpt>
      <trkpt lat="45.69628" lon="6.6637">
        <ele>1739</ele>
        <time>2021-06-01T11:57:44Z</time>
      </trkpt>
      <trkpt lat="45.69628" lon="6.66374">
        <ele>1739.2</ele>
        <time>2021-06-01T11:57:45Z</time>
      </trkpt>
      <trkpt lat="45.69627" lon="6.66379">
        <ele>1739.6</ele>
        <time>2021-06-01T11:57:46Z</time>
      </trkpt>
      <trkpt lat="45.69626" lon="6.66383">
        <ele>1739.8</ele>
        <time>2021-06-01T11:57:47Z</time>
      </trkpt>
      <trkpt lat="45.69624" lon="6.66387">
        <ele>1740</ele>
        <time>2021-06-01T11:57:48Z</time>
      </trkpt>
      <trkpt lat="45.69622" lon="6.66391">
        <ele>1740.2</ele>
        <time>2021-06-01T11:57:49Z</time>
      </trkpt>
      <trkpt lat="45.6962" lon="6.66395">
        <ele>1740.4</ele>
        <time>2021-06-01T11:57:50Z</time>
      </trkpt>
      <trkpt lat="45.69618" lon="6.66398">
        <ele>1740.6</ele>
        <time>2021-06-01T11:57:51Z</time>
      </trkpt>
      <trkpt lat="45.69616" lon="6.66401">
        <ele>1740.8</ele>
        <time>2021-06-01T11:57:52Z</time>
      </trkpt>
      <trkpt lat="45.69614" lon="6.66405">
        <ele>1741</ele>
        <time>2021-06-01T11:57:53Z</time>
      </trkpt>
      <trkpt lat="45.69611" lon="6.66408">
        <ele>1741.2</ele>
        <time>2021-06-01T11:57:54Z</time>
      </trkpt>
      <trkpt lat="45.69608" lon="6.66411">
        <ele>1741.6</ele>
        <time>2021-06-01T11:57:55Z</time>
      </trkpt>
      <trkpt lat="45.69606" lon="6.66414">
        <ele>1741.8</ele>
        <time>2021-06-01T11:57:56Z</time>
      </trkpt>
      <trkpt lat="45.69603" lon="6.66417">
        <ele>1742.2</ele>
        <time>2021-06-01T11:57:57Z</time>
      </trkpt>
      <trkpt lat="45.69601" lon="6.6642">
        <ele>1742.6</ele>
        <time>2021-06-01T11:57:58Z</time>
      </trkpt>
      <trkpt lat="45.69599" lon="6.66423">
        <ele>1743</ele>
        <time>2021-06-01T11:57:59Z</time>
      </trkpt>
      <trkpt lat="45.69597" lon="6.66426">
        <ele>1743.2</ele>
        <time>2021-06-01T11:58:00Z</time>
      </trkpt>
      <trkpt lat="45.69595" lon="6.66429">
        <ele>1743.4</ele>
        <time>2021-06-01T11:58:01Z</time>
      </trkpt>
      <trkpt lat="45.69593" lon="6.66432">
        <ele>1744</ele>
        <time>2021-06-01T11:58:02Z</time>
      </trkpt>
      <trkpt lat="45.69592" lon="6.66435">
        <ele>1744.4</ele>
        <time>2021-06-01T11:58:03Z</time>
      </trkpt>
      <trkpt lat="45.6959" lon="6.66439">
        <ele>1744.8</ele>
        <time>2021-06-01T11:58:04Z</time>
      </trkpt>
      <trkpt lat="45.69587" lon="6.66442">
        <ele>1745</ele>
        <time>2021-06-01T11:58:05Z</time>
      </trkpt>
      <trkpt lat="45.69586" lon="6.66446">
        <ele>1745.4</ele>
        <time>2021-06-01T11:58:06Z</time>
      </trkpt>
      <trkpt lat="45.69584" lon="6.6645">
        <ele>1745.6</ele>
        <time>2021-06-01T11:58:07Z</time>
      </trkpt>
      <trkpt lat="45.69582" lon="6.66454">
        <ele>1746</ele>
        <time>2021-06-01T11:58:08Z</time>
      </trkpt>
      <trkpt lat="45.69581" lon="6.66458">
        <ele>1746.2</ele>
        <time>2021-06-01T11:58:09Z</time>
      </trkpt>
      <trkpt lat="45.69579" lon="6.66462">
        <ele>1746.6</ele>
        <time>2021-06-01T11:58:10Z</time>
      </trkpt>
      <trkpt lat="45.69577" lon="6.66467">
        <ele>1746.8</ele>
        <time>2021-06-01T11:58:11Z</time>
      </trkpt>
      <trkpt lat="45.69575" lon="6.66472">
        <ele>1747.2</ele>
        <time>2021-06-01T11:58:12Z</time>
      </trkpt>
      <trkpt lat="45.69573" lon="6.66477">
        <ele>1747.6</ele>
        <time>2021-06-01T11:58:13Z</time>
      </trkpt>
      <trkpt lat="45.69571" lon="6.66482">
        <ele>1748</ele>
        <time>2021-06-01T11:58:14Z</time>
      </trkpt>
      <trkpt lat="45.69569" lon="6.66487">
        <ele>1748.2</ele>
        <time>2021-06-01T11:58:15Z</time>
      </trkpt>
      <trkpt lat="45.69567" lon="6.66492">
        <ele>1748.6</ele>
        <time>2021-06-01T11:58:16Z</time>
      </trkpt>
      <trkpt lat="45.69565" lon="6.66497">
        <ele>1749</ele>
        <time>2021-06-01T11:58:17Z</time>
      </trkpt>
      <trkpt lat="45.69563" lon="6.66501">
        <ele>1749.4</ele>
        <time>2021-06-01T11:58:18Z</time>
      </trkpt>
      <trkpt lat="45.6956" lon="6.66504">
        <ele>1749.8</ele>
        <time>2021-06-01T11:58:19Z</time>
      </trkpt>
      <trkpt lat="45.69557" lon="6.66508">
        <ele>1750.2</ele>
        <time>2021-06-01T11:58:20Z</time>
      </trkpt>
      <trkpt lat="45.69555" lon="6.66511">
        <ele>1750.6</ele>
        <time>2021-06-01T11:58:21Z</time>
      </trkpt>
      <trkpt lat="45.69551" lon="6.66513">
        <ele>1751</ele>
        <time>2021-06-01T11:58:22Z</time>
      </trkpt>
      <trkpt lat="45.69548" lon="6.66515">
        <ele>1751.4</ele>
        <time>2021-06-01T11:58:23Z</time>
      </trkpt>
      <trkpt lat="45.69545" lon="6.66516">
        <ele>1751.8</ele>
        <time>2021-06-01T11:58:24Z</time>
      </trkpt>
      <trkpt lat="45.69541" lon="6.66516">
        <ele>1752.2</ele>
        <time>2021-06-01T11:58:25Z</time>
      </trkpt>
      <trkpt lat="45.69537" lon="6.66516">
        <ele>1752.8</ele>
        <time>2021-06-01T11:58:26Z</time>
      </trkpt>
      <trkpt lat="45.69534" lon="6.66515">
        <ele>1753.2</ele>
        <time>2021-06-01T11:58:27Z</time>
      </trkpt>
      <trkpt lat="45.69531" lon="6.66514">
        <ele>1753.6</ele>
        <time>2021-06-01T11:58:28Z</time>
      </trkpt>
      <trkpt lat="45.69528" lon="6.66512">
        <ele>1753.8</ele>
        <time>2021-06-01T11:58:29Z</time>
      </trkpt>
      <trkpt lat="45.69525" lon="6.6651">
        <ele>1754.2</ele>
        <time>2021-06-01T11:58:30Z</time>
      </trkpt>
      <trkpt lat="45.69523" lon="6.66508">
        <ele>1754.6</ele>
        <time>2021-06-01T11:58:31Z</time>
      </trkpt>
      <trkpt lat="45.6952" lon="6.66506">
        <ele>1755</ele>
        <time>2021-06-01T11:58:32Z</time>
      </trkpt>
      <trkpt lat="45.69517" lon="6.66504">
        <ele>1755.2</ele>
        <time>2021-06-01T11:58:33Z</time>
      </trkpt>
      <trkpt lat="45.69514" lon="6.66502">
        <ele>1755.6</ele>
        <time>2021-06-01T11:58:34Z</time>
      </trkpt>
      <trkpt lat="45.69511" lon="6.66501">
        <ele>1756</ele>
        <time>2021-06-01T11:58:35Z</time>
      </trkpt>
      <trkpt lat="45.69508" lon="6.66499">
        <ele>1756.2</ele>
        <time>2021-06-01T11:58:36Z</time>
      </trkpt>
      <trkpt lat="45.69506" lon="6.66498">
        <ele>1756.4</ele>
        <time>2021-06-01T11:58:37Z</time>
      </trkpt>
      <trkpt lat="45.69503" lon="6.66496">
        <ele>1756.8</ele>
        <time>2021-06-01T11:58:38Z</time>
      </trkpt>
      <trkpt lat="45.695" lon="6.66495">
        <ele>1757.2</ele>
        <time>2021-06-01T11:58:39Z</time>
      </trkpt>
      <trkpt lat="45.69497" lon="6.66494">
        <ele>1757.4</ele>
        <time>2021-06-01T11:58:40Z</time>
      </trkpt>
      <trkpt lat="45.69494" lon="6.66493">
        <ele>1757.8</ele>
        <time>2021-06-01T11:58:41Z</time>
      </trkpt>
      <trkpt lat="45.69491" lon="6.66493">
        <ele>1758</ele>
        <time>2021-06-01T11:58:42Z</time>
      </trkpt>
      <trkpt lat="45.69488" lon="6.66493">
        <ele>1758.4</ele>
        <time>2021-06-01T11:58:43Z</time>
      </trkpt>
      <trkpt lat="45.69485" lon="6.66493">
        <ele>1759</ele>
        <time>2021-06-01T11:58:44Z</time>
      </trkpt>
      <trkpt lat="45.69482" lon="6.66493">
        <ele>1759.2</ele>
        <time>2021-06-01T11:58:45Z</time>
      </trkpt>
      <trkpt lat="45.69479" lon="6.66494">
        <ele>1759.6</ele>
        <time>2021-06-01T11:58:46Z</time>
      </trkpt>
      <trkpt lat="45.69475" lon="6.66494">
        <ele>1760</ele>
        <time>2021-06-01T11:58:47Z</time>
      </trkpt>
      <trkpt lat="45.69472" lon="6.66495">
        <ele>1760.4</ele>
        <time>2021-06-01T11:58:48Z</time>
      </trkpt>
      <trkpt lat="45.69469" lon="6.66496">
        <ele>1760.6</ele>
        <time>2021-06-01T11:58:49Z</time>
      </trkpt>
      <trkpt lat="45.69466" lon="6.66496">
        <ele>1761</ele>
        <time>2021-06-01T11:58:50Z</time>
      </trkpt>
      <trkpt lat="45.69463" lon="6.66497">
        <ele>1761.2</ele>
        <time>2021-06-01T11:58:51Z</time>
      </trkpt>
      <trkpt lat="45.6946" lon="6.66497">
        <ele>1761.6</ele>
        <time>2021-06-01T11:58:52Z</time>
      </trkpt>
      <trkpt lat="45.69457" lon="6.66498">
        <ele>1762</ele>
        <time>2021-06-01T11:58:53Z</time>
      </trkpt>
      <trkpt lat="45.69454" lon="6.66499">
        <ele>1762.4</ele>
        <time>2021-06-01T11:58:54Z</time>
      </trkpt>
      <trkpt lat="45.69451" lon="6.665">
        <ele>1762.6</ele>
        <time>2021-06-01T11:58:55Z</time>
      </trkpt>
      <trkpt lat="45.69448" lon="6.66501">
        <ele>1763</ele>
        <time>2021-06-01T11:58:56Z</time>
      </trkpt>
      <trkpt lat="45.69445" lon="6.66502">
        <ele>1763.4</ele>
        <time>2021-06-01T11:58:57Z</time>
      </trkpt>
      <trkpt lat="45.69442" lon="6.66504">
        <ele>1763.6</ele>
        <time>2021-06-01T11:58:58Z</time>
      </trkpt>
      <trkpt lat="45.69438" lon="6.66505">
        <ele>1763.8</ele>
        <time>2021-06-01T11:58:59Z</time>
      </trkpt>
      <trkpt lat="45.69436" lon="6.66507">
        <ele>1764.2</ele>
        <time>2021-06-01T11:59:00Z</time>
      </trkpt>
      <trkpt lat="45.69432" lon="6.66509">
        <ele>1764.6</ele>
        <time>2021-06-01T11:59:01Z</time>
      </trkpt>
      <trkpt lat="45.69429" lon="6.66512">
        <ele>1764.8</ele>
        <time>2021-06-01T11:59:02Z</time>
      </trkpt>
      <trkpt lat="45.69426" lon="6.66514">
        <ele>1765.2</ele>
        <time>2021-06-01T11:59:03Z</time>
      </trkpt>
      <trkpt lat="45.69424" lon="6.66517">
        <ele>1765.4</ele>
        <time>2021-06-01T11:59:04Z</time>
      </trkpt>
      <trkpt lat="45.6942" lon="6.6652">
        <ele>1765.8</ele>
        <time>2021-06-01T11:59:05Z</time>
      </trkpt>
      <trkpt lat="45.69418" lon="6.66522">
        <ele>1766.2</ele>
        <time>2021-06-01T11:59:06Z</time>
      </trkpt>
      <trkpt lat="45.69414" lon="6.66524">
        <ele>1766.4</ele>
        <time>2021-06-01T11:59:07Z</time>
      </trkpt>
      <trkpt lat="45.69412" lon="6.66527">
        <ele>1766.8</ele>
        <time>2021-06-01T11:59:08Z</time>
      </trkpt>
      <trkpt lat="45.69409" lon="6.66529">
        <ele>1767</ele>
        <time>2021-06-01T11:59:09Z</time>
      </trkpt>
      <trkpt lat="45.69406" lon="6.66531">
        <ele>1767.4</ele>
        <time>2021-06-01T11:59:10Z</time>
      </trkpt>
      <trkpt lat="45.69403" lon="6.66533">
        <ele>1767.6</ele>
        <time>2021-06-01T11:59:11Z</time>
      </trkpt>
      <trkpt lat="45.694" lon="6.66536">
        <ele>1768</ele>
        <time>2021-06-01T11:59:12Z</time>
      </trkpt>
      <trkpt lat="45.69397" lon="6.66538">
        <ele>1768.4</ele>
        <time>2021-06-01T11:59:13Z</time>
      </trkpt>
      <trkpt lat="45.69395" lon="6.6654">
        <ele>1768.8</ele>
        <time>2021-06-01T11:59:14Z</time>
      </trkpt>
      <trkpt lat="45.69392" lon="6.66543">
        <ele>1769.2</ele>
        <time>2021-06-01T11:59:15Z</time>
      </trkpt>
      <trkpt lat="45.6939" lon="6.66546">
        <ele>1769.4</ele>
        <time>2021-06-01T11:59:16Z</time>
      </trkpt>
      <trkpt lat="45.69388" lon="6.66549">
        <ele>1769.8</ele>
        <time>2021-06-01T11:59:17Z</time>
      </trkpt>
      <trkpt lat="45.69385" lon="6.66553">
        <ele>1770</ele>
        <time>2021-06-01T11:59:18Z</time>
      </trkpt>
      <trkpt lat="45.69383" lon="6.66556">
        <ele>1770.4</ele>
        <time>2021-06-01T11:59:19Z</time>
      </trkpt>
      <trkpt lat="45.69381" lon="6.66561">
        <ele>1770.6</ele>
        <time>2021-06-01T11:59:20Z</time>
      </trkpt>
      <trkpt lat="45.6938" lon="6.66565">
        <ele>1771</ele>
        <time>2021-06-01T11:59:21Z</time>
      </trkpt>
      <trkpt lat="45.69378" lon="6.66569">
        <ele>1771.2</ele>
        <time>2021-06-01T11:59:22Z</time>
      </trkpt>
      <trkpt lat="45.69377" lon="6.66573">
        <ele>1771.4</ele>
        <time>2021-06-01T11:59:23Z</time>
      </trkpt>
      <trkpt lat="45.69376" lon="6.66578">
        <ele>1771.8</ele>
        <time>2021-06-01T11:59:24Z</time>
      </trkpt>
      <trkpt lat="45.69375" lon="6.66583">
        <ele>1772.2</ele>
        <time>2021-06-01T11:59:25Z</time>
      </trkpt>
      <trkpt lat="45.69374" lon="6.66587">
        <ele>1772.4</ele>
        <time>2021-06-01T11:59:26Z</time>
      </trkpt>
      <trkpt lat="45.69373" lon="6.66592">
        <ele>1772.6</ele>
        <time>2021-06-01T11:59:27Z</time>
      </trkpt>
      <trkpt lat="45.69372" lon="6.66597">
        <ele>1772.8</ele>
        <time>2021-06-01T11:59:28Z</time>
      </trkpt>
      <trkpt lat="45.69371" lon="6.66601">
        <ele>1773</ele>
        <time>2021-06-01T11:59:29Z</time>
      </trkpt>
      <trkpt lat="45.6937" lon="6.66606">
        <ele>1773.2</ele>
        <time>2021-06-01T11:59:30Z</time>
      </trkpt>
      <trkpt lat="45.69368" lon="6.66609">
        <ele>1773.4</ele>
        <time>2021-06-01T11:59:31Z</time>
      </trkpt>
      <trkpt lat="45.69366" lon="6.66613">
        <ele>1773.8</ele>
        <time>2021-06-01T11:59:32Z</time>
      </trkpt>
      <trkpt lat="45.69364" lon="6.66617">
        <ele>1774</ele>
        <time>2021-06-01T11:59:33Z</time>
      </trkpt>
      <trkpt lat="45.69363" lon="6.66621">
        <ele>1774.4</ele>
        <time>2021-06-01T11:59:34Z</time>
      </trkpt>
      <trkpt lat="45.69361" lon="6.66625">
        <ele>1774.6</ele>
        <time>2021-06-01T11:59:35Z</time>
      </trkpt>
      <trkpt lat="45.69359" lon="6.66629">
        <ele>1774.8</ele>
        <time>2021-06-01T11:59:36Z</time>
      </trkpt>
      <trkpt lat="45.69358" lon="6.66633">
        <ele>1775.2</ele>
        <time>2021-06-01T11:59:37Z</time>
      </trkpt>
      <trkpt lat="45.69357" lon="6.66637">
        <ele>1775.4</ele>
        <time>2021-06-01T11:59:38Z</time>
      </trkpt>
      <trkpt lat="45.69356" lon="6.66642">
        <ele>1775.6</ele>
        <time>2021-06-01T11:59:39Z</time>
      </trkpt>
      <trkpt lat="45.69356" lon="6.66647">
        <ele>1776</ele>
        <time>2021-06-01T11:59:40Z</time>
      </trkpt>
      <trkpt lat="45.69354" lon="6.66651">
        <ele>1776.2</ele>
        <time>2021-06-01T11:59:41Z</time>
      </trkpt>
      <trkpt lat="45.69354" lon="6.66656">
        <ele>1776.8</ele>
        <time>2021-06-01T11:59:42Z</time>
      </trkpt>
      <trkpt lat="45.69354" lon="6.6666">
        <ele>1777</ele>
        <time>2021-06-01T11:59:43Z</time>
      </trkpt>
      <trkpt lat="45.69353" lon="6.66665">
        <ele>1777.2</ele>
        <time>2021-06-01T11:59:44Z</time>
      </trkpt>
      <trkpt lat="45.69353" lon="6.6667">
        <ele>1777.6</ele>
        <time>2021-06-01T11:59:45Z</time>
      </trkpt>
      <trkpt lat="45.69353" lon="6.66675">
        <ele>1777.8</ele>
        <time>2021-06-01T11:59:46Z</time>
      </trkpt>
      <trkpt lat="45.69352" lon="6.6668">
        <ele>1778</ele>
        <time>2021-06-01T11:59:47Z</time>
      </trkpt>
      <trkpt lat="45.69352" lon="6.66685">
        <ele>1778.4</ele>
        <time>2021-06-01T11:59:48Z</time>
      </trkpt>
      <trkpt lat="45.69352" lon="6.6669">
        <ele>1778.6</ele>
        <time>2021-06-01T11:59:49Z</time>
      </trkpt>
      <trkpt lat="45.69353" lon="6.66695">
        <ele>1778.8</ele>
        <time>2021-06-01T11:59:50Z</time>
      </trkpt>
      <trkpt lat="45.69353" lon="6.66701">
        <ele>1779</ele>
        <time>2021-06-01T11:59:51Z</time>
      </trkpt>
      <trkpt lat="45.69353" lon="6.66706">
        <ele>1779.4</ele>
        <time>2021-06-01T11:59:52Z</time>
      </trkpt>
      <trkpt lat="45.69354" lon="6.66711">
        <ele>1779.8</ele>
        <time>2021-06-01T11:59:53Z</time>
      </trkpt>
      <trkpt lat="45.69354" lon="6.66716">
        <ele>1780</ele>
        <time>2021-06-01T11:59:54Z</time>
      </trkpt>
      <trkpt lat="45.69354" lon="6.66721">
        <ele>1780.4</ele>
        <time>2021-06-01T11:59:55Z</time>
      </trkpt>
      <trkpt lat="45.69354" lon="6.66726">
        <ele>1780.6</ele>
        <time>2021-06-01T11:59:56Z</time>
      </trkpt>
      <trkpt lat="45.69354" lon="6.6673">
        <ele>1781</ele>
        <time>2021-06-01T11:59:57Z</time>
      </trkpt>
      <trkpt lat="45.69354" lon="6.66736">
        <ele>1781.2</ele>
        <time>2021-06-01T11:59:58Z</time>
      </trkpt>
      <trkpt lat="45.69354" lon="6.6674">
        <ele>1781.6</ele>
        <time>2021-06-01T11:59:59Z</time>
      </trkpt>
      <trkpt lat="45.69353" lon="6.66745">
        <ele>1781.6</ele>
        <time>2021-06-01T12:00:00Z</time>
      </trkpt>
      <trkpt lat="45.69353" lon="6.6675">
        <ele>1782</ele>
        <time>2021-06-01T12:00:01Z</time>
      </trkpt>
      <trkpt lat="45.69353" lon="6.66755">
        <ele>1782.2</ele>
        <time>2021-06-01T12:00:02Z</time>
      </trkpt>
      <trkpt lat="45.69352" lon="6.66761">
        <ele>1782.4</ele>
        <time>2021-06-01T12:00:03Z</time>
      </trkpt>
      <trkpt lat="45.69352" lon="6.66766">
        <ele>1782.8</ele>
        <time>2021-06-01T12:00:04Z</time>
      </trkpt>
      <trkpt lat="45.69351" lon="6.66771">
        <ele>1783</ele>
        <time>2021-06-01T12:00:05Z</time>
      </trkpt>
      <trkpt lat="45.69351" lon="6.66776">
        <ele>1783.2</ele>
        <time>2021-06-01T12:00:06Z</time>
      </trkpt>
      <trkpt lat="45.6935" lon="6.6678">
        <ele>1783.6</ele>
        <time>2021-06-01T12:00:07Z</time>
      </trkpt>
      <trkpt lat="45.69349" lon="6.66785">
        <ele>1783.6</ele>
        <time>2021-06-01T12:00:08Z</time>
      </trkpt>
      <trkpt lat="45.69348" lon="6.66789">
        <ele>1784</ele>
        <time>2021-06-01T12:00:09Z</time>
      </trkpt>
      <trkpt lat="45.69347" lon="6.66794">
        <ele>1784.2</ele>
        <time>2021-06-01T12:00:10Z</time>
      </trkpt>
      <trkpt lat="45.69345" lon="6.66799">
        <ele>1784.2</ele>
        <time>2021-06-01T12:00:11Z</time>
      </trkpt>
      <trkpt lat="45.69344" lon="6.66802">
        <ele>1784.4</ele>
        <time>2021-06-01T12:00:12Z</time>
      </trkpt>
      <trkpt lat="45.69343" lon="6.66808">
        <ele>1784.4</ele>
        <time>2021-06-01T12:00:13Z</time>
      </trkpt>
      <trkpt lat="45.69341" lon="6.66813">
        <ele>1784.8</ele>
        <time>2021-06-01T12:00:14Z</time>
      </trkpt>
      <trkpt lat="45.6934" lon="6.66817">
        <ele>1785</ele>
        <time>2021-06-01T12:00:15Z</time>
      </trkpt>
      <trkpt lat="45.69339" lon="6.66822">
        <ele>1785.2</ele>
        <time>2021-06-01T12:00:16Z</time>
      </trkpt>
      <trkpt lat="45.69338" lon="6.66825">
        <ele>1785.2</ele>
        <time>2021-06-01T12:00:17Z</time>
      </trkpt>
      <trkpt lat="45.69336" lon="6.66831">
        <ele>1785.2</ele>
        <time>2021-06-01T12:00:18Z</time>
      </trkpt>
      <trkpt lat="45.69335" lon="6.66836">
        <ele>1785.4</ele>
        <time>2021-06-01T12:00:19Z</time>
      </trkpt>
      <trkpt lat="45.69334" lon="6.66841">
        <ele>1785.6</ele>
        <time>2021-06-01T12:00:20Z</time>
      </trkpt>
      <trkpt lat="45.69333" lon="6.66844">
        <ele>1785.6</ele>
        <time>2021-06-01T12:00:21Z</time>
      </trkpt>
      <trkpt lat="45.69332" lon="6.6685">
        <ele>1785.6</ele>
        <time>2021-06-01T12:00:22Z</time>
      </trkpt>
      <trkpt lat="45.69331" lon="6.66855">
        <ele>1785.8</ele>
        <time>2021-06-01T12:00:23Z</time>
      </trkpt>
      <trkpt lat="45.6933" lon="6.6686">
        <ele>1785.8</ele>
        <time>2021-06-01T12:00:24Z</time>
      </trkpt>
      <trkpt lat="45.6933" lon="6.66865">
        <ele>1786</ele>
        <time>2021-06-01T12:00:25Z</time>
      </trkpt>
      <trkpt lat="45.69328" lon="6.6687">
        <ele>1786.2</ele>
        <time>2021-06-01T12:00:26Z</time>
      </trkpt>
      <trkpt lat="45.69327" lon="6.66875">
        <ele>1786.4</ele>
        <time>2021-06-01T12:00:27Z</time>
      </trkpt>
      <trkpt lat="45.69326" lon="6.6688">
        <ele>1786.6</ele>
        <time>2021-06-01T12:00:28Z</time>
      </trkpt>
      <trkpt lat="45.69324" lon="6.66885">
        <ele>1786.8</ele>
        <time>2021-06-01T12:00:29Z</time>
      </trkpt>
      <trkpt lat="45.69323" lon="6.66889">
        <ele>1787</ele>
        <time>2021-06-01T12:00:30Z</time>
      </trkpt>
      <trkpt lat="45.69322" lon="6.66895">
        <ele>1787.2</ele>
        <time>2021-06-01T12:00:31Z</time>
      </trkpt>
      <trkpt lat="45.69321" lon="6.669">
        <ele>1787.4</ele>
        <time>2021-06-01T12:00:32Z</time>
      </trkpt>
      <trkpt lat="45.6932" lon="6.66904">
        <ele>1787.6</ele>
        <time>2021-06-01T12:00:33Z</time>
      </trkpt>
      <trkpt lat="45.69318" lon="6.66908">
        <ele>1788</ele>
        <time>2021-06-01T12:00:34Z</time>
      </trkpt>
      <trkpt lat="45.69317" lon="6.66913">
        <ele>1788</ele>
        <time>2021-06-01T12:00:35Z</time>
      </trkpt>
      <trkpt lat="45.69316" lon="6.66917">
        <ele>1788.2</ele>
        <time>2021-06-01T12:00:36Z</time>
      </trkpt>
      <trkpt lat="45.69315" lon="6.66922">
        <ele>1788.6</ele>
        <time>2021-06-01T12:00:37Z</time>
      </trkpt>
      <trkpt lat="45.69314" lon="6.66928">
        <ele>1789</ele>
        <time>2021-06-01T12:00:38Z</time>
      </trkpt>
      <trkpt lat="45.69313" lon="6.66933">
        <ele>1789.2</ele>
        <time>2021-06-01T12:00:39Z</time>
      </trkpt>
      <trkpt lat="45.69312" lon="6.66939">
        <ele>1789.4</ele>
        <time>2021-06-01T12:00:40Z</time>
      </trkpt>
      <trkpt lat="45.6931" lon="6.66945">
        <ele>1789.6</ele>
        <time>2021-06-01T12:00:41Z</time>
      </trkpt>
      <trkpt lat="45.69309" lon="6.66951">
        <ele>1789.8</ele>
        <time>2021-06-01T12:00:42Z</time>
      </trkpt>
      <trkpt lat="45.69308" lon="6.66957">
        <ele>1790.2</ele>
        <time>2021-06-01T12:00:43Z</time>
      </trkpt>
      <trkpt lat="45.69307" lon="6.66964">
        <ele>1790.2</ele>
        <time>2021-06-01T12:00:44Z</time>
      </trkpt>
      <trkpt lat="45.69305" lon="6.6697">
        <ele>1790.4</ele>
        <time>2021-06-01T12:00:45Z</time>
      </trkpt>
      <trkpt lat="45.69304" lon="6.66977">
        <ele>1790.6</ele>
        <time>2021-06-01T12:00:46Z</time>
      </trkpt>
      <trkpt lat="45.69303" lon="6.66984">
        <ele>1790.6</ele>
        <time>2021-06-01T12:00:47Z</time>
      </trkpt>
      <trkpt lat="45.69302" lon="6.6699">
        <ele>1790.8</ele>
        <time>2021-06-01T12:00:48Z</time>
      </trkpt>
      <trkpt lat="45.693" lon="6.66997">
        <ele>1790.8</ele>
        <time>2021-06-01T12:00:49Z</time>
      </trkpt>
      <trkpt lat="45.69299" lon="6.67004">
        <ele>1791</ele>
        <time>2021-06-01T12:00:50Z</time>
      </trkpt>
      <trkpt lat="45.69298" lon="6.6701">
        <ele>1791.2</ele>
        <time>2021-06-01T12:00:51Z</time>
      </trkpt>
      <trkpt lat="45.69296" lon="6.67017">
        <ele>1791.4</ele>
        <time>2021-06-01T12:00:52Z</time>
      </trkpt>
      <trkpt lat="45.69294" lon="6.67023">
        <ele>1791.6</ele>
        <time>2021-06-01T12:00:53Z</time>
      </trkpt>
      <trkpt lat="45.69292" lon="6.67028">
        <ele>1791.8</ele>
        <time>2021-06-01T12:00:54Z</time>
      </trkpt>
      <trkpt lat="45.69289" lon="6.67033">
        <ele>1792</ele>
        <time>2021-06-01T12:00:55Z</time>
      </trkpt>
      <trkpt lat="45.69287" lon="6.67036">
        <ele>1792.2</ele>
        <time>2021-06-01T12:00:56Z</time>
      </trkpt>
      <trkpt lat="45.69285" lon="6.67041">
        <ele>1792.6</ele>
        <time>2021-06-01T12:00:57Z</time>
      </trkpt>
      <trkpt lat="45.69283" lon="6.67044">
        <ele>1793</ele>
        <time>2021-06-01T12:00:58Z</time>
      </trkpt>
      <trkpt lat="45.69281" lon="6.67048">
        <ele>1793.2</ele>
        <time>2021-06-01T12:00:59Z</time>
      </trkpt>
      <trkpt lat="45.69279" lon="6.67051">
        <ele>1793.6</ele>
        <time>2021-06-01T12:01:00Z</time>
      </trkpt>
      <trkpt lat="45.69276" lon="6.67055">
        <ele>1794</ele>
        <time>2021-06-01T12:01:01Z</time>
      </trkpt>
      <trkpt lat="45.69274" lon="6.67059">
        <ele>1794.4</ele>
        <time>2021-06-01T12:01:02Z</time>
      </trkpt>
      <trkpt lat="45.69271" lon="6.67062">
        <ele>1794.8</ele>
        <time>2021-06-01T12:01:03Z</time>
      </trkpt>
      <trkpt lat="45.69269" lon="6.67066">
        <ele>1795.4</ele>
        <time>2021-06-01T12:01:04Z</time>
      </trkpt>
      <trkpt lat="45.69267" lon="6.6707">
        <ele>1795.6</ele>
        <time>2021-06-01T12:01:05Z</time>
      </trkpt>
      <trkpt lat="45.69264" lon="6.67074">
        <ele>1795.8</ele>
        <time>2021-06-01T12:01:06Z</time>
      </trkpt>
      <trkpt lat="45.69262" lon="6.67078">
        <ele>1796</ele>
        <time>2021-06-01T12:01:07Z</time>
      </trkpt>
      <trkpt lat="45.6926" lon="6.67082">
        <ele>1796.4</ele>
        <time>2021-06-01T12:01:08Z</time>
      </trkpt>
      <trkpt lat="45.69258" lon="6.67087">
        <ele>1797</ele>
        <time>2021-06-01T12:01:09Z</time>
      </trkpt>
      <trkpt lat="45.69256" lon="6.67092">
        <ele>1797.4</ele>
        <time>2021-06-01T12:01:10Z</time>
      </trkpt>
      <trkpt lat="45.69255" lon="6.67097">
        <ele>1797.8</ele>
        <time>2021-06-01T12:01:11Z</time>
      </trkpt>
      <trkpt lat="45.69254" lon="6.67102">
        <ele>1798</ele>
        <time>2021-06-01T12:01:12Z</time>
      </trkpt>
      <trkpt lat="45.69253" lon="6.67107">
        <ele>1798.4</ele>
        <time>2021-06-01T12:01:13Z</time>
      </trkpt>
      <trkpt lat="45.69252" lon="6.67113">
        <ele>1798.6</ele>
        <time>2021-06-01T12:01:14Z</time>
      </trkpt>
      <trkpt lat="45.69251" lon="6.67118">
        <ele>1798.8</ele>
        <time>2021-06-01T12:01:15Z</time>
      </trkpt>
      <trkpt lat="45.69251" lon="6.67122">
        <ele>1799.2</ele>
        <time>2021-06-01T12:01:16Z</time>
      </trkpt>
      <trkpt lat="45.6925" lon="6.67128">
        <ele>1799.6</ele>
        <time>2021-06-01T12:01:17Z</time>
      </trkpt>
      <trkpt lat="45.69249" lon="6.67133">
        <ele>1800.2</ele>
        <time>2021-06-01T12:01:18Z</time>
      </trkpt>
      <trkpt lat="45.69249" lon="6.67137">
        <ele>1800.6</ele>
        <time>2021-06-01T12:01:19Z</time>
      </trkpt>
      <trkpt lat="45.69247" lon="6.67143">
        <ele>1800.8</ele>
        <time>2021-06-01T12:01:20Z</time>
      </trkpt>
      <trkpt lat="45.69245" lon="6.67147">
        <ele>1801.2</ele>
        <time>2021-06-01T12:01:21Z</time>
      </trkpt>
      <trkpt lat="45.69244" lon="6.67152">
        <ele>1801.6</ele>
        <time>2021-06-01T12:01:22Z</time>
      </trkpt>
      <trkpt lat="45.69241" lon="6.67156">
        <ele>1801.8</ele>
        <time>2021-06-01T12:01:23Z</time>
      </trkpt>
      <trkpt lat="45.69239" lon="6.6716">
        <ele>1802.2</ele>
        <time>2021-06-01T12:01:24Z</time>
      </trkpt>
      <trkpt lat="45.69236" lon="6.67164">
        <ele>1802.8</ele>
        <time>2021-06-01T12:01:25Z</time>
      </trkpt>
      <trkpt lat="45.69233" lon="6.67167">
        <ele>1803.8</ele>
        <time>2021-06-01T12:01:26Z</time>
      </trkpt>
      <trkpt lat="45.69231" lon="6.67171">
        <ele>1804.4</ele>
        <time>2021-06-01T12:01:27Z</time>
      </trkpt>
      <trkpt lat="45.69227" lon="6.67174">
        <ele>1804.8</ele>
        <time>2021-06-01T12:01:28Z</time>
      </trkpt>
      <trkpt lat="45.69225" lon="6.67178">
        <ele>1805.2</ele>
        <time>2021-06-01T12:01:29Z</time>
      </trkpt>
      <trkpt lat="45.69222" lon="6.67182">
        <ele>1805.6</ele>
        <time>2021-06-01T12:01:30Z</time>
      </trkpt>
      <trkpt lat="45.69219" lon="6.67186">
        <ele>1806</ele>
        <time>2021-06-01T12:01:31Z</time>
      </trkpt>
      <trkpt lat="45.69217" lon="6.6719">
        <ele>1806.4</ele>
        <time>2021-06-01T12:01:32Z</time>
      </trkpt>
      <trkpt lat="45.69214" lon="6.67194">
        <ele>1806.8</ele>
        <time>2021-06-01T12:01:33Z</time>
      </trkpt>
      <trkpt lat="45.69212" lon="6.67198">
        <ele>1807</ele>
        <time>2021-06-01T12:01:34Z</time>
      </trkpt>
      <trkpt lat="45.69209" lon="6.67202">
        <ele>1807.2</ele>
        <time>2021-06-01T12:01:35Z</time>
      </trkpt>
      <trkpt lat="45.69207" lon="6.67206">
        <ele>1807.4</ele>
        <time>2021-06-01T12:01:36Z</time>
      </trkpt>
      <trkpt lat="45.69205" lon="6.6721">
        <ele>1807.8</ele>
        <time>2021-06-01T12:01:37Z</time>
      </trkpt>
      <trkpt lat="45.69203" lon="6.67214">
        <ele>1808</ele>
        <time>2021-06-01T12:01:38Z</time>
      </trkpt>
      <trkpt lat="45.69202" lon="6.67219">
        <ele>1808.6</ele>
        <time>2021-06-01T12:01:39Z</time>
      </trkpt>
      <trkpt lat="45.692" lon="6.67224">
        <ele>1809</ele>
        <time>2021-06-01T12:01:40Z</time>
      </trkpt>
      <trkpt lat="45.69198" lon="6.67229">
        <ele>1809.4</ele>
        <time>2021-06-01T12:01:41Z</time>
      </trkpt>
      <trkpt lat="45.69196" lon="6.67233">
        <ele>1809.8</ele>
        <time>2021-06-01T12:01:42Z</time>
      </trkpt>
      <trkpt lat="45.69195" lon="6.67237">
        <ele>1810.2</ele>
        <time>2021-06-01T12:01:43Z</time>
      </trkpt>
      <trkpt lat="45.69193" lon="6.67241">
        <ele>1810.6</ele>
        <time>2021-06-01T12:01:44Z</time>
      </trkpt>
      <trkpt lat="45.69191" lon="6.67245">
        <ele>1810.8</ele>
        <time>2021-06-01T12:01:45Z</time>
      </trkpt>
      <trkpt lat="45.69189" lon="6.67249">
        <ele>1811.2</ele>
        <time>2021-06-01T12:01:46Z</time>
      </trkpt>
      <trkpt lat="45.69188" lon="6.67253">
        <ele>1811.6</ele>
        <time>2021-06-01T12:01:47Z</time>
      </trkpt>
      <trkpt lat="45.69186" lon="6.67257">
        <ele>1812.2</ele>
        <time>2021-06-01T12:01:48Z</time>
      </trkpt>
      <trkpt lat="45.69184" lon="6.67261">
        <ele>1812.6</ele>
        <time>2021-06-01T12:01:49Z</time>
      </trkpt>
      <trkpt lat="45.69182" lon="6.67264">
        <ele>1812.8</ele>
        <time>2021-06-01T12:01:50Z</time>
      </trkpt>
      <trkpt lat="45.69179" lon="6.67267">
        <ele>1813.2</ele>
        <time>2021-06-01T12:01:51Z</time>
      </trkpt>
      <trkpt lat="45.69177" lon="6.6727">
        <ele>1813.6</ele>
        <time>2021-06-01T12:01:52Z</time>
      </trkpt>
      <trkpt lat="45.69175" lon="6.67273">
        <ele>1814</ele>
        <time>2021-06-01T12:01:53Z</time>
      </trkpt>
      <trkpt lat="45.69172" lon="6.67276">
        <ele>1814.6</ele>
        <time>2021-06-01T12:01:54Z</time>
      </trkpt>
      <trkpt lat="45.6917" lon="6.67278">
        <ele>1815.2</ele>
        <time>2021-06-01T12:01:55Z</time>
      </trkpt>
      <trkpt lat="45.69167" lon="6.6728">
        <ele>1815.6</ele>
        <time>2021-06-01T12:01:56Z</time>
      </trkpt>
      <trkpt lat="45.69164" lon="6.67282">
        <ele>1815.8</ele>
        <time>2021-06-01T12:01:57Z</time>
      </trkpt>
      <trkpt lat="45.69161" lon="6.67284">
        <ele>1816.2</ele>
        <time>2021-06-01T12:01:58Z</time>
      </trkpt>
      <trkpt lat="45.69158" lon="6.67286">
        <ele>1816.6</ele>
        <time>2021-06-01T12:01:59Z</time>
      </trkpt>
      <trkpt lat="45.69155" lon="6.67288">
        <ele>1817.2</ele>
        <time>2021-06-01T12:02:00Z</time>
      </trkpt>
      <trkpt lat="45.69152" lon="6.6729">
        <ele>1817.4</ele>
        <time>2021-06-01T12:02:01Z</time>
      </trkpt>
      <trkpt lat="45.69148" lon="6.67292">
        <ele>1817.8</ele>
        <time>2021-06-01T12:02:02Z</time>
      </trkpt>
      <trkpt lat="45.69146" lon="6.67294">
        <ele>1818.2</ele>
        <time>2021-06-01T12:02:03Z</time>
      </trkpt>
      <trkpt lat="45.69143" lon="6.67296">
        <ele>1818.6</ele>
        <time>2021-06-01T12:02:04Z</time>
      </trkpt>
      <trkpt lat="45.6914" lon="6.67298">
        <ele>1819</ele>
        <time>2021-06-01T12:02:05Z</time>
      </trkpt>
      <trkpt lat="45.69137" lon="6.67301">
        <ele>1819.4</ele>
        <time>2021-06-01T12:02:06Z</time>
      </trkpt>
      <trkpt lat="45.69134" lon="6.67303">
        <ele>1819.8</ele>
        <time>2021-06-01T12:02:07Z</time>
      </trkpt>
      <trkpt lat="45.69132" lon="6.67306">
        <ele>1820.2</ele>
        <time>2021-06-01T12:02:08Z</time>
      </trkpt>
      <trkpt lat="45.6913" lon="6.67309">
        <ele>1820.8</ele>
        <time>2021-06-01T12:02:09Z</time>
      </trkpt>
      <trkpt lat="45.69128" lon="6.67312">
        <ele>1821.2</ele>
        <time>2021-06-01T12:02:10Z</time>
      </trkpt>
      <trkpt lat="45.69125" lon="6.67316">
        <ele>1821.4</ele>
        <time>2021-06-01T12:02:11Z</time>
      </trkpt>
      <trkpt lat="45.69123" lon="6.67319">
        <ele>1822</ele>
        <time>2021-06-01T12:02:12Z</time>
      </trkpt>
      <trkpt lat="45.69122" lon="6.67323">
        <ele>1822.4</ele>
        <time>2021-06-01T12:02:13Z</time>
      </trkpt>
      <trkpt lat="45.6912" lon="6.67327">
        <ele>1822.8</ele>
        <time>2021-06-01T12:02:14Z</time>
      </trkpt>
      <trkpt lat="45.69118" lon="6.67331">
        <ele>1823.2</ele>
        <time>2021-06-01T12:02:15Z</time>
      </trkpt>
      <trkpt lat="45.69116" lon="6.67335">
        <ele>1823.6</ele>
        <time>2021-06-01T12:02:16Z</time>
      </trkpt>
      <trkpt lat="45.69116" lon="6.6734">
        <ele>1824</ele>
        <time>2021-06-01T12:02:17Z</time>
      </trkpt>
      <trkpt lat="45.69114" lon="6.67344">
        <ele>1824.4</ele>
        <time>2021-06-01T12:02:18Z</time>
      </trkpt>
      <trkpt lat="45.69114" lon="6.67349">
        <ele>1824.8</ele>
        <time>2021-06-01T12:02:19Z</time>
      </trkpt>
      <trkpt lat="45.69113" lon="6.67354">
        <ele>1825.2</ele>
        <time>2021-06-01T12:02:20Z</time>
      </trkpt>
      <trkpt lat="45.69112" lon="6.67359">
        <ele>1825.4</ele>
        <time>2021-06-01T12:02:21Z</time>
      </trkpt>
      <trkpt lat="45.69112" lon="6.67364">
        <ele>1825.6</ele>
        <time>2021-06-01T12:02:22Z</time>
      </trkpt>
      <trkpt lat="45.69112" lon="6.67369">
        <ele>1826</ele>
        <time>2021-06-01T12:02:23Z</time>
      </trkpt>
      <trkpt lat="45.69112" lon="6.67374">
        <ele>1826.4</ele>
        <time>2021-06-01T12:02:24Z</time>
      </trkpt>
      <trkpt lat="45.69112" lon="6.67378">
        <ele>1826.8</ele>
        <time>2021-06-01T12:02:25Z</time>
      </trkpt>
      <trkpt lat="45.69112" lon="6.67383">
        <ele>1827.2</ele>
        <time>2021-06-01T12:02:26Z</time>
      </trkpt>
      <trkpt lat="45.69112" lon="6.67388">
        <ele>1827.4</ele>
        <time>2021-06-01T12:02:27Z</time>
      </trkpt>
      <trkpt lat="45.69111" lon="6.67392">
        <ele>1827.8</ele>
        <time>2021-06-01T12:02:28Z</time>
      </trkpt>
      <trkpt lat="45.69111" lon="6.67397">
        <ele>1828.2</ele>
        <time>2021-06-01T12:02:29Z</time>
      </trkpt>
      <trkpt lat="45.6911" lon="6.67402">
        <ele>1828.8</ele>
        <time>2021-06-01T12:02:30Z</time>
      </trkpt>
      <trkpt lat="45.69108" lon="6.67406">
        <ele>1829.4</ele>
        <time>2021-06-01T12:02:31Z</time>
      </trkpt>
      <trkpt lat="45.69108" lon="6.6741">
        <ele>1830</ele>
        <time>2021-06-01T12:02:32Z</time>
      </trkpt>
      <trkpt lat="45.69106" lon="6.67414">
        <ele>1830.2</ele>
        <time>2021-06-01T12:02:33Z</time>
      </trkpt>
      <trkpt lat="45.69104" lon="6.67418">
        <ele>1830.6</ele>
        <time>2021-06-01T12:02:34Z</time>
      </trkpt>
      <trkpt lat="45.69102" lon="6.67421">
        <ele>1831</ele>
        <time>2021-06-01T12:02:35Z</time>
      </trkpt>
      <trkpt lat="45.69101" lon="6.67425">
        <ele>1831.6</ele>
        <time>2021-06-01T12:02:36Z</time>
      </trkpt>
      <trkpt lat="45.691" lon="6.67429">
        <ele>1831.8</ele>
        <time>2021-06-01T12:02:37Z</time>
      </trkpt>
      <trkpt lat="45.69098" lon="6.67433">
        <ele>1832.2</ele>
        <time>2021-06-01T12:02:38Z</time>
      </trkpt>
      <trkpt lat="45.69096" lon="6.67437">
        <ele>1832.6</ele>
        <time>2021-06-01T12:02:39Z</time>
      </trkpt>
      <trkpt lat="45.69095" lon="6.67442">
        <ele>1832.8</ele>
        <time>2021-06-01T12:02:40Z</time>
      </trkpt>
      <trkpt lat="45.69094" lon="6.67447">
        <ele>1833</ele>
        <time>2021-06-01T12:02:41Z</time>
      </trkpt>
      <trkpt lat="45.69093" lon="6.67451">
        <ele>1833.2</ele>
        <time>2021-06-01T12:02:42Z</time>
      </trkpt>
      <trkpt lat="45.69092" lon="6.67456">
        <ele>1833.4</ele>
        <time>2021-06-01T12:02:43Z</time>
      </trkpt>
      <trkpt lat="45.69092" lon="6.67462">
        <ele>1833.8</ele>
        <time>2021-06-01T12:02:44Z</time>
      </trkpt>
      <trkpt lat="45.69092" lon="6.67467">
        <ele>1834.2</ele>
        <time>2021-06-01T12:02:45Z</time>
      </trkpt>
      <trkpt lat="45.69091" lon="6.67472">
        <ele>1834.6</ele>
        <time>2021-06-01T12:02:46Z</time>
      </trkpt>
      <trkpt lat="45.6909" lon="6.67476">
        <ele>1834.8</ele>
        <time>2021-06-01T12:02:47Z</time>
      </trkpt>
      <trkpt lat="45.6909" lon="6.67481">
        <ele>1835.2</ele>
        <time>2021-06-01T12:02:48Z</time>
      </trkpt>
      <trkpt lat="45.69089" lon="6.67486">
        <ele>1835.6</ele>
        <time>2021-06-01T12:02:49Z</time>
      </trkpt>
      <trkpt lat="45.69088" lon="6.67491">
        <ele>1835.8</ele>
        <time>2021-06-01T12:02:50Z</time>
      </trkpt>
      <trkpt lat="45.69088" lon="6.67495">
        <ele>1836.2</ele>
        <time>2021-06-01T12:02:51Z</time>
      </trkpt>
      <trkpt lat="45.69088" lon="6.675">
        <ele>1836.4</ele>
        <time>2021-06-01T12:02:52Z</time>
      </trkpt>
      <trkpt lat="45.69087" lon="6.67505">
        <ele>1836.6</ele>
        <time>2021-06-01T12:02:53Z</time>
      </trkpt>
      <trkpt lat="45.69087" lon="6.6751">
        <ele>1836.8</ele>
        <time>2021-06-01T12:02:54Z</time>
      </trkpt>
      <trkpt lat="45.69087" lon="6.67515">
        <ele>1837.4</ele>
        <time>2021-06-01T12:02:55Z</time>
      </trkpt>
      <trkpt lat="45.69087" lon="6.6752">
        <ele>1837.6</ele>
        <time>2021-06-01T12:02:56Z</time>
      </trkpt>
      <trkpt lat="45.69087" lon="6.67525">
        <ele>1837.8</ele>
        <time>2021-06-01T12:02:57Z</time>
      </trkpt>
      <trkpt lat="45.69087" lon="6.6753">
        <ele>1838</ele>
        <time>2021-06-01T12:02:58Z</time>
      </trkpt>
      <trkpt lat="45.69088" lon="6.67535">
        <ele>1838.4</ele>
        <time>2021-06-01T12:02:59Z</time>
      </trkpt>
      <trkpt lat="45.69088" lon="6.6754">
        <ele>1838.6</ele>
        <time>2021-06-01T12:03:00Z</time>
      </trkpt>
      <trkpt lat="45.69088" lon="6.67545">
        <ele>1838.8</ele>
        <time>2021-06-01T12:03:01Z</time>
      </trkpt>
      <trkpt lat="45.69089" lon="6.6755">
        <ele>1839.2</ele>
        <time>2021-06-01T12:03:02Z</time>
      </trkpt>
      <trkpt lat="45.69089" lon="6.67555">
        <ele>1839.4</ele>
        <time>2021-06-01T12:03:03Z</time>
      </trkpt>
      <trkpt lat="45.6909" lon="6.67559">
        <ele>1839.6</ele>
        <time>2021-06-01T12:03:04Z</time>
      </trkpt>
      <trkpt lat="45.6909" lon="6.67564">
        <ele>1840</ele>
        <time>2021-06-01T12:03:05Z</time>
      </trkpt>
      <trkpt lat="45.6909" lon="6.67569">
        <ele>1840.2</ele>
        <time>2021-06-01T12:03:06Z</time>
      </trkpt>
      <trkpt lat="45.69091" lon="6.67573">
        <ele>1840.6</ele>
        <time>2021-06-01T12:03:07Z</time>
      </trkpt>
      <trkpt lat="45.69091" lon="6.67578">
        <ele>1840.8</ele>
        <time>2021-06-01T12:03:08Z</time>
      </trkpt>
      <trkpt lat="45.69092" lon="6.67583">
        <ele>1841.2</ele>
        <time>2021-06-01T12:03:09Z</time>
      </trkpt>
      <trkpt lat="45.69093" lon="6.67588">
        <ele>1841.4</ele>
        <time>2021-06-01T12:03:10Z</time>
      </trkpt>
      <trkpt lat="45.69094" lon="6.67592">
        <ele>1841.8</ele>
        <time>2021-06-01T12:03:11Z</time>
      </trkpt>
      <trkpt lat="45.69095" lon="6.67597">
        <ele>1842</ele>
        <time>2021-06-01T12:03:12Z</time>
      </trkpt>
      <trkpt lat="45.69096" lon="6.67602">
        <ele>1842.4</ele>
        <time>2021-06-01T12:03:13Z</time>
      </trkpt>
      <trkpt lat="45.69097" lon="6.67606">
        <ele>1842.8</ele>
        <time>2021-06-01T12:03:14Z</time>
      </trkpt>
      <trkpt lat="45.69098" lon="6.67612">
        <ele>1843.2</ele>
        <time>2021-06-01T12:03:15Z</time>
      </trkpt>
      <trkpt lat="45.69099" lon="6.67616">
        <ele>1843.4</ele>
        <time>2021-06-01T12:03:16Z</time>
      </trkpt>
      <trkpt lat="45.691" lon="6.67622">
        <ele>1843.8</ele>
        <time>2021-06-01T12:03:17Z</time>
      </trkpt>
      <trkpt lat="45.691" lon="6.67627">
        <ele>1844</ele>
        <time>2021-06-01T12:03:18Z</time>
      </trkpt>
      <trkpt lat="45.69101" lon="6.67631">
        <ele>1844.2</ele>
        <time>2021-06-01T12:03:19Z</time>
      </trkpt>
      <trkpt lat="45.69102" lon="6.67635">
        <ele>1844.4</ele>
        <time>2021-06-01T12:03:20Z</time>
      </trkpt>
      <trkpt lat="45.69103" lon="6.67641">
        <ele>1845</ele>
        <time>2021-06-01T12:03:21Z</time>
      </trkpt>
      <trkpt lat="45.69104" lon="6.67646">
        <ele>1845.2</ele>
        <time>2021-06-01T12:03:22Z</time>
      </trkpt>
      <trkpt lat="45.69105" lon="6.67652">
        <ele>1845.6</ele>
        <time>2021-06-01T12:03:23Z</time>
      </trkpt>
      <trkpt lat="45.69106" lon="6.67657">
        <ele>1845.8</ele>
        <time>2021-06-01T12:03:24Z</time>
      </trkpt>
      <trkpt lat="45.69107" lon="6.67661">
        <ele>1846.2</ele>
        <time>2021-06-01T12:03:25Z</time>
      </trkpt>
      <trkpt lat="45.69108" lon="6.67666">
        <ele>1846.4</ele>
        <time>2021-06-01T12:03:26Z</time>
      </trkpt>
      <trkpt lat="45.69109" lon="6.67671">
        <ele>1846.8</ele>
        <time>2021-06-01T12:03:27Z</time>
      </trkpt>
      <trkpt lat="45.6911" lon="6.67676">
        <ele>1847.2</ele>
        <time>2021-06-01T12:03:28Z</time>
      </trkpt>
      <trkpt lat="45.6911" lon="6.6768">
        <ele>1847.6</ele>
        <time>2021-06-01T12:03:29Z</time>
      </trkpt>
      <trkpt lat="45.69111" lon="6.67686">
        <ele>1848</ele>
        <time>2021-06-01T12:03:30Z</time>
      </trkpt>
      <trkpt lat="45.69112" lon="6.67692">
        <ele>1848.4</ele>
        <time>2021-06-01T12:03:31Z</time>
      </trkpt>
      <trkpt lat="45.69113" lon="6.67698">
        <ele>1848.8</ele>
        <time>2021-06-01T12:03:32Z</time>
      </trkpt>
      <trkpt lat="45.69113" lon="6.67704">
        <ele>1849.2</ele>
        <time>2021-06-01T12:03:33Z</time>
      </trkpt>
      <trkpt lat="45.69114" lon="6.67708">
        <ele>1849.4</ele>
        <time>2021-06-01T12:03:34Z</time>
      </trkpt>
      <trkpt lat="45.69116" lon="6.67716">
        <ele>1849.4</ele>
        <time>2021-06-01T12:03:35Z</time>
      </trkpt>
      <trkpt lat="45.69116" lon="6.67721">
        <ele>1849.6</ele>
        <time>2021-06-01T12:03:36Z</time>
      </trkpt>
      <trkpt lat="45.69118" lon="6.67726">
        <ele>1849.8</ele>
        <time>2021-06-01T12:03:37Z</time>
      </trkpt>
      <trkpt lat="45.6912" lon="6.67732">
        <ele>1850</ele>
        <time>2021-06-01T12:03:38Z</time>
      </trkpt>
      <trkpt lat="45.69123" lon="6.67737">
        <ele>1850.2</ele>
        <time>2021-06-01T12:03:39Z</time>
      </trkpt>
      <trkpt lat="45.69126" lon="6.67743">
        <ele>1850.4</ele>
        <time>2021-06-01T12:03:40Z</time>
      </trkpt>
      <trkpt lat="45.69129" lon="6.67748">
        <ele>1850.4</ele>
        <time>2021-06-01T12:03:41Z</time>
      </trkpt>
      <trkpt lat="45.69132" lon="6.67753">
        <ele>1850.6</ele>
        <time>2021-06-01T12:03:42Z</time>
      </trkpt>
      <trkpt lat="45.69135" lon="6.67759">
        <ele>1850.8</ele>
        <time>2021-06-01T12:03:43Z</time>
      </trkpt>
      <trkpt lat="45.69138" lon="6.67764">
        <ele>1851</ele>
        <time>2021-06-01T12:03:44Z</time>
      </trkpt>
      <trkpt lat="45.69142" lon="6.67769">
        <ele>1851.2</ele>
        <time>2021-06-01T12:03:45Z</time>
      </trkpt>
      <trkpt lat="45.69146" lon="6.67774">
        <ele>1851.4</ele>
        <time>2021-06-01T12:03:46Z</time>
      </trkpt>
      <trkpt lat="45.69148" lon="6.67779">
        <ele>1851.8</ele>
        <time>2021-06-01T12:03:47Z</time>
      </trkpt>
      <trkpt lat="45.69151" lon="6.67783">
        <ele>1852.2</ele>
        <time>2021-06-01T12:03:48Z</time>
      </trkpt>
      <trkpt lat="45.69154" lon="6.67788">
        <ele>1852.6</ele>
        <time>2021-06-01T12:03:49Z</time>
      </trkpt>
      <trkpt lat="45.69156" lon="6.67792">
        <ele>1852.8</ele>
        <time>2021-06-01T12:03:50Z</time>
      </trkpt>
      <trkpt lat="45.69159" lon="6.67797">
        <ele>1853.2</ele>
        <time>2021-06-01T12:03:51Z</time>
      </trkpt>
      <trkpt lat="45.69162" lon="6.67801">
        <ele>1853.4</ele>
        <time>2021-06-01T12:03:52Z</time>
      </trkpt>
      <trkpt lat="45.69165" lon="6.67805">
        <ele>1853.8</ele>
        <time>2021-06-01T12:03:53Z</time>
      </trkpt>
      <trkpt lat="45.69167" lon="6.67808">
        <ele>1854.2</ele>
        <time>2021-06-01T12:03:54Z</time>
      </trkpt>
      <trkpt lat="45.6917" lon="6.67812">
        <ele>1854.4</ele>
        <time>2021-06-01T12:03:55Z</time>
      </trkpt>
      <trkpt lat="45.69173" lon="6.67816">
        <ele>1854.8</ele>
        <time>2021-06-01T12:03:56Z</time>
      </trkpt>
      <trkpt lat="45.69175" lon="6.67821">
        <ele>1855.2</ele>
        <time>2021-06-01T12:03:57Z</time>
      </trkpt>
      <trkpt lat="45.69178" lon="6.67825">
        <ele>1855.4</ele>
        <time>2021-06-01T12:03:58Z</time>
      </trkpt>
      <trkpt lat="45.6918" lon="6.67829">
        <ele>1855.8</ele>
        <time>2021-06-01T12:03:59Z</time>
      </trkpt>
      <trkpt lat="45.69182" lon="6.67833">
        <ele>1856</ele>
        <time>2021-06-01T12:04:00Z</time>
      </trkpt>
      <trkpt lat="45.69185" lon="6.67838">
        <ele>1856.4</ele>
        <time>2021-06-01T12:04:01Z</time>
      </trkpt>
      <trkpt lat="45.69187" lon="6.67842">
        <ele>1856.8</ele>
        <time>2021-06-01T12:04:02Z</time>
      </trkpt>
      <trkpt lat="45.69189" lon="6.67845">
        <ele>1857</ele>
        <time>2021-06-01T12:04:03Z</time>
      </trkpt>
      <trkpt lat="45.69191" lon="6.67849">
        <ele>1857.4</ele>
        <time>2021-06-01T12:04:04Z</time>
      </trkpt>
      <trkpt lat="45.69193" lon="6.67852">
        <ele>1857.8</ele>
        <time>2021-06-01T12:04:05Z</time>
      </trkpt>
      <trkpt lat="45.69196" lon="6.67857">
        <ele>1858</ele>
        <time>2021-06-01T12:04:06Z</time>
      </trkpt>
      <trkpt lat="45.69198" lon="6.67861">
        <ele>1858.4</ele>
        <time>2021-06-01T12:04:07Z</time>
      </trkpt>
      <trkpt lat="45.69199" lon="6.67864">
        <ele>1858.8</ele>
        <time>2021-06-01T12:04:08Z</time>
      </trkpt>
      <trkpt lat="45.69202" lon="6.67868">
        <ele>1859.2</ele>
        <time>2021-06-01T12:04:09Z</time>
      </trkpt>
      <trkpt lat="45.69203" lon="6.67871">
        <ele>1859.4</ele>
        <time>2021-06-01T12:04:10Z</time>
      </trkpt>
      <trkpt lat="45.69205" lon="6.67876">
        <ele>1859.8</ele>
        <time>2021-06-01T12:04:11Z</time>
      </trkpt>
      <trkpt lat="45.69207" lon="6.6788">
        <ele>1860</ele>
        <time>2021-06-01T12:04:12Z</time>
      </trkpt>
      <trkpt lat="45.69209" lon="6.67884">
        <ele>1860.4</ele>
        <time>2021-06-01T12:04:13Z</time>
      </trkpt>
      <trkpt lat="45.69211" lon="6.67888">
        <ele>1860.8</ele>
        <time>2021-06-01T12:04:14Z</time>
      </trkpt>
      <trkpt lat="45.69212" lon="6.67893">
        <ele>1861</ele>
        <time>2021-06-01T12:04:15Z</time>
      </trkpt>
      <trkpt lat="45.69213" lon="6.67896">
        <ele>1861.4</ele>
        <time>2021-06-01T12:04:16Z</time>
      </trkpt>
      <trkpt lat="45.69215" lon="6.67901">
        <ele>1861.8</ele>
        <time>2021-06-01T12:04:17Z</time>
      </trkpt>
      <trkpt lat="45.69216" lon="6.67905">
        <ele>1862</ele>
        <time>2021-06-01T12:04:18Z</time>
      </trkpt>
      <trkpt lat="45.69219" lon="6.67909">
        <ele>1862.2</ele>
        <time>2021-06-01T12:04:19Z</time>
      </trkpt>
      <trkpt lat="45.69221" lon="6.67913">
        <ele>1862.6</ele>
        <time>2021-06-01T12:04:20Z</time>
      </trkpt>
      <trkpt lat="45.69223" lon="6.67916">
        <ele>1862.8</ele>
        <time>2021-06-01T12:04:21Z</time>
      </trkpt>
      <trkpt lat="45.69226" lon="6.67921">
        <ele>1863.2</ele>
        <time>2021-06-01T12:04:22Z</time>
      </trkpt>
      <trkpt lat="45.69229" lon="6.67925">
        <ele>1863.4</ele>
        <time>2021-06-01T12:04:23Z</time>
      </trkpt>
      <trkpt lat="45.69232" lon="6.67929">
        <ele>1863.6</ele>
        <time>2021-06-01T12:04:24Z</time>
      </trkpt>
      <trkpt lat="45.69235" lon="6.67931">
        <ele>1864</ele>
        <time>2021-06-01T12:04:25Z</time>
      </trkpt>
      <trkpt lat="45.69239" lon="6.67934">
        <ele>1864.2</ele>
        <time>2021-06-01T12:04:26Z</time>
      </trkpt>
      <trkpt lat="45.69242" lon="6.67936">
        <ele>1864.6</ele>
        <time>2021-06-01T12:04:27Z</time>
      </trkpt>
      <trkpt lat="45.69245" lon="6.67938">
        <ele>1865</ele>
        <time>2021-06-01T12:04:28Z</time>
      </trkpt>
      <trkpt lat="45.69249" lon="6.67939">
        <ele>1865.4</ele>
        <time>2021-06-01T12:04:29Z</time>
      </trkpt>
      <trkpt lat="45.69252" lon="6.67941">
        <ele>1865.8</ele>
        <time>2021-06-01T12:04:30Z</time>
      </trkpt>
      <trkpt lat="45.69255" lon="6.67942">
        <ele>1866.4</ele>
        <time>2021-06-01T12:04:31Z</time>
      </trkpt>
      <trkpt lat="45.69259" lon="6.67944">
        <ele>1866.8</ele>
        <time>2021-06-01T12:04:32Z</time>
      </trkpt>
      <trkpt lat="45.69262" lon="6.67945">
        <ele>1867.2</ele>
        <time>2021-06-01T12:04:33Z</time>
      </trkpt>
      <trkpt lat="45.69266" lon="6.67947">
        <ele>1867.6</ele>
        <time>2021-06-01T12:04:34Z</time>
      </trkpt>
      <trkpt lat="45.69269" lon="6.67949">
        <ele>1868</ele>
        <time>2021-06-01T12:04:35Z</time>
      </trkpt>
      <trkpt lat="45.69273" lon="6.6795">
        <ele>1868.4</ele>
        <time>2021-06-01T12:04:36Z</time>
      </trkpt>
      <trkpt lat="45.69276" lon="6.67952">
        <ele>1868.8</ele>
        <time>2021-06-01T12:04:37Z</time>
      </trkpt>
      <trkpt lat="45.69279" lon="6.67954">
        <ele>1869.2</ele>
        <time>2021-06-01T12:04:38Z</time>
      </trkpt>
      <trkpt lat="45.69282" lon="6.67957">
        <ele>1869.6</ele>
        <time>2021-06-01T12:04:39Z</time>
      </trkpt>
      <trkpt lat="45.69285" lon="6.6796">
        <ele>1870</ele>
        <time>2021-06-01T12:04:40Z</time>
      </trkpt>
      <trkpt lat="45.69288" lon="6.67963">
        <ele>1870.2</ele>
        <time>2021-06-01T12:04:41Z</time>
      </trkpt>
      <trkpt lat="45.69291" lon="6.67966">
        <ele>1870.6</ele>
        <time>2021-06-01T12:04:42Z</time>
      </trkpt>
      <trkpt lat="45.69293" lon="6.67969">
        <ele>1870.8</ele>
        <time>2021-06-01T12:04:43Z</time>
      </trkpt>
      <trkpt lat="45.69296" lon="6.67973">
        <ele>1871.2</ele>
        <time>2021-06-01T12:04:44Z</time>
      </trkpt>
      <trkpt lat="45.69297" lon="6.67976">
        <ele>1871.6</ele>
        <time>2021-06-01T12:04:45Z</time>
      </trkpt>
      <trkpt lat="45.69299" lon="6.6798">
        <ele>1872</ele>
        <time>2021-06-01T12:04:46Z</time>
      </trkpt>
      <trkpt lat="45.69302" lon="6.67984">
        <ele>1872.2</ele>
        <time>2021-06-01T12:04:47Z</time>
      </trkpt>
      <trkpt lat="45.69303" lon="6.67987">
        <ele>1872.6</ele>
        <time>2021-06-01T12:04:48Z</time>
      </trkpt>
      <trkpt lat="45.69305" lon="6.67992">
        <ele>1872.8</ele>
        <time>2021-06-01T12:04:49Z</time>
      </trkpt>
      <trkpt lat="45.69306" lon="6.67996">
        <ele>1873.2</ele>
        <time>2021-06-01T12:04:50Z</time>
      </trkpt>
      <trkpt lat="45.69307" lon="6.68">
        <ele>1873.4</ele>
        <time>2021-06-01T12:04:51Z</time>
      </trkpt>
      <trkpt lat="45.69308" lon="6.68005">
        <ele>1873.8</ele>
        <time>2021-06-01T12:04:52Z</time>
      </trkpt>
      <trkpt lat="45.69309" lon="6.68009">
        <ele>1874</ele>
        <time>2021-06-01T12:04:53Z</time>
      </trkpt>
      <trkpt lat="45.6931" lon="6.68013">
        <ele>1874.2</ele>
        <time>2021-06-01T12:04:54Z</time>
      </trkpt>
      <trkpt lat="45.69312" lon="6.68018">
        <ele>1874.6</ele>
        <time>2021-06-01T12:04:55Z</time>
      </trkpt>
      <trkpt lat="45.69313" lon="6.68022">
        <ele>1874.8</ele>
        <time>2021-06-01T12:04:56Z</time>
      </trkpt>
      <trkpt lat="45.69313" lon="6.68027">
        <ele>1875</ele>
        <time>2021-06-01T12:04:57Z</time>
      </trkpt>
      <trkpt lat="45.69314" lon="6.68031">
        <ele>1875.4</ele>
        <time>2021-06-01T12:04:58Z</time>
      </trkpt>
      <trkpt lat="45.69315" lon="6.68037">
        <ele>1875.6</ele>
        <time>2021-06-01T12:04:59Z</time>
      </trkpt>
      <trkpt lat="45.69316" lon="6.68041">
        <ele>1876</ele>
        <time>2021-06-01T12:05:00Z</time>
      </trkpt>
      <trkpt lat="45.69317" lon="6.68045">
        <ele>1876.4</ele>
        <time>2021-06-01T12:05:01Z</time>
      </trkpt>
      <trkpt lat="45.69318" lon="6.6805">
        <ele>1876.6</ele>
        <time>2021-06-01T12:05:02Z</time>
      </trkpt>
      <trkpt lat="45.69319" lon="6.68054">
        <ele>1877</ele>
        <time>2021-06-01T12:05:03Z</time>
      </trkpt>
      <trkpt lat="45.6932" lon="6.68058">
        <ele>1877.2</ele>
        <time>2021-06-01T12:05:04Z</time>
      </trkpt>
      <trkpt lat="45.69321" lon="6.68063">
        <ele>1877.2</ele>
        <time>2021-06-01T12:05:05Z</time>
      </trkpt>
      <trkpt lat="45.69322" lon="6.68067">
        <ele>1877.4</ele>
        <time>2021-06-01T12:05:06Z</time>
      </trkpt>
      <trkpt lat="45.69322" lon="6.68072">
        <ele>1877.8</ele>
        <time>2021-06-01T12:05:07Z</time>
      </trkpt>
      <trkpt lat="45.69323" lon="6.68076">
        <ele>1878</ele>
        <time>2021-06-01T12:05:08Z</time>
      </trkpt>
      <trkpt lat="45.69324" lon="6.68081">
        <ele>1878.2</ele>
        <time>2021-06-01T12:05:09Z</time>
      </trkpt>
      <trkpt lat="45.69324" lon="6.68085">
        <ele>1878.6</ele>
        <time>2021-06-01T12:05:10Z</time>
      </trkpt>
      <trkpt lat="45.69325" lon="6.6809">
        <ele>1879.2</ele>
        <time>2021-06-01T12:05:11Z</time>
      </trkpt>
      <trkpt lat="45.69325" lon="6.68095">
        <ele>1879.6</ele>
        <time>2021-06-01T12:05:12Z</time>
      </trkpt>
      <trkpt lat="45.69326" lon="6.68099">
        <ele>1879.8</ele>
        <time>2021-06-01T12:05:13Z</time>
      </trkpt>
      <trkpt lat="45.69326" lon="6.68104">
        <ele>1880.4</ele>
        <time>2021-06-01T12:05:14Z</time>
      </trkpt>
      <trkpt lat="45.69327" lon="6.68109">
        <ele>1880.6</ele>
        <time>2021-06-01T12:05:15Z</time>
      </trkpt>
      <trkpt lat="45.69327" lon="6.68113">
        <ele>1881</ele>
        <time>2021-06-01T12:05:16Z</time>
      </trkpt>
      <trkpt lat="45.69327" lon="6.68118">
        <ele>1881.4</ele>
        <time>2021-06-01T12:05:17Z</time>
      </trkpt>
      <trkpt lat="45.69328" lon="6.68122">
        <ele>1881.8</ele>
        <time>2021-06-01T12:05:18Z</time>
      </trkpt>
      <trkpt lat="45.69328" lon="6.68127">
        <ele>1881.6</ele>
        <time>2021-06-01T12:05:19Z</time>
      </trkpt>
      <trkpt lat="45.69329" lon="6.68132">
        <ele>1881.8</ele>
        <time>2021-06-01T12:05:20Z</time>
      </trkpt>
      <trkpt lat="45.6933" lon="6.68135">
        <ele>1882</ele>
        <time>2021-06-01T12:05:21Z</time>
      </trkpt>
      <trkpt lat="45.69331" lon="6.68141">
        <ele>1882.4</ele>
        <time>2021-06-01T12:05:22Z</time>
      </trkpt>
      <trkpt lat="45.69332" lon="6.68144">
        <ele>1882.6</ele>
        <time>2021-06-01T12:05:23Z</time>
      </trkpt>
      <trkpt lat="45.69334" lon="6.68149">
        <ele>1883</ele>
        <time>2021-06-01T12:05:24Z</time>
      </trkpt>
      <trkpt lat="45.69335" lon="6.68153">
        <ele>1883.2</ele>
        <time>2021-06-01T12:05:25Z</time>
      </trkpt>
      <trkpt lat="45.69337" lon="6.68157">
        <ele>1883.6</ele>
        <time>2021-06-01T12:05:26Z</time>
      </trkpt>
      <trkpt lat="45.69339" lon="6.68161">
        <ele>1884</ele>
        <time>2021-06-01T12:05:27Z</time>
      </trkpt>
      <trkpt lat="45.69341" lon="6.68164">
        <ele>1884.2</ele>
        <time>2021-06-01T12:05:28Z</time>
      </trkpt>
      <trkpt lat="45.69344" lon="6.68168">
        <ele>1884.6</ele>
        <time>2021-06-01T12:05:29Z</time>
      </trkpt>
      <trkpt lat="45.69346" lon="6.68172">
        <ele>1884.8</ele>
        <time>2021-06-01T12:05:30Z</time>
      </trkpt>
      <trkpt lat="45.69349" lon="6.68175">
        <ele>1885.2</ele>
        <time>2021-06-01T12:05:31Z</time>
      </trkpt>
      <trkpt lat="45.69352" lon="6.68178">
        <ele>1885.4</ele>
        <time>2021-06-01T12:05:32Z</time>
      </trkpt>
      <trkpt lat="45.69355" lon="6.68181">
        <ele>1885.8</ele>
        <time>2021-06-01T12:05:33Z</time>
      </trkpt>
      <trkpt lat="45.69357" lon="6.68184">
        <ele>1886.2</ele>
        <time>2021-06-01T12:05:34Z</time>
      </trkpt>
      <trkpt lat="45.6936" lon="6.68187">
        <ele>1886.6</ele>
        <time>2021-06-01T12:05:35Z</time>
      </trkpt>
      <trkpt lat="45.69363" lon="6.68189">
        <ele>1886.8</ele>
        <time>2021-06-01T12:05:36Z</time>
      </trkpt>
      <trkpt lat="45.69366" lon="6.68192">
        <ele>1887.2</ele>
        <time>2021-06-01T12:05:37Z</time>
      </trkpt>
      <trkpt lat="45.69368" lon="6.68195">
        <ele>1887.6</ele>
        <time>2021-06-01T12:05:38Z</time>
      </trkpt>
      <trkpt lat="45.69371" lon="6.68198">
        <ele>1887.8</ele>
        <time>2021-06-01T12:05:39Z</time>
      </trkpt>
      <trkpt lat="45.69374" lon="6.68201">
        <ele>1887.8</ele>
        <time>2021-06-01T12:05:40Z</time>
      </trkpt>
      <trkpt lat="45.69376" lon="6.68204">
        <ele>1888.2</ele>
        <time>2021-06-01T12:05:41Z</time>
      </trkpt>
      <trkpt lat="45.6938" lon="6.68207">
        <ele>1888.4</ele>
        <time>2021-06-01T12:05:42Z</time>
      </trkpt>
      <trkpt lat="45.69382" lon="6.68211">
        <ele>1888.8</ele>
        <time>2021-06-01T12:05:43Z</time>
      </trkpt>
      <trkpt lat="45.69385" lon="6.68214">
        <ele>1889</ele>
        <time>2021-06-01T12:05:44Z</time>
      </trkpt>
      <trkpt lat="45.69388" lon="6.68217">
        <ele>1889.4</ele>
        <time>2021-06-01T12:05:45Z</time>
      </trkpt>
      <trkpt lat="45.6939" lon="6.6822">
        <ele>1889.6</ele>
        <time>2021-06-01T12:05:46Z</time>
      </trkpt>
      <trkpt lat="45.69394" lon="6.68222">
        <ele>1889.8</ele>
        <time>2021-06-01T12:05:47Z</time>
      </trkpt>
      <trkpt lat="45.69396" lon="6.68225">
        <ele>1890</ele>
        <time>2021-06-01T12:05:48Z</time>
      </trkpt>
      <trkpt lat="45.694" lon="6.68228">
        <ele>1890.2</ele>
        <time>2021-06-01T12:05:49Z</time>
      </trkpt>
      <trkpt lat="45.69403" lon="6.6823">
        <ele>1890.4</ele>
        <time>2021-06-01T12:05:50Z</time>
      </trkpt>
      <trkpt lat="45.69406" lon="6.68232">
        <ele>1890.6</ele>
        <time>2021-06-01T12:05:51Z</time>
      </trkpt>
      <trkpt lat="45.6941" lon="6.68235">
        <ele>1890.8</ele>
        <time>2021-06-01T12:05:52Z</time>
      </trkpt>
      <trkpt lat="45.69413" lon="6.68237">
        <ele>1891.2</ele>
        <time>2021-06-01T12:05:53Z</time>
      </trkpt>
      <trkpt lat="45.69416" lon="6.6824">
        <ele>1891.2</ele>
        <time>2021-06-01T12:05:54Z</time>
      </trkpt>
      <trkpt lat="45.69419" lon="6.68244">
        <ele>1891.4</ele>
        <time>2021-06-01T12:05:55Z</time>
      </trkpt>
      <trkpt lat="45.69421" lon="6.68248">
        <ele>1891.8</ele>
        <time>2021-06-01T12:05:56Z</time>
      </trkpt>
      <trkpt lat="45.69423" lon="6.68252">
        <ele>1892.2</ele>
        <time>2021-06-01T12:05:57Z</time>
      </trkpt>
      <trkpt lat="45.69424" lon="6.68256">
        <ele>1892.4</ele>
        <time>2021-06-01T12:05:58Z</time>
      </trkpt>
      <trkpt lat="45.69424" lon="6.68261">
        <ele>1893</ele>
        <time>2021-06-01T12:05:59Z</time>
      </trkpt>
      <trkpt lat="45.69424" lon="6.68266">
        <ele>1893.2</ele>
        <time>2021-06-01T12:06:00Z</time>
      </trkpt>
      <trkpt lat="45.69422" lon="6.6827">
        <ele>1893.4</ele>
        <time>2021-06-01T12:06:01Z</time>
      </trkpt>
      <trkpt lat="45.6942" lon="6.68273">
        <ele>1893.6</ele>
        <time>2021-06-01T12:06:02Z</time>
      </trkpt>
      <trkpt lat="45.69417" lon="6.68275">
        <ele>1894.2</ele>
        <time>2021-06-01T12:06:03Z</time>
      </trkpt>
      <trkpt lat="45.69414" lon="6.68277">
        <ele>1894.6</ele>
        <time>2021-06-01T12:06:04Z</time>
      </trkpt>
      <trkpt lat="45.6941" lon="6.68277">
        <ele>1895</ele>
        <time>2021-06-01T12:06:05Z</time>
      </trkpt>
      <trkpt lat="45.69406" lon="6.68277">
        <ele>1895.4</ele>
        <time>2021-06-01T12:06:06Z</time>
      </trkpt>
      <trkpt lat="45.69403" lon="6.68275">
        <ele>1895.8</ele>
        <time>2021-06-01T12:06:07Z</time>
      </trkpt>
      <trkpt lat="45.69398" lon="6.68273">
        <ele>1896</ele>
        <time>2021-06-01T12:06:08Z</time>
      </trkpt>
      <trkpt lat="45.69395" lon="6.68271">
        <ele>1896.6</ele>
        <time>2021-06-01T12:06:09Z</time>
      </trkpt>
      <trkpt lat="45.69392" lon="6.68268">
        <ele>1896.8</ele>
        <time>2021-06-01T12:06:10Z</time>
      </trkpt>
      <trkpt lat="45.69389" lon="6.68266">
        <ele>1897.2</ele>
        <time>2021-06-01T12:06:11Z</time>
      </trkpt>
      <trkpt lat="45.69386" lon="6.68263">
        <ele>1897.4</ele>
        <time>2021-06-01T12:06:12Z</time>
      </trkpt>
      <trkpt lat="45.69383" lon="6.6826">
        <ele>1897.6</ele>
        <time>2021-06-01T12:06:13Z</time>
      </trkpt>
      <trkpt lat="45.6938" lon="6.68257">
        <ele>1898</ele>
        <time>2021-06-01T12:06:14Z</time>
      </trkpt>
      <trkpt lat="45.69377" lon="6.68254">
        <ele>1898.2</ele>
        <time>2021-06-01T12:06:15Z</time>
      </trkpt>
      <trkpt lat="45.69374" lon="6.68252">
        <ele>1898.2</ele>
        <time>2021-06-01T12:06:16Z</time>
      </trkpt>
      <trkpt lat="45.69371" lon="6.68249">
        <ele>1898.6</ele>
        <time>2021-06-01T12:06:17Z</time>
      </trkpt>
      <trkpt lat="45.69368" lon="6.68247">
        <ele>1899.2</ele>
        <time>2021-06-01T12:06:18Z</time>
      </trkpt>
      <trkpt lat="45.69364" lon="6.68244">
        <ele>1899.4</ele>
        <time>2021-06-01T12:06:19Z</time>
      </trkpt>
      <trkpt lat="45.69361" lon="6.68242">
        <ele>1900</ele>
        <time>2021-06-01T12:06:20Z</time>
      </trkpt>
      <trkpt lat="45.69357" lon="6.68239">
        <ele>1900.4</ele>
        <time>2021-06-01T12:06:21Z</time>
      </trkpt>
      <trkpt lat="45.69354" lon="6.68236">
        <ele>1900.8</ele>
        <time>2021-06-01T12:06:22Z</time>
      </trkpt>
      <trkpt lat="45.6935" lon="6.68234">
        <ele>1901.4</ele>
        <time>2021-06-01T12:06:23Z</time>
      </trkpt>
      <trkpt lat="45.69346" lon="6.68232">
        <ele>1901.8</ele>
        <time>2021-06-01T12:06:24Z</time>
      </trkpt>
      <trkpt lat="45.69342" lon="6.6823">
        <ele>1902.2</ele>
        <time>2021-06-01T12:06:25Z</time>
      </trkpt>
      <trkpt lat="45.69338" lon="6.68228">
        <ele>1902.2</ele>
        <time>2021-06-01T12:06:26Z</time>
      </trkpt>
      <trkpt lat="45.69334" lon="6.68225">
        <ele>1902.8</ele>
        <time>2021-06-01T12:06:27Z</time>
      </trkpt>
      <trkpt lat="45.6933" lon="6.68223">
        <ele>1903.2</ele>
        <time>2021-06-01T12:06:28Z</time>
      </trkpt>
      <trkpt lat="45.69326" lon="6.6822">
        <ele>1903.4</ele>
        <time>2021-06-01T12:06:29Z</time>
      </trkpt>
      <trkpt lat="45.69322" lon="6.68217">
        <ele>1903.6</ele>
        <time>2021-06-01T12:06:30Z</time>
      </trkpt>
      <trkpt lat="45.69317" lon="6.68215">
        <ele>1903.8</ele>
        <time>2021-06-01T12:06:31Z</time>
      </trkpt>
      <trkpt lat="45.69313" lon="6.68212">
        <ele>1904</ele>
        <time>2021-06-01T12:06:32Z</time>
      </trkpt>
      <trkpt lat="45.69308" lon="6.6821">
        <ele>1904.2</ele>
        <time>2021-06-01T12:06:33Z</time>
      </trkpt>
      <trkpt lat="45.69304" lon="6.68207">
        <ele>1904.2</ele>
        <time>2021-06-01T12:06:34Z</time>
      </trkpt>
      <trkpt lat="45.693" lon="6.68204">
        <ele>1904.4</ele>
        <time>2021-06-01T12:06:35Z</time>
      </trkpt>
      <trkpt lat="45.69295" lon="6.68202">
        <ele>1904.6</ele>
        <time>2021-06-01T12:06:36Z</time>
      </trkpt>
      <trkpt lat="45.69291" lon="6.68199">
        <ele>1905.2</ele>
        <time>2021-06-01T12:06:37Z</time>
      </trkpt>
      <trkpt lat="45.69287" lon="6.68197">
        <ele>1905.4</ele>
        <time>2021-06-01T12:06:38Z</time>
      </trkpt>
      <trkpt lat="45.69283" lon="6.68194">
        <ele>1905.6</ele>
        <time>2021-06-01T12:06:39Z</time>
      </trkpt>
      <trkpt lat="45.69278" lon="6.68192">
        <ele>1905.8</ele>
        <time>2021-06-01T12:06:40Z</time>
      </trkpt>
      <trkpt lat="45.69274" lon="6.68189">
        <ele>1906.2</ele>
        <time>2021-06-01T12:06:41Z</time>
      </trkpt>
      <trkpt lat="45.6927" lon="6.68187">
        <ele>1906.4</ele>
        <time>2021-06-01T12:06:42Z</time>
      </trkpt>
      <trkpt lat="45.69266" lon="6.68184">
        <ele>1906.4</ele>
        <time>2021-06-01T12:06:43Z</time>
      </trkpt>
      <trkpt lat="45.69262" lon="6.68181">
        <ele>1906.8</ele>
        <time>2021-06-01T12:06:44Z</time>
      </trkpt>
      <trkpt lat="45.69258" lon="6.68178">
        <ele>1907</ele>
        <time>2021-06-01T12:06:45Z</time>
      </trkpt>
      <trkpt lat="45.69254" lon="6.68175">
        <ele>1907.2</ele>
        <time>2021-06-01T12:06:46Z</time>
      </trkpt>
      <trkpt lat="45.6925" lon="6.6817">
        <ele>1907.4</ele>
        <time>2021-06-01T12:06:47Z</time>
      </trkpt>
      <trkpt lat="45.69246" lon="6.68166">
        <ele>1907.4</ele>
        <time>2021-06-01T12:06:48Z</time>
      </trkpt>
      <trkpt lat="45.69243" lon="6.68161">
        <ele>1907.8</ele>
        <time>2021-06-01T12:06:49Z</time>
      </trkpt>
      <trkpt lat="45.69239" lon="6.68156">
        <ele>1907.8</ele>
        <time>2021-06-01T12:06:50Z</time>
      </trkpt>
      <trkpt lat="45.69236" lon="6.68151">
        <ele>1907.8</ele>
        <time>2021-06-01T12:06:51Z</time>
      </trkpt>
      <trkpt lat="45.69233" lon="6.68147">
        <ele>1907.8</ele>
        <time>2021-06-01T12:06:52Z</time>
      </trkpt>
      <trkpt lat="45.69229" lon="6.68142">
        <ele>1907.8</ele>
        <time>2021-06-01T12:06:53Z</time>
      </trkpt>
      <trkpt lat="45.69226" lon="6.68138">
        <ele>1908</ele>
        <time>2021-06-01T12:06:54Z</time>
      </trkpt>
      <trkpt lat="45.69223" lon="6.68133">
        <ele>1908.4</ele>
        <time>2021-06-01T12:06:55Z</time>
      </trkpt>
      <trkpt lat="45.69219" lon="6.68128">
        <ele>1908.4</ele>
        <time>2021-06-01T12:06:56Z</time>
      </trkpt>
      <trkpt lat="45.69216" lon="6.68124">
        <ele>1908.4</ele>
        <time>2021-06-01T12:06:57Z</time>
      </trkpt>
      <trkpt lat="45.69213" lon="6.68119">
        <ele>1908.6</ele>
        <time>2021-06-01T12:06:58Z</time>
      </trkpt>
      <trkpt lat="45.6921" lon="6.68115">
        <ele>1908.8</ele>
        <time>2021-06-01T12:06:59Z</time>
      </trkpt>
      <trkpt lat="45.69207" lon="6.68111">
        <ele>1909</ele>
        <time>2021-06-01T12:07:00Z</time>
      </trkpt>
      <trkpt lat="45.69204" lon="6.68107">
        <ele>1909.2</ele>
        <time>2021-06-01T12:07:01Z</time>
      </trkpt>
      <trkpt lat="45.69201" lon="6.68103">
        <ele>1909.2</ele>
        <time>2021-06-01T12:07:02Z</time>
      </trkpt>
      <trkpt lat="45.69199" lon="6.68099">
        <ele>1909.4</ele>
        <time>2021-06-01T12:07:03Z</time>
      </trkpt>
      <trkpt lat="45.69196" lon="6.68095">
        <ele>1909.8</ele>
        <time>2021-06-01T12:07:04Z</time>
      </trkpt>
      <trkpt lat="45.69193" lon="6.68092">
        <ele>1909.8</ele>
        <time>2021-06-01T12:07:05Z</time>
      </trkpt>
      <trkpt lat="45.6919" lon="6.68088">
        <ele>1910.2</ele>
        <time>2021-06-01T12:07:06Z</time>
      </trkpt>
      <trkpt lat="45.69187" lon="6.68084">
        <ele>1910.8</ele>
        <time>2021-06-01T12:07:07Z</time>
      </trkpt>
      <trkpt lat="45.69185" lon="6.6808">
        <ele>1911</ele>
        <time>2021-06-01T12:07:08Z</time>
      </trkpt>
      <trkpt lat="45.69181" lon="6.68077">
        <ele>1911.2</ele>
        <time>2021-06-01T12:07:09Z</time>
      </trkpt>
      <trkpt lat="45.69178" lon="6.68073">
        <ele>1911.4</ele>
        <time>2021-06-01T12:07:10Z</time>
      </trkpt>
      <trkpt lat="45.69176" lon="6.6807">
        <ele>1912</ele>
        <time>2021-06-01T12:07:11Z</time>
      </trkpt>
      <trkpt lat="45.69173" lon="6.68067">
        <ele>1912</ele>
        <time>2021-06-01T12:07:12Z</time>
      </trkpt>
      <trkpt lat="45.6917" lon="6.68064">
        <ele>1912.2</ele>
        <time>2021-06-01T12:07:13Z</time>
      </trkpt>
      <trkpt lat="45.69167" lon="6.68061">
        <ele>1912.6</ele>
        <time>2021-06-01T12:07:14Z</time>
      </trkpt>
      <trkpt lat="45.69165" lon="6.68057">
        <ele>1913.2</ele>
        <time>2021-06-01T12:07:15Z</time>
      </trkpt>
      <trkpt lat="45.69162" lon="6.68054">
        <ele>1913.4</ele>
        <time>2021-06-01T12:07:16Z</time>
      </trkpt>
      <trkpt lat="45.69159" lon="6.68052">
        <ele>1913.6</ele>
        <time>2021-06-01T12:07:17Z</time>
      </trkpt>
      <trkpt lat="45.69157" lon="6.68049">
        <ele>1913.6</ele>
        <time>2021-06-01T12:07:18Z</time>
      </trkpt>
      <trkpt lat="45.69154" lon="6.68047">
        <ele>1913.8</ele>
        <time>2021-06-01T12:07:19Z</time>
      </trkpt>
      <trkpt lat="45.69151" lon="6.68045">
        <ele>1914.2</ele>
        <time>2021-06-01T12:07:20Z</time>
      </trkpt>
      <trkpt lat="45.69148" lon="6.68042">
        <ele>1914.8</ele>
        <time>2021-06-01T12:07:21Z</time>
      </trkpt>
      <trkpt lat="45.69146" lon="6.6804">
        <ele>1915.2</ele>
        <time>2021-06-01T12:07:22Z</time>
      </trkpt>
      <trkpt lat="45.69143" lon="6.68038">
        <ele>1915.4</ele>
        <time>2021-06-01T12:07:23Z</time>
      </trkpt>
      <trkpt lat="45.6914" lon="6.68036">
        <ele>1915.6</ele>
        <time>2021-06-01T12:07:24Z</time>
      </trkpt>
      <trkpt lat="45.69138" lon="6.68034">
        <ele>1915.8</ele>
        <time>2021-06-01T12:07:25Z</time>
      </trkpt>
      <trkpt lat="45.69135" lon="6.68033">
        <ele>1916</ele>
        <time>2021-06-01T12:07:26Z</time>
      </trkpt>
      <trkpt lat="45.69132" lon="6.6803">
        <ele>1916</ele>
        <time>2021-06-01T12:07:27Z</time>
      </trkpt>
      <trkpt lat="45.6913" lon="6.68028">
        <ele>1916.2</ele>
        <time>2021-06-01T12:07:28Z</time>
      </trkpt>
      <trkpt lat="45.69127" lon="6.68025">
        <ele>1916.8</ele>
        <time>2021-06-01T12:07:29Z</time>
      </trkpt>
      <trkpt lat="45.69125" lon="6.68023">
        <ele>1917</ele>
        <time>2021-06-01T12:07:30Z</time>
      </trkpt>
      <trkpt lat="45.69122" lon="6.6802">
        <ele>1917.4</ele>
        <time>2021-06-01T12:07:31Z</time>
      </trkpt>
      <trkpt lat="45.6912" lon="6.68017">
        <ele>1917.6</ele>
        <time>2021-06-01T12:07:32Z</time>
      </trkpt>
      <trkpt lat="45.69117" lon="6.68014">
        <ele>1917.6</ele>
        <time>2021-06-01T12:07:33Z</time>
      </trkpt>
      <trkpt lat="45.69115" lon="6.68011">
        <ele>1918</ele>
        <time>2021-06-01T12:07:34Z</time>
      </trkpt>
      <trkpt lat="45.69112" lon="6.68009">
        <ele>1918.4</ele>
        <time>2021-06-01T12:07:35Z</time>
      </trkpt>
      <trkpt lat="45.69109" lon="6.68006">
        <ele>1919</ele>
        <time>2021-06-01T12:07:36Z</time>
      </trkpt>
      <trkpt lat="45.69107" lon="6.68004">
        <ele>1919.4</ele>
        <time>2021-06-01T12:07:37Z</time>
      </trkpt>
      <trkpt lat="45.69104" lon="6.68002">
        <ele>1919.6</ele>
        <time>2021-06-01T12:07:38Z</time>
      </trkpt>
      <trkpt lat="45.69101" lon="6.68">
        <ele>1920</ele>
        <time>2021-06-01T12:07:39Z</time>
      </trkpt>
      <trkpt lat="45.69098" lon="6.67999">
        <ele>1920.4</ele>
        <time>2021-06-01T12:07:40Z</time>
      </trkpt>
      <trkpt lat="45.69095" lon="6.67998">
        <ele>1920.8</ele>
        <time>2021-06-01T12:07:41Z</time>
      </trkpt>
      <trkpt lat="45.69092" lon="6.67997">
        <ele>1921</ele>
        <time>2021-06-01T12:07:42Z</time>
      </trkpt>
      <trkpt lat="45.69089" lon="6.67996">
        <ele>1921.2</ele>
        <time>2021-06-01T12:07:43Z</time>
      </trkpt>
      <trkpt lat="45.69085" lon="6.67995">
        <ele>1922</ele>
        <time>2021-06-01T12:07:44Z</time>
      </trkpt>
      <trkpt lat="45.69082" lon="6.67994">
        <ele>1922.2</ele>
        <time>2021-06-01T12:07:45Z</time>
      </trkpt>
      <trkpt lat="45.69078" lon="6.67994">
        <ele>1922.4</ele>
        <time>2021-06-01T12:07:46Z</time>
      </trkpt>
      <trkpt lat="45.69074" lon="6.67995">
        <ele>1922.6</ele>
        <time>2021-06-01T12:07:47Z</time>
      </trkpt>
      <trkpt lat="45.69071" lon="6.67996">
        <ele>1922.8</ele>
        <time>2021-06-01T12:07:48Z</time>
      </trkpt>
      <trkpt lat="45.69068" lon="6.67997">
        <ele>1923</ele>
        <time>2021-06-01T12:07:49Z</time>
      </trkpt>
      <trkpt lat="45.69064" lon="6.67998">
        <ele>1923.2</ele>
        <time>2021-06-01T12:07:50Z</time>
      </trkpt>
      <trkpt lat="45.69061" lon="6.67999">
        <ele>1923.2</ele>
        <time>2021-06-01T12:07:51Z</time>
      </trkpt>
      <trkpt lat="45.69058" lon="6.68">
        <ele>1923.2</ele>
        <time>2021-06-01T12:07:52Z</time>
      </trkpt>
      <trkpt lat="45.69055" lon="6.68001">
        <ele>1923.4</ele>
        <time>2021-06-01T12:07:53Z</time>
      </trkpt>
      <trkpt lat="45.69052" lon="6.68003">
        <ele>1923.8</ele>
        <time>2021-06-01T12:07:54Z</time>
      </trkpt>
      <trkpt lat="45.6905" lon="6.68005">
        <ele>1924</ele>
        <time>2021-06-01T12:07:55Z</time>
      </trkpt>
      <trkpt lat="45.69047" lon="6.68007">
        <ele>1924.2</ele>
        <time>2021-06-01T12:07:56Z</time>
      </trkpt>
      <trkpt lat="45.69044" lon="6.68009">
        <ele>1924.6</ele>
        <time>2021-06-01T12:07:57Z</time>
      </trkpt>
      <trkpt lat="45.69042" lon="6.68011">
        <ele>1925</ele>
        <time>2021-06-01T12:07:58Z</time>
      </trkpt>
      <trkpt lat="45.69039" lon="6.68012">
        <ele>1925.2</ele>
        <time>2021-06-01T12:07:59Z</time>
      </trkpt>
      <trkpt lat="45.69036" lon="6.68015">
        <ele>1925.4</ele>
        <time>2021-06-01T12:08:00Z</time>
      </trkpt>
      <trkpt lat="45.69034" lon="6.68017">
        <ele>1925.6</ele>
        <time>2021-06-01T12:08:01Z</time>
      </trkpt>
      <trkpt lat="45.69032" lon="6.6802">
        <ele>1925.6</ele>
        <time>2021-06-01T12:08:02Z</time>
      </trkpt>
      <trkpt lat="45.69029" lon="6.68023">
        <ele>1925.8</ele>
        <time>2021-06-01T12:08:03Z</time>
      </trkpt>
      <trkpt lat="45.69027" lon="6.68027">
        <ele>1926</ele>
        <time>2021-06-01T12:08:04Z</time>
      </trkpt>
      <trkpt lat="45.69024" lon="6.68031">
        <ele>1926.2</ele>
        <time>2021-06-01T12:08:05Z</time>
      </trkpt>
      <trkpt lat="45.69022" lon="6.68035">
        <ele>1926.4</ele>
        <time>2021-06-01T12:08:06Z</time>
      </trkpt>
      <trkpt lat="45.69019" lon="6.6804">
        <ele>1926.4</ele>
        <time>2021-06-01T12:08:07Z</time>
      </trkpt>
      <trkpt lat="45.69017" lon="6.68045">
        <ele>1926.2</ele>
        <time>2021-06-01T12:08:08Z</time>
      </trkpt>
      <trkpt lat="45.69015" lon="6.6805">
        <ele>1926.4</ele>
        <time>2021-06-01T12:08:09Z</time>
      </trkpt>
      <trkpt lat="45.69013" lon="6.68055">
        <ele>1926.6</ele>
        <time>2021-06-01T12:08:10Z</time>
      </trkpt>
      <trkpt lat="45.69011" lon="6.6806">
        <ele>1926.6</ele>
        <time>2021-06-01T12:08:11Z</time>
      </trkpt>
      <trkpt lat="45.69009" lon="6.68065">
        <ele>1926.6</ele>
        <time>2021-06-01T12:08:12Z</time>
      </trkpt>
      <trkpt lat="45.69008" lon="6.68071">
        <ele>1926.6</ele>
        <time>2021-06-01T12:08:13Z</time>
      </trkpt>
      <trkpt lat="45.69006" lon="6.68076">
        <ele>1926.6</ele>
        <time>2021-06-01T12:08:14Z</time>
      </trkpt>
      <trkpt lat="45.69005" lon="6.68082">
        <ele>1926.4</ele>
        <time>2021-06-01T12:08:15Z</time>
      </trkpt>
      <trkpt lat="45.69004" lon="6.68087">
        <ele>1926.2</ele>
        <time>2021-06-01T12:08:16Z</time>
      </trkpt>
      <trkpt lat="45.69004" lon="6.68093">
        <ele>1926.2</ele>
        <time>2021-06-01T12:08:17Z</time>
      </trkpt>
      <trkpt lat="45.69003" lon="6.68099">
        <ele>1926</ele>
        <time>2021-06-01T12:08:18Z</time>
      </trkpt>
      <trkpt lat="45.69002" lon="6.68105">
        <ele>1926</ele>
        <time>2021-06-01T12:08:19Z</time>
      </trkpt>
      <trkpt lat="45.69002" lon="6.68111">
        <ele>1926</ele>
        <time>2021-06-01T12:08:20Z</time>
      </trkpt>
      <trkpt lat="45.69001" lon="6.68117">
        <ele>1926.2</ele>
        <time>2021-06-01T12:08:21Z</time>
      </trkpt>
      <trkpt lat="45.69001" lon="6.68123">
        <ele>1926</ele>
        <time>2021-06-01T12:08:22Z</time>
      </trkpt>
      <trkpt lat="45.69001" lon="6.68129">
        <ele>1926</ele>
        <time>2021-06-01T12:08:23Z</time>
      </trkpt>
      <trkpt lat="45.69002" lon="6.68136">
        <ele>1926.2</ele>
        <time>2021-06-01T12:08:24Z</time>
      </trkpt>
      <trkpt lat="45.69003" lon="6.68142">
        <ele>1926.2</ele>
        <time>2021-06-01T12:08:25Z</time>
      </trkpt>
      <trkpt lat="45.69003" lon="6.68148">
        <ele>1926.6</ele>
        <time>2021-06-01T12:08:26Z</time>
      </trkpt>
      <trkpt lat="45.69004" lon="6.68155">
        <ele>1926.6</ele>
        <time>2021-06-01T12:08:27Z</time>
      </trkpt>
      <trkpt lat="45.69005" lon="6.68161">
        <ele>1926.6</ele>
        <time>2021-06-01T12:08:28Z</time>
      </trkpt>
      <trkpt lat="45.69006" lon="6.68167">
        <ele>1926.6</ele>
        <time>2021-06-01T12:08:29Z</time>
      </trkpt>
      <trkpt lat="45.69009" lon="6.68174">
        <ele>1926.8</ele>
        <time>2021-06-01T12:08:30Z</time>
      </trkpt>
      <trkpt lat="45.69011" lon="6.6818">
        <ele>1927</ele>
        <time>2021-06-01T12:08:31Z</time>
      </trkpt>
      <trkpt lat="45.69013" lon="6.68186">
        <ele>1927</ele>
        <time>2021-06-01T12:08:32Z</time>
      </trkpt>
      <trkpt lat="45.69017" lon="6.68191">
        <ele>1927.2</ele>
        <time>2021-06-01T12:08:33Z</time>
      </trkpt>
      <trkpt lat="45.69021" lon="6.68196">
        <ele>1927.2</ele>
        <time>2021-06-01T12:08:34Z</time>
      </trkpt>
      <trkpt lat="45.69025" lon="6.682">
        <ele>1927.6</ele>
        <time>2021-06-01T12:08:35Z</time>
      </trkpt>
      <trkpt lat="45.69029" lon="6.68205">
        <ele>1927.8</ele>
        <time>2021-06-01T12:08:36Z</time>
      </trkpt>
      <trkpt lat="45.69033" lon="6.68209">
        <ele>1927.8</ele>
        <time>2021-06-01T12:08:37Z</time>
      </trkpt>
      <trkpt lat="45.69038" lon="6.68212">
        <ele>1928</ele>
        <time>2021-06-01T12:08:38Z</time>
      </trkpt>
      <trkpt lat="45.69043" lon="6.68216">
        <ele>1928.4</ele>
        <time>2021-06-01T12:08:39Z</time>
      </trkpt>
      <trkpt lat="45.69047" lon="6.68219">
        <ele>1928.6</ele>
        <time>2021-06-01T12:08:40Z</time>
      </trkpt>
      <trkpt lat="45.69052" lon="6.68222">
        <ele>1929</ele>
        <time>2021-06-01T12:08:41Z</time>
      </trkpt>
      <trkpt lat="45.69056" lon="6.68225">
        <ele>1929.2</ele>
        <time>2021-06-01T12:08:42Z</time>
      </trkpt>
      <trkpt lat="45.69061" lon="6.68229">
        <ele>1929.4</ele>
        <time>2021-06-01T12:08:43Z</time>
      </trkpt>
      <trkpt lat="45.69066" lon="6.68233">
        <ele>1929.4</ele>
        <time>2021-06-01T12:08:44Z</time>
      </trkpt>
      <trkpt lat="45.6907" lon="6.68236">
        <ele>1929.6</ele>
        <time>2021-06-01T12:08:45Z</time>
      </trkpt>
      <trkpt lat="45.69075" lon="6.68241">
        <ele>1929.8</ele>
        <time>2021-06-01T12:08:46Z</time>
      </trkpt>
      <trkpt lat="45.69079" lon="6.68245">
        <ele>1929.8</ele>
        <time>2021-06-01T12:08:47Z</time>
      </trkpt>
      <trkpt lat="45.69084" lon="6.68251">
        <ele>1930.2</ele>
        <time>2021-06-01T12:08:48Z</time>
      </trkpt>
      <trkpt lat="45.69087" lon="6.68256">
        <ele>1930.4</ele>
        <time>2021-06-01T12:08:49Z</time>
      </trkpt>
      <trkpt lat="45.69091" lon="6.68262">
        <ele>1930.8</ele>
        <time>2021-06-01T12:08:50Z</time>
      </trkpt>
      <trkpt lat="45.69094" lon="6.68269">
        <ele>1931.2</ele>
        <time>2021-06-01T12:08:51Z</time>
      </trkpt>
      <trkpt lat="45.69096" lon="6.68276">
        <ele>1931.4</ele>
        <time>2021-06-01T12:08:52Z</time>
      </trkpt>
      <trkpt lat="45.69099" lon="6.68283">
        <ele>1931.8</ele>
        <time>2021-06-01T12:08:53Z</time>
      </trkpt>
      <trkpt lat="45.69101" lon="6.6829">
        <ele>1932.4</ele>
        <time>2021-06-01T12:08:54Z</time>
      </trkpt>
      <trkpt lat="45.69103" lon="6.68296">
        <ele>1932.8</ele>
        <time>2021-06-01T12:08:55Z</time>
      </trkpt>
      <trkpt lat="45.69105" lon="6.68303">
        <ele>1933.2</ele>
        <time>2021-06-01T12:08:56Z</time>
      </trkpt>
      <trkpt lat="45.69108" lon="6.68309">
        <ele>1933.6</ele>
        <time>2021-06-01T12:08:57Z</time>
      </trkpt>
      <trkpt lat="45.69109" lon="6.68315">
        <ele>1933.8</ele>
        <time>2021-06-01T12:08:58Z</time>
      </trkpt>
      <trkpt lat="45.6911" lon="6.68321">
        <ele>1934.2</ele>
        <time>2021-06-01T12:08:59Z</time>
      </trkpt>
      <trkpt lat="45.69112" lon="6.68327">
        <ele>1934.6</ele>
        <time>2021-06-01T12:09:00Z</time>
      </trkpt>
      <trkpt lat="45.69115" lon="6.68333">
        <ele>1935</ele>
        <time>2021-06-01T12:09:01Z</time>
      </trkpt>
      <trkpt lat="45.69116" lon="6.68338">
        <ele>1935.2</ele>
        <time>2021-06-01T12:09:02Z</time>
      </trkpt>
      <trkpt lat="45.6912" lon="6.68344">
        <ele>1935.6</ele>
        <time>2021-06-01T12:09:03Z</time>
      </trkpt>
      <trkpt lat="45.69122" lon="6.6835">
        <ele>1936</ele>
        <time>2021-06-01T12:09:04Z</time>
      </trkpt>
      <trkpt lat="45.69125" lon="6.68355">
        <ele>1936.4</ele>
        <time>2021-06-01T12:09:05Z</time>
      </trkpt>
      <trkpt lat="45.69128" lon="6.68359">
        <ele>1936.6</ele>
        <time>2021-06-01T12:09:06Z</time>
      </trkpt>
      <trkpt lat="45.69132" lon="6.68363">
        <ele>1936.8</ele>
        <time>2021-06-01T12:09:07Z</time>
      </trkpt>
      <trkpt lat="45.69135" lon="6.68368">
        <ele>1937.2</ele>
        <time>2021-06-01T12:09:08Z</time>
      </trkpt>
      <trkpt lat="45.69138" lon="6.68373">
        <ele>1937.4</ele>
        <time>2021-06-01T12:09:09Z</time>
      </trkpt>
      <trkpt lat="45.69141" lon="6.68377">
        <ele>1937.6</ele>
        <time>2021-06-01T12:09:10Z</time>
      </trkpt>
      <trkpt lat="45.69145" lon="6.68382">
        <ele>1938</ele>
        <time>2021-06-01T12:09:11Z</time>
      </trkpt>
      <trkpt lat="45.69148" lon="6.68387">
        <ele>1938</ele>
        <time>2021-06-01T12:09:12Z</time>
      </trkpt>
      <trkpt lat="45.69151" lon="6.68392">
        <ele>1938.4</ele>
        <time>2021-06-01T12:09:13Z</time>
      </trkpt>
      <trkpt lat="45.69153" lon="6.68398">
        <ele>1938.6</ele>
        <time>2021-06-01T12:09:14Z</time>
      </trkpt>
      <trkpt lat="45.69155" lon="6.68403">
        <ele>1939</ele>
        <time>2021-06-01T12:09:15Z</time>
      </trkpt>
      <trkpt lat="45.69156" lon="6.6841">
        <ele>1939.2</ele>
        <time>2021-06-01T12:09:16Z</time>
      </trkpt>
      <trkpt lat="45.69156" lon="6.68416">
        <ele>1939.4</ele>
        <time>2021-06-01T12:09:17Z</time>
      </trkpt>
      <trkpt lat="45.69156" lon="6.68423">
        <ele>1939.8</ele>
        <time>2021-06-01T12:09:18Z</time>
      </trkpt>
      <trkpt lat="45.69155" lon="6.68428">
        <ele>1940.2</ele>
        <time>2021-06-01T12:09:19Z</time>
      </trkpt>
      <trkpt lat="45.69153" lon="6.68435">
        <ele>1940.4</ele>
        <time>2021-06-01T12:09:20Z</time>
      </trkpt>
      <trkpt lat="45.69151" lon="6.68441">
        <ele>1940.6</ele>
        <time>2021-06-01T12:09:21Z</time>
      </trkpt>
      <trkpt lat="45.69148" lon="6.68446">
        <ele>1941</ele>
        <time>2021-06-01T12:09:22Z</time>
      </trkpt>
      <trkpt lat="45.69145" lon="6.68451">
        <ele>1941.4</ele>
        <time>2021-06-01T12:09:23Z</time>
      </trkpt>
      <trkpt lat="45.69142" lon="6.68456">
        <ele>1941.8</ele>
        <time>2021-06-01T12:09:24Z</time>
      </trkpt>
      <trkpt lat="45.69139" lon="6.6846">
        <ele>1942.2</ele>
        <time>2021-06-01T12:09:25Z</time>
      </trkpt>
      <trkpt lat="45.69136" lon="6.68465">
        <ele>1942.4</ele>
        <time>2021-06-01T12:09:26Z</time>
      </trkpt>
      <trkpt lat="45.69133" lon="6.6847">
        <ele>1942.6</ele>
        <time>2021-06-01T12:09:27Z</time>
      </trkpt>
      <trkpt lat="45.6913" lon="6.68474">
        <ele>1942.8</ele>
        <time>2021-06-01T12:09:28Z</time>
      </trkpt>
      <trkpt lat="45.69128" lon="6.68479">
        <ele>1942.8</ele>
        <time>2021-06-01T12:09:29Z</time>
      </trkpt>
      <trkpt lat="45.69125" lon="6.68485">
        <ele>1942.8</ele>
        <time>2021-06-01T12:09:30Z</time>
      </trkpt>
      <trkpt lat="45.69123" lon="6.68491">
        <ele>1942.8</ele>
        <time>2021-06-01T12:09:31Z</time>
      </trkpt>
      <trkpt lat="45.69121" lon="6.68497">
        <ele>1943</ele>
        <time>2021-06-01T12:09:32Z</time>
      </trkpt>
      <trkpt lat="45.6912" lon="6.68502">
        <ele>1943</ele>
        <time>2021-06-01T12:09:33Z</time>
      </trkpt>
      <trkpt lat="45.69118" lon="6.68508">
        <ele>1943</ele>
        <time>2021-06-01T12:09:34Z</time>
      </trkpt>
      <trkpt lat="45.69117" lon="6.68515">
        <ele>1943</ele>
        <time>2021-06-01T12:09:35Z</time>
      </trkpt>
      <trkpt lat="45.69116" lon="6.68521">
        <ele>1943.2</ele>
        <time>2021-06-01T12:09:36Z</time>
      </trkpt>
      <trkpt lat="45.69116" lon="6.68528">
        <ele>1943.6</ele>
        <time>2021-06-01T12:09:37Z</time>
      </trkpt>
      <trkpt lat="45.69115" lon="6.68534">
        <ele>1943.6</ele>
        <time>2021-06-01T12:09:38Z</time>
      </trkpt>
      <trkpt lat="45.69114" lon="6.6854">
        <ele>1943.8</ele>
        <time>2021-06-01T12:09:39Z</time>
      </trkpt>
      <trkpt lat="45.69114" lon="6.68547">
        <ele>1944</ele>
        <time>2021-06-01T12:09:40Z</time>
      </trkpt>
      <trkpt lat="45.69113" lon="6.68553">
        <ele>1944</ele>
        <time>2021-06-01T12:09:41Z</time>
      </trkpt>
      <trkpt lat="45.69113" lon="6.6856">
        <ele>1944.2</ele>
        <time>2021-06-01T12:09:42Z</time>
      </trkpt>
      <trkpt lat="45.69112" lon="6.68566">
        <ele>1944.6</ele>
        <time>2021-06-01T12:09:43Z</time>
      </trkpt>
      <trkpt lat="45.69112" lon="6.68572">
        <ele>1944.8</ele>
        <time>2021-06-01T12:09:44Z</time>
      </trkpt>
      <trkpt lat="45.69112" lon="6.68578">
        <ele>1945</ele>
        <time>2021-06-01T12:09:45Z</time>
      </trkpt>
      <trkpt lat="45.69111" lon="6.68585">
        <ele>1945.4</ele>
        <time>2021-06-01T12:09:46Z</time>
      </trkpt>
      <trkpt lat="45.69111" lon="6.68591">
        <ele>1945.6</ele>
        <time>2021-06-01T12:09:47Z</time>
      </trkpt>
      <trkpt lat="45.69111" lon="6.68597">
        <ele>1945.8</ele>
        <time>2021-06-01T12:09:48Z</time>
      </trkpt>
      <trkpt lat="45.6911" lon="6.68603">
        <ele>1946.2</ele>
        <time>2021-06-01T12:09:49Z</time>
      </trkpt>
      <trkpt lat="45.6911" lon="6.68609">
        <ele>1946.2</ele>
        <time>2021-06-01T12:09:50Z</time>
      </trkpt>
      <trkpt lat="45.6911" lon="6.68615">
        <ele>1946.4</ele>
        <time>2021-06-01T12:09:51Z</time>
      </trkpt>
      <trkpt lat="45.69109" lon="6.68621">
        <ele>1946.4</ele>
        <time>2021-06-01T12:09:52Z</time>
      </trkpt>
      <trkpt lat="45.69109" lon="6.68627">
        <ele>1946.4</ele>
        <time>2021-06-01T12:09:53Z</time>
      </trkpt>
      <trkpt lat="45.69108" lon="6.68633">
        <ele>1946.4</ele>
        <time>2021-06-01T12:09:54Z</time>
      </trkpt>
      <trkpt lat="45.69108" lon="6.68638">
        <ele>1946.6</ele>
        <time>2021-06-01T12:09:55Z</time>
      </trkpt>
      <trkpt lat="45.69108" lon="6.68644">
        <ele>1946.4</ele>
        <time>2021-06-01T12:09:56Z</time>
      </trkpt>
      <trkpt lat="45.69107" lon="6.6865">
        <ele>1946.4</ele>
        <time>2021-06-01T12:09:57Z</time>
      </trkpt>
      <trkpt lat="45.69106" lon="6.68656">
        <ele>1946.6</ele>
        <time>2021-06-01T12:09:58Z</time>
      </trkpt>
      <trkpt lat="45.69106" lon="6.68663">
        <ele>1946.8</ele>
        <time>2021-06-01T12:09:59Z</time>
      </trkpt>
      <trkpt lat="45.69105" lon="6.68669">
        <ele>1946.8</ele>
        <time>2021-06-01T12:10:00Z</time>
      </trkpt>
      <trkpt lat="45.69104" lon="6.68675">
        <ele>1947</ele>
        <time>2021-06-01T12:10:01Z</time>
      </trkpt>
      <trkpt lat="45.69104" lon="6.68681">
        <ele>1947.2</ele>
        <time>2021-06-01T12:10:02Z</time>
      </trkpt>
      <trkpt lat="45.69104" lon="6.68687">
        <ele>1947.4</ele>
        <time>2021-06-01T12:10:03Z</time>
      </trkpt>
      <trkpt lat="45.69105" lon="6.68693">
        <ele>1947.4</ele>
        <time>2021-06-01T12:10:04Z</time>
      </trkpt>
      <trkpt lat="45.69106" lon="6.68699">
        <ele>1947.4</ele>
        <time>2021-06-01T12:10:05Z</time>
      </trkpt>
      <trkpt lat="45.69108" lon="6.68705">
        <ele>1947.4</ele>
        <time>2021-06-01T12:10:06Z</time>
      </trkpt>
      <trkpt lat="45.6911" lon="6.6871">
        <ele>1947.6</ele>
        <time>2021-06-01T12:10:07Z</time>
      </trkpt>
      <trkpt lat="45.69113" lon="6.68715">
        <ele>1947.6</ele>
        <time>2021-06-01T12:10:08Z</time>
      </trkpt>
      <trkpt lat="45.69116" lon="6.68719">
        <ele>1948</ele>
        <time>2021-06-01T12:10:09Z</time>
      </trkpt>
      <trkpt lat="45.6912" lon="6.68723">
        <ele>1948</ele>
        <time>2021-06-01T12:10:10Z</time>
      </trkpt>
      <trkpt lat="45.69123" lon="6.68727">
        <ele>1948.2</ele>
        <time>2021-06-01T12:10:11Z</time>
      </trkpt>
      <trkpt lat="45.69126" lon="6.6873">
        <ele>1948.2</ele>
        <time>2021-06-01T12:10:12Z</time>
      </trkpt>
      <trkpt lat="45.69129" lon="6.68734">
        <ele>1948.4</ele>
        <time>2021-06-01T12:10:13Z</time>
      </trkpt>
      <trkpt lat="45.69132" lon="6.68738">
        <ele>1948.4</ele>
        <time>2021-06-01T12:10:14Z</time>
      </trkpt>
      <trkpt lat="45.69136" lon="6.68743">
        <ele>1948.6</ele>
        <time>2021-06-01T12:10:15Z</time>
      </trkpt>
      <trkpt lat="45.69139" lon="6.68748">
        <ele>1948.6</ele>
        <time>2021-06-01T12:10:16Z</time>
      </trkpt>
      <trkpt lat="45.69141" lon="6.68754">
        <ele>1948.6</ele>
        <time>2021-06-01T12:10:17Z</time>
      </trkpt>
      <trkpt lat="45.69143" lon="6.6876">
        <ele>1948.8</ele>
        <time>2021-06-01T12:10:18Z</time>
      </trkpt>
      <trkpt lat="45.69144" lon="6.68767">
        <ele>1948.8</ele>
        <time>2021-06-01T12:10:19Z</time>
      </trkpt>
      <trkpt lat="45.69145" lon="6.68775">
        <ele>1948.8</ele>
        <time>2021-06-01T12:10:20Z</time>
      </trkpt>
      <trkpt lat="45.69145" lon="6.68782">
        <ele>1948.8</ele>
        <time>2021-06-01T12:10:21Z</time>
      </trkpt>
      <trkpt lat="45.69144" lon="6.6879">
        <ele>1949</ele>
        <time>2021-06-01T12:10:22Z</time>
      </trkpt>
      <trkpt lat="45.69142" lon="6.68797">
        <ele>1949.2</ele>
        <time>2021-06-01T12:10:23Z</time>
      </trkpt>
      <trkpt lat="45.6914" lon="6.68805">
        <ele>1949.2</ele>
        <time>2021-06-01T12:10:24Z</time>
      </trkpt>
      <trkpt lat="45.69138" lon="6.68812">
        <ele>1949.4</ele>
        <time>2021-06-01T12:10:25Z</time>
      </trkpt>
      <trkpt lat="45.69136" lon="6.68819">
        <ele>1949.6</ele>
        <time>2021-06-01T12:10:26Z</time>
      </trkpt>
      <trkpt lat="45.69133" lon="6.68826">
        <ele>1949.8</ele>
        <time>2021-06-01T12:10:27Z</time>
      </trkpt>
      <trkpt lat="45.69132" lon="6.68833">
        <ele>1949.6</ele>
        <time>2021-06-01T12:10:28Z</time>
      </trkpt>
      <trkpt lat="45.69131" lon="6.68841">
        <ele>1949.8</ele>
        <time>2021-06-01T12:10:29Z</time>
      </trkpt>
      <trkpt lat="45.6913" lon="6.68849">
        <ele>1950</ele>
        <time>2021-06-01T12:10:30Z</time>
      </trkpt>
      <trkpt lat="45.69131" lon="6.68857">
        <ele>1950</ele>
        <time>2021-06-01T12:10:31Z</time>
      </trkpt>
      <trkpt lat="45.69132" lon="6.68865">
        <ele>1950.2</ele>
        <time>2021-06-01T12:10:32Z</time>
      </trkpt>
      <trkpt lat="45.69132" lon="6.68873">
        <ele>1950.2</ele>
        <time>2021-06-01T12:10:33Z</time>
      </trkpt>
      <trkpt lat="45.69133" lon="6.68881">
        <ele>1950.2</ele>
        <time>2021-06-01T12:10:34Z</time>
      </trkpt>
      <trkpt lat="45.69133" lon="6.68889">
        <ele>1950.4</ele>
        <time>2021-06-01T12:10:35Z</time>
      </trkpt>
      <trkpt lat="45.69133" lon="6.68897">
        <ele>1950.6</ele>
        <time>2021-06-01T12:10:36Z</time>
      </trkpt>
      <trkpt lat="45.69132" lon="6.68906">
        <ele>1950.8</ele>
        <time>2021-06-01T12:10:37Z</time>
      </trkpt>
      <trkpt lat="45.69131" lon="6.68914">
        <ele>1950.8</ele>
        <time>2021-06-01T12:10:38Z</time>
      </trkpt>
      <trkpt lat="45.69129" lon="6.68922">
        <ele>1951</ele>
        <time>2021-06-01T12:10:39Z</time>
      </trkpt>
      <trkpt lat="45.69128" lon="6.68929">
        <ele>1951.2</ele>
        <time>2021-06-01T12:10:40Z</time>
      </trkpt>
      <trkpt lat="45.69126" lon="6.68937">
        <ele>1951.4</ele>
        <time>2021-06-01T12:10:41Z</time>
      </trkpt>
      <trkpt lat="45.69124" lon="6.68945">
        <ele>1951.6</ele>
        <time>2021-06-01T12:10:42Z</time>
      </trkpt>
      <trkpt lat="45.69122" lon="6.68952">
        <ele>1951.8</ele>
        <time>2021-06-01T12:10:43Z</time>
      </trkpt>
      <trkpt lat="45.69121" lon="6.68959">
        <ele>1952</ele>
        <time>2021-06-01T12:10:44Z</time>
      </trkpt>
      <trkpt lat="45.6912" lon="6.68967">
        <ele>1952.2</ele>
        <time>2021-06-01T12:10:45Z</time>
      </trkpt>
      <trkpt lat="45.6912" lon="6.68974">
        <ele>1952.2</ele>
        <time>2021-06-01T12:10:46Z</time>
      </trkpt>
      <trkpt lat="45.6912" lon="6.68981">
        <ele>1952.4</ele>
        <time>2021-06-01T12:10:47Z</time>
      </trkpt>
      <trkpt lat="45.6912" lon="6.68988">
        <ele>1952.4</ele>
        <time>2021-06-01T12:10:48Z</time>
      </trkpt>
      <trkpt lat="45.69121" lon="6.68994">
        <ele>1952.6</ele>
        <time>2021-06-01T12:10:49Z</time>
      </trkpt>
      <trkpt lat="45.69121" lon="6.69">
        <ele>1952.6</ele>
        <time>2021-06-01T12:10:50Z</time>
      </trkpt>
      <trkpt lat="45.69122" lon="6.69006">
        <ele>1952.8</ele>
        <time>2021-06-01T12:10:51Z</time>
      </trkpt>
      <trkpt lat="45.69123" lon="6.69011">
        <ele>1952.8</ele>
        <time>2021-06-01T12:10:52Z</time>
      </trkpt>
      <trkpt lat="45.69124" lon="6.69016">
        <ele>1952.8</ele>
        <time>2021-06-01T12:10:53Z</time>
      </trkpt>
      <trkpt lat="45.69124" lon="6.69021">
        <ele>1953</ele>
        <time>2021-06-01T12:10:54Z</time>
      </trkpt>
      <trkpt lat="45.69126" lon="6.69026">
        <ele>1953</ele>
        <time>2021-06-01T12:10:55Z</time>
      </trkpt>
      <trkpt lat="45.69126" lon="6.6903">
        <ele>1953</ele>
        <time>2021-06-01T12:10:56Z</time>
      </trkpt>
      <trkpt lat="45.69127" lon="6.69034">
        <ele>1953</ele>
        <time>2021-06-01T12:10:57Z</time>
      </trkpt>
      <trkpt lat="45.69127" lon="6.69037">
        <ele>1953</ele>
        <time>2021-06-01T12:10:58Z</time>
      </trkpt>
      <trkpt lat="45.69128" lon="6.6904">
        <ele>1952.8</ele>
        <time>2021-06-01T12:10:59Z</time>
      </trkpt>
      <trkpt lat="45.69128" lon="6.69043">
        <ele>1952.8</ele>
        <time>2021-06-01T12:11:00Z</time>
      </trkpt>
      <trkpt lat="45.69128" lon="6.69048">
        <ele>1952.6</ele>
        <time>2021-06-01T12:11:02Z</time>
      </trkpt>
      <trkpt lat="45.69129" lon="6.69052">
        <ele>1952.4</ele>
        <time>2021-06-01T12:11:04Z</time>
      </trkpt>
      <trkpt lat="45.6913" lon="6.69052">
        <ele>1952.4</ele>
        <time>2021-06-01T12:20:06Z</time>
      </trkpt>
      <trkpt lat="45.6913" lon="6.69055">
        <ele>1952.4</ele>
        <time>2021-06-01T12:20:07Z</time>
      </trkpt>
      <trkpt lat="45.69131" lon="6.69058">
        <ele>1914.6</ele>
        <time>2021-06-01T12:20:08Z</time>
      </trkpt>
      <trkpt lat="45.69131" lon="6.6906">
        <ele>1914.6</ele>
        <time>2021-06-01T12:20:09Z</time>
      </trkpt>
      <trkpt lat="45.69132" lon="6.69065">
        <ele>1914.2</ele>
        <time>2021-06-01T12:20:11Z</time>
      </trkpt>
      <trkpt lat="45.69133" lon="6.69068">
        <ele>1914.2</ele>
        <time>2021-06-01T12:20:12Z</time>
      </trkpt>
      <trkpt lat="45.69134" lon="6.69072">
        <ele>1914.2</ele>
        <time>2021-06-01T12:20:13Z</time>
      </trkpt>
      <trkpt lat="45.69135" lon="6.69076">
        <ele>1914.2</ele>
        <time>2021-06-01T12:20:14Z</time>
      </trkpt>
      <trkpt lat="45.69136" lon="6.6908">
        <ele>1914.2</ele>
        <time>2021-06-01T12:20:15Z</time>
      </trkpt>
      <trkpt lat="45.69137" lon="6.69085">
        <ele>1914.2</ele>
        <time>2021-06-01T12:20:16Z</time>
      </trkpt>
      <trkpt lat="45.69138" lon="6.69091">
        <ele>1914</ele>
        <time>2021-06-01T12:20:17Z</time>
      </trkpt>
      <trkpt lat="45.69139" lon="6.69097">
        <ele>1914</ele>
        <time>2021-06-01T12:20:18Z</time>
      </trkpt>
      <trkpt lat="45.6914" lon="6.69104">
        <ele>1913.8</ele>
        <time>2021-06-01T12:20:19Z</time>
      </trkpt>
      <trkpt lat="45.69142" lon="6.69111">
        <ele>1913.6</ele>
        <time>2021-06-01T12:20:20Z</time>
      </trkpt>
      <trkpt lat="45.69143" lon="6.69118">
        <ele>1913.6</ele>
        <time>2021-06-01T12:20:21Z</time>
      </trkpt>
      <trkpt lat="45.69145" lon="6.69127">
        <ele>1913.4</ele>
        <time>2021-06-01T12:20:22Z</time>
      </trkpt>
      <trkpt lat="45.69146" lon="6.69136">
        <ele>1913.2</ele>
        <time>2021-06-01T12:20:23Z</time>
      </trkpt>
      <trkpt lat="45.69148" lon="6.69145">
        <ele>1913</ele>
        <time>2021-06-01T12:20:24Z</time>
      </trkpt>
      <trkpt lat="45.6915" lon="6.69154">
        <ele>1913</ele>
        <time>2021-06-01T12:20:25Z</time>
      </trkpt>
      <trkpt lat="45.69153" lon="6.69164">
        <ele>1912.8</ele>
        <time>2021-06-01T12:20:26Z</time>
      </trkpt>
      <trkpt lat="45.69155" lon="6.69174">
        <ele>1912.4</ele>
        <time>2021-06-01T12:20:27Z</time>
      </trkpt>
      <trkpt lat="45.69158" lon="6.69184">
        <ele>1912.4</ele>
        <time>2021-06-01T12:20:28Z</time>
      </trkpt>
      <trkpt lat="45.69161" lon="6.69195">
        <ele>1912.2</ele>
        <time>2021-06-01T12:20:29Z</time>
      </trkpt>
      <trkpt lat="45.69165" lon="6.69205">
        <ele>1912</ele>
        <time>2021-06-01T12:20:30Z</time>
      </trkpt>
      <trkpt lat="45.69171" lon="6.69215">
        <ele>1911.8</ele>
        <time>2021-06-01T12:20:31Z</time>
      </trkpt>
      <trkpt lat="45.69177" lon="6.69225">
        <ele>1911.6</ele>
        <time>2021-06-01T12:20:32Z</time>
      </trkpt>
      <trkpt lat="45.69185" lon="6.69233">
        <ele>1911.2</ele>
        <time>2021-06-01T12:20:33Z</time>
      </trkpt>
      <trkpt lat="45.69194" lon="6.6924">
        <ele>1911</ele>
        <time>2021-06-01T12:20:34Z</time>
      </trkpt>
      <trkpt lat="45.69204" lon="6.69245">
        <ele>1910.6</ele>
        <time>2021-06-01T12:20:35Z</time>
      </trkpt>
      <trkpt lat="45.69215" lon="6.69248">
        <ele>1910.2</ele>
        <time>2021-06-01T12:20:36Z</time>
      </trkpt>
      <trkpt lat="45.69226" lon="6.6925">
        <ele>1909.8</ele>
        <time>2021-06-01T12:20:37Z</time>
      </trkpt>
      <trkpt lat="45.69238" lon="6.6925">
        <ele>1909.4</ele>
        <time>2021-06-01T12:20:38Z</time>
      </trkpt>
      <trkpt lat="45.69251" lon="6.69251">
        <ele>1908.8</ele>
        <time>2021-06-01T12:20:39Z</time>
      </trkpt>
      <trkpt lat="45.69263" lon="6.69252">
        <ele>1908.2</ele>
        <time>2021-06-01T12:20:40Z</time>
      </trkpt>
      <trkpt lat="45.69276" lon="6.69254">
        <ele>1907.6</ele>
        <time>2021-06-01T12:20:41Z</time>
      </trkpt>
      <trkpt lat="45.6929" lon="6.69258">
        <ele>1907.2</ele>
        <time>2021-06-01T12:20:42Z</time>
      </trkpt>
      <trkpt lat="45.69302" lon="6.69265">
        <ele>1906.2</ele>
        <time>2021-06-01T12:20:43Z</time>
      </trkpt>
      <trkpt lat="45.69314" lon="6.69274">
        <ele>1905.2</ele>
        <time>2021-06-01T12:20:44Z</time>
      </trkpt>
      <trkpt lat="45.69324" lon="6.69285">
        <ele>1903.8</ele>
        <time>2021-06-01T12:20:45Z</time>
      </trkpt>
      <trkpt lat="45.69332" lon="6.69298">
        <ele>1902.8</ele>
        <time>2021-06-01T12:20:46Z</time>
      </trkpt>
      <trkpt lat="45.6934" lon="6.6931">
        <ele>1901.8</ele>
        <time>2021-06-01T12:20:47Z</time>
      </trkpt>
      <trkpt lat="45.69346" lon="6.69322">
        <ele>1900.8</ele>
        <time>2021-06-01T12:20:48Z</time>
      </trkpt>
      <trkpt lat="45.69351" lon="6.69333">
        <ele>1899.8</ele>
        <time>2021-06-01T12:20:49Z</time>
      </trkpt>
      <trkpt lat="45.69354" lon="6.6934">
        <ele>1899</ele>
        <time>2021-06-01T12:20:50Z</time>
      </trkpt>
      <trkpt lat="45.69358" lon="6.69349">
        <ele>1898.2</ele>
        <time>2021-06-01T12:20:51Z</time>
      </trkpt>
      <trkpt lat="45.6936" lon="6.69355">
        <ele>1897.8</ele>
        <time>2021-06-01T12:20:52Z</time>
      </trkpt>
      <trkpt lat="45.69361" lon="6.69359">
        <ele>1897.4</ele>
        <time>2021-06-01T12:20:53Z</time>
      </trkpt>
      <trkpt lat="45.69362" lon="6.69363">
        <ele>1897</ele>
        <time>2021-06-01T12:20:55Z</time>
      </trkpt>
      <trkpt lat="45.69363" lon="6.6936">
        <ele>1899.2</ele>
        <time>2021-06-01T12:21:12Z</time>
      </trkpt>
      <trkpt lat="45.69362" lon="6.69356">
        <ele>1899.6</ele>
        <time>2021-06-01T12:21:13Z</time>
      </trkpt>
      <trkpt lat="45.6936" lon="6.69352">
        <ele>1899.6</ele>
        <time>2021-06-01T12:21:14Z</time>
      </trkpt>
      <trkpt lat="45.69359" lon="6.69349">
        <ele>1900.2</ele>
        <time>2021-06-01T12:21:15Z</time>
      </trkpt>
      <trkpt lat="45.69357" lon="6.69345">
        <ele>1900.4</ele>
        <time>2021-06-01T12:21:16Z</time>
      </trkpt>
      <trkpt lat="45.69355" lon="6.6934">
        <ele>1900.6</ele>
        <time>2021-06-01T12:21:17Z</time>
      </trkpt>
      <trkpt lat="45.69353" lon="6.69335">
        <ele>1901</ele>
        <time>2021-06-01T12:21:18Z</time>
      </trkpt>
      <trkpt lat="45.69352" lon="6.6933">
        <ele>1901.4</ele>
        <time>2021-06-01T12:21:19Z</time>
      </trkpt>
      <trkpt lat="45.6935" lon="6.69326">
        <ele>1901.6</ele>
        <time>2021-06-01T12:21:20Z</time>
      </trkpt>
      <trkpt lat="45.69348" lon="6.69322">
        <ele>1901.8</ele>
        <time>2021-06-01T12:21:21Z</time>
      </trkpt>
      <trkpt lat="45.69346" lon="6.69318">
        <ele>1902.4</ele>
        <time>2021-06-01T12:21:22Z</time>
      </trkpt>
      <trkpt lat="45.69344" lon="6.69314">
        <ele>1902.6</ele>
        <time>2021-06-01T12:21:23Z</time>
      </trkpt>
      <trkpt lat="45.69342" lon="6.6931">
        <ele>1902.8</ele>
        <time>2021-06-01T12:21:24Z</time>
      </trkpt>
      <trkpt lat="45.6934" lon="6.69307">
        <ele>1903.2</ele>
        <time>2021-06-01T12:21:25Z</time>
      </trkpt>
      <trkpt lat="45.69338" lon="6.69303">
        <ele>1903.6</ele>
        <time>2021-06-01T12:21:26Z</time>
      </trkpt>
      <trkpt lat="45.69335" lon="6.69299">
        <ele>1903.8</ele>
        <time>2021-06-01T12:21:27Z</time>
      </trkpt>
      <trkpt lat="45.69333" lon="6.69295">
        <ele>1904.2</ele>
        <time>2021-06-01T12:21:28Z</time>
      </trkpt>
      <trkpt lat="45.69331" lon="6.69292">
        <ele>1904.4</ele>
        <time>2021-06-01T12:21:29Z</time>
      </trkpt>
      <trkpt lat="45.69329" lon="6.69288">
        <ele>1904.4</ele>
        <time>2021-06-01T12:21:30Z</time>
      </trkpt>
      <trkpt lat="45.69326" lon="6.69285">
        <ele>1904.8</ele>
        <time>2021-06-01T12:21:31Z</time>
      </trkpt>
      <trkpt lat="45.69324" lon="6.69281">
        <ele>1905.2</ele>
        <time>2021-06-01T12:21:32Z</time>
      </trkpt>
      <trkpt lat="45.69321" lon="6.69278">
        <ele>1905.6</ele>
        <time>2021-06-01T12:21:33Z</time>
      </trkpt>
      <trkpt lat="45.69319" lon="6.69275">
        <ele>1905.8</ele>
        <time>2021-06-01T12:21:34Z</time>
      </trkpt>
      <trkpt lat="45.69316" lon="6.69271">
        <ele>1906</ele>
        <time>2021-06-01T12:21:35Z</time>
      </trkpt>
      <trkpt lat="45.69313" lon="6.69268">
        <ele>1906.4</ele>
        <time>2021-06-01T12:21:36Z</time>
      </trkpt>
      <trkpt lat="45.69311" lon="6.69265">
        <ele>1906.8</ele>
        <time>2021-06-01T12:21:37Z</time>
      </trkpt>
      <trkpt lat="45.69308" lon="6.69263">
        <ele>1907</ele>
        <time>2021-06-01T12:21:38Z</time>
      </trkpt>
      <trkpt lat="45.69305" lon="6.6926">
        <ele>1907.4</ele>
        <time>2021-06-01T12:21:39Z</time>
      </trkpt>
      <trkpt lat="45.69302" lon="6.69258">
        <ele>1907.6</ele>
        <time>2021-06-01T12:21:40Z</time>
      </trkpt>
      <trkpt lat="45.69299" lon="6.69256">
        <ele>1907.8</ele>
        <time>2021-06-01T12:21:41Z</time>
      </trkpt>
      <trkpt lat="45.69295" lon="6.69254">
        <ele>1908.2</ele>
        <time>2021-06-01T12:21:42Z</time>
      </trkpt>
      <trkpt lat="45.69292" lon="6.69252">
        <ele>1908.6</ele>
        <time>2021-06-01T12:21:43Z</time>
      </trkpt>
      <trkpt lat="45.69289" lon="6.6925">
        <ele>1909</ele>
        <time>2021-06-01T12:21:44Z</time>
      </trkpt>
      <trkpt lat="45.69285" lon="6.69249">
        <ele>1909.2</ele>
        <time>2021-06-01T12:21:45Z</time>
      </trkpt>
      <trkpt lat="45.69282" lon="6.69248">
        <ele>1909.8</ele>
        <time>2021-06-01T12:21:46Z</time>
      </trkpt>
      <trkpt lat="45.69279" lon="6.69247">
        <ele>1910.2</ele>
        <time>2021-06-01T12:21:47Z</time>
      </trkpt>
      <trkpt lat="45.69276" lon="6.69247">
        <ele>1910.6</ele>
        <time>2021-06-01T12:21:48Z</time>
      </trkpt>
      <trkpt lat="45.69272" lon="6.69246">
        <ele>1911</ele>
        <time>2021-06-01T12:21:49Z</time>
      </trkpt>
      <trkpt lat="45.69269" lon="6.69246">
        <ele>1911.4</ele>
        <time>2021-06-01T12:21:50Z</time>
      </trkpt>
      <trkpt lat="45.69266" lon="6.69247">
        <ele>1912</ele>
        <time>2021-06-01T12:21:51Z</time>
      </trkpt>
      <trkpt lat="45.69262" lon="6.69247">
        <ele>1912.2</ele>
        <time>2021-06-01T12:21:52Z</time>
      </trkpt>
      <trkpt lat="45.69259" lon="6.69247">
        <ele>1912.6</ele>
        <time>2021-06-01T12:21:53Z</time>
      </trkpt>
      <trkpt lat="45.69256" lon="6.69248">
        <ele>1912.8</ele>
        <time>2021-06-01T12:21:54Z</time>
      </trkpt>
      <trkpt lat="45.69253" lon="6.69248">
        <ele>1913.2</ele>
        <time>2021-06-01T12:21:55Z</time>
      </trkpt>
      <trkpt lat="45.69249" lon="6.69247">
        <ele>1913.8</ele>
        <time>2021-06-01T12:21:56Z</time>
      </trkpt>
      <trkpt lat="45.69246" lon="6.69247">
        <ele>1914.4</ele>
        <time>2021-06-01T12:21:57Z</time>
      </trkpt>
      <trkpt lat="45.69243" lon="6.69247">
        <ele>1914.8</ele>
        <time>2021-06-01T12:21:58Z</time>
      </trkpt>
      <trkpt lat="45.6924" lon="6.69246">
        <ele>1915.2</ele>
        <time>2021-06-01T12:21:59Z</time>
      </trkpt>
      <trkpt lat="45.69237" lon="6.69246">
        <ele>1915.6</ele>
        <time>2021-06-01T12:22:00Z</time>
      </trkpt>
      <trkpt lat="45.69234" lon="6.69246">
        <ele>1916</ele>
        <time>2021-06-01T12:22:01Z</time>
      </trkpt>
      <trkpt lat="45.69231" lon="6.69245">
        <ele>1916.2</ele>
        <time>2021-06-01T12:22:02Z</time>
      </trkpt>
      <trkpt lat="45.69228" lon="6.69245">
        <ele>1916.6</ele>
        <time>2021-06-01T12:22:03Z</time>
      </trkpt>
      <trkpt lat="45.69225" lon="6.69245">
        <ele>1917</ele>
        <time>2021-06-01T12:22:04Z</time>
      </trkpt>
      <trkpt lat="45.69221" lon="6.69245">
        <ele>1917.4</ele>
        <time>2021-06-01T12:22:05Z</time>
      </trkpt>
      <trkpt lat="45.69218" lon="6.69245">
        <ele>1917.8</ele>
        <time>2021-06-01T12:22:06Z</time>
      </trkpt>
      <trkpt lat="45.69215" lon="6.69244">
        <ele>1918.2</ele>
        <time>2021-06-01T12:22:07Z</time>
      </trkpt>
      <trkpt lat="45.69211" lon="6.69244">
        <ele>1918.6</ele>
        <time>2021-06-01T12:22:08Z</time>
      </trkpt>
      <trkpt lat="45.69208" lon="6.69243">
        <ele>1919</ele>
        <time>2021-06-01T12:22:09Z</time>
      </trkpt>
      <trkpt lat="45.69205" lon="6.69242">
        <ele>1919.4</ele>
        <time>2021-06-01T12:22:10Z</time>
      </trkpt>
      <trkpt lat="45.69202" lon="6.69241">
        <ele>1919.8</ele>
        <time>2021-06-01T12:22:11Z</time>
      </trkpt>
      <trkpt lat="45.69198" lon="6.6924">
        <ele>1920.2</ele>
        <time>2021-06-01T12:22:12Z</time>
      </trkpt>
      <trkpt lat="45.69195" lon="6.69238">
        <ele>1920.6</ele>
        <time>2021-06-01T12:22:13Z</time>
      </trkpt>
      <trkpt lat="45.69192" lon="6.69236">
        <ele>1920.8</ele>
        <time>2021-06-01T12:22:14Z</time>
      </trkpt>
      <trkpt lat="45.69189" lon="6.69234">
        <ele>1921.2</ele>
        <time>2021-06-01T12:22:15Z</time>
      </trkpt>
      <trkpt lat="45.69187" lon="6.69232">
        <ele>1921.4</ele>
        <time>2021-06-01T12:22:16Z</time>
      </trkpt>
      <trkpt lat="45.69183" lon="6.6923">
        <ele>1921.8</ele>
        <time>2021-06-01T12:22:17Z</time>
      </trkpt>
      <trkpt lat="45.69181" lon="6.69228">
        <ele>1922</ele>
        <time>2021-06-01T12:22:18Z</time>
      </trkpt>
      <trkpt lat="45.69178" lon="6.69225">
        <ele>1922.4</ele>
        <time>2021-06-01T12:22:19Z</time>
      </trkpt>
      <trkpt lat="45.69176" lon="6.69222">
        <ele>1922.6</ele>
        <time>2021-06-01T12:22:20Z</time>
      </trkpt>
      <trkpt lat="45.69173" lon="6.69218">
        <ele>1923</ele>
        <time>2021-06-01T12:22:21Z</time>
      </trkpt>
      <trkpt lat="45.6917" lon="6.69214">
        <ele>1923.2</ele>
        <time>2021-06-01T12:22:22Z</time>
      </trkpt>
      <trkpt lat="45.69168" lon="6.69211">
        <ele>1923.8</ele>
        <time>2021-06-01T12:22:23Z</time>
      </trkpt>
      <trkpt lat="45.69166" lon="6.69207">
        <ele>1924.2</ele>
        <time>2021-06-01T12:22:24Z</time>
      </trkpt>
      <trkpt lat="45.69165" lon="6.69202">
        <ele>1924.6</ele>
        <time>2021-06-01T12:22:25Z</time>
      </trkpt>
      <trkpt lat="45.69163" lon="6.69198">
        <ele>1925.2</ele>
        <time>2021-06-01T12:22:26Z</time>
      </trkpt>
      <trkpt lat="45.69162" lon="6.69193">
        <ele>1925.6</ele>
        <time>2021-06-01T12:22:27Z</time>
      </trkpt>
      <trkpt lat="45.6916" lon="6.69188">
        <ele>1925.8</ele>
        <time>2021-06-01T12:22:28Z</time>
      </trkpt>
      <trkpt lat="45.69159" lon="6.69183">
        <ele>1926.2</ele>
        <time>2021-06-01T12:22:29Z</time>
      </trkpt>
      <trkpt lat="45.69158" lon="6.69178">
        <ele>1926.4</ele>
        <time>2021-06-01T12:22:30Z</time>
      </trkpt>
      <trkpt lat="45.69157" lon="6.69173">
        <ele>1926.6</ele>
        <time>2021-06-01T12:22:31Z</time>
      </trkpt>
      <trkpt lat="45.69155" lon="6.69168">
        <ele>1926.8</ele>
        <time>2021-06-01T12:22:32Z</time>
      </trkpt>
      <trkpt lat="45.69154" lon="6.69163">
        <ele>1926.8</ele>
        <time>2021-06-01T12:22:33Z</time>
      </trkpt>
      <trkpt lat="45.69152" lon="6.69157">
        <ele>1927</ele>
        <time>2021-06-01T12:22:34Z</time>
      </trkpt>
      <trkpt lat="45.69152" lon="6.69152">
        <ele>1927.2</ele>
        <time>2021-06-01T12:22:35Z</time>
      </trkpt>
      <trkpt lat="45.6915" lon="6.69146">
        <ele>1927.4</ele>
        <time>2021-06-01T12:22:36Z</time>
      </trkpt>
      <trkpt lat="45.69149" lon="6.69141">
        <ele>1927.6</ele>
        <time>2021-06-01T12:22:37Z</time>
      </trkpt>
      <trkpt lat="45.69148" lon="6.69135">
        <ele>1927.8</ele>
        <time>2021-06-01T12:22:38Z</time>
      </trkpt>
      <trkpt lat="45.69147" lon="6.6913">
        <ele>1928</ele>
        <time>2021-06-01T12:22:39Z</time>
      </trkpt>
      <trkpt lat="45.69146" lon="6.69124">
        <ele>1928.2</ele>
        <time>2021-06-01T12:22:40Z</time>
      </trkpt>
      <trkpt lat="45.69145" lon="6.69119">
        <ele>1928.2</ele>
        <time>2021-06-01T12:22:41Z</time>
      </trkpt>
      <trkpt lat="45.69144" lon="6.69113">
        <ele>1928.4</ele>
        <time>2021-06-01T12:22:42Z</time>
      </trkpt>
      <trkpt lat="45.69144" lon="6.69108">
        <ele>1928.6</ele>
        <time>2021-06-01T12:22:43Z</time>
      </trkpt>
      <trkpt lat="45.69142" lon="6.69103">
        <ele>1928.8</ele>
        <time>2021-06-01T12:22:44Z</time>
      </trkpt>
      <trkpt lat="45.69142" lon="6.69098">
        <ele>1929</ele>
        <time>2021-06-01T12:22:45Z</time>
      </trkpt>
      <trkpt lat="45.69141" lon="6.69094">
        <ele>1929.2</ele>
        <time>2021-06-01T12:22:46Z</time>
      </trkpt>
      <trkpt lat="45.6914" lon="6.69089">
        <ele>1929.2</ele>
        <time>2021-06-01T12:22:47Z</time>
      </trkpt>
      <trkpt lat="45.69139" lon="6.69085">
        <ele>1929.2</ele>
        <time>2021-06-01T12:22:48Z</time>
      </trkpt>
      <trkpt lat="45.69138" lon="6.69081">
        <ele>1929.6</ele>
        <time>2021-06-01T12:22:49Z</time>
      </trkpt>
      <trkpt lat="45.69138" lon="6.69077">
        <ele>1929.6</ele>
        <time>2021-06-01T12:22:50Z</time>
      </trkpt>
      <trkpt lat="45.69137" lon="6.69074">
        <ele>1929.8</ele>
        <time>2021-06-01T12:22:51Z</time>
      </trkpt>
      <trkpt lat="45.69137" lon="6.6907">
        <ele>1929.8</ele>
        <time>2021-06-01T12:22:52Z</time>
      </trkpt>
      <trkpt lat="45.69136" lon="6.69068">
        <ele>1929.8</ele>
        <time>2021-06-01T12:22:53Z</time>
      </trkpt>
      <trkpt lat="45.69134" lon="6.69065">
        <ele>1929.8</ele>
        <time>2021-06-01T12:22:55Z</time>
      </trkpt>
      <trkpt lat="45.69134" lon="6.69069">
        <ele>1929.6</ele>
        <time>2021-06-01T12:22:59Z</time>
      </trkpt>
      <trkpt lat="45.69133" lon="6.69072">
        <ele>1929.4</ele>
        <time>2021-06-01T12:23:01Z</time>
      </trkpt>
      <trkpt lat="45.69134" lon="6.69075">
        <ele>1929.2</ele>
        <time>2021-06-01T12:23:04Z</time>
      </trkpt>
      <trkpt lat="45.69136" lon="6.69074">
        <ele>1929</ele>
        <time>2021-06-01T12:23:07Z</time>
      </trkpt>
      <trkpt lat="45.69135" lon="6.69071">
        <ele>1929.2</ele>
        <time>2021-06-01T12:23:10Z</time>
      </trkpt>
      <trkpt lat="45.69136" lon="6.69078">
        <ele>1926.2</ele>
        <time>2021-06-01T12:23:56Z</time>
      </trkpt>
      <trkpt lat="45.69137" lon="6.69082">
        <ele>1926.2</ele>
        <time>2021-06-01T12:23:57Z</time>
      </trkpt>
      <trkpt lat="45.69138" lon="6.69088">
        <ele>1926.2</ele>
        <time>2021-06-01T12:23:58Z</time>
      </trkpt>
      <trkpt lat="45.69139" lon="6.69094">
        <ele>1926.4</ele>
        <time>2021-06-01T12:23:59Z</time>
      </trkpt>
      <trkpt lat="45.6914" lon="6.691">
        <ele>1926.4</ele>
        <time>2021-06-01T12:24:00Z</time>
      </trkpt>
      <trkpt lat="45.69141" lon="6.69107">
        <ele>1926.4</ele>
        <time>2021-06-01T12:24:01Z</time>
      </trkpt>
      <trkpt lat="45.69143" lon="6.69114">
        <ele>1926.4</ele>
        <time>2021-06-01T12:24:02Z</time>
      </trkpt>
      <trkpt lat="45.69144" lon="6.69122">
        <ele>1926.4</ele>
        <time>2021-06-01T12:24:03Z</time>
      </trkpt>
      <trkpt lat="45.69146" lon="6.6913">
        <ele>1926.4</ele>
        <time>2021-06-01T12:24:04Z</time>
      </trkpt>
      <trkpt lat="45.69148" lon="6.69138">
        <ele>1926.2</ele>
        <time>2021-06-01T12:24:05Z</time>
      </trkpt>
      <trkpt lat="45.6915" lon="6.69146">
        <ele>1926.2</ele>
        <time>2021-06-01T12:24:06Z</time>
      </trkpt>
      <trkpt lat="45.69152" lon="6.69155">
        <ele>1926</ele>
        <time>2021-06-01T12:24:07Z</time>
      </trkpt>
      <trkpt lat="45.69154" lon="6.69164">
        <ele>1925.8</ele>
        <time>2021-06-01T12:24:08Z</time>
      </trkpt>
      <trkpt lat="45.69156" lon="6.69173">
        <ele>1925.6</ele>
        <time>2021-06-01T12:24:09Z</time>
      </trkpt>
      <trkpt lat="45.69158" lon="6.69183">
        <ele>1925.4</ele>
        <time>2021-06-01T12:24:10Z</time>
      </trkpt>
      <trkpt lat="45.69162" lon="6.69192">
        <ele>1925.2</ele>
        <time>2021-06-01T12:24:11Z</time>
      </trkpt>
      <trkpt lat="45.69165" lon="6.69202">
        <ele>1925</ele>
        <time>2021-06-01T12:24:12Z</time>
      </trkpt>
      <trkpt lat="45.69169" lon="6.69212">
        <ele>1924.6</ele>
        <time>2021-06-01T12:24:13Z</time>
      </trkpt>
      <trkpt lat="45.69175" lon="6.69221">
        <ele>1924.2</ele>
        <time>2021-06-01T12:24:14Z</time>
      </trkpt>
      <trkpt lat="45.69181" lon="6.6923">
        <ele>1924</ele>
        <time>2021-06-01T12:24:15Z</time>
      </trkpt>
      <trkpt lat="45.69189" lon="6.69237">
        <ele>1923.4</ele>
        <time>2021-06-01T12:24:16Z</time>
      </trkpt>
      <trkpt lat="45.69197" lon="6.69243">
        <ele>1923</ele>
        <time>2021-06-01T12:24:17Z</time>
      </trkpt>
      <trkpt lat="45.69207" lon="6.69247">
        <ele>1922.4</ele>
        <time>2021-06-01T12:24:18Z</time>
      </trkpt>
      <trkpt lat="45.69217" lon="6.69249">
        <ele>1922</ele>
        <time>2021-06-01T12:24:19Z</time>
      </trkpt>
      <trkpt lat="45.69227" lon="6.69251">
        <ele>1921.6</ele>
        <time>2021-06-01T12:24:20Z</time>
      </trkpt>
      <trkpt lat="45.69237" lon="6.69252">
        <ele>1921.2</ele>
        <time>2021-06-01T12:24:21Z</time>
      </trkpt>
      <trkpt lat="45.69248" lon="6.69252">
        <ele>1920.8</ele>
        <time>2021-06-01T12:24:22Z</time>
      </trkpt>
      <trkpt lat="45.69259" lon="6.69253">
        <ele>1920.6</ele>
        <time>2021-06-01T12:24:23Z</time>
      </trkpt>
      <trkpt lat="45.6927" lon="6.69254">
        <ele>1920</ele>
        <time>2021-06-01T12:24:24Z</time>
      </trkpt>
      <trkpt lat="45.69281" lon="6.69257">
        <ele>1919.6</ele>
        <time>2021-06-01T12:24:25Z</time>
      </trkpt>
      <trkpt lat="45.69293" lon="6.69261">
        <ele>1918.8</ele>
        <time>2021-06-01T12:24:26Z</time>
      </trkpt>
      <trkpt lat="45.69304" lon="6.69268">
        <ele>1918.2</ele>
        <time>2021-06-01T12:24:27Z</time>
      </trkpt>
      <trkpt lat="45.69314" lon="6.69277">
        <ele>1918</ele>
        <time>2021-06-01T12:24:28Z</time>
      </trkpt>
      <trkpt lat="45.69323" lon="6.69289">
        <ele>1917.2</ele>
        <time>2021-06-01T12:24:29Z</time>
      </trkpt>
      <trkpt lat="45.69332" lon="6.69302">
        <ele>1916.2</ele>
        <time>2021-06-01T12:24:30Z</time>
      </trkpt>
      <trkpt lat="45.6934" lon="6.69316">
        <ele>1915.6</ele>
        <time>2021-06-01T12:24:31Z</time>
      </trkpt>
      <trkpt lat="45.69348" lon="6.69331">
        <ele>1915</ele>
        <time>2021-06-01T12:24:32Z</time>
      </trkpt>
      <trkpt lat="45.69355" lon="6.69347">
        <ele>1914.2</ele>
        <time>2021-06-01T12:24:33Z</time>
      </trkpt>
      <trkpt lat="45.69363" lon="6.69362">
        <ele>1913.6</ele>
        <time>2021-06-01T12:24:34Z</time>
      </trkpt>
      <trkpt lat="45.6937" lon="6.69378">
        <ele>1913.2</ele>
        <time>2021-06-01T12:24:35Z</time>
      </trkpt>
      <trkpt lat="45.69376" lon="6.69395">
        <ele>1912.4</ele>
        <time>2021-06-01T12:24:36Z</time>
      </trkpt>
      <trkpt lat="45.6938" lon="6.69411">
        <ele>1911.6</ele>
        <time>2021-06-01T12:24:37Z</time>
      </trkpt>
      <trkpt lat="45.69385" lon="6.69428">
        <ele>1910.6</ele>
        <time>2021-06-01T12:24:38Z</time>
      </trkpt>
      <trkpt lat="45.69388" lon="6.69446">
        <ele>1909.4</ele>
        <time>2021-06-01T12:24:39Z</time>
      </trkpt>
      <trkpt lat="45.69389" lon="6.69463">
        <ele>1908.4</ele>
        <time>2021-06-01T12:24:40Z</time>
      </trkpt>
      <trkpt lat="45.6939" lon="6.69482">
        <ele>1908</ele>
        <time>2021-06-01T12:24:41Z</time>
      </trkpt>
      <trkpt lat="45.69391" lon="6.695">
        <ele>1907</ele>
        <time>2021-06-01T12:24:42Z</time>
      </trkpt>
      <trkpt lat="45.6939" lon="6.6952">
        <ele>1905.8</ele>
        <time>2021-06-01T12:24:43Z</time>
      </trkpt>
      <trkpt lat="45.69389" lon="6.69539">
        <ele>1904.8</ele>
        <time>2021-06-01T12:24:44Z</time>
      </trkpt>
      <trkpt lat="45.69388" lon="6.69559">
        <ele>1903.8</ele>
        <time>2021-06-01T12:24:45Z</time>
      </trkpt>
      <trkpt lat="45.69385" lon="6.6958">
        <ele>1902.8</ele>
        <time>2021-06-01T12:24:46Z</time>
      </trkpt>
      <trkpt lat="45.69383" lon="6.696">
        <ele>1901.8</ele>
        <time>2021-06-01T12:24:47Z</time>
      </trkpt>
      <trkpt lat="45.6938" lon="6.69622">
        <ele>1900.6</ele>
        <time>2021-06-01T12:24:48Z</time>
      </trkpt>
      <trkpt lat="45.69377" lon="6.69643">
        <ele>1899.8</ele>
        <time>2021-06-01T12:24:49Z</time>
      </trkpt>
      <trkpt lat="45.69373" lon="6.69664">
        <ele>1898.8</ele>
        <time>2021-06-01T12:24:50Z</time>
      </trkpt>
      <trkpt lat="45.69368" lon="6.69686">
        <ele>1897.6</ele>
        <time>2021-06-01T12:24:51Z</time>
      </trkpt>
      <trkpt lat="45.69362" lon="6.69707">
        <ele>1896.6</ele>
        <time>2021-06-01T12:24:52Z</time>
      </trkpt>
      <trkpt lat="45.69356" lon="6.69728">
        <ele>1895.8</ele>
        <time>2021-06-01T12:24:53Z</time>
      </trkpt>
      <trkpt lat="45.6935" lon="6.69748">
        <ele>1894.8</ele>
        <time>2021-06-01T12:24:54Z</time>
      </trkpt>
      <trkpt lat="45.69343" lon="6.69769">
        <ele>1894</ele>
        <time>2021-06-01T12:24:55Z</time>
      </trkpt>
      <trkpt lat="45.69335" lon="6.69789">
        <ele>1893</ele>
        <time>2021-06-01T12:24:56Z</time>
      </trkpt>
      <trkpt lat="45.69327" lon="6.69808">
        <ele>1892</ele>
        <time>2021-06-01T12:24:57Z</time>
      </trkpt>
      <trkpt lat="45.69319" lon="6.69828">
        <ele>1891</ele>
        <time>2021-06-01T12:24:58Z</time>
      </trkpt>
      <trkpt lat="45.69311" lon="6.69847">
        <ele>1890.6</ele>
        <time>2021-06-01T12:24:59Z</time>
      </trkpt>
      <trkpt lat="45.69302" lon="6.69867">
        <ele>1889.4</ele>
        <time>2021-06-01T12:25:00Z</time>
      </trkpt>
      <trkpt lat="45.69294" lon="6.69886">
        <ele>1888.8</ele>
        <time>2021-06-01T12:25:01Z</time>
      </trkpt>
      <trkpt lat="45.69286" lon="6.69906">
        <ele>1887.8</ele>
        <time>2021-06-01T12:25:02Z</time>
      </trkpt>
      <trkpt lat="45.69277" lon="6.69925">
        <ele>1887</ele>
        <time>2021-06-01T12:25:03Z</time>
      </trkpt>
      <trkpt lat="45.69269" lon="6.69945">
        <ele>1885.8</ele>
        <time>2021-06-01T12:25:04Z</time>
      </trkpt>
      <trkpt lat="45.69261" lon="6.69964">
        <ele>1885.2</ele>
        <time>2021-06-01T12:25:05Z</time>
      </trkpt>
      <trkpt lat="45.69252" lon="6.69984">
        <ele>1884.2</ele>
        <time>2021-06-01T12:25:06Z</time>
      </trkpt>
      <trkpt lat="45.69244" lon="6.70003">
        <ele>1883</ele>
        <time>2021-06-01T12:25:07Z</time>
      </trkpt>
      <trkpt lat="45.69235" lon="6.70022">
        <ele>1881.4</ele>
        <time>2021-06-01T12:25:08Z</time>
      </trkpt>
      <trkpt lat="45.69228" lon="6.70042">
        <ele>1879.8</ele>
        <time>2021-06-01T12:25:09Z</time>
      </trkpt>
      <trkpt lat="45.69221" lon="6.70062">
        <ele>1878.6</ele>
        <time>2021-06-01T12:25:10Z</time>
      </trkpt>
      <trkpt lat="45.69216" lon="6.70082">
        <ele>1877.2</ele>
        <time>2021-06-01T12:25:11Z</time>
      </trkpt>
      <trkpt lat="45.69212" lon="6.70103">
        <ele>1876</ele>
        <time>2021-06-01T12:25:12Z</time>
      </trkpt>
      <trkpt lat="45.6921" lon="6.70124">
        <ele>1874.6</ele>
        <time>2021-06-01T12:25:13Z</time>
      </trkpt>
      <trkpt lat="45.6921" lon="6.70146">
        <ele>1873.4</ele>
        <time>2021-06-01T12:25:14Z</time>
      </trkpt>
      <trkpt lat="45.69211" lon="6.70168">
        <ele>1872.2</ele>
        <time>2021-06-01T12:25:15Z</time>
      </trkpt>
      <trkpt lat="45.69213" lon="6.70191">
        <ele>1871.2</ele>
        <time>2021-06-01T12:25:16Z</time>
      </trkpt>
      <trkpt lat="45.69217" lon="6.70213">
        <ele>1870</ele>
        <time>2021-06-01T12:25:17Z</time>
      </trkpt>
      <trkpt lat="45.69223" lon="6.70235">
        <ele>1868.8</ele>
        <time>2021-06-01T12:25:18Z</time>
      </trkpt>
      <trkpt lat="45.69231" lon="6.70257">
        <ele>1867.6</ele>
        <time>2021-06-01T12:25:19Z</time>
      </trkpt>
      <trkpt lat="45.69239" lon="6.70279">
        <ele>1865.8</ele>
        <time>2021-06-01T12:25:20Z</time>
      </trkpt>
      <trkpt lat="45.69247" lon="6.70301">
        <ele>1864.2</ele>
        <time>2021-06-01T12:25:21Z</time>
      </trkpt>
      <trkpt lat="45.69255" lon="6.70324">
        <ele>1862.4</ele>
        <time>2021-06-01T12:25:22Z</time>
      </trkpt>
      <trkpt lat="45.69263" lon="6.70347">
        <ele>1860.6</ele>
        <time>2021-06-01T12:25:23Z</time>
      </trkpt>
      <trkpt lat="45.6927" lon="6.70371">
        <ele>1859.6</ele>
        <time>2021-06-01T12:25:24Z</time>
      </trkpt>
      <trkpt lat="45.69277" lon="6.70396">
        <ele>1858</ele>
        <time>2021-06-01T12:25:25Z</time>
      </trkpt>
      <trkpt lat="45.69283" lon="6.7042">
        <ele>1857</ele>
        <time>2021-06-01T12:25:26Z</time>
      </trkpt>
      <trkpt lat="45.69289" lon="6.70444">
        <ele>1856.2</ele>
        <time>2021-06-01T12:25:27Z</time>
      </trkpt>
      <trkpt lat="45.69293" lon="6.70469">
        <ele>1855.4</ele>
        <time>2021-06-01T12:25:28Z</time>
      </trkpt>
      <trkpt lat="45.69298" lon="6.70495">
        <ele>1854.6</ele>
        <time>2021-06-01T12:25:29Z</time>
      </trkpt>
      <trkpt lat="45.69301" lon="6.7052">
        <ele>1853.8</ele>
        <time>2021-06-01T12:25:30Z</time>
      </trkpt>
      <trkpt lat="45.69304" lon="6.7054">
        <ele>1852.8</ele>
        <time>2021-06-01T12:25:31Z</time>
      </trkpt>
      <trkpt lat="45.69307" lon="6.70564">
        <ele>1852.6</ele>
        <time>2021-06-01T12:25:32Z</time>
      </trkpt>
      <trkpt lat="45.6931" lon="6.70588">
        <ele>1852.2</ele>
        <time>2021-06-01T12:25:33Z</time>
      </trkpt>
      <trkpt lat="45.69313" lon="6.70617">
        <ele>1851.8</ele>
        <time>2021-06-01T12:25:34Z</time>
      </trkpt>
      <trkpt lat="45.69316" lon="6.70641">
        <ele>1850.8</ele>
        <time>2021-06-01T12:25:35Z</time>
      </trkpt>
      <trkpt lat="45.69318" lon="6.70664">
        <ele>1850.4</ele>
        <time>2021-06-01T12:25:36Z</time>
      </trkpt>
      <trkpt lat="45.69321" lon="6.70687">
        <ele>1849.4</ele>
        <time>2021-06-01T12:25:37Z</time>
      </trkpt>
      <trkpt lat="45.69324" lon="6.70711">
        <ele>1848.8</ele>
        <time>2021-06-01T12:25:38Z</time>
      </trkpt>
      <trkpt lat="45.69326" lon="6.70735">
        <ele>1847.8</ele>
        <time>2021-06-01T12:25:39Z</time>
      </trkpt>
      <trkpt lat="45.6933" lon="6.70758">
        <ele>1846.8</ele>
        <time>2021-06-01T12:25:40Z</time>
      </trkpt>
      <trkpt lat="45.69332" lon="6.70782">
        <ele>1845.6</ele>
        <time>2021-06-01T12:25:41Z</time>
      </trkpt>
      <trkpt lat="45.69335" lon="6.70806">
        <ele>1844.2</ele>
        <time>2021-06-01T12:25:42Z</time>
      </trkpt>
      <trkpt lat="45.69338" lon="6.7083">
        <ele>1842.6</ele>
        <time>2021-06-01T12:25:43Z</time>
      </trkpt>
      <trkpt lat="45.6934" lon="6.70855">
        <ele>1841.6</ele>
        <time>2021-06-01T12:25:44Z</time>
      </trkpt>
      <trkpt lat="45.69344" lon="6.70879">
        <ele>1840.4</ele>
        <time>2021-06-01T12:25:45Z</time>
      </trkpt>
      <trkpt lat="45.69346" lon="6.70904">
        <ele>1839</ele>
        <time>2021-06-01T12:25:46Z</time>
      </trkpt>
      <trkpt lat="45.69349" lon="6.70929">
        <ele>1837.4</ele>
        <time>2021-06-01T12:25:47Z</time>
      </trkpt>
      <trkpt lat="45.69352" lon="6.70954">
        <ele>1836.4</ele>
        <time>2021-06-01T12:25:48Z</time>
      </trkpt>
      <trkpt lat="45.69355" lon="6.70979">
        <ele>1834.8</ele>
        <time>2021-06-01T12:25:49Z</time>
      </trkpt>
      <trkpt lat="45.69358" lon="6.71005">
        <ele>1833.2</ele>
        <time>2021-06-01T12:25:50Z</time>
      </trkpt>
      <trkpt lat="45.69362" lon="6.7103">
        <ele>1831.6</ele>
        <time>2021-06-01T12:25:51Z</time>
      </trkpt>
      <trkpt lat="45.69364" lon="6.71056">
        <ele>1830</ele>
        <time>2021-06-01T12:25:52Z</time>
      </trkpt>
      <trkpt lat="45.69368" lon="6.71081">
        <ele>1828.6</ele>
        <time>2021-06-01T12:25:53Z</time>
      </trkpt>
      <trkpt lat="45.69371" lon="6.71107">
        <ele>1827.4</ele>
        <time>2021-06-01T12:25:54Z</time>
      </trkpt>
      <trkpt lat="45.69374" lon="6.71133">
        <ele>1826.6</ele>
        <time>2021-06-01T12:25:55Z</time>
      </trkpt>
      <trkpt lat="45.69377" lon="6.71158">
        <ele>1826</ele>
        <time>2021-06-01T12:25:56Z</time>
      </trkpt>
      <trkpt lat="45.6938" lon="6.71184">
        <ele>1824.4</ele>
        <time>2021-06-01T12:25:57Z</time>
      </trkpt>
      <trkpt lat="45.69382" lon="6.71209">
        <ele>1823.2</ele>
        <time>2021-06-01T12:25:58Z</time>
      </trkpt>
      <trkpt lat="45.69385" lon="6.71233">
        <ele>1821.6</ele>
        <time>2021-06-01T12:25:59Z</time>
      </trkpt>
      <trkpt lat="45.69388" lon="6.71256">
        <ele>1820</ele>
        <time>2021-06-01T12:26:00Z</time>
      </trkpt>
      <trkpt lat="45.69391" lon="6.7128">
        <ele>1818.6</ele>
        <time>2021-06-01T12:26:01Z</time>
      </trkpt>
      <trkpt lat="45.69396" lon="6.71303">
        <ele>1817.2</ele>
        <time>2021-06-01T12:26:02Z</time>
      </trkpt>
      <trkpt lat="45.69401" lon="6.71325">
        <ele>1816.6</ele>
        <time>2021-06-01T12:26:03Z</time>
      </trkpt>
      <trkpt lat="45.69407" lon="6.71346">
        <ele>1815.8</ele>
        <time>2021-06-01T12:26:04Z</time>
      </trkpt>
      <trkpt lat="45.69414" lon="6.71368">
        <ele>1815</ele>
        <time>2021-06-01T12:26:05Z</time>
      </trkpt>
      <trkpt lat="45.69422" lon="6.71389">
        <ele>1814.2</ele>
        <time>2021-06-01T12:26:06Z</time>
      </trkpt>
      <trkpt lat="45.69429" lon="6.7141">
        <ele>1813</ele>
        <time>2021-06-01T12:26:07Z</time>
      </trkpt>
      <trkpt lat="45.69436" lon="6.71432">
        <ele>1811.4</ele>
        <time>2021-06-01T12:26:08Z</time>
      </trkpt>
      <trkpt lat="45.69442" lon="6.71453">
        <ele>1810.4</ele>
        <time>2021-06-01T12:26:09Z</time>
      </trkpt>
      <trkpt lat="45.69447" lon="6.71475">
        <ele>1809.2</ele>
        <time>2021-06-01T12:26:10Z</time>
      </trkpt>
      <trkpt lat="45.69449" lon="6.71498">
        <ele>1808.2</ele>
        <time>2021-06-01T12:26:11Z</time>
      </trkpt>
      <trkpt lat="45.69449" lon="6.7152">
        <ele>1806.6</ele>
        <time>2021-06-01T12:26:12Z</time>
      </trkpt>
      <trkpt lat="45.69446" lon="6.71541">
        <ele>1805.2</ele>
        <time>2021-06-01T12:26:13Z</time>
      </trkpt>
      <trkpt lat="45.69442" lon="6.71561">
        <ele>1804.6</ele>
        <time>2021-06-01T12:26:14Z</time>
      </trkpt>
      <trkpt lat="45.69437" lon="6.71582">
        <ele>1803.4</ele>
        <time>2021-06-01T12:26:15Z</time>
      </trkpt>
      <trkpt lat="45.69434" lon="6.71602">
        <ele>1802</ele>
        <time>2021-06-01T12:26:16Z</time>
      </trkpt>
      <trkpt lat="45.69436" lon="6.71622">
        <ele>1800.6</ele>
        <time>2021-06-01T12:26:17Z</time>
      </trkpt>
      <trkpt lat="45.6944" lon="6.7164">
        <ele>1800</ele>
        <time>2021-06-01T12:26:18Z</time>
      </trkpt>
      <trkpt lat="45.69448" lon="6.71655">
        <ele>1799.4</ele>
        <time>2021-06-01T12:26:19Z</time>
      </trkpt>
      <trkpt lat="45.69458" lon="6.71667">
        <ele>1798.6</ele>
        <time>2021-06-01T12:26:20Z</time>
      </trkpt>
      <trkpt lat="45.6947" lon="6.71675">
        <ele>1797.6</ele>
        <time>2021-06-01T12:26:21Z</time>
      </trkpt>
      <trkpt lat="45.69483" lon="6.71677">
        <ele>1797</ele>
        <time>2021-06-01T12:26:22Z</time>
      </trkpt>
      <trkpt lat="45.69496" lon="6.71671">
        <ele>1796.4</ele>
        <time>2021-06-01T12:26:23Z</time>
      </trkpt>
      <trkpt lat="45.69509" lon="6.71663">
        <ele>1796.2</ele>
        <time>2021-06-01T12:26:24Z</time>
      </trkpt>
      <trkpt lat="45.69521" lon="6.71656">
        <ele>1795.4</ele>
        <time>2021-06-01T12:26:25Z</time>
      </trkpt>
      <trkpt lat="45.69533" lon="6.71648">
        <ele>1795</ele>
        <time>2021-06-01T12:26:26Z</time>
      </trkpt>
      <trkpt lat="45.69547" lon="6.71643">
        <ele>1794.6</ele>
        <time>2021-06-01T12:26:27Z</time>
      </trkpt>
      <trkpt lat="45.69559" lon="6.71641">
        <ele>1793.6</ele>
        <time>2021-06-01T12:26:28Z</time>
      </trkpt>
      <trkpt lat="45.69571" lon="6.71645">
        <ele>1792.6</ele>
        <time>2021-06-01T12:26:29Z</time>
      </trkpt>
      <trkpt lat="45.6958" lon="6.71653">
        <ele>1791.6</ele>
        <time>2021-06-01T12:26:30Z</time>
      </trkpt>
      <trkpt lat="45.69587" lon="6.71665">
        <ele>1790.4</ele>
        <time>2021-06-01T12:26:31Z</time>
      </trkpt>
      <trkpt lat="45.69588" lon="6.7168">
        <ele>1788.8</ele>
        <time>2021-06-01T12:26:32Z</time>
      </trkpt>
      <trkpt lat="45.69586" lon="6.71695">
        <ele>1788</ele>
        <time>2021-06-01T12:26:33Z</time>
      </trkpt>
      <trkpt lat="45.69581" lon="6.71709">
        <ele>1787</ele>
        <time>2021-06-01T12:26:34Z</time>
      </trkpt>
      <trkpt lat="45.69576" lon="6.71723">
        <ele>1786</ele>
        <time>2021-06-01T12:26:35Z</time>
      </trkpt>
      <trkpt lat="45.69573" lon="6.71738">
        <ele>1784.6</ele>
        <time>2021-06-01T12:26:36Z</time>
      </trkpt>
      <trkpt lat="45.69571" lon="6.71753">
        <ele>1783.6</ele>
        <time>2021-06-01T12:26:37Z</time>
      </trkpt>
      <trkpt lat="45.69571" lon="6.71769">
        <ele>1782.6</ele>
        <time>2021-06-01T12:26:38Z</time>
      </trkpt>
      <trkpt lat="45.69571" lon="6.71785">
        <ele>1781.4</ele>
        <time>2021-06-01T12:26:39Z</time>
      </trkpt>
      <trkpt lat="45.69573" lon="6.71802">
        <ele>1780.6</ele>
        <time>2021-06-01T12:26:40Z</time>
      </trkpt>
      <trkpt lat="45.69576" lon="6.71818">
        <ele>1779.8</ele>
        <time>2021-06-01T12:26:41Z</time>
      </trkpt>
      <trkpt lat="45.6958" lon="6.71834">
        <ele>1779</ele>
        <time>2021-06-01T12:26:42Z</time>
      </trkpt>
      <trkpt lat="45.69585" lon="6.71849">
        <ele>1778.6</ele>
        <time>2021-06-01T12:26:43Z</time>
      </trkpt>
      <trkpt lat="45.69594" lon="6.71862">
        <ele>1778</ele>
        <time>2021-06-01T12:26:44Z</time>
      </trkpt>
      <trkpt lat="45.69603" lon="6.71872">
        <ele>1777.6</ele>
        <time>2021-06-01T12:26:45Z</time>
      </trkpt>
      <trkpt lat="45.69614" lon="6.7188">
        <ele>1777.4</ele>
        <time>2021-06-01T12:26:46Z</time>
      </trkpt>
      <trkpt lat="45.69626" lon="6.71887">
        <ele>1776.8</ele>
        <time>2021-06-01T12:26:47Z</time>
      </trkpt>
      <trkpt lat="45.69637" lon="6.71894">
        <ele>1776.4</ele>
        <time>2021-06-01T12:26:48Z</time>
      </trkpt>
      <trkpt lat="45.69649" lon="6.71901">
        <ele>1775.4</ele>
        <time>2021-06-01T12:26:49Z</time>
      </trkpt>
      <trkpt lat="45.6966" lon="6.71909">
        <ele>1774.4</ele>
        <time>2021-06-01T12:26:50Z</time>
      </trkpt>
      <trkpt lat="45.69673" lon="6.71916">
        <ele>1773.8</ele>
        <time>2021-06-01T12:26:51Z</time>
      </trkpt>
      <trkpt lat="45.69685" lon="6.71923">
        <ele>1773</ele>
        <time>2021-06-01T12:26:52Z</time>
      </trkpt>
      <trkpt lat="45.69697" lon="6.71929">
        <ele>1772</ele>
        <time>2021-06-01T12:26:53Z</time>
      </trkpt>
      <trkpt lat="45.6971" lon="6.71936">
        <ele>1771.4</ele>
        <time>2021-06-01T12:26:54Z</time>
      </trkpt>
      <trkpt lat="45.69722" lon="6.71946">
        <ele>1770.4</ele>
        <time>2021-06-01T12:26:55Z</time>
      </trkpt>
      <trkpt lat="45.69731" lon="6.71959">
        <ele>1769.6</ele>
        <time>2021-06-01T12:26:56Z</time>
      </trkpt>
      <trkpt lat="45.69738" lon="6.71976">
        <ele>1769</ele>
        <time>2021-06-01T12:26:57Z</time>
      </trkpt>
      <trkpt lat="45.69741" lon="6.71994">
        <ele>1767.8</ele>
        <time>2021-06-01T12:26:58Z</time>
      </trkpt>
      <trkpt lat="45.69741" lon="6.72013">
        <ele>1767</ele>
        <time>2021-06-01T12:26:59Z</time>
      </trkpt>
      <trkpt lat="45.6974" lon="6.72032">
        <ele>1766.4</ele>
        <time>2021-06-01T12:27:00Z</time>
      </trkpt>
      <trkpt lat="45.69738" lon="6.72051">
        <ele>1765.6</ele>
        <time>2021-06-01T12:27:01Z</time>
      </trkpt>
      <trkpt lat="45.69737" lon="6.7207">
        <ele>1764.8</ele>
        <time>2021-06-01T12:27:02Z</time>
      </trkpt>
      <trkpt lat="45.69734" lon="6.72089">
        <ele>1764</ele>
        <time>2021-06-01T12:27:03Z</time>
      </trkpt>
      <trkpt lat="45.69731" lon="6.72107">
        <ele>1763</ele>
        <time>2021-06-01T12:27:04Z</time>
      </trkpt>
      <trkpt lat="45.69729" lon="6.72126">
        <ele>1761.8</ele>
        <time>2021-06-01T12:27:05Z</time>
      </trkpt>
      <trkpt lat="45.69727" lon="6.72144">
        <ele>1760.6</ele>
        <time>2021-06-01T12:27:06Z</time>
      </trkpt>
      <trkpt lat="45.69728" lon="6.72162">
        <ele>1759.8</ele>
        <time>2021-06-01T12:27:07Z</time>
      </trkpt>
      <trkpt lat="45.69733" lon="6.72177">
        <ele>1758.8</ele>
        <time>2021-06-01T12:27:08Z</time>
      </trkpt>
      <trkpt lat="45.69741" lon="6.72189">
        <ele>1757.8</ele>
        <time>2021-06-01T12:27:09Z</time>
      </trkpt>
      <trkpt lat="45.6975" lon="6.72202">
        <ele>1757</ele>
        <time>2021-06-01T12:27:10Z</time>
      </trkpt>
      <trkpt lat="45.69759" lon="6.72215">
        <ele>1756.4</ele>
        <time>2021-06-01T12:27:11Z</time>
      </trkpt>
      <trkpt lat="45.69765" lon="6.72231">
        <ele>1755.6</ele>
        <time>2021-06-01T12:27:12Z</time>
      </trkpt>
      <trkpt lat="45.69768" lon="6.72249">
        <ele>1754.8</ele>
        <time>2021-06-01T12:27:13Z</time>
      </trkpt>
      <trkpt lat="45.69768" lon="6.72267">
        <ele>1754</ele>
        <time>2021-06-01T12:27:14Z</time>
      </trkpt>
      <trkpt lat="45.69764" lon="6.72284">
        <ele>1753.4</ele>
        <time>2021-06-01T12:27:15Z</time>
      </trkpt>
      <trkpt lat="45.69759" lon="6.723">
        <ele>1753</ele>
        <time>2021-06-01T12:27:16Z</time>
      </trkpt>
      <trkpt lat="45.69752" lon="6.72315">
        <ele>1752.4</ele>
        <time>2021-06-01T12:27:17Z</time>
      </trkpt>
      <trkpt lat="45.69746" lon="6.72329">
        <ele>1751.8</ele>
        <time>2021-06-01T12:27:18Z</time>
      </trkpt>
      <trkpt lat="45.69741" lon="6.72344">
        <ele>1751</ele>
        <time>2021-06-01T12:27:19Z</time>
      </trkpt>
      <trkpt lat="45.69738" lon="6.72359">
        <ele>1750.2</ele>
        <time>2021-06-01T12:27:20Z</time>
      </trkpt>
      <trkpt lat="45.69737" lon="6.72376">
        <ele>1749.6</ele>
        <time>2021-06-01T12:27:21Z</time>
      </trkpt>
      <trkpt lat="45.69738" lon="6.72391">
        <ele>1749</ele>
        <time>2021-06-01T12:27:22Z</time>
      </trkpt>
      <trkpt lat="45.69743" lon="6.72405">
        <ele>1748.4</ele>
        <time>2021-06-01T12:27:23Z</time>
      </trkpt>
      <trkpt lat="45.6975" lon="6.72418">
        <ele>1747.8</ele>
        <time>2021-06-01T12:27:24Z</time>
      </trkpt>
      <trkpt lat="45.69759" lon="6.72428">
        <ele>1747.4</ele>
        <time>2021-06-01T12:27:25Z</time>
      </trkpt>
      <trkpt lat="45.69769" lon="6.72438">
        <ele>1746.8</ele>
        <time>2021-06-01T12:27:26Z</time>
      </trkpt>
      <trkpt lat="45.69779" lon="6.72448">
        <ele>1746.8</ele>
        <time>2021-06-01T12:27:27Z</time>
      </trkpt>
      <trkpt lat="45.69788" lon="6.72459">
        <ele>1746.6</ele>
        <time>2021-06-01T12:27:28Z</time>
      </trkpt>
      <trkpt lat="45.69797" lon="6.7247">
        <ele>1746.2</ele>
        <time>2021-06-01T12:27:29Z</time>
      </trkpt>
      <trkpt lat="45.69803" lon="6.72483">
        <ele>1745.8</ele>
        <time>2021-06-01T12:27:30Z</time>
      </trkpt>
      <trkpt lat="45.69808" lon="6.72496">
        <ele>1745.2</ele>
        <time>2021-06-01T12:27:31Z</time>
      </trkpt>
      <trkpt lat="45.69809" lon="6.7251">
        <ele>1744.8</ele>
        <time>2021-06-01T12:27:32Z</time>
      </trkpt>
      <trkpt lat="45.69805" lon="6.72522">
        <ele>1744.4</ele>
        <time>2021-06-01T12:27:33Z</time>
      </trkpt>
      <trkpt lat="45.69797" lon="6.72531">
        <ele>1744.2</ele>
        <time>2021-06-01T12:27:34Z</time>
      </trkpt>
      <trkpt lat="45.69787" lon="6.72535">
        <ele>1744</ele>
        <time>2021-06-01T12:27:35Z</time>
      </trkpt>
      <trkpt lat="45.69775" lon="6.72535">
        <ele>1744</ele>
        <time>2021-06-01T12:27:36Z</time>
      </trkpt>
      <trkpt lat="45.69764" lon="6.72532">
        <ele>1743.6</ele>
        <time>2021-06-01T12:27:37Z</time>
      </trkpt>
      <trkpt lat="45.69753" lon="6.72528">
        <ele>1743</ele>
        <time>2021-06-01T12:27:38Z</time>
      </trkpt>
      <trkpt lat="45.69741" lon="6.72523">
        <ele>1742.2</ele>
        <time>2021-06-01T12:27:39Z</time>
      </trkpt>
      <trkpt lat="45.6973" lon="6.72518">
        <ele>1741.6</ele>
        <time>2021-06-01T12:27:40Z</time>
      </trkpt>
      <trkpt lat="45.69719" lon="6.7251">
        <ele>1741</ele>
        <time>2021-06-01T12:27:41Z</time>
      </trkpt>
      <trkpt lat="45.6971" lon="6.72499">
        <ele>1741.2</ele>
        <time>2021-06-01T12:27:42Z</time>
      </trkpt>
      <trkpt lat="45.69704" lon="6.72485">
        <ele>1740.4</ele>
        <time>2021-06-01T12:27:43Z</time>
      </trkpt>
      <trkpt lat="45.69697" lon="6.72469">
        <ele>1740</ele>
        <time>2021-06-01T12:27:44Z</time>
      </trkpt>
      <trkpt lat="45.69691" lon="6.72453">
        <ele>1738.8</ele>
        <time>2021-06-01T12:27:45Z</time>
      </trkpt>
      <trkpt lat="45.69684" lon="6.72436">
        <ele>1737.8</ele>
        <time>2021-06-01T12:27:46Z</time>
      </trkpt>
      <trkpt lat="45.69678" lon="6.7242">
        <ele>1736.8</ele>
        <time>2021-06-01T12:27:47Z</time>
      </trkpt>
      <trkpt lat="45.69671" lon="6.72404">
        <ele>1735.4</ele>
        <time>2021-06-01T12:27:48Z</time>
      </trkpt>
      <trkpt lat="45.69664" lon="6.72387">
        <ele>1734.6</ele>
        <time>2021-06-01T12:27:49Z</time>
      </trkpt>
      <trkpt lat="45.69656" lon="6.7237">
        <ele>1733.2</ele>
        <time>2021-06-01T12:27:50Z</time>
      </trkpt>
      <trkpt lat="45.69648" lon="6.72353">
        <ele>1731.8</ele>
        <time>2021-06-01T12:27:51Z</time>
      </trkpt>
      <trkpt lat="45.6964" lon="6.72335">
        <ele>1730.4</ele>
        <time>2021-06-01T12:27:52Z</time>
      </trkpt>
      <trkpt lat="45.69632" lon="6.72318">
        <ele>1729</ele>
        <time>2021-06-01T12:27:53Z</time>
      </trkpt>
      <trkpt lat="45.69624" lon="6.723">
        <ele>1728</ele>
        <time>2021-06-01T12:27:54Z</time>
      </trkpt>
      <trkpt lat="45.69617" lon="6.72284">
        <ele>1726.8</ele>
        <time>2021-06-01T12:27:55Z</time>
      </trkpt>
      <trkpt lat="45.69611" lon="6.7227">
        <ele>1724.8</ele>
        <time>2021-06-01T12:27:56Z</time>
      </trkpt>
      <trkpt lat="45.69603" lon="6.72259">
        <ele>1723.2</ele>
        <time>2021-06-01T12:27:57Z</time>
      </trkpt>
      <trkpt lat="45.69596" lon="6.72253">
        <ele>1721.6</ele>
        <time>2021-06-01T12:27:58Z</time>
      </trkpt>
      <trkpt lat="45.69588" lon="6.72254">
        <ele>1720</ele>
        <time>2021-06-01T12:27:59Z</time>
      </trkpt>
      <trkpt lat="45.69583" lon="6.7226">
        <ele>1718.8</ele>
        <time>2021-06-01T12:28:00Z</time>
      </trkpt>
      <trkpt lat="45.69578" lon="6.72266">
        <ele>1717.6</ele>
        <time>2021-06-01T12:28:01Z</time>
      </trkpt>
      <trkpt lat="45.69581" lon="6.72278">
        <ele>1716.8</ele>
        <time>2021-06-01T12:28:02Z</time>
      </trkpt>
      <trkpt lat="45.69582" lon="6.72288">
        <ele>1716</ele>
        <time>2021-06-01T12:28:03Z</time>
      </trkpt>
      <trkpt lat="45.69592" lon="6.72306">
        <ele>1715.2</ele>
        <time>2021-06-01T12:28:04Z</time>
      </trkpt>
      <trkpt lat="45.69598" lon="6.72324">
        <ele>1714</ele>
        <time>2021-06-01T12:28:05Z</time>
      </trkpt>
      <trkpt lat="45.69602" lon="6.72342">
        <ele>1713</ele>
        <time>2021-06-01T12:28:06Z</time>
      </trkpt>
      <trkpt lat="45.69605" lon="6.72362">
        <ele>1712</ele>
        <time>2021-06-01T12:28:07Z</time>
      </trkpt>
      <trkpt lat="45.69606" lon="6.72382">
        <ele>1711</ele>
        <time>2021-06-01T12:28:08Z</time>
      </trkpt>
      <trkpt lat="45.69606" lon="6.72403">
        <ele>1709.8</ele>
        <time>2021-06-01T12:28:09Z</time>
      </trkpt>
      <trkpt lat="45.69606" lon="6.72424">
        <ele>1708.4</ele>
        <time>2021-06-01T12:28:10Z</time>
      </trkpt>
      <trkpt lat="45.69606" lon="6.72445">
        <ele>1707</ele>
        <time>2021-06-01T12:28:11Z</time>
      </trkpt>
      <trkpt lat="45.69607" lon="6.72467">
        <ele>1706</ele>
        <time>2021-06-01T12:28:12Z</time>
      </trkpt>
      <trkpt lat="45.69607" lon="6.72488">
        <ele>1704.8</ele>
        <time>2021-06-01T12:28:13Z</time>
      </trkpt>
      <trkpt lat="45.69608" lon="6.72509">
        <ele>1703.4</ele>
        <time>2021-06-01T12:28:14Z</time>
      </trkpt>
      <trkpt lat="45.6961" lon="6.72531">
        <ele>1702</ele>
        <time>2021-06-01T12:28:15Z</time>
      </trkpt>
      <trkpt lat="45.69612" lon="6.72551">
        <ele>1700.6</ele>
        <time>2021-06-01T12:28:16Z</time>
      </trkpt>
      <trkpt lat="45.69617" lon="6.7257">
        <ele>1699.2</ele>
        <time>2021-06-01T12:28:17Z</time>
      </trkpt>
      <trkpt lat="45.69622" lon="6.72587">
        <ele>1698</ele>
        <time>2021-06-01T12:28:18Z</time>
      </trkpt>
      <trkpt lat="45.69628" lon="6.72604">
        <ele>1696.8</ele>
        <time>2021-06-01T12:28:19Z</time>
      </trkpt>
      <trkpt lat="45.69632" lon="6.7262">
        <ele>1695.2</ele>
        <time>2021-06-01T12:28:20Z</time>
      </trkpt>
      <trkpt lat="45.69635" lon="6.72636">
        <ele>1693.8</ele>
        <time>2021-06-01T12:28:21Z</time>
      </trkpt>
      <trkpt lat="45.69636" lon="6.72651">
        <ele>1692.4</ele>
        <time>2021-06-01T12:28:22Z</time>
      </trkpt>
      <trkpt lat="45.69634" lon="6.72664">
        <ele>1691.4</ele>
        <time>2021-06-01T12:28:23Z</time>
      </trkpt>
      <trkpt lat="45.6963" lon="6.72674">
        <ele>1690.4</ele>
        <time>2021-06-01T12:28:24Z</time>
      </trkpt>
      <trkpt lat="45.69624" lon="6.7268">
        <ele>1689.4</ele>
        <time>2021-06-01T12:28:25Z</time>
      </trkpt>
      <trkpt lat="45.69618" lon="6.7268">
        <ele>1689</ele>
        <time>2021-06-01T12:28:26Z</time>
      </trkpt>
      <trkpt lat="45.69612" lon="6.72675">
        <ele>1688.6</ele>
        <time>2021-06-01T12:28:27Z</time>
      </trkpt>
      <trkpt lat="45.69608" lon="6.72666">
        <ele>1688.2</ele>
        <time>2021-06-01T12:28:28Z</time>
      </trkpt>
      <trkpt lat="45.69606" lon="6.72656">
        <ele>1687.6</ele>
        <time>2021-06-01T12:28:29Z</time>
      </trkpt>
      <trkpt lat="45.69603" lon="6.72643">
        <ele>1686.8</ele>
        <time>2021-06-01T12:28:30Z</time>
      </trkpt>
      <trkpt lat="45.69602" lon="6.72631">
        <ele>1686.4</ele>
        <time>2021-06-01T12:28:31Z</time>
      </trkpt>
      <trkpt lat="45.69599" lon="6.7262">
        <ele>1685.6</ele>
        <time>2021-06-01T12:28:32Z</time>
      </trkpt>
      <trkpt lat="45.69596" lon="6.72605">
        <ele>1685</ele>
        <time>2021-06-01T12:28:33Z</time>
      </trkpt>
      <trkpt lat="45.69593" lon="6.72592">
        <ele>1684.4</ele>
        <time>2021-06-01T12:28:34Z</time>
      </trkpt>
      <trkpt lat="45.69589" lon="6.72579">
        <ele>1684.4</ele>
        <time>2021-06-01T12:28:35Z</time>
      </trkpt>
      <trkpt lat="45.69585" lon="6.72566">
        <ele>1684.2</ele>
        <time>2021-06-01T12:28:36Z</time>
      </trkpt>
      <trkpt lat="45.69581" lon="6.72553">
        <ele>1684</ele>
        <time>2021-06-01T12:28:37Z</time>
      </trkpt>
      <trkpt lat="45.69577" lon="6.7254">
        <ele>1684.2</ele>
        <time>2021-06-01T12:28:38Z</time>
      </trkpt>
      <trkpt lat="45.69572" lon="6.72527">
        <ele>1683.8</ele>
        <time>2021-06-01T12:28:39Z</time>
      </trkpt>
      <trkpt lat="45.69567" lon="6.72514">
        <ele>1683.4</ele>
        <time>2021-06-01T12:28:40Z</time>
      </trkpt>
      <trkpt lat="45.69561" lon="6.72502">
        <ele>1683.4</ele>
        <time>2021-06-01T12:28:41Z</time>
      </trkpt>
      <trkpt lat="45.69556" lon="6.7249">
        <ele>1683.2</ele>
        <time>2021-06-01T12:28:42Z</time>
      </trkpt>
      <trkpt lat="45.6955" lon="6.72478">
        <ele>1682.8</ele>
        <time>2021-06-01T12:28:43Z</time>
      </trkpt>
      <trkpt lat="45.69544" lon="6.72466">
        <ele>1682.6</ele>
        <time>2021-06-01T12:28:44Z</time>
      </trkpt>
      <trkpt lat="45.69539" lon="6.72456">
        <ele>1682</ele>
        <time>2021-06-01T12:28:45Z</time>
      </trkpt>
      <trkpt lat="45.69532" lon="6.72445">
        <ele>1681.2</ele>
        <time>2021-06-01T12:28:46Z</time>
      </trkpt>
      <trkpt lat="45.69527" lon="6.72434">
        <ele>1680.8</ele>
        <time>2021-06-01T12:28:47Z</time>
      </trkpt>
      <trkpt lat="45.69522" lon="6.72423">
        <ele>1680.8</ele>
        <time>2021-06-01T12:28:48Z</time>
      </trkpt>
      <trkpt lat="45.69519" lon="6.7241">
        <ele>1680.6</ele>
        <time>2021-06-01T12:28:49Z</time>
      </trkpt>
      <trkpt lat="45.69519" lon="6.72396">
        <ele>1680.6</ele>
        <time>2021-06-01T12:28:50Z</time>
      </trkpt>
      <trkpt lat="45.69521" lon="6.72383">
        <ele>1680.4</ele>
        <time>2021-06-01T12:28:51Z</time>
      </trkpt>
      <trkpt lat="45.69524" lon="6.7237">
        <ele>1680.4</ele>
        <time>2021-06-01T12:28:52Z</time>
      </trkpt>
      <trkpt lat="45.69527" lon="6.72356">
        <ele>1680.4</ele>
        <time>2021-06-01T12:28:53Z</time>
      </trkpt>
      <trkpt lat="45.69529" lon="6.72342">
        <ele>1679.6</ele>
        <time>2021-06-01T12:28:54Z</time>
      </trkpt>
      <trkpt lat="45.69531" lon="6.72328">
        <ele>1678.6</ele>
        <time>2021-06-01T12:28:55Z</time>
      </trkpt>
      <trkpt lat="45.69531" lon="6.72312">
        <ele>1678.6</ele>
        <time>2021-06-01T12:28:56Z</time>
      </trkpt>
      <trkpt lat="45.69529" lon="6.72296">
        <ele>1678</ele>
        <time>2021-06-01T12:28:57Z</time>
      </trkpt>
      <trkpt lat="45.69527" lon="6.7228">
        <ele>1677.6</ele>
        <time>2021-06-01T12:28:58Z</time>
      </trkpt>
      <trkpt lat="45.69524" lon="6.72265">
        <ele>1677.2</ele>
        <time>2021-06-01T12:28:59Z</time>
      </trkpt>
      <trkpt lat="45.69521" lon="6.7225">
        <ele>1676.8</ele>
        <time>2021-06-01T12:29:00Z</time>
      </trkpt>
      <trkpt lat="45.69516" lon="6.72235">
        <ele>1676</ele>
        <time>2021-06-01T12:29:01Z</time>
      </trkpt>
      <trkpt lat="45.69511" lon="6.72222">
        <ele>1675.8</ele>
        <time>2021-06-01T12:29:02Z</time>
      </trkpt>
      <trkpt lat="45.69503" lon="6.72211">
        <ele>1675.2</ele>
        <time>2021-06-01T12:29:03Z</time>
      </trkpt>
      <trkpt lat="45.69494" lon="6.72203">
        <ele>1674</ele>
        <time>2021-06-01T12:29:04Z</time>
      </trkpt>
      <trkpt lat="45.69484" lon="6.72199">
        <ele>1673</ele>
        <time>2021-06-01T12:29:05Z</time>
      </trkpt>
      <trkpt lat="45.69473" lon="6.722">
        <ele>1672.2</ele>
        <time>2021-06-01T12:29:06Z</time>
      </trkpt>
      <trkpt lat="45.69463" lon="6.72205">
        <ele>1671.2</ele>
        <time>2021-06-01T12:29:07Z</time>
      </trkpt>
      <trkpt lat="45.69453" lon="6.72214">
        <ele>1670.8</ele>
        <time>2021-06-01T12:29:08Z</time>
      </trkpt>
      <trkpt lat="45.69444" lon="6.72224">
        <ele>1670</ele>
        <time>2021-06-01T12:29:09Z</time>
      </trkpt>
      <trkpt lat="45.69434" lon="6.72237">
        <ele>1669.2</ele>
        <time>2021-06-01T12:29:10Z</time>
      </trkpt>
      <trkpt lat="45.69426" lon="6.72252">
        <ele>1668.4</ele>
        <time>2021-06-01T12:29:11Z</time>
      </trkpt>
      <trkpt lat="45.69419" lon="6.72268">
        <ele>1667</ele>
        <time>2021-06-01T12:29:12Z</time>
      </trkpt>
      <trkpt lat="45.69412" lon="6.72285">
        <ele>1665.6</ele>
        <time>2021-06-01T12:29:13Z</time>
      </trkpt>
      <trkpt lat="45.69405" lon="6.72302">
        <ele>1664.2</ele>
        <time>2021-06-01T12:29:14Z</time>
      </trkpt>
      <trkpt lat="45.69398" lon="6.72319">
        <ele>1663.2</ele>
        <time>2021-06-01T12:29:15Z</time>
      </trkpt>
      <trkpt lat="45.69392" lon="6.72337">
        <ele>1662</ele>
        <time>2021-06-01T12:29:16Z</time>
      </trkpt>
      <trkpt lat="45.69388" lon="6.72355">
        <ele>1661</ele>
        <time>2021-06-01T12:29:17Z</time>
      </trkpt>
      <trkpt lat="45.69386" lon="6.72375">
        <ele>1660.8</ele>
        <time>2021-06-01T12:29:18Z</time>
      </trkpt>
      <trkpt lat="45.69386" lon="6.72395">
        <ele>1660</ele>
        <time>2021-06-01T12:29:19Z</time>
      </trkpt>
      <trkpt lat="45.69388" lon="6.72415">
        <ele>1659.2</ele>
        <time>2021-06-01T12:29:20Z</time>
      </trkpt>
      <trkpt lat="45.69389" lon="6.72436">
        <ele>1659</ele>
        <time>2021-06-01T12:29:21Z</time>
      </trkpt>
      <trkpt lat="45.69392" lon="6.72457">
        <ele>1657.8</ele>
        <time>2021-06-01T12:29:22Z</time>
      </trkpt>
      <trkpt lat="45.69394" lon="6.72478">
        <ele>1656.4</ele>
        <time>2021-06-01T12:29:23Z</time>
      </trkpt>
      <trkpt lat="45.69396" lon="6.725">
        <ele>1655.2</ele>
        <time>2021-06-01T12:29:24Z</time>
      </trkpt>
      <trkpt lat="45.69398" lon="6.72523">
        <ele>1654</ele>
        <time>2021-06-01T12:29:25Z</time>
      </trkpt>
      <trkpt lat="45.694" lon="6.72546">
        <ele>1652.6</ele>
        <time>2021-06-01T12:29:26Z</time>
      </trkpt>
      <trkpt lat="45.69401" lon="6.7257">
        <ele>1651</ele>
        <time>2021-06-01T12:29:27Z</time>
      </trkpt>
      <trkpt lat="45.69402" lon="6.72594">
        <ele>1649.8</ele>
        <time>2021-06-01T12:29:28Z</time>
      </trkpt>
      <trkpt lat="45.69402" lon="6.72618">
        <ele>1648.8</ele>
        <time>2021-06-01T12:29:29Z</time>
      </trkpt>
      <trkpt lat="45.69401" lon="6.72643">
        <ele>1647.4</ele>
        <time>2021-06-01T12:29:30Z</time>
      </trkpt>
      <trkpt lat="45.69398" lon="6.72668">
        <ele>1646.6</ele>
        <time>2021-06-01T12:29:31Z</time>
      </trkpt>
      <trkpt lat="45.69396" lon="6.72692">
        <ele>1644.8</ele>
        <time>2021-06-01T12:29:32Z</time>
      </trkpt>
      <trkpt lat="45.69392" lon="6.72717">
        <ele>1643.6</ele>
        <time>2021-06-01T12:29:33Z</time>
      </trkpt>
      <trkpt lat="45.69388" lon="6.72742">
        <ele>1641.6</ele>
        <time>2021-06-01T12:29:34Z</time>
      </trkpt>
      <trkpt lat="45.69384" lon="6.72766">
        <ele>1640.8</ele>
        <time>2021-06-01T12:29:35Z</time>
      </trkpt>
      <trkpt lat="45.69379" lon="6.7279">
        <ele>1638.8</ele>
        <time>2021-06-01T12:29:36Z</time>
      </trkpt>
      <trkpt lat="45.69374" lon="6.72815">
        <ele>1637.6</ele>
        <time>2021-06-01T12:29:37Z</time>
      </trkpt>
      <trkpt lat="45.69369" lon="6.7284">
        <ele>1636</ele>
        <time>2021-06-01T12:29:38Z</time>
      </trkpt>
      <trkpt lat="45.69365" lon="6.72864">
        <ele>1634.4</ele>
        <time>2021-06-01T12:29:39Z</time>
      </trkpt>
      <trkpt lat="45.69362" lon="6.72887">
        <ele>1632.6</ele>
        <time>2021-06-01T12:29:40Z</time>
      </trkpt>
      <trkpt lat="45.69359" lon="6.7291">
        <ele>1631.6</ele>
        <time>2021-06-01T12:29:41Z</time>
      </trkpt>
      <trkpt lat="45.69357" lon="6.72933">
        <ele>1629.8</ele>
        <time>2021-06-01T12:29:42Z</time>
      </trkpt>
      <trkpt lat="45.69355" lon="6.72956">
        <ele>1627.8</ele>
        <time>2021-06-01T12:29:43Z</time>
      </trkpt>
      <trkpt lat="45.69352" lon="6.72977">
        <ele>1626.2</ele>
        <time>2021-06-01T12:29:44Z</time>
      </trkpt>
      <trkpt lat="45.69348" lon="6.72997">
        <ele>1624.4</ele>
        <time>2021-06-01T12:29:45Z</time>
      </trkpt>
      <trkpt lat="45.69346" lon="6.73016">
        <ele>1622</ele>
        <time>2021-06-01T12:29:46Z</time>
      </trkpt>
      <trkpt lat="45.69342" lon="6.73034">
        <ele>1620.6</ele>
        <time>2021-06-01T12:29:47Z</time>
      </trkpt>
      <trkpt lat="45.69339" lon="6.73051">
        <ele>1619.2</ele>
        <time>2021-06-01T12:29:48Z</time>
      </trkpt>
      <trkpt lat="45.69336" lon="6.73068">
        <ele>1618.2</ele>
        <time>2021-06-01T12:29:49Z</time>
      </trkpt>
      <trkpt lat="45.69333" lon="6.73084">
        <ele>1616.6</ele>
        <time>2021-06-01T12:29:50Z</time>
      </trkpt>
      <trkpt lat="45.69331" lon="6.73101">
        <ele>1615.4</ele>
        <time>2021-06-01T12:29:51Z</time>
      </trkpt>
      <trkpt lat="45.6933" lon="6.73117">
        <ele>1614</ele>
        <time>2021-06-01T12:29:52Z</time>
      </trkpt>
      <trkpt lat="45.6933" lon="6.73132">
        <ele>1612.6</ele>
        <time>2021-06-01T12:29:53Z</time>
      </trkpt>
      <trkpt lat="45.69331" lon="6.73147">
        <ele>1611</ele>
        <time>2021-06-01T12:29:54Z</time>
      </trkpt>
      <trkpt lat="45.69332" lon="6.7316">
        <ele>1609.6</ele>
        <time>2021-06-01T12:29:55Z</time>
      </trkpt>
      <trkpt lat="45.69334" lon="6.73172">
        <ele>1608.4</ele>
        <time>2021-06-01T12:29:56Z</time>
      </trkpt>
      <trkpt lat="45.69334" lon="6.73183">
        <ele>1607.4</ele>
        <time>2021-06-01T12:29:57Z</time>
      </trkpt>
      <trkpt lat="45.69333" lon="6.73193">
        <ele>1606.4</ele>
        <time>2021-06-01T12:29:58Z</time>
      </trkpt>
      <trkpt lat="45.69329" lon="6.73201">
        <ele>1605.6</ele>
        <time>2021-06-01T12:29:59Z</time>
      </trkpt>
      <trkpt lat="45.69324" lon="6.73207">
        <ele>1605.6</ele>
        <time>2021-06-01T12:30:00Z</time>
      </trkpt>
      <trkpt lat="45.69317" lon="6.73213">
        <ele>1604.4</ele>
        <time>2021-06-01T12:30:01Z</time>
      </trkpt>
      <trkpt lat="45.69309" lon="6.73218">
        <ele>1603.8</ele>
        <time>2021-06-01T12:30:02Z</time>
      </trkpt>
      <trkpt lat="45.69301" lon="6.73222">
        <ele>1603</ele>
        <time>2021-06-01T12:30:03Z</time>
      </trkpt>
      <trkpt lat="45.69292" lon="6.73227">
        <ele>1602.6</ele>
        <time>2021-06-01T12:30:04Z</time>
      </trkpt>
      <trkpt lat="45.69283" lon="6.73232">
        <ele>1601.8</ele>
        <time>2021-06-01T12:30:05Z</time>
      </trkpt>
      <trkpt lat="45.69274" lon="6.73236">
        <ele>1601.2</ele>
        <time>2021-06-01T12:30:06Z</time>
      </trkpt>
      <trkpt lat="45.69264" lon="6.73238">
        <ele>1600.6</ele>
        <time>2021-06-01T12:30:07Z</time>
      </trkpt>
      <trkpt lat="45.69253" lon="6.7324">
        <ele>1600</ele>
        <time>2021-06-01T12:30:08Z</time>
      </trkpt>
      <trkpt lat="45.69242" lon="6.73242">
        <ele>1599</ele>
        <time>2021-06-01T12:30:09Z</time>
      </trkpt>
      <trkpt lat="45.69231" lon="6.73244">
        <ele>1598.2</ele>
        <time>2021-06-01T12:30:10Z</time>
      </trkpt>
      <trkpt lat="45.69219" lon="6.73246">
        <ele>1597.2</ele>
        <time>2021-06-01T12:30:11Z</time>
      </trkpt>
      <trkpt lat="45.69206" lon="6.7325">
        <ele>1596.6</ele>
        <time>2021-06-01T12:30:12Z</time>
      </trkpt>
      <trkpt lat="45.69194" lon="6.73254">
        <ele>1596.4</ele>
        <time>2021-06-01T12:30:13Z</time>
      </trkpt>
      <trkpt lat="45.69181" lon="6.73257">
        <ele>1596</ele>
        <time>2021-06-01T12:30:14Z</time>
      </trkpt>
      <trkpt lat="45.69168" lon="6.73259">
        <ele>1595.4</ele>
        <time>2021-06-01T12:30:15Z</time>
      </trkpt>
      <trkpt lat="45.69155" lon="6.73261">
        <ele>1594.4</ele>
        <time>2021-06-01T12:30:16Z</time>
      </trkpt>
      <trkpt lat="45.69142" lon="6.73261">
        <ele>1593.8</ele>
        <time>2021-06-01T12:30:17Z</time>
      </trkpt>
      <trkpt lat="45.69129" lon="6.73262">
        <ele>1593</ele>
        <time>2021-06-01T12:30:18Z</time>
      </trkpt>
      <trkpt lat="45.69116" lon="6.73262">
        <ele>1591.6</ele>
        <time>2021-06-01T12:30:19Z</time>
      </trkpt>
      <trkpt lat="45.69103" lon="6.73263">
        <ele>1590</ele>
        <time>2021-06-01T12:30:20Z</time>
      </trkpt>
      <trkpt lat="45.6909" lon="6.73264">
        <ele>1589.4</ele>
        <time>2021-06-01T12:30:21Z</time>
      </trkpt>
      <trkpt lat="45.69076" lon="6.73266">
        <ele>1588.4</ele>
        <time>2021-06-01T12:30:22Z</time>
      </trkpt>
      <trkpt lat="45.69063" lon="6.73268">
        <ele>1587.2</ele>
        <time>2021-06-01T12:30:23Z</time>
      </trkpt>
      <trkpt lat="45.6905" lon="6.73273">
        <ele>1586.2</ele>
        <time>2021-06-01T12:30:24Z</time>
      </trkpt>
      <trkpt lat="45.69036" lon="6.73278">
        <ele>1585.2</ele>
        <time>2021-06-01T12:30:25Z</time>
      </trkpt>
      <trkpt lat="45.69022" lon="6.73283">
        <ele>1584.2</ele>
        <time>2021-06-01T12:30:26Z</time>
      </trkpt>
      <trkpt lat="45.69008" lon="6.73287">
        <ele>1582.4</ele>
        <time>2021-06-01T12:30:27Z</time>
      </trkpt>
      <trkpt lat="45.68993" lon="6.7329">
        <ele>1581.4</ele>
        <time>2021-06-01T12:30:28Z</time>
      </trkpt>
      <trkpt lat="45.68979" lon="6.73293">
        <ele>1579.4</ele>
        <time>2021-06-01T12:30:29Z</time>
      </trkpt>
      <trkpt lat="45.68965" lon="6.73295">
        <ele>1577.8</ele>
        <time>2021-06-01T12:30:30Z</time>
      </trkpt>
      <trkpt lat="45.68951" lon="6.73299">
        <ele>1576.2</ele>
        <time>2021-06-01T12:30:31Z</time>
      </trkpt>
      <trkpt lat="45.68937" lon="6.73302">
        <ele>1575</ele>
        <time>2021-06-01T12:30:32Z</time>
      </trkpt>
      <trkpt lat="45.68923" lon="6.73306">
        <ele>1573.4</ele>
        <time>2021-06-01T12:30:33Z</time>
      </trkpt>
      <trkpt lat="45.68909" lon="6.73308">
        <ele>1572.2</ele>
        <time>2021-06-01T12:30:34Z</time>
      </trkpt>
      <trkpt lat="45.68895" lon="6.7331">
        <ele>1570.2</ele>
        <time>2021-06-01T12:30:35Z</time>
      </trkpt>
      <trkpt lat="45.68881" lon="6.73308">
        <ele>1569.2</ele>
        <time>2021-06-01T12:30:36Z</time>
      </trkpt>
      <trkpt lat="45.68866" lon="6.73304">
        <ele>1567.8</ele>
        <time>2021-06-01T12:30:37Z</time>
      </trkpt>
      <trkpt lat="45.68852" lon="6.733">
        <ele>1566.6</ele>
        <time>2021-06-01T12:30:38Z</time>
      </trkpt>
      <trkpt lat="45.68838" lon="6.73294">
        <ele>1565.6</ele>
        <time>2021-06-01T12:30:39Z</time>
      </trkpt>
      <trkpt lat="45.68824" lon="6.73288">
        <ele>1564.4</ele>
        <time>2021-06-01T12:30:40Z</time>
      </trkpt>
      <trkpt lat="45.68809" lon="6.73284">
        <ele>1563.4</ele>
        <time>2021-06-01T12:30:41Z</time>
      </trkpt>
      <trkpt lat="45.68794" lon="6.73282">
        <ele>1562.4</ele>
        <time>2021-06-01T12:30:42Z</time>
      </trkpt>
      <trkpt lat="45.68779" lon="6.73283">
        <ele>1560.4</ele>
        <time>2021-06-01T12:30:43Z</time>
      </trkpt>
      <trkpt lat="45.68764" lon="6.73285">
        <ele>1559.4</ele>
        <time>2021-06-01T12:30:44Z</time>
      </trkpt>
      <trkpt lat="45.68749" lon="6.73288">
        <ele>1557.6</ele>
        <time>2021-06-01T12:30:45Z</time>
      </trkpt>
      <trkpt lat="45.68734" lon="6.73292">
        <ele>1555.6</ele>
        <time>2021-06-01T12:30:46Z</time>
      </trkpt>
      <trkpt lat="45.6872" lon="6.73296">
        <ele>1554.4</ele>
        <time>2021-06-01T12:30:47Z</time>
      </trkpt>
      <trkpt lat="45.68705" lon="6.733">
        <ele>1552.8</ele>
        <time>2021-06-01T12:30:48Z</time>
      </trkpt>
      <trkpt lat="45.68691" lon="6.73304">
        <ele>1551.2</ele>
        <time>2021-06-01T12:30:49Z</time>
      </trkpt>
      <trkpt lat="45.68676" lon="6.73308">
        <ele>1550.2</ele>
        <time>2021-06-01T12:30:50Z</time>
      </trkpt>
      <trkpt lat="45.68662" lon="6.73312">
        <ele>1549</ele>
        <time>2021-06-01T12:30:51Z</time>
      </trkpt>
      <trkpt lat="45.68648" lon="6.73317">
        <ele>1547.8</ele>
        <time>2021-06-01T12:30:52Z</time>
      </trkpt>
      <trkpt lat="45.68635" lon="6.73323">
        <ele>1546</ele>
        <time>2021-06-01T12:30:53Z</time>
      </trkpt>
      <trkpt lat="45.68622" lon="6.73332">
        <ele>1545.6</ele>
        <time>2021-06-01T12:30:54Z</time>
      </trkpt>
      <trkpt lat="45.6861" lon="6.73343">
        <ele>1544.8</ele>
        <time>2021-06-01T12:30:55Z</time>
      </trkpt>
      <trkpt lat="45.686" lon="6.73356">
        <ele>1543.6</ele>
        <time>2021-06-01T12:30:56Z</time>
      </trkpt>
      <trkpt lat="45.68591" lon="6.73372">
        <ele>1542.2</ele>
        <time>2021-06-01T12:30:57Z</time>
      </trkpt>
      <trkpt lat="45.68585" lon="6.73389">
        <ele>1541.8</ele>
        <time>2021-06-01T12:30:58Z</time>
      </trkpt>
      <trkpt lat="45.68581" lon="6.73408">
        <ele>1541.6</ele>
        <time>2021-06-01T12:30:59Z</time>
      </trkpt>
      <trkpt lat="45.68579" lon="6.73428">
        <ele>1540.8</ele>
        <time>2021-06-01T12:31:00Z</time>
      </trkpt>
      <trkpt lat="45.68578" lon="6.73448">
        <ele>1539.8</ele>
        <time>2021-06-01T12:31:01Z</time>
      </trkpt>
      <trkpt lat="45.68579" lon="6.73467">
        <ele>1538.8</ele>
        <time>2021-06-01T12:31:02Z</time>
      </trkpt>
      <trkpt lat="45.68579" lon="6.73486">
        <ele>1537</ele>
        <time>2021-06-01T12:31:03Z</time>
      </trkpt>
      <trkpt lat="45.68578" lon="6.73506">
        <ele>1536.4</ele>
        <time>2021-06-01T12:31:04Z</time>
      </trkpt>
      <trkpt lat="45.68577" lon="6.73524">
        <ele>1535.8</ele>
        <time>2021-06-01T12:31:05Z</time>
      </trkpt>
      <trkpt lat="45.68574" lon="6.73542">
        <ele>1535.6</ele>
        <time>2021-06-01T12:31:06Z</time>
      </trkpt>
      <trkpt lat="45.68569" lon="6.7356">
        <ele>1534.6</ele>
        <time>2021-06-01T12:31:07Z</time>
      </trkpt>
      <trkpt lat="45.68564" lon="6.73576">
        <ele>1534</ele>
        <time>2021-06-01T12:31:08Z</time>
      </trkpt>
      <trkpt lat="45.68557" lon="6.73592">
        <ele>1534</ele>
        <time>2021-06-01T12:31:09Z</time>
      </trkpt>
      <trkpt lat="45.6855" lon="6.73608">
        <ele>1532.8</ele>
        <time>2021-06-01T12:31:10Z</time>
      </trkpt>
      <trkpt lat="45.68543" lon="6.73622">
        <ele>1531.8</ele>
        <time>2021-06-01T12:31:11Z</time>
      </trkpt>
      <trkpt lat="45.68536" lon="6.73636">
        <ele>1530.8</ele>
        <time>2021-06-01T12:31:12Z</time>
      </trkpt>
      <trkpt lat="45.68528" lon="6.73649">
        <ele>1530</ele>
        <time>2021-06-01T12:31:13Z</time>
      </trkpt>
      <trkpt lat="45.6852" lon="6.73662">
        <ele>1529.4</ele>
        <time>2021-06-01T12:31:14Z</time>
      </trkpt>
      <trkpt lat="45.68511" lon="6.73675">
        <ele>1529.4</ele>
        <time>2021-06-01T12:31:15Z</time>
      </trkpt>
      <trkpt lat="45.68502" lon="6.73686">
        <ele>1529</ele>
        <time>2021-06-01T12:31:16Z</time>
      </trkpt>
      <trkpt lat="45.68492" lon="6.73696">
        <ele>1528.6</ele>
        <time>2021-06-01T12:31:17Z</time>
      </trkpt>
      <trkpt lat="45.68483" lon="6.73705">
        <ele>1528.2</ele>
        <time>2021-06-01T12:31:18Z</time>
      </trkpt>
      <trkpt lat="45.68473" lon="6.73713">
        <ele>1527.4</ele>
        <time>2021-06-01T12:31:19Z</time>
      </trkpt>
      <trkpt lat="45.68462" lon="6.7372">
        <ele>1527</ele>
        <time>2021-06-01T12:31:20Z</time>
      </trkpt>
      <trkpt lat="45.68452" lon="6.73726">
        <ele>1526.2</ele>
        <time>2021-06-01T12:31:21Z</time>
      </trkpt>
      <trkpt lat="45.68442" lon="6.7373">
        <ele>1525.6</ele>
        <time>2021-06-01T12:31:22Z</time>
      </trkpt>
      <trkpt lat="45.68431" lon="6.73734">
        <ele>1525</ele>
        <time>2021-06-01T12:31:23Z</time>
      </trkpt>
      <trkpt lat="45.6842" lon="6.73738">
        <ele>1524.2</ele>
        <time>2021-06-01T12:31:24Z</time>
      </trkpt>
      <trkpt lat="45.68409" lon="6.73741">
        <ele>1524.2</ele>
        <time>2021-06-01T12:31:25Z</time>
      </trkpt>
      <trkpt lat="45.68399" lon="6.73744">
        <ele>1523.8</ele>
        <time>2021-06-01T12:31:26Z</time>
      </trkpt>
      <trkpt lat="45.68388" lon="6.73747">
        <ele>1523.6</ele>
        <time>2021-06-01T12:31:27Z</time>
      </trkpt>
      <trkpt lat="45.68377" lon="6.7375">
        <ele>1523.2</ele>
        <time>2021-06-01T12:31:28Z</time>
      </trkpt>
      <trkpt lat="45.68367" lon="6.73752">
        <ele>1522.8</ele>
        <time>2021-06-01T12:31:29Z</time>
      </trkpt>
      <trkpt lat="45.68356" lon="6.73755">
        <ele>1522.8</ele>
        <time>2021-06-01T12:31:30Z</time>
      </trkpt>
      <trkpt lat="45.68345" lon="6.73758">
        <ele>1522.4</ele>
        <time>2021-06-01T12:31:31Z</time>
      </trkpt>
      <trkpt lat="45.68335" lon="6.73762">
        <ele>1522.2</ele>
        <time>2021-06-01T12:31:32Z</time>
      </trkpt>
      <trkpt lat="45.68325" lon="6.73766">
        <ele>1522.2</ele>
        <time>2021-06-01T12:31:33Z</time>
      </trkpt>
      <trkpt lat="45.68315" lon="6.73772">
        <ele>1521.8</ele>
        <time>2021-06-01T12:31:34Z</time>
      </trkpt>
      <trkpt lat="45.68306" lon="6.7378">
        <ele>1521.6</ele>
        <time>2021-06-01T12:31:35Z</time>
      </trkpt>
      <trkpt lat="45.68297" lon="6.73788">
        <ele>1521.4</ele>
        <time>2021-06-01T12:31:36Z</time>
      </trkpt>
      <trkpt lat="45.6829" lon="6.73798">
        <ele>1521.4</ele>
        <time>2021-06-01T12:31:37Z</time>
      </trkpt>
      <trkpt lat="45.68282" lon="6.73808">
        <ele>1521</ele>
        <time>2021-06-01T12:31:38Z</time>
      </trkpt>
      <trkpt lat="45.68276" lon="6.73819">
        <ele>1521.2</ele>
        <time>2021-06-01T12:31:39Z</time>
      </trkpt>
      <trkpt lat="45.68269" lon="6.7383">
        <ele>1521.2</ele>
        <time>2021-06-01T12:31:40Z</time>
      </trkpt>
      <trkpt lat="45.68263" lon="6.73842">
        <ele>1520.8</ele>
        <time>2021-06-01T12:31:41Z</time>
      </trkpt>
      <trkpt lat="45.68257" lon="6.73854">
        <ele>1520.6</ele>
        <time>2021-06-01T12:31:42Z</time>
      </trkpt>
      <trkpt lat="45.68251" lon="6.73865">
        <ele>1520.4</ele>
        <time>2021-06-01T12:31:43Z</time>
      </trkpt>
      <trkpt lat="45.68244" lon="6.73877">
        <ele>1520.2</ele>
        <time>2021-06-01T12:31:44Z</time>
      </trkpt>
      <trkpt lat="45.68238" lon="6.73889">
        <ele>1520</ele>
        <time>2021-06-01T12:31:45Z</time>
      </trkpt>
      <trkpt lat="45.68232" lon="6.73901">
        <ele>1520</ele>
        <time>2021-06-01T12:31:46Z</time>
      </trkpt>
      <trkpt lat="45.68225" lon="6.73913">
        <ele>1519.8</ele>
        <time>2021-06-01T12:31:47Z</time>
      </trkpt>
      <trkpt lat="45.68218" lon="6.73926">
        <ele>1519.4</ele>
        <time>2021-06-01T12:31:48Z</time>
      </trkpt>
      <trkpt lat="45.6821" lon="6.73937">
        <ele>1519.4</ele>
        <time>2021-06-01T12:31:49Z</time>
      </trkpt>
      <trkpt lat="45.68202" lon="6.73946">
        <ele>1518.8</ele>
        <time>2021-06-01T12:31:50Z</time>
      </trkpt>
      <trkpt lat="45.68192" lon="6.73955">
        <ele>1518.2</ele>
        <time>2021-06-01T12:31:51Z</time>
      </trkpt>
      <trkpt lat="45.68181" lon="6.73961">
        <ele>1518</ele>
        <time>2021-06-01T12:31:52Z</time>
      </trkpt>
      <trkpt lat="45.68171" lon="6.73967">
        <ele>1517.6</ele>
        <time>2021-06-01T12:31:53Z</time>
      </trkpt>
      <trkpt lat="45.68159" lon="6.73972">
        <ele>1517</ele>
        <time>2021-06-01T12:31:54Z</time>
      </trkpt>
      <trkpt lat="45.68148" lon="6.73978">
        <ele>1516.2</ele>
        <time>2021-06-01T12:31:55Z</time>
      </trkpt>
      <trkpt lat="45.68136" lon="6.73984">
        <ele>1515.6</ele>
        <time>2021-06-01T12:31:56Z</time>
      </trkpt>
      <trkpt lat="45.68125" lon="6.73991">
        <ele>1515.4</ele>
        <time>2021-06-01T12:31:57Z</time>
      </trkpt>
      <trkpt lat="45.68115" lon="6.74">
        <ele>1514.8</ele>
        <time>2021-06-01T12:31:58Z</time>
      </trkpt>
      <trkpt lat="45.68104" lon="6.74011">
        <ele>1514.6</ele>
        <time>2021-06-01T12:31:59Z</time>
      </trkpt>
      <trkpt lat="45.68093" lon="6.74022">
        <ele>1514</ele>
        <time>2021-06-01T12:32:00Z</time>
      </trkpt>
      <trkpt lat="45.68083" lon="6.74033">
        <ele>1513.8</ele>
        <time>2021-06-01T12:32:01Z</time>
      </trkpt>
      <trkpt lat="45.68073" lon="6.74044">
        <ele>1513.6</ele>
        <time>2021-06-01T12:32:02Z</time>
      </trkpt>
      <trkpt lat="45.68063" lon="6.74055">
        <ele>1513.8</ele>
        <time>2021-06-01T12:32:03Z</time>
      </trkpt>
      <trkpt lat="45.68052" lon="6.74066">
        <ele>1513.2</ele>
        <time>2021-06-01T12:32:04Z</time>
      </trkpt>
      <trkpt lat="45.6804" lon="6.74077">
        <ele>1512.4</ele>
        <time>2021-06-01T12:32:05Z</time>
      </trkpt>
      <trkpt lat="45.68029" lon="6.74088">
        <ele>1511.8</ele>
        <time>2021-06-01T12:32:06Z</time>
      </trkpt>
      <trkpt lat="45.68018" lon="6.74101">
        <ele>1511</ele>
        <time>2021-06-01T12:32:07Z</time>
      </trkpt>
      <trkpt lat="45.68006" lon="6.74114">
        <ele>1510.6</ele>
        <time>2021-06-01T12:32:08Z</time>
      </trkpt>
      <trkpt lat="45.67996" lon="6.74127">
        <ele>1510.2</ele>
        <time>2021-06-01T12:32:09Z</time>
      </trkpt>
      <trkpt lat="45.67984" lon="6.7414">
        <ele>1509</ele>
        <time>2021-06-01T12:32:10Z</time>
      </trkpt>
      <trkpt lat="45.67973" lon="6.74154">
        <ele>1507.6</ele>
        <time>2021-06-01T12:32:11Z</time>
      </trkpt>
      <trkpt lat="45.67962" lon="6.74168">
        <ele>1506.4</ele>
        <time>2021-06-01T12:32:12Z</time>
      </trkpt>
      <trkpt lat="45.67951" lon="6.74182">
        <ele>1505.4</ele>
        <time>2021-06-01T12:32:13Z</time>
      </trkpt>
      <trkpt lat="45.6794" lon="6.74196">
        <ele>1504.4</ele>
        <time>2021-06-01T12:32:14Z</time>
      </trkpt>
      <trkpt lat="45.67928" lon="6.7421">
        <ele>1503.8</ele>
        <time>2021-06-01T12:32:15Z</time>
      </trkpt>
      <trkpt lat="45.67916" lon="6.74224">
        <ele>1503.4</ele>
        <time>2021-06-01T12:32:16Z</time>
      </trkpt>
      <trkpt lat="45.67905" lon="6.74238">
        <ele>1502.2</ele>
        <time>2021-06-01T12:32:17Z</time>
      </trkpt>
      <trkpt lat="45.67894" lon="6.74251">
        <ele>1501.6</ele>
        <time>2021-06-01T12:32:18Z</time>
      </trkpt>
      <trkpt lat="45.67882" lon="6.74265">
        <ele>1501</ele>
        <time>2021-06-01T12:32:19Z</time>
      </trkpt>
      <trkpt lat="45.67869" lon="6.74279">
        <ele>1500.4</ele>
        <time>2021-06-01T12:32:20Z</time>
      </trkpt>
      <trkpt lat="45.67858" lon="6.74293">
        <ele>1499.4</ele>
        <time>2021-06-01T12:32:21Z</time>
      </trkpt>
      <trkpt lat="45.67847" lon="6.74308">
        <ele>1498.8</ele>
        <time>2021-06-01T12:32:22Z</time>
      </trkpt>
      <trkpt lat="45.67836" lon="6.74324">
        <ele>1498.4</ele>
        <time>2021-06-01T12:32:23Z</time>
      </trkpt>
      <trkpt lat="45.67826" lon="6.74342">
        <ele>1497.8</ele>
        <time>2021-06-01T12:32:24Z</time>
      </trkpt>
      <trkpt lat="45.67817" lon="6.7436">
        <ele>1497.6</ele>
        <time>2021-06-01T12:32:25Z</time>
      </trkpt>
      <trkpt lat="45.67808" lon="6.74378">
        <ele>1496.6</ele>
        <time>2021-06-01T12:32:26Z</time>
      </trkpt>
      <trkpt lat="45.678" lon="6.74398">
        <ele>1496.2</ele>
        <time>2021-06-01T12:32:27Z</time>
      </trkpt>
      <trkpt lat="45.67793" lon="6.74418">
        <ele>1495.6</ele>
        <time>2021-06-01T12:32:28Z</time>
      </trkpt>
      <trkpt lat="45.67785" lon="6.74438">
        <ele>1495</ele>
        <time>2021-06-01T12:32:29Z</time>
      </trkpt>
      <trkpt lat="45.67778" lon="6.74458">
        <ele>1494.4</ele>
        <time>2021-06-01T12:32:30Z</time>
      </trkpt>
      <trkpt lat="45.6777" lon="6.74479">
        <ele>1494</ele>
        <time>2021-06-01T12:32:31Z</time>
      </trkpt>
      <trkpt lat="45.67763" lon="6.74499">
        <ele>1493</ele>
        <time>2021-06-01T12:32:32Z</time>
      </trkpt>
      <trkpt lat="45.67756" lon="6.74519">
        <ele>1493.2</ele>
        <time>2021-06-01T12:32:33Z</time>
      </trkpt>
      <trkpt lat="45.67749" lon="6.74539">
        <ele>1492.8</ele>
        <time>2021-06-01T12:32:34Z</time>
      </trkpt>
      <trkpt lat="45.67741" lon="6.74558">
        <ele>1490.8</ele>
        <time>2021-06-01T12:32:35Z</time>
      </trkpt>
      <trkpt lat="45.67734" lon="6.74578">
        <ele>1489.4</ele>
        <time>2021-06-01T12:32:36Z</time>
      </trkpt>
      <trkpt lat="45.67726" lon="6.74598">
        <ele>1488.2</ele>
        <time>2021-06-01T12:32:37Z</time>
      </trkpt>
      <trkpt lat="45.67718" lon="6.74617">
        <ele>1487.4</ele>
        <time>2021-06-01T12:32:38Z</time>
      </trkpt>
      <trkpt lat="45.67709" lon="6.74634">
        <ele>1486.4</ele>
        <time>2021-06-01T12:32:39Z</time>
      </trkpt>
      <trkpt lat="45.67699" lon="6.7465">
        <ele>1485.8</ele>
        <time>2021-06-01T12:32:40Z</time>
      </trkpt>
      <trkpt lat="45.67687" lon="6.74664">
        <ele>1485.2</ele>
        <time>2021-06-01T12:32:41Z</time>
      </trkpt>
      <trkpt lat="45.67675" lon="6.74677">
        <ele>1484.2</ele>
        <time>2021-06-01T12:32:42Z</time>
      </trkpt>
      <trkpt lat="45.67661" lon="6.74688">
        <ele>1483.6</ele>
        <time>2021-06-01T12:32:43Z</time>
      </trkpt>
      <trkpt lat="45.67648" lon="6.74697">
        <ele>1483</ele>
        <time>2021-06-01T12:32:44Z</time>
      </trkpt>
      <trkpt lat="45.67635" lon="6.74707">
        <ele>1482</ele>
        <time>2021-06-01T12:32:45Z</time>
      </trkpt>
      <trkpt lat="45.67624" lon="6.74719">
        <ele>1481</ele>
        <time>2021-06-01T12:32:46Z</time>
      </trkpt>
      <trkpt lat="45.67614" lon="6.74733">
        <ele>1480.2</ele>
        <time>2021-06-01T12:32:47Z</time>
      </trkpt>
      <trkpt lat="45.67605" lon="6.74749">
        <ele>1479.4</ele>
        <time>2021-06-01T12:32:48Z</time>
      </trkpt>
      <trkpt lat="45.67598" lon="6.74766">
        <ele>1479.2</ele>
        <time>2021-06-01T12:32:49Z</time>
      </trkpt>
      <trkpt lat="45.67591" lon="6.74784">
        <ele>1478.2</ele>
        <time>2021-06-01T12:32:50Z</time>
      </trkpt>
      <trkpt lat="45.67585" lon="6.748">
        <ele>1477.4</ele>
        <time>2021-06-01T12:32:51Z</time>
      </trkpt>
      <trkpt lat="45.67578" lon="6.74816">
        <ele>1476.4</ele>
        <time>2021-06-01T12:32:52Z</time>
      </trkpt>
      <trkpt lat="45.67572" lon="6.74832">
        <ele>1475.6</ele>
        <time>2021-06-01T12:32:53Z</time>
      </trkpt>
      <trkpt lat="45.67566" lon="6.74848">
        <ele>1474.8</ele>
        <time>2021-06-01T12:32:54Z</time>
      </trkpt>
      <trkpt lat="45.67562" lon="6.74866">
        <ele>1474.4</ele>
        <time>2021-06-01T12:32:55Z</time>
      </trkpt>
      <trkpt lat="45.6756" lon="6.74884">
        <ele>1473.6</ele>
        <time>2021-06-01T12:32:56Z</time>
      </trkpt>
      <trkpt lat="45.67559" lon="6.74902">
        <ele>1473.2</ele>
        <time>2021-06-01T12:32:57Z</time>
      </trkpt>
      <trkpt lat="45.67557" lon="6.7492">
        <ele>1473</ele>
        <time>2021-06-01T12:32:58Z</time>
      </trkpt>
      <trkpt lat="45.67555" lon="6.74938">
        <ele>1472.2</ele>
        <time>2021-06-01T12:32:59Z</time>
      </trkpt>
      <trkpt lat="45.67552" lon="6.74955">
        <ele>1471.8</ele>
        <time>2021-06-01T12:33:00Z</time>
      </trkpt>
      <trkpt lat="45.67548" lon="6.74972">
        <ele>1471.2</ele>
        <time>2021-06-01T12:33:01Z</time>
      </trkpt>
      <trkpt lat="45.67542" lon="6.74988">
        <ele>1470.6</ele>
        <time>2021-06-01T12:33:02Z</time>
      </trkpt>
      <trkpt lat="45.67535" lon="6.75003">
        <ele>1470</ele>
        <time>2021-06-01T12:33:03Z</time>
      </trkpt>
      <trkpt lat="45.67527" lon="6.75016">
        <ele>1469.6</ele>
        <time>2021-06-01T12:33:04Z</time>
      </trkpt>
      <trkpt lat="45.67519" lon="6.75029">
        <ele>1469.4</ele>
        <time>2021-06-01T12:33:05Z</time>
      </trkpt>
      <trkpt lat="45.6751" lon="6.7504">
        <ele>1468.8</ele>
        <time>2021-06-01T12:33:06Z</time>
      </trkpt>
      <trkpt lat="45.67501" lon="6.7505">
        <ele>1468.4</ele>
        <time>2021-06-01T12:33:07Z</time>
      </trkpt>
      <trkpt lat="45.67492" lon="6.7506">
        <ele>1468.2</ele>
        <time>2021-06-01T12:33:08Z</time>
      </trkpt>
      <trkpt lat="45.67482" lon="6.7507">
        <ele>1468</ele>
        <time>2021-06-01T12:33:09Z</time>
      </trkpt>
      <trkpt lat="45.67473" lon="6.7508">
        <ele>1468</ele>
        <time>2021-06-01T12:33:10Z</time>
      </trkpt>
      <trkpt lat="45.67465" lon="6.75091">
        <ele>1467.6</ele>
        <time>2021-06-01T12:33:11Z</time>
      </trkpt>
      <trkpt lat="45.67456" lon="6.75103">
        <ele>1467.4</ele>
        <time>2021-06-01T12:33:12Z</time>
      </trkpt>
      <trkpt lat="45.67449" lon="6.75114">
        <ele>1467.4</ele>
        <time>2021-06-01T12:33:13Z</time>
      </trkpt>
      <trkpt lat="45.67441" lon="6.75126">
        <ele>1467.2</ele>
        <time>2021-06-01T12:33:14Z</time>
      </trkpt>
      <trkpt lat="45.67433" lon="6.75137">
        <ele>1467</ele>
        <time>2021-06-01T12:33:15Z</time>
      </trkpt>
      <trkpt lat="45.67425" lon="6.7515">
        <ele>1466.8</ele>
        <time>2021-06-01T12:33:16Z</time>
      </trkpt>
      <trkpt lat="45.67419" lon="6.75163">
        <ele>1466.6</ele>
        <time>2021-06-01T12:33:17Z</time>
      </trkpt>
      <trkpt lat="45.67414" lon="6.75177">
        <ele>1466.6</ele>
        <time>2021-06-01T12:33:18Z</time>
      </trkpt>
      <trkpt lat="45.6741" lon="6.75193">
        <ele>1466.8</ele>
        <time>2021-06-01T12:33:19Z</time>
      </trkpt>
      <trkpt lat="45.67408" lon="6.75209">
        <ele>1466.8</ele>
        <time>2021-06-01T12:33:20Z</time>
      </trkpt>
      <trkpt lat="45.67407" lon="6.75225">
        <ele>1467</ele>
        <time>2021-06-01T12:33:21Z</time>
      </trkpt>
      <trkpt lat="45.67407" lon="6.75241">
        <ele>1466.6</ele>
        <time>2021-06-01T12:33:22Z</time>
      </trkpt>
      <trkpt lat="45.67406" lon="6.75257">
        <ele>1466.4</ele>
        <time>2021-06-01T12:33:23Z</time>
      </trkpt>
      <trkpt lat="45.67407" lon="6.75273">
        <ele>1466.6</ele>
        <time>2021-06-01T12:33:24Z</time>
      </trkpt>
      <trkpt lat="45.67408" lon="6.7529">
        <ele>1466.4</ele>
        <time>2021-06-01T12:33:25Z</time>
      </trkpt>
      <trkpt lat="45.6741" lon="6.75306">
        <ele>1466.4</ele>
        <time>2021-06-01T12:33:26Z</time>
      </trkpt>
      <trkpt lat="45.67412" lon="6.75322">
        <ele>1466.4</ele>
        <time>2021-06-01T12:33:27Z</time>
      </trkpt>
      <trkpt lat="45.67412" lon="6.75337">
        <ele>1466.2</ele>
        <time>2021-06-01T12:33:28Z</time>
      </trkpt>
      <trkpt lat="45.67413" lon="6.75353">
        <ele>1465.8</ele>
        <time>2021-06-01T12:33:29Z</time>
      </trkpt>
      <trkpt lat="45.67412" lon="6.75368">
        <ele>1466.4</ele>
        <time>2021-06-01T12:33:30Z</time>
      </trkpt>
      <trkpt lat="45.67409" lon="6.75383">
        <ele>1466</ele>
        <time>2021-06-01T12:33:31Z</time>
      </trkpt>
      <trkpt lat="45.67405" lon="6.75398">
        <ele>1466</ele>
        <time>2021-06-01T12:33:32Z</time>
      </trkpt>
      <trkpt lat="45.67401" lon="6.75411">
        <ele>1466.2</ele>
        <time>2021-06-01T12:33:33Z</time>
      </trkpt>
      <trkpt lat="45.67396" lon="6.75425">
        <ele>1466</ele>
        <time>2021-06-01T12:33:34Z</time>
      </trkpt>
      <trkpt lat="45.67391" lon="6.75438">
        <ele>1466</ele>
        <time>2021-06-01T12:33:35Z</time>
      </trkpt>
      <trkpt lat="45.67386" lon="6.75451">
        <ele>1466</ele>
        <time>2021-06-01T12:33:36Z</time>
      </trkpt>
      <trkpt lat="45.6738" lon="6.75463">
        <ele>1466</ele>
        <time>2021-06-01T12:33:37Z</time>
      </trkpt>
      <trkpt lat="45.67373" lon="6.75474">
        <ele>1465.8</ele>
        <time>2021-06-01T12:33:38Z</time>
      </trkpt>
      <trkpt lat="45.67366" lon="6.75484">
        <ele>1465.6</ele>
        <time>2021-06-01T12:33:39Z</time>
      </trkpt>
      <trkpt lat="45.67358" lon="6.75494">
        <ele>1465.6</ele>
        <time>2021-06-01T12:33:40Z</time>
      </trkpt>
      <trkpt lat="45.6735" lon="6.75503">
        <ele>1465.4</ele>
        <time>2021-06-01T12:33:41Z</time>
      </trkpt>
      <trkpt lat="45.67342" lon="6.75512">
        <ele>1465</ele>
        <time>2021-06-01T12:33:42Z</time>
      </trkpt>
      <trkpt lat="45.67335" lon="6.75522">
        <ele>1464.8</ele>
        <time>2021-06-01T12:33:43Z</time>
      </trkpt>
      <trkpt lat="45.67328" lon="6.75533">
        <ele>1464.2</ele>
        <time>2021-06-01T12:33:44Z</time>
      </trkpt>
      <trkpt lat="45.67322" lon="6.75544">
        <ele>1464.2</ele>
        <time>2021-06-01T12:33:45Z</time>
      </trkpt>
      <trkpt lat="45.67317" lon="6.75557">
        <ele>1464</ele>
        <time>2021-06-01T12:33:46Z</time>
      </trkpt>
      <trkpt lat="45.67312" lon="6.7557">
        <ele>1464</ele>
        <time>2021-06-01T12:33:47Z</time>
      </trkpt>
      <trkpt lat="45.67308" lon="6.75583">
        <ele>1464</ele>
        <time>2021-06-01T12:33:48Z</time>
      </trkpt>
      <trkpt lat="45.67305" lon="6.75597">
        <ele>1463.6</ele>
        <time>2021-06-01T12:33:49Z</time>
      </trkpt>
      <trkpt lat="45.67301" lon="6.7561">
        <ele>1463.4</ele>
        <time>2021-06-01T12:33:50Z</time>
      </trkpt>
      <trkpt lat="45.67298" lon="6.75623">
        <ele>1463.8</ele>
        <time>2021-06-01T12:33:51Z</time>
      </trkpt>
      <trkpt lat="45.67293" lon="6.75635">
        <ele>1463.6</ele>
        <time>2021-06-01T12:33:52Z</time>
      </trkpt>
      <trkpt lat="45.67287" lon="6.75647">
        <ele>1463.4</ele>
        <time>2021-06-01T12:33:53Z</time>
      </trkpt>
      <trkpt lat="45.67281" lon="6.75656">
        <ele>1463.2</ele>
        <time>2021-06-01T12:33:54Z</time>
      </trkpt>
      <trkpt lat="45.67273" lon="6.75665">
        <ele>1462.6</ele>
        <time>2021-06-01T12:33:55Z</time>
      </trkpt>
      <trkpt lat="45.67265" lon="6.75674">
        <ele>1462.2</ele>
        <time>2021-06-01T12:33:56Z</time>
      </trkpt>
      <trkpt lat="45.67259" lon="6.75683">
        <ele>1462</ele>
        <time>2021-06-01T12:33:57Z</time>
      </trkpt>
      <trkpt lat="45.67251" lon="6.75693">
        <ele>1462</ele>
        <time>2021-06-01T12:33:58Z</time>
      </trkpt>
      <trkpt lat="45.67245" lon="6.75704">
        <ele>1461.6</ele>
        <time>2021-06-01T12:33:59Z</time>
      </trkpt>
      <trkpt lat="45.67239" lon="6.75714">
        <ele>1461.6</ele>
        <time>2021-06-01T12:34:00Z</time>
      </trkpt>
      <trkpt lat="45.67231" lon="6.75723">
        <ele>1461.6</ele>
        <time>2021-06-01T12:34:01Z</time>
      </trkpt>
      <trkpt lat="45.67224" lon="6.75731">
        <ele>1461.4</ele>
        <time>2021-06-01T12:34:02Z</time>
      </trkpt>
      <trkpt lat="45.67215" lon="6.75737">
        <ele>1461.6</ele>
        <time>2021-06-01T12:34:03Z</time>
      </trkpt>
      <trkpt lat="45.67206" lon="6.75741">
        <ele>1461.6</ele>
        <time>2021-06-01T12:34:04Z</time>
      </trkpt>
      <trkpt lat="45.67197" lon="6.75745">
        <ele>1461.6</ele>
        <time>2021-06-01T12:34:05Z</time>
      </trkpt>
      <trkpt lat="45.67188" lon="6.7575">
        <ele>1461.6</ele>
        <time>2021-06-01T12:34:06Z</time>
      </trkpt>
      <trkpt lat="45.6718" lon="6.75754">
        <ele>1461.4</ele>
        <time>2021-06-01T12:34:07Z</time>
      </trkpt>
      <trkpt lat="45.6717" lon="6.75756">
        <ele>1461.2</ele>
        <time>2021-06-01T12:34:08Z</time>
      </trkpt>
      <trkpt lat="45.67162" lon="6.75757">
        <ele>1461</ele>
        <time>2021-06-01T12:34:09Z</time>
      </trkpt>
      <trkpt lat="45.67153" lon="6.75755">
        <ele>1461</ele>
        <time>2021-06-01T12:34:10Z</time>
      </trkpt>
      <trkpt lat="45.67144" lon="6.75752">
        <ele>1460.8</ele>
        <time>2021-06-01T12:34:11Z</time>
      </trkpt>
      <trkpt lat="45.67136" lon="6.7575">
        <ele>1460.6</ele>
        <time>2021-06-01T12:34:12Z</time>
      </trkpt>
      <trkpt lat="45.67128" lon="6.75749">
        <ele>1460.4</ele>
        <time>2021-06-01T12:34:13Z</time>
      </trkpt>
      <trkpt lat="45.6712" lon="6.75752">
        <ele>1460.4</ele>
        <time>2021-06-01T12:34:14Z</time>
      </trkpt>
      <trkpt lat="45.67114" lon="6.75758">
        <ele>1460.2</ele>
        <time>2021-06-01T12:34:15Z</time>
      </trkpt>
      <trkpt lat="45.67108" lon="6.75765">
        <ele>1460.2</ele>
        <time>2021-06-01T12:34:16Z</time>
      </trkpt>
      <trkpt lat="45.67103" lon="6.75774">
        <ele>1460.2</ele>
        <time>2021-06-01T12:34:17Z</time>
      </trkpt>
      <trkpt lat="45.67098" lon="6.75783">
        <ele>1460</ele>
        <time>2021-06-01T12:34:18Z</time>
      </trkpt>
      <trkpt lat="45.67093" lon="6.75793">
        <ele>1459.8</ele>
        <time>2021-06-01T12:34:19Z</time>
      </trkpt>
      <trkpt lat="45.67089" lon="6.75803">
        <ele>1459.8</ele>
        <time>2021-06-01T12:34:20Z</time>
      </trkpt>
      <trkpt lat="45.67085" lon="6.75814">
        <ele>1459.8</ele>
        <time>2021-06-01T12:34:21Z</time>
      </trkpt>
      <trkpt lat="45.6708" lon="6.75824">
        <ele>1459.8</ele>
        <time>2021-06-01T12:34:22Z</time>
      </trkpt>
      <trkpt lat="45.67076" lon="6.75834">
        <ele>1459.8</ele>
        <time>2021-06-01T12:34:23Z</time>
      </trkpt>
      <trkpt lat="45.67072" lon="6.75844">
        <ele>1459.8</ele>
        <time>2021-06-01T12:34:24Z</time>
      </trkpt>
      <trkpt lat="45.67067" lon="6.75854">
        <ele>1459.8</ele>
        <time>2021-06-01T12:34:25Z</time>
      </trkpt>
      <trkpt lat="45.67062" lon="6.75863">
        <ele>1459.8</ele>
        <time>2021-06-01T12:34:26Z</time>
      </trkpt>
      <trkpt lat="45.67057" lon="6.75872">
        <ele>1459.8</ele>
        <time>2021-06-01T12:34:27Z</time>
      </trkpt>
      <trkpt lat="45.67051" lon="6.7588">
        <ele>1459.8</ele>
        <time>2021-06-01T12:34:28Z</time>
      </trkpt>
      <trkpt lat="45.67047" lon="6.7589">
        <ele>1459.8</ele>
        <time>2021-06-01T12:34:29Z</time>
      </trkpt>
      <trkpt lat="45.67044" lon="6.759">
        <ele>1459.8</ele>
        <time>2021-06-01T12:34:30Z</time>
      </trkpt>
      <trkpt lat="45.67044" lon="6.75911">
        <ele>1459.6</ele>
        <time>2021-06-01T12:34:31Z</time>
      </trkpt>
      <trkpt lat="45.67048" lon="6.75921">
        <ele>1459</ele>
        <time>2021-06-01T12:34:32Z</time>
      </trkpt>
      <trkpt lat="45.67053" lon="6.75931">
        <ele>1458.6</ele>
        <time>2021-06-01T12:34:33Z</time>
      </trkpt>
      <trkpt lat="45.6706" lon="6.7594">
        <ele>1458.2</ele>
        <time>2021-06-01T12:34:34Z</time>
      </trkpt>
      <trkpt lat="45.67067" lon="6.75948">
        <ele>1457.8</ele>
        <time>2021-06-01T12:34:35Z</time>
      </trkpt>
      <trkpt lat="45.67075" lon="6.75956">
        <ele>1457.2</ele>
        <time>2021-06-01T12:34:36Z</time>
      </trkpt>
      <trkpt lat="45.67083" lon="6.75965">
        <ele>1456.4</ele>
        <time>2021-06-01T12:34:37Z</time>
      </trkpt>
      <trkpt lat="45.67091" lon="6.75974">
        <ele>1456</ele>
        <time>2021-06-01T12:34:38Z</time>
      </trkpt>
      <trkpt lat="45.67097" lon="6.75985">
        <ele>1455.6</ele>
        <time>2021-06-01T12:34:39Z</time>
      </trkpt>
      <trkpt lat="45.67102" lon="6.75998">
        <ele>1454.6</ele>
        <time>2021-06-01T12:34:40Z</time>
      </trkpt>
      <trkpt lat="45.67105" lon="6.76011">
        <ele>1453.6</ele>
        <time>2021-06-01T12:34:41Z</time>
      </trkpt>
      <trkpt lat="45.67106" lon="6.76025">
        <ele>1452.4</ele>
        <time>2021-06-01T12:34:42Z</time>
      </trkpt>
      <trkpt lat="45.67107" lon="6.7604">
        <ele>1451.2</ele>
        <time>2021-06-01T12:34:43Z</time>
      </trkpt>
      <trkpt lat="45.6711" lon="6.76053">
        <ele>1450.2</ele>
        <time>2021-06-01T12:34:44Z</time>
      </trkpt>
      <trkpt lat="45.67115" lon="6.76067">
        <ele>1449.4</ele>
        <time>2021-06-01T12:34:45Z</time>
      </trkpt>
      <trkpt lat="45.67119" lon="6.76081">
        <ele>1448.2</ele>
        <time>2021-06-01T12:34:46Z</time>
      </trkpt>
      <trkpt lat="45.67124" lon="6.76096">
        <ele>1447.8</ele>
        <time>2021-06-01T12:34:47Z</time>
      </trkpt>
      <trkpt lat="45.67126" lon="6.76111">
        <ele>1446.6</ele>
        <time>2021-06-01T12:34:48Z</time>
      </trkpt>
      <trkpt lat="45.67126" lon="6.76129">
        <ele>1446.4</ele>
        <time>2021-06-01T12:34:49Z</time>
      </trkpt>
      <trkpt lat="45.67127" lon="6.76147">
        <ele>1445.2</ele>
        <time>2021-06-01T12:34:50Z</time>
      </trkpt>
      <trkpt lat="45.67128" lon="6.76165">
        <ele>1444.2</ele>
        <time>2021-06-01T12:34:51Z</time>
      </trkpt>
      <trkpt lat="45.67129" lon="6.76184">
        <ele>1443</ele>
        <time>2021-06-01T12:34:52Z</time>
      </trkpt>
      <trkpt lat="45.67129" lon="6.76203">
        <ele>1441.4</ele>
        <time>2021-06-01T12:34:53Z</time>
      </trkpt>
      <trkpt lat="45.67128" lon="6.76222">
        <ele>1440.2</ele>
        <time>2021-06-01T12:34:54Z</time>
      </trkpt>
      <trkpt lat="45.67127" lon="6.76241">
        <ele>1439</ele>
        <time>2021-06-01T12:34:55Z</time>
      </trkpt>
      <trkpt lat="45.67126" lon="6.76259">
        <ele>1437.6</ele>
        <time>2021-06-01T12:34:56Z</time>
      </trkpt>
      <trkpt lat="45.67124" lon="6.76278">
        <ele>1436.2</ele>
        <time>2021-06-01T12:34:57Z</time>
      </trkpt>
      <trkpt lat="45.67121" lon="6.76295">
        <ele>1435</ele>
        <time>2021-06-01T12:34:58Z</time>
      </trkpt>
      <trkpt lat="45.67117" lon="6.76312">
        <ele>1433.6</ele>
        <time>2021-06-01T12:34:59Z</time>
      </trkpt>
      <trkpt lat="45.67113" lon="6.76328">
        <ele>1432</ele>
        <time>2021-06-01T12:35:00Z</time>
      </trkpt>
      <trkpt lat="45.6711" lon="6.76343">
        <ele>1430.4</ele>
        <time>2021-06-01T12:35:01Z</time>
      </trkpt>
      <trkpt lat="45.67108" lon="6.76358">
        <ele>1429.2</ele>
        <time>2021-06-01T12:35:02Z</time>
      </trkpt>
      <trkpt lat="45.67108" lon="6.76373">
        <ele>1428.4</ele>
        <time>2021-06-01T12:35:03Z</time>
      </trkpt>
      <trkpt lat="45.6711" lon="6.76389">
        <ele>1427.4</ele>
        <time>2021-06-01T12:35:04Z</time>
      </trkpt>
      <trkpt lat="45.67113" lon="6.76405">
        <ele>1426.2</ele>
        <time>2021-06-01T12:35:05Z</time>
      </trkpt>
      <trkpt lat="45.67114" lon="6.76422">
        <ele>1425</ele>
        <time>2021-06-01T12:35:06Z</time>
      </trkpt>
      <trkpt lat="45.67116" lon="6.76439">
        <ele>1424.2</ele>
        <time>2021-06-01T12:35:07Z</time>
      </trkpt>
      <trkpt lat="45.6712" lon="6.76455">
        <ele>1423.2</ele>
        <time>2021-06-01T12:35:08Z</time>
      </trkpt>
      <trkpt lat="45.67123" lon="6.76471">
        <ele>1422.6</ele>
        <time>2021-06-01T12:35:09Z</time>
      </trkpt>
      <trkpt lat="45.67123" lon="6.76488">
        <ele>1422</ele>
        <time>2021-06-01T12:35:10Z</time>
      </trkpt>
      <trkpt lat="45.6712" lon="6.76503">
        <ele>1421</ele>
        <time>2021-06-01T12:35:11Z</time>
      </trkpt>
      <trkpt lat="45.67116" lon="6.76519">
        <ele>1420</ele>
        <time>2021-06-01T12:35:12Z</time>
      </trkpt>
      <trkpt lat="45.67112" lon="6.76535">
        <ele>1419.2</ele>
        <time>2021-06-01T12:35:13Z</time>
      </trkpt>
      <trkpt lat="45.6711" lon="6.76552">
        <ele>1418.4</ele>
        <time>2021-06-01T12:35:14Z</time>
      </trkpt>
      <trkpt lat="45.6711" lon="6.76569">
        <ele>1418</ele>
        <time>2021-06-01T12:35:15Z</time>
      </trkpt>
      <trkpt lat="45.6711" lon="6.76587">
        <ele>1417.2</ele>
        <time>2021-06-01T12:35:16Z</time>
      </trkpt>
      <trkpt lat="45.6711" lon="6.76606">
        <ele>1415.8</ele>
        <time>2021-06-01T12:35:17Z</time>
      </trkpt>
      <trkpt lat="45.6711" lon="6.76624">
        <ele>1414.4</ele>
        <time>2021-06-01T12:35:18Z</time>
      </trkpt>
      <trkpt lat="45.67109" lon="6.76642">
        <ele>1413</ele>
        <time>2021-06-01T12:35:19Z</time>
      </trkpt>
      <trkpt lat="45.67108" lon="6.76659">
        <ele>1412</ele>
        <time>2021-06-01T12:35:20Z</time>
      </trkpt>
      <trkpt lat="45.67106" lon="6.76676">
        <ele>1410.8</ele>
        <time>2021-06-01T12:35:21Z</time>
      </trkpt>
      <trkpt lat="45.67103" lon="6.76694">
        <ele>1409.6</ele>
        <time>2021-06-01T12:35:22Z</time>
      </trkpt>
      <trkpt lat="45.67101" lon="6.76711">
        <ele>1408.2</ele>
        <time>2021-06-01T12:35:23Z</time>
      </trkpt>
      <trkpt lat="45.67101" lon="6.76727">
        <ele>1407.6</ele>
        <time>2021-06-01T12:35:24Z</time>
      </trkpt>
      <trkpt lat="45.67102" lon="6.76743">
        <ele>1406.4</ele>
        <time>2021-06-01T12:35:25Z</time>
      </trkpt>
      <trkpt lat="45.67104" lon="6.76759">
        <ele>1405</ele>
        <time>2021-06-01T12:35:26Z</time>
      </trkpt>
      <trkpt lat="45.67105" lon="6.76774">
        <ele>1403.6</ele>
        <time>2021-06-01T12:35:27Z</time>
      </trkpt>
      <trkpt lat="45.67104" lon="6.76789">
        <ele>1402.4</ele>
        <time>2021-06-01T12:35:28Z</time>
      </trkpt>
      <trkpt lat="45.67101" lon="6.76804">
        <ele>1401.4</ele>
        <time>2021-06-01T12:35:29Z</time>
      </trkpt>
      <trkpt lat="45.67098" lon="6.76819">
        <ele>1400.2</ele>
        <time>2021-06-01T12:35:30Z</time>
      </trkpt>
      <trkpt lat="45.67094" lon="6.76836">
        <ele>1400.2</ele>
        <time>2021-06-01T12:35:31Z</time>
      </trkpt>
      <trkpt lat="45.67092" lon="6.76853">
        <ele>1399.2</ele>
        <time>2021-06-01T12:35:32Z</time>
      </trkpt>
      <trkpt lat="45.6709" lon="6.7687">
        <ele>1397.8</ele>
        <time>2021-06-01T12:35:33Z</time>
      </trkpt>
      <trkpt lat="45.67088" lon="6.76888">
        <ele>1396.8</ele>
        <time>2021-06-01T12:35:34Z</time>
      </trkpt>
      <trkpt lat="45.67084" lon="6.76905">
        <ele>1395.6</ele>
        <time>2021-06-01T12:35:35Z</time>
      </trkpt>
      <trkpt lat="45.67078" lon="6.76922">
        <ele>1394.6</ele>
        <time>2021-06-01T12:35:36Z</time>
      </trkpt>
      <trkpt lat="45.67071" lon="6.76938">
        <ele>1393.8</ele>
        <time>2021-06-01T12:35:37Z</time>
      </trkpt>
      <trkpt lat="45.67062" lon="6.76954">
        <ele>1392.4</ele>
        <time>2021-06-01T12:35:38Z</time>
      </trkpt>
      <trkpt lat="45.67054" lon="6.76968">
        <ele>1391.4</ele>
        <time>2021-06-01T12:35:39Z</time>
      </trkpt>
      <trkpt lat="45.67045" lon="6.76982">
        <ele>1390.6</ele>
        <time>2021-06-01T12:35:40Z</time>
      </trkpt>
      <trkpt lat="45.67036" lon="6.76995">
        <ele>1389.2</ele>
        <time>2021-06-01T12:35:41Z</time>
      </trkpt>
      <trkpt lat="45.67028" lon="6.77008">
        <ele>1387.8</ele>
        <time>2021-06-01T12:35:42Z</time>
      </trkpt>
      <trkpt lat="45.67021" lon="6.7702">
        <ele>1386.6</ele>
        <time>2021-06-01T12:35:43Z</time>
      </trkpt>
      <trkpt lat="45.67017" lon="6.77033">
        <ele>1384.8</ele>
        <time>2021-06-01T12:35:44Z</time>
      </trkpt>
      <trkpt lat="45.67015" lon="6.77046">
        <ele>1383.6</ele>
        <time>2021-06-01T12:35:45Z</time>
      </trkpt>
      <trkpt lat="45.67017" lon="6.77058">
        <ele>1382.4</ele>
        <time>2021-06-01T12:35:46Z</time>
      </trkpt>
      <trkpt lat="45.67022" lon="6.77069">
        <ele>1381.6</ele>
        <time>2021-06-01T12:35:47Z</time>
      </trkpt>
      <trkpt lat="45.67028" lon="6.77079">
        <ele>1380.8</ele>
        <time>2021-06-01T12:35:48Z</time>
      </trkpt>
      <trkpt lat="45.67031" lon="6.7709">
        <ele>1380.4</ele>
        <time>2021-06-01T12:35:49Z</time>
      </trkpt>
      <trkpt lat="45.67032" lon="6.77101">
        <ele>1380.2</ele>
        <time>2021-06-01T12:35:50Z</time>
      </trkpt>
      <trkpt lat="45.67029" lon="6.77111">
        <ele>1379.8</ele>
        <time>2021-06-01T12:35:51Z</time>
      </trkpt>
      <trkpt lat="45.67024" lon="6.77121">
        <ele>1379.8</ele>
        <time>2021-06-01T12:35:52Z</time>
      </trkpt>
      <trkpt lat="45.6702" lon="6.77133">
        <ele>1379.2</ele>
        <time>2021-06-01T12:35:53Z</time>
      </trkpt>
      <trkpt lat="45.67016" lon="6.77147">
        <ele>1378.6</ele>
        <time>2021-06-01T12:35:54Z</time>
      </trkpt>
      <trkpt lat="45.67013" lon="6.77162">
        <ele>1378</ele>
        <time>2021-06-01T12:35:55Z</time>
      </trkpt>
      <trkpt lat="45.6701" lon="6.77178">
        <ele>1376.8</ele>
        <time>2021-06-01T12:35:56Z</time>
      </trkpt>
      <trkpt lat="45.67007" lon="6.77196">
        <ele>1376.6</ele>
        <time>2021-06-01T12:35:57Z</time>
      </trkpt>
      <trkpt lat="45.67006" lon="6.77214">
        <ele>1375.6</ele>
        <time>2021-06-01T12:35:58Z</time>
      </trkpt>
      <trkpt lat="45.67007" lon="6.77233">
        <ele>1375.2</ele>
        <time>2021-06-01T12:35:59Z</time>
      </trkpt>
      <trkpt lat="45.67008" lon="6.77252">
        <ele>1373.8</ele>
        <time>2021-06-01T12:36:00Z</time>
      </trkpt>
      <trkpt lat="45.67009" lon="6.77271">
        <ele>1372.4</ele>
        <time>2021-06-01T12:36:01Z</time>
      </trkpt>
      <trkpt lat="45.67009" lon="6.7729">
        <ele>1371.2</ele>
        <time>2021-06-01T12:36:02Z</time>
      </trkpt>
      <trkpt lat="45.67008" lon="6.7731">
        <ele>1370.2</ele>
        <time>2021-06-01T12:36:03Z</time>
      </trkpt>
      <trkpt lat="45.67007" lon="6.77328">
        <ele>1368.6</ele>
        <time>2021-06-01T12:36:04Z</time>
      </trkpt>
      <trkpt lat="45.67005" lon="6.77346">
        <ele>1367.2</ele>
        <time>2021-06-01T12:36:05Z</time>
      </trkpt>
      <trkpt lat="45.67002" lon="6.77363">
        <ele>1365.8</ele>
        <time>2021-06-01T12:36:06Z</time>
      </trkpt>
      <trkpt lat="45.66997" lon="6.77379">
        <ele>1364.2</ele>
        <time>2021-06-01T12:36:07Z</time>
      </trkpt>
      <trkpt lat="45.66993" lon="6.77394">
        <ele>1362.6</ele>
        <time>2021-06-01T12:36:08Z</time>
      </trkpt>
      <trkpt lat="45.66988" lon="6.77406">
        <ele>1361</ele>
        <time>2021-06-01T12:36:09Z</time>
      </trkpt>
      <trkpt lat="45.66985" lon="6.77418">
        <ele>1359.6</ele>
        <time>2021-06-01T12:36:10Z</time>
      </trkpt>
      <trkpt lat="45.66983" lon="6.77428">
        <ele>1358.2</ele>
        <time>2021-06-01T12:36:11Z</time>
      </trkpt>
      <trkpt lat="45.66981" lon="6.77436">
        <ele>1357</ele>
        <time>2021-06-01T12:36:12Z</time>
      </trkpt>
      <trkpt lat="45.66978" lon="6.77441">
        <ele>1356</ele>
        <time>2021-06-01T12:36:13Z</time>
      </trkpt>
      <trkpt lat="45.66975" lon="6.77442">
        <ele>1355.2</ele>
        <time>2021-06-01T12:36:14Z</time>
      </trkpt>
      <trkpt lat="45.66973" lon="6.77437">
        <ele>1354.8</ele>
        <time>2021-06-01T12:36:15Z</time>
      </trkpt>
      <trkpt lat="45.66974" lon="6.7743">
        <ele>1354.2</ele>
        <time>2021-06-01T12:36:16Z</time>
      </trkpt>
      <trkpt lat="45.66975" lon="6.77421">
        <ele>1353.6</ele>
        <time>2021-06-01T12:36:17Z</time>
      </trkpt>
      <trkpt lat="45.66977" lon="6.77411">
        <ele>1353.2</ele>
        <time>2021-06-01T12:36:18Z</time>
      </trkpt>
      <trkpt lat="45.66977" lon="6.774">
        <ele>1352.4</ele>
        <time>2021-06-01T12:36:19Z</time>
      </trkpt>
      <trkpt lat="45.66977" lon="6.77389">
        <ele>1351.4</ele>
        <time>2021-06-01T12:36:20Z</time>
      </trkpt>
      <trkpt lat="45.66976" lon="6.77377">
        <ele>1350.6</ele>
        <time>2021-06-01T12:36:21Z</time>
      </trkpt>
      <trkpt lat="45.66975" lon="6.77365">
        <ele>1350</ele>
        <time>2021-06-01T12:36:22Z</time>
      </trkpt>
      <trkpt lat="45.66974" lon="6.77352">
        <ele>1349</ele>
        <time>2021-06-01T12:36:23Z</time>
      </trkpt>
      <trkpt lat="45.66973" lon="6.77339">
        <ele>1348.2</ele>
        <time>2021-06-01T12:36:24Z</time>
      </trkpt>
      <trkpt lat="45.66972" lon="6.77326">
        <ele>1347.4</ele>
        <time>2021-06-01T12:36:25Z</time>
      </trkpt>
      <trkpt lat="45.66971" lon="6.77312">
        <ele>1346.8</ele>
        <time>2021-06-01T12:36:26Z</time>
      </trkpt>
      <trkpt lat="45.66969" lon="6.77298">
        <ele>1346</ele>
        <time>2021-06-01T12:36:27Z</time>
      </trkpt>
      <trkpt lat="45.66968" lon="6.77283">
        <ele>1345.4</ele>
        <time>2021-06-01T12:36:28Z</time>
      </trkpt>
      <trkpt lat="45.66967" lon="6.77268">
        <ele>1345.4</ele>
        <time>2021-06-01T12:36:29Z</time>
      </trkpt>
      <trkpt lat="45.66965" lon="6.77252">
        <ele>1345.4</ele>
        <time>2021-06-01T12:36:30Z</time>
      </trkpt>
      <trkpt lat="45.66964" lon="6.77236">
        <ele>1345.6</ele>
        <time>2021-06-01T12:36:31Z</time>
      </trkpt>
      <trkpt lat="45.66963" lon="6.7722">
        <ele>1345.4</ele>
        <time>2021-06-01T12:36:32Z</time>
      </trkpt>
      <trkpt lat="45.66964" lon="6.77205">
        <ele>1344.8</ele>
        <time>2021-06-01T12:36:33Z</time>
      </trkpt>
      <trkpt lat="45.66966" lon="6.77191">
        <ele>1343.8</ele>
        <time>2021-06-01T12:36:34Z</time>
      </trkpt>
      <trkpt lat="45.66968" lon="6.77179">
        <ele>1343</ele>
        <time>2021-06-01T12:36:35Z</time>
      </trkpt>
      <trkpt lat="45.66969" lon="6.77171">
        <ele>1342.2</ele>
        <time>2021-06-01T12:36:36Z</time>
      </trkpt>
      <trkpt lat="45.66966" lon="6.77162">
        <ele>1341.6</ele>
        <time>2021-06-01T12:36:37Z</time>
      </trkpt>
      <trkpt lat="45.66961" lon="6.77162">
        <ele>1341</ele>
        <time>2021-06-01T12:36:38Z</time>
      </trkpt>
      <trkpt lat="45.66956" lon="6.77165">
        <ele>1340.2</ele>
        <time>2021-06-01T12:36:39Z</time>
      </trkpt>
      <trkpt lat="45.66954" lon="6.77172">
        <ele>1339.6</ele>
        <time>2021-06-01T12:36:40Z</time>
      </trkpt>
      <trkpt lat="45.6695" lon="6.77184">
        <ele>1339.2</ele>
        <time>2021-06-01T12:36:41Z</time>
      </trkpt>
      <trkpt lat="45.66947" lon="6.77196">
        <ele>1339</ele>
        <time>2021-06-01T12:36:42Z</time>
      </trkpt>
      <trkpt lat="45.66943" lon="6.77208">
        <ele>1338.4</ele>
        <time>2021-06-01T12:36:43Z</time>
      </trkpt>
      <trkpt lat="45.66939" lon="6.7722">
        <ele>1337.6</ele>
        <time>2021-06-01T12:36:44Z</time>
      </trkpt>
      <trkpt lat="45.66933" lon="6.77236">
        <ele>1337</ele>
        <time>2021-06-01T12:36:45Z</time>
      </trkpt>
      <trkpt lat="45.6693" lon="6.77252">
        <ele>1336.2</ele>
        <time>2021-06-01T12:36:46Z</time>
      </trkpt>
      <trkpt lat="45.66927" lon="6.77268">
        <ele>1335.6</ele>
        <time>2021-06-01T12:36:47Z</time>
      </trkpt>
      <trkpt lat="45.66926" lon="6.77284">
        <ele>1335.2</ele>
        <time>2021-06-01T12:36:48Z</time>
      </trkpt>
      <trkpt lat="45.66925" lon="6.77298">
        <ele>1334.4</ele>
        <time>2021-06-01T12:36:49Z</time>
      </trkpt>
      <trkpt lat="45.66925" lon="6.77314">
        <ele>1333.8</ele>
        <time>2021-06-01T12:36:50Z</time>
      </trkpt>
      <trkpt lat="45.66925" lon="6.77336">
        <ele>1333.2</ele>
        <time>2021-06-01T12:36:51Z</time>
      </trkpt>
      <trkpt lat="45.66926" lon="6.77353">
        <ele>1332.6</ele>
        <time>2021-06-01T12:36:52Z</time>
      </trkpt>
      <trkpt lat="45.66927" lon="6.7737">
        <ele>1331.6</ele>
        <time>2021-06-01T12:36:53Z</time>
      </trkpt>
      <trkpt lat="45.66929" lon="6.77382">
        <ele>1330.6</ele>
        <time>2021-06-01T12:36:54Z</time>
      </trkpt>
      <trkpt lat="45.6693" lon="6.77399">
        <ele>1329.6</ele>
        <time>2021-06-01T12:36:55Z</time>
      </trkpt>
      <trkpt lat="45.66929" lon="6.7741">
        <ele>1328.4</ele>
        <time>2021-06-01T12:36:56Z</time>
      </trkpt>
      <trkpt lat="45.66926" lon="6.77418">
        <ele>1327.4</ele>
        <time>2021-06-01T12:36:57Z</time>
      </trkpt>
      <trkpt lat="45.66922" lon="6.77418">
        <ele>1326.4</ele>
        <time>2021-06-01T12:36:58Z</time>
      </trkpt>
      <trkpt lat="45.66919" lon="6.77416">
        <ele>1325.6</ele>
        <time>2021-06-01T12:36:59Z</time>
      </trkpt>
      <trkpt lat="45.66918" lon="6.77408">
        <ele>1324.8</ele>
        <time>2021-06-01T12:37:00Z</time>
      </trkpt>
      <trkpt lat="45.66917" lon="6.77399">
        <ele>1324.2</ele>
        <time>2021-06-01T12:37:01Z</time>
      </trkpt>
      <trkpt lat="45.66914" lon="6.77382">
        <ele>1323.8</ele>
        <time>2021-06-01T12:37:02Z</time>
      </trkpt>
      <trkpt lat="45.66911" lon="6.7737">
        <ele>1323.2</ele>
        <time>2021-06-01T12:37:03Z</time>
      </trkpt>
      <trkpt lat="45.66907" lon="6.77353">
        <ele>1322.8</ele>
        <time>2021-06-01T12:37:04Z</time>
      </trkpt>
      <trkpt lat="45.66904" lon="6.77339">
        <ele>1322.4</ele>
        <time>2021-06-01T12:37:05Z</time>
      </trkpt>
      <trkpt lat="45.66901" lon="6.77326">
        <ele>1321.8</ele>
        <time>2021-06-01T12:37:06Z</time>
      </trkpt>
      <trkpt lat="45.66898" lon="6.77311">
        <ele>1321.2</ele>
        <time>2021-06-01T12:37:07Z</time>
      </trkpt>
      <trkpt lat="45.66895" lon="6.77295">
        <ele>1320.6</ele>
        <time>2021-06-01T12:37:08Z</time>
      </trkpt>
      <trkpt lat="45.66892" lon="6.77274">
        <ele>1320</ele>
        <time>2021-06-01T12:37:09Z</time>
      </trkpt>
      <trkpt lat="45.66892" lon="6.77256">
        <ele>1319.4</ele>
        <time>2021-06-01T12:37:10Z</time>
      </trkpt>
      <trkpt lat="45.66891" lon="6.77238">
        <ele>1318.8</ele>
        <time>2021-06-01T12:37:11Z</time>
      </trkpt>
      <trkpt lat="45.66891" lon="6.77224">
        <ele>1317.8</ele>
        <time>2021-06-01T12:37:12Z</time>
      </trkpt>
      <trkpt lat="45.66892" lon="6.77207">
        <ele>1316.6</ele>
        <time>2021-06-01T12:37:13Z</time>
      </trkpt>
      <trkpt lat="45.66892" lon="6.7719">
        <ele>1315.6</ele>
        <time>2021-06-01T12:37:14Z</time>
      </trkpt>
      <trkpt lat="45.6689" lon="6.7718">
        <ele>1314.4</ele>
        <time>2021-06-01T12:37:15Z</time>
      </trkpt>
      <trkpt lat="45.66886" lon="6.77175">
        <ele>1313</ele>
        <time>2021-06-01T12:37:16Z</time>
      </trkpt>
      <trkpt lat="45.66882" lon="6.77175">
        <ele>1312.2</ele>
        <time>2021-06-01T12:37:17Z</time>
      </trkpt>
      <trkpt lat="45.66878" lon="6.77178">
        <ele>1311.4</ele>
        <time>2021-06-01T12:37:18Z</time>
      </trkpt>
      <trkpt lat="45.66876" lon="6.77184">
        <ele>1310.6</ele>
        <time>2021-06-01T12:37:19Z</time>
      </trkpt>
      <trkpt lat="45.66875" lon="6.772">
        <ele>1310</ele>
        <time>2021-06-01T12:37:20Z</time>
      </trkpt>
      <trkpt lat="45.66874" lon="6.77211">
        <ele>1309.2</ele>
        <time>2021-06-01T12:37:21Z</time>
      </trkpt>
      <trkpt lat="45.66872" lon="6.77228">
        <ele>1308.8</ele>
        <time>2021-06-01T12:37:22Z</time>
      </trkpt>
      <trkpt lat="45.66871" lon="6.77244">
        <ele>1308.2</ele>
        <time>2021-06-01T12:37:23Z</time>
      </trkpt>
      <trkpt lat="45.66868" lon="6.7726">
        <ele>1308</ele>
        <time>2021-06-01T12:37:24Z</time>
      </trkpt>
      <trkpt lat="45.66865" lon="6.77277">
        <ele>1307.6</ele>
        <time>2021-06-01T12:37:25Z</time>
      </trkpt>
      <trkpt lat="45.66863" lon="6.77294">
        <ele>1307.2</ele>
        <time>2021-06-01T12:37:26Z</time>
      </trkpt>
      <trkpt lat="45.66863" lon="6.77311">
        <ele>1306.6</ele>
        <time>2021-06-01T12:37:27Z</time>
      </trkpt>
      <trkpt lat="45.66864" lon="6.7733">
        <ele>1305.8</ele>
        <time>2021-06-01T12:37:28Z</time>
      </trkpt>
      <trkpt lat="45.66865" lon="6.77348">
        <ele>1304.8</ele>
        <time>2021-06-01T12:37:29Z</time>
      </trkpt>
      <trkpt lat="45.66866" lon="6.77364">
        <ele>1304</ele>
        <time>2021-06-01T12:37:30Z</time>
      </trkpt>
      <trkpt lat="45.66865" lon="6.77382">
        <ele>1303.4</ele>
        <time>2021-06-01T12:37:31Z</time>
      </trkpt>
      <trkpt lat="45.66863" lon="6.77401">
        <ele>1303</ele>
        <time>2021-06-01T12:37:32Z</time>
      </trkpt>
      <trkpt lat="45.66862" lon="6.77416">
        <ele>1302</ele>
        <time>2021-06-01T12:37:33Z</time>
      </trkpt>
      <trkpt lat="45.66862" lon="6.7743">
        <ele>1301.2</ele>
        <time>2021-06-01T12:37:34Z</time>
      </trkpt>
      <trkpt lat="45.66864" lon="6.7744">
        <ele>1300</ele>
        <time>2021-06-01T12:37:35Z</time>
      </trkpt>
      <trkpt lat="45.66869" lon="6.77452">
        <ele>1299</ele>
        <time>2021-06-01T12:37:36Z</time>
      </trkpt>
      <trkpt lat="45.66873" lon="6.77464">
        <ele>1298</ele>
        <time>2021-06-01T12:37:37Z</time>
      </trkpt>
      <trkpt lat="45.66875" lon="6.77477">
        <ele>1296.8</ele>
        <time>2021-06-01T12:37:38Z</time>
      </trkpt>
      <trkpt lat="45.66874" lon="6.7749">
        <ele>1296</ele>
        <time>2021-06-01T12:37:39Z</time>
      </trkpt>
      <trkpt lat="45.66871" lon="6.77504">
        <ele>1295.2</ele>
        <time>2021-06-01T12:37:40Z</time>
      </trkpt>
      <trkpt lat="45.66868" lon="6.77521">
        <ele>1294.2</ele>
        <time>2021-06-01T12:37:41Z</time>
      </trkpt>
      <trkpt lat="45.66864" lon="6.77532">
        <ele>1293.2</ele>
        <time>2021-06-01T12:37:42Z</time>
      </trkpt>
      <trkpt lat="45.6686" lon="6.7754">
        <ele>1292</ele>
        <time>2021-06-01T12:37:43Z</time>
      </trkpt>
      <trkpt lat="45.66856" lon="6.77543">
        <ele>1291</ele>
        <time>2021-06-01T12:37:44Z</time>
      </trkpt>
      <trkpt lat="45.66851" lon="6.77544">
        <ele>1290</ele>
        <time>2021-06-01T12:37:45Z</time>
      </trkpt>
      <trkpt lat="45.66849" lon="6.77541">
        <ele>1289</ele>
        <time>2021-06-01T12:37:46Z</time>
      </trkpt>
      <trkpt lat="45.6685" lon="6.77537">
        <ele>1288.2</ele>
        <time>2021-06-01T12:37:47Z</time>
      </trkpt>
      <trkpt lat="45.66852" lon="6.77527">
        <ele>1287.6</ele>
        <time>2021-06-01T12:37:48Z</time>
      </trkpt>
      <trkpt lat="45.66853" lon="6.77517">
        <ele>1287</ele>
        <time>2021-06-01T12:37:49Z</time>
      </trkpt>
      <trkpt lat="45.66854" lon="6.77504">
        <ele>1286.2</ele>
        <time>2021-06-01T12:37:50Z</time>
      </trkpt>
      <trkpt lat="45.66854" lon="6.77493">
        <ele>1285.6</ele>
        <time>2021-06-01T12:37:51Z</time>
      </trkpt>
      <trkpt lat="45.6685" lon="6.7748">
        <ele>1284.8</ele>
        <time>2021-06-01T12:37:52Z</time>
      </trkpt>
      <trkpt lat="45.66844" lon="6.77472">
        <ele>1284.2</ele>
        <time>2021-06-01T12:37:53Z</time>
      </trkpt>
      <trkpt lat="45.66837" lon="6.77461">
        <ele>1283.4</ele>
        <time>2021-06-01T12:37:54Z</time>
      </trkpt>
      <trkpt lat="45.66831" lon="6.77449">
        <ele>1282.6</ele>
        <time>2021-06-01T12:37:55Z</time>
      </trkpt>
      <trkpt lat="45.66826" lon="6.77433">
        <ele>1281.8</ele>
        <time>2021-06-01T12:37:56Z</time>
      </trkpt>
      <trkpt lat="45.66822" lon="6.77417">
        <ele>1281.2</ele>
        <time>2021-06-01T12:37:57Z</time>
      </trkpt>
      <trkpt lat="45.6682" lon="6.774">
        <ele>1280.4</ele>
        <time>2021-06-01T12:37:58Z</time>
      </trkpt>
      <trkpt lat="45.6682" lon="6.77385">
        <ele>1279.6</ele>
        <time>2021-06-01T12:37:59Z</time>
      </trkpt>
      <trkpt lat="45.66818" lon="6.77363">
        <ele>1279</ele>
        <time>2021-06-01T12:38:00Z</time>
      </trkpt>
      <trkpt lat="45.66815" lon="6.77342">
        <ele>1278.6</ele>
        <time>2021-06-01T12:38:01Z</time>
      </trkpt>
      <trkpt lat="45.6681" lon="6.77327">
        <ele>1277.8</ele>
        <time>2021-06-01T12:38:02Z</time>
      </trkpt>
      <trkpt lat="45.66806" lon="6.77316">
        <ele>1277.4</ele>
        <time>2021-06-01T12:38:03Z</time>
      </trkpt>
      <trkpt lat="45.668" lon="6.77298">
        <ele>1276.4</ele>
        <time>2021-06-01T12:38:04Z</time>
      </trkpt>
      <trkpt lat="45.66796" lon="6.77283">
        <ele>1275.6</ele>
        <time>2021-06-01T12:38:05Z</time>
      </trkpt>
      <trkpt lat="45.66795" lon="6.77269">
        <ele>1274</ele>
        <time>2021-06-01T12:38:06Z</time>
      </trkpt>
      <trkpt lat="45.66798" lon="6.77258">
        <ele>1273</ele>
        <time>2021-06-01T12:38:07Z</time>
      </trkpt>
      <trkpt lat="45.66803" lon="6.77249">
        <ele>1272</ele>
        <time>2021-06-01T12:38:08Z</time>
      </trkpt>
      <trkpt lat="45.66809" lon="6.77238">
        <ele>1271</ele>
        <time>2021-06-01T12:38:09Z</time>
      </trkpt>
      <trkpt lat="45.66813" lon="6.77224">
        <ele>1270</ele>
        <time>2021-06-01T12:38:10Z</time>
      </trkpt>
      <trkpt lat="45.66814" lon="6.77213">
        <ele>1269.2</ele>
        <time>2021-06-01T12:38:11Z</time>
      </trkpt>
      <trkpt lat="45.66816" lon="6.77199">
        <ele>1268.2</ele>
        <time>2021-06-01T12:38:12Z</time>
      </trkpt>
      <trkpt lat="45.66816" lon="6.77185">
        <ele>1267</ele>
        <time>2021-06-01T12:38:13Z</time>
      </trkpt>
      <trkpt lat="45.66816" lon="6.77172">
        <ele>1266</ele>
        <time>2021-06-01T12:38:14Z</time>
      </trkpt>
      <trkpt lat="45.66812" lon="6.77167">
        <ele>1265.2</ele>
        <time>2021-06-01T12:38:15Z</time>
      </trkpt>
      <trkpt lat="45.66809" lon="6.77166">
        <ele>1264.4</ele>
        <time>2021-06-01T12:38:16Z</time>
      </trkpt>
      <trkpt lat="45.66806" lon="6.77167">
        <ele>1263.8</ele>
        <time>2021-06-01T12:38:17Z</time>
      </trkpt>
      <trkpt lat="45.66805" lon="6.77173">
        <ele>1263.2</ele>
        <time>2021-06-01T12:38:18Z</time>
      </trkpt>
      <trkpt lat="45.66804" lon="6.77188">
        <ele>1262.6</ele>
        <time>2021-06-01T12:38:19Z</time>
      </trkpt>
      <trkpt lat="45.668" lon="6.772">
        <ele>1262.2</ele>
        <time>2021-06-01T12:38:20Z</time>
      </trkpt>
      <trkpt lat="45.66794" lon="6.77208">
        <ele>1261.8</ele>
        <time>2021-06-01T12:38:21Z</time>
      </trkpt>
      <trkpt lat="45.66786" lon="6.77215">
        <ele>1261</ele>
        <time>2021-06-01T12:38:22Z</time>
      </trkpt>
      <trkpt lat="45.66776" lon="6.77221">
        <ele>1260.4</ele>
        <time>2021-06-01T12:38:23Z</time>
      </trkpt>
      <trkpt lat="45.66767" lon="6.77228">
        <ele>1259.4</ele>
        <time>2021-06-01T12:38:24Z</time>
      </trkpt>
      <trkpt lat="45.66762" lon="6.77238">
        <ele>1258.6</ele>
        <time>2021-06-01T12:38:25Z</time>
      </trkpt>
      <trkpt lat="45.66761" lon="6.77251">
        <ele>1257.8</ele>
        <time>2021-06-01T12:38:26Z</time>
      </trkpt>
      <trkpt lat="45.66763" lon="6.77264">
        <ele>1257.2</ele>
        <time>2021-06-01T12:38:27Z</time>
      </trkpt>
      <trkpt lat="45.66763" lon="6.77279">
        <ele>1256.6</ele>
        <time>2021-06-01T12:38:28Z</time>
      </trkpt>
      <trkpt lat="45.66762" lon="6.77294">
        <ele>1256</ele>
        <time>2021-06-01T12:38:29Z</time>
      </trkpt>
      <trkpt lat="45.6676" lon="6.77308">
        <ele>1255.6</ele>
        <time>2021-06-01T12:38:30Z</time>
      </trkpt>
      <trkpt lat="45.6676" lon="6.77324">
        <ele>1254.8</ele>
        <time>2021-06-01T12:38:31Z</time>
      </trkpt>
      <trkpt lat="45.66761" lon="6.77345">
        <ele>1254.2</ele>
        <time>2021-06-01T12:38:32Z</time>
      </trkpt>
      <trkpt lat="45.66763" lon="6.77362">
        <ele>1253</ele>
        <time>2021-06-01T12:38:33Z</time>
      </trkpt>
      <trkpt lat="45.66765" lon="6.77378">
        <ele>1252</ele>
        <time>2021-06-01T12:38:34Z</time>
      </trkpt>
      <trkpt lat="45.66768" lon="6.77395">
        <ele>1251.2</ele>
        <time>2021-06-01T12:38:35Z</time>
      </trkpt>
      <trkpt lat="45.66771" lon="6.77414">
        <ele>1249.8</ele>
        <time>2021-06-01T12:38:36Z</time>
      </trkpt>
      <trkpt lat="45.66775" lon="6.7743">
        <ele>1248.6</ele>
        <time>2021-06-01T12:38:37Z</time>
      </trkpt>
      <trkpt lat="45.66779" lon="6.77446">
        <ele>1247.4</ele>
        <time>2021-06-01T12:38:38Z</time>
      </trkpt>
      <trkpt lat="45.66782" lon="6.7746">
        <ele>1246.4</ele>
        <time>2021-06-01T12:38:39Z</time>
      </trkpt>
      <trkpt lat="45.66785" lon="6.77469">
        <ele>1245</ele>
        <time>2021-06-01T12:38:40Z</time>
      </trkpt>
      <trkpt lat="45.66786" lon="6.77481">
        <ele>1244</ele>
        <time>2021-06-01T12:38:41Z</time>
      </trkpt>
      <trkpt lat="45.66784" lon="6.77487">
        <ele>1243.2</ele>
        <time>2021-06-01T12:38:42Z</time>
      </trkpt>
      <trkpt lat="45.6678" lon="6.77488">
        <ele>1242.4</ele>
        <time>2021-06-01T12:38:43Z</time>
      </trkpt>
      <trkpt lat="45.66777" lon="6.77486">
        <ele>1241.6</ele>
        <time>2021-06-01T12:38:44Z</time>
      </trkpt>
      <trkpt lat="45.66775" lon="6.7748">
        <ele>1240.8</ele>
        <time>2021-06-01T12:38:45Z</time>
      </trkpt>
      <trkpt lat="45.66773" lon="6.77471">
        <ele>1240.2</ele>
        <time>2021-06-01T12:38:46Z</time>
      </trkpt>
      <trkpt lat="45.6677" lon="6.77454">
        <ele>1239.6</ele>
        <time>2021-06-01T12:38:47Z</time>
      </trkpt>
      <trkpt lat="45.66766" lon="6.77441">
        <ele>1239</ele>
        <time>2021-06-01T12:38:48Z</time>
      </trkpt>
      <trkpt lat="45.66762" lon="6.77428">
        <ele>1238.4</ele>
        <time>2021-06-01T12:38:49Z</time>
      </trkpt>
      <trkpt lat="45.66756" lon="6.77416">
        <ele>1237.4</ele>
        <time>2021-06-01T12:38:50Z</time>
      </trkpt>
      <trkpt lat="45.66749" lon="6.77404">
        <ele>1237.2</ele>
        <time>2021-06-01T12:38:51Z</time>
      </trkpt>
      <trkpt lat="45.66743" lon="6.77392">
        <ele>1236.8</ele>
        <time>2021-06-01T12:38:52Z</time>
      </trkpt>
      <trkpt lat="45.66736" lon="6.77381">
        <ele>1236.2</ele>
        <time>2021-06-01T12:38:53Z</time>
      </trkpt>
      <trkpt lat="45.66732" lon="6.77367">
        <ele>1235.4</ele>
        <time>2021-06-01T12:38:54Z</time>
      </trkpt>
      <trkpt lat="45.66731" lon="6.77351">
        <ele>1234.4</ele>
        <time>2021-06-01T12:38:55Z</time>
      </trkpt>
      <trkpt lat="45.66732" lon="6.77337">
        <ele>1233.8</ele>
        <time>2021-06-01T12:38:56Z</time>
      </trkpt>
      <trkpt lat="45.66732" lon="6.77322">
        <ele>1233</ele>
        <time>2021-06-01T12:38:57Z</time>
      </trkpt>
      <trkpt lat="45.66729" lon="6.77309">
        <ele>1232.2</ele>
        <time>2021-06-01T12:38:58Z</time>
      </trkpt>
      <trkpt lat="45.66724" lon="6.77298">
        <ele>1231.4</ele>
        <time>2021-06-01T12:38:59Z</time>
      </trkpt>
      <trkpt lat="45.66718" lon="6.77287">
        <ele>1230.6</ele>
        <time>2021-06-01T12:39:00Z</time>
      </trkpt>
      <trkpt lat="45.66713" lon="6.77276">
        <ele>1230</ele>
        <time>2021-06-01T12:39:01Z</time>
      </trkpt>
      <trkpt lat="45.66709" lon="6.77264">
        <ele>1229</ele>
        <time>2021-06-01T12:39:02Z</time>
      </trkpt>
      <trkpt lat="45.66709" lon="6.7725">
        <ele>1228.2</ele>
        <time>2021-06-01T12:39:03Z</time>
      </trkpt>
      <trkpt lat="45.6671" lon="6.77237">
        <ele>1227.2</ele>
        <time>2021-06-01T12:39:04Z</time>
      </trkpt>
      <trkpt lat="45.66711" lon="6.77224">
        <ele>1226.2</ele>
        <time>2021-06-01T12:39:05Z</time>
      </trkpt>
      <trkpt lat="45.66711" lon="6.77214">
        <ele>1225.2</ele>
        <time>2021-06-01T12:39:06Z</time>
      </trkpt>
      <trkpt lat="45.66707" lon="6.77208">
        <ele>1224.2</ele>
        <time>2021-06-01T12:39:07Z</time>
      </trkpt>
      <trkpt lat="45.66703" lon="6.77208">
        <ele>1223.2</ele>
        <time>2021-06-01T12:39:08Z</time>
      </trkpt>
      <trkpt lat="45.667" lon="6.77216">
        <ele>1222.4</ele>
        <time>2021-06-01T12:39:09Z</time>
      </trkpt>
      <trkpt lat="45.66699" lon="6.77226">
        <ele>1221.8</ele>
        <time>2021-06-01T12:39:10Z</time>
      </trkpt>
      <trkpt lat="45.66698" lon="6.77238">
        <ele>1221.4</ele>
        <time>2021-06-01T12:39:11Z</time>
      </trkpt>
      <trkpt lat="45.66697" lon="6.77252">
        <ele>1221.2</ele>
        <time>2021-06-01T12:39:12Z</time>
      </trkpt>
      <trkpt lat="45.66694" lon="6.77265">
        <ele>1220.8</ele>
        <time>2021-06-01T12:39:13Z</time>
      </trkpt>
      <trkpt lat="45.66691" lon="6.77278">
        <ele>1220.4</ele>
        <time>2021-06-01T12:39:14Z</time>
      </trkpt>
      <trkpt lat="45.66687" lon="6.7729">
        <ele>1220</ele>
        <time>2021-06-01T12:39:15Z</time>
      </trkpt>
      <trkpt lat="45.66684" lon="6.77303">
        <ele>1219.4</ele>
        <time>2021-06-01T12:39:16Z</time>
      </trkpt>
      <trkpt lat="45.66681" lon="6.77316">
        <ele>1219.2</ele>
        <time>2021-06-01T12:39:17Z</time>
      </trkpt>
      <trkpt lat="45.66679" lon="6.77329">
        <ele>1218.2</ele>
        <time>2021-06-01T12:39:18Z</time>
      </trkpt>
      <trkpt lat="45.66679" lon="6.77343">
        <ele>1217.8</ele>
        <time>2021-06-01T12:39:19Z</time>
      </trkpt>
      <trkpt lat="45.66681" lon="6.77356">
        <ele>1217</ele>
        <time>2021-06-01T12:39:20Z</time>
      </trkpt>
      <trkpt lat="45.66686" lon="6.77368">
        <ele>1216.4</ele>
        <time>2021-06-01T12:39:21Z</time>
      </trkpt>
      <trkpt lat="45.66692" lon="6.7738">
        <ele>1215.6</ele>
        <time>2021-06-01T12:39:22Z</time>
      </trkpt>
      <trkpt lat="45.66699" lon="6.77391">
        <ele>1214.6</ele>
        <time>2021-06-01T12:39:23Z</time>
      </trkpt>
      <trkpt lat="45.66703" lon="6.77404">
        <ele>1214.2</ele>
        <time>2021-06-01T12:39:24Z</time>
      </trkpt>
      <trkpt lat="45.66707" lon="6.77417">
        <ele>1213.2</ele>
        <time>2021-06-01T12:39:25Z</time>
      </trkpt>
      <trkpt lat="45.66709" lon="6.7743">
        <ele>1212.4</ele>
        <time>2021-06-01T12:39:26Z</time>
      </trkpt>
      <trkpt lat="45.6671" lon="6.77444">
        <ele>1211.4</ele>
        <time>2021-06-01T12:39:27Z</time>
      </trkpt>
      <trkpt lat="45.66709" lon="6.77457">
        <ele>1210.4</ele>
        <time>2021-06-01T12:39:28Z</time>
      </trkpt>
      <trkpt lat="45.66706" lon="6.7747">
        <ele>1209.6</ele>
        <time>2021-06-01T12:39:29Z</time>
      </trkpt>
      <trkpt lat="45.66699" lon="6.77484">
        <ele>1209</ele>
        <time>2021-06-01T12:39:30Z</time>
      </trkpt>
      <trkpt lat="45.66692" lon="6.77498">
        <ele>1208</ele>
        <time>2021-06-01T12:39:31Z</time>
      </trkpt>
      <trkpt lat="45.66685" lon="6.77512">
        <ele>1207.2</ele>
        <time>2021-06-01T12:39:32Z</time>
      </trkpt>
      <trkpt lat="45.66679" lon="6.77528">
        <ele>1206.4</ele>
        <time>2021-06-01T12:39:33Z</time>
      </trkpt>
      <trkpt lat="45.66673" lon="6.77544">
        <ele>1205.2</ele>
        <time>2021-06-01T12:39:34Z</time>
      </trkpt>
      <trkpt lat="45.66668" lon="6.77559">
        <ele>1204.2</ele>
        <time>2021-06-01T12:39:35Z</time>
      </trkpt>
      <trkpt lat="45.66665" lon="6.77573">
        <ele>1202.8</ele>
        <time>2021-06-01T12:39:36Z</time>
      </trkpt>
      <trkpt lat="45.66661" lon="6.77586">
        <ele>1201.2</ele>
        <time>2021-06-01T12:39:37Z</time>
      </trkpt>
      <trkpt lat="45.66657" lon="6.77597">
        <ele>1200</ele>
        <time>2021-06-01T12:39:38Z</time>
      </trkpt>
      <trkpt lat="45.66652" lon="6.77604">
        <ele>1198.8</ele>
        <time>2021-06-01T12:39:39Z</time>
      </trkpt>
      <trkpt lat="45.66646" lon="6.77607">
        <ele>1197.8</ele>
        <time>2021-06-01T12:39:40Z</time>
      </trkpt>
      <trkpt lat="45.66642" lon="6.77606">
        <ele>1196.8</ele>
        <time>2021-06-01T12:39:41Z</time>
      </trkpt>
      <trkpt lat="45.66639" lon="6.77603">
        <ele>1196</ele>
        <time>2021-06-01T12:39:42Z</time>
      </trkpt>
      <trkpt lat="45.66639" lon="6.77596">
        <ele>1195.2</ele>
        <time>2021-06-01T12:39:43Z</time>
      </trkpt>
      <trkpt lat="45.66638" lon="6.77585">
        <ele>1195</ele>
        <time>2021-06-01T12:39:44Z</time>
      </trkpt>
      <trkpt lat="45.66636" lon="6.77574">
        <ele>1194.4</ele>
        <time>2021-06-01T12:39:45Z</time>
      </trkpt>
      <trkpt lat="45.66633" lon="6.77565">
        <ele>1193.8</ele>
        <time>2021-06-01T12:39:46Z</time>
      </trkpt>
      <trkpt lat="45.66629" lon="6.77555">
        <ele>1193.2</ele>
        <time>2021-06-01T12:39:47Z</time>
      </trkpt>
      <trkpt lat="45.66624" lon="6.77546">
        <ele>1192.4</ele>
        <time>2021-06-01T12:39:48Z</time>
      </trkpt>
      <trkpt lat="45.66619" lon="6.77537">
        <ele>1191.8</ele>
        <time>2021-06-01T12:39:49Z</time>
      </trkpt>
      <trkpt lat="45.66614" lon="6.77527">
        <ele>1191.2</ele>
        <time>2021-06-01T12:39:50Z</time>
      </trkpt>
      <trkpt lat="45.6661" lon="6.77517">
        <ele>1190.6</ele>
        <time>2021-06-01T12:39:51Z</time>
      </trkpt>
      <trkpt lat="45.66609" lon="6.77506">
        <ele>1190.2</ele>
        <time>2021-06-01T12:39:52Z</time>
      </trkpt>
      <trkpt lat="45.66609" lon="6.77495">
        <ele>1189.8</ele>
        <time>2021-06-01T12:39:53Z</time>
      </trkpt>
      <trkpt lat="45.66612" lon="6.77485">
        <ele>1189.4</ele>
        <time>2021-06-01T12:39:54Z</time>
      </trkpt>
      <trkpt lat="45.66614" lon="6.77474">
        <ele>1188.8</ele>
        <time>2021-06-01T12:39:55Z</time>
      </trkpt>
      <trkpt lat="45.66617" lon="6.77464">
        <ele>1188.4</ele>
        <time>2021-06-01T12:39:56Z</time>
      </trkpt>
      <trkpt lat="45.66618" lon="6.77454">
        <ele>1188</ele>
        <time>2021-06-01T12:39:57Z</time>
      </trkpt>
      <trkpt lat="45.66616" lon="6.77444">
        <ele>1187.6</ele>
        <time>2021-06-01T12:39:58Z</time>
      </trkpt>
      <trkpt lat="45.66612" lon="6.77438">
        <ele>1187.2</ele>
        <time>2021-06-01T12:39:59Z</time>
      </trkpt>
      <trkpt lat="45.66608" lon="6.77436">
        <ele>1187.2</ele>
        <time>2021-06-01T12:40:00Z</time>
      </trkpt>
      <trkpt lat="45.666" lon="6.77437">
        <ele>1186.4</ele>
        <time>2021-06-01T12:40:01Z</time>
      </trkpt>
      <trkpt lat="45.66595" lon="6.77442">
        <ele>1185.8</ele>
        <time>2021-06-01T12:40:02Z</time>
      </trkpt>
      <trkpt lat="45.6659" lon="6.77451">
        <ele>1185.4</ele>
        <time>2021-06-01T12:40:03Z</time>
      </trkpt>
      <trkpt lat="45.66585" lon="6.77461">
        <ele>1185</ele>
        <time>2021-06-01T12:40:04Z</time>
      </trkpt>
      <trkpt lat="45.6658" lon="6.7747">
        <ele>1184.6</ele>
        <time>2021-06-01T12:40:05Z</time>
      </trkpt>
      <trkpt lat="45.66575" lon="6.7748">
        <ele>1183.8</ele>
        <time>2021-06-01T12:40:06Z</time>
      </trkpt>
      <trkpt lat="45.6657" lon="6.7749">
        <ele>1183.4</ele>
        <time>2021-06-01T12:40:07Z</time>
      </trkpt>
      <trkpt lat="45.66564" lon="6.77501">
        <ele>1182.8</ele>
        <time>2021-06-01T12:40:08Z</time>
      </trkpt>
      <trkpt lat="45.66558" lon="6.77512">
        <ele>1182.6</ele>
        <time>2021-06-01T12:40:09Z</time>
      </trkpt>
      <trkpt lat="45.66552" lon="6.77522">
        <ele>1182.4</ele>
        <time>2021-06-01T12:40:10Z</time>
      </trkpt>
      <trkpt lat="45.66547" lon="6.77534">
        <ele>1182</ele>
        <time>2021-06-01T12:40:11Z</time>
      </trkpt>
      <trkpt lat="45.66542" lon="6.77546">
        <ele>1181.8</ele>
        <time>2021-06-01T12:40:12Z</time>
      </trkpt>
      <trkpt lat="45.66536" lon="6.7756">
        <ele>1181.2</ele>
        <time>2021-06-01T12:40:13Z</time>
      </trkpt>
      <trkpt lat="45.66532" lon="6.77574">
        <ele>1181.2</ele>
        <time>2021-06-01T12:40:14Z</time>
      </trkpt>
      <trkpt lat="45.66528" lon="6.77588">
        <ele>1180.6</ele>
        <time>2021-06-01T12:40:15Z</time>
      </trkpt>
      <trkpt lat="45.66524" lon="6.77603">
        <ele>1179.6</ele>
        <time>2021-06-01T12:40:16Z</time>
      </trkpt>
      <trkpt lat="45.66519" lon="6.77618">
        <ele>1179.4</ele>
        <time>2021-06-01T12:40:17Z</time>
      </trkpt>
      <trkpt lat="45.66515" lon="6.77634">
        <ele>1178.2</ele>
        <time>2021-06-01T12:40:18Z</time>
      </trkpt>
      <trkpt lat="45.66511" lon="6.7765">
        <ele>1177.4</ele>
        <time>2021-06-01T12:40:19Z</time>
      </trkpt>
      <trkpt lat="45.66507" lon="6.77666">
        <ele>1176.4</ele>
        <time>2021-06-01T12:40:20Z</time>
      </trkpt>
      <trkpt lat="45.66502" lon="6.77683">
        <ele>1175.4</ele>
        <time>2021-06-01T12:40:21Z</time>
      </trkpt>
      <trkpt lat="45.66497" lon="6.77699">
        <ele>1174</ele>
        <time>2021-06-01T12:40:22Z</time>
      </trkpt>
      <trkpt lat="45.66489" lon="6.77714">
        <ele>1173.8</ele>
        <time>2021-06-01T12:40:23Z</time>
      </trkpt>
      <trkpt lat="45.6648" lon="6.77726">
        <ele>1173.2</ele>
        <time>2021-06-01T12:40:24Z</time>
      </trkpt>
      <trkpt lat="45.66469" lon="6.77737">
        <ele>1172.2</ele>
        <time>2021-06-01T12:40:25Z</time>
      </trkpt>
      <trkpt lat="45.66459" lon="6.77748">
        <ele>1171.6</ele>
        <time>2021-06-01T12:40:26Z</time>
      </trkpt>
      <trkpt lat="45.66447" lon="6.77758">
        <ele>1170.6</ele>
        <time>2021-06-01T12:40:27Z</time>
      </trkpt>
      <trkpt lat="45.66436" lon="6.77768">
        <ele>1169.2</ele>
        <time>2021-06-01T12:40:28Z</time>
      </trkpt>
      <trkpt lat="45.66424" lon="6.77779">
        <ele>1167.8</ele>
        <time>2021-06-01T12:40:29Z</time>
      </trkpt>
      <trkpt lat="45.66412" lon="6.77788">
        <ele>1166.4</ele>
        <time>2021-06-01T12:40:30Z</time>
      </trkpt>
      <trkpt lat="45.66399" lon="6.77799">
        <ele>1165.2</ele>
        <time>2021-06-01T12:40:31Z</time>
      </trkpt>
      <trkpt lat="45.66387" lon="6.7781">
        <ele>1164.2</ele>
        <time>2021-06-01T12:40:32Z</time>
      </trkpt>
      <trkpt lat="45.66375" lon="6.77823">
        <ele>1163.2</ele>
        <time>2021-06-01T12:40:33Z</time>
      </trkpt>
      <trkpt lat="45.66364" lon="6.77837">
        <ele>1162</ele>
        <time>2021-06-01T12:40:34Z</time>
      </trkpt>
      <trkpt lat="45.66353" lon="6.77851">
        <ele>1160.6</ele>
        <time>2021-06-01T12:40:35Z</time>
      </trkpt>
      <trkpt lat="45.66342" lon="6.77866">
        <ele>1159.8</ele>
        <time>2021-06-01T12:40:36Z</time>
      </trkpt>
      <trkpt lat="45.66334" lon="6.77881">
        <ele>1158.2</ele>
        <time>2021-06-01T12:40:37Z</time>
      </trkpt>
      <trkpt lat="45.66325" lon="6.77896">
        <ele>1156.8</ele>
        <time>2021-06-01T12:40:38Z</time>
      </trkpt>
      <trkpt lat="45.66317" lon="6.7791">
        <ele>1155.4</ele>
        <time>2021-06-01T12:40:39Z</time>
      </trkpt>
      <trkpt lat="45.66308" lon="6.7792">
        <ele>1153.6</ele>
        <time>2021-06-01T12:40:40Z</time>
      </trkpt>
      <trkpt lat="45.66297" lon="6.77927">
        <ele>1152.2</ele>
        <time>2021-06-01T12:40:41Z</time>
      </trkpt>
      <trkpt lat="45.66286" lon="6.7793">
        <ele>1150.8</ele>
        <time>2021-06-01T12:40:42Z</time>
      </trkpt>
      <trkpt lat="45.66274" lon="6.77931">
        <ele>1149.8</ele>
        <time>2021-06-01T12:40:43Z</time>
      </trkpt>
      <trkpt lat="45.66263" lon="6.7793">
        <ele>1148.4</ele>
        <time>2021-06-01T12:40:44Z</time>
      </trkpt>
      <trkpt lat="45.66252" lon="6.77932">
        <ele>1147.2</ele>
        <time>2021-06-01T12:40:45Z</time>
      </trkpt>
      <trkpt lat="45.66242" lon="6.77937">
        <ele>1146.2</ele>
        <time>2021-06-01T12:40:46Z</time>
      </trkpt>
      <trkpt lat="45.66234" lon="6.77946">
        <ele>1145.4</ele>
        <time>2021-06-01T12:40:47Z</time>
      </trkpt>
      <trkpt lat="45.66225" lon="6.77957">
        <ele>1144.6</ele>
        <time>2021-06-01T12:40:48Z</time>
      </trkpt>
      <trkpt lat="45.66217" lon="6.77969">
        <ele>1143.6</ele>
        <time>2021-06-01T12:40:49Z</time>
      </trkpt>
      <trkpt lat="45.66209" lon="6.77982">
        <ele>1142.4</ele>
        <time>2021-06-01T12:40:50Z</time>
      </trkpt>
      <trkpt lat="45.662" lon="6.77993">
        <ele>1141.8</ele>
        <time>2021-06-01T12:40:51Z</time>
      </trkpt>
      <trkpt lat="45.66189" lon="6.78004">
        <ele>1140.6</ele>
        <time>2021-06-01T12:40:52Z</time>
      </trkpt>
      <trkpt lat="45.66179" lon="6.78013">
        <ele>1140.2</ele>
        <time>2021-06-01T12:40:53Z</time>
      </trkpt>
      <trkpt lat="45.66167" lon="6.78022">
        <ele>1139.2</ele>
        <time>2021-06-01T12:40:54Z</time>
      </trkpt>
      <trkpt lat="45.66156" lon="6.78032">
        <ele>1137.8</ele>
        <time>2021-06-01T12:40:55Z</time>
      </trkpt>
      <trkpt lat="45.66144" lon="6.7804">
        <ele>1136.6</ele>
        <time>2021-06-01T12:40:56Z</time>
      </trkpt>
      <trkpt lat="45.66132" lon="6.78048">
        <ele>1135.6</ele>
        <time>2021-06-01T12:40:57Z</time>
      </trkpt>
      <trkpt lat="45.6612" lon="6.78056">
        <ele>1134.4</ele>
        <time>2021-06-01T12:40:58Z</time>
      </trkpt>
      <trkpt lat="45.66109" lon="6.78064">
        <ele>1133.6</ele>
        <time>2021-06-01T12:40:59Z</time>
      </trkpt>
      <trkpt lat="45.66098" lon="6.78074">
        <ele>1132</ele>
        <time>2021-06-01T12:41:00Z</time>
      </trkpt>
      <trkpt lat="45.66088" lon="6.78086">
        <ele>1130.4</ele>
        <time>2021-06-01T12:41:01Z</time>
      </trkpt>
      <trkpt lat="45.66078" lon="6.781">
        <ele>1129.4</ele>
        <time>2021-06-01T12:41:02Z</time>
      </trkpt>
      <trkpt lat="45.66069" lon="6.78114">
        <ele>1128.2</ele>
        <time>2021-06-01T12:41:03Z</time>
      </trkpt>
      <trkpt lat="45.6606" lon="6.78129">
        <ele>1126.8</ele>
        <time>2021-06-01T12:41:04Z</time>
      </trkpt>
      <trkpt lat="45.66051" lon="6.78144">
        <ele>1125.6</ele>
        <time>2021-06-01T12:41:05Z</time>
      </trkpt>
      <trkpt lat="45.66041" lon="6.78157">
        <ele>1124.4</ele>
        <time>2021-06-01T12:41:06Z</time>
      </trkpt>
      <trkpt lat="45.66029" lon="6.78167">
        <ele>1123.2</ele>
        <time>2021-06-01T12:41:07Z</time>
      </trkpt>
      <trkpt lat="45.66017" lon="6.78174">
        <ele>1122.2</ele>
        <time>2021-06-01T12:41:08Z</time>
      </trkpt>
      <trkpt lat="45.66004" lon="6.78177">
        <ele>1120.8</ele>
        <time>2021-06-01T12:41:09Z</time>
      </trkpt>
      <trkpt lat="45.6599" lon="6.78176">
        <ele>1120</ele>
        <time>2021-06-01T12:41:10Z</time>
      </trkpt>
      <trkpt lat="45.65976" lon="6.78175">
        <ele>1119.4</ele>
        <time>2021-06-01T12:41:11Z</time>
      </trkpt>
      <trkpt lat="45.65962" lon="6.78176">
        <ele>1118.6</ele>
        <time>2021-06-01T12:41:12Z</time>
      </trkpt>
      <trkpt lat="45.65949" lon="6.78179">
        <ele>1117.6</ele>
        <time>2021-06-01T12:41:13Z</time>
      </trkpt>
      <trkpt lat="45.65937" lon="6.78184">
        <ele>1115.8</ele>
        <time>2021-06-01T12:41:14Z</time>
      </trkpt>
      <trkpt lat="45.65925" lon="6.78193">
        <ele>1114.4</ele>
        <time>2021-06-01T12:41:15Z</time>
      </trkpt>
      <trkpt lat="45.65915" lon="6.78204">
        <ele>1113.4</ele>
        <time>2021-06-01T12:41:16Z</time>
      </trkpt>
      <trkpt lat="45.65905" lon="6.78217">
        <ele>1112.2</ele>
        <time>2021-06-01T12:41:17Z</time>
      </trkpt>
      <trkpt lat="45.65895" lon="6.78232">
        <ele>1110.8</ele>
        <time>2021-06-01T12:41:18Z</time>
      </trkpt>
      <trkpt lat="45.65885" lon="6.78246">
        <ele>1109.6</ele>
        <time>2021-06-01T12:41:19Z</time>
      </trkpt>
      <trkpt lat="45.65874" lon="6.7826">
        <ele>1108.4</ele>
        <time>2021-06-01T12:41:20Z</time>
      </trkpt>
      <trkpt lat="45.65861" lon="6.78271">
        <ele>1107.2</ele>
        <time>2021-06-01T12:41:21Z</time>
      </trkpt>
      <trkpt lat="45.65847" lon="6.7828">
        <ele>1105</ele>
        <time>2021-06-01T12:41:22Z</time>
      </trkpt>
      <trkpt lat="45.65832" lon="6.78287">
        <ele>1104</ele>
        <time>2021-06-01T12:41:23Z</time>
      </trkpt>
      <trkpt lat="45.65817" lon="6.78292">
        <ele>1102.4</ele>
        <time>2021-06-01T12:41:24Z</time>
      </trkpt>
      <trkpt lat="45.65801" lon="6.78298">
        <ele>1101</ele>
        <time>2021-06-01T12:41:25Z</time>
      </trkpt>
      <trkpt lat="45.65785" lon="6.78304">
        <ele>1099.6</ele>
        <time>2021-06-01T12:41:26Z</time>
      </trkpt>
      <trkpt lat="45.65769" lon="6.78311">
        <ele>1097.6</ele>
        <time>2021-06-01T12:41:27Z</time>
      </trkpt>
      <trkpt lat="45.65753" lon="6.78319">
        <ele>1096.8</ele>
        <time>2021-06-01T12:41:28Z</time>
      </trkpt>
      <trkpt lat="45.65737" lon="6.78328">
        <ele>1096</ele>
        <time>2021-06-01T12:41:29Z</time>
      </trkpt>
      <trkpt lat="45.65722" lon="6.78338">
        <ele>1093.6</ele>
        <time>2021-06-01T12:41:30Z</time>
      </trkpt>
      <trkpt lat="45.65706" lon="6.78349">
        <ele>1091.8</ele>
        <time>2021-06-01T12:41:31Z</time>
      </trkpt>
      <trkpt lat="45.65692" lon="6.78359">
        <ele>1090.4</ele>
        <time>2021-06-01T12:41:32Z</time>
      </trkpt>
      <trkpt lat="45.65677" lon="6.78369">
        <ele>1088.8</ele>
        <time>2021-06-01T12:41:33Z</time>
      </trkpt>
      <trkpt lat="45.65663" lon="6.78379">
        <ele>1088</ele>
        <time>2021-06-01T12:41:34Z</time>
      </trkpt>
      <trkpt lat="45.65649" lon="6.7839">
        <ele>1085.8</ele>
        <time>2021-06-01T12:41:35Z</time>
      </trkpt>
      <trkpt lat="45.65636" lon="6.78402">
        <ele>1085</ele>
        <time>2021-06-01T12:41:36Z</time>
      </trkpt>
      <trkpt lat="45.65623" lon="6.78416">
        <ele>1082.8</ele>
        <time>2021-06-01T12:41:37Z</time>
      </trkpt>
      <trkpt lat="45.65611" lon="6.7843">
        <ele>1081.4</ele>
        <time>2021-06-01T12:41:38Z</time>
      </trkpt>
      <trkpt lat="45.65598" lon="6.78445">
        <ele>1079.6</ele>
        <time>2021-06-01T12:41:39Z</time>
      </trkpt>
      <trkpt lat="45.65585" lon="6.7846">
        <ele>1077.6</ele>
        <time>2021-06-01T12:41:40Z</time>
      </trkpt>
      <trkpt lat="45.65573" lon="6.78474">
        <ele>1076.4</ele>
        <time>2021-06-01T12:41:41Z</time>
      </trkpt>
      <trkpt lat="45.6556" lon="6.78488">
        <ele>1075.2</ele>
        <time>2021-06-01T12:41:42Z</time>
      </trkpt>
      <trkpt lat="45.65547" lon="6.78501">
        <ele>1074.2</ele>
        <time>2021-06-01T12:41:43Z</time>
      </trkpt>
      <trkpt lat="45.65534" lon="6.78515">
        <ele>1072.2</ele>
        <time>2021-06-01T12:41:44Z</time>
      </trkpt>
      <trkpt lat="45.65521" lon="6.78529">
        <ele>1070.4</ele>
        <time>2021-06-01T12:41:45Z</time>
      </trkpt>
      <trkpt lat="45.65508" lon="6.78543">
        <ele>1068.6</ele>
        <time>2021-06-01T12:41:46Z</time>
      </trkpt>
      <trkpt lat="45.65494" lon="6.78556">
        <ele>1067.4</ele>
        <time>2021-06-01T12:41:47Z</time>
      </trkpt>
      <trkpt lat="45.65482" lon="6.78571">
        <ele>1065.4</ele>
        <time>2021-06-01T12:41:48Z</time>
      </trkpt>
      <trkpt lat="45.65468" lon="6.78585">
        <ele>1064.8</ele>
        <time>2021-06-01T12:41:49Z</time>
      </trkpt>
      <trkpt lat="45.65456" lon="6.78599">
        <ele>1063.8</ele>
        <time>2021-06-01T12:41:50Z</time>
      </trkpt>
      <trkpt lat="45.65442" lon="6.78613">
        <ele>1062.4</ele>
        <time>2021-06-01T12:41:51Z</time>
      </trkpt>
      <trkpt lat="45.6543" lon="6.78626">
        <ele>1061.4</ele>
        <time>2021-06-01T12:41:52Z</time>
      </trkpt>
      <trkpt lat="45.65417" lon="6.78638">
        <ele>1060.2</ele>
        <time>2021-06-01T12:41:53Z</time>
      </trkpt>
      <trkpt lat="45.65407" lon="6.78648">
        <ele>1059.2</ele>
        <time>2021-06-01T12:41:54Z</time>
      </trkpt>
      <trkpt lat="45.65392" lon="6.7866">
        <ele>1058.4</ele>
        <time>2021-06-01T12:41:55Z</time>
      </trkpt>
      <trkpt lat="45.65379" lon="6.78671">
        <ele>1056.8</ele>
        <time>2021-06-01T12:41:56Z</time>
      </trkpt>
      <trkpt lat="45.65367" lon="6.78681">
        <ele>1056.4</ele>
        <time>2021-06-01T12:41:57Z</time>
      </trkpt>
      <trkpt lat="45.65354" lon="6.78689">
        <ele>1055.8</ele>
        <time>2021-06-01T12:41:58Z</time>
      </trkpt>
      <trkpt lat="45.6534" lon="6.78696">
        <ele>1053.6</ele>
        <time>2021-06-01T12:41:59Z</time>
      </trkpt>
      <trkpt lat="45.65326" lon="6.787">
        <ele>1051.8</ele>
        <time>2021-06-01T12:42:00Z</time>
      </trkpt>
      <trkpt lat="45.65312" lon="6.78701">
        <ele>1051</ele>
        <time>2021-06-01T12:42:01Z</time>
      </trkpt>
      <trkpt lat="45.65297" lon="6.787">
        <ele>1050.6</ele>
        <time>2021-06-01T12:42:02Z</time>
      </trkpt>
      <trkpt lat="45.65283" lon="6.787">
        <ele>1050.4</ele>
        <time>2021-06-01T12:42:03Z</time>
      </trkpt>
      <trkpt lat="45.65269" lon="6.78701">
        <ele>1050.4</ele>
        <time>2021-06-01T12:42:04Z</time>
      </trkpt>
      <trkpt lat="45.65255" lon="6.78703">
        <ele>1050</ele>
        <time>2021-06-01T12:42:05Z</time>
      </trkpt>
      <trkpt lat="45.65242" lon="6.78707">
        <ele>1048.6</ele>
        <time>2021-06-01T12:42:06Z</time>
      </trkpt>
      <trkpt lat="45.65229" lon="6.78712">
        <ele>1047.2</ele>
        <time>2021-06-01T12:42:07Z</time>
      </trkpt>
      <trkpt lat="45.65215" lon="6.78718">
        <ele>1044.6</ele>
        <time>2021-06-01T12:42:08Z</time>
      </trkpt>
      <trkpt lat="45.65201" lon="6.78724">
        <ele>1043</ele>
        <time>2021-06-01T12:42:09Z</time>
      </trkpt>
      <trkpt lat="45.65188" lon="6.78731">
        <ele>1042.2</ele>
        <time>2021-06-01T12:42:10Z</time>
      </trkpt>
      <trkpt lat="45.65174" lon="6.7874">
        <ele>1041.4</ele>
        <time>2021-06-01T12:42:11Z</time>
      </trkpt>
      <trkpt lat="45.65162" lon="6.78751">
        <ele>1039.8</ele>
        <time>2021-06-01T12:42:12Z</time>
      </trkpt>
      <trkpt lat="45.65148" lon="6.78761">
        <ele>1038.6</ele>
        <time>2021-06-01T12:42:13Z</time>
      </trkpt>
      <trkpt lat="45.65134" lon="6.7877">
        <ele>1037</ele>
        <time>2021-06-01T12:42:14Z</time>
      </trkpt>
      <trkpt lat="45.65118" lon="6.78776">
        <ele>1036.2</ele>
        <time>2021-06-01T12:42:15Z</time>
      </trkpt>
      <trkpt lat="45.65103" lon="6.78779">
        <ele>1035.2</ele>
        <time>2021-06-01T12:42:16Z</time>
      </trkpt>
      <trkpt lat="45.65087" lon="6.7878">
        <ele>1033.6</ele>
        <time>2021-06-01T12:42:17Z</time>
      </trkpt>
      <trkpt lat="45.65071" lon="6.78782">
        <ele>1032.2</ele>
        <time>2021-06-01T12:42:18Z</time>
      </trkpt>
      <trkpt lat="45.65055" lon="6.78782">
        <ele>1031</ele>
        <time>2021-06-01T12:42:19Z</time>
      </trkpt>
      <trkpt lat="45.65039" lon="6.78784">
        <ele>1029.4</ele>
        <time>2021-06-01T12:42:20Z</time>
      </trkpt>
      <trkpt lat="45.65024" lon="6.78785">
        <ele>1028</ele>
        <time>2021-06-01T12:42:21Z</time>
      </trkpt>
      <trkpt lat="45.65008" lon="6.78785">
        <ele>1026.6</ele>
        <time>2021-06-01T12:42:22Z</time>
      </trkpt>
      <trkpt lat="45.64993" lon="6.78784">
        <ele>1025</ele>
        <time>2021-06-01T12:42:23Z</time>
      </trkpt>
      <trkpt lat="45.64979" lon="6.78779">
        <ele>1023.6</ele>
        <time>2021-06-01T12:42:24Z</time>
      </trkpt>
      <trkpt lat="45.64964" lon="6.78772">
        <ele>1021.2</ele>
        <time>2021-06-01T12:42:25Z</time>
      </trkpt>
      <trkpt lat="45.64951" lon="6.78763">
        <ele>1020.6</ele>
        <time>2021-06-01T12:42:26Z</time>
      </trkpt>
      <trkpt lat="45.64938" lon="6.78753">
        <ele>1018.4</ele>
        <time>2021-06-01T12:42:27Z</time>
      </trkpt>
      <trkpt lat="45.64924" lon="6.78742">
        <ele>1016.8</ele>
        <time>2021-06-01T12:42:28Z</time>
      </trkpt>
      <trkpt lat="45.64911" lon="6.78732">
        <ele>1015.6</ele>
        <time>2021-06-01T12:42:29Z</time>
      </trkpt>
      <trkpt lat="45.64898" lon="6.78722">
        <ele>1015.4</ele>
        <time>2021-06-01T12:42:30Z</time>
      </trkpt>
      <trkpt lat="45.64885" lon="6.78711">
        <ele>1014.2</ele>
        <time>2021-06-01T12:42:31Z</time>
      </trkpt>
      <trkpt lat="45.64872" lon="6.787">
        <ele>1013.6</ele>
        <time>2021-06-01T12:42:32Z</time>
      </trkpt>
      <trkpt lat="45.64859" lon="6.78688">
        <ele>1012.8</ele>
        <time>2021-06-01T12:42:33Z</time>
      </trkpt>
      <trkpt lat="45.64846" lon="6.78677">
        <ele>1011.4</ele>
        <time>2021-06-01T12:42:34Z</time>
      </trkpt>
      <trkpt lat="45.64833" lon="6.78667">
        <ele>1010.2</ele>
        <time>2021-06-01T12:42:35Z</time>
      </trkpt>
      <trkpt lat="45.6482" lon="6.78658">
        <ele>1009.2</ele>
        <time>2021-06-01T12:42:36Z</time>
      </trkpt>
      <trkpt lat="45.64807" lon="6.7865">
        <ele>1008.2</ele>
        <time>2021-06-01T12:42:37Z</time>
      </trkpt>
      <trkpt lat="45.64794" lon="6.78642">
        <ele>1007.4</ele>
        <time>2021-06-01T12:42:38Z</time>
      </trkpt>
      <trkpt lat="45.64781" lon="6.78634">
        <ele>1006.6</ele>
        <time>2021-06-01T12:42:39Z</time>
      </trkpt>
      <trkpt lat="45.64768" lon="6.78627">
        <ele>1005.8</ele>
        <time>2021-06-01T12:42:40Z</time>
      </trkpt>
      <trkpt lat="45.64755" lon="6.78621">
        <ele>1004.6</ele>
        <time>2021-06-01T12:42:41Z</time>
      </trkpt>
      <trkpt lat="45.64741" lon="6.78615">
        <ele>1003.4</ele>
        <time>2021-06-01T12:42:42Z</time>
      </trkpt>
      <trkpt lat="45.64729" lon="6.78611">
        <ele>1002.8</ele>
        <time>2021-06-01T12:42:43Z</time>
      </trkpt>
      <trkpt lat="45.64715" lon="6.78607">
        <ele>1001.8</ele>
        <time>2021-06-01T12:42:44Z</time>
      </trkpt>
      <trkpt lat="45.64701" lon="6.78604">
        <ele>1000.6</ele>
        <time>2021-06-01T12:42:45Z</time>
      </trkpt>
      <trkpt lat="45.64688" lon="6.78605">
        <ele>1000.2</ele>
        <time>2021-06-01T12:42:46Z</time>
      </trkpt>
      <trkpt lat="45.64674" lon="6.78607">
        <ele>1000</ele>
        <time>2021-06-01T12:42:47Z</time>
      </trkpt>
      <trkpt lat="45.64661" lon="6.78609">
        <ele>999.2</ele>
        <time>2021-06-01T12:42:48Z</time>
      </trkpt>
      <trkpt lat="45.64648" lon="6.78608">
        <ele>998.6</ele>
        <time>2021-06-01T12:42:49Z</time>
      </trkpt>
      <trkpt lat="45.64636" lon="6.78606">
        <ele>997.4</ele>
        <time>2021-06-01T12:42:50Z</time>
      </trkpt>
      <trkpt lat="45.64623" lon="6.78603">
        <ele>996.8</ele>
        <time>2021-06-01T12:42:51Z</time>
      </trkpt>
      <trkpt lat="45.64611" lon="6.78599">
        <ele>996.6</ele>
        <time>2021-06-01T12:42:52Z</time>
      </trkpt>
      <trkpt lat="45.64599" lon="6.78594">
        <ele>995.8</ele>
        <time>2021-06-01T12:42:53Z</time>
      </trkpt>
      <trkpt lat="45.64588" lon="6.7859">
        <ele>995.4</ele>
        <time>2021-06-01T12:42:54Z</time>
      </trkpt>
      <trkpt lat="45.64577" lon="6.78585">
        <ele>994.6</ele>
        <time>2021-06-01T12:42:55Z</time>
      </trkpt>
      <trkpt lat="45.64566" lon="6.78582">
        <ele>993.6</ele>
        <time>2021-06-01T12:42:56Z</time>
      </trkpt>
      <trkpt lat="45.64554" lon="6.7858">
        <ele>993</ele>
        <time>2021-06-01T12:42:57Z</time>
      </trkpt>
      <trkpt lat="45.64543" lon="6.7858">
        <ele>992</ele>
        <time>2021-06-01T12:42:58Z</time>
      </trkpt>
      <trkpt lat="45.64532" lon="6.78582">
        <ele>991.4</ele>
        <time>2021-06-01T12:42:59Z</time>
      </trkpt>
      <trkpt lat="45.64521" lon="6.78583">
        <ele>991</ele>
        <time>2021-06-01T12:43:00Z</time>
      </trkpt>
      <trkpt lat="45.64509" lon="6.78584">
        <ele>990.8</ele>
        <time>2021-06-01T12:43:01Z</time>
      </trkpt>
      <trkpt lat="45.64498" lon="6.78586">
        <ele>990.4</ele>
        <time>2021-06-01T12:43:02Z</time>
      </trkpt>
      <trkpt lat="45.64486" lon="6.78586">
        <ele>989.8</ele>
        <time>2021-06-01T12:43:03Z</time>
      </trkpt>
      <trkpt lat="45.64475" lon="6.78586">
        <ele>989.4</ele>
        <time>2021-06-01T12:43:04Z</time>
      </trkpt>
      <trkpt lat="45.64464" lon="6.78587">
        <ele>989.2</ele>
        <time>2021-06-01T12:43:05Z</time>
      </trkpt>
      <trkpt lat="45.64453" lon="6.78589">
        <ele>988.8</ele>
        <time>2021-06-01T12:43:06Z</time>
      </trkpt>
      <trkpt lat="45.64442" lon="6.78592">
        <ele>988.4</ele>
        <time>2021-06-01T12:43:07Z</time>
      </trkpt>
      <trkpt lat="45.64431" lon="6.78594">
        <ele>987.6</ele>
        <time>2021-06-01T12:43:08Z</time>
      </trkpt>
      <trkpt lat="45.6442" lon="6.78596">
        <ele>987</ele>
        <time>2021-06-01T12:43:09Z</time>
      </trkpt>
      <trkpt lat="45.6441" lon="6.78598">
        <ele>986.4</ele>
        <time>2021-06-01T12:43:10Z</time>
      </trkpt>
      <trkpt lat="45.64399" lon="6.786">
        <ele>986</ele>
        <time>2021-06-01T12:43:11Z</time>
      </trkpt>
      <trkpt lat="45.64389" lon="6.78602">
        <ele>985.4</ele>
        <time>2021-06-01T12:43:12Z</time>
      </trkpt>
      <trkpt lat="45.64379" lon="6.78604">
        <ele>985</ele>
        <time>2021-06-01T12:43:13Z</time>
      </trkpt>
      <trkpt lat="45.64369" lon="6.78606">
        <ele>984.8</ele>
        <time>2021-06-01T12:43:14Z</time>
      </trkpt>
      <trkpt lat="45.64358" lon="6.78607">
        <ele>983.8</ele>
        <time>2021-06-01T12:43:15Z</time>
      </trkpt>
      <trkpt lat="45.64348" lon="6.78607">
        <ele>982.6</ele>
        <time>2021-06-01T12:43:16Z</time>
      </trkpt>
      <trkpt lat="45.64338" lon="6.78608">
        <ele>981.8</ele>
        <time>2021-06-01T12:43:17Z</time>
      </trkpt>
      <trkpt lat="45.64327" lon="6.78607">
        <ele>981</ele>
        <time>2021-06-01T12:43:18Z</time>
      </trkpt>
      <trkpt lat="45.64317" lon="6.78607">
        <ele>980.4</ele>
        <time>2021-06-01T12:43:19Z</time>
      </trkpt>
      <trkpt lat="45.64306" lon="6.78608">
        <ele>980.2</ele>
        <time>2021-06-01T12:43:20Z</time>
      </trkpt>
      <trkpt lat="45.64296" lon="6.78608">
        <ele>980</ele>
        <time>2021-06-01T12:43:21Z</time>
      </trkpt>
      <trkpt lat="45.64286" lon="6.7861">
        <ele>979.4</ele>
        <time>2021-06-01T12:43:22Z</time>
      </trkpt>
      <trkpt lat="45.64276" lon="6.78611">
        <ele>979.2</ele>
        <time>2021-06-01T12:43:23Z</time>
      </trkpt>
      <trkpt lat="45.64265" lon="6.78612">
        <ele>979.6</ele>
        <time>2021-06-01T12:43:24Z</time>
      </trkpt>
      <trkpt lat="45.64254" lon="6.78614">
        <ele>979.2</ele>
        <time>2021-06-01T12:43:25Z</time>
      </trkpt>
      <trkpt lat="45.64244" lon="6.78614">
        <ele>978.8</ele>
        <time>2021-06-01T12:43:26Z</time>
      </trkpt>
      <trkpt lat="45.64233" lon="6.78614">
        <ele>978.4</ele>
        <time>2021-06-01T12:43:27Z</time>
      </trkpt>
      <trkpt lat="45.64223" lon="6.78614">
        <ele>978</ele>
        <time>2021-06-01T12:43:28Z</time>
      </trkpt>
      <trkpt lat="45.64212" lon="6.78614">
        <ele>977.6</ele>
        <time>2021-06-01T12:43:29Z</time>
      </trkpt>
      <trkpt lat="45.64202" lon="6.78612">
        <ele>977.2</ele>
        <time>2021-06-01T12:43:30Z</time>
      </trkpt>
      <trkpt lat="45.64191" lon="6.78609">
        <ele>976.6</ele>
        <time>2021-06-01T12:43:31Z</time>
      </trkpt>
      <trkpt lat="45.64181" lon="6.78605">
        <ele>976.2</ele>
        <time>2021-06-01T12:43:32Z</time>
      </trkpt>
      <trkpt lat="45.64171" lon="6.786">
        <ele>975.8</ele>
        <time>2021-06-01T12:43:33Z</time>
      </trkpt>
      <trkpt lat="45.64161" lon="6.78594">
        <ele>975.6</ele>
        <time>2021-06-01T12:43:34Z</time>
      </trkpt>
      <trkpt lat="45.64151" lon="6.78586">
        <ele>975</ele>
        <time>2021-06-01T12:43:35Z</time>
      </trkpt>
      <trkpt lat="45.64142" lon="6.78577">
        <ele>974.6</ele>
        <time>2021-06-01T12:43:36Z</time>
      </trkpt>
      <trkpt lat="45.64133" lon="6.78568">
        <ele>974.4</ele>
        <time>2021-06-01T12:43:37Z</time>
      </trkpt>
      <trkpt lat="45.64124" lon="6.7856">
        <ele>974.2</ele>
        <time>2021-06-01T12:43:38Z</time>
      </trkpt>
      <trkpt lat="45.64114" lon="6.78551">
        <ele>974</ele>
        <time>2021-06-01T12:43:39Z</time>
      </trkpt>
      <trkpt lat="45.64105" lon="6.78544">
        <ele>973.6</ele>
        <time>2021-06-01T12:43:40Z</time>
      </trkpt>
      <trkpt lat="45.64094" lon="6.78538">
        <ele>973.2</ele>
        <time>2021-06-01T12:43:41Z</time>
      </trkpt>
      <trkpt lat="45.64084" lon="6.78532">
        <ele>973</ele>
        <time>2021-06-01T12:43:42Z</time>
      </trkpt>
      <trkpt lat="45.64074" lon="6.78526">
        <ele>973</ele>
        <time>2021-06-01T12:43:43Z</time>
      </trkpt>
      <trkpt lat="45.64064" lon="6.7852">
        <ele>972.6</ele>
        <time>2021-06-01T12:43:44Z</time>
      </trkpt>
      <trkpt lat="45.64054" lon="6.78515">
        <ele>972.4</ele>
        <time>2021-06-01T12:43:45Z</time>
      </trkpt>
      <trkpt lat="45.64044" lon="6.7851">
        <ele>972</ele>
        <time>2021-06-01T12:43:46Z</time>
      </trkpt>
      <trkpt lat="45.64034" lon="6.78506">
        <ele>971.6</ele>
        <time>2021-06-01T12:43:47Z</time>
      </trkpt>
      <trkpt lat="45.64024" lon="6.78504">
        <ele>971.2</ele>
        <time>2021-06-01T12:43:48Z</time>
      </trkpt>
      <trkpt lat="45.64014" lon="6.78504">
        <ele>970.6</ele>
        <time>2021-06-01T12:43:49Z</time>
      </trkpt>
      <trkpt lat="45.64003" lon="6.78504">
        <ele>970.4</ele>
        <time>2021-06-01T12:43:50Z</time>
      </trkpt>
      <trkpt lat="45.63993" lon="6.78504">
        <ele>969.8</ele>
        <time>2021-06-01T12:43:51Z</time>
      </trkpt>
      <trkpt lat="45.63983" lon="6.78502">
        <ele>969.2</ele>
        <time>2021-06-01T12:43:52Z</time>
      </trkpt>
      <trkpt lat="45.63974" lon="6.78498">
        <ele>968.8</ele>
        <time>2021-06-01T12:43:53Z</time>
      </trkpt>
      <trkpt lat="45.63965" lon="6.78493">
        <ele>968.4</ele>
        <time>2021-06-01T12:43:54Z</time>
      </trkpt>
      <trkpt lat="45.63957" lon="6.78488">
        <ele>968</ele>
        <time>2021-06-01T12:43:55Z</time>
      </trkpt>
      <trkpt lat="45.63949" lon="6.78482">
        <ele>967.6</ele>
        <time>2021-06-01T12:43:56Z</time>
      </trkpt>
      <trkpt lat="45.63941" lon="6.78476">
        <ele>967.4</ele>
        <time>2021-06-01T12:43:57Z</time>
      </trkpt>
      <trkpt lat="45.63934" lon="6.7847">
        <ele>967.6</ele>
        <time>2021-06-01T12:43:58Z</time>
      </trkpt>
      <trkpt lat="45.63928" lon="6.78463">
        <ele>967.4</ele>
        <time>2021-06-01T12:43:59Z</time>
      </trkpt>
      <trkpt lat="45.63923" lon="6.78455">
        <ele>967.2</ele>
        <time>2021-06-01T12:44:00Z</time>
      </trkpt>
      <trkpt lat="45.63916" lon="6.78448">
        <ele>966.8</ele>
        <time>2021-06-01T12:44:01Z</time>
      </trkpt>
      <trkpt lat="45.63909" lon="6.78442">
        <ele>967</ele>
        <time>2021-06-01T12:44:02Z</time>
      </trkpt>
      <trkpt lat="45.63902" lon="6.78439">
        <ele>966.8</ele>
        <time>2021-06-01T12:44:03Z</time>
      </trkpt>
      <trkpt lat="45.63894" lon="6.78438">
        <ele>966.8</ele>
        <time>2021-06-01T12:44:04Z</time>
      </trkpt>
      <trkpt lat="45.63886" lon="6.7844">
        <ele>966.8</ele>
        <time>2021-06-01T12:44:05Z</time>
      </trkpt>
      <trkpt lat="45.63878" lon="6.78442">
        <ele>966.4</ele>
        <time>2021-06-01T12:44:06Z</time>
      </trkpt>
      <trkpt lat="45.6387" lon="6.78445">
        <ele>966</ele>
        <time>2021-06-01T12:44:07Z</time>
      </trkpt>
      <trkpt lat="45.63861" lon="6.78448">
        <ele>965.6</ele>
        <time>2021-06-01T12:44:08Z</time>
      </trkpt>
      <trkpt lat="45.63853" lon="6.7845">
        <ele>965.4</ele>
        <time>2021-06-01T12:44:09Z</time>
      </trkpt>
      <trkpt lat="45.63844" lon="6.78452">
        <ele>965.2</ele>
        <time>2021-06-01T12:44:10Z</time>
      </trkpt>
      <trkpt lat="45.63834" lon="6.78453">
        <ele>965</ele>
        <time>2021-06-01T12:44:11Z</time>
      </trkpt>
      <trkpt lat="45.63825" lon="6.78453">
        <ele>964.8</ele>
        <time>2021-06-01T12:44:12Z</time>
      </trkpt>
      <trkpt lat="45.63816" lon="6.78452">
        <ele>964.6</ele>
        <time>2021-06-01T12:44:13Z</time>
      </trkpt>
      <trkpt lat="45.63807" lon="6.7845">
        <ele>964.2</ele>
        <time>2021-06-01T12:44:14Z</time>
      </trkpt>
      <trkpt lat="45.63798" lon="6.78448">
        <ele>963.8</ele>
        <time>2021-06-01T12:44:15Z</time>
      </trkpt>
      <trkpt lat="45.63788" lon="6.78448">
        <ele>963.6</ele>
        <time>2021-06-01T12:44:16Z</time>
      </trkpt>
      <trkpt lat="45.63779" lon="6.7845">
        <ele>963.4</ele>
        <time>2021-06-01T12:44:17Z</time>
      </trkpt>
      <trkpt lat="45.6377" lon="6.78454">
        <ele>963.4</ele>
        <time>2021-06-01T12:44:18Z</time>
      </trkpt>
      <trkpt lat="45.6376" lon="6.78457">
        <ele>962.8</ele>
        <time>2021-06-01T12:44:19Z</time>
      </trkpt>
      <trkpt lat="45.63751" lon="6.7846">
        <ele>963</ele>
        <time>2021-06-01T12:44:20Z</time>
      </trkpt>
      <trkpt lat="45.63742" lon="6.78463">
        <ele>963</ele>
        <time>2021-06-01T12:44:21Z</time>
      </trkpt>
      <trkpt lat="45.63733" lon="6.78466">
        <ele>963</ele>
        <time>2021-06-01T12:44:22Z</time>
      </trkpt>
      <trkpt lat="45.63724" lon="6.7847">
        <ele>963</ele>
        <time>2021-06-01T12:44:23Z</time>
      </trkpt>
      <trkpt lat="45.63715" lon="6.78474">
        <ele>963</ele>
        <time>2021-06-01T12:44:24Z</time>
      </trkpt>
      <trkpt lat="45.63707" lon="6.78478">
        <ele>963</ele>
        <time>2021-06-01T12:44:25Z</time>
      </trkpt>
      <trkpt lat="45.63698" lon="6.78483">
        <ele>963.2</ele>
        <time>2021-06-01T12:44:26Z</time>
      </trkpt>
      <trkpt lat="45.6369" lon="6.78487">
        <ele>963</ele>
        <time>2021-06-01T12:44:27Z</time>
      </trkpt>
      <trkpt lat="45.63682" lon="6.78492">
        <ele>963</ele>
        <time>2021-06-01T12:44:28Z</time>
      </trkpt>
      <trkpt lat="45.63675" lon="6.78497">
        <ele>963</ele>
        <time>2021-06-01T12:44:29Z</time>
      </trkpt>
      <trkpt lat="45.63669" lon="6.78504">
        <ele>963</ele>
        <time>2021-06-01T12:44:30Z</time>
      </trkpt>
      <trkpt lat="45.63662" lon="6.78511">
        <ele>963</ele>
        <time>2021-06-01T12:44:31Z</time>
      </trkpt>
      <trkpt lat="45.63655" lon="6.78517">
        <ele>963</ele>
        <time>2021-06-01T12:44:32Z</time>
      </trkpt>
      <trkpt lat="45.63647" lon="6.78522">
        <ele>963</ele>
        <time>2021-06-01T12:44:33Z</time>
      </trkpt>
      <trkpt lat="45.63638" lon="6.78526">
        <ele>962.8</ele>
        <time>2021-06-01T12:44:34Z</time>
      </trkpt>
      <trkpt lat="45.63629" lon="6.78528">
        <ele>962.6</ele>
        <time>2021-06-01T12:44:35Z</time>
      </trkpt>
      <trkpt lat="45.63621" lon="6.7853">
        <ele>962.2</ele>
        <time>2021-06-01T12:44:36Z</time>
      </trkpt>
      <trkpt lat="45.63612" lon="6.78533">
        <ele>961.8</ele>
        <time>2021-06-01T12:44:37Z</time>
      </trkpt>
      <trkpt lat="45.63603" lon="6.78535">
        <ele>961.2</ele>
        <time>2021-06-01T12:44:38Z</time>
      </trkpt>
      <trkpt lat="45.63594" lon="6.78539">
        <ele>960.8</ele>
        <time>2021-06-01T12:44:39Z</time>
      </trkpt>
      <trkpt lat="45.63585" lon="6.78543">
        <ele>960.6</ele>
        <time>2021-06-01T12:44:40Z</time>
      </trkpt>
      <trkpt lat="45.63576" lon="6.78548">
        <ele>960.2</ele>
        <time>2021-06-01T12:44:41Z</time>
      </trkpt>
      <trkpt lat="45.63566" lon="6.78552">
        <ele>959.8</ele>
        <time>2021-06-01T12:44:42Z</time>
      </trkpt>
      <trkpt lat="45.63557" lon="6.78554">
        <ele>959.6</ele>
        <time>2021-06-01T12:44:43Z</time>
      </trkpt>
      <trkpt lat="45.63548" lon="6.78553">
        <ele>959.2</ele>
        <time>2021-06-01T12:44:44Z</time>
      </trkpt>
      <trkpt lat="45.63538" lon="6.78552">
        <ele>959.2</ele>
        <time>2021-06-01T12:44:45Z</time>
      </trkpt>
      <trkpt lat="45.63528" lon="6.7855">
        <ele>959</ele>
        <time>2021-06-01T12:44:46Z</time>
      </trkpt>
      <trkpt lat="45.63518" lon="6.78549">
        <ele>958.8</ele>
        <time>2021-06-01T12:44:47Z</time>
      </trkpt>
      <trkpt lat="45.63509" lon="6.78547">
        <ele>958.6</ele>
        <time>2021-06-01T12:44:48Z</time>
      </trkpt>
      <trkpt lat="45.635" lon="6.78546">
        <ele>958.6</ele>
        <time>2021-06-01T12:44:49Z</time>
      </trkpt>
      <trkpt lat="45.6349" lon="6.78543">
        <ele>958.2</ele>
        <time>2021-06-01T12:44:50Z</time>
      </trkpt>
      <trkpt lat="45.63481" lon="6.7854">
        <ele>958.2</ele>
        <time>2021-06-01T12:44:51Z</time>
      </trkpt>
      <trkpt lat="45.63471" lon="6.78538">
        <ele>958.2</ele>
        <time>2021-06-01T12:44:52Z</time>
      </trkpt>
      <trkpt lat="45.63462" lon="6.78536">
        <ele>958.6</ele>
        <time>2021-06-01T12:44:53Z</time>
      </trkpt>
      <trkpt lat="45.63454" lon="6.78537">
        <ele>958.6</ele>
        <time>2021-06-01T12:44:54Z</time>
      </trkpt>
      <trkpt lat="45.63445" lon="6.78539">
        <ele>959</ele>
        <time>2021-06-01T12:44:55Z</time>
      </trkpt>
      <trkpt lat="45.63436" lon="6.78542">
        <ele>959.2</ele>
        <time>2021-06-01T12:44:56Z</time>
      </trkpt>
      <trkpt lat="45.63428" lon="6.78544">
        <ele>959.2</ele>
        <time>2021-06-01T12:44:57Z</time>
      </trkpt>
      <trkpt lat="45.63419" lon="6.78544">
        <ele>959.2</ele>
        <time>2021-06-01T12:44:58Z</time>
      </trkpt>
      <trkpt lat="45.63409" lon="6.78543">
        <ele>959.4</ele>
        <time>2021-06-01T12:44:59Z</time>
      </trkpt>
      <trkpt lat="45.634" lon="6.7854">
        <ele>959</ele>
        <time>2021-06-01T12:45:00Z</time>
      </trkpt>
      <trkpt lat="45.63391" lon="6.78535">
        <ele>958.8</ele>
        <time>2021-06-01T12:45:01Z</time>
      </trkpt>
      <trkpt lat="45.63382" lon="6.78528">
        <ele>958.6</ele>
        <time>2021-06-01T12:45:02Z</time>
      </trkpt>
      <trkpt lat="45.63373" lon="6.78522">
        <ele>958.6</ele>
        <time>2021-06-01T12:45:03Z</time>
      </trkpt>
      <trkpt lat="45.63364" lon="6.78515">
        <ele>958</ele>
        <time>2021-06-01T12:45:04Z</time>
      </trkpt>
      <trkpt lat="45.63354" lon="6.7851">
        <ele>958</ele>
        <time>2021-06-01T12:45:05Z</time>
      </trkpt>
      <trkpt lat="45.63344" lon="6.78506">
        <ele>957.6</ele>
        <time>2021-06-01T12:45:06Z</time>
      </trkpt>
      <trkpt lat="45.63334" lon="6.78502">
        <ele>957.2</ele>
        <time>2021-06-01T12:45:07Z</time>
      </trkpt>
      <trkpt lat="45.63324" lon="6.78497">
        <ele>956.8</ele>
        <time>2021-06-01T12:45:08Z</time>
      </trkpt>
      <trkpt lat="45.63315" lon="6.7849">
        <ele>956.6</ele>
        <time>2021-06-01T12:45:09Z</time>
      </trkpt>
      <trkpt lat="45.63305" lon="6.78483">
        <ele>956.2</ele>
        <time>2021-06-01T12:45:10Z</time>
      </trkpt>
      <trkpt lat="45.63296" lon="6.78477">
        <ele>956</ele>
        <time>2021-06-01T12:45:11Z</time>
      </trkpt>
      <trkpt lat="45.63287" lon="6.7847">
        <ele>956</ele>
        <time>2021-06-01T12:45:12Z</time>
      </trkpt>
      <trkpt lat="45.63278" lon="6.78463">
        <ele>955.8</ele>
        <time>2021-06-01T12:45:13Z</time>
      </trkpt>
      <trkpt lat="45.63269" lon="6.78455">
        <ele>955.6</ele>
        <time>2021-06-01T12:45:14Z</time>
      </trkpt>
      <trkpt lat="45.63262" lon="6.78446">
        <ele>955.8</ele>
        <time>2021-06-01T12:45:15Z</time>
      </trkpt>
      <trkpt lat="45.63254" lon="6.78437">
        <ele>955.6</ele>
        <time>2021-06-01T12:45:16Z</time>
      </trkpt>
      <trkpt lat="45.63246" lon="6.78428">
        <ele>955.6</ele>
        <time>2021-06-01T12:45:17Z</time>
      </trkpt>
      <trkpt lat="45.63238" lon="6.78421">
        <ele>956</ele>
        <time>2021-06-01T12:45:18Z</time>
      </trkpt>
      <trkpt lat="45.6323" lon="6.78416">
        <ele>956.2</ele>
        <time>2021-06-01T12:45:19Z</time>
      </trkpt>
      <trkpt lat="45.63221" lon="6.78413">
        <ele>956.4</ele>
        <time>2021-06-01T12:45:20Z</time>
      </trkpt>
      <trkpt lat="45.63212" lon="6.78412">
        <ele>956.6</ele>
        <time>2021-06-01T12:45:21Z</time>
      </trkpt>
      <trkpt lat="45.63202" lon="6.78412">
        <ele>956.4</ele>
        <time>2021-06-01T12:45:22Z</time>
      </trkpt>
      <trkpt lat="45.63193" lon="6.78413">
        <ele>956.2</ele>
        <time>2021-06-01T12:45:23Z</time>
      </trkpt>
      <trkpt lat="45.63184" lon="6.78413">
        <ele>956.2</ele>
        <time>2021-06-01T12:45:24Z</time>
      </trkpt>
      <trkpt lat="45.63174" lon="6.78414">
        <ele>956.2</ele>
        <time>2021-06-01T12:45:25Z</time>
      </trkpt>
      <trkpt lat="45.63166" lon="6.78416">
        <ele>956</ele>
        <time>2021-06-01T12:45:26Z</time>
      </trkpt>
      <trkpt lat="45.63157" lon="6.78417">
        <ele>956.4</ele>
        <time>2021-06-01T12:45:27Z</time>
      </trkpt>
      <trkpt lat="45.63148" lon="6.78418">
        <ele>956.2</ele>
        <time>2021-06-01T12:45:28Z</time>
      </trkpt>
      <trkpt lat="45.6314" lon="6.78419">
        <ele>956.2</ele>
        <time>2021-06-01T12:45:29Z</time>
      </trkpt>
      <trkpt lat="45.63131" lon="6.7842">
        <ele>956</ele>
        <time>2021-06-01T12:45:30Z</time>
      </trkpt>
      <trkpt lat="45.63123" lon="6.7842">
        <ele>955.6</ele>
        <time>2021-06-01T12:45:31Z</time>
      </trkpt>
      <trkpt lat="45.63115" lon="6.7842">
        <ele>955.4</ele>
        <time>2021-06-01T12:45:32Z</time>
      </trkpt>
      <trkpt lat="45.63107" lon="6.78419">
        <ele>955.8</ele>
        <time>2021-06-01T12:45:33Z</time>
      </trkpt>
      <trkpt lat="45.63098" lon="6.78417">
        <ele>955.6</ele>
        <time>2021-06-01T12:45:34Z</time>
      </trkpt>
      <trkpt lat="45.6309" lon="6.78415">
        <ele>955.4</ele>
        <time>2021-06-01T12:45:35Z</time>
      </trkpt>
      <trkpt lat="45.63082" lon="6.78413">
        <ele>955.2</ele>
        <time>2021-06-01T12:45:36Z</time>
      </trkpt>
      <trkpt lat="45.63073" lon="6.7841">
        <ele>955</ele>
        <time>2021-06-01T12:45:37Z</time>
      </trkpt>
      <trkpt lat="45.63065" lon="6.78407">
        <ele>954.8</ele>
        <time>2021-06-01T12:45:38Z</time>
      </trkpt>
      <trkpt lat="45.63057" lon="6.78404">
        <ele>954.8</ele>
        <time>2021-06-01T12:45:39Z</time>
      </trkpt>
      <trkpt lat="45.63048" lon="6.784">
        <ele>954.4</ele>
        <time>2021-06-01T12:45:40Z</time>
      </trkpt>
      <trkpt lat="45.63039" lon="6.78396">
        <ele>953.8</ele>
        <time>2021-06-01T12:45:41Z</time>
      </trkpt>
      <trkpt lat="45.6303" lon="6.78392">
        <ele>953.6</ele>
        <time>2021-06-01T12:45:42Z</time>
      </trkpt>
      <trkpt lat="45.63021" lon="6.78388">
        <ele>953.6</ele>
        <time>2021-06-01T12:45:43Z</time>
      </trkpt>
      <trkpt lat="45.63013" lon="6.78383">
        <ele>953.6</ele>
        <time>2021-06-01T12:45:44Z</time>
      </trkpt>
      <trkpt lat="45.63004" lon="6.78378">
        <ele>953.2</ele>
        <time>2021-06-01T12:45:45Z</time>
      </trkpt>
      <trkpt lat="45.62996" lon="6.78372">
        <ele>953.2</ele>
        <time>2021-06-01T12:45:46Z</time>
      </trkpt>
      <trkpt lat="45.62988" lon="6.78366">
        <ele>953.2</ele>
        <time>2021-06-01T12:45:47Z</time>
      </trkpt>
      <trkpt lat="45.6298" lon="6.78358">
        <ele>952.8</ele>
        <time>2021-06-01T12:45:48Z</time>
      </trkpt>
      <trkpt lat="45.62972" lon="6.78351">
        <ele>952.4</ele>
        <time>2021-06-01T12:45:49Z</time>
      </trkpt>
      <trkpt lat="45.62964" lon="6.78343">
        <ele>952.2</ele>
        <time>2021-06-01T12:45:50Z</time>
      </trkpt>
      <trkpt lat="45.62956" lon="6.78335">
        <ele>951.4</ele>
        <time>2021-06-01T12:45:51Z</time>
      </trkpt>
      <trkpt lat="45.62948" lon="6.78327">
        <ele>950.8</ele>
        <time>2021-06-01T12:45:52Z</time>
      </trkpt>
      <trkpt lat="45.6294" lon="6.7832">
        <ele>949.8</ele>
        <time>2021-06-01T12:45:53Z</time>
      </trkpt>
      <trkpt lat="45.62933" lon="6.78313">
        <ele>948.8</ele>
        <time>2021-06-01T12:45:54Z</time>
      </trkpt>
      <trkpt lat="45.62926" lon="6.78307">
        <ele>948</ele>
        <time>2021-06-01T12:45:55Z</time>
      </trkpt>
      <trkpt lat="45.6292" lon="6.78301">
        <ele>947.4</ele>
        <time>2021-06-01T12:45:56Z</time>
      </trkpt>
      <trkpt lat="45.62912" lon="6.78297">
        <ele>946.6</ele>
        <time>2021-06-01T12:45:57Z</time>
      </trkpt>
      <trkpt lat="45.62905" lon="6.78296">
        <ele>945.8</ele>
        <time>2021-06-01T12:45:58Z</time>
      </trkpt>
      <trkpt lat="45.62898" lon="6.78298">
        <ele>944.8</ele>
        <time>2021-06-01T12:45:59Z</time>
      </trkpt>
      <trkpt lat="45.6289" lon="6.78304">
        <ele>944</ele>
        <time>2021-06-01T12:46:00Z</time>
      </trkpt>
      <trkpt lat="45.62883" lon="6.78311">
        <ele>943.2</ele>
        <time>2021-06-01T12:46:01Z</time>
      </trkpt>
      <trkpt lat="45.62878" lon="6.78321">
        <ele>943</ele>
        <time>2021-06-01T12:46:02Z</time>
      </trkpt>
      <trkpt lat="45.62874" lon="6.78332">
        <ele>942.6</ele>
        <time>2021-06-01T12:46:03Z</time>
      </trkpt>
      <trkpt lat="45.62871" lon="6.78346">
        <ele>942.2</ele>
        <time>2021-06-01T12:46:04Z</time>
      </trkpt>
      <trkpt lat="45.62871" lon="6.7836">
        <ele>941.8</ele>
        <time>2021-06-01T12:46:05Z</time>
      </trkpt>
      <trkpt lat="45.62872" lon="6.78374">
        <ele>941.4</ele>
        <time>2021-06-01T12:46:06Z</time>
      </trkpt>
      <trkpt lat="45.62874" lon="6.78389">
        <ele>940.8</ele>
        <time>2021-06-01T12:46:07Z</time>
      </trkpt>
      <trkpt lat="45.62876" lon="6.78404">
        <ele>940.2</ele>
        <time>2021-06-01T12:46:08Z</time>
      </trkpt>
      <trkpt lat="45.62878" lon="6.7842">
        <ele>939.8</ele>
        <time>2021-06-01T12:46:09Z</time>
      </trkpt>
      <trkpt lat="45.62881" lon="6.78435">
        <ele>939.4</ele>
        <time>2021-06-01T12:46:10Z</time>
      </trkpt>
      <trkpt lat="45.62884" lon="6.78449">
        <ele>938.8</ele>
        <time>2021-06-01T12:46:11Z</time>
      </trkpt>
      <trkpt lat="45.62889" lon="6.78462">
        <ele>938</ele>
        <time>2021-06-01T12:46:12Z</time>
      </trkpt>
      <trkpt lat="45.62895" lon="6.78474">
        <ele>937</ele>
        <time>2021-06-01T12:46:13Z</time>
      </trkpt>
      <trkpt lat="45.62903" lon="6.78484">
        <ele>936.4</ele>
        <time>2021-06-01T12:46:14Z</time>
      </trkpt>
      <trkpt lat="45.62912" lon="6.78492">
        <ele>935.6</ele>
        <time>2021-06-01T12:46:15Z</time>
      </trkpt>
      <trkpt lat="45.62922" lon="6.78499">
        <ele>934.8</ele>
        <time>2021-06-01T12:46:16Z</time>
      </trkpt>
      <trkpt lat="45.62932" lon="6.78506">
        <ele>934</ele>
        <time>2021-06-01T12:46:17Z</time>
      </trkpt>
      <trkpt lat="45.62942" lon="6.78512">
        <ele>932.8</ele>
        <time>2021-06-01T12:46:18Z</time>
      </trkpt>
      <trkpt lat="45.62952" lon="6.78519">
        <ele>932.2</ele>
        <time>2021-06-01T12:46:19Z</time>
      </trkpt>
      <trkpt lat="45.62962" lon="6.78526">
        <ele>931.4</ele>
        <time>2021-06-01T12:46:20Z</time>
      </trkpt>
      <trkpt lat="45.62972" lon="6.78532">
        <ele>930.6</ele>
        <time>2021-06-01T12:46:21Z</time>
      </trkpt>
      <trkpt lat="45.62981" lon="6.78536">
        <ele>929.8</ele>
        <time>2021-06-01T12:46:22Z</time>
      </trkpt>
      <trkpt lat="45.62989" lon="6.7854">
        <ele>928.6</ele>
        <time>2021-06-01T12:46:23Z</time>
      </trkpt>
      <trkpt lat="45.62995" lon="6.78545">
        <ele>927.8</ele>
        <time>2021-06-01T12:46:24Z</time>
      </trkpt>
      <trkpt lat="45.62999" lon="6.7855">
        <ele>927</ele>
        <time>2021-06-01T12:46:25Z</time>
      </trkpt>
      <trkpt lat="45.63" lon="6.78557">
        <ele>926</ele>
        <time>2021-06-01T12:46:26Z</time>
      </trkpt>
      <trkpt lat="45.62996" lon="6.78562">
        <ele>925.4</ele>
        <time>2021-06-01T12:46:27Z</time>
      </trkpt>
      <trkpt lat="45.62991" lon="6.78563">
        <ele>924.8</ele>
        <time>2021-06-01T12:46:28Z</time>
      </trkpt>
      <trkpt lat="45.62984" lon="6.78561">
        <ele>924.2</ele>
        <time>2021-06-01T12:46:29Z</time>
      </trkpt>
      <trkpt lat="45.62978" lon="6.78556">
        <ele>923.8</ele>
        <time>2021-06-01T12:46:30Z</time>
      </trkpt>
      <trkpt lat="45.6297" lon="6.78552">
        <ele>923.2</ele>
        <time>2021-06-01T12:46:31Z</time>
      </trkpt>
      <trkpt lat="45.62963" lon="6.78548">
        <ele>922.8</ele>
        <time>2021-06-01T12:46:32Z</time>
      </trkpt>
      <trkpt lat="45.62955" lon="6.78544">
        <ele>922.8</ele>
        <time>2021-06-01T12:46:33Z</time>
      </trkpt>
      <trkpt lat="45.62946" lon="6.78541">
        <ele>922</ele>
        <time>2021-06-01T12:46:34Z</time>
      </trkpt>
      <trkpt lat="45.62936" lon="6.78538">
        <ele>921.8</ele>
        <time>2021-06-01T12:46:35Z</time>
      </trkpt>
      <trkpt lat="45.62927" lon="6.78535">
        <ele>921.4</ele>
        <time>2021-06-01T12:46:36Z</time>
      </trkpt>
      <trkpt lat="45.62917" lon="6.78533">
        <ele>921.2</ele>
        <time>2021-06-01T12:46:37Z</time>
      </trkpt>
      <trkpt lat="45.62908" lon="6.7853">
        <ele>920.4</ele>
        <time>2021-06-01T12:46:38Z</time>
      </trkpt>
      <trkpt lat="45.629" lon="6.78525">
        <ele>920.2</ele>
        <time>2021-06-01T12:46:39Z</time>
      </trkpt>
      <trkpt lat="45.62892" lon="6.7852">
        <ele>919.8</ele>
        <time>2021-06-01T12:46:40Z</time>
      </trkpt>
      <trkpt lat="45.62883" lon="6.78512">
        <ele>919</ele>
        <time>2021-06-01T12:46:41Z</time>
      </trkpt>
      <trkpt lat="45.62875" lon="6.78504">
        <ele>918.8</ele>
        <time>2021-06-01T12:46:42Z</time>
      </trkpt>
      <trkpt lat="45.62867" lon="6.78496">
        <ele>918.4</ele>
        <time>2021-06-01T12:46:43Z</time>
      </trkpt>
      <trkpt lat="45.62859" lon="6.78487">
        <ele>918</ele>
        <time>2021-06-01T12:46:44Z</time>
      </trkpt>
      <trkpt lat="45.62851" lon="6.78477">
        <ele>917.6</ele>
        <time>2021-06-01T12:46:45Z</time>
      </trkpt>
      <trkpt lat="45.62843" lon="6.78466">
        <ele>917.4</ele>
        <time>2021-06-01T12:46:46Z</time>
      </trkpt>
      <trkpt lat="45.62837" lon="6.78454">
        <ele>916.8</ele>
        <time>2021-06-01T12:46:47Z</time>
      </trkpt>
      <trkpt lat="45.6283" lon="6.78442">
        <ele>916.2</ele>
        <time>2021-06-01T12:46:48Z</time>
      </trkpt>
      <trkpt lat="45.62823" lon="6.78429">
        <ele>915.6</ele>
        <time>2021-06-01T12:46:49Z</time>
      </trkpt>
      <trkpt lat="45.62817" lon="6.78417">
        <ele>915</ele>
        <time>2021-06-01T12:46:50Z</time>
      </trkpt>
      <trkpt lat="45.62809" lon="6.78406">
        <ele>914.2</ele>
        <time>2021-06-01T12:46:51Z</time>
      </trkpt>
      <trkpt lat="45.62801" lon="6.78396">
        <ele>913.2</ele>
        <time>2021-06-01T12:46:52Z</time>
      </trkpt>
      <trkpt lat="45.62793" lon="6.78386">
        <ele>912.2</ele>
        <time>2021-06-01T12:46:53Z</time>
      </trkpt>
      <trkpt lat="45.62786" lon="6.78376">
        <ele>911.2</ele>
        <time>2021-06-01T12:46:54Z</time>
      </trkpt>
      <trkpt lat="45.6278" lon="6.78363">
        <ele>910.4</ele>
        <time>2021-06-01T12:46:55Z</time>
      </trkpt>
      <trkpt lat="45.62776" lon="6.7835">
        <ele>909.4</ele>
        <time>2021-06-01T12:46:56Z</time>
      </trkpt>
      <trkpt lat="45.62772" lon="6.78335">
        <ele>909</ele>
        <time>2021-06-01T12:46:57Z</time>
      </trkpt>
      <trkpt lat="45.6277" lon="6.78319">
        <ele>909</ele>
        <time>2021-06-01T12:46:58Z</time>
      </trkpt>
      <trkpt lat="45.62767" lon="6.78304">
        <ele>909</ele>
        <time>2021-06-01T12:46:59Z</time>
      </trkpt>
      <trkpt lat="45.62765" lon="6.78287">
        <ele>907.4</ele>
        <time>2021-06-01T12:47:00Z</time>
      </trkpt>
      <trkpt lat="45.62763" lon="6.78271">
        <ele>906</ele>
        <time>2021-06-01T12:47:01Z</time>
      </trkpt>
      <trkpt lat="45.62761" lon="6.78255">
        <ele>904.8</ele>
        <time>2021-06-01T12:47:02Z</time>
      </trkpt>
      <trkpt lat="45.62758" lon="6.78239">
        <ele>904.6</ele>
        <time>2021-06-01T12:47:03Z</time>
      </trkpt>
      <trkpt lat="45.62755" lon="6.78223">
        <ele>903.4</ele>
        <time>2021-06-01T12:47:04Z</time>
      </trkpt>
      <trkpt lat="45.62751" lon="6.78208">
        <ele>902.6</ele>
        <time>2021-06-01T12:47:05Z</time>
      </trkpt>
      <trkpt lat="45.62747" lon="6.78193">
        <ele>902.4</ele>
        <time>2021-06-01T12:47:06Z</time>
      </trkpt>
      <trkpt lat="45.62742" lon="6.78178">
        <ele>901.8</ele>
        <time>2021-06-01T12:47:07Z</time>
      </trkpt>
      <trkpt lat="45.62735" lon="6.78163">
        <ele>901.2</ele>
        <time>2021-06-01T12:47:08Z</time>
      </trkpt>
      <trkpt lat="45.62729" lon="6.78149">
        <ele>900.6</ele>
        <time>2021-06-01T12:47:09Z</time>
      </trkpt>
      <trkpt lat="45.62722" lon="6.78134">
        <ele>900</ele>
        <time>2021-06-01T12:47:10Z</time>
      </trkpt>
      <trkpt lat="45.62714" lon="6.7812">
        <ele>899</ele>
        <time>2021-06-01T12:47:11Z</time>
      </trkpt>
      <trkpt lat="45.62707" lon="6.78105">
        <ele>898</ele>
        <time>2021-06-01T12:47:12Z</time>
      </trkpt>
      <trkpt lat="45.627" lon="6.7809">
        <ele>897.2</ele>
        <time>2021-06-01T12:47:13Z</time>
      </trkpt>
      <trkpt lat="45.62693" lon="6.78075">
        <ele>896.4</ele>
        <time>2021-06-01T12:47:14Z</time>
      </trkpt>
      <trkpt lat="45.62686" lon="6.7806">
        <ele>895.4</ele>
        <time>2021-06-01T12:47:15Z</time>
      </trkpt>
      <trkpt lat="45.62681" lon="6.78045">
        <ele>894.2</ele>
        <time>2021-06-01T12:47:16Z</time>
      </trkpt>
      <trkpt lat="45.62676" lon="6.78029">
        <ele>893.6</ele>
        <time>2021-06-01T12:47:17Z</time>
      </trkpt>
      <trkpt lat="45.62671" lon="6.78013">
        <ele>892.2</ele>
        <time>2021-06-01T12:47:18Z</time>
      </trkpt>
      <trkpt lat="45.62666" lon="6.77997">
        <ele>890.8</ele>
        <time>2021-06-01T12:47:19Z</time>
      </trkpt>
      <trkpt lat="45.62661" lon="6.77982">
        <ele>889.6</ele>
        <time>2021-06-01T12:47:20Z</time>
      </trkpt>
      <trkpt lat="45.62654" lon="6.77968">
        <ele>888</ele>
        <time>2021-06-01T12:47:21Z</time>
      </trkpt>
      <trkpt lat="45.62647" lon="6.77954">
        <ele>886.8</ele>
        <time>2021-06-01T12:47:22Z</time>
      </trkpt>
      <trkpt lat="45.6264" lon="6.77943">
        <ele>885.4</ele>
        <time>2021-06-01T12:47:23Z</time>
      </trkpt>
      <trkpt lat="45.62632" lon="6.77932">
        <ele>884.4</ele>
        <time>2021-06-01T12:47:24Z</time>
      </trkpt>
      <trkpt lat="45.62624" lon="6.77923">
        <ele>883.6</ele>
        <time>2021-06-01T12:47:25Z</time>
      </trkpt>
      <trkpt lat="45.62618" lon="6.77913">
        <ele>882.2</ele>
        <time>2021-06-01T12:47:26Z</time>
      </trkpt>
      <trkpt lat="45.62612" lon="6.77902">
        <ele>881.4</ele>
        <time>2021-06-01T12:47:27Z</time>
      </trkpt>
      <trkpt lat="45.62611" lon="6.77888">
        <ele>880.2</ele>
        <time>2021-06-01T12:47:28Z</time>
      </trkpt>
      <trkpt lat="45.62611" lon="6.77874">
        <ele>879.2</ele>
        <time>2021-06-01T12:47:29Z</time>
      </trkpt>
      <trkpt lat="45.62612" lon="6.7786">
        <ele>878.4</ele>
        <time>2021-06-01T12:47:30Z</time>
      </trkpt>
      <trkpt lat="45.62615" lon="6.77845">
        <ele>877.6</ele>
        <time>2021-06-01T12:47:31Z</time>
      </trkpt>
      <trkpt lat="45.62617" lon="6.7783">
        <ele>876.6</ele>
        <time>2021-06-01T12:47:32Z</time>
      </trkpt>
      <trkpt lat="45.62619" lon="6.77817">
        <ele>875.4</ele>
        <time>2021-06-01T12:47:33Z</time>
      </trkpt>
      <trkpt lat="45.62618" lon="6.77803">
        <ele>874.4</ele>
        <time>2021-06-01T12:47:34Z</time>
      </trkpt>
      <trkpt lat="45.62617" lon="6.77791">
        <ele>873</ele>
        <time>2021-06-01T12:47:35Z</time>
      </trkpt>
      <trkpt lat="45.62612" lon="6.77782">
        <ele>871.8</ele>
        <time>2021-06-01T12:47:36Z</time>
      </trkpt>
      <trkpt lat="45.62605" lon="6.77775">
        <ele>870.6</ele>
        <time>2021-06-01T12:47:37Z</time>
      </trkpt>
      <trkpt lat="45.62596" lon="6.77772">
        <ele>869.6</ele>
        <time>2021-06-01T12:47:38Z</time>
      </trkpt>
      <trkpt lat="45.62587" lon="6.77771">
        <ele>869</ele>
        <time>2021-06-01T12:47:39Z</time>
      </trkpt>
      <trkpt lat="45.62577" lon="6.77772">
        <ele>868.4</ele>
        <time>2021-06-01T12:47:40Z</time>
      </trkpt>
      <trkpt lat="45.62567" lon="6.77774">
        <ele>867.8</ele>
        <time>2021-06-01T12:47:41Z</time>
      </trkpt>
      <trkpt lat="45.62558" lon="6.77776">
        <ele>867</ele>
        <time>2021-06-01T12:47:42Z</time>
      </trkpt>
      <trkpt lat="45.6255" lon="6.77778">
        <ele>866.6</ele>
        <time>2021-06-01T12:47:43Z</time>
      </trkpt>
      <trkpt lat="45.62543" lon="6.77779">
        <ele>865.6</ele>
        <time>2021-06-01T12:47:44Z</time>
      </trkpt>
      <trkpt lat="45.62537" lon="6.77778">
        <ele>865</ele>
        <time>2021-06-01T12:47:45Z</time>
      </trkpt>
      <trkpt lat="45.62531" lon="6.77775">
        <ele>864.4</ele>
        <time>2021-06-01T12:47:46Z</time>
      </trkpt>
      <trkpt lat="45.62525" lon="6.77769">
        <ele>864</ele>
        <time>2021-06-01T12:47:47Z</time>
      </trkpt>
      <trkpt lat="45.62521" lon="6.7776">
        <ele>863.4</ele>
        <time>2021-06-01T12:47:48Z</time>
      </trkpt>
      <trkpt lat="45.62517" lon="6.77751">
        <ele>862.6</ele>
        <time>2021-06-01T12:47:49Z</time>
      </trkpt>
      <trkpt lat="45.62513" lon="6.77741">
        <ele>862.2</ele>
        <time>2021-06-01T12:47:50Z</time>
      </trkpt>
      <trkpt lat="45.62509" lon="6.7773">
        <ele>861.8</ele>
        <time>2021-06-01T12:47:51Z</time>
      </trkpt>
      <trkpt lat="45.62506" lon="6.77718">
        <ele>861.4</ele>
        <time>2021-06-01T12:47:52Z</time>
      </trkpt>
      <trkpt lat="45.62502" lon="6.77705">
        <ele>861.2</ele>
        <time>2021-06-01T12:47:53Z</time>
      </trkpt>
      <trkpt lat="45.625" lon="6.77692">
        <ele>860.6</ele>
        <time>2021-06-01T12:47:54Z</time>
      </trkpt>
      <trkpt lat="45.62498" lon="6.77679">
        <ele>859.8</ele>
        <time>2021-06-01T12:47:55Z</time>
      </trkpt>
      <trkpt lat="45.62497" lon="6.77665">
        <ele>858.8</ele>
        <time>2021-06-01T12:47:56Z</time>
      </trkpt>
      <trkpt lat="45.62497" lon="6.77651">
        <ele>857.8</ele>
        <time>2021-06-01T12:47:57Z</time>
      </trkpt>
      <trkpt lat="45.62497" lon="6.77638">
        <ele>857</ele>
        <time>2021-06-01T12:47:58Z</time>
      </trkpt>
      <trkpt lat="45.62498" lon="6.77624">
        <ele>856.2</ele>
        <time>2021-06-01T12:47:59Z</time>
      </trkpt>
      <trkpt lat="45.625" lon="6.7761">
        <ele>855.2</ele>
        <time>2021-06-01T12:48:00Z</time>
      </trkpt>
      <trkpt lat="45.62503" lon="6.77597">
        <ele>854.8</ele>
        <time>2021-06-01T12:48:01Z</time>
      </trkpt>
      <trkpt lat="45.62505" lon="6.77583">
        <ele>853.8</ele>
        <time>2021-06-01T12:48:02Z</time>
      </trkpt>
      <trkpt lat="45.62506" lon="6.77569">
        <ele>853.2</ele>
        <time>2021-06-01T12:48:03Z</time>
      </trkpt>
      <trkpt lat="45.62505" lon="6.77556">
        <ele>852.8</ele>
        <time>2021-06-01T12:48:04Z</time>
      </trkpt>
      <trkpt lat="45.62503" lon="6.77542">
        <ele>852.2</ele>
        <time>2021-06-01T12:48:05Z</time>
      </trkpt>
      <trkpt lat="45.62499" lon="6.77529">
        <ele>852.2</ele>
        <time>2021-06-01T12:48:06Z</time>
      </trkpt>
      <trkpt lat="45.62493" lon="6.77515">
        <ele>852</ele>
        <time>2021-06-01T12:48:07Z</time>
      </trkpt>
      <trkpt lat="45.62487" lon="6.77502">
        <ele>851.8</ele>
        <time>2021-06-01T12:48:08Z</time>
      </trkpt>
      <trkpt lat="45.62481" lon="6.77488">
        <ele>851.4</ele>
        <time>2021-06-01T12:48:09Z</time>
      </trkpt>
      <trkpt lat="45.62475" lon="6.77474">
        <ele>850.4</ele>
        <time>2021-06-01T12:48:10Z</time>
      </trkpt>
      <trkpt lat="45.62469" lon="6.77459">
        <ele>851</ele>
        <time>2021-06-01T12:48:11Z</time>
      </trkpt>
      <trkpt lat="45.62464" lon="6.77444">
        <ele>852</ele>
        <time>2021-06-01T12:48:12Z</time>
      </trkpt>
      <trkpt lat="45.62459" lon="6.77429">
        <ele>851.6</ele>
        <time>2021-06-01T12:48:13Z</time>
      </trkpt>
      <trkpt lat="45.62454" lon="6.77414">
        <ele>851</ele>
        <time>2021-06-01T12:48:14Z</time>
      </trkpt>
      <trkpt lat="45.62449" lon="6.77398">
        <ele>850</ele>
        <time>2021-06-01T12:48:15Z</time>
      </trkpt>
      <trkpt lat="45.62443" lon="6.77383">
        <ele>849.2</ele>
        <time>2021-06-01T12:48:16Z</time>
      </trkpt>
      <trkpt lat="45.62437" lon="6.77368">
        <ele>847.8</ele>
        <time>2021-06-01T12:48:17Z</time>
      </trkpt>
      <trkpt lat="45.62432" lon="6.77354">
        <ele>847</ele>
        <time>2021-06-01T12:48:18Z</time>
      </trkpt>
      <trkpt lat="45.62426" lon="6.7734">
        <ele>846.2</ele>
        <time>2021-06-01T12:48:19Z</time>
      </trkpt>
      <trkpt lat="45.62421" lon="6.77326">
        <ele>845.4</ele>
        <time>2021-06-01T12:48:20Z</time>
      </trkpt>
      <trkpt lat="45.62415" lon="6.77312">
        <ele>844.2</ele>
        <time>2021-06-01T12:48:21Z</time>
      </trkpt>
      <trkpt lat="45.6241" lon="6.77297">
        <ele>843.6</ele>
        <time>2021-06-01T12:48:22Z</time>
      </trkpt>
      <trkpt lat="45.62405" lon="6.77283">
        <ele>843.4</ele>
        <time>2021-06-01T12:48:23Z</time>
      </trkpt>
      <trkpt lat="45.624" lon="6.77269">
        <ele>842.6</ele>
        <time>2021-06-01T12:48:24Z</time>
      </trkpt>
      <trkpt lat="45.62394" lon="6.77255">
        <ele>841.4</ele>
        <time>2021-06-01T12:48:25Z</time>
      </trkpt>
      <trkpt lat="45.62387" lon="6.77242">
        <ele>840.4</ele>
        <time>2021-06-01T12:48:26Z</time>
      </trkpt>
      <trkpt lat="45.6238" lon="6.77228">
        <ele>839.6</ele>
        <time>2021-06-01T12:48:27Z</time>
      </trkpt>
      <trkpt lat="45.62373" lon="6.77216">
        <ele>839</ele>
        <time>2021-06-01T12:48:28Z</time>
      </trkpt>
      <trkpt lat="45.62366" lon="6.77204">
        <ele>837.8</ele>
        <time>2021-06-01T12:48:29Z</time>
      </trkpt>
      <trkpt lat="45.6236" lon="6.77192">
        <ele>837</ele>
        <time>2021-06-01T12:48:30Z</time>
      </trkpt>
      <trkpt lat="45.62354" lon="6.7718">
        <ele>836.2</ele>
        <time>2021-06-01T12:48:31Z</time>
      </trkpt>
      <trkpt lat="45.62347" lon="6.77168">
        <ele>835</ele>
        <time>2021-06-01T12:48:32Z</time>
      </trkpt>
      <trkpt lat="45.6234" lon="6.77157">
        <ele>833.6</ele>
        <time>2021-06-01T12:48:33Z</time>
      </trkpt>
      <trkpt lat="45.62332" lon="6.77146">
        <ele>831.8</ele>
        <time>2021-06-01T12:48:34Z</time>
      </trkpt>
      <trkpt lat="45.62324" lon="6.77137">
        <ele>830</ele>
        <time>2021-06-01T12:48:35Z</time>
      </trkpt>
      <trkpt lat="45.62315" lon="6.77128">
        <ele>828.4</ele>
        <time>2021-06-01T12:48:36Z</time>
      </trkpt>
      <trkpt lat="45.62305" lon="6.77121">
        <ele>827</ele>
        <time>2021-06-01T12:48:37Z</time>
      </trkpt>
      <trkpt lat="45.62296" lon="6.77114">
        <ele>826.4</ele>
        <time>2021-06-01T12:48:38Z</time>
      </trkpt>
      <trkpt lat="45.62286" lon="6.77108">
        <ele>825.2</ele>
        <time>2021-06-01T12:48:39Z</time>
      </trkpt>
      <trkpt lat="45.62276" lon="6.77103">
        <ele>824</ele>
        <time>2021-06-01T12:48:40Z</time>
      </trkpt>
      <trkpt lat="45.62265" lon="6.77098">
        <ele>823.2</ele>
        <time>2021-06-01T12:48:41Z</time>
      </trkpt>
      <trkpt lat="45.62255" lon="6.77093">
        <ele>822.8</ele>
        <time>2021-06-01T12:48:42Z</time>
      </trkpt>
      <trkpt lat="45.62245" lon="6.7709">
        <ele>822.8</ele>
        <time>2021-06-01T12:48:43Z</time>
      </trkpt>
      <trkpt lat="45.62234" lon="6.77086">
        <ele>822.4</ele>
        <time>2021-06-01T12:48:44Z</time>
      </trkpt>
      <trkpt lat="45.62224" lon="6.77084">
        <ele>821.4</ele>
        <time>2021-06-01T12:48:45Z</time>
      </trkpt>
      <trkpt lat="45.62213" lon="6.77082">
        <ele>820.4</ele>
        <time>2021-06-01T12:48:46Z</time>
      </trkpt>
      <trkpt lat="45.62204" lon="6.77081">
        <ele>820</ele>
        <time>2021-06-01T12:48:47Z</time>
      </trkpt>
      <trkpt lat="45.62194" lon="6.7708">
        <ele>820</ele>
        <time>2021-06-01T12:48:48Z</time>
      </trkpt>
      <trkpt lat="45.62185" lon="6.7708">
        <ele>819.8</ele>
        <time>2021-06-01T12:48:49Z</time>
      </trkpt>
      <trkpt lat="45.62176" lon="6.7708">
        <ele>819.4</ele>
        <time>2021-06-01T12:48:50Z</time>
      </trkpt>
      <trkpt lat="45.62168" lon="6.77081">
        <ele>819.4</ele>
        <time>2021-06-01T12:48:51Z</time>
      </trkpt>
      <trkpt lat="45.6216" lon="6.77082">
        <ele>819</ele>
        <time>2021-06-01T12:48:52Z</time>
      </trkpt>
      <trkpt lat="45.62152" lon="6.77082">
        <ele>818.6</ele>
        <time>2021-06-01T12:48:53Z</time>
      </trkpt>
      <trkpt lat="45.62144" lon="6.77083">
        <ele>818.2</ele>
        <time>2021-06-01T12:48:54Z</time>
      </trkpt>
      <trkpt lat="45.62136" lon="6.77083">
        <ele>817.8</ele>
        <time>2021-06-01T12:48:55Z</time>
      </trkpt>
      <trkpt lat="45.62128" lon="6.77084">
        <ele>817.4</ele>
        <time>2021-06-01T12:48:56Z</time>
      </trkpt>
      <trkpt lat="45.6212" lon="6.77084">
        <ele>817</ele>
        <time>2021-06-01T12:48:57Z</time>
      </trkpt>
      <trkpt lat="45.62112" lon="6.77085">
        <ele>816.6</ele>
        <time>2021-06-01T12:48:58Z</time>
      </trkpt>
      <trkpt lat="45.62104" lon="6.77086">
        <ele>816.2</ele>
        <time>2021-06-01T12:48:59Z</time>
      </trkpt>
      <trkpt lat="45.62096" lon="6.77086">
        <ele>816</ele>
        <time>2021-06-01T12:49:00Z</time>
      </trkpt>
      <trkpt lat="45.62089" lon="6.77086">
        <ele>816</ele>
        <time>2021-06-01T12:49:01Z</time>
      </trkpt>
      <trkpt lat="45.62082" lon="6.77087">
        <ele>815.8</ele>
        <time>2021-06-01T12:49:02Z</time>
      </trkpt>
      <trkpt lat="45.62075" lon="6.77087">
        <ele>815.6</ele>
        <time>2021-06-01T12:49:03Z</time>
      </trkpt>
      <trkpt lat="45.62069" lon="6.77088">
        <ele>815.4</ele>
        <time>2021-06-01T12:49:04Z</time>
      </trkpt>
      <trkpt lat="45.62064" lon="6.77089">
        <ele>815.4</ele>
        <time>2021-06-01T12:49:05Z</time>
      </trkpt>
      <trkpt lat="45.6206" lon="6.7709">
        <ele>815.2</ele>
        <time>2021-06-01T12:49:06Z</time>
      </trkpt>
      <trkpt lat="45.62056" lon="6.7709">
        <ele>815</ele>
        <time>2021-06-01T12:49:07Z</time>
      </trkpt>
      <trkpt lat="45.62054" lon="6.7709">
        <ele>814.8</ele>
        <time>2021-06-01T12:49:08Z</time>
      </trkpt>
      <trkpt lat="45.62052" lon="6.7709">
        <ele>814.6</ele>
        <time>2021-06-01T12:49:10Z</time>
      </trkpt>
      <trkpt lat="45.62049" lon="6.77092">
        <ele>797</ele>
        <time>2021-06-01T12:51:54Z</time>
      </trkpt>
      <trkpt lat="45.62046" lon="6.77093">
        <ele>797</ele>
        <time>2021-06-01T12:51:55Z</time>
      </trkpt>
      <trkpt lat="45.62044" lon="6.77094">
        <ele>797</ele>
        <time>2021-06-01T12:51:56Z</time>
      </trkpt>
      <trkpt lat="45.62041" lon="6.77095">
        <ele>796.8</ele>
        <time>2021-06-01T12:51:57Z</time>
      </trkpt>
      <trkpt lat="45.62038" lon="6.77096">
        <ele>796.8</ele>
        <time>2021-06-01T12:51:58Z</time>
      </trkpt>
      <trkpt lat="45.62035" lon="6.77097">
        <ele>796.6</ele>
        <time>2021-06-01T12:51:59Z</time>
      </trkpt>
      <trkpt lat="45.62032" lon="6.77099">
        <ele>796.6</ele>
        <time>2021-06-01T12:52:00Z</time>
      </trkpt>
      <trkpt lat="45.6203" lon="6.77101">
        <ele>796.4</ele>
        <time>2021-06-01T12:52:01Z</time>
      </trkpt>
      <trkpt lat="45.62027" lon="6.77104">
        <ele>796.4</ele>
        <time>2021-06-01T12:52:02Z</time>
      </trkpt>
      <trkpt lat="45.62026" lon="6.77107">
        <ele>796.4</ele>
        <time>2021-06-01T12:52:03Z</time>
      </trkpt>
      <trkpt lat="45.62024" lon="6.77111">
        <ele>796.2</ele>
        <time>2021-06-01T12:52:04Z</time>
      </trkpt>
      <trkpt lat="45.62024" lon="6.77116">
        <ele>796.2</ele>
        <time>2021-06-01T12:52:05Z</time>
      </trkpt>
      <trkpt lat="45.62023" lon="6.77121">
        <ele>796</ele>
        <time>2021-06-01T12:52:06Z</time>
      </trkpt>
      <trkpt lat="45.62022" lon="6.77126">
        <ele>796</ele>
        <time>2021-06-01T12:52:07Z</time>
      </trkpt>
      <trkpt lat="45.62021" lon="6.77132">
        <ele>795.8</ele>
        <time>2021-06-01T12:52:08Z</time>
      </trkpt>
      <trkpt lat="45.6202" lon="6.77138">
        <ele>795.6</ele>
        <time>2021-06-01T12:52:09Z</time>
      </trkpt>
      <trkpt lat="45.62019" lon="6.77144">
        <ele>795.6</ele>
        <time>2021-06-01T12:52:10Z</time>
      </trkpt>
      <trkpt lat="45.62018" lon="6.77149">
        <ele>795.4</ele>
        <time>2021-06-01T12:52:11Z</time>
      </trkpt>
      <trkpt lat="45.62016" lon="6.77154">
        <ele>795.2</ele>
        <time>2021-06-01T12:52:12Z</time>
      </trkpt>
      <trkpt lat="45.62014" lon="6.77159">
        <ele>795</ele>
        <time>2021-06-01T12:52:13Z</time>
      </trkpt>
      <trkpt lat="45.62012" lon="6.77163">
        <ele>794.6</ele>
        <time>2021-06-01T12:52:14Z</time>
      </trkpt>
      <trkpt lat="45.6201" lon="6.77166">
        <ele>794.4</ele>
        <time>2021-06-01T12:52:15Z</time>
      </trkpt>
      <trkpt lat="45.62009" lon="6.7717">
        <ele>794.2</ele>
        <time>2021-06-01T12:52:16Z</time>
      </trkpt>
      <trkpt lat="45.62007" lon="6.77175">
        <ele>794</ele>
        <time>2021-06-01T12:52:17Z</time>
      </trkpt>
      <trkpt lat="45.62006" lon="6.77179">
        <ele>793.8</ele>
        <time>2021-06-01T12:52:18Z</time>
      </trkpt>
      <trkpt lat="45.62005" lon="6.77183">
        <ele>793.6</ele>
        <time>2021-06-01T12:52:19Z</time>
      </trkpt>
      <trkpt lat="45.62005" lon="6.77186">
        <ele>793.4</ele>
        <time>2021-06-01T12:52:20Z</time>
      </trkpt>
      <trkpt lat="45.62005" lon="6.77189">
        <ele>793.2</ele>
        <time>2021-06-01T12:52:21Z</time>
      </trkpt>
      <trkpt lat="45.62006" lon="6.77192">
        <ele>792.6</ele>
        <time>2021-06-01T12:52:24Z</time>
      </trkpt>
      <trkpt lat="45.62007" lon="6.77189">
        <ele>792.4</ele>
        <time>2021-06-01T12:52:28Z</time>
      </trkpt>
    </trkseg>
  </trk>
</gpx>